<?xml version='1.0' encoding='UTF-8'?><gpx version="1.1" creator="JPX - https://github.com/jenetics/jpx" xmlns="http://www.topografix.com/GPX/1/1"><trk><trkseg><trkpt lat="43.7011575" lon="10.8947671"><ele>25.0</ele><time>2026-04-11T13:23:34.041Z</time></trkpt><trkpt lat="43.7011529" lon="10.8946516"><ele>25.0</ele><time>2026-04-11T13:23:38.03Z</time></trkpt><trkpt lat="43.7012141" lon="10.8945355"><ele>25.0</ele><time>2026-04-11T13:23:41.038Z</time></trkpt><trkpt lat="43.7011555" lon="10.894683"><ele>25.0</ele><time>2026-04-11T13:23:49.076Z</time></trkpt><trkpt lat="43.700929" lon="10.8948938"><ele>24.8</ele><time>2026-04-11T13:23:54.999Z</time></trkpt><trkpt lat="43.7008493" lon="10.8949247"><ele>24.6</ele><time>2026-04-11T13:24:27.938Z</time></trkpt><trkpt lat="43.7007902" lon="10.8949809"><ele>24.4</ele><time>2026-04-11T13:24:28.943Z</time></trkpt><trkpt lat="43.700677" lon="10.8950589"><ele>24.2</ele><time>2026-04-11T13:24:29.941Z</time></trkpt><trkpt lat="43.7005669" lon="10.8951244"><ele>24.0</ele><time>2026-04-11T13:24:30.932Z</time></trkpt><trkpt lat="43.7004471" lon="10.8951903"><ele>24.0</ele><time>2026-04-11T13:24:31.921Z</time></trkpt><trkpt lat="43.7003206" lon="10.8952584"><ele>24.0</ele><time>2026-04-11T13:24:32.911Z</time></trkpt><trkpt lat="43.7001854" lon="10.895326"><ele>24.0</ele><time>2026-04-11T13:24:33.908Z</time></trkpt><trkpt lat="43.7000397" lon="10.8954019"><ele>24.0</ele><time>2026-04-11T13:24:34.916Z</time></trkpt><trkpt lat="43.6998849" lon="10.89548"><ele>24.666666666666664</ele><time>2026-04-11T13:24:35.93Z</time></trkpt><trkpt lat="43.6997301" lon="10.8955588"><ele>25.333333333333332</ele><time>2026-04-11T13:24:36.929Z</time></trkpt><trkpt lat="43.6995728" lon="10.8956324"><ele>26.0</ele><time>2026-04-11T13:24:37.928Z</time></trkpt><trkpt lat="43.6994052" lon="10.8957121"><ele>26.0</ele><time>2026-04-11T13:24:38.924Z</time></trkpt><trkpt lat="43.6992336" lon="10.8957978"><ele>26.0</ele><time>2026-04-11T13:24:39.926Z</time></trkpt><trkpt lat="43.6990731" lon="10.895879"><ele>26.0</ele><time>2026-04-11T13:24:40.934Z</time></trkpt><trkpt lat="43.6989275" lon="10.8959471"><ele>26.0</ele><time>2026-04-11T13:24:41.916Z</time></trkpt><trkpt lat="43.6987862" lon="10.8960164"><ele>26.0</ele><time>2026-04-11T13:24:42.923Z</time></trkpt><trkpt lat="43.6986602" lon="10.8960888"><ele>26.0</ele><time>2026-04-11T13:24:43.919Z</time></trkpt><trkpt lat="43.6985328" lon="10.8961524"><ele>26.0</ele><time>2026-04-11T13:24:44.918Z</time></trkpt><trkpt lat="43.6984018" lon="10.8962125"><ele>26.25</ele><time>2026-04-11T13:24:45.923Z</time></trkpt><trkpt lat="43.6982749" lon="10.8962799"><ele>26.5</ele><time>2026-04-11T13:24:46.925Z</time></trkpt><trkpt lat="43.6981511" lon="10.8963464"><ele>26.75</ele><time>2026-04-11T13:24:47.919Z</time></trkpt><trkpt lat="43.6980227" lon="10.8964068"><ele>27.0</ele><time>2026-04-11T13:24:48.924Z</time></trkpt><trkpt lat="43.6978871" lon="10.8964799"><ele>27.0</ele><time>2026-04-11T13:24:49.92Z</time></trkpt><trkpt lat="43.6977317" lon="10.8965564"><ele>27.0</ele><time>2026-04-11T13:24:50.923Z</time></trkpt><trkpt lat="43.6975688" lon="10.8966455"><ele>27.0</ele><time>2026-04-11T13:24:51.917Z</time></trkpt><trkpt lat="43.6974051" lon="10.8967249"><ele>27.0</ele><time>2026-04-11T13:24:52.924Z</time></trkpt><trkpt lat="43.6972457" lon="10.8968093"><ele>27.0</ele><time>2026-04-11T13:24:53.927Z</time></trkpt><trkpt lat="43.6970812" lon="10.8968988"><ele>27.0</ele><time>2026-04-11T13:24:54.921Z</time></trkpt><trkpt lat="43.6968947" lon="10.8969829"><ele>27.666666666666664</ele><time>2026-04-11T13:24:55.928Z</time></trkpt><trkpt lat="43.6967176" lon="10.8970705"><ele>28.333333333333332</ele><time>2026-04-11T13:24:56.922Z</time></trkpt><trkpt lat="43.6965466" lon="10.8971534"><ele>29.0</ele><time>2026-04-11T13:24:57.918Z</time></trkpt><trkpt lat="43.6963707" lon="10.8972427"><ele>29.0</ele><time>2026-04-11T13:24:58.926Z</time></trkpt><trkpt lat="43.6961946" lon="10.8973307"><ele>29.0</ele><time>2026-04-11T13:24:59.932Z</time></trkpt><trkpt lat="43.6960198" lon="10.8974162"><ele>29.0</ele><time>2026-04-11T13:25:00.928Z</time></trkpt><trkpt lat="43.6958529" lon="10.8975082"><ele>28.666666666666664</ele><time>2026-04-11T13:25:01.947Z</time></trkpt><trkpt lat="43.69569" lon="10.8975997"><ele>28.333333333333336</ele><time>2026-04-11T13:25:02.928Z</time></trkpt><trkpt lat="43.6955298" lon="10.8977014"><ele>28.0</ele><time>2026-04-11T13:25:03.928Z</time></trkpt><trkpt lat="43.6953748" lon="10.8978015"><ele>28.0</ele><time>2026-04-11T13:25:04.937Z</time></trkpt><trkpt lat="43.6952197" lon="10.8979009"><ele>28.0</ele><time>2026-04-11T13:25:05.932Z</time></trkpt><trkpt lat="43.695069" lon="10.8979875"><ele>28.0</ele><time>2026-04-11T13:25:06.925Z</time></trkpt><trkpt lat="43.6949218" lon="10.8980905"><ele>28.0</ele><time>2026-04-11T13:25:07.932Z</time></trkpt><trkpt lat="43.6947736" lon="10.8981883"><ele>28.0</ele><time>2026-04-11T13:25:08.929Z</time></trkpt><trkpt lat="43.6946215" lon="10.8982858"><ele>28.0</ele><time>2026-04-11T13:25:09.954Z</time></trkpt><trkpt lat="43.6944705" lon="10.8983799"><ele>28.0</ele><time>2026-04-11T13:25:10.934Z</time></trkpt><trkpt lat="43.6943215" lon="10.8984766"><ele>28.0</ele><time>2026-04-11T13:25:11.937Z</time></trkpt><trkpt lat="43.694181" lon="10.8985678"><ele>28.0</ele><time>2026-04-11T13:25:12.931Z</time></trkpt><trkpt lat="43.6940482" lon="10.8986531"><ele>28.0</ele><time>2026-04-11T13:25:13.927Z</time></trkpt><trkpt lat="43.6939167" lon="10.8987302"><ele>28.0</ele><time>2026-04-11T13:25:14.934Z</time></trkpt><trkpt lat="43.6937858" lon="10.8988146"><ele>28.0</ele><time>2026-04-11T13:25:15.934Z</time></trkpt><trkpt lat="43.6936554" lon="10.8989027"><ele>28.0</ele><time>2026-04-11T13:25:16.954Z</time></trkpt><trkpt lat="43.693531" lon="10.8989834"><ele>28.5</ele><time>2026-04-11T13:25:17.936Z</time></trkpt><trkpt lat="43.6934089" lon="10.8990569"><ele>29.0</ele><time>2026-04-11T13:25:18.956Z</time></trkpt><trkpt lat="43.6932917" lon="10.8991272"><ele>29.5</ele><time>2026-04-11T13:25:19.938Z</time></trkpt><trkpt lat="43.6931787" lon="10.8991968"><ele>30.0</ele><time>2026-04-11T13:25:20.941Z</time></trkpt><trkpt lat="43.6930785" lon="10.8992638"><ele>30.0</ele><time>2026-04-11T13:25:21.929Z</time></trkpt><trkpt lat="43.6929876" lon="10.8993142"><ele>30.0</ele><time>2026-04-11T13:25:22.925Z</time></trkpt><trkpt lat="43.6929042" lon="10.8993685"><ele>30.0</ele><time>2026-04-11T13:25:23.931Z</time></trkpt><trkpt lat="43.6928346" lon="10.8994082"><ele>30.0</ele><time>2026-04-11T13:25:24.923Z</time></trkpt><trkpt lat="43.6927515" lon="10.8994669"><ele>30.0</ele><time>2026-04-11T13:25:26.92Z</time></trkpt><trkpt lat="43.6926801" lon="10.8995207"><ele>30.0</ele><time>2026-04-11T13:26:42.93Z</time></trkpt><trkpt lat="43.6925988" lon="10.8995724"><ele>30.4</ele><time>2026-04-11T13:26:44.927Z</time></trkpt><trkpt lat="43.6925295" lon="10.8996147"><ele>30.8</ele><time>2026-04-11T13:26:45.917Z</time></trkpt><trkpt lat="43.6924449" lon="10.8996511"><ele>31.200000000000003</ele><time>2026-04-11T13:26:46.915Z</time></trkpt><trkpt lat="43.6923546" lon="10.8996416"><ele>31.6</ele><time>2026-04-11T13:26:47.926Z</time></trkpt><trkpt lat="43.6922631" lon="10.8995751"><ele>32.0</ele><time>2026-04-11T13:26:48.91Z</time></trkpt><trkpt lat="43.692175" lon="10.8995016"><ele>32.0</ele><time>2026-04-11T13:26:49.915Z</time></trkpt><trkpt lat="43.6920957" lon="10.8994197"><ele>32.0</ele><time>2026-04-11T13:26:50.921Z</time></trkpt><trkpt lat="43.6920131" lon="10.8993378"><ele>32.0</ele><time>2026-04-11T13:26:53.021Z</time></trkpt><trkpt lat="43.6919359" lon="10.8992662"><ele>32.0</ele><time>2026-04-11T13:26:54.018Z</time></trkpt><trkpt lat="43.6918683" lon="10.8992034"><ele>32.0</ele><time>2026-04-11T13:26:55.014Z</time></trkpt><trkpt lat="43.6918076" lon="10.8991435"><ele>31.833333333333332</ele><time>2026-04-11T13:26:56.015Z</time></trkpt><trkpt lat="43.6917451" lon="10.8990835"><ele>31.666666666666664</ele><time>2026-04-11T13:26:57.019Z</time></trkpt><trkpt lat="43.6916763" lon="10.8990079"><ele>31.5</ele><time>2026-04-11T13:26:58.016Z</time></trkpt><trkpt lat="43.6916079" lon="10.8989287"><ele>31.333333333333336</ele><time>2026-04-11T13:26:59.012Z</time></trkpt><trkpt lat="43.6915372" lon="10.8988431"><ele>31.166666666666668</ele><time>2026-04-11T13:27:00.017Z</time></trkpt><trkpt lat="43.691469" lon="10.8987619"><ele>31.0</ele><time>2026-04-11T13:27:01.016Z</time></trkpt><trkpt lat="43.6914069" lon="10.898687"><ele>31.000000000000004</ele><time>2026-04-11T13:27:02.014Z</time></trkpt><trkpt lat="43.691347" lon="10.8986103"><ele>31.0</ele><time>2026-04-11T13:27:03.021Z</time></trkpt><trkpt lat="43.6912918" lon="10.89852"><ele>31.0</ele><time>2026-04-11T13:27:04.006Z</time></trkpt><trkpt lat="43.6912346" lon="10.8984449"><ele>31.0</ele><time>2026-04-11T13:27:05.009Z</time></trkpt><trkpt lat="43.6911575" lon="10.8983688"><ele>31.000000000000004</ele><time>2026-04-11T13:27:06.011Z</time></trkpt><trkpt lat="43.6910791" lon="10.8982899"><ele>31.0</ele><time>2026-04-11T13:27:06.997Z</time></trkpt><trkpt lat="43.6910024" lon="10.8982118"><ele>30.8</ele><time>2026-04-11T13:27:07.994Z</time></trkpt><trkpt lat="43.6909278" lon="10.8981307"><ele>30.6</ele><time>2026-04-11T13:27:08.999Z</time></trkpt><trkpt lat="43.6908569" lon="10.8980495"><ele>30.4</ele><time>2026-04-11T13:27:10.012Z</time></trkpt><trkpt lat="43.690788" lon="10.897972"><ele>30.2</ele><time>2026-04-11T13:27:11.006Z</time></trkpt><trkpt lat="43.6907226" lon="10.8978899"><ele>30.0</ele><time>2026-04-11T13:27:12.003Z</time></trkpt><trkpt lat="43.6906451" lon="10.8978049"><ele>30.0</ele><time>2026-04-11T13:27:13.003Z</time></trkpt><trkpt lat="43.6905613" lon="10.8977142"><ele>30.0</ele><time>2026-04-11T13:27:14.005Z</time></trkpt><trkpt lat="43.690483" lon="10.8976165"><ele>30.0</ele><time>2026-04-11T13:27:14.994Z</time></trkpt><trkpt lat="43.6903961" lon="10.8975203"><ele>30.0</ele><time>2026-04-11T13:27:15.983Z</time></trkpt><trkpt lat="43.6903052" lon="10.8974265"><ele>30.0</ele><time>2026-04-11T13:27:16.984Z</time></trkpt><trkpt lat="43.6902245" lon="10.8973364"><ele>30.0</ele><time>2026-04-11T13:27:17.981Z</time></trkpt><trkpt lat="43.6901504" lon="10.897248"><ele>30.0</ele><time>2026-04-11T13:27:18.99Z</time></trkpt><trkpt lat="43.6900743" lon="10.8971646"><ele>30.0</ele><time>2026-04-11T13:27:19.991Z</time></trkpt><trkpt lat="43.6900051" lon="10.8970796"><ele>30.0</ele><time>2026-04-11T13:27:20.995Z</time></trkpt><trkpt lat="43.6899484" lon="10.8970036"><ele>30.0</ele><time>2026-04-11T13:27:21.99Z</time></trkpt><trkpt lat="43.689882" lon="10.8969258"><ele>30.0</ele><time>2026-04-11T13:27:22.996Z</time></trkpt><trkpt lat="43.6898049" lon="10.8968482"><ele>30.0</ele><time>2026-04-11T13:27:24.005Z</time></trkpt><trkpt lat="43.6897289" lon="10.8967694"><ele>30.0</ele><time>2026-04-11T13:27:24.982Z</time></trkpt><trkpt lat="43.6896756" lon="10.8966942"><ele>30.0</ele><time>2026-04-11T13:27:25.987Z</time></trkpt><trkpt lat="43.6896154" lon="10.8966214"><ele>30.0</ele><time>2026-04-11T13:27:26.997Z</time></trkpt><trkpt lat="43.6895559" lon="10.8965473"><ele>30.0</ele><time>2026-04-11T13:27:27.994Z</time></trkpt><trkpt lat="43.6894891" lon="10.896471"><ele>30.0</ele><time>2026-04-11T13:27:29.02Z</time></trkpt><trkpt lat="43.6894243" lon="10.8963968"><ele>30.0</ele><time>2026-04-11T13:27:30.022Z</time></trkpt><trkpt lat="43.6893648" lon="10.896335"><ele>30.0</ele><time>2026-04-11T13:27:31.021Z</time></trkpt><trkpt lat="43.6893096" lon="10.8962727"><ele>30.0</ele><time>2026-04-11T13:27:32.024Z</time></trkpt><trkpt lat="43.6892165" lon="10.896162"><ele>30.0</ele><time>2026-04-11T13:27:34.02Z</time></trkpt><trkpt lat="43.6891691" lon="10.8961033"><ele>30.0</ele><time>2026-04-11T13:27:35.02Z</time></trkpt><trkpt lat="43.6891166" lon="10.895978"><ele>30.2</ele><time>2026-04-11T13:27:35.927Z</time></trkpt><trkpt lat="43.6891587" lon="10.8958163"><ele>30.4</ele><time>2026-04-11T13:27:37.911Z</time></trkpt><trkpt lat="43.6892126" lon="10.8957453"><ele>30.6</ele><time>2026-04-11T13:27:38.926Z</time></trkpt><trkpt lat="43.6892546" lon="10.8956562"><ele>30.8</ele><time>2026-04-11T13:27:39.923Z</time></trkpt><trkpt lat="43.6893209" lon="10.8955485"><ele>31.0</ele><time>2026-04-11T13:27:40.909Z</time></trkpt><trkpt lat="43.6894" lon="10.8954239"><ele>31.0</ele><time>2026-04-11T13:27:41.906Z</time></trkpt><trkpt lat="43.6894891" lon="10.895281"><ele>31.0</ele><time>2026-04-11T13:27:42.893Z</time></trkpt><trkpt lat="43.6895779" lon="10.8951336"><ele>31.0</ele><time>2026-04-11T13:27:43.887Z</time></trkpt><trkpt lat="43.6896664" lon="10.8949826"><ele>31.0</ele><time>2026-04-11T13:27:44.891Z</time></trkpt><trkpt lat="43.6897551" lon="10.8948401"><ele>31.0</ele><time>2026-04-11T13:27:45.891Z</time></trkpt><trkpt lat="43.6898475" lon="10.8947072"><ele>31.0</ele><time>2026-04-11T13:27:46.895Z</time></trkpt><trkpt lat="43.6899449" lon="10.8945663"><ele>31.0</ele><time>2026-04-11T13:27:47.891Z</time></trkpt><trkpt lat="43.6900279" lon="10.8944427"><ele>31.0</ele><time>2026-04-11T13:27:48.896Z</time></trkpt><trkpt lat="43.6901009" lon="10.8943203"><ele>30.8</ele><time>2026-04-11T13:27:49.92Z</time></trkpt><trkpt lat="43.6901715" lon="10.8942148"><ele>30.6</ele><time>2026-04-11T13:27:50.914Z</time></trkpt><trkpt lat="43.690232" lon="10.894134"><ele>30.4</ele><time>2026-04-11T13:27:51.909Z</time></trkpt><trkpt lat="43.6902786" lon="10.8940582"><ele>30.2</ele><time>2026-04-11T13:27:52.922Z</time></trkpt><trkpt lat="43.690256" lon="10.8939095"><ele>30.0</ele><time>2026-04-11T13:27:54.925Z</time></trkpt><trkpt lat="43.6901997" lon="10.8938297"><ele>30.75</ele><time>2026-04-11T13:27:55.913Z</time></trkpt><trkpt lat="43.6901478" lon="10.8937133"><ele>31.5</ele><time>2026-04-11T13:27:56.907Z</time></trkpt><trkpt lat="43.6900868" lon="10.893572"><ele>32.25</ele><time>2026-04-11T13:27:57.909Z</time></trkpt><trkpt lat="43.6900383" lon="10.8934107"><ele>33.0</ele><time>2026-04-11T13:27:58.904Z</time></trkpt><trkpt lat="43.6899952" lon="10.8932493"><ele>34.25</ele><time>2026-04-11T13:27:59.907Z</time></trkpt><trkpt lat="43.6899562" lon="10.8931006"><ele>35.5</ele><time>2026-04-11T13:28:00.903Z</time></trkpt><trkpt lat="43.6898999" lon="10.8929399"><ele>36.75</ele><time>2026-04-11T13:28:01.909Z</time></trkpt><trkpt lat="43.6898566" lon="10.8927695"><ele>38.0</ele><time>2026-04-11T13:28:02.905Z</time></trkpt><trkpt lat="43.6898198" lon="10.8926134"><ele>39.4</ele><time>2026-04-11T13:28:03.903Z</time></trkpt><trkpt lat="43.6897821" lon="10.8924739"><ele>40.8</ele><time>2026-04-11T13:28:04.903Z</time></trkpt><trkpt lat="43.6897368" lon="10.8923231"><ele>42.2</ele><time>2026-04-11T13:28:05.904Z</time></trkpt><trkpt lat="43.6897021" lon="10.8921853"><ele>43.6</ele><time>2026-04-11T13:28:06.911Z</time></trkpt><trkpt lat="43.6896627" lon="10.8920498"><ele>45.0</ele><time>2026-04-11T13:28:07.93Z</time></trkpt><trkpt lat="43.6896428" lon="10.8919457"><ele>45.0</ele><time>2026-04-11T13:28:08.912Z</time></trkpt><trkpt lat="43.6896302" lon="10.8918493"><ele>45.0</ele><time>2026-04-11T13:28:09.912Z</time></trkpt><trkpt lat="43.6895645" lon="10.8917531"><ele>45.0</ele><time>2026-04-11T13:28:11.926Z</time></trkpt><trkpt lat="43.689442" lon="10.8917592"><ele>45.0</ele><time>2026-04-11T13:28:13.898Z</time></trkpt><trkpt lat="43.6893485" lon="10.8918102"><ele>45.0</ele><time>2026-04-11T13:28:14.891Z</time></trkpt><trkpt lat="43.6892223" lon="10.8918748"><ele>46.0</ele><time>2026-04-11T13:28:15.899Z</time></trkpt><trkpt lat="43.6891081" lon="10.8919398"><ele>47.0</ele><time>2026-04-11T13:28:16.909Z</time></trkpt><trkpt lat="43.6889924" lon="10.891994"><ele>48.0</ele><time>2026-04-11T13:28:17.908Z</time></trkpt><trkpt lat="43.6888861" lon="10.8920752"><ele>49.0</ele><time>2026-04-11T13:28:18.906Z</time></trkpt><trkpt lat="43.6887956" lon="10.8921723"><ele>49.0</ele><time>2026-04-11T13:28:19.924Z</time></trkpt><trkpt lat="43.6887166" lon="10.8922729"><ele>49.0</ele><time>2026-04-11T13:28:20.912Z</time></trkpt><trkpt lat="43.6886284" lon="10.892382"><ele>49.0</ele><time>2026-04-11T13:28:21.914Z</time></trkpt><trkpt lat="43.68852" lon="10.892487"><ele>49.0</ele><time>2026-04-11T13:28:22.915Z</time></trkpt><trkpt lat="43.6884098" lon="10.8926031"><ele>50.75</ele><time>2026-04-11T13:28:23.92Z</time></trkpt><trkpt lat="43.6883032" lon="10.8927237"><ele>52.5</ele><time>2026-04-11T13:28:24.919Z</time></trkpt><trkpt lat="43.6882" lon="10.8928469"><ele>54.25</ele><time>2026-04-11T13:28:25.924Z</time></trkpt><trkpt lat="43.6880918" lon="10.89293"><ele>56.0</ele><time>2026-04-11T13:28:26.91Z</time></trkpt><trkpt lat="43.6879937" lon="10.8930033"><ele>56.0</ele><time>2026-04-11T13:28:27.903Z</time></trkpt><trkpt lat="43.6878866" lon="10.8930898"><ele>56.0</ele><time>2026-04-11T13:28:28.907Z</time></trkpt><trkpt lat="43.6877643" lon="10.8931577"><ele>56.0</ele><time>2026-04-11T13:28:29.907Z</time></trkpt><trkpt lat="43.6876314" lon="10.8931831"><ele>56.0</ele><time>2026-04-11T13:28:30.908Z</time></trkpt><trkpt lat="43.6875017" lon="10.8932112"><ele>57.25</ele><time>2026-04-11T13:28:31.909Z</time></trkpt><trkpt lat="43.687373" lon="10.8931923"><ele>58.5</ele><time>2026-04-11T13:28:32.902Z</time></trkpt><trkpt lat="43.6872554" lon="10.8931845"><ele>59.75</ele><time>2026-04-11T13:28:33.898Z</time></trkpt><trkpt lat="43.6871354" lon="10.8932172"><ele>61.0</ele><time>2026-04-11T13:28:34.913Z</time></trkpt><trkpt lat="43.6870079" lon="10.8932901"><ele>61.5</ele><time>2026-04-11T13:28:35.913Z</time></trkpt><trkpt lat="43.6868656" lon="10.8933677"><ele>62.0</ele><time>2026-04-11T13:28:36.902Z</time></trkpt><trkpt lat="43.6867225" lon="10.8934156"><ele>62.5</ele><time>2026-04-11T13:28:37.924Z</time></trkpt><trkpt lat="43.6866113" lon="10.893419"><ele>63.0</ele><time>2026-04-11T13:28:38.929Z</time></trkpt><trkpt lat="43.6865114" lon="10.8934233"><ele>63.25</ele><time>2026-04-11T13:28:39.921Z</time></trkpt><trkpt lat="43.6864219" lon="10.8934236"><ele>63.5</ele><time>2026-04-11T13:28:40.909Z</time></trkpt><trkpt lat="43.6863123" lon="10.8934371"><ele>63.75</ele><time>2026-04-11T13:28:42.909Z</time></trkpt><trkpt lat="43.6861948" lon="10.8934876"><ele>64.0</ele><time>2026-04-11T13:28:44.917Z</time></trkpt><trkpt lat="43.6860514" lon="10.8935907"><ele>64.0</ele><time>2026-04-11T13:28:46.911Z</time></trkpt><trkpt lat="43.6859408" lon="10.8936612"><ele>64.0</ele><time>2026-04-11T13:28:47.918Z</time></trkpt><trkpt lat="43.6858049" lon="10.893767"><ele>64.0</ele><time>2026-04-11T13:28:48.915Z</time></trkpt><trkpt lat="43.6856486" lon="10.8938678"><ele>64.0</ele><time>2026-04-11T13:28:49.913Z</time></trkpt><trkpt lat="43.68544" lon="10.8939817"><ele>64.0</ele><time>2026-04-11T13:28:50.916Z</time></trkpt><trkpt lat="43.6852227" lon="10.8940691"><ele>66.0</ele><time>2026-04-11T13:28:51.917Z</time></trkpt><trkpt lat="43.6850044" lon="10.8941527"><ele>68.0</ele><time>2026-04-11T13:28:52.919Z</time></trkpt><trkpt lat="43.6847463" lon="10.8942073"><ele>66.0</ele><time>2026-04-11T13:28:53.939Z</time></trkpt><trkpt lat="43.6845092" lon="10.8942661"><ele>64.0</ele><time>2026-04-11T13:28:54.936Z</time></trkpt><trkpt lat="43.6842741" lon="10.8943398"><ele>68.33333333333333</ele><time>2026-04-11T13:28:55.932Z</time></trkpt><trkpt lat="43.6840562" lon="10.8944079"><ele>72.66666666666667</ele><time>2026-04-11T13:28:56.922Z</time></trkpt><trkpt lat="43.6838599" lon="10.8944731"><ele>77.0</ele><time>2026-04-11T13:28:57.936Z</time></trkpt><trkpt lat="43.6836679" lon="10.8945102"><ele>78.75</ele><time>2026-04-11T13:28:58.932Z</time></trkpt><trkpt lat="43.6835261" lon="10.8945171"><ele>80.5</ele><time>2026-04-11T13:28:59.935Z</time></trkpt><trkpt lat="43.6834002" lon="10.8945054"><ele>82.25</ele><time>2026-04-11T13:29:00.929Z</time></trkpt><trkpt lat="43.6832998" lon="10.8944833"><ele>84.0</ele><time>2026-04-11T13:29:01.937Z</time></trkpt><trkpt lat="43.683197" lon="10.8944491"><ele>84.0</ele><time>2026-04-11T13:29:02.941Z</time></trkpt><trkpt lat="43.6831239" lon="10.894415"><ele>84.0</ele><time>2026-04-11T13:29:03.931Z</time></trkpt><trkpt lat="43.6830116" lon="10.8943752"><ele>84.0</ele><time>2026-04-11T13:29:05.931Z</time></trkpt><trkpt lat="43.6829214" lon="10.8943489"><ele>84.0</ele><time>2026-04-11T13:29:07.932Z</time></trkpt><trkpt lat="43.6828492" lon="10.8943224"><ele>84.0</ele><time>2026-04-11T13:29:10.939Z</time></trkpt><trkpt lat="43.6827683" lon="10.8942876"><ele>84.0</ele><time>2026-04-11T13:29:15.942Z</time></trkpt><trkpt lat="43.6826805" lon="10.894243"><ele>84.6</ele><time>2026-04-11T13:30:08.932Z</time></trkpt><trkpt lat="43.6826203" lon="10.8942113"><ele>85.2</ele><time>2026-04-11T13:30:09.93Z</time></trkpt><trkpt lat="43.6825414" lon="10.894166"><ele>85.8</ele><time>2026-04-11T13:30:10.932Z</time></trkpt><trkpt lat="43.6824503" lon="10.8941195"><ele>86.39999999999999</ele><time>2026-04-11T13:30:11.956Z</time></trkpt><trkpt lat="43.6823259" lon="10.8940748"><ele>87.0</ele><time>2026-04-11T13:30:12.939Z</time></trkpt><trkpt lat="43.6821977" lon="10.8940128"><ele>87.0</ele><time>2026-04-11T13:30:15.023Z</time></trkpt><trkpt lat="43.682041" lon="10.8939265"><ele>87.0</ele><time>2026-04-11T13:30:16.014Z</time></trkpt><trkpt lat="43.6818697" lon="10.8938474"><ele>87.0</ele><time>2026-04-11T13:30:17.016Z</time></trkpt><trkpt lat="43.6816735" lon="10.8937783"><ele>90.0</ele><time>2026-04-11T13:30:18.014Z</time></trkpt><trkpt lat="43.6814714" lon="10.8937045"><ele>93.0</ele><time>2026-04-11T13:30:19.018Z</time></trkpt><trkpt lat="43.6812659" lon="10.8936572"><ele>96.0</ele><time>2026-04-11T13:30:20.023Z</time></trkpt><trkpt lat="43.6810294" lon="10.8936132"><ele>100.0</ele><time>2026-04-11T13:30:21.015Z</time></trkpt><trkpt lat="43.6808067" lon="10.893563"><ele>104.0</ele><time>2026-04-11T13:30:22.008Z</time></trkpt><trkpt lat="43.6805802" lon="10.8935274"><ele>104.0</ele><time>2026-04-11T13:30:23.005Z</time></trkpt><trkpt lat="43.6803646" lon="10.8934998"><ele>104.0</ele><time>2026-04-11T13:30:24.004Z</time></trkpt><trkpt lat="43.6801643" lon="10.8934782"><ele>104.0</ele><time>2026-04-11T13:30:25.005Z</time></trkpt><trkpt lat="43.679971" lon="10.8935008"><ele>105.0</ele><time>2026-04-11T13:30:25.996Z</time></trkpt><trkpt lat="43.6798016" lon="10.8935278"><ele>106.0</ele><time>2026-04-11T13:30:27.011Z</time></trkpt><trkpt lat="43.6793958" lon="10.8937173"><ele>106.0</ele><time>2026-04-11T13:30:28.901Z</time></trkpt><trkpt lat="43.6792579" lon="10.893713"><ele>106.0</ele><time>2026-04-11T13:30:29.894Z</time></trkpt><trkpt lat="43.6791118" lon="10.8936764"><ele>106.0</ele><time>2026-04-11T13:30:30.899Z</time></trkpt><trkpt lat="43.6789631" lon="10.8936049"><ele>106.0</ele><time>2026-04-11T13:30:31.916Z</time></trkpt><trkpt lat="43.6788137" lon="10.8935073"><ele>108.0</ele><time>2026-04-11T13:30:32.904Z</time></trkpt><trkpt lat="43.6786688" lon="10.8934042"><ele>110.0</ele><time>2026-04-11T13:30:33.912Z</time></trkpt><trkpt lat="43.6785274" lon="10.8933195"><ele>112.0</ele><time>2026-04-11T13:30:34.916Z</time></trkpt><trkpt lat="43.6783861" lon="10.893229"><ele>112.0</ele><time>2026-04-11T13:30:35.915Z</time></trkpt><trkpt lat="43.6782222" lon="10.8931202"><ele>112.0</ele><time>2026-04-11T13:30:36.922Z</time></trkpt><trkpt lat="43.6780568" lon="10.8930197"><ele>112.0</ele><time>2026-04-11T13:30:37.922Z</time></trkpt><trkpt lat="43.6778964" lon="10.8929147"><ele>109.66666666666667</ele><time>2026-04-11T13:30:38.908Z</time></trkpt><trkpt lat="43.6777308" lon="10.8927909"><ele>107.33333333333334</ele><time>2026-04-11T13:30:39.917Z</time></trkpt><trkpt lat="43.6775411" lon="10.8926938"><ele>105.0</ele><time>2026-04-11T13:30:40.918Z</time></trkpt><trkpt lat="43.6773577" lon="10.8926172"><ele>107.33333333333334</ele><time>2026-04-11T13:30:41.931Z</time></trkpt><trkpt lat="43.6771807" lon="10.892549"><ele>109.66666666666667</ele><time>2026-04-11T13:30:42.937Z</time></trkpt><trkpt lat="43.6770037" lon="10.8924671"><ele>112.0</ele><time>2026-04-11T13:30:43.912Z</time></trkpt><trkpt lat="43.6768462" lon="10.8924049"><ele>112.0</ele><time>2026-04-11T13:30:44.912Z</time></trkpt><trkpt lat="43.6766762" lon="10.8923432"><ele>112.0</ele><time>2026-04-11T13:30:45.914Z</time></trkpt><trkpt lat="43.6765046" lon="10.8922814"><ele>112.0</ele><time>2026-04-11T13:30:46.924Z</time></trkpt><trkpt lat="43.6763597" lon="10.8922241"><ele>112.0</ele><time>2026-04-11T13:30:47.926Z</time></trkpt><trkpt lat="43.6761986" lon="10.8921814"><ele>112.0</ele><time>2026-04-11T13:30:48.934Z</time></trkpt><trkpt lat="43.6760421" lon="10.8921525"><ele>112.0</ele><time>2026-04-11T13:30:49.931Z</time></trkpt><trkpt lat="43.6758705" lon="10.8921102"><ele>111.0</ele><time>2026-04-11T13:30:50.939Z</time></trkpt><trkpt lat="43.67569" lon="10.8920713"><ele>110.0</ele><time>2026-04-11T13:30:51.908Z</time></trkpt><trkpt lat="43.6755155" lon="10.891988"><ele>109.0</ele><time>2026-04-11T13:30:52.917Z</time></trkpt><trkpt lat="43.6753608" lon="10.8918651"><ele>108.66666666666667</ele><time>2026-04-11T13:30:53.933Z</time></trkpt><trkpt lat="43.6752" lon="10.8917694"><ele>108.33333333333334</ele><time>2026-04-11T13:30:54.93Z</time></trkpt><trkpt lat="43.675006" lon="10.8916877"><ele>108.0</ele><time>2026-04-11T13:30:55.925Z</time></trkpt><trkpt lat="43.6748059" lon="10.8916423"><ele>112.0</ele><time>2026-04-11T13:30:56.92Z</time></trkpt><trkpt lat="43.6746167" lon="10.8916109"><ele>116.0</ele><time>2026-04-11T13:30:57.926Z</time></trkpt><trkpt lat="43.6744264" lon="10.8915797"><ele>120.0</ele><time>2026-04-11T13:30:58.924Z</time></trkpt><trkpt lat="43.6742741" lon="10.8915217"><ele>120.25</ele><time>2026-04-11T13:30:59.928Z</time></trkpt><trkpt lat="43.6741471" lon="10.8914229"><ele>120.5</ele><time>2026-04-11T13:31:00.92Z</time></trkpt><trkpt lat="43.6740245" lon="10.89131"><ele>120.75</ele><time>2026-04-11T13:31:01.918Z</time></trkpt><trkpt lat="43.6739029" lon="10.8911802"><ele>121.0</ele><time>2026-04-11T13:31:02.919Z</time></trkpt><trkpt lat="43.6737728" lon="10.8910553"><ele>121.0</ele><time>2026-04-11T13:31:03.916Z</time></trkpt><trkpt lat="43.6736375" lon="10.8909263"><ele>121.0</ele><time>2026-04-11T13:31:04.921Z</time></trkpt><trkpt lat="43.673495" lon="10.8907663"><ele>121.0</ele><time>2026-04-11T13:31:05.917Z</time></trkpt><trkpt lat="43.6733482" lon="10.8906433"><ele>124.0</ele><time>2026-04-11T13:31:06.93Z</time></trkpt><trkpt lat="43.6731782" lon="10.8905408"><ele>127.0</ele><time>2026-04-11T13:31:07.911Z</time></trkpt><trkpt lat="43.6730498" lon="10.8904684"><ele>130.0</ele><time>2026-04-11T13:31:08.927Z</time></trkpt><trkpt lat="43.672929" lon="10.8903481"><ele>130.0</ele><time>2026-04-11T13:31:09.927Z</time></trkpt><trkpt lat="43.6728173" lon="10.8901695"><ele>130.0</ele><time>2026-04-11T13:31:10.926Z</time></trkpt><trkpt lat="43.6727397" lon="10.8899806"><ele>130.0</ele><time>2026-04-11T13:31:11.93Z</time></trkpt><trkpt lat="43.6726553" lon="10.8898135"><ele>133.5</ele><time>2026-04-11T13:31:12.916Z</time></trkpt><trkpt lat="43.6725741" lon="10.8896677"><ele>137.0</ele><time>2026-04-11T13:31:13.947Z</time></trkpt><trkpt lat="43.6724833" lon="10.8895513"><ele>140.5</ele><time>2026-04-11T13:31:14.924Z</time></trkpt><trkpt lat="43.6723777" lon="10.8895055"><ele>144.0</ele><time>2026-04-11T13:31:15.922Z</time></trkpt><trkpt lat="43.6722614" lon="10.8895361"><ele>144.0</ele><time>2026-04-11T13:31:16.908Z</time></trkpt><trkpt lat="43.67216" lon="10.889634"><ele>144.0</ele><time>2026-04-11T13:31:17.891Z</time></trkpt><trkpt lat="43.6720556" lon="10.8897665"><ele>144.0</ele><time>2026-04-11T13:31:18.898Z</time></trkpt><trkpt lat="43.671974" lon="10.8899231"><ele>144.0</ele><time>2026-04-11T13:31:19.912Z</time></trkpt><trkpt lat="43.6719094" lon="10.8901335"><ele>142.0</ele><time>2026-04-11T13:31:20.884Z</time></trkpt><trkpt lat="43.6718533" lon="10.8904285"><ele>140.0</ele><time>2026-04-11T13:31:21.886Z</time></trkpt><trkpt lat="43.6718369" lon="10.8907381"><ele>138.0</ele><time>2026-04-11T13:31:22.885Z</time></trkpt><trkpt lat="43.6718176" lon="10.8910412"><ele>138.0</ele><time>2026-04-11T13:31:23.907Z</time></trkpt><trkpt lat="43.6718071" lon="10.8913027"><ele>138.0</ele><time>2026-04-11T13:31:24.911Z</time></trkpt><trkpt lat="43.6717948" lon="10.8915622"><ele>138.0</ele><time>2026-04-11T13:31:25.91Z</time></trkpt><trkpt lat="43.6717728" lon="10.8918161"><ele>137.0</ele><time>2026-04-11T13:31:26.902Z</time></trkpt><trkpt lat="43.6717126" lon="10.8920389"><ele>136.0</ele><time>2026-04-11T13:31:27.896Z</time></trkpt><trkpt lat="43.6716387" lon="10.8922295"><ele>135.0</ele><time>2026-04-11T13:31:28.906Z</time></trkpt><trkpt lat="43.671531" lon="10.8923935"><ele>135.0</ele><time>2026-04-11T13:31:29.909Z</time></trkpt><trkpt lat="43.6714364" lon="10.8925464"><ele>135.0</ele><time>2026-04-11T13:31:30.909Z</time></trkpt><trkpt lat="43.6713248" lon="10.8927099"><ele>135.0</ele><time>2026-04-11T13:31:31.92Z</time></trkpt><trkpt lat="43.6712025" lon="10.8928753"><ele>135.33333333333334</ele><time>2026-04-11T13:31:32.916Z</time></trkpt><trkpt lat="43.6710922" lon="10.893055"><ele>135.66666666666669</ele><time>2026-04-11T13:31:33.918Z</time></trkpt><trkpt lat="43.6709732" lon="10.8932517"><ele>136.0</ele><time>2026-04-11T13:31:34.901Z</time></trkpt><trkpt lat="43.6708511" lon="10.8934789"><ele>136.0</ele><time>2026-04-11T13:31:35.906Z</time></trkpt><trkpt lat="43.6707208" lon="10.893718"><ele>136.0</ele><time>2026-04-11T13:31:36.916Z</time></trkpt><trkpt lat="43.6705999" lon="10.8939681"><ele>136.0</ele><time>2026-04-11T13:31:37.925Z</time></trkpt><trkpt lat="43.6704677" lon="10.8942182"><ele>134.0</ele><time>2026-04-11T13:31:38.924Z</time></trkpt><trkpt lat="43.6703383" lon="10.8944533"><ele>132.0</ele><time>2026-04-11T13:31:39.915Z</time></trkpt><trkpt lat="43.6702319" lon="10.8946885"><ele>130.0</ele><time>2026-04-11T13:31:40.914Z</time></trkpt><trkpt lat="43.6701232" lon="10.8948931"><ele>137.66666666666669</ele><time>2026-04-11T13:31:41.92Z</time></trkpt><trkpt lat="43.6700067" lon="10.895118"><ele>145.33333333333334</ele><time>2026-04-11T13:31:42.916Z</time></trkpt><trkpt lat="43.6698969" lon="10.8953346"><ele>153.0</ele><time>2026-04-11T13:31:43.916Z</time></trkpt><trkpt lat="43.6697697" lon="10.8955224"><ele>153.0</ele><time>2026-04-11T13:31:44.93Z</time></trkpt><trkpt lat="43.6696372" lon="10.8956862"><ele>153.0</ele><time>2026-04-11T13:31:45.901Z</time></trkpt><trkpt lat="43.6695007" lon="10.8958333"><ele>153.0</ele><time>2026-04-11T13:31:46.892Z</time></trkpt><trkpt lat="43.6693563" lon="10.8960007"><ele>151.0</ele><time>2026-04-11T13:31:47.889Z</time></trkpt><trkpt lat="43.6692086" lon="10.8961347"><ele>149.0</ele><time>2026-04-11T13:31:48.878Z</time></trkpt><trkpt lat="43.6690185" lon="10.896293"><ele>147.0</ele><time>2026-04-11T13:31:49.886Z</time></trkpt><trkpt lat="43.6688297" lon="10.8964679"><ele>147.0</ele><time>2026-04-11T13:31:50.9Z</time></trkpt><trkpt lat="43.6686426" lon="10.8966116"><ele>147.0</ele><time>2026-04-11T13:31:51.905Z</time></trkpt><trkpt lat="43.668474" lon="10.8967643"><ele>147.0</ele><time>2026-04-11T13:31:52.911Z</time></trkpt><trkpt lat="43.668313" lon="10.8969181"><ele>141.33333333333334</ele><time>2026-04-11T13:31:53.912Z</time></trkpt><trkpt lat="43.6681349" lon="10.8970487"><ele>135.66666666666669</ele><time>2026-04-11T13:31:54.925Z</time></trkpt><trkpt lat="43.667941" lon="10.8971474"><ele>130.0</ele><time>2026-04-11T13:31:55.92Z</time></trkpt><trkpt lat="43.6677458" lon="10.8972179"><ele>130.0</ele><time>2026-04-11T13:31:56.909Z</time></trkpt><trkpt lat="43.6675496" lon="10.8972574"><ele>130.0</ele><time>2026-04-11T13:31:57.928Z</time></trkpt><trkpt lat="43.6673555" lon="10.8972763"><ele>130.0</ele><time>2026-04-11T13:31:58.924Z</time></trkpt><trkpt lat="43.6671571" lon="10.8972815"><ele>130.0</ele><time>2026-04-11T13:31:59.92Z</time></trkpt><trkpt lat="43.6669526" lon="10.8973"><ele>130.0</ele><time>2026-04-11T13:32:00.932Z</time></trkpt><trkpt lat="43.666747" lon="10.8973309"><ele>130.0</ele><time>2026-04-11T13:32:01.924Z</time></trkpt><trkpt lat="43.6665381" lon="10.8973558"><ele>129.33333333333334</ele><time>2026-04-11T13:32:02.935Z</time></trkpt><trkpt lat="43.6663366" lon="10.8974134"><ele>128.66666666666666</ele><time>2026-04-11T13:32:03.925Z</time></trkpt><trkpt lat="43.6661369" lon="10.8974749"><ele>128.0</ele><time>2026-04-11T13:32:04.935Z</time></trkpt><trkpt lat="43.6659334" lon="10.8975599"><ele>129.0</ele><time>2026-04-11T13:32:05.928Z</time></trkpt><trkpt lat="43.6657524" lon="10.8976524"><ele>130.0</ele><time>2026-04-11T13:32:06.925Z</time></trkpt><trkpt lat="43.6655905" lon="10.8977407"><ele>131.0</ele><time>2026-04-11T13:32:07.915Z</time></trkpt><trkpt lat="43.665437" lon="10.897813"><ele>132.66666666666666</ele><time>2026-04-11T13:32:08.93Z</time></trkpt><trkpt lat="43.6652605" lon="10.8979025"><ele>134.33333333333334</ele><time>2026-04-11T13:32:09.922Z</time></trkpt><trkpt lat="43.6650862" lon="10.8980048"><ele>136.0</ele><time>2026-04-11T13:32:10.933Z</time></trkpt><trkpt lat="43.6648941" lon="10.8981042"><ele>136.0</ele><time>2026-04-11T13:32:11.928Z</time></trkpt><trkpt lat="43.6647094" lon="10.8981902"><ele>136.0</ele><time>2026-04-11T13:32:12.923Z</time></trkpt><trkpt lat="43.66451" lon="10.8982794"><ele>136.0</ele><time>2026-04-11T13:32:13.934Z</time></trkpt><trkpt lat="43.6643096" lon="10.8983615"><ele>139.0</ele><time>2026-04-11T13:32:14.934Z</time></trkpt><trkpt lat="43.6641238" lon="10.8984484"><ele>142.0</ele><time>2026-04-11T13:32:15.949Z</time></trkpt><trkpt lat="43.6639546" lon="10.8985481"><ele>145.0</ele><time>2026-04-11T13:32:16.927Z</time></trkpt><trkpt lat="43.6637972" lon="10.8986215"><ele>145.0</ele><time>2026-04-11T13:32:17.923Z</time></trkpt><trkpt lat="43.6636292" lon="10.898677"><ele>145.0</ele><time>2026-04-11T13:32:18.922Z</time></trkpt><trkpt lat="43.6634728" lon="10.8987134"><ele>145.0</ele><time>2026-04-11T13:32:19.923Z</time></trkpt><trkpt lat="43.6633059" lon="10.898745"><ele>146.0</ele><time>2026-04-11T13:32:20.918Z</time></trkpt><trkpt lat="43.6631374" lon="10.8987641"><ele>147.0</ele><time>2026-04-11T13:32:21.917Z</time></trkpt><trkpt lat="43.6629663" lon="10.8987851"><ele>148.0</ele><time>2026-04-11T13:32:22.917Z</time></trkpt><trkpt lat="43.6627893" lon="10.8987935"><ele>146.33333333333334</ele><time>2026-04-11T13:32:23.927Z</time></trkpt><trkpt lat="43.6626074" lon="10.8987956"><ele>144.66666666666666</ele><time>2026-04-11T13:32:24.956Z</time></trkpt><trkpt lat="43.6624116" lon="10.8987927"><ele>143.0</ele><time>2026-04-11T13:32:27.017Z</time></trkpt><trkpt lat="43.6622197" lon="10.8987939"><ele>143.0</ele><time>2026-04-11T13:32:28.016Z</time></trkpt><trkpt lat="43.6620375" lon="10.8987929"><ele>143.0</ele><time>2026-04-11T13:32:29.009Z</time></trkpt><trkpt lat="43.6618652" lon="10.8987876"><ele>143.0</ele><time>2026-04-11T13:32:30.013Z</time></trkpt><trkpt lat="43.6616987" lon="10.8987901"><ele>143.0</ele><time>2026-04-11T13:32:31.017Z</time></trkpt><trkpt lat="43.6615406" lon="10.898805"><ele>143.0</ele><time>2026-04-11T13:32:32.006Z</time></trkpt><trkpt lat="43.6613822" lon="10.8988338"><ele>143.0</ele><time>2026-04-11T13:32:33.01Z</time></trkpt><trkpt lat="43.6612239" lon="10.8988785"><ele>143.0</ele><time>2026-04-11T13:32:34.014Z</time></trkpt><trkpt lat="43.6610636" lon="10.8989361"><ele>143.0</ele><time>2026-04-11T13:32:35.019Z</time></trkpt><trkpt lat="43.6609038" lon="10.8990071"><ele>143.0</ele><time>2026-04-11T13:32:36.025Z</time></trkpt><trkpt lat="43.6607475" lon="10.899084"><ele>143.0</ele><time>2026-04-11T13:32:37.019Z</time></trkpt><trkpt lat="43.6606039" lon="10.8991803"><ele>143.0</ele><time>2026-04-11T13:32:38.021Z</time></trkpt><trkpt lat="43.6604603" lon="10.8992431"><ele>143.0</ele><time>2026-04-11T13:32:39.018Z</time></trkpt><trkpt lat="43.6603335" lon="10.8993024"><ele>143.0</ele><time>2026-04-11T13:32:40.01Z</time></trkpt><trkpt lat="43.6602134" lon="10.8993571"><ele>141.0</ele><time>2026-04-11T13:32:41.018Z</time></trkpt><trkpt lat="43.6601029" lon="10.8994176"><ele>139.0</ele><time>2026-04-11T13:32:42.007Z</time></trkpt><trkpt lat="43.6600211" lon="10.8994964"><ele>137.0</ele><time>2026-04-11T13:32:43.005Z</time></trkpt><trkpt lat="43.6599527" lon="10.8995902"><ele>135.0</ele><time>2026-04-11T13:32:43.984Z</time></trkpt><trkpt lat="43.659909" lon="10.8997088"><ele>133.0</ele><time>2026-04-11T13:32:44.979Z</time></trkpt><trkpt lat="43.6598831" lon="10.8998429"><ele>133.0</ele><time>2026-04-11T13:32:45.976Z</time></trkpt><trkpt lat="43.6598873" lon="10.8999766"><ele>133.0</ele><time>2026-04-11T13:32:47.019Z</time></trkpt><trkpt lat="43.6599199" lon="10.9001011"><ele>133.0</ele><time>2026-04-11T13:32:47.995Z</time></trkpt><trkpt lat="43.6599602" lon="10.900196"><ele>133.0</ele><time>2026-04-11T13:32:48.988Z</time></trkpt><trkpt lat="43.66" lon="10.9002734"><ele>133.0</ele><time>2026-04-11T13:32:49.973Z</time></trkpt><trkpt lat="43.6600524" lon="10.9003536"><ele>133.0</ele><time>2026-04-11T13:32:51.977Z</time></trkpt><trkpt lat="43.6600443" lon="10.9004738"><ele>133.0</ele><time>2026-04-11T13:32:55.005Z</time></trkpt><trkpt lat="43.6599741" lon="10.9004181"><ele>133.0</ele><time>2026-04-11T13:32:59.002Z</time></trkpt><trkpt lat="43.6598715" lon="10.900281"><ele>133.0</ele><time>2026-04-11T13:33:00.989Z</time></trkpt><trkpt lat="43.6597993" lon="10.9001753"><ele>133.0</ele><time>2026-04-11T13:33:01.989Z</time></trkpt><trkpt lat="43.6597024" lon="10.9000508"><ele>133.0</ele><time>2026-04-11T13:33:02.989Z</time></trkpt><trkpt lat="43.6596141" lon="10.8999361"><ele>133.0</ele><time>2026-04-11T13:33:03.987Z</time></trkpt><trkpt lat="43.6595179" lon="10.8998334"><ele>133.0</ele><time>2026-04-11T13:33:05.014Z</time></trkpt><trkpt lat="43.6594175" lon="10.899753"><ele>133.0</ele><time>2026-04-11T13:33:05.999Z</time></trkpt><trkpt lat="43.6592962" lon="10.8996858"><ele>129.5</ele><time>2026-04-11T13:33:06.993Z</time></trkpt><trkpt lat="43.659166" lon="10.8996462"><ele>126.0</ele><time>2026-04-11T13:33:07.986Z</time></trkpt><trkpt lat="43.659017" lon="10.8996101"><ele>122.5</ele><time>2026-04-11T13:33:08.984Z</time></trkpt><trkpt lat="43.6588558" lon="10.8995877"><ele>119.0</ele><time>2026-04-11T13:33:09.989Z</time></trkpt><trkpt lat="43.6587117" lon="10.8995907"><ele>117.0</ele><time>2026-04-11T13:33:11.012Z</time></trkpt><trkpt lat="43.6585736" lon="10.8995987"><ele>115.0</ele><time>2026-04-11T13:33:12.013Z</time></trkpt><trkpt lat="43.6584383" lon="10.8996009"><ele>113.0</ele><time>2026-04-11T13:33:13.009Z</time></trkpt><trkpt lat="43.658314" lon="10.8996069"><ele>111.0</ele><time>2026-04-11T13:33:14.013Z</time></trkpt><trkpt lat="43.6581982" lon="10.8995878"><ele>111.0</ele><time>2026-04-11T13:33:15.004Z</time></trkpt><trkpt lat="43.6580889" lon="10.8995554"><ele>111.0</ele><time>2026-04-11T13:33:16.005Z</time></trkpt><trkpt lat="43.657989" lon="10.8995034"><ele>111.0</ele><time>2026-04-11T13:33:17.013Z</time></trkpt><trkpt lat="43.6578927" lon="10.8994465"><ele>111.0</ele><time>2026-04-11T13:33:17.988Z</time></trkpt><trkpt lat="43.6578062" lon="10.8994062"><ele>111.0</ele><time>2026-04-11T13:33:18.984Z</time></trkpt><trkpt lat="43.6577404" lon="10.8994105"><ele>112.4</ele><time>2026-04-11T13:33:19.986Z</time></trkpt><trkpt lat="43.6576743" lon="10.8994413"><ele>113.8</ele><time>2026-04-11T13:33:21.001Z</time></trkpt><trkpt lat="43.6576064" lon="10.8994932"><ele>115.20000000000002</ele><time>2026-04-11T13:33:22.009Z</time></trkpt><trkpt lat="43.6575399" lon="10.8995418"><ele>116.60000000000001</ele><time>2026-04-11T13:33:22.986Z</time></trkpt><trkpt lat="43.6574216" lon="10.8996606"><ele>118.0</ele><time>2026-04-11T13:33:23.966Z</time></trkpt><trkpt lat="43.65731" lon="10.8997787"><ele>118.0</ele><time>2026-04-11T13:33:24.965Z</time></trkpt><trkpt lat="43.6572074" lon="10.8998899"><ele>118.0</ele><time>2026-04-11T13:33:25.967Z</time></trkpt><trkpt lat="43.6571042" lon="10.8999993"><ele>118.0</ele><time>2026-04-11T13:33:26.982Z</time></trkpt><trkpt lat="43.6569875" lon="10.9001238"><ele>118.0</ele><time>2026-04-11T13:33:27.987Z</time></trkpt><trkpt lat="43.6568836" lon="10.9002391"><ele>117.4</ele><time>2026-04-11T13:33:28.972Z</time></trkpt><trkpt lat="43.6567863" lon="10.9003351"><ele>116.80000000000001</ele><time>2026-04-11T13:33:29.969Z</time></trkpt><trkpt lat="43.6566993" lon="10.9003807"><ele>116.2</ele><time>2026-04-11T13:33:30.968Z</time></trkpt><trkpt lat="43.6566085" lon="10.9003984"><ele>115.6</ele><time>2026-04-11T13:33:31.963Z</time></trkpt><trkpt lat="43.6564971" lon="10.9004107"><ele>115.0</ele><time>2026-04-11T13:33:32.963Z</time></trkpt><trkpt lat="43.6563825" lon="10.9004298"><ele>115.0</ele><time>2026-04-11T13:33:33.957Z</time></trkpt><trkpt lat="43.6562853" lon="10.9004566"><ele>115.0</ele><time>2026-04-11T13:33:34.962Z</time></trkpt><trkpt lat="43.6561964" lon="10.9005121"><ele>115.0</ele><time>2026-04-11T13:33:35.989Z</time></trkpt><trkpt lat="43.6561207" lon="10.9006021"><ele>115.0</ele><time>2026-04-11T13:33:36.979Z</time></trkpt><trkpt lat="43.6559553" lon="10.9008685"><ele>116.2</ele><time>2026-04-11T13:33:37.886Z</time></trkpt><trkpt lat="43.6558876" lon="10.9009629"><ele>117.4</ele><time>2026-04-11T13:33:38.884Z</time></trkpt><trkpt lat="43.6557998" lon="10.901025"><ele>118.6</ele><time>2026-04-11T13:33:39.885Z</time></trkpt><trkpt lat="43.6556967" lon="10.9010539"><ele>119.8</ele><time>2026-04-11T13:33:40.881Z</time></trkpt><trkpt lat="43.6555985" lon="10.9010789"><ele>121.0</ele><time>2026-04-11T13:33:41.902Z</time></trkpt><trkpt lat="43.6554858" lon="10.9010749"><ele>121.0</ele><time>2026-04-11T13:33:42.929Z</time></trkpt><trkpt lat="43.655358" lon="10.9010464"><ele>121.0</ele><time>2026-04-11T13:33:43.913Z</time></trkpt><trkpt lat="43.6552229" lon="10.9010085"><ele>121.0</ele><time>2026-04-11T13:33:44.931Z</time></trkpt><trkpt lat="43.655092" lon="10.9009858"><ele>121.0</ele><time>2026-04-11T13:33:45.933Z</time></trkpt><trkpt lat="43.6549661" lon="10.9009793"><ele>123.5</ele><time>2026-04-11T13:33:46.926Z</time></trkpt><trkpt lat="43.6548398" lon="10.9009864"><ele>126.0</ele><time>2026-04-11T13:33:47.954Z</time></trkpt><trkpt lat="43.6547062" lon="10.9010097"><ele>128.5</ele><time>2026-04-11T13:33:48.932Z</time></trkpt><trkpt lat="43.6545644" lon="10.9010603"><ele>131.0</ele><time>2026-04-11T13:33:49.933Z</time></trkpt><trkpt lat="43.654418" lon="10.9011264"><ele>132.0</ele><time>2026-04-11T13:33:50.938Z</time></trkpt><trkpt lat="43.6542737" lon="10.9011774"><ele>133.0</ele><time>2026-04-11T13:33:51.934Z</time></trkpt><trkpt lat="43.6541435" lon="10.9012279"><ele>134.0</ele><time>2026-04-11T13:33:52.927Z</time></trkpt><trkpt lat="43.6540177" lon="10.9012699"><ele>135.0</ele><time>2026-04-11T13:33:53.936Z</time></trkpt><trkpt lat="43.6538864" lon="10.9013132"><ele>135.0</ele><time>2026-04-11T13:33:54.925Z</time></trkpt><trkpt lat="43.6537337" lon="10.901355"><ele>135.0</ele><time>2026-04-11T13:33:55.928Z</time></trkpt><trkpt lat="43.6535771" lon="10.9013953"><ele>135.0</ele><time>2026-04-11T13:33:56.929Z</time></trkpt><trkpt lat="43.6534514" lon="10.9014348"><ele>135.0</ele><time>2026-04-11T13:33:57.929Z</time></trkpt><trkpt lat="43.653337" lon="10.901469"><ele>135.8</ele><time>2026-04-11T13:33:58.929Z</time></trkpt><trkpt lat="43.6532401" lon="10.9014884"><ele>136.6</ele><time>2026-04-11T13:33:59.937Z</time></trkpt><trkpt lat="43.6531347" lon="10.9015264"><ele>137.4</ele><time>2026-04-11T13:34:00.939Z</time></trkpt><trkpt lat="43.653027" lon="10.9015653"><ele>138.2</ele><time>2026-04-11T13:34:01.925Z</time></trkpt><trkpt lat="43.6529082" lon="10.9015904"><ele>139.0</ele><time>2026-04-11T13:34:02.932Z</time></trkpt><trkpt lat="43.6527857" lon="10.9016158"><ele>139.0</ele><time>2026-04-11T13:34:03.933Z</time></trkpt><trkpt lat="43.6526674" lon="10.9016404"><ele>139.0</ele><time>2026-04-11T13:34:04.933Z</time></trkpt><trkpt lat="43.6525604" lon="10.9016649"><ele>139.0</ele><time>2026-04-11T13:34:05.923Z</time></trkpt><trkpt lat="43.6524596" lon="10.9016894"><ele>139.0</ele><time>2026-04-11T13:34:06.913Z</time></trkpt><trkpt lat="43.652364" lon="10.9016938"><ele>139.0</ele><time>2026-04-11T13:34:07.914Z</time></trkpt><trkpt lat="43.6522805" lon="10.9016633"><ele>139.0</ele><time>2026-04-11T13:34:08.94Z</time></trkpt><trkpt lat="43.6522177" lon="10.9015954"><ele>139.0</ele><time>2026-04-11T13:34:09.936Z</time></trkpt><trkpt lat="43.6521637" lon="10.9014897"><ele>139.0</ele><time>2026-04-11T13:34:10.928Z</time></trkpt><trkpt lat="43.6521115" lon="10.9013876"><ele>139.0</ele><time>2026-04-11T13:34:11.923Z</time></trkpt><trkpt lat="43.6520658" lon="10.9012716"><ele>139.0</ele><time>2026-04-11T13:34:12.921Z</time></trkpt><trkpt lat="43.6520237" lon="10.9011619"><ele>139.0</ele><time>2026-04-11T13:34:13.933Z</time></trkpt><trkpt lat="43.6519927" lon="10.9010737"><ele>139.0</ele><time>2026-04-11T13:34:14.934Z</time></trkpt><trkpt lat="43.6519722" lon="10.9009759"><ele>139.0</ele><time>2026-04-11T13:34:15.929Z</time></trkpt><trkpt lat="43.651948" lon="10.9008562"><ele>139.0</ele><time>2026-04-11T13:34:16.931Z</time></trkpt><trkpt lat="43.6519253" lon="10.9007258"><ele>139.0</ele><time>2026-04-11T13:34:17.926Z</time></trkpt><trkpt lat="43.6518892" lon="10.9005516"><ele>139.0</ele><time>2026-04-11T13:34:18.946Z</time></trkpt><trkpt lat="43.6518332" lon="10.9003696"><ele>138.75</ele><time>2026-04-11T13:34:19.926Z</time></trkpt><trkpt lat="43.65176" lon="10.9001925"><ele>138.5</ele><time>2026-04-11T13:34:20.924Z</time></trkpt><trkpt lat="43.6517054" lon="10.9000598"><ele>138.25</ele><time>2026-04-11T13:34:21.929Z</time></trkpt><trkpt lat="43.6516592" lon="10.8999039"><ele>138.0</ele><time>2026-04-11T13:34:22.922Z</time></trkpt><trkpt lat="43.6516524" lon="10.8997514"><ele>138.0</ele><time>2026-04-11T13:34:23.922Z</time></trkpt><trkpt lat="43.6516307" lon="10.8995884"><ele>138.0</ele><time>2026-04-11T13:34:24.923Z</time></trkpt><trkpt lat="43.6516072" lon="10.8994303"><ele>138.0</ele><time>2026-04-11T13:34:25.93Z</time></trkpt><trkpt lat="43.6516133" lon="10.8993003"><ele>138.0</ele><time>2026-04-11T13:34:26.927Z</time></trkpt><trkpt lat="43.6516294" lon="10.8991585"><ele>138.0</ele><time>2026-04-11T13:34:27.921Z</time></trkpt><trkpt lat="43.651666" lon="10.8990323"><ele>138.20000000000002</ele><time>2026-04-11T13:34:28.922Z</time></trkpt><trkpt lat="43.6517037" lon="10.8988882"><ele>138.4</ele><time>2026-04-11T13:34:29.931Z</time></trkpt><trkpt lat="43.6517424" lon="10.8987461"><ele>138.60000000000002</ele><time>2026-04-11T13:34:30.927Z</time></trkpt><trkpt lat="43.6517688" lon="10.8986143"><ele>138.8</ele><time>2026-04-11T13:34:31.915Z</time></trkpt><trkpt lat="43.6517765" lon="10.8984695"><ele>139.0</ele><time>2026-04-11T13:34:32.92Z</time></trkpt><trkpt lat="43.6517722" lon="10.8983175"><ele>139.83333333333334</ele><time>2026-04-11T13:34:33.925Z</time></trkpt><trkpt lat="43.6517625" lon="10.898168"><ele>140.66666666666669</ele><time>2026-04-11T13:34:34.917Z</time></trkpt><trkpt lat="43.65175" lon="10.8980577"><ele>141.5</ele><time>2026-04-11T13:34:35.906Z</time></trkpt><trkpt lat="43.6517344" lon="10.8979613"><ele>142.33333333333334</ele><time>2026-04-11T13:34:36.908Z</time></trkpt><trkpt lat="43.6516466" lon="10.8978666"><ele>143.16666666666666</ele><time>2026-04-11T13:34:38.9Z</time></trkpt><trkpt lat="43.651586" lon="10.8978285"><ele>144.0</ele><time>2026-04-11T13:34:39.912Z</time></trkpt><trkpt lat="43.6515173" lon="10.8977634"><ele>144.0</ele><time>2026-04-11T13:34:40.919Z</time></trkpt><trkpt lat="43.651446" lon="10.8976924"><ele>144.0</ele><time>2026-04-11T13:34:41.914Z</time></trkpt><trkpt lat="43.6513748" lon="10.8976235"><ele>144.0</ele><time>2026-04-11T13:34:42.923Z</time></trkpt><trkpt lat="43.6513069" lon="10.8975354"><ele>144.0</ele><time>2026-04-11T13:34:43.912Z</time></trkpt><trkpt lat="43.6512258" lon="10.8974227"><ele>144.0</ele><time>2026-04-11T13:34:44.926Z</time></trkpt><trkpt lat="43.6511484" lon="10.8972875"><ele>145.8</ele><time>2026-04-11T13:34:45.924Z</time></trkpt><trkpt lat="43.6510846" lon="10.8971547"><ele>147.60000000000002</ele><time>2026-04-11T13:34:46.926Z</time></trkpt><trkpt lat="43.6510337" lon="10.8970521"><ele>149.4</ele><time>2026-04-11T13:34:47.913Z</time></trkpt><trkpt lat="43.6509699" lon="10.8969799"><ele>151.20000000000002</ele><time>2026-04-11T13:34:48.91Z</time></trkpt><trkpt lat="43.6508895" lon="10.8969406"><ele>153.0</ele><time>2026-04-11T13:34:49.951Z</time></trkpt><trkpt lat="43.6507998" lon="10.8969158"><ele>153.0</ele><time>2026-04-11T13:34:50.926Z</time></trkpt><trkpt lat="43.6506834" lon="10.89688"><ele>153.0</ele><time>2026-04-11T13:34:51.92Z</time></trkpt><trkpt lat="43.6505646" lon="10.8968234"><ele>153.0</ele><time>2026-04-11T13:34:52.914Z</time></trkpt><trkpt lat="43.6504825" lon="10.8967806"><ele>153.0</ele><time>2026-04-11T13:34:53.914Z</time></trkpt><trkpt lat="43.6504147" lon="10.8967507"><ele>153.0</ele><time>2026-04-11T13:34:54.913Z</time></trkpt><trkpt lat="43.6503178" lon="10.8967663"><ele>154.5</ele><time>2026-04-11T13:34:56.914Z</time></trkpt><trkpt lat="43.650215" lon="10.8968514"><ele>156.0</ele><time>2026-04-11T13:34:58.919Z</time></trkpt><trkpt lat="43.6501525" lon="10.896901"><ele>157.5</ele><time>2026-04-11T13:34:59.917Z</time></trkpt><trkpt lat="43.6500753" lon="10.8969611"><ele>159.0</ele><time>2026-04-11T13:35:00.919Z</time></trkpt><trkpt lat="43.6500011" lon="10.8970115"><ele>160.5</ele><time>2026-04-11T13:35:01.92Z</time></trkpt><trkpt lat="43.649924" lon="10.8970507"><ele>162.0</ele><time>2026-04-11T13:35:02.916Z</time></trkpt><trkpt lat="43.6498311" lon="10.8970958"><ele>162.0</ele><time>2026-04-11T13:35:03.924Z</time></trkpt><trkpt lat="43.6497139" lon="10.8971337"><ele>162.0</ele><time>2026-04-11T13:35:04.923Z</time></trkpt><trkpt lat="43.649604" lon="10.8971727"><ele>162.0</ele><time>2026-04-11T13:35:05.925Z</time></trkpt><trkpt lat="43.6495018" lon="10.8972032"><ele>162.0</ele><time>2026-04-11T13:35:06.921Z</time></trkpt><trkpt lat="43.6494062" lon="10.8972196"><ele>162.0</ele><time>2026-04-11T13:35:07.923Z</time></trkpt><trkpt lat="43.6492969" lon="10.8972107"><ele>162.25</ele><time>2026-04-11T13:35:08.905Z</time></trkpt><trkpt lat="43.6491725" lon="10.8971846"><ele>162.5</ele><time>2026-04-11T13:35:09.919Z</time></trkpt><trkpt lat="43.649049" lon="10.8971482"><ele>162.75</ele><time>2026-04-11T13:35:10.914Z</time></trkpt><trkpt lat="43.648934" lon="10.8971138"><ele>163.0</ele><time>2026-04-11T13:35:11.926Z</time></trkpt><trkpt lat="43.6488143" lon="10.8970934"><ele>163.0</ele><time>2026-04-11T13:35:12.93Z</time></trkpt><trkpt lat="43.6486862" lon="10.8970757"><ele>163.0</ele><time>2026-04-11T13:35:13.92Z</time></trkpt><trkpt lat="43.648549" lon="10.8970918"><ele>163.0</ele><time>2026-04-11T13:35:14.927Z</time></trkpt><trkpt lat="43.6484219" lon="10.8971031"><ele>163.0</ele><time>2026-04-11T13:35:15.921Z</time></trkpt><trkpt lat="43.6482948" lon="10.8971034"><ele>163.25</ele><time>2026-04-11T13:35:16.934Z</time></trkpt><trkpt lat="43.6481653" lon="10.8970934"><ele>163.5</ele><time>2026-04-11T13:35:17.931Z</time></trkpt><trkpt lat="43.648039" lon="10.897093"><ele>163.75</ele><time>2026-04-11T13:35:18.925Z</time></trkpt><trkpt lat="43.647926" lon="10.8971107"><ele>164.0</ele><time>2026-04-11T13:35:19.93Z</time></trkpt><trkpt lat="43.6478212" lon="10.8971358"><ele>163.79999999999998</ele><time>2026-04-11T13:35:20.942Z</time></trkpt><trkpt lat="43.6477126" lon="10.8971753"><ele>163.6</ele><time>2026-04-11T13:35:21.916Z</time></trkpt><trkpt lat="43.6476008" lon="10.8972113"><ele>163.4</ele><time>2026-04-11T13:35:22.918Z</time></trkpt><trkpt lat="43.6474892" lon="10.8972426"><ele>163.2</ele><time>2026-04-11T13:35:23.912Z</time></trkpt><trkpt lat="43.6473889" lon="10.8972347"><ele>163.0</ele><time>2026-04-11T13:35:24.912Z</time></trkpt><trkpt lat="43.6472961" lon="10.8972241"><ele>163.0</ele><time>2026-04-11T13:35:25.923Z</time></trkpt><trkpt lat="43.6472206" lon="10.8972375"><ele>163.0</ele><time>2026-04-11T13:35:26.918Z</time></trkpt><trkpt lat="43.6471119" lon="10.8972571"><ele>163.0</ele><time>2026-04-11T13:35:28.913Z</time></trkpt><trkpt lat="43.6470181" lon="10.8973247"><ele>163.0</ele><time>2026-04-11T13:35:30.916Z</time></trkpt><trkpt lat="43.6469272" lon="10.8973866"><ele>163.0</ele><time>2026-04-11T13:35:32.921Z</time></trkpt><trkpt lat="43.6468078" lon="10.8974207"><ele>162.85714285714286</ele><time>2026-04-11T13:35:34.924Z</time></trkpt><trkpt lat="43.6467466" lon="10.8974434"><ele>162.7142857142857</ele><time>2026-04-11T13:35:35.912Z</time></trkpt><trkpt lat="43.6466815" lon="10.8974554"><ele>162.57142857142856</ele><time>2026-04-11T13:35:36.913Z</time></trkpt><trkpt lat="43.6466098" lon="10.8974731"><ele>162.42857142857144</ele><time>2026-04-11T13:35:37.909Z</time></trkpt><trkpt lat="43.6465301" lon="10.8974926"><ele>162.28571428571428</ele><time>2026-04-11T13:35:38.935Z</time></trkpt><trkpt lat="43.6464519" lon="10.8975255"><ele>162.14285714285714</ele><time>2026-04-11T13:35:39.934Z</time></trkpt><trkpt lat="43.6463772" lon="10.8975352"><ele>162.0</ele><time>2026-04-11T13:35:40.918Z</time></trkpt><trkpt lat="43.6462818" lon="10.8975258"><ele>162.0</ele><time>2026-04-11T13:35:41.932Z</time></trkpt><trkpt lat="43.6461789" lon="10.8974935"><ele>162.0</ele><time>2026-04-11T13:35:42.931Z</time></trkpt><trkpt lat="43.646052" lon="10.8974136"><ele>162.0</ele><time>2026-04-11T13:35:43.917Z</time></trkpt><trkpt lat="43.6459151" lon="10.8973136"><ele>162.0</ele><time>2026-04-11T13:35:44.913Z</time></trkpt><trkpt lat="43.6457607" lon="10.8971774"><ele>161.33333333333334</ele><time>2026-04-11T13:35:46.997Z</time></trkpt><trkpt lat="43.6456209" lon="10.8970624"><ele>160.66666666666669</ele><time>2026-04-11T13:35:47.996Z</time></trkpt><trkpt lat="43.6453895" lon="10.8968702"><ele>160.0</ele><time>2026-04-11T13:35:48.898Z</time></trkpt><trkpt lat="43.6453026" lon="10.8967847"><ele>162.0</ele><time>2026-04-11T13:35:49.897Z</time></trkpt><trkpt lat="43.6452695" lon="10.8966626"><ele>164.0</ele><time>2026-04-11T13:35:50.893Z</time></trkpt><trkpt lat="43.6452637" lon="10.8965166"><ele>166.0</ele><time>2026-04-11T13:35:51.923Z</time></trkpt><trkpt lat="43.6452386" lon="10.8963271"><ele>168.0</ele><time>2026-04-11T13:35:52.926Z</time></trkpt><trkpt lat="43.6452123" lon="10.8961186"><ele>166.5</ele><time>2026-04-11T13:35:53.922Z</time></trkpt><trkpt lat="43.6452021" lon="10.8959179"><ele>165.0</ele><time>2026-04-11T13:35:54.918Z</time></trkpt><trkpt lat="43.6452004" lon="10.8957405"><ele>163.5</ele><time>2026-04-11T13:35:55.92Z</time></trkpt><trkpt lat="43.6451953" lon="10.8955796"><ele>162.0</ele><time>2026-04-11T13:35:56.913Z</time></trkpt><trkpt lat="43.6451801" lon="10.8954424"><ele>162.0</ele><time>2026-04-11T13:35:57.925Z</time></trkpt><trkpt lat="43.6451698" lon="10.8953305"><ele>162.0</ele><time>2026-04-11T13:35:58.909Z</time></trkpt><trkpt lat="43.6451411" lon="10.8952035"><ele>162.0</ele><time>2026-04-11T13:36:00.927Z</time></trkpt><trkpt lat="43.6450692" lon="10.8952173"><ele>162.0</ele><time>2026-04-11T13:36:03.922Z</time></trkpt><trkpt lat="43.6450577" lon="10.8953303"><ele>162.0</ele><time>2026-04-11T13:36:05.93Z</time></trkpt><trkpt lat="43.6450607" lon="10.8954431"><ele>162.0</ele><time>2026-04-11T13:36:06.921Z</time></trkpt><trkpt lat="43.6450535" lon="10.89559"><ele>162.0</ele><time>2026-04-11T13:36:07.921Z</time></trkpt><trkpt lat="43.6450238" lon="10.8957729"><ele>162.0</ele><time>2026-04-11T13:36:08.92Z</time></trkpt><trkpt lat="43.6449873" lon="10.8959639"><ele>162.0</ele><time>2026-04-11T13:36:09.909Z</time></trkpt><trkpt lat="43.6449422" lon="10.8961188"><ele>162.0</ele><time>2026-04-11T13:36:10.905Z</time></trkpt><trkpt lat="43.644902" lon="10.8963035"><ele>163.2</ele><time>2026-04-11T13:36:11.906Z</time></trkpt><trkpt lat="43.6448634" lon="10.8964696"><ele>164.39999999999998</ele><time>2026-04-11T13:36:12.912Z</time></trkpt><trkpt lat="43.6448095" lon="10.8966082"><ele>165.60000000000002</ele><time>2026-04-11T13:36:13.909Z</time></trkpt><trkpt lat="43.6447534" lon="10.8967244"><ele>166.8</ele><time>2026-04-11T13:36:14.914Z</time></trkpt><trkpt lat="43.6446866" lon="10.8968287"><ele>168.0</ele><time>2026-04-11T13:36:15.915Z</time></trkpt><trkpt lat="43.6446129" lon="10.8969105"><ele>170.0</ele><time>2026-04-11T13:36:16.918Z</time></trkpt><trkpt lat="43.6445237" lon="10.896989"><ele>172.0</ele><time>2026-04-11T13:36:17.915Z</time></trkpt><trkpt lat="43.6444128" lon="10.8970858"><ele>174.0</ele><time>2026-04-11T13:36:18.917Z</time></trkpt><trkpt lat="43.6443119" lon="10.8971734"><ele>176.0</ele><time>2026-04-11T13:36:19.916Z</time></trkpt><trkpt lat="43.6442265" lon="10.8972267"><ele>177.0</ele><time>2026-04-11T13:36:20.904Z</time></trkpt><trkpt lat="43.6441468" lon="10.8972456"><ele>178.0</ele><time>2026-04-11T13:36:21.909Z</time></trkpt><trkpt lat="43.644077" lon="10.897239"><ele>179.0</ele><time>2026-04-11T13:36:22.942Z</time></trkpt><trkpt lat="43.6440033" lon="10.8971987"><ele>180.0</ele><time>2026-04-11T13:36:23.919Z</time></trkpt><trkpt lat="43.6439308" lon="10.8971442"><ele>181.0</ele><time>2026-04-11T13:36:24.914Z</time></trkpt><trkpt lat="43.6438488" lon="10.897083"><ele>182.0</ele><time>2026-04-11T13:36:25.918Z</time></trkpt><trkpt lat="43.6437595" lon="10.8970467"><ele>182.0</ele><time>2026-04-11T13:36:26.909Z</time></trkpt><trkpt lat="43.6436757" lon="10.8970274"><ele>182.0</ele><time>2026-04-11T13:36:27.909Z</time></trkpt><trkpt lat="43.6436028" lon="10.8970021"><ele>182.0</ele><time>2026-04-11T13:36:28.912Z</time></trkpt><trkpt lat="43.6435341" lon="10.8969923"><ele>182.0</ele><time>2026-04-11T13:36:29.911Z</time></trkpt><trkpt lat="43.6434155" lon="10.8970098"><ele>182.0</ele><time>2026-04-11T13:36:31.912Z</time></trkpt><trkpt lat="43.6433094" lon="10.8970855"><ele>182.16666666666666</ele><time>2026-04-11T13:36:33.914Z</time></trkpt><trkpt lat="43.6431767" lon="10.8971244"><ele>182.33333333333331</ele><time>2026-04-11T13:36:35.914Z</time></trkpt><trkpt lat="43.6430877" lon="10.8971204"><ele>182.5</ele><time>2026-04-11T13:36:36.914Z</time></trkpt><trkpt lat="43.6430132" lon="10.8970938"><ele>182.66666666666666</ele><time>2026-04-11T13:36:37.916Z</time></trkpt><trkpt lat="43.6429418" lon="10.8970611"><ele>182.83333333333334</ele><time>2026-04-11T13:36:38.92Z</time></trkpt><trkpt lat="43.6428826" lon="10.8970122"><ele>183.0</ele><time>2026-04-11T13:36:39.92Z</time></trkpt><trkpt lat="43.6428295" lon="10.8969304"><ele>181.2</ele><time>2026-04-11T13:36:40.911Z</time></trkpt><trkpt lat="43.6427753" lon="10.8968269"><ele>179.4</ele><time>2026-04-11T13:36:41.912Z</time></trkpt><trkpt lat="43.642718" lon="10.896709"><ele>177.6</ele><time>2026-04-11T13:36:42.92Z</time></trkpt><trkpt lat="43.6426643" lon="10.8966098"><ele>175.79999999999998</ele><time>2026-04-11T13:36:43.921Z</time></trkpt><trkpt lat="43.6425798" lon="10.8965128"><ele>174.0</ele><time>2026-04-11T13:36:45.923Z</time></trkpt><trkpt lat="43.6424888" lon="10.8965289"><ele>174.0</ele><time>2026-04-11T13:36:47.905Z</time></trkpt><trkpt lat="43.6424123" lon="10.8965958"><ele>174.0</ele><time>2026-04-11T13:36:49.912Z</time></trkpt><trkpt lat="43.6423599" lon="10.8967209"><ele>174.0</ele><time>2026-04-11T13:36:51.924Z</time></trkpt><trkpt lat="43.6423276" lon="10.8968711"><ele>174.0</ele><time>2026-04-11T13:36:53.941Z</time></trkpt><trkpt lat="43.6422753" lon="10.8969912"><ele>174.0</ele><time>2026-04-11T13:36:55.92Z</time></trkpt><trkpt lat="43.6422622" lon="10.8970907"><ele>174.0</ele><time>2026-04-11T13:36:57.939Z</time></trkpt><trkpt lat="43.6422961" lon="10.8971941"><ele>174.0</ele><time>2026-04-11T13:37:00.929Z</time></trkpt><trkpt lat="43.6423186" lon="10.8973012"><ele>174.0</ele><time>2026-04-11T13:37:02.932Z</time></trkpt><trkpt lat="43.6423403" lon="10.8974184"><ele>174.0</ele><time>2026-04-11T13:37:04.933Z</time></trkpt><trkpt lat="43.6423918" lon="10.8975358"><ele>174.0</ele><time>2026-04-11T13:37:06.924Z</time></trkpt><trkpt lat="43.6424219" lon="10.8976827"><ele>173.14285714285714</ele><time>2026-04-11T13:37:08.929Z</time></trkpt><trkpt lat="43.6424517" lon="10.8977626"><ele>172.28571428571428</ele><time>2026-04-11T13:37:09.921Z</time></trkpt><trkpt lat="43.6424995" lon="10.8978432"><ele>171.42857142857144</ele><time>2026-04-11T13:37:10.928Z</time></trkpt><trkpt lat="43.6425424" lon="10.8979225"><ele>170.57142857142856</ele><time>2026-04-11T13:37:11.927Z</time></trkpt><trkpt lat="43.642586" lon="10.8980131"><ele>169.71428571428572</ele><time>2026-04-11T13:37:12.927Z</time></trkpt><trkpt lat="43.6426186" lon="10.8981145"><ele>168.85714285714286</ele><time>2026-04-11T13:37:13.924Z</time></trkpt><trkpt lat="43.6426314" lon="10.8982067"><ele>168.0</ele><time>2026-04-11T13:37:14.922Z</time></trkpt><trkpt lat="43.6426305" lon="10.8982988"><ele>167.2</ele><time>2026-04-11T13:37:15.924Z</time></trkpt><trkpt lat="43.6426437" lon="10.8984379"><ele>166.4</ele><time>2026-04-11T13:37:17.922Z</time></trkpt><trkpt lat="43.6426586" lon="10.8985822"><ele>165.6</ele><time>2026-04-11T13:37:19.922Z</time></trkpt><trkpt lat="43.6426501" lon="10.8987308"><ele>164.79999999999998</ele><time>2026-04-11T13:37:21.924Z</time></trkpt><trkpt lat="43.6426313" lon="10.8988319"><ele>164.0</ele><time>2026-04-11T13:37:22.922Z</time></trkpt><trkpt lat="43.6426127" lon="10.8989186"><ele>163.99999999999997</ele><time>2026-04-11T13:37:23.925Z</time></trkpt><trkpt lat="43.6425968" lon="10.89901"><ele>164.0</ele><time>2026-04-11T13:37:24.94Z</time></trkpt><trkpt lat="43.6425803" lon="10.8991094"><ele>164.0</ele><time>2026-04-11T13:37:25.924Z</time></trkpt><trkpt lat="43.6425608" lon="10.8992058"><ele>164.0</ele><time>2026-04-11T13:37:26.929Z</time></trkpt><trkpt lat="43.6425599" lon="10.8992942"><ele>164.0</ele><time>2026-04-11T13:37:27.923Z</time></trkpt><trkpt lat="43.6425666" lon="10.8993875"><ele>163.99999999999997</ele><time>2026-04-11T13:37:28.93Z</time></trkpt><trkpt lat="43.6425764" lon="10.8994834"><ele>164.0</ele><time>2026-04-11T13:37:29.929Z</time></trkpt><trkpt lat="43.6425842" lon="10.8995849"><ele>163.0</ele><time>2026-04-11T13:37:30.936Z</time></trkpt><trkpt lat="43.642584" lon="10.8996887"><ele>162.0</ele><time>2026-04-11T13:37:31.922Z</time></trkpt><trkpt lat="43.6425773" lon="10.8997876"><ele>161.0</ele><time>2026-04-11T13:37:32.917Z</time></trkpt><trkpt lat="43.6425096" lon="10.8999211"><ele>160.0</ele><time>2026-04-11T13:37:34.924Z</time></trkpt><trkpt lat="43.6424565" lon="10.8999814"><ele>159.0</ele><time>2026-04-11T13:37:35.925Z</time></trkpt><trkpt lat="43.6423981" lon="10.9000253"><ele>158.0</ele><time>2026-04-11T13:37:36.923Z</time></trkpt><trkpt lat="43.6423331" lon="10.9000538"><ele>155.83333333333331</ele><time>2026-04-11T13:37:37.933Z</time></trkpt><trkpt lat="43.6422683" lon="10.9000856"><ele>153.66666666666666</ele><time>2026-04-11T13:37:38.925Z</time></trkpt><trkpt lat="43.6422025" lon="10.9001176"><ele>151.5</ele><time>2026-04-11T13:37:39.917Z</time></trkpt><trkpt lat="43.64214" lon="10.9001598"><ele>149.33333333333334</ele><time>2026-04-11T13:37:40.914Z</time></trkpt><trkpt lat="43.6420866" lon="10.9002193"><ele>147.16666666666669</ele><time>2026-04-11T13:37:41.917Z</time></trkpt><trkpt lat="43.6420291" lon="10.9002793"><ele>145.0</ele><time>2026-04-11T13:37:42.908Z</time></trkpt><trkpt lat="43.6419117" lon="10.9003418"><ele>145.0</ele><time>2026-04-11T13:37:44.927Z</time></trkpt><trkpt lat="43.64181" lon="10.9004013"><ele>145.0</ele><time>2026-04-11T13:37:46.917Z</time></trkpt><trkpt lat="43.6417725" lon="10.9004752"><ele>145.0</ele><time>2026-04-11T13:37:47.923Z</time></trkpt><trkpt lat="43.6417433" lon="10.9005633"><ele>145.0</ele><time>2026-04-11T13:37:48.924Z</time></trkpt><trkpt lat="43.6417082" lon="10.9006784"><ele>145.0</ele><time>2026-04-11T13:37:49.925Z</time></trkpt><trkpt lat="43.6416535" lon="10.900837"><ele>144.0</ele><time>2026-04-11T13:37:50.923Z</time></trkpt><trkpt lat="43.6415854" lon="10.9009807"><ele>143.0</ele><time>2026-04-11T13:37:51.919Z</time></trkpt><trkpt lat="43.6415109" lon="10.901123"><ele>142.0</ele><time>2026-04-11T13:37:52.929Z</time></trkpt><trkpt lat="43.6414299" lon="10.9012343"><ele>141.0</ele><time>2026-04-11T13:37:53.932Z</time></trkpt><trkpt lat="43.641342" lon="10.9013376"><ele>141.0</ele><time>2026-04-11T13:37:54.922Z</time></trkpt><trkpt lat="43.6412521" lon="10.9014532"><ele>141.0</ele><time>2026-04-11T13:37:55.945Z</time></trkpt><trkpt lat="43.6411537" lon="10.9015567"><ele>141.0</ele><time>2026-04-11T13:37:56.917Z</time></trkpt><trkpt lat="43.6410473" lon="10.9016502"><ele>141.0</ele><time>2026-04-11T13:37:57.929Z</time></trkpt><trkpt lat="43.640926" lon="10.9017486"><ele>141.75</ele><time>2026-04-11T13:37:58.919Z</time></trkpt><trkpt lat="43.6408054" lon="10.9018568"><ele>142.5</ele><time>2026-04-11T13:37:59.921Z</time></trkpt><trkpt lat="43.6406786" lon="10.9019747"><ele>143.25</ele><time>2026-04-11T13:38:00.923Z</time></trkpt><trkpt lat="43.6405525" lon="10.9020861"><ele>144.0</ele><time>2026-04-11T13:38:01.921Z</time></trkpt><trkpt lat="43.6404481" lon="10.9021867"><ele>144.0</ele><time>2026-04-11T13:38:02.923Z</time></trkpt><trkpt lat="43.6403502" lon="10.902282"><ele>144.0</ele><time>2026-04-11T13:38:03.922Z</time></trkpt><trkpt lat="43.640256" lon="10.9023528"><ele>144.0</ele><time>2026-04-11T13:38:04.923Z</time></trkpt><trkpt lat="43.6401603" lon="10.9024407"><ele>144.0</ele><time>2026-04-11T13:38:05.923Z</time></trkpt><trkpt lat="43.6400647" lon="10.9025199"><ele>145.16666666666666</ele><time>2026-04-11T13:38:06.924Z</time></trkpt><trkpt lat="43.6399713" lon="10.902606"><ele>146.33333333333334</ele><time>2026-04-11T13:38:07.924Z</time></trkpt><trkpt lat="43.6398892" lon="10.9026882"><ele>147.5</ele><time>2026-04-11T13:38:08.918Z</time></trkpt><trkpt lat="43.6398249" lon="10.9027569"><ele>148.66666666666669</ele><time>2026-04-11T13:38:09.911Z</time></trkpt><trkpt lat="43.6397684" lon="10.90281"><ele>149.83333333333334</ele><time>2026-04-11T13:38:10.92Z</time></trkpt><trkpt lat="43.6397148" lon="10.9028974"><ele>151.0</ele><time>2026-04-11T13:38:12.912Z</time></trkpt><trkpt lat="43.6397171" lon="10.9030375"><ele>151.0</ele><time>2026-04-11T13:38:14.913Z</time></trkpt><trkpt lat="43.6396727" lon="10.9031559"><ele>151.0</ele><time>2026-04-11T13:38:16.916Z</time></trkpt><trkpt lat="43.6395994" lon="10.9032052"><ele>151.0</ele><time>2026-04-11T13:38:18.932Z</time></trkpt><trkpt lat="43.6395536" lon="10.9031324"><ele>151.0</ele><time>2026-04-11T13:38:20.93Z</time></trkpt><trkpt lat="43.6395128" lon="10.9030579"><ele>151.0</ele><time>2026-04-11T13:38:22.923Z</time></trkpt><trkpt lat="43.6394483" lon="10.9030052"><ele>151.0</ele><time>2026-04-11T13:39:45.905Z</time></trkpt><trkpt lat="43.6393824" lon="10.9029673"><ele>155.25</ele><time>2026-04-11T13:39:46.899Z</time></trkpt><trkpt lat="43.6392628" lon="10.9029317"><ele>159.5</ele><time>2026-04-11T13:39:47.894Z</time></trkpt><trkpt lat="43.6391417" lon="10.9028965"><ele>163.75</ele><time>2026-04-11T13:39:48.909Z</time></trkpt><trkpt lat="43.6390069" lon="10.9028853"><ele>168.0</ele><time>2026-04-11T13:39:49.912Z</time></trkpt><trkpt lat="43.6388534" lon="10.9028774"><ele>168.0</ele><time>2026-04-11T13:39:50.909Z</time></trkpt><trkpt lat="43.638699" lon="10.9028649"><ele>168.0</ele><time>2026-04-11T13:39:51.922Z</time></trkpt><trkpt lat="43.6385643" lon="10.9028574"><ele>168.0</ele><time>2026-04-11T13:39:53.995Z</time></trkpt><trkpt lat="43.6384394" lon="10.9028406"><ele>168.0</ele><time>2026-04-11T13:39:54.987Z</time></trkpt><trkpt lat="43.6383176" lon="10.9028152"><ele>166.75</ele><time>2026-04-11T13:39:55.994Z</time></trkpt><trkpt lat="43.6382013" lon="10.9027894"><ele>165.5</ele><time>2026-04-11T13:39:56.983Z</time></trkpt><trkpt lat="43.6380854" lon="10.9027693"><ele>164.25</ele><time>2026-04-11T13:39:57.987Z</time></trkpt><trkpt lat="43.6379709" lon="10.9027437"><ele>163.0</ele><time>2026-04-11T13:39:58.981Z</time></trkpt><trkpt lat="43.637861" lon="10.9027104"><ele>161.25</ele><time>2026-04-11T13:40:00.013Z</time></trkpt><trkpt lat="43.6377552" lon="10.9026693"><ele>159.5</ele><time>2026-04-11T13:40:00.977Z</time></trkpt><trkpt lat="43.6376491" lon="10.9026172"><ele>157.75</ele><time>2026-04-11T13:40:01.981Z</time></trkpt><trkpt lat="43.6375442" lon="10.9025605"><ele>156.0</ele><time>2026-04-11T13:40:02.977Z</time></trkpt><trkpt lat="43.6374077" lon="10.9024939"><ele>156.0</ele><time>2026-04-11T13:40:03.974Z</time></trkpt><trkpt lat="43.6372958" lon="10.9024071"><ele>156.0</ele><time>2026-04-11T13:40:04.994Z</time></trkpt><trkpt lat="43.6371926" lon="10.9023413"><ele>156.0</ele><time>2026-04-11T13:40:05.988Z</time></trkpt><trkpt lat="43.6370943" lon="10.9022707"><ele>156.0</ele><time>2026-04-11T13:40:06.999Z</time></trkpt><trkpt lat="43.6369955" lon="10.902213"><ele>156.5</ele><time>2026-04-11T13:40:07.999Z</time></trkpt><trkpt lat="43.6369105" lon="10.9021546"><ele>157.0</ele><time>2026-04-11T13:40:08.995Z</time></trkpt><trkpt lat="43.6368341" lon="10.9021121"><ele>157.5</ele><time>2026-04-11T13:40:09.996Z</time></trkpt><trkpt lat="43.6367652" lon="10.9020834"><ele>158.0</ele><time>2026-04-11T13:40:10.994Z</time></trkpt><trkpt lat="43.6366954" lon="10.9020603"><ele>158.5</ele><time>2026-04-11T13:40:11.996Z</time></trkpt><trkpt lat="43.6366196" lon="10.9020551"><ele>159.0</ele><time>2026-04-11T13:40:12.969Z</time></trkpt><trkpt lat="43.6365361" lon="10.9020639"><ele>159.0</ele><time>2026-04-11T13:40:13.972Z</time></trkpt><trkpt lat="43.6364433" lon="10.9020931"><ele>159.0</ele><time>2026-04-11T13:40:14.978Z</time></trkpt><trkpt lat="43.6363305" lon="10.9021203"><ele>159.0</ele><time>2026-04-11T13:40:15.977Z</time></trkpt><trkpt lat="43.6362116" lon="10.9021539"><ele>159.0</ele><time>2026-04-11T13:40:16.993Z</time></trkpt><trkpt lat="43.6360911" lon="10.9021854"><ele>158.0</ele><time>2026-04-11T13:40:18Z</time></trkpt><trkpt lat="43.6359693" lon="10.9022151"><ele>157.0</ele><time>2026-04-11T13:40:18.997Z</time></trkpt><trkpt lat="43.6358474" lon="10.902251"><ele>156.0</ele><time>2026-04-11T13:40:19.999Z</time></trkpt><trkpt lat="43.6357256" lon="10.9022861"><ele>155.0</ele><time>2026-04-11T13:40:20.998Z</time></trkpt><trkpt lat="43.6356104" lon="10.9023189"><ele>155.0</ele><time>2026-04-11T13:40:22Z</time></trkpt><trkpt lat="43.6354982" lon="10.9023548"><ele>155.0</ele><time>2026-04-11T13:40:23.001Z</time></trkpt><trkpt lat="43.6353793" lon="10.9023823"><ele>155.0</ele><time>2026-04-11T13:40:23.996Z</time></trkpt><trkpt lat="43.6352588" lon="10.9024164"><ele>155.0</ele><time>2026-04-11T13:40:24.998Z</time></trkpt><trkpt lat="43.6351328" lon="10.9024533"><ele>154.5</ele><time>2026-04-11T13:40:25.99Z</time></trkpt><trkpt lat="43.6350123" lon="10.9025211"><ele>154.0</ele><time>2026-04-11T13:40:26.998Z</time></trkpt><trkpt lat="43.63488" lon="10.9026015"><ele>153.5</ele><time>2026-04-11T13:40:28Z</time></trkpt><trkpt lat="43.6347493" lon="10.9026893"><ele>153.0</ele><time>2026-04-11T13:40:28.998Z</time></trkpt><trkpt lat="43.6346163" lon="10.9027796"><ele>152.25</ele><time>2026-04-11T13:40:29.997Z</time></trkpt><trkpt lat="43.6344885" lon="10.9028579"><ele>151.5</ele><time>2026-04-11T13:40:31.023Z</time></trkpt><trkpt lat="43.634363" lon="10.9029208"><ele>150.75</ele><time>2026-04-11T13:40:32.015Z</time></trkpt><trkpt lat="43.6342419" lon="10.9029621"><ele>150.0</ele><time>2026-04-11T13:40:32.996Z</time></trkpt><trkpt lat="43.6341382" lon="10.9029877"><ele>150.0</ele><time>2026-04-11T13:40:33.992Z</time></trkpt><trkpt lat="43.6340402" lon="10.9029921"><ele>150.0</ele><time>2026-04-11T13:40:34.977Z</time></trkpt><trkpt lat="43.6339326" lon="10.902979"><ele>150.0</ele><time>2026-04-11T13:40:35.977Z</time></trkpt><trkpt lat="43.6338461" lon="10.9029301"><ele>150.0</ele><time>2026-04-11T13:40:36.975Z</time></trkpt><trkpt lat="43.6337486" lon="10.9028687"><ele>150.0</ele><time>2026-04-11T13:40:37.98Z</time></trkpt><trkpt lat="43.6336591" lon="10.9027845"><ele>151.0</ele><time>2026-04-11T13:40:38.999Z</time></trkpt><trkpt lat="43.633543" lon="10.9026966"><ele>152.0</ele><time>2026-04-11T13:40:39.992Z</time></trkpt><trkpt lat="43.6334413" lon="10.902623"><ele>153.0</ele><time>2026-04-11T13:40:41.005Z</time></trkpt><trkpt lat="43.6333383" lon="10.9025637"><ele>154.0</ele><time>2026-04-11T13:40:42.007Z</time></trkpt><trkpt lat="43.6332281" lon="10.9025295"><ele>153.75</ele><time>2026-04-11T13:40:43Z</time></trkpt><trkpt lat="43.6331074" lon="10.9025193"><ele>153.5</ele><time>2026-04-11T13:40:43.981Z</time></trkpt><trkpt lat="43.6329768" lon="10.9025105"><ele>153.25</ele><time>2026-04-11T13:40:44.979Z</time></trkpt><trkpt lat="43.6328449" lon="10.9025275"><ele>153.0</ele><time>2026-04-11T13:40:45.976Z</time></trkpt><trkpt lat="43.6327173" lon="10.9025457"><ele>153.0</ele><time>2026-04-11T13:40:46.978Z</time></trkpt><trkpt lat="43.6326042" lon="10.9025544"><ele>153.0</ele><time>2026-04-11T13:40:47.988Z</time></trkpt><trkpt lat="43.6324985" lon="10.9025337"><ele>153.0</ele><time>2026-04-11T13:40:49.006Z</time></trkpt><trkpt lat="43.6324139" lon="10.9024919"><ele>153.0</ele><time>2026-04-11T13:40:49.984Z</time></trkpt><trkpt lat="43.6322993" lon="10.9024291"><ele>153.0</ele><time>2026-04-11T13:40:50.982Z</time></trkpt><trkpt lat="43.6321826" lon="10.9023524"><ele>153.0</ele><time>2026-04-11T13:40:51.979Z</time></trkpt><trkpt lat="43.6320724" lon="10.9022805"><ele>153.0</ele><time>2026-04-11T13:40:52.98Z</time></trkpt><trkpt lat="43.6319658" lon="10.9022284"><ele>153.0</ele><time>2026-04-11T13:40:54Z</time></trkpt><trkpt lat="43.6318616" lon="10.9021822"><ele>153.0</ele><time>2026-04-11T13:40:55.006Z</time></trkpt><trkpt lat="43.6317599" lon="10.9021329"><ele>152.0</ele><time>2026-04-11T13:40:55.998Z</time></trkpt><trkpt lat="43.6316836" lon="10.9020627"><ele>151.0</ele><time>2026-04-11T13:40:57.009Z</time></trkpt><trkpt lat="43.6316159" lon="10.9019766"><ele>150.0</ele><time>2026-04-11T13:40:57.987Z</time></trkpt><trkpt lat="43.631579" lon="10.9018644"><ele>149.0</ele><time>2026-04-11T13:40:58.983Z</time></trkpt><trkpt lat="43.6315446" lon="10.9017201"><ele>148.0</ele><time>2026-04-11T13:40:59.989Z</time></trkpt><trkpt lat="43.6315185" lon="10.9015511"><ele>148.0</ele><time>2026-04-11T13:41:00.99Z</time></trkpt><trkpt lat="43.6314922" lon="10.9013855"><ele>148.0</ele><time>2026-04-11T13:41:02.023Z</time></trkpt><trkpt lat="43.6314584" lon="10.9012334"><ele>148.0</ele><time>2026-04-11T13:41:03.007Z</time></trkpt><trkpt lat="43.6314203" lon="10.9010778"><ele>148.0</ele><time>2026-04-11T13:41:03.987Z</time></trkpt><trkpt lat="43.6313724" lon="10.9009601"><ele>148.0</ele><time>2026-04-11T13:41:04.984Z</time></trkpt><trkpt lat="43.6313281" lon="10.900857"><ele>148.0</ele><time>2026-04-11T13:41:05.983Z</time></trkpt><trkpt lat="43.6312986" lon="10.9007594"><ele>148.0</ele><time>2026-04-11T13:41:06.975Z</time></trkpt><trkpt lat="43.6312898" lon="10.9006116"><ele>148.0</ele><time>2026-04-11T13:41:08.993Z</time></trkpt><trkpt lat="43.6313249" lon="10.9004448"><ele>148.0</ele><time>2026-04-11T13:41:10.982Z</time></trkpt><trkpt lat="43.6313406" lon="10.900337"><ele>148.0</ele><time>2026-04-11T13:41:11.976Z</time></trkpt><trkpt lat="43.6313559" lon="10.9002525"><ele>148.0</ele><time>2026-04-11T13:41:12.975Z</time></trkpt><trkpt lat="43.6313895" lon="10.9001373"><ele>148.0</ele><time>2026-04-11T13:41:15.007Z</time></trkpt><trkpt lat="43.6314006" lon="10.9000473"><ele>148.0</ele><time>2026-04-11T13:41:18.006Z</time></trkpt><trkpt lat="43.6314296" lon="10.8999457"><ele>148.0</ele><time>2026-04-11T13:41:23.014Z</time></trkpt><trkpt lat="43.6314635" lon="10.8998545"><ele>148.0</ele><time>2026-04-11T13:41:25Z</time></trkpt><trkpt lat="43.6315139" lon="10.8997287"><ele>148.0</ele><time>2026-04-11T13:41:26.977Z</time></trkpt><trkpt lat="43.6315675" lon="10.8995731"><ele>148.0</ele><time>2026-04-11T13:41:27.991Z</time></trkpt><trkpt lat="43.6316143" lon="10.8994235"><ele>148.0</ele><time>2026-04-11T13:41:28.992Z</time></trkpt><trkpt lat="43.631669" lon="10.8992747"><ele>148.0</ele><time>2026-04-11T13:41:29.995Z</time></trkpt><trkpt lat="43.6317293" lon="10.8991098"><ele>148.0</ele><time>2026-04-11T13:41:31.017Z</time></trkpt><trkpt lat="43.6317939" lon="10.8989335"><ele>148.0</ele><time>2026-04-11T13:41:31.999Z</time></trkpt><trkpt lat="43.6318682" lon="10.8987345"><ele>148.0</ele><time>2026-04-11T13:41:33.02Z</time></trkpt><trkpt lat="43.631941" lon="10.8985375"><ele>147.25</ele><time>2026-04-11T13:41:34.001Z</time></trkpt><trkpt lat="43.6320012" lon="10.8983582"><ele>146.5</ele><time>2026-04-11T13:41:35.002Z</time></trkpt><trkpt lat="43.632064" lon="10.8981807"><ele>145.75</ele><time>2026-04-11T13:41:36.005Z</time></trkpt><trkpt lat="43.6321298" lon="10.8980094"><ele>145.0</ele><time>2026-04-11T13:41:37.005Z</time></trkpt><trkpt lat="43.6321898" lon="10.8978452"><ele>145.0</ele><time>2026-04-11T13:41:38.008Z</time></trkpt><trkpt lat="43.6322437" lon="10.8976888"><ele>145.0</ele><time>2026-04-11T13:41:39.012Z</time></trkpt><trkpt lat="43.6322958" lon="10.8975331"><ele>145.0</ele><time>2026-04-11T13:41:40.009Z</time></trkpt><trkpt lat="43.6323492" lon="10.8973767"><ele>145.0</ele><time>2026-04-11T13:41:41.008Z</time></trkpt><trkpt lat="43.6324034" lon="10.8972153"><ele>145.75</ele><time>2026-04-11T13:41:42.009Z</time></trkpt><trkpt lat="43.6324555" lon="10.8970595"><ele>146.5</ele><time>2026-04-11T13:41:43.013Z</time></trkpt><trkpt lat="43.6325075" lon="10.8969133"><ele>147.25</ele><time>2026-04-11T13:41:44.013Z</time></trkpt><trkpt lat="43.6325564" lon="10.8967711"><ele>148.0</ele><time>2026-04-11T13:41:45.003Z</time></trkpt><trkpt lat="43.632601" lon="10.8966479"><ele>148.20000000000002</ele><time>2026-04-11T13:41:46.006Z</time></trkpt><trkpt lat="43.6326469" lon="10.8965272"><ele>148.4</ele><time>2026-04-11T13:41:47.013Z</time></trkpt><trkpt lat="43.6326977" lon="10.8963947"><ele>148.60000000000002</ele><time>2026-04-11T13:41:48.013Z</time></trkpt><trkpt lat="43.6327651" lon="10.8962728"><ele>148.8</ele><time>2026-04-11T13:41:49.015Z</time></trkpt><trkpt lat="43.6328416" lon="10.8961578"><ele>149.0</ele><time>2026-04-11T13:41:49.994Z</time></trkpt><trkpt lat="43.6329163" lon="10.8960573"><ele>148.0</ele><time>2026-04-11T13:41:50.989Z</time></trkpt><trkpt lat="43.6329963" lon="10.8959539"><ele>147.0</ele><time>2026-04-11T13:41:51.992Z</time></trkpt><trkpt lat="43.6330725" lon="10.8958526"><ele>146.0</ele><time>2026-04-11T13:41:52.983Z</time></trkpt><trkpt lat="43.6331489" lon="10.8957383"><ele>145.0</ele><time>2026-04-11T13:41:54.002Z</time></trkpt><trkpt lat="43.6332263" lon="10.8956292"><ele>144.0</ele><time>2026-04-11T13:41:55Z</time></trkpt><trkpt lat="43.6333022" lon="10.895536"><ele>144.0</ele><time>2026-04-11T13:41:56.001Z</time></trkpt><trkpt lat="43.6333713" lon="10.8954442"><ele>144.0</ele><time>2026-04-11T13:41:57Z</time></trkpt><trkpt lat="43.6334219" lon="10.895348"><ele>144.0</ele><time>2026-04-11T13:41:57.999Z</time></trkpt><trkpt lat="43.6334579" lon="10.895236"><ele>144.0</ele><time>2026-04-11T13:41:58.987Z</time></trkpt><trkpt lat="43.633469" lon="10.8951235"><ele>144.0</ele><time>2026-04-11T13:41:59.98Z</time></trkpt><trkpt lat="43.633454" lon="10.8948202"><ele>144.75</ele><time>2026-04-11T13:42:00.897Z</time></trkpt><trkpt lat="43.633479" lon="10.8946404"><ele>145.5</ele><time>2026-04-11T13:42:01.899Z</time></trkpt><trkpt lat="43.6334795" lon="10.8944527"><ele>146.25</ele><time>2026-04-11T13:42:02.913Z</time></trkpt><trkpt lat="43.6334901" lon="10.8942567"><ele>147.0</ele><time>2026-04-11T13:42:03.955Z</time></trkpt><trkpt lat="43.6335056" lon="10.8940849"><ele>148.33333333333334</ele><time>2026-04-11T13:42:04.917Z</time></trkpt><trkpt lat="43.6335317" lon="10.8939428"><ele>149.66666666666666</ele><time>2026-04-11T13:42:05.91Z</time></trkpt><trkpt lat="43.6335609" lon="10.8938299"><ele>151.0</ele><time>2026-04-11T13:42:06.911Z</time></trkpt><trkpt lat="43.6336126" lon="10.8937465"><ele>152.33333333333331</ele><time>2026-04-11T13:42:07.917Z</time></trkpt><trkpt lat="43.6336756" lon="10.893682"><ele>153.66666666666666</ele><time>2026-04-11T13:42:08.899Z</time></trkpt><trkpt lat="43.6337431" lon="10.893628"><ele>155.0</ele><time>2026-04-11T13:42:09.897Z</time></trkpt><trkpt lat="43.6338301" lon="10.8935724"><ele>155.16666666666666</ele><time>2026-04-11T13:42:10.899Z</time></trkpt><trkpt lat="43.6339209" lon="10.8935091"><ele>155.33333333333331</ele><time>2026-04-11T13:42:11.904Z</time></trkpt><trkpt lat="43.634004" lon="10.8934475"><ele>155.5</ele><time>2026-04-11T13:42:12.903Z</time></trkpt><trkpt lat="43.6340672" lon="10.8933972"><ele>155.66666666666666</ele><time>2026-04-11T13:42:13.908Z</time></trkpt><trkpt lat="43.6341283" lon="10.8933419"><ele>155.83333333333334</ele><time>2026-04-11T13:42:14.906Z</time></trkpt><trkpt lat="43.6341754" lon="10.8932559"><ele>156.0</ele><time>2026-04-11T13:42:15.908Z</time></trkpt><trkpt lat="43.6342041" lon="10.8931579"><ele>157.4</ele><time>2026-04-11T13:42:16.907Z</time></trkpt><trkpt lat="43.634215" lon="10.8930392"><ele>158.8</ele><time>2026-04-11T13:42:17.914Z</time></trkpt><trkpt lat="43.6342239" lon="10.8928941"><ele>160.20000000000002</ele><time>2026-04-11T13:42:18.905Z</time></trkpt><trkpt lat="43.6342353" lon="10.8927496"><ele>161.6</ele><time>2026-04-11T13:42:19.902Z</time></trkpt><trkpt lat="43.6342452" lon="10.8925773"><ele>163.0</ele><time>2026-04-11T13:42:20.899Z</time></trkpt><trkpt lat="43.6342516" lon="10.8924101"><ele>164.0</ele><time>2026-04-11T13:42:21.888Z</time></trkpt><trkpt lat="43.6342489" lon="10.8922576"><ele>165.0</ele><time>2026-04-11T13:42:22.893Z</time></trkpt><trkpt lat="43.6342525" lon="10.8921224"><ele>166.0</ele><time>2026-04-11T13:42:23.904Z</time></trkpt><trkpt lat="43.6342681" lon="10.8920122"><ele>167.0</ele><time>2026-04-11T13:42:24.911Z</time></trkpt><trkpt lat="43.6343221" lon="10.8919229"><ele>168.0</ele><time>2026-04-11T13:42:25.903Z</time></trkpt><trkpt lat="43.6343939" lon="10.8918053"><ele>167.0</ele><time>2026-04-11T13:42:26.905Z</time></trkpt><trkpt lat="43.6344602" lon="10.8916666"><ele>166.0</ele><time>2026-04-11T13:42:27.915Z</time></trkpt><trkpt lat="43.6345105" lon="10.8914871"><ele>165.0</ele><time>2026-04-11T13:42:28.912Z</time></trkpt><trkpt lat="43.6345537" lon="10.8913003"><ele>164.0</ele><time>2026-04-11T13:42:29.916Z</time></trkpt><trkpt lat="43.6345848" lon="10.8911096"><ele>164.0</ele><time>2026-04-11T13:42:30.922Z</time></trkpt><trkpt lat="43.6346204" lon="10.8909238"><ele>164.0</ele><time>2026-04-11T13:42:31.924Z</time></trkpt><trkpt lat="43.6346707" lon="10.8907251"><ele>164.0</ele><time>2026-04-11T13:42:32.912Z</time></trkpt><trkpt lat="43.6347226" lon="10.8905433"><ele>164.0</ele><time>2026-04-11T13:42:33.943Z</time></trkpt><trkpt lat="43.6347649" lon="10.8903568"><ele>164.0</ele><time>2026-04-11T13:42:34.92Z</time></trkpt><trkpt lat="43.6348135" lon="10.8901886"><ele>164.0</ele><time>2026-04-11T13:42:35.917Z</time></trkpt><trkpt lat="43.6348602" lon="10.8900253"><ele>164.0</ele><time>2026-04-11T13:42:36.923Z</time></trkpt><trkpt lat="43.6348966" lon="10.8898827"><ele>164.0</ele><time>2026-04-11T13:42:37.928Z</time></trkpt><trkpt lat="43.6349506" lon="10.8897336"><ele>164.2</ele><time>2026-04-11T13:42:38.918Z</time></trkpt><trkpt lat="43.6349887" lon="10.8896153"><ele>164.39999999999998</ele><time>2026-04-11T13:42:39.922Z</time></trkpt><trkpt lat="43.6350021" lon="10.8894813"><ele>164.6</ele><time>2026-04-11T13:42:40.919Z</time></trkpt><trkpt lat="43.635029" lon="10.8893549"><ele>164.8</ele><time>2026-04-11T13:42:41.91Z</time></trkpt><trkpt lat="43.6350636" lon="10.8892328"><ele>165.0</ele><time>2026-04-11T13:42:42.913Z</time></trkpt><trkpt lat="43.6350999" lon="10.8891154"><ele>165.4</ele><time>2026-04-11T13:42:43.91Z</time></trkpt><trkpt lat="43.6351227" lon="10.8890026"><ele>165.8</ele><time>2026-04-11T13:42:44.904Z</time></trkpt><trkpt lat="43.6351359" lon="10.8888738"><ele>166.2</ele><time>2026-04-11T13:42:45.904Z</time></trkpt><trkpt lat="43.635136" lon="10.8887285"><ele>166.6</ele><time>2026-04-11T13:42:46.912Z</time></trkpt><trkpt lat="43.635121" lon="10.8885892"><ele>167.0</ele><time>2026-04-11T13:42:47.913Z</time></trkpt><trkpt lat="43.6350971" lon="10.8884392"><ele>166.25</ele><time>2026-04-11T13:42:48.913Z</time></trkpt><trkpt lat="43.6350608" lon="10.8882857"><ele>165.5</ele><time>2026-04-11T13:42:49.907Z</time></trkpt><trkpt lat="43.6350275" lon="10.8881307"><ele>164.75</ele><time>2026-04-11T13:42:50.9Z</time></trkpt><trkpt lat="43.6350043" lon="10.887979"><ele>164.0</ele><time>2026-04-11T13:42:51.894Z</time></trkpt><trkpt lat="43.6349819" lon="10.8878144"><ele>164.0</ele><time>2026-04-11T13:42:52.902Z</time></trkpt><trkpt lat="43.634956" lon="10.8876421"><ele>164.0</ele><time>2026-04-11T13:42:53.909Z</time></trkpt><trkpt lat="43.6349356" lon="10.8874644"><ele>164.0</ele><time>2026-04-11T13:42:54.9Z</time></trkpt><trkpt lat="43.6349254" lon="10.8872912"><ele>164.0</ele><time>2026-04-11T13:42:55.906Z</time></trkpt><trkpt lat="43.6349192" lon="10.8871346"><ele>163.0</ele><time>2026-04-11T13:42:56.911Z</time></trkpt><trkpt lat="43.6349074" lon="10.8869818"><ele>162.0</ele><time>2026-04-11T13:42:57.914Z</time></trkpt><trkpt lat="43.6349073" lon="10.8868353"><ele>161.0</ele><time>2026-04-11T13:42:58.907Z</time></trkpt><trkpt lat="43.6349188" lon="10.8867062"><ele>160.0</ele><time>2026-04-11T13:42:59.911Z</time></trkpt><trkpt lat="43.6349605" lon="10.8865626"><ele>159.0</ele><time>2026-04-11T13:43:00.909Z</time></trkpt><trkpt lat="43.6350069" lon="10.8863973"><ele>158.83333333333334</ele><time>2026-04-11T13:43:01.913Z</time></trkpt><trkpt lat="43.6350507" lon="10.8862472"><ele>158.66666666666666</ele><time>2026-04-11T13:43:02.911Z</time></trkpt><trkpt lat="43.6350927" lon="10.8861171"><ele>158.5</ele><time>2026-04-11T13:43:03.913Z</time></trkpt><trkpt lat="43.6351206" lon="10.8860077"><ele>158.33333333333331</ele><time>2026-04-11T13:43:04.922Z</time></trkpt><trkpt lat="43.6351437" lon="10.8859093"><ele>158.16666666666666</ele><time>2026-04-11T13:43:05.902Z</time></trkpt><trkpt lat="43.6351723" lon="10.885823"><ele>158.0</ele><time>2026-04-11T13:43:06.905Z</time></trkpt><trkpt lat="43.6352066" lon="10.8856801"><ele>157.5</ele><time>2026-04-11T13:43:08.913Z</time></trkpt><trkpt lat="43.6352343" lon="10.8855461"><ele>157.0</ele><time>2026-04-11T13:43:10.9Z</time></trkpt><trkpt lat="43.6352607" lon="10.8854194"><ele>156.5</ele><time>2026-04-11T13:43:12.897Z</time></trkpt><trkpt lat="43.6352782" lon="10.8852763"><ele>156.0</ele><time>2026-04-11T13:43:14.907Z</time></trkpt><trkpt lat="43.6352972" lon="10.8851919"><ele>155.5</ele><time>2026-04-11T13:43:15.903Z</time></trkpt><trkpt lat="43.6353183" lon="10.8850967"><ele>155.0</ele><time>2026-04-11T13:43:16.916Z</time></trkpt><trkpt lat="43.6353373" lon="10.8849846"><ele>156.4</ele><time>2026-04-11T13:43:17.908Z</time></trkpt><trkpt lat="43.6353636" lon="10.8848791"><ele>157.8</ele><time>2026-04-11T13:43:18.908Z</time></trkpt><trkpt lat="43.6353957" lon="10.8847892"><ele>159.2</ele><time>2026-04-11T13:43:19.912Z</time></trkpt><trkpt lat="43.6354473" lon="10.8847077"><ele>160.6</ele><time>2026-04-11T13:43:20.909Z</time></trkpt><trkpt lat="43.635516" lon="10.8846027"><ele>162.0</ele><time>2026-04-11T13:43:21.921Z</time></trkpt><trkpt lat="43.6355956" lon="10.8844731"><ele>162.0</ele><time>2026-04-11T13:43:22.914Z</time></trkpt><trkpt lat="43.6356547" lon="10.8843372"><ele>162.0</ele><time>2026-04-11T13:43:23.914Z</time></trkpt><trkpt lat="43.6357024" lon="10.8842222"><ele>162.0</ele><time>2026-04-11T13:43:24.909Z</time></trkpt><trkpt lat="43.6357445" lon="10.8841119"><ele>162.0</ele><time>2026-04-11T13:43:25.906Z</time></trkpt><trkpt lat="43.6357848" lon="10.8839918"><ele>162.0</ele><time>2026-04-11T13:43:26.901Z</time></trkpt><trkpt lat="43.6358169" lon="10.8838668"><ele>163.6</ele><time>2026-04-11T13:43:27.905Z</time></trkpt><trkpt lat="43.6358385" lon="10.8837478"><ele>165.2</ele><time>2026-04-11T13:43:28.906Z</time></trkpt><trkpt lat="43.63584" lon="10.8836274"><ele>166.8</ele><time>2026-04-11T13:43:29.905Z</time></trkpt><trkpt lat="43.6358367" lon="10.8834923"><ele>168.4</ele><time>2026-04-11T13:43:30.902Z</time></trkpt><trkpt lat="43.6358293" lon="10.8833357"><ele>170.0</ele><time>2026-04-11T13:43:31.903Z</time></trkpt><trkpt lat="43.635819" lon="10.8831886"><ele>170.83333333333331</ele><time>2026-04-11T13:43:32.905Z</time></trkpt><trkpt lat="43.635797" lon="10.8830651"><ele>171.66666666666666</ele><time>2026-04-11T13:43:33.906Z</time></trkpt><trkpt lat="43.6357786" lon="10.88295"><ele>172.5</ele><time>2026-04-11T13:43:34.905Z</time></trkpt><trkpt lat="43.6357728" lon="10.8828395"><ele>173.33333333333334</ele><time>2026-04-11T13:43:35.93Z</time></trkpt><trkpt lat="43.6357683" lon="10.8827326"><ele>174.16666666666669</ele><time>2026-04-11T13:43:36.916Z</time></trkpt><trkpt lat="43.6357451" lon="10.8826322"><ele>175.0</ele><time>2026-04-11T13:43:37.913Z</time></trkpt><trkpt lat="43.6357019" lon="10.8825286"><ele>175.0</ele><time>2026-04-11T13:43:38.907Z</time></trkpt><trkpt lat="43.6356437" lon="10.8824213"><ele>175.0</ele><time>2026-04-11T13:43:39.919Z</time></trkpt><trkpt lat="43.6355857" lon="10.8822897"><ele>175.0</ele><time>2026-04-11T13:43:40.919Z</time></trkpt><trkpt lat="43.6355461" lon="10.8821262"><ele>175.0</ele><time>2026-04-11T13:43:41.908Z</time></trkpt><trkpt lat="43.635505" lon="10.8819381"><ele>175.6</ele><time>2026-04-11T13:43:42.915Z</time></trkpt><trkpt lat="43.6354645" lon="10.8817643"><ele>176.2</ele><time>2026-04-11T13:43:43.92Z</time></trkpt><trkpt lat="43.6354243" lon="10.8816077"><ele>176.8</ele><time>2026-04-11T13:43:44.902Z</time></trkpt><trkpt lat="43.6353844" lon="10.8814732"><ele>177.4</ele><time>2026-04-11T13:43:45.911Z</time></trkpt><trkpt lat="43.6353521" lon="10.8813588"><ele>178.0</ele><time>2026-04-11T13:43:46.91Z</time></trkpt><trkpt lat="43.6353163" lon="10.8812604"><ele>177.66666666666669</ele><time>2026-04-11T13:43:47.898Z</time></trkpt><trkpt lat="43.6352805" lon="10.8811852"><ele>177.33333333333334</ele><time>2026-04-11T13:43:48.928Z</time></trkpt><trkpt lat="43.6352388" lon="10.8811141"><ele>177.0</ele><time>2026-04-11T13:43:49.913Z</time></trkpt><trkpt lat="43.6352166" lon="10.8810307"><ele>176.66666666666666</ele><time>2026-04-11T13:43:50.913Z</time></trkpt><trkpt lat="43.6352277" lon="10.8808646"><ele>176.33333333333331</ele><time>2026-04-11T13:43:52.902Z</time></trkpt><trkpt lat="43.6352607" lon="10.880736"><ele>176.0</ele><time>2026-04-11T13:43:54.917Z</time></trkpt><trkpt lat="43.6352476" lon="10.8806307"><ele>179.0</ele><time>2026-04-11T13:43:56.925Z</time></trkpt><trkpt lat="43.6352025" lon="10.8805667"><ele>182.0</ele><time>2026-04-11T13:43:58.933Z</time></trkpt><trkpt lat="43.6351291" lon="10.8805486"><ele>185.0</ele><time>2026-04-11T13:44:00.941Z</time></trkpt><trkpt lat="43.6350493" lon="10.8805103"><ele>188.0</ele><time>2026-04-11T13:44:02.942Z</time></trkpt><trkpt lat="43.6349699" lon="10.8804433"><ele>191.00000000000003</ele><time>2026-04-11T13:44:04.945Z</time></trkpt><trkpt lat="43.6348952" lon="10.8803939"><ele>194.0</ele><time>2026-04-11T13:44:06.946Z</time></trkpt><trkpt lat="43.6348312" lon="10.8803516"><ele>194.0</ele><time>2026-04-11T13:44:08.928Z</time></trkpt><trkpt lat="43.6347409" lon="10.8802945"><ele>194.0</ele><time>2026-04-11T13:44:11.934Z</time></trkpt><trkpt lat="43.6346356" lon="10.8802039"><ele>194.0</ele><time>2026-04-11T13:44:13.919Z</time></trkpt><trkpt lat="43.6345614" lon="10.8801418"><ele>194.0</ele><time>2026-04-11T13:44:14.925Z</time></trkpt><trkpt lat="43.634469" lon="10.8800866"><ele>194.0</ele><time>2026-04-11T13:44:15.936Z</time></trkpt><trkpt lat="43.6343818" lon="10.8800336"><ele>197.2</ele><time>2026-04-11T13:44:18.005Z</time></trkpt><trkpt lat="43.6342941" lon="10.8799738"><ele>200.39999999999998</ele><time>2026-04-11T13:44:19.013Z</time></trkpt><trkpt lat="43.6342086" lon="10.8799206"><ele>203.6</ele><time>2026-04-11T13:44:20.008Z</time></trkpt><trkpt lat="43.634134" lon="10.8798749"><ele>206.8</ele><time>2026-04-11T13:44:21.012Z</time></trkpt><trkpt lat="43.634066" lon="10.8798354"><ele>210.0</ele><time>2026-04-11T13:44:22.007Z</time></trkpt><trkpt lat="43.6339523" lon="10.8797589"><ele>210.0</ele><time>2026-04-11T13:44:24.014Z</time></trkpt><trkpt lat="43.633889" lon="10.8797104"><ele>210.0</ele><time>2026-04-11T13:44:24.984Z</time></trkpt><trkpt lat="43.633799" lon="10.8796458"><ele>210.0</ele><time>2026-04-11T13:44:26.986Z</time></trkpt><trkpt lat="43.6337121" lon="10.879585"><ele>210.0</ele><time>2026-04-11T13:44:29.003Z</time></trkpt><trkpt lat="43.6336042" lon="10.8795312"><ele>210.0</ele><time>2026-04-11T13:44:30.973Z</time></trkpt><trkpt lat="43.6334905" lon="10.8795663"><ele>210.75</ele><time>2026-04-11T13:44:32.968Z</time></trkpt><trkpt lat="43.633378" lon="10.8796614"><ele>211.5</ele><time>2026-04-11T13:44:34.884Z</time></trkpt><trkpt lat="43.6332781" lon="10.8797172"><ele>212.25</ele><time>2026-04-11T13:44:36.899Z</time></trkpt><trkpt lat="43.6331621" lon="10.8797603"><ele>213.0</ele><time>2026-04-11T13:44:38.9Z</time></trkpt><trkpt lat="43.6330437" lon="10.879801"><ele>212.99999999999997</ele><time>2026-04-11T13:44:40.898Z</time></trkpt><trkpt lat="43.6329743" lon="10.8798078"><ele>213.0</ele><time>2026-04-11T13:44:41.905Z</time></trkpt><trkpt lat="43.6329093" lon="10.8797798"><ele>213.0</ele><time>2026-04-11T13:44:42.913Z</time></trkpt><trkpt lat="43.6328398" lon="10.8797599"><ele>213.0</ele><time>2026-04-11T13:44:43.918Z</time></trkpt><trkpt lat="43.632763" lon="10.8797253"><ele>213.0</ele><time>2026-04-11T13:44:44.924Z</time></trkpt><trkpt lat="43.6326888" lon="10.8796922"><ele>212.99999999999997</ele><time>2026-04-11T13:44:45.924Z</time></trkpt><trkpt lat="43.6326276" lon="10.8796641"><ele>213.0</ele><time>2026-04-11T13:44:46.911Z</time></trkpt><trkpt lat="43.6325285" lon="10.8796057"><ele>210.99999999999997</ele><time>2026-04-11T13:44:48.93Z</time></trkpt><trkpt lat="43.632485" lon="10.8795258"><ele>209.0</ele><time>2026-04-11T13:44:50.93Z</time></trkpt><trkpt lat="43.632463" lon="10.8794438"><ele>207.0</ele><time>2026-04-11T13:44:52.93Z</time></trkpt><trkpt lat="43.6325003" lon="10.879348"><ele>205.0</ele><time>2026-04-11T13:44:55.928Z</time></trkpt><trkpt lat="43.6325446" lon="10.8792755"><ele>203.0</ele><time>2026-04-11T13:44:58.923Z</time></trkpt><trkpt lat="43.6326106" lon="10.8792178"><ele>200.99999999999997</ele><time>2026-04-11T13:45:00.914Z</time></trkpt><trkpt lat="43.6326736" lon="10.879144"><ele>199.0</ele><time>2026-04-11T13:45:02.914Z</time></trkpt><trkpt lat="43.6326314" lon="10.8790415"><ele>198.2</ele><time>2026-04-11T13:45:05.909Z</time></trkpt><trkpt lat="43.6325528" lon="10.8790357"><ele>197.39999999999998</ele><time>2026-04-11T13:45:07.907Z</time></trkpt><trkpt lat="43.6324553" lon="10.8790618"><ele>196.6</ele><time>2026-04-11T13:45:09.901Z</time></trkpt><trkpt lat="43.632318" lon="10.8790624"><ele>195.8</ele><time>2026-04-11T13:45:11.902Z</time></trkpt><trkpt lat="43.6322054" lon="10.8790145"><ele>195.0</ele><time>2026-04-11T13:45:13.899Z</time></trkpt><trkpt lat="43.6321384" lon="10.8789789"><ele>195.0</ele><time>2026-04-11T13:45:14.9Z</time></trkpt><trkpt lat="43.6320711" lon="10.8789274"><ele>195.0</ele><time>2026-04-11T13:45:15.902Z</time></trkpt><trkpt lat="43.631997" lon="10.8788749"><ele>195.0</ele><time>2026-04-11T13:45:16.901Z</time></trkpt><trkpt lat="43.6319283" lon="10.8788078"><ele>195.0</ele><time>2026-04-11T13:45:17.897Z</time></trkpt><trkpt lat="43.6318517" lon="10.8787477"><ele>195.0</ele><time>2026-04-11T13:45:18.909Z</time></trkpt><trkpt lat="43.6317852" lon="10.8786686"><ele>195.0</ele><time>2026-04-11T13:45:19.902Z</time></trkpt><trkpt lat="43.631727" lon="10.8785885"><ele>192.5</ele><time>2026-04-11T13:45:20.918Z</time></trkpt><trkpt lat="43.6316685" lon="10.8785173"><ele>190.0</ele><time>2026-04-11T13:45:21.921Z</time></trkpt><trkpt lat="43.6316025" lon="10.8784425"><ele>187.5</ele><time>2026-04-11T13:45:22.918Z</time></trkpt><trkpt lat="43.6315252" lon="10.8783628"><ele>185.0</ele><time>2026-04-11T13:45:23.919Z</time></trkpt><trkpt lat="43.6314562" lon="10.8782838"><ele>182.5</ele><time>2026-04-11T13:45:24.922Z</time></trkpt><trkpt lat="43.6313816" lon="10.8782015"><ele>180.0</ele><time>2026-04-11T13:45:25.921Z</time></trkpt><trkpt lat="43.6313042" lon="10.8781153"><ele>179.0</ele><time>2026-04-11T13:45:26.923Z</time></trkpt><trkpt lat="43.6312356" lon="10.8780229"><ele>178.0</ele><time>2026-04-11T13:45:27.921Z</time></trkpt><trkpt lat="43.6311671" lon="10.8779336"><ele>177.0</ele><time>2026-04-11T13:45:28.92Z</time></trkpt><trkpt lat="43.6310869" lon="10.8778504"><ele>176.0</ele><time>2026-04-11T13:45:29.919Z</time></trkpt><trkpt lat="43.6310093" lon="10.8777751"><ele>175.0</ele><time>2026-04-11T13:45:30.918Z</time></trkpt><trkpt lat="43.6309254" lon="10.8776901"><ele>174.4</ele><time>2026-04-11T13:45:31.918Z</time></trkpt><trkpt lat="43.6308447" lon="10.8776026"><ele>173.8</ele><time>2026-04-11T13:45:32.919Z</time></trkpt><trkpt lat="43.6307656" lon="10.8775014"><ele>173.2</ele><time>2026-04-11T13:45:33.917Z</time></trkpt><trkpt lat="43.630702" lon="10.8773862"><ele>172.6</ele><time>2026-04-11T13:45:34.917Z</time></trkpt><trkpt lat="43.6306414" lon="10.8772656"><ele>172.0</ele><time>2026-04-11T13:45:35.91Z</time></trkpt><trkpt lat="43.6305782" lon="10.8771321"><ele>171.8</ele><time>2026-04-11T13:45:36.919Z</time></trkpt><trkpt lat="43.6305188" lon="10.8770065"><ele>171.6</ele><time>2026-04-11T13:45:37.92Z</time></trkpt><trkpt lat="43.6304588" lon="10.8768855"><ele>171.4</ele><time>2026-04-11T13:45:38.917Z</time></trkpt><trkpt lat="43.6303925" lon="10.8767823"><ele>171.20000000000002</ele><time>2026-04-11T13:45:39.941Z</time></trkpt><trkpt lat="43.6303113" lon="10.8766791"><ele>171.0</ele><time>2026-04-11T13:45:40.923Z</time></trkpt><trkpt lat="43.6302503" lon="10.8765781"><ele>171.0</ele><time>2026-04-11T13:45:41.921Z</time></trkpt><trkpt lat="43.6301977" lon="10.8764762"><ele>171.0</ele><time>2026-04-11T13:45:42.924Z</time></trkpt><trkpt lat="43.6301504" lon="10.8763811"><ele>171.0</ele><time>2026-04-11T13:45:43.922Z</time></trkpt><trkpt lat="43.6301024" lon="10.8762821"><ele>171.0</ele><time>2026-04-11T13:45:44.922Z</time></trkpt><trkpt lat="43.6300592" lon="10.8761936"><ele>171.0</ele><time>2026-04-11T13:45:45.921Z</time></trkpt><trkpt lat="43.6300215" lon="10.8761074"><ele>171.0</ele><time>2026-04-11T13:45:46.921Z</time></trkpt><trkpt lat="43.6299851" lon="10.8760151"><ele>170.60000000000002</ele><time>2026-04-11T13:45:47.919Z</time></trkpt><trkpt lat="43.6299451" lon="10.8759217"><ele>170.2</ele><time>2026-04-11T13:45:48.922Z</time></trkpt><trkpt lat="43.6298983" lon="10.8758355"><ele>169.8</ele><time>2026-04-11T13:45:49.916Z</time></trkpt><trkpt lat="43.6298204" lon="10.8757178"><ele>169.39999999999998</ele><time>2026-04-11T13:45:51.922Z</time></trkpt><trkpt lat="43.6297293" lon="10.8756581"><ele>169.0</ele><time>2026-04-11T13:45:53.915Z</time></trkpt><trkpt lat="43.6296524" lon="10.875632"><ele>169.0</ele><time>2026-04-11T13:45:55.916Z</time></trkpt><trkpt lat="43.6295925" lon="10.8755923"><ele>169.0</ele><time>2026-04-11T13:45:56.911Z</time></trkpt><trkpt lat="43.6295259" lon="10.8755334"><ele>169.0</ele><time>2026-04-11T13:45:57.91Z</time></trkpt><trkpt lat="43.6294602" lon="10.8754802"><ele>169.0</ele><time>2026-04-11T13:45:58.911Z</time></trkpt><trkpt lat="43.6294036" lon="10.8754264"><ele>169.0</ele><time>2026-04-11T13:45:59.907Z</time></trkpt><trkpt lat="43.6293459" lon="10.8753583"><ele>169.0</ele><time>2026-04-11T13:46:00.916Z</time></trkpt><trkpt lat="43.6292322" lon="10.8752564"><ele>169.0</ele><time>2026-04-11T13:46:02.909Z</time></trkpt><trkpt lat="43.629141" lon="10.8751287"><ele>169.0</ele><time>2026-04-11T13:46:04.904Z</time></trkpt><trkpt lat="43.6291071" lon="10.8750397"><ele>169.0</ele><time>2026-04-11T13:46:05.915Z</time></trkpt><trkpt lat="43.6290843" lon="10.8749383"><ele>169.0</ele><time>2026-04-11T13:46:06.91Z</time></trkpt><trkpt lat="43.6290633" lon="10.8748191"><ele>169.0</ele><time>2026-04-11T13:46:07.915Z</time></trkpt><trkpt lat="43.6290442" lon="10.8747201"><ele>169.0</ele><time>2026-04-11T13:46:08.905Z</time></trkpt><trkpt lat="43.6290328" lon="10.8746152"><ele>169.0</ele><time>2026-04-11T13:46:09.909Z</time></trkpt><trkpt lat="43.6290342" lon="10.8745165"><ele>169.0</ele><time>2026-04-11T13:46:10.924Z</time></trkpt><trkpt lat="43.6290522" lon="10.874411"><ele>169.0</ele><time>2026-04-11T13:46:11.905Z</time></trkpt><trkpt lat="43.6291048" lon="10.8743113"><ele>169.0</ele><time>2026-04-11T13:46:12.901Z</time></trkpt><trkpt lat="43.6291731" lon="10.8742022"><ele>169.0</ele><time>2026-04-11T13:46:13.908Z</time></trkpt><trkpt lat="43.6292336" lon="10.8740773"><ele>168.5</ele><time>2026-04-11T13:46:14.904Z</time></trkpt><trkpt lat="43.6292793" lon="10.8739544"><ele>168.0</ele><time>2026-04-11T13:46:15.898Z</time></trkpt><trkpt lat="43.6293154" lon="10.8738386"><ele>167.5</ele><time>2026-04-11T13:46:16.901Z</time></trkpt><trkpt lat="43.6293411" lon="10.8737268"><ele>167.0</ele><time>2026-04-11T13:46:17.9Z</time></trkpt><trkpt lat="43.6293697" lon="10.8736267"><ele>166.5</ele><time>2026-04-11T13:46:18.912Z</time></trkpt><trkpt lat="43.6294026" lon="10.8735337"><ele>166.0</ele><time>2026-04-11T13:46:19.905Z</time></trkpt><trkpt lat="43.6294329" lon="10.8734299"><ele>165.0</ele><time>2026-04-11T13:46:20.899Z</time></trkpt><trkpt lat="43.6294442" lon="10.8733138"><ele>164.0</ele><time>2026-04-11T13:46:21.904Z</time></trkpt><trkpt lat="43.6294447" lon="10.8731667"><ele>163.0</ele><time>2026-04-11T13:46:22.907Z</time></trkpt><trkpt lat="43.6294541" lon="10.873033"><ele>162.0</ele><time>2026-04-11T13:46:23.912Z</time></trkpt><trkpt lat="43.6294877" lon="10.8729098"><ele>161.0</ele><time>2026-04-11T13:46:24.911Z</time></trkpt><trkpt lat="43.6295334" lon="10.8727764"><ele>158.8</ele><time>2026-04-11T13:46:25.92Z</time></trkpt><trkpt lat="43.6295874" lon="10.8726431"><ele>156.60000000000002</ele><time>2026-04-11T13:46:26.926Z</time></trkpt><trkpt lat="43.6296284" lon="10.872516"><ele>154.4</ele><time>2026-04-11T13:46:27.926Z</time></trkpt><trkpt lat="43.6296591" lon="10.8723988"><ele>152.2</ele><time>2026-04-11T13:46:28.93Z</time></trkpt><trkpt lat="43.6296821" lon="10.8722858"><ele>150.0</ele><time>2026-04-11T13:46:29.924Z</time></trkpt><trkpt lat="43.6297219" lon="10.872192"><ele>150.0</ele><time>2026-04-11T13:46:30.92Z</time></trkpt><trkpt lat="43.6297608" lon="10.872095"><ele>150.0</ele><time>2026-04-11T13:46:31.922Z</time></trkpt><trkpt lat="43.6298002" lon="10.8720048"><ele>150.0</ele><time>2026-04-11T13:46:32.922Z</time></trkpt><trkpt lat="43.6298222" lon="10.8719003"><ele>150.0</ele><time>2026-04-11T13:46:33.919Z</time></trkpt><trkpt lat="43.6298403" lon="10.8718005"><ele>150.0</ele><time>2026-04-11T13:46:34.919Z</time></trkpt><trkpt lat="43.6298656" lon="10.8716965"><ele>150.0</ele><time>2026-04-11T13:46:35.919Z</time></trkpt><trkpt lat="43.6298881" lon="10.8715975"><ele>149.66666666666666</ele><time>2026-04-11T13:46:36.919Z</time></trkpt><trkpt lat="43.6299061" lon="10.8715064"><ele>149.33333333333334</ele><time>2026-04-11T13:46:37.917Z</time></trkpt><trkpt lat="43.6299361" lon="10.8713938"><ele>149.0</ele><time>2026-04-11T13:46:38.913Z</time></trkpt><trkpt lat="43.6299687" lon="10.8712644"><ele>148.66666666666669</ele><time>2026-04-11T13:46:39.904Z</time></trkpt><trkpt lat="43.6299879" lon="10.8711391"><ele>148.33333333333334</ele><time>2026-04-11T13:46:40.903Z</time></trkpt><trkpt lat="43.6300159" lon="10.8710181"><ele>148.0</ele><time>2026-04-11T13:46:41.927Z</time></trkpt><trkpt lat="43.6300318" lon="10.8709038"><ele>146.83333333333334</ele><time>2026-04-11T13:46:42.913Z</time></trkpt><trkpt lat="43.630044" lon="10.8708011"><ele>145.66666666666669</ele><time>2026-04-11T13:46:43.922Z</time></trkpt><trkpt lat="43.6300604" lon="10.8706929"><ele>144.5</ele><time>2026-04-11T13:46:44.911Z</time></trkpt><trkpt lat="43.6300513" lon="10.8705822"><ele>143.33333333333334</ele><time>2026-04-11T13:46:45.915Z</time></trkpt><trkpt lat="43.630044" lon="10.8704792"><ele>142.16666666666666</ele><time>2026-04-11T13:46:46.915Z</time></trkpt><trkpt lat="43.6300294" lon="10.8703626"><ele>141.0</ele><time>2026-04-11T13:46:47.905Z</time></trkpt><trkpt lat="43.6299984" lon="10.8702391"><ele>141.0</ele><time>2026-04-11T13:46:48.915Z</time></trkpt><trkpt lat="43.6299572" lon="10.8701125"><ele>141.0</ele><time>2026-04-11T13:46:49.911Z</time></trkpt><trkpt lat="43.6299162" lon="10.8699876"><ele>141.0</ele><time>2026-04-11T13:46:50.91Z</time></trkpt><trkpt lat="43.6298784" lon="10.8698546"><ele>141.0</ele><time>2026-04-11T13:46:51.917Z</time></trkpt><trkpt lat="43.629831" lon="10.8697045"><ele>141.0</ele><time>2026-04-11T13:46:52.906Z</time></trkpt><trkpt lat="43.6297816" lon="10.869548"><ele>140.4</ele><time>2026-04-11T13:46:53.907Z</time></trkpt><trkpt lat="43.6297465" lon="10.8693845"><ele>139.8</ele><time>2026-04-11T13:46:54.903Z</time></trkpt><trkpt lat="43.6297258" lon="10.869238"><ele>139.20000000000002</ele><time>2026-04-11T13:46:55.9Z</time></trkpt><trkpt lat="43.6297142" lon="10.8691028"><ele>138.6</ele><time>2026-04-11T13:46:56.9Z</time></trkpt><trkpt lat="43.6296961" lon="10.8689788"><ele>138.0</ele><time>2026-04-11T13:46:57.907Z</time></trkpt><trkpt lat="43.6296959" lon="10.8688556"><ele>138.0</ele><time>2026-04-11T13:46:58.908Z</time></trkpt><trkpt lat="43.629692" lon="10.8687311"><ele>138.0</ele><time>2026-04-11T13:46:59.908Z</time></trkpt><trkpt lat="43.6296825" lon="10.868598"><ele>138.0</ele><time>2026-04-11T13:47:00.903Z</time></trkpt><trkpt lat="43.6296778" lon="10.8684723"><ele>138.0</ele><time>2026-04-11T13:47:01.901Z</time></trkpt><trkpt lat="43.6296458" lon="10.8683389"><ele>138.0</ele><time>2026-04-11T13:47:02.894Z</time></trkpt><trkpt lat="43.6296188" lon="10.8682113"><ele>138.75</ele><time>2026-04-11T13:47:03.9Z</time></trkpt><trkpt lat="43.6295693" lon="10.8681062"><ele>139.5</ele><time>2026-04-11T13:47:04.897Z</time></trkpt><trkpt lat="43.6294984" lon="10.8679781"><ele>140.25</ele><time>2026-04-11T13:47:05.905Z</time></trkpt><trkpt lat="43.6294286" lon="10.8678279"><ele>141.0</ele><time>2026-04-11T13:47:06.905Z</time></trkpt><trkpt lat="43.6293579" lon="10.8676794"><ele>138.0</ele><time>2026-04-11T13:47:07.902Z</time></trkpt><trkpt lat="43.6292911" lon="10.8675291"><ele>135.0</ele><time>2026-04-11T13:47:08.903Z</time></trkpt><trkpt lat="43.6292319" lon="10.8673787"><ele>132.0</ele><time>2026-04-11T13:47:09.903Z</time></trkpt><trkpt lat="43.6291684" lon="10.8672331"><ele>129.0</ele><time>2026-04-11T13:47:10.907Z</time></trkpt><trkpt lat="43.6291204" lon="10.8670951"><ele>129.0</ele><time>2026-04-11T13:47:11.913Z</time></trkpt><trkpt lat="43.6290787" lon="10.8669626"><ele>129.0</ele><time>2026-04-11T13:47:12.936Z</time></trkpt><trkpt lat="43.6290266" lon="10.8668377"><ele>129.0</ele><time>2026-04-11T13:47:13.921Z</time></trkpt><trkpt lat="43.6289806" lon="10.8667347"><ele>129.0</ele><time>2026-04-11T13:47:14.918Z</time></trkpt><trkpt lat="43.6289345" lon="10.8666505"><ele>129.0</ele><time>2026-04-11T13:47:15.921Z</time></trkpt><trkpt lat="43.6288804" lon="10.8665649"><ele>128.8</ele><time>2026-04-11T13:47:16.922Z</time></trkpt><trkpt lat="43.628824" lon="10.8664685"><ele>128.60000000000002</ele><time>2026-04-11T13:47:17.92Z</time></trkpt><trkpt lat="43.6287761" lon="10.8663613"><ele>128.4</ele><time>2026-04-11T13:47:18.922Z</time></trkpt><trkpt lat="43.6287353" lon="10.8662437"><ele>128.20000000000002</ele><time>2026-04-11T13:47:19.921Z</time></trkpt><trkpt lat="43.6287192" lon="10.8661273"><ele>128.0</ele><time>2026-04-11T13:47:20.919Z</time></trkpt><trkpt lat="43.6287097" lon="10.8660003"><ele>126.60000000000001</ele><time>2026-04-11T13:47:21.911Z</time></trkpt><trkpt lat="43.6287195" lon="10.8658748"><ele>125.20000000000002</ele><time>2026-04-11T13:47:22.911Z</time></trkpt><trkpt lat="43.6287348" lon="10.8657412"><ele>123.8</ele><time>2026-04-11T13:47:23.916Z</time></trkpt><trkpt lat="43.6287675" lon="10.8656114"><ele>122.4</ele><time>2026-04-11T13:47:24.909Z</time></trkpt><trkpt lat="43.6287971" lon="10.8654817"><ele>121.0</ele><time>2026-04-11T13:47:25.923Z</time></trkpt><trkpt lat="43.628843" lon="10.8653493"><ele>121.0</ele><time>2026-04-11T13:47:26.908Z</time></trkpt><trkpt lat="43.6288969" lon="10.8652226"><ele>121.0</ele><time>2026-04-11T13:47:27.919Z</time></trkpt><trkpt lat="43.6289699" lon="10.8651046"><ele>121.0</ele><time>2026-04-11T13:47:28.915Z</time></trkpt><trkpt lat="43.6290478" lon="10.8649817"><ele>121.0</ele><time>2026-04-11T13:47:29.916Z</time></trkpt><trkpt lat="43.6291117" lon="10.8648913"><ele>121.0</ele><time>2026-04-11T13:47:30.923Z</time></trkpt><trkpt lat="43.6291756" lon="10.8648034"><ele>119.19999999999999</ele><time>2026-04-11T13:47:31.915Z</time></trkpt><trkpt lat="43.629233" lon="10.8647093"><ele>117.39999999999999</ele><time>2026-04-11T13:47:32.923Z</time></trkpt><trkpt lat="43.6292776" lon="10.8645944"><ele>115.6</ele><time>2026-04-11T13:47:33.916Z</time></trkpt><trkpt lat="43.6293091" lon="10.8644577"><ele>113.8</ele><time>2026-04-11T13:47:34.922Z</time></trkpt><trkpt lat="43.6293224" lon="10.8643015"><ele>112.0</ele><time>2026-04-11T13:47:35.919Z</time></trkpt><trkpt lat="43.6293289" lon="10.8641602"><ele>111.83333333333334</ele><time>2026-04-11T13:47:36.919Z</time></trkpt><trkpt lat="43.6293513" lon="10.8640356"><ele>111.66666666666667</ele><time>2026-04-11T13:47:37.922Z</time></trkpt><trkpt lat="43.6293724" lon="10.8639105"><ele>111.5</ele><time>2026-04-11T13:47:38.917Z</time></trkpt><trkpt lat="43.6294025" lon="10.863794"><ele>111.33333333333334</ele><time>2026-04-11T13:47:39.913Z</time></trkpt><trkpt lat="43.6294495" lon="10.8636965"><ele>111.16666666666667</ele><time>2026-04-11T13:47:40.908Z</time></trkpt><trkpt lat="43.6294956" lon="10.8636278"><ele>111.0</ele><time>2026-04-11T13:47:41.906Z</time></trkpt><trkpt lat="43.6295708" lon="10.8635527"><ele>111.0</ele><time>2026-04-11T13:47:42.901Z</time></trkpt><trkpt lat="43.6296608" lon="10.8634918"><ele>111.0</ele><time>2026-04-11T13:47:43.922Z</time></trkpt><trkpt lat="43.6297559" lon="10.8634341"><ele>111.0</ele><time>2026-04-11T13:47:44.904Z</time></trkpt><trkpt lat="43.6298107" lon="10.8633694"><ele>111.0</ele><time>2026-04-11T13:47:45.911Z</time></trkpt><trkpt lat="43.6298517" lon="10.8632995"><ele>111.0</ele><time>2026-04-11T13:47:46.906Z</time></trkpt><trkpt lat="43.6298796" lon="10.8632034"><ele>111.0</ele><time>2026-04-11T13:47:47.904Z</time></trkpt><trkpt lat="43.6298851" lon="10.8630941"><ele>112.6</ele><time>2026-04-11T13:47:48.916Z</time></trkpt><trkpt lat="43.6298784" lon="10.8629309"><ele>114.19999999999999</ele><time>2026-04-11T13:47:49.906Z</time></trkpt><trkpt lat="43.6298805" lon="10.8627852"><ele>115.80000000000001</ele><time>2026-04-11T13:47:50.903Z</time></trkpt><trkpt lat="43.6298664" lon="10.8626607"><ele>117.4</ele><time>2026-04-11T13:47:51.912Z</time></trkpt><trkpt lat="43.6298504" lon="10.8625518"><ele>119.0</ele><time>2026-04-11T13:47:52.905Z</time></trkpt><trkpt lat="43.6298128" lon="10.8624709"><ele>119.66666666666666</ele><time>2026-04-11T13:47:53.912Z</time></trkpt><trkpt lat="43.6297793" lon="10.8623854"><ele>120.33333333333333</ele><time>2026-04-11T13:47:54.91Z</time></trkpt><trkpt lat="43.6297233" lon="10.8623087"><ele>121.0</ele><time>2026-04-11T13:47:55.903Z</time></trkpt><trkpt lat="43.6296571" lon="10.8622391"><ele>121.66666666666666</ele><time>2026-04-11T13:47:56.897Z</time></trkpt><trkpt lat="43.6295802" lon="10.8622025"><ele>122.33333333333333</ele><time>2026-04-11T13:47:57.9Z</time></trkpt><trkpt lat="43.6294715" lon="10.8620947"><ele>123.0</ele><time>2026-04-11T13:47:59.899Z</time></trkpt><trkpt lat="43.6294313" lon="10.862005"><ele>119.80000000000001</ele><time>2026-04-11T13:48:00.904Z</time></trkpt><trkpt lat="43.6293587" lon="10.8618621"><ele>116.60000000000001</ele><time>2026-04-11T13:48:02.894Z</time></trkpt><trkpt lat="43.6293009" lon="10.8618081"><ele>113.39999999999999</ele><time>2026-04-11T13:48:03.882Z</time></trkpt><trkpt lat="43.6292347" lon="10.8617554"><ele>110.19999999999999</ele><time>2026-04-11T13:48:04.876Z</time></trkpt><trkpt lat="43.6291519" lon="10.8617018"><ele>107.0</ele><time>2026-04-11T13:48:05.901Z</time></trkpt><trkpt lat="43.6290664" lon="10.8616396"><ele>107.0</ele><time>2026-04-11T13:48:06.896Z</time></trkpt><trkpt lat="43.6289756" lon="10.8615754"><ele>106.99999999999999</ele><time>2026-04-11T13:48:08.974Z</time></trkpt><trkpt lat="43.6288826" lon="10.8615144"><ele>106.99999999999999</ele><time>2026-04-11T13:48:09.969Z</time></trkpt><trkpt lat="43.6287886" lon="10.8614581"><ele>107.0</ele><time>2026-04-11T13:48:10.979Z</time></trkpt><trkpt lat="43.6286949" lon="10.8614066"><ele>107.0</ele><time>2026-04-11T13:48:11.989Z</time></trkpt><trkpt lat="43.6286022" lon="10.8613715"><ele>103.0</ele><time>2026-04-11T13:48:12.983Z</time></trkpt><trkpt lat="43.6285063" lon="10.8613494"><ele>98.99999999999999</ele><time>2026-04-11T13:48:13.976Z</time></trkpt><trkpt lat="43.6284069" lon="10.8613496"><ele>95.0</ele><time>2026-04-11T13:48:15.002Z</time></trkpt><trkpt lat="43.6283077" lon="10.8613747"><ele>91.0</ele><time>2026-04-11T13:48:15.981Z</time></trkpt><trkpt lat="43.6282108" lon="10.8614151"><ele>87.0</ele><time>2026-04-11T13:48:16.993Z</time></trkpt><trkpt lat="43.6281133" lon="10.861468"><ele>87.0</ele><time>2026-04-11T13:48:18.003Z</time></trkpt><trkpt lat="43.6280134" lon="10.8615273"><ele>87.0</ele><time>2026-04-11T13:48:18.998Z</time></trkpt><trkpt lat="43.6279034" lon="10.8615741"><ele>87.0</ele><time>2026-04-11T13:48:20.002Z</time></trkpt><trkpt lat="43.6277763" lon="10.8616185"><ele>87.0</ele><time>2026-04-11T13:48:20.977Z</time></trkpt><trkpt lat="43.6277367" lon="10.8617221"><ele>87.0</ele><time>2026-04-11T13:48:21.971Z</time></trkpt><trkpt lat="43.6276481" lon="10.8616842"><ele>87.0</ele><time>2026-04-11T13:48:22.896Z</time></trkpt><trkpt lat="43.6276508" lon="10.8615761"><ele>87.0</ele><time>2026-04-11T13:48:23.904Z</time></trkpt><trkpt lat="43.6276665" lon="10.8614607"><ele>87.0</ele><time>2026-04-11T13:48:24.9Z</time></trkpt><trkpt lat="43.6277044" lon="10.861346"><ele>87.0</ele><time>2026-04-11T13:48:25.895Z</time></trkpt><trkpt lat="43.6277416" lon="10.8612686"><ele>87.0</ele><time>2026-04-11T13:48:26.917Z</time></trkpt><trkpt lat="43.6277831" lon="10.8611734"><ele>87.0</ele><time>2026-04-11T13:48:28.906Z</time></trkpt><trkpt lat="43.627847" lon="10.8612058"><ele>85.42857142857143</ele><time>2026-04-11T13:49:02.895Z</time></trkpt><trkpt lat="43.6277811" lon="10.8612036"><ele>83.85714285714286</ele><time>2026-04-11T13:52:07.905Z</time></trkpt><trkpt lat="43.6277321" lon="10.8612797"><ele>82.28571428571428</ele><time>2026-04-11T13:52:12.907Z</time></trkpt><trkpt lat="43.6276518" lon="10.8613322"><ele>80.71428571428572</ele><time>2026-04-11T13:52:14.908Z</time></trkpt><trkpt lat="43.6275895" lon="10.8613627"><ele>79.14285714285715</ele><time>2026-04-11T13:52:15.904Z</time></trkpt><trkpt lat="43.6275254" lon="10.8613935"><ele>77.57142857142857</ele><time>2026-04-11T13:52:16.915Z</time></trkpt><trkpt lat="43.6274658" lon="10.8614245"><ele>76.0</ele><time>2026-04-11T13:52:17.916Z</time></trkpt><trkpt lat="43.627407" lon="10.8614663"><ele>76.0</ele><time>2026-04-11T13:52:18.914Z</time></trkpt><trkpt lat="43.6273497" lon="10.8615108"><ele>76.0</ele><time>2026-04-11T13:52:19.92Z</time></trkpt><trkpt lat="43.6272992" lon="10.8615778"><ele>76.0</ele><time>2026-04-11T13:52:20.91Z</time></trkpt><trkpt lat="43.6272426" lon="10.8616665"><ele>76.0</ele><time>2026-04-11T13:52:21.904Z</time></trkpt><trkpt lat="43.6271863" lon="10.8617447"><ele>76.0</ele><time>2026-04-11T13:52:22.924Z</time></trkpt><trkpt lat="43.6271451" lon="10.8618236"><ele>76.0</ele><time>2026-04-11T13:52:23.903Z</time></trkpt><trkpt lat="43.6271021" lon="10.8619212"><ele>75.0</ele><time>2026-04-11T13:52:24.9Z</time></trkpt><trkpt lat="43.627072" lon="10.8620448"><ele>74.0</ele><time>2026-04-11T13:52:25.91Z</time></trkpt><trkpt lat="43.6270509" lon="10.862185"><ele>73.0</ele><time>2026-04-11T13:52:26.896Z</time></trkpt><trkpt lat="43.6270344" lon="10.8623175"><ele>72.0</ele><time>2026-04-11T13:52:27.892Z</time></trkpt><trkpt lat="43.6270437" lon="10.8624427"><ele>71.0</ele><time>2026-04-11T13:52:28.887Z</time></trkpt><trkpt lat="43.6270661" lon="10.8625689"><ele>70.5</ele><time>2026-04-11T13:52:29.886Z</time></trkpt><trkpt lat="43.6271153" lon="10.8626709"><ele>70.0</ele><time>2026-04-11T13:52:30.889Z</time></trkpt><trkpt lat="43.6271891" lon="10.8627774"><ele>69.5</ele><time>2026-04-11T13:52:31.889Z</time></trkpt><trkpt lat="43.627238" lon="10.8628712"><ele>69.0</ele><time>2026-04-11T13:52:32.886Z</time></trkpt><trkpt lat="43.6272811" lon="10.8629511"><ele>68.5</ele><time>2026-04-11T13:52:33.893Z</time></trkpt><trkpt lat="43.6272985" lon="10.8630445"><ele>68.0</ele><time>2026-04-11T13:52:34.884Z</time></trkpt><trkpt lat="43.6272772" lon="10.8631559"><ele>68.0</ele><time>2026-04-11T13:52:35.896Z</time></trkpt><trkpt lat="43.6272261" lon="10.8632845"><ele>68.0</ele><time>2026-04-11T13:52:36.894Z</time></trkpt><trkpt lat="43.6271619" lon="10.8634298"><ele>68.0</ele><time>2026-04-11T13:52:37.898Z</time></trkpt><trkpt lat="43.6270955" lon="10.8636068"><ele>68.0</ele><time>2026-04-11T13:52:38.895Z</time></trkpt><trkpt lat="43.6270159" lon="10.8638089"><ele>67.66666666666667</ele><time>2026-04-11T13:52:39.904Z</time></trkpt><trkpt lat="43.6269232" lon="10.8640166"><ele>67.33333333333333</ele><time>2026-04-11T13:52:40.903Z</time></trkpt><trkpt lat="43.6268358" lon="10.864225"><ele>67.0</ele><time>2026-04-11T13:52:41.91Z</time></trkpt><trkpt lat="43.6267581" lon="10.8644325"><ele>67.0</ele><time>2026-04-11T13:52:42.909Z</time></trkpt><trkpt lat="43.626692" lon="10.8646534"><ele>67.0</ele><time>2026-04-11T13:52:43.931Z</time></trkpt><trkpt lat="43.6266313" lon="10.8648361"><ele>67.0</ele><time>2026-04-11T13:52:45.98Z</time></trkpt><trkpt lat="43.6265813" lon="10.8649895"><ele>67.0</ele><time>2026-04-11T13:52:46.989Z</time></trkpt><trkpt lat="43.626543" lon="10.8651038"><ele>68.0</ele><time>2026-04-11T13:52:47.99Z</time></trkpt><trkpt lat="43.6265059" lon="10.8651956"><ele>69.0</ele><time>2026-04-11T13:52:48.984Z</time></trkpt><trkpt lat="43.6264605" lon="10.8652563"><ele>70.0</ele><time>2026-04-11T13:52:49.996Z</time></trkpt><trkpt lat="43.626341" lon="10.8652696"><ele>71.0</ele><time>2026-04-11T13:52:51.959Z</time></trkpt><trkpt lat="43.6262725" lon="10.8652298"><ele>72.0</ele><time>2026-04-11T13:52:52.963Z</time></trkpt><trkpt lat="43.6261806" lon="10.8651516"><ele>73.0</ele><time>2026-04-11T13:52:53.984Z</time></trkpt><trkpt lat="43.6260626" lon="10.8650594"><ele>68.33333333333333</ele><time>2026-04-11T13:52:54.976Z</time></trkpt><trkpt lat="43.6259261" lon="10.8649639"><ele>63.66666666666667</ele><time>2026-04-11T13:52:55.982Z</time></trkpt><trkpt lat="43.6257946" lon="10.8648574"><ele>59.0</ele><time>2026-04-11T13:52:57.005Z</time></trkpt><trkpt lat="43.6256278" lon="10.8647257"><ele>59.0</ele><time>2026-04-11T13:52:57.994Z</time></trkpt><trkpt lat="43.6254514" lon="10.8645829"><ele>59.0</ele><time>2026-04-11T13:52:58.992Z</time></trkpt><trkpt lat="43.6252687" lon="10.8644325"><ele>59.0</ele><time>2026-04-11T13:53:00.003Z</time></trkpt><trkpt lat="43.6250819" lon="10.8642808"><ele>57.66666666666667</ele><time>2026-04-11T13:53:01Z</time></trkpt><trkpt lat="43.6248996" lon="10.8641344"><ele>56.33333333333333</ele><time>2026-04-11T13:53:01.997Z</time></trkpt><trkpt lat="43.6247254" lon="10.8639965"><ele>55.0</ele><time>2026-04-11T13:53:03.002Z</time></trkpt><trkpt lat="43.6245592" lon="10.8638658"><ele>53.666666666666664</ele><time>2026-04-11T13:53:04.005Z</time></trkpt><trkpt lat="43.6243975" lon="10.8637419"><ele>52.33333333333333</ele><time>2026-04-11T13:53:04.997Z</time></trkpt><trkpt lat="43.6242397" lon="10.8636235"><ele>51.0</ele><time>2026-04-11T13:53:05.993Z</time></trkpt><trkpt lat="43.6240946" lon="10.8635117"><ele>51.25</ele><time>2026-04-11T13:53:06.993Z</time></trkpt><trkpt lat="43.6239667" lon="10.8634141"><ele>51.5</ele><time>2026-04-11T13:53:07.997Z</time></trkpt><trkpt lat="43.6238535" lon="10.8633295"><ele>51.75</ele><time>2026-04-11T13:53:08.995Z</time></trkpt><trkpt lat="43.6237557" lon="10.8632532"><ele>52.0</ele><time>2026-04-11T13:53:09.997Z</time></trkpt><trkpt lat="43.6236748" lon="10.8631832"><ele>51.99999999999999</ele><time>2026-04-11T13:53:11.005Z</time></trkpt><trkpt lat="43.6236153" lon="10.8631415"><ele>52.0</ele><time>2026-04-11T13:53:12.002Z</time></trkpt><trkpt lat="43.6235863" lon="10.8632288"><ele>52.0</ele><time>2026-04-11T13:53:14.92Z</time></trkpt><trkpt lat="43.6235318" lon="10.8633239"><ele>52.0</ele><time>2026-04-11T13:53:16.929Z</time></trkpt><trkpt lat="43.6234923" lon="10.8634413"><ele>51.99999999999999</ele><time>2026-04-11T13:53:19.93Z</time></trkpt><trkpt lat="43.6234482" lon="10.8635546"><ele>52.0</ele><time>2026-04-11T13:53:21.901Z</time></trkpt><trkpt lat="43.6233951" lon="10.8636226"><ele>51.8</ele><time>2026-04-11T13:53:23.893Z</time></trkpt><trkpt lat="43.6233373" lon="10.8637058"><ele>51.6</ele><time>2026-04-11T13:53:24.898Z</time></trkpt><trkpt lat="43.6232785" lon="10.8638128"><ele>51.4</ele><time>2026-04-11T13:53:25.879Z</time></trkpt><trkpt lat="43.623212" lon="10.8639576"><ele>51.199999999999996</ele><time>2026-04-11T13:53:26.889Z</time></trkpt><trkpt lat="43.623151" lon="10.8641197"><ele>51.0</ele><time>2026-04-11T13:53:27.894Z</time></trkpt><trkpt lat="43.6230778" lon="10.8642841"><ele>50.75</ele><time>2026-04-11T13:53:28.907Z</time></trkpt><trkpt lat="43.6230081" lon="10.8644436"><ele>50.5</ele><time>2026-04-11T13:53:29.909Z</time></trkpt><trkpt lat="43.6229366" lon="10.8645879"><ele>50.25</ele><time>2026-04-11T13:53:30.906Z</time></trkpt><trkpt lat="43.622871" lon="10.8647234"><ele>50.0</ele><time>2026-04-11T13:53:31.902Z</time></trkpt><trkpt lat="43.6228211" lon="10.864837"><ele>50.6</ele><time>2026-04-11T13:53:32.915Z</time></trkpt><trkpt lat="43.6227691" lon="10.8649441"><ele>51.2</ele><time>2026-04-11T13:53:33.913Z</time></trkpt><trkpt lat="43.6227155" lon="10.8650511"><ele>51.8</ele><time>2026-04-11T13:53:34.919Z</time></trkpt><trkpt lat="43.6226657" lon="10.8651555"><ele>52.4</ele><time>2026-04-11T13:53:35.917Z</time></trkpt><trkpt lat="43.6226175" lon="10.8652599"><ele>53.0</ele><time>2026-04-11T13:53:36.914Z</time></trkpt><trkpt lat="43.6225738" lon="10.8653571"><ele>53.0</ele><time>2026-04-11T13:53:37.914Z</time></trkpt><trkpt lat="43.6225161" lon="10.8654607"><ele>53.0</ele><time>2026-04-11T13:53:38.918Z</time></trkpt><trkpt lat="43.622457" lon="10.865566"><ele>53.0</ele><time>2026-04-11T13:53:39.915Z</time></trkpt><trkpt lat="43.6224" lon="10.8656661"><ele>53.0</ele><time>2026-04-11T13:53:40.907Z</time></trkpt><trkpt lat="43.6223373" lon="10.8657824"><ele>53.0</ele><time>2026-04-11T13:53:41.909Z</time></trkpt><trkpt lat="43.622254" lon="10.8658972"><ele>52.5</ele><time>2026-04-11T13:53:42.908Z</time></trkpt><trkpt lat="43.6221697" lon="10.8660121"><ele>52.0</ele><time>2026-04-11T13:53:43.904Z</time></trkpt><trkpt lat="43.6220868" lon="10.8661235"><ele>51.5</ele><time>2026-04-11T13:53:44.901Z</time></trkpt><trkpt lat="43.6219991" lon="10.8662339"><ele>51.0</ele><time>2026-04-11T13:53:45.903Z</time></trkpt><trkpt lat="43.6219224" lon="10.8663685"><ele>51.8</ele><time>2026-04-11T13:53:46.902Z</time></trkpt><trkpt lat="43.6218527" lon="10.8665189"><ele>52.599999999999994</ele><time>2026-04-11T13:53:47.91Z</time></trkpt><trkpt lat="43.6217891" lon="10.86665"><ele>53.4</ele><time>2026-04-11T13:53:48.92Z</time></trkpt><trkpt lat="43.6217357" lon="10.8667573"><ele>54.2</ele><time>2026-04-11T13:53:49.913Z</time></trkpt><trkpt lat="43.6216927" lon="10.8668634"><ele>55.0</ele><time>2026-04-11T13:53:50.917Z</time></trkpt><trkpt lat="43.6216476" lon="10.8669519"><ele>54.99999999999999</ele><time>2026-04-11T13:53:51.909Z</time></trkpt><trkpt lat="43.621617" lon="10.8670353"><ele>55.0</ele><time>2026-04-11T13:53:52.916Z</time></trkpt><trkpt lat="43.6215837" lon="10.8671518"><ele>55.0</ele><time>2026-04-11T13:53:54.922Z</time></trkpt><trkpt lat="43.6215472" lon="10.8672629"><ele>55.0</ele><time>2026-04-11T13:54:08.91Z</time></trkpt><trkpt lat="43.6214977" lon="10.8673672"><ele>54.99999999999999</ele><time>2026-04-11T13:54:10.922Z</time></trkpt><trkpt lat="43.6214509" lon="10.8674474"><ele>55.0</ele><time>2026-04-11T13:54:11.912Z</time></trkpt><trkpt lat="43.6214071" lon="10.8675432"><ele>55.0</ele><time>2026-04-11T13:54:12.916Z</time></trkpt><trkpt lat="43.6213582" lon="10.8676221"><ele>55.0</ele><time>2026-04-11T13:54:13.91Z</time></trkpt><trkpt lat="43.6213051" lon="10.8677069"><ele>55.0</ele><time>2026-04-11T13:54:14.91Z</time></trkpt><trkpt lat="43.621246" lon="10.8678157"><ele>55.0</ele><time>2026-04-11T13:54:15.911Z</time></trkpt><trkpt lat="43.6211704" lon="10.8679335"><ele>55.0</ele><time>2026-04-11T13:54:16.903Z</time></trkpt><trkpt lat="43.6210991" lon="10.8680614"><ele>55.0</ele><time>2026-04-11T13:54:17.905Z</time></trkpt><trkpt lat="43.6210146" lon="10.8681886"><ele>55.0</ele><time>2026-04-11T13:54:18.903Z</time></trkpt><trkpt lat="43.620935" lon="10.8683315"><ele>55.0</ele><time>2026-04-11T13:54:19.893Z</time></trkpt><trkpt lat="43.6208647" lon="10.8684628"><ele>55.0</ele><time>2026-04-11T13:54:20.889Z</time></trkpt><trkpt lat="43.6207945" lon="10.8685899"><ele>55.0</ele><time>2026-04-11T13:54:21.886Z</time></trkpt><trkpt lat="43.6207171" lon="10.8687289"><ele>55.0</ele><time>2026-04-11T13:54:22.89Z</time></trkpt><trkpt lat="43.6206551" lon="10.8688556"><ele>55.0</ele><time>2026-04-11T13:54:23.893Z</time></trkpt><trkpt lat="43.6205792" lon="10.8689922"><ele>55.0</ele><time>2026-04-11T13:54:24.896Z</time></trkpt><trkpt lat="43.6204953" lon="10.8691282"><ele>55.0</ele><time>2026-04-11T13:54:25.894Z</time></trkpt><trkpt lat="43.6204069" lon="10.8692655"><ele>55.0</ele><time>2026-04-11T13:54:26.908Z</time></trkpt><trkpt lat="43.6203175" lon="10.8694142"><ele>55.0</ele><time>2026-04-11T13:54:27.887Z</time></trkpt><trkpt lat="43.6202027" lon="10.8695549"><ele>55.0</ele><time>2026-04-11T13:54:28.879Z</time></trkpt><trkpt lat="43.6201169" lon="10.8697184"><ele>55.33333333333333</ele><time>2026-04-11T13:54:29.885Z</time></trkpt><trkpt lat="43.6199988" lon="10.8698797"><ele>55.66666666666667</ele><time>2026-04-11T13:54:30.885Z</time></trkpt><trkpt lat="43.6198726" lon="10.8700114"><ele>56.0</ele><time>2026-04-11T13:54:31.881Z</time></trkpt><trkpt lat="43.6197495" lon="10.8701813"><ele>56.0</ele><time>2026-04-11T13:54:32.892Z</time></trkpt><trkpt lat="43.6196273" lon="10.8703522"><ele>56.0</ele><time>2026-04-11T13:54:33.894Z</time></trkpt><trkpt lat="43.6194966" lon="10.8705075"><ele>56.0</ele><time>2026-04-11T13:54:34.892Z</time></trkpt><trkpt lat="43.6193772" lon="10.8706855"><ele>56.0</ele><time>2026-04-11T13:54:35.892Z</time></trkpt><trkpt lat="43.6192437" lon="10.8708362"><ele>56.0</ele><time>2026-04-11T13:54:36.897Z</time></trkpt><trkpt lat="43.6191205" lon="10.8710051"><ele>56.0</ele><time>2026-04-11T13:54:37.906Z</time></trkpt><trkpt lat="43.6190069" lon="10.8711597"><ele>56.25</ele><time>2026-04-11T13:54:38.913Z</time></trkpt><trkpt lat="43.6189038" lon="10.8712939"><ele>56.5</ele><time>2026-04-11T13:54:39.911Z</time></trkpt><trkpt lat="43.6187899" lon="10.8714417"><ele>56.75</ele><time>2026-04-11T13:54:40.905Z</time></trkpt><trkpt lat="43.6186798" lon="10.8715807"><ele>57.0</ele><time>2026-04-11T13:54:41.905Z</time></trkpt><trkpt lat="43.618557" lon="10.8717293"><ele>56.66666666666667</ele><time>2026-04-11T13:54:42.905Z</time></trkpt><trkpt lat="43.6184442" lon="10.871873"><ele>56.333333333333336</ele><time>2026-04-11T13:54:43.909Z</time></trkpt><trkpt lat="43.6183208" lon="10.8720209"><ele>56.0</ele><time>2026-04-11T13:54:44.917Z</time></trkpt><trkpt lat="43.6182005" lon="10.8721779"><ele>56.0</ele><time>2026-04-11T13:54:45.914Z</time></trkpt><trkpt lat="43.6180713" lon="10.8723428"><ele>56.0</ele><time>2026-04-11T13:54:46.916Z</time></trkpt><trkpt lat="43.6179511" lon="10.8724962"><ele>56.0</ele><time>2026-04-11T13:54:47.923Z</time></trkpt><trkpt lat="43.6178478" lon="10.8726441"><ele>56.5</ele><time>2026-04-11T13:54:48.924Z</time></trkpt><trkpt lat="43.6177379" lon="10.8727791"><ele>57.0</ele><time>2026-04-11T13:54:49.925Z</time></trkpt><trkpt lat="43.617646" lon="10.8729137"><ele>57.5</ele><time>2026-04-11T13:54:50.921Z</time></trkpt><trkpt lat="43.6175601" lon="10.8730311"><ele>58.0</ele><time>2026-04-11T13:54:51.917Z</time></trkpt><trkpt lat="43.6174629" lon="10.873148"><ele>58.0</ele><time>2026-04-11T13:54:52.916Z</time></trkpt><trkpt lat="43.61739" lon="10.8732573"><ele>58.0</ele><time>2026-04-11T13:54:53.916Z</time></trkpt><trkpt lat="43.6173136" lon="10.8733641"><ele>58.0</ele><time>2026-04-11T13:54:54.918Z</time></trkpt><trkpt lat="43.6172286" lon="10.8734561"><ele>58.0</ele><time>2026-04-11T13:54:55.94Z</time></trkpt><trkpt lat="43.6171577" lon="10.8735496"><ele>58.0</ele><time>2026-04-11T13:54:58.025Z</time></trkpt><trkpt lat="43.6170866" lon="10.8736416"><ele>58.0</ele><time>2026-04-11T13:54:59.002Z</time></trkpt><trkpt lat="43.6170192" lon="10.8737325"><ele>58.0</ele><time>2026-04-11T13:54:59.997Z</time></trkpt><trkpt lat="43.6169537" lon="10.8738197"><ele>58.0</ele><time>2026-04-11T13:55:00.998Z</time></trkpt><trkpt lat="43.616886" lon="10.8739085"><ele>58.0</ele><time>2026-04-11T13:55:01.989Z</time></trkpt><trkpt lat="43.6168207" lon="10.8739962"><ele>58.0</ele><time>2026-04-11T13:55:02.998Z</time></trkpt><trkpt lat="43.6167527" lon="10.8740827"><ele>58.2</ele><time>2026-04-11T13:55:03.998Z</time></trkpt><trkpt lat="43.6166838" lon="10.87417"><ele>58.4</ele><time>2026-04-11T13:55:04.994Z</time></trkpt><trkpt lat="43.6166115" lon="10.8742715"><ele>58.60000000000001</ele><time>2026-04-11T13:55:05.989Z</time></trkpt><trkpt lat="43.6165311" lon="10.8743874"><ele>58.800000000000004</ele><time>2026-04-11T13:55:07Z</time></trkpt><trkpt lat="43.616451" lon="10.8745029"><ele>59.0</ele><time>2026-04-11T13:55:07.99Z</time></trkpt><trkpt lat="43.6163705" lon="10.8745971"><ele>59.66666666666667</ele><time>2026-04-11T13:55:08.991Z</time></trkpt><trkpt lat="43.6162696" lon="10.8747333"><ele>60.33333333333333</ele><time>2026-04-11T13:55:09.993Z</time></trkpt><trkpt lat="43.6161573" lon="10.8748793"><ele>61.0</ele><time>2026-04-11T13:55:10.994Z</time></trkpt><trkpt lat="43.6160351" lon="10.8750289"><ele>61.0</ele><time>2026-04-11T13:55:12.002Z</time></trkpt><trkpt lat="43.6159121" lon="10.8751878"><ele>61.0</ele><time>2026-04-11T13:55:13.001Z</time></trkpt><trkpt lat="43.6157963" lon="10.8753446"><ele>61.0</ele><time>2026-04-11T13:55:14.001Z</time></trkpt><trkpt lat="43.6156867" lon="10.8754903"><ele>61.0</ele><time>2026-04-11T13:55:14.995Z</time></trkpt><trkpt lat="43.6155845" lon="10.8756271"><ele>61.0</ele><time>2026-04-11T13:55:15.999Z</time></trkpt><trkpt lat="43.6154918" lon="10.8757588"><ele>61.0</ele><time>2026-04-11T13:55:16.994Z</time></trkpt><trkpt lat="43.6154012" lon="10.8758801"><ele>61.0</ele><time>2026-04-11T13:55:17.991Z</time></trkpt><trkpt lat="43.6153142" lon="10.8759742"><ele>61.199999999999996</ele><time>2026-04-11T13:55:18.982Z</time></trkpt><trkpt lat="43.6152492" lon="10.8760229"><ele>61.39999999999999</ele><time>2026-04-11T13:55:19.982Z</time></trkpt><trkpt lat="43.6151594" lon="10.8759693"><ele>61.6</ele><time>2026-04-11T13:55:21.981Z</time></trkpt><trkpt lat="43.6150703" lon="10.8758227"><ele>61.8</ele><time>2026-04-11T13:55:23.978Z</time></trkpt><trkpt lat="43.6150083" lon="10.8757131"><ele>62.0</ele><time>2026-04-11T13:55:25Z</time></trkpt><trkpt lat="43.6149345" lon="10.8755813"><ele>62.0</ele><time>2026-04-11T13:55:25.996Z</time></trkpt><trkpt lat="43.61485" lon="10.8754338"><ele>62.0</ele><time>2026-04-11T13:55:26.996Z</time></trkpt><trkpt lat="43.6147554" lon="10.8752666"><ele>62.0</ele><time>2026-04-11T13:55:28.007Z</time></trkpt><trkpt lat="43.6146549" lon="10.8750867"><ele>62.0</ele><time>2026-04-11T13:55:29.021Z</time></trkpt><trkpt lat="43.6145424" lon="10.874887"><ele>62.0</ele><time>2026-04-11T13:55:30.015Z</time></trkpt><trkpt lat="43.6144412" lon="10.8746937"><ele>62.0</ele><time>2026-04-11T13:55:31.007Z</time></trkpt><trkpt lat="43.614339" lon="10.8744944"><ele>62.0</ele><time>2026-04-11T13:55:32.004Z</time></trkpt><trkpt lat="43.6142308" lon="10.8742987"><ele>62.0</ele><time>2026-04-11T13:55:33.006Z</time></trkpt><trkpt lat="43.6141453" lon="10.8741249"><ele>62.0</ele><time>2026-04-11T13:55:34.01Z</time></trkpt><trkpt lat="43.6140618" lon="10.8739638"><ele>60.0</ele><time>2026-04-11T13:55:35.013Z</time></trkpt><trkpt lat="43.6139787" lon="10.8738003"><ele>58.0</ele><time>2026-04-11T13:55:36.006Z</time></trkpt><trkpt lat="43.613895" lon="10.8736254"><ele>56.0</ele><time>2026-04-11T13:55:37.003Z</time></trkpt><trkpt lat="43.613808" lon="10.8734419"><ele>56.0</ele><time>2026-04-11T13:55:38.008Z</time></trkpt><trkpt lat="43.6137366" lon="10.8732603"><ele>56.0</ele><time>2026-04-11T13:55:39.01Z</time></trkpt><trkpt lat="43.6136653" lon="10.8730671"><ele>56.0</ele><time>2026-04-11T13:55:39.998Z</time></trkpt><trkpt lat="43.6135967" lon="10.8728823"><ele>57.5</ele><time>2026-04-11T13:55:41.003Z</time></trkpt><trkpt lat="43.6135418" lon="10.8727082"><ele>59.0</ele><time>2026-04-11T13:55:41.997Z</time></trkpt><trkpt lat="43.6134964" lon="10.8725492"><ele>60.5</ele><time>2026-04-11T13:55:42.999Z</time></trkpt><trkpt lat="43.613462" lon="10.8724063"><ele>62.0</ele><time>2026-04-11T13:55:44.002Z</time></trkpt><trkpt lat="43.613449" lon="10.8722862"><ele>62.5</ele><time>2026-04-11T13:55:45.011Z</time></trkpt><trkpt lat="43.6134444" lon="10.8721638"><ele>63.0</ele><time>2026-04-11T13:55:45.984Z</time></trkpt><trkpt lat="43.6134354" lon="10.8720178"><ele>63.5</ele><time>2026-04-11T13:55:46.983Z</time></trkpt><trkpt lat="43.6134189" lon="10.8718473"><ele>64.0</ele><time>2026-04-11T13:55:47.985Z</time></trkpt><trkpt lat="43.6134046" lon="10.8716245"><ele>64.0</ele><time>2026-04-11T13:55:48.991Z</time></trkpt><trkpt lat="43.6133856" lon="10.8714629"><ele>64.0</ele><time>2026-04-11T13:55:49.999Z</time></trkpt><trkpt lat="43.6133705" lon="10.8713259"><ele>64.0</ele><time>2026-04-11T13:55:51.008Z</time></trkpt><trkpt lat="43.6133599" lon="10.8712043"><ele>64.0</ele><time>2026-04-11T13:55:52Z</time></trkpt><trkpt lat="43.6133491" lon="10.8710758"><ele>64.0</ele><time>2026-04-11T13:55:52.998Z</time></trkpt><trkpt lat="43.6133994" lon="10.8706415"><ele>64.4</ele><time>2026-04-11T13:55:54.9Z</time></trkpt><trkpt lat="43.6134636" lon="10.8705856"><ele>64.80000000000001</ele><time>2026-04-11T13:55:55.906Z</time></trkpt><trkpt lat="43.6135511" lon="10.8705476"><ele>65.19999999999999</ele><time>2026-04-11T13:55:56.902Z</time></trkpt><trkpt lat="43.6136617" lon="10.8705024"><ele>65.6</ele><time>2026-04-11T13:55:57.908Z</time></trkpt><trkpt lat="43.6137819" lon="10.8704516"><ele>66.0</ele><time>2026-04-11T13:55:58.911Z</time></trkpt><trkpt lat="43.6138834" lon="10.8704008"><ele>65.33333333333333</ele><time>2026-04-11T13:55:59.95Z</time></trkpt><trkpt lat="43.6139641" lon="10.8703471"><ele>64.66666666666667</ele><time>2026-04-11T13:56:00.918Z</time></trkpt><trkpt lat="43.6140094" lon="10.8702829"><ele>64.0</ele><time>2026-04-11T13:56:01.91Z</time></trkpt><trkpt lat="43.614036" lon="10.8701865"><ele>63.333333333333336</ele><time>2026-04-11T13:56:02.909Z</time></trkpt><trkpt lat="43.6140346" lon="10.8700818"><ele>62.66666666666667</ele><time>2026-04-11T13:56:03.912Z</time></trkpt><trkpt lat="43.6140097" lon="10.8699681"><ele>62.0</ele><time>2026-04-11T13:56:04.916Z</time></trkpt><trkpt lat="43.6139753" lon="10.8698166"><ele>63.8</ele><time>2026-04-11T13:56:05.921Z</time></trkpt><trkpt lat="43.6139317" lon="10.8696585"><ele>65.6</ele><time>2026-04-11T13:56:06.916Z</time></trkpt><trkpt lat="43.6138873" lon="10.8695147"><ele>67.39999999999999</ele><time>2026-04-11T13:56:07.929Z</time></trkpt><trkpt lat="43.613838" lon="10.8694019"><ele>69.2</ele><time>2026-04-11T13:56:08.918Z</time></trkpt><trkpt lat="43.613769" lon="10.8693055"><ele>71.0</ele><time>2026-04-11T13:56:09.912Z</time></trkpt><trkpt lat="43.6136923" lon="10.8692226"><ele>75.0</ele><time>2026-04-11T13:56:10.912Z</time></trkpt><trkpt lat="43.613577" lon="10.8691554"><ele>79.0</ele><time>2026-04-11T13:56:11.905Z</time></trkpt><trkpt lat="43.6134645" lon="10.8691034"><ele>83.0</ele><time>2026-04-11T13:56:12.907Z</time></trkpt><trkpt lat="43.6133829" lon="10.8690334"><ele>87.0</ele><time>2026-04-11T13:56:13.911Z</time></trkpt><trkpt lat="43.6133303" lon="10.8689311"><ele>91.0</ele><time>2026-04-11T13:56:14.906Z</time></trkpt><trkpt lat="43.6132992" lon="10.8688091"><ele>91.0</ele><time>2026-04-11T13:56:15.913Z</time></trkpt><trkpt lat="43.6132591" lon="10.8686992"><ele>91.0</ele><time>2026-04-11T13:56:16.915Z</time></trkpt><trkpt lat="43.6131988" lon="10.8685946"><ele>91.0</ele><time>2026-04-11T13:56:17.907Z</time></trkpt><trkpt lat="43.6131162" lon="10.8684998"><ele>91.0</ele><time>2026-04-11T13:56:18.923Z</time></trkpt><trkpt lat="43.6130141" lon="10.8684277"><ele>91.0</ele><time>2026-04-11T13:56:19.934Z</time></trkpt><trkpt lat="43.6129206" lon="10.8683776"><ele>91.0</ele><time>2026-04-11T13:56:20.918Z</time></trkpt><trkpt lat="43.6128374" lon="10.8683144"><ele>91.0</ele><time>2026-04-11T13:56:21.915Z</time></trkpt><trkpt lat="43.6127657" lon="10.8682307"><ele>91.0</ele><time>2026-04-11T13:56:22.91Z</time></trkpt><trkpt lat="43.6126998" lon="10.8680907"><ele>91.0</ele><time>2026-04-11T13:56:23.909Z</time></trkpt><trkpt lat="43.6126275" lon="10.8679348"><ele>91.0</ele><time>2026-04-11T13:56:24.915Z</time></trkpt><trkpt lat="43.6125549" lon="10.8677694"><ele>91.0</ele><time>2026-04-11T13:56:25.914Z</time></trkpt><trkpt lat="43.6124902" lon="10.8676281"><ele>91.0</ele><time>2026-04-11T13:56:26.922Z</time></trkpt><trkpt lat="43.6124236" lon="10.8674799"><ele>91.0</ele><time>2026-04-11T13:56:27.913Z</time></trkpt><trkpt lat="43.6123821" lon="10.8673488"><ele>91.0</ele><time>2026-04-11T13:56:28.911Z</time></trkpt><trkpt lat="43.6123534" lon="10.867214"><ele>93.19999999999999</ele><time>2026-04-11T13:56:29.928Z</time></trkpt><trkpt lat="43.6123307" lon="10.8670819"><ele>95.39999999999999</ele><time>2026-04-11T13:56:30.915Z</time></trkpt><trkpt lat="43.6122902" lon="10.8669483"><ele>97.6</ele><time>2026-04-11T13:56:31.897Z</time></trkpt><trkpt lat="43.612249" lon="10.8668276"><ele>99.8</ele><time>2026-04-11T13:56:32.897Z</time></trkpt><trkpt lat="43.6121891" lon="10.866719"><ele>102.0</ele><time>2026-04-11T13:56:33.91Z</time></trkpt><trkpt lat="43.6121177" lon="10.866639"><ele>103.6</ele><time>2026-04-11T13:56:34.884Z</time></trkpt><trkpt lat="43.6120278" lon="10.8665798"><ele>105.19999999999999</ele><time>2026-04-11T13:56:35.888Z</time></trkpt><trkpt lat="43.6119284" lon="10.8665189"><ele>106.8</ele><time>2026-04-11T13:56:36.878Z</time></trkpt><trkpt lat="43.6118313" lon="10.8664665"><ele>108.4</ele><time>2026-04-11T13:56:37.87Z</time></trkpt><trkpt lat="43.6117452" lon="10.8663986"><ele>110.0</ele><time>2026-04-11T13:56:38.877Z</time></trkpt><trkpt lat="43.6116714" lon="10.8662836"><ele>110.0</ele><time>2026-04-11T13:56:39.876Z</time></trkpt><trkpt lat="43.6115927" lon="10.8661627"><ele>110.0</ele><time>2026-04-11T13:56:40.88Z</time></trkpt><trkpt lat="43.6115291" lon="10.8660022"><ele>110.0</ele><time>2026-04-11T13:56:41.888Z</time></trkpt><trkpt lat="43.6114757" lon="10.8658389"><ele>110.0</ele><time>2026-04-11T13:56:42.888Z</time></trkpt><trkpt lat="43.6114346" lon="10.8656766"><ele>113.0</ele><time>2026-04-11T13:56:43.884Z</time></trkpt><trkpt lat="43.6114019" lon="10.8655222"><ele>116.0</ele><time>2026-04-11T13:56:44.893Z</time></trkpt><trkpt lat="43.6113831" lon="10.8653557"><ele>119.0</ele><time>2026-04-11T13:56:45.883Z</time></trkpt><trkpt lat="43.6113656" lon="10.8652011"><ele>122.0</ele><time>2026-04-11T13:56:46.876Z</time></trkpt><trkpt lat="43.6113421" lon="10.8650752"><ele>125.0</ele><time>2026-04-11T13:56:47.886Z</time></trkpt><trkpt lat="43.6113028" lon="10.8649647"><ele>124.0</ele><time>2026-04-11T13:56:48.875Z</time></trkpt><trkpt lat="43.6112647" lon="10.8648736"><ele>123.0</ele><time>2026-04-11T13:56:49.881Z</time></trkpt><trkpt lat="43.6111677" lon="10.8647705"><ele>122.0</ele><time>2026-04-11T13:56:50.883Z</time></trkpt><trkpt lat="43.6110534" lon="10.8646453"><ele>121.0</ele><time>2026-04-11T13:56:51.88Z</time></trkpt><trkpt lat="43.6109325" lon="10.8645328"><ele>121.0</ele><time>2026-04-11T13:56:52.882Z</time></trkpt><trkpt lat="43.6108133" lon="10.8644182"><ele>121.0</ele><time>2026-04-11T13:56:53.877Z</time></trkpt><trkpt lat="43.610697" lon="10.8643377"><ele>121.0</ele><time>2026-04-11T13:56:54.88Z</time></trkpt><trkpt lat="43.6106295" lon="10.8642196"><ele>121.0</ele><time>2026-04-11T13:56:55.87Z</time></trkpt><trkpt lat="43.6105618" lon="10.8640931"><ele>123.4</ele><time>2026-04-11T13:56:56.873Z</time></trkpt><trkpt lat="43.6105571" lon="10.8639888"><ele>125.8</ele><time>2026-04-11T13:56:57.867Z</time></trkpt><trkpt lat="43.6105289" lon="10.8638253"><ele>128.20000000000002</ele><time>2026-04-11T13:56:58.884Z</time></trkpt><trkpt lat="43.6104902" lon="10.8636342"><ele>130.6</ele><time>2026-04-11T13:56:59.884Z</time></trkpt><trkpt lat="43.6104521" lon="10.8635255"><ele>133.0</ele><time>2026-04-11T13:57:00.895Z</time></trkpt><trkpt lat="43.6104106" lon="10.8634449"><ele>133.0</ele><time>2026-04-11T13:57:01.878Z</time></trkpt><trkpt lat="43.6103524" lon="10.8633782"><ele>133.0</ele><time>2026-04-11T13:57:02.874Z</time></trkpt><trkpt lat="43.6102847" lon="10.8633267"><ele>133.0</ele><time>2026-04-11T13:57:03.878Z</time></trkpt><trkpt lat="43.6101942" lon="10.8633029"><ele>133.0</ele><time>2026-04-11T13:57:04.869Z</time></trkpt><trkpt lat="43.6100837" lon="10.8633228"><ele>133.0</ele><time>2026-04-11T13:57:05.864Z</time></trkpt><trkpt lat="43.6099618" lon="10.8633556"><ele>133.0</ele><time>2026-04-11T13:57:06.862Z</time></trkpt><trkpt lat="43.6098204" lon="10.8633826"><ele>133.0</ele><time>2026-04-11T13:57:07.861Z</time></trkpt><trkpt lat="43.6096667" lon="10.8633895"><ele>133.0</ele><time>2026-04-11T13:57:08.865Z</time></trkpt><trkpt lat="43.6094975" lon="10.8633842"><ele>133.0</ele><time>2026-04-11T13:57:09.872Z</time></trkpt><trkpt lat="43.6092678" lon="10.8633156"><ele>133.0</ele><time>2026-04-11T13:57:10.885Z</time></trkpt><trkpt lat="43.6091184" lon="10.863244"><ele>133.0</ele><time>2026-04-11T13:57:11.889Z</time></trkpt><trkpt lat="43.6089645" lon="10.8631967"><ele>133.0</ele><time>2026-04-11T13:57:12.896Z</time></trkpt><trkpt lat="43.6088297" lon="10.8631563"><ele>133.0</ele><time>2026-04-11T13:57:13.896Z</time></trkpt><trkpt lat="43.6086777" lon="10.8631117"><ele>133.0</ele><time>2026-04-11T13:57:14.897Z</time></trkpt><trkpt lat="43.6085489" lon="10.8630875"><ele>133.0</ele><time>2026-04-11T13:57:15.907Z</time></trkpt><trkpt lat="43.6084224" lon="10.8630623"><ele>135.0</ele><time>2026-04-11T13:57:16.91Z</time></trkpt><trkpt lat="43.6082984" lon="10.8630523"><ele>137.0</ele><time>2026-04-11T13:57:17.905Z</time></trkpt><trkpt lat="43.6081984" lon="10.8630571"><ele>139.0</ele><time>2026-04-11T13:57:18.913Z</time></trkpt><trkpt lat="43.6080854" lon="10.8630912"><ele>141.0</ele><time>2026-04-11T13:57:19.899Z</time></trkpt><trkpt lat="43.6079842" lon="10.8631597"><ele>141.0</ele><time>2026-04-11T13:57:20.896Z</time></trkpt><trkpt lat="43.607893" lon="10.8632598"><ele>141.0</ele><time>2026-04-11T13:57:21.907Z</time></trkpt><trkpt lat="43.607788" lon="10.8633705"><ele>141.0</ele><time>2026-04-11T13:57:22.91Z</time></trkpt><trkpt lat="43.6076861" lon="10.8634897"><ele>141.0</ele><time>2026-04-11T13:57:23.909Z</time></trkpt><trkpt lat="43.6075842" lon="10.8636001"><ele>142.8</ele><time>2026-04-11T13:57:24.911Z</time></trkpt><trkpt lat="43.6074854" lon="10.8636943"><ele>144.6</ele><time>2026-04-11T13:57:25.904Z</time></trkpt><trkpt lat="43.6073873" lon="10.8637725"><ele>146.4</ele><time>2026-04-11T13:57:26.904Z</time></trkpt><trkpt lat="43.6072831" lon="10.8638134"><ele>148.2</ele><time>2026-04-11T13:57:27.886Z</time></trkpt><trkpt lat="43.6071849" lon="10.8638346"><ele>150.0</ele><time>2026-04-11T13:57:28.886Z</time></trkpt><trkpt lat="43.607086" lon="10.8638358"><ele>152.5</ele><time>2026-04-11T13:57:29.887Z</time></trkpt><trkpt lat="43.6069637" lon="10.8638012"><ele>155.0</ele><time>2026-04-11T13:57:30.887Z</time></trkpt><trkpt lat="43.6068463" lon="10.8637397"><ele>157.5</ele><time>2026-04-11T13:57:31.892Z</time></trkpt><trkpt lat="43.6067034" lon="10.8636586"><ele>160.0</ele><time>2026-04-11T13:57:32.885Z</time></trkpt><trkpt lat="43.6065576" lon="10.8635814"><ele>160.0</ele><time>2026-04-11T13:57:33.879Z</time></trkpt><trkpt lat="43.6063999" lon="10.8634512"><ele>160.0</ele><time>2026-04-11T13:57:34.881Z</time></trkpt><trkpt lat="43.6062732" lon="10.8633621"><ele>160.0</ele><time>2026-04-11T13:57:35.9Z</time></trkpt><trkpt lat="43.6061963" lon="10.863306"><ele>160.0</ele><time>2026-04-11T13:57:36.896Z</time></trkpt><trkpt lat="43.6061264" lon="10.8632408"><ele>162.8</ele><time>2026-04-11T13:57:37.907Z</time></trkpt><trkpt lat="43.6060822" lon="10.8631558"><ele>165.6</ele><time>2026-04-11T13:57:38.902Z</time></trkpt><trkpt lat="43.6059992" lon="10.863045"><ele>168.39999999999998</ele><time>2026-04-11T13:57:39.923Z</time></trkpt><trkpt lat="43.6059365" lon="10.8629231"><ele>171.2</ele><time>2026-04-11T13:57:40.903Z</time></trkpt><trkpt lat="43.6058837" lon="10.8627802"><ele>174.0</ele><time>2026-04-11T13:57:41.91Z</time></trkpt><trkpt lat="43.605853" lon="10.8626174"><ele>173.0</ele><time>2026-04-11T13:57:42.906Z</time></trkpt><trkpt lat="43.6058229" lon="10.8624263"><ele>172.0</ele><time>2026-04-11T13:57:43.904Z</time></trkpt><trkpt lat="43.6057938" lon="10.8622046"><ele>171.0</ele><time>2026-04-11T13:57:44.915Z</time></trkpt><trkpt lat="43.6057217" lon="10.8619177"><ele>170.66666666666666</ele><time>2026-04-11T13:57:45.905Z</time></trkpt><trkpt lat="43.6056665" lon="10.8616673"><ele>170.33333333333331</ele><time>2026-04-11T13:57:46.902Z</time></trkpt><trkpt lat="43.6056142" lon="10.8614437"><ele>170.0</ele><time>2026-04-11T13:57:47.907Z</time></trkpt><trkpt lat="43.6055945" lon="10.861259"><ele>170.0</ele><time>2026-04-11T13:57:48.907Z</time></trkpt><trkpt lat="43.6055613" lon="10.861062"><ele>170.0</ele><time>2026-04-11T13:57:49.906Z</time></trkpt><trkpt lat="43.6055483" lon="10.8608701"><ele>170.0</ele><time>2026-04-11T13:57:50.905Z</time></trkpt><trkpt lat="43.6055339" lon="10.8607142"><ele>170.0</ele><time>2026-04-11T13:57:51.911Z</time></trkpt><trkpt lat="43.6055249" lon="10.8605612"><ele>170.0</ele><time>2026-04-11T13:57:52.926Z</time></trkpt><trkpt lat="43.6055188" lon="10.8603905"><ele>170.0</ele><time>2026-04-11T13:57:55.006Z</time></trkpt><trkpt lat="43.6055135" lon="10.8602058"><ele>170.0</ele><time>2026-04-11T13:57:56.013Z</time></trkpt><trkpt lat="43.6055216" lon="10.8600693"><ele>170.0</ele><time>2026-04-11T13:57:57.002Z</time></trkpt><trkpt lat="43.60551" lon="10.8599398"><ele>170.0</ele><time>2026-04-11T13:57:57.985Z</time></trkpt><trkpt lat="43.6055066" lon="10.8598281"><ele>170.0</ele><time>2026-04-11T13:57:58.979Z</time></trkpt><trkpt lat="43.6054932" lon="10.8596971"><ele>170.0</ele><time>2026-04-11T13:57:59.983Z</time></trkpt><trkpt lat="43.6054675" lon="10.8595323"><ele>170.0</ele><time>2026-04-11T13:58:00.986Z</time></trkpt><trkpt lat="43.6054175" lon="10.8593696"><ele>170.0</ele><time>2026-04-11T13:58:01.999Z</time></trkpt><trkpt lat="43.6053583" lon="10.8591975"><ele>172.5</ele><time>2026-04-11T13:58:03.011Z</time></trkpt><trkpt lat="43.6053186" lon="10.8590721"><ele>175.0</ele><time>2026-04-11T13:58:03.998Z</time></trkpt><trkpt lat="43.6052764" lon="10.8589382"><ele>177.5</ele><time>2026-04-11T13:58:04.99Z</time></trkpt><trkpt lat="43.6052254" lon="10.8587511"><ele>180.0</ele><time>2026-04-11T13:58:06.002Z</time></trkpt><trkpt lat="43.6051618" lon="10.8585661"><ele>180.5</ele><time>2026-04-11T13:58:06.989Z</time></trkpt><trkpt lat="43.6051057" lon="10.8583997"><ele>181.0</ele><time>2026-04-11T13:58:07.997Z</time></trkpt><trkpt lat="43.6050513" lon="10.858242"><ele>181.5</ele><time>2026-04-11T13:58:08.992Z</time></trkpt><trkpt lat="43.6050028" lon="10.8580935"><ele>182.0</ele><time>2026-04-11T13:58:09.993Z</time></trkpt><trkpt lat="43.604958" lon="10.8579453"><ele>182.0</ele><time>2026-04-11T13:58:10.987Z</time></trkpt><trkpt lat="43.6049223" lon="10.8577875"><ele>182.0</ele><time>2026-04-11T13:58:12.004Z</time></trkpt><trkpt lat="43.6049065" lon="10.8576818"><ele>182.0</ele><time>2026-04-11T13:58:12.979Z</time></trkpt><trkpt lat="43.6048855" lon="10.8575211"><ele>182.0</ele><time>2026-04-11T13:58:13.985Z</time></trkpt><trkpt lat="43.6048652" lon="10.8573603"><ele>182.0</ele><time>2026-04-11T13:58:14.99Z</time></trkpt><trkpt lat="43.6048306" lon="10.857186"><ele>181.39999999999998</ele><time>2026-04-11T13:58:15.986Z</time></trkpt><trkpt lat="43.6047808" lon="10.8570188"><ele>180.79999999999998</ele><time>2026-04-11T13:58:17.025Z</time></trkpt><trkpt lat="43.6047273" lon="10.8568775"><ele>180.2</ele><time>2026-04-11T13:58:18.005Z</time></trkpt><trkpt lat="43.6046762" lon="10.856749"><ele>179.6</ele><time>2026-04-11T13:58:18.993Z</time></trkpt><trkpt lat="43.604626" lon="10.8566347"><ele>179.0</ele><time>2026-04-11T13:58:19.985Z</time></trkpt><trkpt lat="43.6045713" lon="10.8565373"><ele>179.25</ele><time>2026-04-11T13:58:20.985Z</time></trkpt><trkpt lat="43.6045042" lon="10.8564493"><ele>179.5</ele><time>2026-04-11T13:58:21.993Z</time></trkpt><trkpt lat="43.6044044" lon="10.8563482"><ele>179.75</ele><time>2026-04-11T13:58:23Z</time></trkpt><trkpt lat="43.6042523" lon="10.8561502"><ele>180.0</ele><time>2026-04-11T13:58:23.998Z</time></trkpt><trkpt lat="43.6041018" lon="10.8559777"><ele>179.33333333333334</ele><time>2026-04-11T13:58:25.017Z</time></trkpt><trkpt lat="43.6039422" lon="10.8558103"><ele>178.66666666666669</ele><time>2026-04-11T13:58:26.008Z</time></trkpt><trkpt lat="43.6037767" lon="10.8556329"><ele>178.0</ele><time>2026-04-11T13:58:27.009Z</time></trkpt><trkpt lat="43.6036147" lon="10.8554642"><ele>176.0</ele><time>2026-04-11T13:58:28.012Z</time></trkpt><trkpt lat="43.6034701" lon="10.8553068"><ele>174.0</ele><time>2026-04-11T13:58:29.017Z</time></trkpt><trkpt lat="43.6033261" lon="10.8551481"><ele>172.0</ele><time>2026-04-11T13:58:30.017Z</time></trkpt><trkpt lat="43.6031792" lon="10.8549924"><ele>172.0</ele><time>2026-04-11T13:58:31.012Z</time></trkpt><trkpt lat="43.6030337" lon="10.8548383"><ele>172.0</ele><time>2026-04-11T13:58:32.013Z</time></trkpt><trkpt lat="43.6028953" lon="10.8546912"><ele>172.0</ele><time>2026-04-11T13:58:33.009Z</time></trkpt><trkpt lat="43.602766" lon="10.8545501"><ele>170.0</ele><time>2026-04-11T13:58:34.036Z</time></trkpt><trkpt lat="43.6026386" lon="10.8544125"><ele>168.0</ele><time>2026-04-11T13:58:35.011Z</time></trkpt><trkpt lat="43.6025125" lon="10.8542727"><ele>166.0</ele><time>2026-04-11T13:58:36.022Z</time></trkpt><trkpt lat="43.6023953" lon="10.8541369"><ele>169.25</ele><time>2026-04-11T13:58:37.013Z</time></trkpt><trkpt lat="43.6022846" lon="10.8540128"><ele>172.5</ele><time>2026-04-11T13:58:38.01Z</time></trkpt><trkpt lat="43.602188" lon="10.8539042"><ele>175.75</ele><time>2026-04-11T13:58:39.009Z</time></trkpt><trkpt lat="43.6020962" lon="10.8538022"><ele>179.0</ele><time>2026-04-11T13:58:40.017Z</time></trkpt><trkpt lat="43.6020084" lon="10.8536972"><ele>178.75</ele><time>2026-04-11T13:58:41.015Z</time></trkpt><trkpt lat="43.6019203" lon="10.8535939"><ele>178.5</ele><time>2026-04-11T13:58:42.008Z</time></trkpt><trkpt lat="43.6018211" lon="10.8534794"><ele>178.25</ele><time>2026-04-11T13:58:43.014Z</time></trkpt><trkpt lat="43.6017228" lon="10.8533664"><ele>178.0</ele><time>2026-04-11T13:58:44.011Z</time></trkpt><trkpt lat="43.6016328" lon="10.8532563"><ele>179.2</ele><time>2026-04-11T13:58:45.021Z</time></trkpt><trkpt lat="43.6015431" lon="10.8531503"><ele>180.4</ele><time>2026-04-11T13:58:46.008Z</time></trkpt><trkpt lat="43.6014625" lon="10.8530537"><ele>181.6</ele><time>2026-04-11T13:58:47.007Z</time></trkpt><trkpt lat="43.6014012" lon="10.8529727"><ele>182.79999999999998</ele><time>2026-04-11T13:58:48.003Z</time></trkpt><trkpt lat="43.6013337" lon="10.852919"><ele>184.0</ele><time>2026-04-11T13:58:49.004Z</time></trkpt><trkpt lat="43.601297" lon="10.8528274"><ele>184.0</ele><time>2026-04-11T13:58:51.008Z</time></trkpt><trkpt lat="43.6012595" lon="10.8527219"><ele>184.0</ele><time>2026-04-11T13:58:56.028Z</time></trkpt><trkpt lat="43.6012256" lon="10.8525493"><ele>184.0</ele><time>2026-04-11T13:59:55.018Z</time></trkpt><trkpt lat="43.6012001" lon="10.8524423"><ele>184.0</ele><time>2026-04-11T14:00:00.997Z</time></trkpt><trkpt lat="43.6011973" lon="10.8523235"><ele>184.0</ele><time>2026-04-11T14:00:02.989Z</time></trkpt><trkpt lat="43.6011959" lon="10.8522331"><ele>184.0</ele><time>2026-04-11T14:00:03.992Z</time></trkpt><trkpt lat="43.6011945" lon="10.85214"><ele>183.79999999999998</ele><time>2026-04-11T14:00:04.991Z</time></trkpt><trkpt lat="43.6011857" lon="10.8519895"><ele>183.6</ele><time>2026-04-11T14:00:05.985Z</time></trkpt><trkpt lat="43.6011869" lon="10.8518587"><ele>183.4</ele><time>2026-04-11T14:00:07.03Z</time></trkpt><trkpt lat="43.6011853" lon="10.8516402"><ele>183.2</ele><time>2026-04-11T14:00:08.007Z</time></trkpt><trkpt lat="43.6011944" lon="10.851525"><ele>183.0</ele><time>2026-04-11T14:00:08.998Z</time></trkpt><trkpt lat="43.6012263" lon="10.8514276"><ele>182.60000000000002</ele><time>2026-04-11T14:00:09.981Z</time></trkpt><trkpt lat="43.6012763" lon="10.8513239"><ele>182.20000000000002</ele><time>2026-04-11T14:00:10.976Z</time></trkpt><trkpt lat="43.6013396" lon="10.8512186"><ele>181.8</ele><time>2026-04-11T14:00:11.986Z</time></trkpt><trkpt lat="43.6014185" lon="10.8511191"><ele>181.4</ele><time>2026-04-11T14:00:12.985Z</time></trkpt><trkpt lat="43.6015114" lon="10.851017"><ele>181.0</ele><time>2026-04-11T14:00:14.017Z</time></trkpt><trkpt lat="43.6016062" lon="10.8509128"><ele>180.25</ele><time>2026-04-11T14:00:15.004Z</time></trkpt><trkpt lat="43.6016963" lon="10.8508148"><ele>179.5</ele><time>2026-04-11T14:00:16.013Z</time></trkpt><trkpt lat="43.6017901" lon="10.8507074"><ele>178.75</ele><time>2026-04-11T14:00:17.017Z</time></trkpt><trkpt lat="43.6018764" lon="10.8505636"><ele>178.0</ele><time>2026-04-11T14:00:18.017Z</time></trkpt><trkpt lat="43.6019487" lon="10.8504437"><ele>178.60000000000002</ele><time>2026-04-11T14:00:19.019Z</time></trkpt><trkpt lat="43.6020211" lon="10.8503393"><ele>179.20000000000002</ele><time>2026-04-11T14:00:20.02Z</time></trkpt><trkpt lat="43.6020855" lon="10.8502388"><ele>179.8</ele><time>2026-04-11T14:00:21.019Z</time></trkpt><trkpt lat="43.6021364" lon="10.8500926"><ele>180.4</ele><time>2026-04-11T14:00:22.002Z</time></trkpt><trkpt lat="43.6022122" lon="10.8499948"><ele>181.0</ele><time>2026-04-11T14:00:23Z</time></trkpt><trkpt lat="43.602317" lon="10.8499249"><ele>181.0</ele><time>2026-04-11T14:00:23.995Z</time></trkpt><trkpt lat="43.6024184" lon="10.8498684"><ele>181.0</ele><time>2026-04-11T14:00:25.001Z</time></trkpt><trkpt lat="43.6025308" lon="10.8498129"><ele>181.0</ele><time>2026-04-11T14:00:26.008Z</time></trkpt><trkpt lat="43.6026446" lon="10.8497577"><ele>181.0</ele><time>2026-04-11T14:00:27.016Z</time></trkpt><trkpt lat="43.602756" lon="10.8496962"><ele>180.60000000000002</ele><time>2026-04-11T14:00:28.014Z</time></trkpt><trkpt lat="43.6028668" lon="10.8496394"><ele>180.2</ele><time>2026-04-11T14:00:29.001Z</time></trkpt><trkpt lat="43.6029728" lon="10.8495915"><ele>179.8</ele><time>2026-04-11T14:00:30.014Z</time></trkpt><trkpt lat="43.6030658" lon="10.8495428"><ele>179.39999999999998</ele><time>2026-04-11T14:00:31.014Z</time></trkpt><trkpt lat="43.6031454" lon="10.8494972"><ele>179.0</ele><time>2026-04-11T14:00:32.014Z</time></trkpt><trkpt lat="43.6032123" lon="10.849438"><ele>179.0</ele><time>2026-04-11T14:00:33.025Z</time></trkpt><trkpt lat="43.6032811" lon="10.8493761"><ele>179.0</ele><time>2026-04-11T14:00:34.018Z</time></trkpt><trkpt lat="43.6033479" lon="10.8493075"><ele>179.0</ele><time>2026-04-11T14:00:34.997Z</time></trkpt><trkpt lat="43.6034145" lon="10.8492262"><ele>179.0</ele><time>2026-04-11T14:00:35.997Z</time></trkpt><trkpt lat="43.6034709" lon="10.8491403"><ele>179.0</ele><time>2026-04-11T14:00:36.996Z</time></trkpt><trkpt lat="43.6035136" lon="10.8490443"><ele>179.0</ele><time>2026-04-11T14:00:38.026Z</time></trkpt><trkpt lat="43.6035344" lon="10.8489445"><ele>180.2</ele><time>2026-04-11T14:00:39.016Z</time></trkpt><trkpt lat="43.6035457" lon="10.8488341"><ele>181.39999999999998</ele><time>2026-04-11T14:00:40.009Z</time></trkpt><trkpt lat="43.6035416" lon="10.8487104"><ele>182.6</ele><time>2026-04-11T14:00:41.001Z</time></trkpt><trkpt lat="43.6035306" lon="10.84857"><ele>183.8</ele><time>2026-04-11T14:00:42.004Z</time></trkpt><trkpt lat="43.6035095" lon="10.8484153"><ele>185.0</ele><time>2026-04-11T14:00:42.997Z</time></trkpt><trkpt lat="43.6034824" lon="10.848249"><ele>185.75</ele><time>2026-04-11T14:00:43.991Z</time></trkpt><trkpt lat="43.6034581" lon="10.8480823"><ele>186.5</ele><time>2026-04-11T14:00:45.008Z</time></trkpt><trkpt lat="43.6034361" lon="10.8479135"><ele>187.25</ele><time>2026-04-11T14:00:46.009Z</time></trkpt><trkpt lat="43.6034144" lon="10.847742"><ele>188.0</ele><time>2026-04-11T14:00:47.006Z</time></trkpt><trkpt lat="43.603391" lon="10.8475691"><ele>188.75</ele><time>2026-04-11T14:00:48Z</time></trkpt><trkpt lat="43.6033659" lon="10.8473981"><ele>189.5</ele><time>2026-04-11T14:00:48.995Z</time></trkpt><trkpt lat="43.6033372" lon="10.8472274"><ele>190.25</ele><time>2026-04-11T14:00:49.996Z</time></trkpt><trkpt lat="43.6033141" lon="10.8470733"><ele>191.0</ele><time>2026-04-11T14:00:50.996Z</time></trkpt><trkpt lat="43.6032852" lon="10.8469027"><ele>190.60000000000002</ele><time>2026-04-11T14:00:51.995Z</time></trkpt><trkpt lat="43.6032678" lon="10.8467585"><ele>190.2</ele><time>2026-04-11T14:00:52.994Z</time></trkpt><trkpt lat="43.6032505" lon="10.8466068"><ele>189.8</ele><time>2026-04-11T14:00:53.998Z</time></trkpt><trkpt lat="43.6032424" lon="10.8464829"><ele>189.39999999999998</ele><time>2026-04-11T14:00:55.001Z</time></trkpt><trkpt lat="43.603243" lon="10.8463517"><ele>189.0</ele><time>2026-04-11T14:00:55.999Z</time></trkpt><trkpt lat="43.6032576" lon="10.8461965"><ele>189.0</ele><time>2026-04-11T14:00:56.99Z</time></trkpt><trkpt lat="43.6032772" lon="10.8460305"><ele>189.0</ele><time>2026-04-11T14:00:57.992Z</time></trkpt><trkpt lat="43.6032995" lon="10.8458545"><ele>189.0</ele><time>2026-04-11T14:00:58.997Z</time></trkpt><trkpt lat="43.6033239" lon="10.8456647"><ele>189.0</ele><time>2026-04-11T14:00:59.998Z</time></trkpt><trkpt lat="43.6033515" lon="10.8454755"><ele>187.75</ele><time>2026-04-11T14:01:01.014Z</time></trkpt><trkpt lat="43.6033776" lon="10.8452935"><ele>186.5</ele><time>2026-04-11T14:01:02.012Z</time></trkpt><trkpt lat="43.603398" lon="10.8451173"><ele>185.25</ele><time>2026-04-11T14:01:03.013Z</time></trkpt><trkpt lat="43.6034172" lon="10.8449524"><ele>184.0</ele><time>2026-04-11T14:01:04.014Z</time></trkpt><trkpt lat="43.6034346" lon="10.8447958"><ele>184.2</ele><time>2026-04-11T14:01:05.007Z</time></trkpt><trkpt lat="43.6034587" lon="10.8446425"><ele>184.39999999999998</ele><time>2026-04-11T14:01:06.011Z</time></trkpt><trkpt lat="43.6034938" lon="10.8445211"><ele>184.6</ele><time>2026-04-11T14:01:07.006Z</time></trkpt><trkpt lat="43.6035317" lon="10.8444132"><ele>184.8</ele><time>2026-04-11T14:01:08.017Z</time></trkpt><trkpt lat="43.6035807" lon="10.8443241"><ele>185.0</ele><time>2026-04-11T14:01:08.99Z</time></trkpt><trkpt lat="43.6036459" lon="10.8442471"><ele>184.2</ele><time>2026-04-11T14:01:09.99Z</time></trkpt><trkpt lat="43.6037285" lon="10.8441701"><ele>183.4</ele><time>2026-04-11T14:01:10.995Z</time></trkpt><trkpt lat="43.6038253" lon="10.8440848"><ele>182.60000000000002</ele><time>2026-04-11T14:01:12.001Z</time></trkpt><trkpt lat="43.6039242" lon="10.844014"><ele>181.8</ele><time>2026-04-11T14:01:13.001Z</time></trkpt><trkpt lat="43.6040104" lon="10.8439555"><ele>181.0</ele><time>2026-04-11T14:01:14.008Z</time></trkpt><trkpt lat="43.6040198" lon="10.8438203"><ele>181.0</ele><time>2026-04-11T14:01:18.02Z</time></trkpt><trkpt lat="43.6040657" lon="10.8436834"><ele>181.0</ele><time>2026-04-11T14:01:18.933Z</time></trkpt><trkpt lat="43.6040543" lon="10.8435865"><ele>181.0</ele><time>2026-04-11T14:01:20.932Z</time></trkpt><trkpt lat="43.6041617" lon="10.8435563"><ele>181.0</ele><time>2026-04-11T14:01:22.94Z</time></trkpt><trkpt lat="43.6042297" lon="10.8435685"><ele>181.0</ele><time>2026-04-11T14:01:23.926Z</time></trkpt><trkpt lat="43.6043023" lon="10.8436068"><ele>181.0</ele><time>2026-04-11T14:01:24.92Z</time></trkpt><trkpt lat="43.6043894" lon="10.8436519"><ele>181.0</ele><time>2026-04-11T14:01:25.914Z</time></trkpt><trkpt lat="43.6044809" lon="10.8436829"><ele>181.0</ele><time>2026-04-11T14:01:26.921Z</time></trkpt><trkpt lat="43.6045667" lon="10.8437249"><ele>181.0</ele><time>2026-04-11T14:01:27.926Z</time></trkpt><trkpt lat="43.6046497" lon="10.843769"><ele>181.0</ele><time>2026-04-11T14:01:28.916Z</time></trkpt><trkpt lat="43.6047295" lon="10.8438023"><ele>181.0</ele><time>2026-04-11T14:01:29.913Z</time></trkpt><trkpt lat="43.6048444" lon="10.8438305"><ele>180.20000000000002</ele><time>2026-04-11T14:01:31.916Z</time></trkpt><trkpt lat="43.6049294" lon="10.8437951"><ele>179.4</ele><time>2026-04-11T14:01:33.907Z</time></trkpt><trkpt lat="43.6050126" lon="10.8436522"><ele>178.6</ele><time>2026-04-11T14:01:35.916Z</time></trkpt><trkpt lat="43.6050471" lon="10.8435516"><ele>177.8</ele><time>2026-04-11T14:01:36.913Z</time></trkpt><trkpt lat="43.6051001" lon="10.8434537"><ele>177.0</ele><time>2026-04-11T14:01:37.914Z</time></trkpt><trkpt lat="43.6051716" lon="10.8433417"><ele>177.0</ele><time>2026-04-11T14:01:38.938Z</time></trkpt><trkpt lat="43.6052432" lon="10.8432191"><ele>177.0</ele><time>2026-04-11T14:01:39.926Z</time></trkpt><trkpt lat="43.6053158" lon="10.8431063"><ele>177.0</ele><time>2026-04-11T14:01:40.921Z</time></trkpt><trkpt lat="43.6053866" lon="10.8430084"><ele>177.0</ele><time>2026-04-11T14:01:41.921Z</time></trkpt><trkpt lat="43.605462" lon="10.842929"><ele>177.0</ele><time>2026-04-11T14:01:42.917Z</time></trkpt><trkpt lat="43.6055296" lon="10.842867"><ele>177.2</ele><time>2026-04-11T14:01:43.916Z</time></trkpt><trkpt lat="43.6056036" lon="10.8428043"><ele>177.39999999999998</ele><time>2026-04-11T14:01:44.927Z</time></trkpt><trkpt lat="43.6056775" lon="10.8427451"><ele>177.60000000000002</ele><time>2026-04-11T14:01:45.93Z</time></trkpt><trkpt lat="43.6057552" lon="10.8426689"><ele>177.8</ele><time>2026-04-11T14:01:46.929Z</time></trkpt><trkpt lat="43.6058372" lon="10.8425944"><ele>178.0</ele><time>2026-04-11T14:01:47.923Z</time></trkpt><trkpt lat="43.6059272" lon="10.8425205"><ele>177.0</ele><time>2026-04-11T14:01:48.929Z</time></trkpt><trkpt lat="43.6060206" lon="10.8424471"><ele>176.0</ele><time>2026-04-11T14:01:49.931Z</time></trkpt><trkpt lat="43.606099" lon="10.8423764"><ele>175.0</ele><time>2026-04-11T14:01:50.929Z</time></trkpt><trkpt lat="43.606157" lon="10.8423231"><ele>174.0</ele><time>2026-04-11T14:01:51.933Z</time></trkpt><trkpt lat="43.6062104" lon="10.8422722"><ele>173.0</ele><time>2026-04-11T14:01:52.924Z</time></trkpt><trkpt lat="43.6062887" lon="10.8422069"><ele>172.0</ele><time>2026-04-11T14:01:54.929Z</time></trkpt><trkpt lat="43.6063233" lon="10.8421264"><ele>173.16666666666669</ele><time>2026-04-11T14:01:56.938Z</time></trkpt><trkpt lat="43.6063816" lon="10.8419809"><ele>174.33333333333334</ele><time>2026-04-11T14:01:58.925Z</time></trkpt><trkpt lat="43.6064247" lon="10.8418991"><ele>175.5</ele><time>2026-04-11T14:01:59.923Z</time></trkpt><trkpt lat="43.6064617" lon="10.8418151"><ele>176.66666666666666</ele><time>2026-04-11T14:02:00.913Z</time></trkpt><trkpt lat="43.6064875" lon="10.8417271"><ele>177.83333333333331</ele><time>2026-04-11T14:02:01.92Z</time></trkpt><trkpt lat="43.6065435" lon="10.8416233"><ele>179.0</ele><time>2026-04-11T14:02:03.908Z</time></trkpt><trkpt lat="43.6066243" lon="10.8415833"><ele>179.0</ele><time>2026-04-11T14:02:42.931Z</time></trkpt><trkpt lat="43.6067118" lon="10.8415731"><ele>179.0</ele><time>2026-04-11T14:02:44.928Z</time></trkpt><trkpt lat="43.6068232" lon="10.8415525"><ele>179.0</ele><time>2026-04-11T14:02:46.916Z</time></trkpt><trkpt lat="43.6068889" lon="10.841543"><ele>179.0</ele><time>2026-04-11T14:02:47.906Z</time></trkpt><trkpt lat="43.6069518" lon="10.8415186"><ele>179.0</ele><time>2026-04-11T14:02:48.907Z</time></trkpt><trkpt lat="43.6070142" lon="10.8414923"><ele>179.0</ele><time>2026-04-11T14:02:49.9Z</time></trkpt><trkpt lat="43.6070633" lon="10.8414349"><ele>176.83333333333331</ele><time>2026-04-11T14:02:50.896Z</time></trkpt><trkpt lat="43.6071014" lon="10.8413607"><ele>174.66666666666666</ele><time>2026-04-11T14:02:51.9Z</time></trkpt><trkpt lat="43.6071505" lon="10.8412978"><ele>172.5</ele><time>2026-04-11T14:02:52.891Z</time></trkpt><trkpt lat="43.6072562" lon="10.8412663"><ele>170.33333333333334</ele><time>2026-04-11T14:02:54.873Z</time></trkpt><trkpt lat="43.6073222" lon="10.8412777"><ele>168.16666666666669</ele><time>2026-04-11T14:02:55.878Z</time></trkpt><trkpt lat="43.6073932" lon="10.8413121"><ele>166.0</ele><time>2026-04-11T14:02:56.877Z</time></trkpt><trkpt lat="43.6074548" lon="10.8413484"><ele>166.0</ele><time>2026-04-11T14:02:57.879Z</time></trkpt><trkpt lat="43.6075161" lon="10.8413926"><ele>166.0</ele><time>2026-04-11T14:02:58.884Z</time></trkpt><trkpt lat="43.6075748" lon="10.8414506"><ele>166.0</ele><time>2026-04-11T14:02:59.881Z</time></trkpt><trkpt lat="43.6076262" lon="10.841515"><ele>166.0</ele><time>2026-04-11T14:03:00.877Z</time></trkpt><trkpt lat="43.6077208" lon="10.8416227"><ele>166.0</ele><time>2026-04-11T14:03:02.877Z</time></trkpt><trkpt lat="43.6077738" lon="10.8416736"><ele>166.0</ele><time>2026-04-11T14:03:03.879Z</time></trkpt><trkpt lat="43.6078405" lon="10.8417971"><ele>165.4</ele><time>2026-04-11T14:03:05.884Z</time></trkpt><trkpt lat="43.6078776" lon="10.8419354"><ele>164.8</ele><time>2026-04-11T14:03:07.915Z</time></trkpt><trkpt lat="43.6079259" lon="10.8420792"><ele>164.20000000000002</ele><time>2026-04-11T14:03:09.922Z</time></trkpt><trkpt lat="43.6079546" lon="10.8421693"><ele>163.60000000000002</ele><time>2026-04-11T14:03:10.927Z</time></trkpt><trkpt lat="43.6079841" lon="10.8422744"><ele>163.0</ele><time>2026-04-11T14:03:11.941Z</time></trkpt><trkpt lat="43.6080284" lon="10.8423739"><ele>163.0</ele><time>2026-04-11T14:03:12.912Z</time></trkpt><trkpt lat="43.6080693" lon="10.8424594"><ele>163.0</ele><time>2026-04-11T14:03:13.904Z</time></trkpt><trkpt lat="43.6081589" lon="10.8425638"><ele>163.0</ele><time>2026-04-11T14:03:15.903Z</time></trkpt><trkpt lat="43.6082259" lon="10.842594"><ele>163.0</ele><time>2026-04-11T14:03:16.895Z</time></trkpt><trkpt lat="43.6082895" lon="10.8426274"><ele>163.0</ele><time>2026-04-11T14:03:17.901Z</time></trkpt><trkpt lat="43.6083565" lon="10.8426543"><ele>163.0</ele><time>2026-04-11T14:03:18.897Z</time></trkpt><trkpt lat="43.608419" lon="10.8426812"><ele>161.2857142857143</ele><time>2026-04-11T14:03:19.895Z</time></trkpt><trkpt lat="43.6084976" lon="10.842691"><ele>159.57142857142856</ele><time>2026-04-11T14:03:20.891Z</time></trkpt><trkpt lat="43.6085841" lon="10.8426784"><ele>157.85714285714286</ele><time>2026-04-11T14:03:21.899Z</time></trkpt><trkpt lat="43.6086491" lon="10.8426733"><ele>156.14285714285717</ele><time>2026-04-11T14:03:22.909Z</time></trkpt><trkpt lat="43.6087168" lon="10.8426708"><ele>154.42857142857144</ele><time>2026-04-11T14:03:23.912Z</time></trkpt><trkpt lat="43.6087833" lon="10.8426713"><ele>152.71428571428572</ele><time>2026-04-11T14:03:24.915Z</time></trkpt><trkpt lat="43.6088471" lon="10.8426663"><ele>151.0</ele><time>2026-04-11T14:03:25.915Z</time></trkpt><trkpt lat="43.6089521" lon="10.8426737"><ele>151.0</ele><time>2026-04-11T14:03:27.906Z</time></trkpt><trkpt lat="43.6090988" lon="10.842692"><ele>151.0</ele><time>2026-04-11T14:03:29.909Z</time></trkpt><trkpt lat="43.6091722" lon="10.8426957"><ele>151.0</ele><time>2026-04-11T14:03:30.896Z</time></trkpt><trkpt lat="43.6092449" lon="10.8426961"><ele>151.0</ele><time>2026-04-11T14:03:31.888Z</time></trkpt><trkpt lat="43.6093433" lon="10.8427133"><ele>151.0</ele><time>2026-04-11T14:03:32.895Z</time></trkpt><trkpt lat="43.6094214" lon="10.8427452"><ele>155.5</ele><time>2026-04-11T14:03:33.892Z</time></trkpt><trkpt lat="43.6094987" lon="10.8427886"><ele>160.0</ele><time>2026-04-11T14:03:34.893Z</time></trkpt><trkpt lat="43.6095752" lon="10.8428514"><ele>164.5</ele><time>2026-04-11T14:03:35.898Z</time></trkpt><trkpt lat="43.6096467" lon="10.8429257"><ele>169.0</ele><time>2026-04-11T14:03:36.904Z</time></trkpt><trkpt lat="43.6097062" lon="10.8429916"><ele>173.5</ele><time>2026-04-11T14:03:37.91Z</time></trkpt><trkpt lat="43.6097586" lon="10.8430552"><ele>178.0</ele><time>2026-04-11T14:03:38.909Z</time></trkpt><trkpt lat="43.6098074" lon="10.8431255"><ele>178.0</ele><time>2026-04-11T14:03:39.907Z</time></trkpt><trkpt lat="43.609867" lon="10.8432059"><ele>178.0</ele><time>2026-04-11T14:03:40.899Z</time></trkpt><trkpt lat="43.6099426" lon="10.8432947"><ele>178.0</ele><time>2026-04-11T14:03:41.893Z</time></trkpt><trkpt lat="43.6100156" lon="10.8433833"><ele>178.0</ele><time>2026-04-11T14:03:42.91Z</time></trkpt><trkpt lat="43.6100827" lon="10.8434502"><ele>178.0</ele><time>2026-04-11T14:03:43.894Z</time></trkpt><trkpt lat="43.6101401" lon="10.8435037"><ele>178.0</ele><time>2026-04-11T14:03:44.891Z</time></trkpt><trkpt lat="43.6102027" lon="10.8435413"><ele>177.60000000000002</ele><time>2026-04-11T14:03:45.891Z</time></trkpt><trkpt lat="43.610336" lon="10.843524"><ele>177.20000000000002</ele><time>2026-04-11T14:03:47.903Z</time></trkpt><trkpt lat="43.6104034" lon="10.843478"><ele>176.8</ele><time>2026-04-11T14:03:48.896Z</time></trkpt><trkpt lat="43.6104868" lon="10.8434414"><ele>176.4</ele><time>2026-04-11T14:03:49.912Z</time></trkpt><trkpt lat="43.61056" lon="10.8434142"><ele>176.0</ele><time>2026-04-11T14:03:50.915Z</time></trkpt><trkpt lat="43.610661" lon="10.8434342"><ele>176.0</ele><time>2026-04-11T14:03:52.93Z</time></trkpt><trkpt lat="43.610754" lon="10.8434893"><ele>176.0</ele><time>2026-04-11T14:03:54.907Z</time></trkpt><trkpt lat="43.6108228" lon="10.8435237"><ele>176.0</ele><time>2026-04-11T14:03:56.901Z</time></trkpt><trkpt lat="43.6109395" lon="10.8435566"><ele>176.0</ele><time>2026-04-11T14:03:58.904Z</time></trkpt><trkpt lat="43.6110062" lon="10.8435758"><ele>176.0</ele><time>2026-04-11T14:03:59.899Z</time></trkpt><trkpt lat="43.6111123" lon="10.8436002"><ele>177.5</ele><time>2026-04-11T14:04:01.895Z</time></trkpt><trkpt lat="43.6112089" lon="10.8436575"><ele>179.0</ele><time>2026-04-11T14:04:03.907Z</time></trkpt><trkpt lat="43.6112831" lon="10.8437285"><ele>180.5</ele><time>2026-04-11T14:04:05.899Z</time></trkpt><trkpt lat="43.6113472" lon="10.8437574"><ele>182.0</ele><time>2026-04-11T14:04:06.9Z</time></trkpt><trkpt lat="43.6114245" lon="10.8437786"><ele>183.5</ele><time>2026-04-11T14:04:07.899Z</time></trkpt><trkpt lat="43.6115075" lon="10.8438103"><ele>185.0</ele><time>2026-04-11T14:04:08.897Z</time></trkpt><trkpt lat="43.611614" lon="10.8438318"><ele>185.0</ele><time>2026-04-11T14:04:09.904Z</time></trkpt><trkpt lat="43.6117237" lon="10.8438316"><ele>185.0</ele><time>2026-04-11T14:04:10.915Z</time></trkpt><trkpt lat="43.6118353" lon="10.8438108"><ele>185.0</ele><time>2026-04-11T14:04:12.928Z</time></trkpt><trkpt lat="43.6119142" lon="10.8437769"><ele>185.0</ele><time>2026-04-11T14:04:14.942Z</time></trkpt><trkpt lat="43.6120049" lon="10.843726"><ele>185.0</ele><time>2026-04-11T14:04:16.936Z</time></trkpt><trkpt lat="43.6120899" lon="10.8436474"><ele>182.99999999999997</ele><time>2026-04-11T14:04:18.939Z</time></trkpt><trkpt lat="43.612142" lon="10.8435876"><ele>181.0</ele><time>2026-04-11T14:04:19.948Z</time></trkpt><trkpt lat="43.6121937" lon="10.8435301"><ele>179.0</ele><time>2026-04-11T14:04:20.958Z</time></trkpt><trkpt lat="43.6122582" lon="10.8434756"><ele>177.0</ele><time>2026-04-11T14:04:21.952Z</time></trkpt><trkpt lat="43.6123224" lon="10.8434336"><ele>175.0</ele><time>2026-04-11T14:04:22.956Z</time></trkpt><trkpt lat="43.6123903" lon="10.8433904"><ele>172.99999999999997</ele><time>2026-04-11T14:04:23.952Z</time></trkpt><trkpt lat="43.61246" lon="10.8433727"><ele>171.0</ele><time>2026-04-11T14:04:24.952Z</time></trkpt><trkpt lat="43.6125298" lon="10.8433545"><ele>179.0</ele><time>2026-04-11T14:04:25.945Z</time></trkpt><trkpt lat="43.6126503" lon="10.8433129"><ele>187.0</ele><time>2026-04-11T14:04:27.953Z</time></trkpt><trkpt lat="43.6127599" lon="10.8432543"><ele>195.0</ele><time>2026-04-11T14:04:29.939Z</time></trkpt><trkpt lat="43.6128888" lon="10.8432542"><ele>203.0</ele><time>2026-04-11T14:04:31.94Z</time></trkpt><trkpt lat="43.6129689" lon="10.8432683"><ele>203.33333333333334</ele><time>2026-04-11T14:04:32.94Z</time></trkpt><trkpt lat="43.6130446" lon="10.8433057"><ele>203.66666666666669</ele><time>2026-04-11T14:04:33.929Z</time></trkpt><trkpt lat="43.613115" lon="10.8433442"><ele>204.0</ele><time>2026-04-11T14:04:34.926Z</time></trkpt><trkpt lat="43.6131929" lon="10.8433899"><ele>204.33333333333331</ele><time>2026-04-11T14:04:36.936Z</time></trkpt><trkpt lat="43.613269" lon="10.8434837"><ele>204.66666666666666</ele><time>2026-04-11T14:04:39.936Z</time></trkpt><trkpt lat="43.6133212" lon="10.8435963"><ele>205.0</ele><time>2026-04-11T14:04:41.931Z</time></trkpt><trkpt lat="43.6133643" lon="10.8437106"><ele>202.4</ele><time>2026-04-11T14:04:43.93Z</time></trkpt><trkpt lat="43.6134285" lon="10.8438235"><ele>199.8</ele><time>2026-04-11T14:04:45.91Z</time></trkpt><trkpt lat="43.6135116" lon="10.8439218"><ele>197.2</ele><time>2026-04-11T14:04:47.924Z</time></trkpt><trkpt lat="43.6135781" lon="10.8440327"><ele>194.6</ele><time>2026-04-11T14:04:49.925Z</time></trkpt><trkpt lat="43.6136388" lon="10.8441398"><ele>192.0</ele><time>2026-04-11T14:04:51.924Z</time></trkpt><trkpt lat="43.6136806" lon="10.8442095"><ele>191.99999999999997</ele><time>2026-04-11T14:04:52.938Z</time></trkpt><trkpt lat="43.6137169" lon="10.8442857"><ele>192.0</ele><time>2026-04-11T14:04:53.922Z</time></trkpt><trkpt lat="43.6137505" lon="10.8443616"><ele>192.0</ele><time>2026-04-11T14:04:54.919Z</time></trkpt><trkpt lat="43.6138351" lon="10.8444696"><ele>192.0</ele><time>2026-04-11T14:04:56.922Z</time></trkpt><trkpt lat="43.6138902" lon="10.8445246"><ele>192.0</ele><time>2026-04-11T14:04:57.925Z</time></trkpt><trkpt lat="43.6139437" lon="10.8445755"><ele>191.99999999999997</ele><time>2026-04-11T14:04:58.92Z</time></trkpt><trkpt lat="43.6140004" lon="10.8446151"><ele>192.0</ele><time>2026-04-11T14:04:59.912Z</time></trkpt><trkpt lat="43.6140981" lon="10.8446902"><ele>189.0</ele><time>2026-04-11T14:05:01.91Z</time></trkpt><trkpt lat="43.6142046" lon="10.8447908"><ele>186.0</ele><time>2026-04-11T14:05:03.9Z</time></trkpt><trkpt lat="43.6143067" lon="10.8448679"><ele>183.0</ele><time>2026-04-11T14:05:05.902Z</time></trkpt><trkpt lat="43.6144177" lon="10.8449294"><ele>180.0</ele><time>2026-04-11T14:05:07.89Z</time></trkpt><trkpt lat="43.6144974" lon="10.8450245"><ele>178.2</ele><time>2026-04-11T14:05:09.895Z</time></trkpt><trkpt lat="43.6145618" lon="10.8451432"><ele>176.4</ele><time>2026-04-11T14:05:11.893Z</time></trkpt><trkpt lat="43.6146276" lon="10.8452712"><ele>174.60000000000002</ele><time>2026-04-11T14:05:13.899Z</time></trkpt><trkpt lat="43.6146693" lon="10.8453442"><ele>172.8</ele><time>2026-04-11T14:05:14.902Z</time></trkpt><trkpt lat="43.6147369" lon="10.845473"><ele>171.0</ele><time>2026-04-11T14:05:16.896Z</time></trkpt><trkpt lat="43.6148031" lon="10.845607"><ele>171.0</ele><time>2026-04-11T14:05:18.912Z</time></trkpt><trkpt lat="43.6148896" lon="10.845675"><ele>171.0</ele><time>2026-04-11T14:05:20.922Z</time></trkpt><trkpt lat="43.6149742" lon="10.8456162"><ele>171.0</ele><time>2026-04-11T14:05:22.926Z</time></trkpt><trkpt lat="43.6150655" lon="10.8455186"><ele>171.0</ele><time>2026-04-11T14:05:24.921Z</time></trkpt><trkpt lat="43.6151539" lon="10.8454268"><ele>171.0</ele><time>2026-04-11T14:05:26.91Z</time></trkpt><trkpt lat="43.6152013" lon="10.8453182"><ele>171.0</ele><time>2026-04-11T14:05:28.921Z</time></trkpt><trkpt lat="43.615267" lon="10.8451968"><ele>171.0</ele><time>2026-04-11T14:05:30.924Z</time></trkpt><trkpt lat="43.6153112" lon="10.8451345"><ele>171.0</ele><time>2026-04-11T14:05:31.931Z</time></trkpt><trkpt lat="43.6153602" lon="10.8449762"><ele>171.0</ele><time>2026-04-11T14:05:33.936Z</time></trkpt><trkpt lat="43.6153784" lon="10.8448846"><ele>171.0</ele><time>2026-04-11T14:05:34.937Z</time></trkpt><trkpt lat="43.6153913" lon="10.844784"><ele>171.0</ele><time>2026-04-11T14:05:35.94Z</time></trkpt><trkpt lat="43.6153938" lon="10.8446948"><ele>171.33333333333334</ele><time>2026-04-11T14:05:36.925Z</time></trkpt><trkpt lat="43.6153873" lon="10.8445416"><ele>171.66666666666666</ele><time>2026-04-11T14:05:38.921Z</time></trkpt><trkpt lat="43.6153659" lon="10.8444579"><ele>172.0</ele><time>2026-04-11T14:05:39.92Z</time></trkpt><trkpt lat="43.6153284" lon="10.8443878"><ele>172.33333333333331</ele><time>2026-04-11T14:05:40.929Z</time></trkpt><trkpt lat="43.6152935" lon="10.8442907"><ele>172.66666666666666</ele><time>2026-04-11T14:05:41.933Z</time></trkpt><trkpt lat="43.6152588" lon="10.844194"><ele>173.0</ele><time>2026-04-11T14:05:42.927Z</time></trkpt><trkpt lat="43.6152312" lon="10.8440938"><ele>173.0</ele><time>2026-04-11T14:05:43.93Z</time></trkpt><trkpt lat="43.6152077" lon="10.8440026"><ele>173.0</ele><time>2026-04-11T14:05:44.928Z</time></trkpt><trkpt lat="43.6151726" lon="10.8439188"><ele>173.0</ele><time>2026-04-11T14:05:45.922Z</time></trkpt><trkpt lat="43.6151474" lon="10.8438353"><ele>173.0</ele><time>2026-04-11T14:05:46.937Z</time></trkpt><trkpt lat="43.6151197" lon="10.8437551"><ele>173.0</ele><time>2026-04-11T14:05:47.919Z</time></trkpt><trkpt lat="43.6150951" lon="10.8436711"><ele>173.0</ele><time>2026-04-11T14:05:48.928Z</time></trkpt><trkpt lat="43.6150623" lon="10.8435823"><ele>173.0</ele><time>2026-04-11T14:05:49.924Z</time></trkpt><trkpt lat="43.6150397" lon="10.8435006"><ele>172.16666666666666</ele><time>2026-04-11T14:05:50.928Z</time></trkpt><trkpt lat="43.6150043" lon="10.8433694"><ele>171.33333333333331</ele><time>2026-04-11T14:05:52.923Z</time></trkpt><trkpt lat="43.6150016" lon="10.8432296"><ele>170.5</ele><time>2026-04-11T14:05:54.916Z</time></trkpt><trkpt lat="43.6149948" lon="10.8431158"><ele>169.66666666666666</ele><time>2026-04-11T14:05:56.914Z</time></trkpt><trkpt lat="43.6149802" lon="10.8430039"><ele>168.83333333333334</ele><time>2026-04-11T14:06:00.933Z</time></trkpt><trkpt lat="43.6149685" lon="10.8428989"><ele>168.0</ele><time>2026-04-11T14:06:02.929Z</time></trkpt><trkpt lat="43.614965" lon="10.8427799"><ele>168.0</ele><time>2026-04-11T14:06:04.925Z</time></trkpt><trkpt lat="43.6149956" lon="10.8426859"><ele>168.0</ele><time>2026-04-11T14:06:07.932Z</time></trkpt><trkpt lat="43.6150825" lon="10.8426611"><ele>168.0</ele><time>2026-04-11T14:06:09.934Z</time></trkpt><trkpt lat="43.6151877" lon="10.8426168"><ele>168.0</ele><time>2026-04-11T14:06:11.933Z</time></trkpt><trkpt lat="43.6152429" lon="10.8425284"><ele>168.0</ele><time>2026-04-11T14:07:31.904Z</time></trkpt><trkpt lat="43.6151899" lon="10.8425757"><ele>168.0</ele><time>2026-04-11T14:07:39.908Z</time></trkpt><trkpt lat="43.6152298" lon="10.8424153"><ele>167.33333333333334</ele><time>2026-04-11T14:08:21.923Z</time></trkpt><trkpt lat="43.6152601" lon="10.8423305"><ele>166.66666666666666</ele><time>2026-04-11T14:08:22.899Z</time></trkpt><trkpt lat="43.6152956" lon="10.8422381"><ele>166.0</ele><time>2026-04-11T14:08:23.897Z</time></trkpt><trkpt lat="43.6153394" lon="10.8421272"><ele>165.33333333333331</ele><time>2026-04-11T14:08:25.895Z</time></trkpt><trkpt lat="43.6153502" lon="10.8420277"><ele>164.66666666666666</ele><time>2026-04-11T14:08:27.887Z</time></trkpt><trkpt lat="43.6154058" lon="10.8419431"><ele>164.0</ele><time>2026-04-11T14:08:30.894Z</time></trkpt><trkpt lat="43.6153453" lon="10.8418112"><ele>163.39999999999998</ele><time>2026-04-11T14:08:32.885Z</time></trkpt><trkpt lat="43.6153027" lon="10.8417082"><ele>162.8</ele><time>2026-04-11T14:08:34.891Z</time></trkpt><trkpt lat="43.6152302" lon="10.841594"><ele>162.2</ele><time>2026-04-11T14:08:36.905Z</time></trkpt><trkpt lat="43.6151547" lon="10.8414579"><ele>161.60000000000002</ele><time>2026-04-11T14:08:38.899Z</time></trkpt><trkpt lat="43.6151226" lon="10.8413106"><ele>161.0</ele><time>2026-04-11T14:08:40.894Z</time></trkpt><trkpt lat="43.6151054" lon="10.8411693"><ele>161.0</ele><time>2026-04-11T14:08:42.896Z</time></trkpt><trkpt lat="43.6150846" lon="10.841033"><ele>161.0</ele><time>2026-04-11T14:08:44.892Z</time></trkpt><trkpt lat="43.6150598" lon="10.8408602"><ele>161.0</ele><time>2026-04-11T14:08:46.895Z</time></trkpt><trkpt lat="43.6150352" lon="10.8407743"><ele>161.0</ele><time>2026-04-11T14:08:47.889Z</time></trkpt><trkpt lat="43.6150016" lon="10.8406275"><ele>161.0</ele><time>2026-04-11T14:08:49.893Z</time></trkpt><trkpt lat="43.6149694" lon="10.8404651"><ele>161.0</ele><time>2026-04-11T14:08:51.892Z</time></trkpt><trkpt lat="43.6149661" lon="10.8403723"><ele>161.0</ele><time>2026-04-11T14:08:52.909Z</time></trkpt><trkpt lat="43.6149729" lon="10.8402844"><ele>161.0</ele><time>2026-04-11T14:08:53.892Z</time></trkpt><trkpt lat="43.6149663" lon="10.8401923"><ele>161.0</ele><time>2026-04-11T14:08:54.893Z</time></trkpt><trkpt lat="43.6149595" lon="10.8400103"><ele>161.0</ele><time>2026-04-11T14:08:56.896Z</time></trkpt><trkpt lat="43.6149527" lon="10.8398655"><ele>161.0</ele><time>2026-04-11T14:08:58.901Z</time></trkpt><trkpt lat="43.6149598" lon="10.8397751"><ele>159.83333333333331</ele><time>2026-04-11T14:08:59.898Z</time></trkpt><trkpt lat="43.6149739" lon="10.8396778"><ele>158.66666666666666</ele><time>2026-04-11T14:09:00.898Z</time></trkpt><trkpt lat="43.6150076" lon="10.8395818"><ele>157.5</ele><time>2026-04-11T14:09:01.895Z</time></trkpt><trkpt lat="43.6150285" lon="10.8394846"><ele>156.33333333333334</ele><time>2026-04-11T14:09:02.895Z</time></trkpt><trkpt lat="43.6150449" lon="10.8393934"><ele>155.16666666666669</ele><time>2026-04-11T14:09:03.896Z</time></trkpt><trkpt lat="43.615079" lon="10.8392277"><ele>154.0</ele><time>2026-04-11T14:09:05.894Z</time></trkpt><trkpt lat="43.6151075" lon="10.8390799"><ele>153.2</ele><time>2026-04-11T14:09:07.892Z</time></trkpt><trkpt lat="43.6151315" lon="10.8389467"><ele>152.4</ele><time>2026-04-11T14:09:09.902Z</time></trkpt><trkpt lat="43.6151496" lon="10.8387832"><ele>151.6</ele><time>2026-04-11T14:09:11.89Z</time></trkpt><trkpt lat="43.6151479" lon="10.8386894"><ele>150.8</ele><time>2026-04-11T14:09:12.888Z</time></trkpt><trkpt lat="43.6151468" lon="10.8385928"><ele>150.0</ele><time>2026-04-11T14:09:13.887Z</time></trkpt><trkpt lat="43.6151221" lon="10.838417"><ele>150.0</ele><time>2026-04-11T14:09:15.892Z</time></trkpt><trkpt lat="43.6150972" lon="10.8383213"><ele>150.0</ele><time>2026-04-11T14:09:16.889Z</time></trkpt><trkpt lat="43.6150732" lon="10.8382074"><ele>150.0</ele><time>2026-04-11T14:09:17.89Z</time></trkpt><trkpt lat="43.6150555" lon="10.8381055"><ele>150.0</ele><time>2026-04-11T14:09:18.894Z</time></trkpt><trkpt lat="43.6150338" lon="10.8380011"><ele>150.0</ele><time>2026-04-11T14:09:19.896Z</time></trkpt><trkpt lat="43.615025" lon="10.8379124"><ele>150.0</ele><time>2026-04-11T14:09:20.892Z</time></trkpt><trkpt lat="43.61506" lon="10.8377488"><ele>150.0</ele><time>2026-04-11T14:09:22.888Z</time></trkpt><trkpt lat="43.6150777" lon="10.837662"><ele>150.0</ele><time>2026-04-11T14:09:23.911Z</time></trkpt><trkpt lat="43.6151105" lon="10.8375667"><ele>150.0</ele><time>2026-04-11T14:09:24.896Z</time></trkpt><trkpt lat="43.6151507" lon="10.8374785"><ele>150.0</ele><time>2026-04-11T14:09:25.893Z</time></trkpt><trkpt lat="43.6151868" lon="10.8373999"><ele>150.0</ele><time>2026-04-11T14:09:26.891Z</time></trkpt><trkpt lat="43.6152229" lon="10.8372183"><ele>150.0</ele><time>2026-04-11T14:09:28.891Z</time></trkpt><trkpt lat="43.6152324" lon="10.8371131"><ele>150.16666666666666</ele><time>2026-04-11T14:09:29.895Z</time></trkpt><trkpt lat="43.6152349" lon="10.8370115"><ele>150.33333333333334</ele><time>2026-04-11T14:09:30.892Z</time></trkpt><trkpt lat="43.615229" lon="10.8369218"><ele>150.5</ele><time>2026-04-11T14:09:31.898Z</time></trkpt><trkpt lat="43.6151875" lon="10.8367572"><ele>150.66666666666669</ele><time>2026-04-11T14:09:33.897Z</time></trkpt><trkpt lat="43.6151602" lon="10.8366589"><ele>150.83333333333334</ele><time>2026-04-11T14:09:34.899Z</time></trkpt><trkpt lat="43.6151348" lon="10.8365588"><ele>151.0</ele><time>2026-04-11T14:09:35.897Z</time></trkpt><trkpt lat="43.6150964" lon="10.8364612"><ele>149.66666666666669</ele><time>2026-04-11T14:09:36.895Z</time></trkpt><trkpt lat="43.6150671" lon="10.8363792"><ele>148.33333333333334</ele><time>2026-04-11T14:09:37.895Z</time></trkpt><trkpt lat="43.6150385" lon="10.8362973"><ele>147.0</ele><time>2026-04-11T14:09:38.897Z</time></trkpt><trkpt lat="43.6150015" lon="10.8362234"><ele>145.66666666666666</ele><time>2026-04-11T14:09:39.898Z</time></trkpt><trkpt lat="43.6149374" lon="10.836098"><ele>144.33333333333331</ele><time>2026-04-11T14:09:41.904Z</time></trkpt><trkpt lat="43.6148845" lon="10.8360009"><ele>143.0</ele><time>2026-04-11T14:09:43.911Z</time></trkpt><trkpt lat="43.6148234" lon="10.8358866"><ele>141.66666666666666</ele><time>2026-04-11T14:09:45.917Z</time></trkpt><trkpt lat="43.6147919" lon="10.8357613"><ele>140.33333333333331</ele><time>2026-04-11T14:09:47.912Z</time></trkpt><trkpt lat="43.6147503" lon="10.8356605"><ele>139.0</ele><time>2026-04-11T14:09:49.917Z</time></trkpt><trkpt lat="43.6147178" lon="10.835582"><ele>137.66666666666666</ele><time>2026-04-11T14:10:13.93Z</time></trkpt><trkpt lat="43.6147811" lon="10.8355267"><ele>136.33333333333334</ele><time>2026-04-11T14:10:43.922Z</time></trkpt><trkpt lat="43.6148113" lon="10.8353701"><ele>135.0</ele><time>2026-04-11T14:10:45.915Z</time></trkpt><trkpt lat="43.6148253" lon="10.8352192"><ele>135.0</ele><time>2026-04-11T14:10:47.916Z</time></trkpt><trkpt lat="43.6148611" lon="10.8350626"><ele>135.0</ele><time>2026-04-11T14:10:49.904Z</time></trkpt><trkpt lat="43.614902" lon="10.8349094"><ele>135.0</ele><time>2026-04-11T14:10:51.912Z</time></trkpt><trkpt lat="43.6149061" lon="10.834749"><ele>135.0</ele><time>2026-04-11T14:10:53.906Z</time></trkpt><trkpt lat="43.6149017" lon="10.8345831"><ele>135.0</ele><time>2026-04-11T14:10:55.905Z</time></trkpt><trkpt lat="43.614899" lon="10.8344246"><ele>135.0</ele><time>2026-04-11T14:10:57.901Z</time></trkpt><trkpt lat="43.6149385" lon="10.8342777"><ele>135.0</ele><time>2026-04-11T14:10:59.902Z</time></trkpt><trkpt lat="43.6149744" lon="10.8341299"><ele>135.0</ele><time>2026-04-11T14:11:01.917Z</time></trkpt><trkpt lat="43.6150334" lon="10.8340021"><ele>135.16666666666666</ele><time>2026-04-11T14:11:03.903Z</time></trkpt><trkpt lat="43.6150543" lon="10.8338746"><ele>135.33333333333334</ele><time>2026-04-11T14:11:05.904Z</time></trkpt><trkpt lat="43.615049" lon="10.8337812"><ele>135.5</ele><time>2026-04-11T14:11:06.907Z</time></trkpt><trkpt lat="43.6150396" lon="10.8336102"><ele>135.66666666666669</ele><time>2026-04-11T14:11:08.904Z</time></trkpt><trkpt lat="43.6150365" lon="10.833505"><ele>135.83333333333334</ele><time>2026-04-11T14:11:09.902Z</time></trkpt><trkpt lat="43.6150275" lon="10.833388"><ele>136.0</ele><time>2026-04-11T14:11:10.901Z</time></trkpt><trkpt lat="43.6150322" lon="10.8332833"><ele>136.0</ele><time>2026-04-11T14:11:11.918Z</time></trkpt><trkpt lat="43.6150386" lon="10.833168"><ele>136.0</ele><time>2026-04-11T14:11:12.908Z</time></trkpt><trkpt lat="43.6150467" lon="10.8330512"><ele>136.0</ele><time>2026-04-11T14:11:13.911Z</time></trkpt><trkpt lat="43.61505" lon="10.8329443"><ele>136.0</ele><time>2026-04-11T14:11:14.91Z</time></trkpt><trkpt lat="43.6150564" lon="10.8328526"><ele>136.0</ele><time>2026-04-11T14:11:15.907Z</time></trkpt><trkpt lat="43.6150994" lon="10.8326997"><ele>136.0</ele><time>2026-04-11T14:11:17.904Z</time></trkpt><trkpt lat="43.6151283" lon="10.8326105"><ele>136.7142857142857</ele><time>2026-04-11T14:11:18.907Z</time></trkpt><trkpt lat="43.6151461" lon="10.8325203"><ele>137.42857142857142</ele><time>2026-04-11T14:11:19.905Z</time></trkpt><trkpt lat="43.6151686" lon="10.8324375"><ele>138.14285714285714</ele><time>2026-04-11T14:11:20.907Z</time></trkpt><trkpt lat="43.6151747" lon="10.8323424"><ele>138.85714285714283</ele><time>2026-04-11T14:11:21.916Z</time></trkpt><trkpt lat="43.6151975" lon="10.8322439"><ele>139.57142857142856</ele><time>2026-04-11T14:11:22.908Z</time></trkpt><trkpt lat="43.6152219" lon="10.8321554"><ele>140.28571428571428</ele><time>2026-04-11T14:11:23.906Z</time></trkpt><trkpt lat="43.6152396" lon="10.8320437"><ele>141.0</ele><time>2026-04-11T14:11:24.908Z</time></trkpt><trkpt lat="43.6152645" lon="10.8319278"><ele>141.0</ele><time>2026-04-11T14:11:25.908Z</time></trkpt><trkpt lat="43.6152937" lon="10.8318293"><ele>141.0</ele><time>2026-04-11T14:11:26.908Z</time></trkpt><trkpt lat="43.6153344" lon="10.8317432"><ele>141.0</ele><time>2026-04-11T14:11:27.923Z</time></trkpt><trkpt lat="43.6153716" lon="10.8316699"><ele>141.0</ele><time>2026-04-11T14:11:28.906Z</time></trkpt><trkpt lat="43.6154361" lon="10.831543"><ele>141.0</ele><time>2026-04-11T14:11:30.903Z</time></trkpt><trkpt lat="43.6154807" lon="10.8313871"><ele>137.0</ele><time>2026-04-11T14:11:32.9Z</time></trkpt><trkpt lat="43.6155214" lon="10.8312524"><ele>133.0</ele><time>2026-04-11T14:11:34.901Z</time></trkpt><trkpt lat="43.6155555" lon="10.8311116"><ele>129.0</ele><time>2026-04-11T14:11:36.901Z</time></trkpt><trkpt lat="43.615619" lon="10.8310057"><ele>125.0</ele><time>2026-04-11T14:11:38.902Z</time></trkpt><trkpt lat="43.615682" lon="10.8308985"><ele>121.0</ele><time>2026-04-11T14:11:40.903Z</time></trkpt><trkpt lat="43.6157598" lon="10.8308435"><ele>121.0</ele><time>2026-04-11T14:11:42.914Z</time></trkpt><trkpt lat="43.6158382" lon="10.8307871"><ele>121.0</ele><time>2026-04-11T14:11:44.915Z</time></trkpt><trkpt lat="43.6158586" lon="10.8306934"><ele>121.0</ele><time>2026-04-11T14:11:46.918Z</time></trkpt><trkpt lat="43.6158682" lon="10.8305313"><ele>121.0</ele><time>2026-04-11T14:11:48.913Z</time></trkpt><trkpt lat="43.6159035" lon="10.8303687"><ele>121.0</ele><time>2026-04-11T14:11:50.912Z</time></trkpt><trkpt lat="43.6159223" lon="10.8302844"><ele>121.66666666666667</ele><time>2026-04-11T14:11:51.91Z</time></trkpt><trkpt lat="43.6159462" lon="10.8301054"><ele>122.33333333333334</ele><time>2026-04-11T14:11:53.912Z</time></trkpt><trkpt lat="43.6159589" lon="10.8300125"><ele>123.0</ele><time>2026-04-11T14:11:54.914Z</time></trkpt><trkpt lat="43.6159824" lon="10.8299155"><ele>123.66666666666666</ele><time>2026-04-11T14:11:55.908Z</time></trkpt><trkpt lat="43.6160054" lon="10.8298119"><ele>124.33333333333333</ele><time>2026-04-11T14:11:56.911Z</time></trkpt><trkpt lat="43.6160249" lon="10.8297116"><ele>125.0</ele><time>2026-04-11T14:11:57.914Z</time></trkpt><trkpt lat="43.6160405" lon="10.8296039"><ele>124.99999999999999</ele><time>2026-04-11T14:11:58.93Z</time></trkpt><trkpt lat="43.6160485" lon="10.8294924"><ele>125.0</ele><time>2026-04-11T14:11:59.908Z</time></trkpt><trkpt lat="43.6160541" lon="10.8293808"><ele>125.0</ele><time>2026-04-11T14:12:00.905Z</time></trkpt><trkpt lat="43.6160637" lon="10.8292853"><ele>125.0</ele><time>2026-04-11T14:12:01.905Z</time></trkpt><trkpt lat="43.616069" lon="10.8291783"><ele>124.99999999999999</ele><time>2026-04-11T14:12:02.917Z</time></trkpt><trkpt lat="43.6160609" lon="10.8290776"><ele>125.0</ele><time>2026-04-11T14:12:03.907Z</time></trkpt><trkpt lat="43.6160738" lon="10.8289612"><ele>125.4</ele><time>2026-04-11T14:12:04.907Z</time></trkpt><trkpt lat="43.6160817" lon="10.8288671"><ele>125.8</ele><time>2026-04-11T14:12:05.906Z</time></trkpt><trkpt lat="43.6161023" lon="10.8287812"><ele>126.19999999999999</ele><time>2026-04-11T14:12:06.905Z</time></trkpt><trkpt lat="43.6161808" lon="10.8286387"><ele>126.6</ele><time>2026-04-11T14:12:08.9Z</time></trkpt><trkpt lat="43.6162357" lon="10.8285763"><ele>127.0</ele><time>2026-04-11T14:12:09.902Z</time></trkpt><trkpt lat="43.6163372" lon="10.8284948"><ele>124.28571428571429</ele><time>2026-04-11T14:12:11.899Z</time></trkpt><trkpt lat="43.6163945" lon="10.8284547"><ele>121.57142857142857</ele><time>2026-04-11T14:12:12.914Z</time></trkpt><trkpt lat="43.6164671" lon="10.8284059"><ele>118.85714285714286</ele><time>2026-04-11T14:12:14.917Z</time></trkpt><trkpt lat="43.6165241" lon="10.8283521"><ele>116.14285714285714</ele><time>2026-04-11T14:12:17.916Z</time></trkpt><trkpt lat="43.6165796" lon="10.8282742"><ele>113.42857142857142</ele><time>2026-04-11T14:12:20.918Z</time></trkpt><trkpt lat="43.6166303" lon="10.8282055"><ele>110.71428571428571</ele><time>2026-04-11T14:12:22.923Z</time></trkpt><trkpt lat="43.6166725" lon="10.8281259"><ele>108.0</ele><time>2026-04-11T14:12:24.912Z</time></trkpt><trkpt lat="43.616733" lon="10.828017"><ele>108.0</ele><time>2026-04-11T14:12:26.924Z</time></trkpt><trkpt lat="43.6167692" lon="10.82793"><ele>108.0</ele><time>2026-04-11T14:12:27.914Z</time></trkpt><trkpt lat="43.6167983" lon="10.8278302"><ele>108.0</ele><time>2026-04-11T14:12:28.916Z</time></trkpt><trkpt lat="43.6168237" lon="10.8277186"><ele>108.0</ele><time>2026-04-11T14:12:29.933Z</time></trkpt><trkpt lat="43.6168463" lon="10.8276181"><ele>108.0</ele><time>2026-04-11T14:12:30.915Z</time></trkpt><trkpt lat="43.6168686" lon="10.8275287"><ele>108.0</ele><time>2026-04-11T14:12:31.914Z</time></trkpt><trkpt lat="43.6168924" lon="10.8273667"><ele>109.71428571428571</ele><time>2026-04-11T14:12:33.916Z</time></trkpt><trkpt lat="43.6169078" lon="10.8272715"><ele>111.42857142857142</ele><time>2026-04-11T14:12:34.914Z</time></trkpt><trkpt lat="43.6169205" lon="10.8271537"><ele>113.14285714285714</ele><time>2026-04-11T14:12:35.919Z</time></trkpt><trkpt lat="43.6169354" lon="10.8270517"><ele>114.85714285714286</ele><time>2026-04-11T14:12:36.911Z</time></trkpt><trkpt lat="43.6169327" lon="10.8269544"><ele>116.57142857142857</ele><time>2026-04-11T14:12:37.925Z</time></trkpt><trkpt lat="43.6169426" lon="10.8268623"><ele>118.28571428571429</ele><time>2026-04-11T14:12:38.921Z</time></trkpt><trkpt lat="43.6169536" lon="10.8267613"><ele>120.0</ele><time>2026-04-11T14:12:39.921Z</time></trkpt><trkpt lat="43.6169658" lon="10.826658"><ele>121.5</ele><time>2026-04-11T14:12:40.918Z</time></trkpt><trkpt lat="43.6169771" lon="10.8265515"><ele>123.0</ele><time>2026-04-11T14:12:41.92Z</time></trkpt><trkpt lat="43.6169883" lon="10.8264417"><ele>124.5</ele><time>2026-04-11T14:12:42.927Z</time></trkpt><trkpt lat="43.6169906" lon="10.8263492"><ele>126.0</ele><time>2026-04-11T14:12:43.915Z</time></trkpt><trkpt lat="43.6169906" lon="10.8262494"><ele>127.5</ele><time>2026-04-11T14:12:44.916Z</time></trkpt><trkpt lat="43.6169865" lon="10.8261453"><ele>129.0</ele><time>2026-04-11T14:12:45.913Z</time></trkpt><trkpt lat="43.6169896" lon="10.8260309"><ele>128.4</ele><time>2026-04-11T14:12:46.915Z</time></trkpt><trkpt lat="43.6169842" lon="10.8259079"><ele>127.80000000000001</ele><time>2026-04-11T14:12:47.917Z</time></trkpt><trkpt lat="43.6169851" lon="10.8257877"><ele>127.19999999999999</ele><time>2026-04-11T14:12:48.921Z</time></trkpt><trkpt lat="43.6169929" lon="10.825654"><ele>126.6</ele><time>2026-04-11T14:12:51Z</time></trkpt><trkpt lat="43.6170045" lon="10.8255277"><ele>126.0</ele><time>2026-04-11T14:12:51.997Z</time></trkpt><trkpt lat="43.6170156" lon="10.8253997"><ele>120.83333333333333</ele><time>2026-04-11T14:12:53.006Z</time></trkpt><trkpt lat="43.6170257" lon="10.8252767"><ele>115.66666666666667</ele><time>2026-04-11T14:12:53.994Z</time></trkpt><trkpt lat="43.6170399" lon="10.8251636"><ele>110.5</ele><time>2026-04-11T14:12:54.995Z</time></trkpt><trkpt lat="43.6170531" lon="10.8250352"><ele>105.33333333333334</ele><time>2026-04-11T14:12:55.992Z</time></trkpt><trkpt lat="43.6170679" lon="10.8249126"><ele>100.16666666666667</ele><time>2026-04-11T14:12:56.992Z</time></trkpt><trkpt lat="43.6170844" lon="10.8248006"><ele>95.0</ele><time>2026-04-11T14:12:57.997Z</time></trkpt><trkpt lat="43.617102" lon="10.8246949"><ele>94.85714285714286</ele><time>2026-04-11T14:12:58.977Z</time></trkpt><trkpt lat="43.6171179" lon="10.824606"><ele>94.71428571428572</ele><time>2026-04-11T14:12:59.984Z</time></trkpt><trkpt lat="43.6171518" lon="10.8244573"><ele>94.57142857142857</ele><time>2026-04-11T14:13:01.978Z</time></trkpt><trkpt lat="43.6171867" lon="10.8243761"><ele>94.42857142857143</ele><time>2026-04-11T14:13:03.019Z</time></trkpt><trkpt lat="43.6172144" lon="10.8242901"><ele>94.28571428571428</ele><time>2026-04-11T14:13:03.993Z</time></trkpt><trkpt lat="43.6172437" lon="10.8242111"><ele>94.14285714285714</ele><time>2026-04-11T14:13:04.996Z</time></trkpt><trkpt lat="43.6172773" lon="10.8241369"><ele>94.0</ele><time>2026-04-11T14:13:05.996Z</time></trkpt><trkpt lat="43.6173501" lon="10.8240056"><ele>95.4</ele><time>2026-04-11T14:13:07.994Z</time></trkpt><trkpt lat="43.6174219" lon="10.8238948"><ele>96.80000000000001</ele><time>2026-04-11T14:13:09.974Z</time></trkpt><trkpt lat="43.6174855" lon="10.8237934"><ele>98.19999999999999</ele><time>2026-04-11T14:13:11.976Z</time></trkpt><trkpt lat="43.6175518" lon="10.8236859"><ele>99.6</ele><time>2026-04-11T14:13:13.994Z</time></trkpt><trkpt lat="43.6176232" lon="10.8235631"><ele>101.0</ele><time>2026-04-11T14:13:16.005Z</time></trkpt><trkpt lat="43.6176741" lon="10.8234536"><ele>98.8</ele><time>2026-04-11T14:13:17.985Z</time></trkpt><trkpt lat="43.617714" lon="10.8233539"><ele>96.6</ele><time>2026-04-11T14:13:19.989Z</time></trkpt><trkpt lat="43.617754" lon="10.82322"><ele>94.4</ele><time>2026-04-11T14:13:22.007Z</time></trkpt><trkpt lat="43.6177898" lon="10.8230971"><ele>92.2</ele><time>2026-04-11T14:13:24.002Z</time></trkpt><trkpt lat="43.6178207" lon="10.8229858"><ele>90.0</ele><time>2026-04-11T14:13:26.005Z</time></trkpt><trkpt lat="43.6178525" lon="10.8228681"><ele>90.0</ele><time>2026-04-11T14:13:28.004Z</time></trkpt><trkpt lat="43.6178972" lon="10.8227214"><ele>90.0</ele><time>2026-04-11T14:13:29.989Z</time></trkpt><trkpt lat="43.6179449" lon="10.8226033"><ele>90.0</ele><time>2026-04-11T14:13:32.008Z</time></trkpt><trkpt lat="43.6179936" lon="10.8224962"><ele>90.0</ele><time>2026-04-11T14:13:34Z</time></trkpt><trkpt lat="43.6180595" lon="10.8224282"><ele>90.0</ele><time>2026-04-11T14:13:36.004Z</time></trkpt><trkpt lat="43.6181336" lon="10.8224181"><ele>89.71428571428571</ele><time>2026-04-11T14:13:38.002Z</time></trkpt><trkpt lat="43.6182179" lon="10.8224113"><ele>89.42857142857143</ele><time>2026-04-11T14:13:39.992Z</time></trkpt><trkpt lat="43.6182836" lon="10.8224178"><ele>89.14285714285714</ele><time>2026-04-11T14:13:40.976Z</time></trkpt><trkpt lat="43.61835" lon="10.8224296"><ele>88.85714285714286</ele><time>2026-04-11T14:13:41.976Z</time></trkpt><trkpt lat="43.6184251" lon="10.8224388"><ele>88.57142857142857</ele><time>2026-04-11T14:13:42.985Z</time></trkpt><trkpt lat="43.6185" lon="10.8224496"><ele>88.28571428571429</ele><time>2026-04-11T14:13:43.979Z</time></trkpt><trkpt lat="43.6185726" lon="10.8224599"><ele>88.0</ele><time>2026-04-11T14:13:44.992Z</time></trkpt><trkpt lat="43.6186397" lon="10.822473"><ele>90.83333333333333</ele><time>2026-04-11T14:13:45.996Z</time></trkpt><trkpt lat="43.6187499" lon="10.8224757"><ele>93.66666666666666</ele><time>2026-04-11T14:13:47.991Z</time></trkpt><trkpt lat="43.6187969" lon="10.8224072"><ele>96.5</ele><time>2026-04-11T14:13:50.001Z</time></trkpt><trkpt lat="43.6188404" lon="10.8223036"><ele>99.33333333333333</ele><time>2026-04-11T14:13:52.001Z</time></trkpt><trkpt lat="43.6188841" lon="10.8222065"><ele>102.16666666666667</ele><time>2026-04-11T14:13:53.997Z</time></trkpt><trkpt lat="43.6189191" lon="10.8221246"><ele>105.0</ele><time>2026-04-11T14:13:55.993Z</time></trkpt><trkpt lat="43.618959" lon="10.8220354"><ele>105.0</ele><time>2026-04-11T14:13:58.001Z</time></trkpt><trkpt lat="43.6189961" lon="10.8219343"><ele>105.0</ele><time>2026-04-11T14:14:00Z</time></trkpt><trkpt lat="43.6190477" lon="10.8218113"><ele>105.0</ele><time>2026-04-11T14:14:01.992Z</time></trkpt><trkpt lat="43.619068" lon="10.821713"><ele>105.0</ele><time>2026-04-11T14:14:03.023Z</time></trkpt><trkpt lat="43.619097" lon="10.8216332"><ele>105.0</ele><time>2026-04-11T14:14:03.99Z</time></trkpt><trkpt lat="43.6191253" lon="10.8215537"><ele>105.0</ele><time>2026-04-11T14:14:04.987Z</time></trkpt><trkpt lat="43.6191744" lon="10.821398"><ele>102.0</ele><time>2026-04-11T14:14:06.976Z</time></trkpt><trkpt lat="43.6192365" lon="10.8212368"><ele>99.0</ele><time>2026-04-11T14:14:08.982Z</time></trkpt><trkpt lat="43.6192698" lon="10.8211505"><ele>96.0</ele><time>2026-04-11T14:14:09.974Z</time></trkpt><trkpt lat="43.6192984" lon="10.8210592"><ele>93.0</ele><time>2026-04-11T14:14:11.001Z</time></trkpt><trkpt lat="43.6193257" lon="10.8209743"><ele>90.0</ele><time>2026-04-11T14:14:11.996Z</time></trkpt><trkpt lat="43.6193561" lon="10.8208887"><ele>87.0</ele><time>2026-04-11T14:14:13.007Z</time></trkpt><trkpt lat="43.6193893" lon="10.8207946"><ele>87.0</ele><time>2026-04-11T14:14:13.998Z</time></trkpt><trkpt lat="43.6194194" lon="10.8207004"><ele>87.0</ele><time>2026-04-11T14:14:15.003Z</time></trkpt><trkpt lat="43.6194518" lon="10.8206073"><ele>87.0</ele><time>2026-04-11T14:14:15.999Z</time></trkpt><trkpt lat="43.619487" lon="10.8205166"><ele>87.0</ele><time>2026-04-11T14:14:17.004Z</time></trkpt><trkpt lat="43.6195218" lon="10.8204252"><ele>87.0</ele><time>2026-04-11T14:14:17.999Z</time></trkpt><trkpt lat="43.6195576" lon="10.8203317"><ele>87.0</ele><time>2026-04-11T14:14:19.001Z</time></trkpt><trkpt lat="43.6195928" lon="10.8202263"><ele>85.5</ele><time>2026-04-11T14:14:20.001Z</time></trkpt><trkpt lat="43.6196267" lon="10.8201207"><ele>84.0</ele><time>2026-04-11T14:14:21.003Z</time></trkpt><trkpt lat="43.6196593" lon="10.8200244"><ele>82.5</ele><time>2026-04-11T14:14:21.999Z</time></trkpt><trkpt lat="43.6196896" lon="10.8199289"><ele>81.0</ele><time>2026-04-11T14:14:23.01Z</time></trkpt><trkpt lat="43.6197196" lon="10.8198317"><ele>79.5</ele><time>2026-04-11T14:14:23.999Z</time></trkpt><trkpt lat="43.6197497" lon="10.8197305"><ele>78.0</ele><time>2026-04-11T14:14:24.998Z</time></trkpt><trkpt lat="43.6197803" lon="10.8196267"><ele>78.0</ele><time>2026-04-11T14:14:25.999Z</time></trkpt><trkpt lat="43.6198112" lon="10.8195201"><ele>78.0</ele><time>2026-04-11T14:14:27Z</time></trkpt><trkpt lat="43.6198429" lon="10.8194106"><ele>78.0</ele><time>2026-04-11T14:14:28.003Z</time></trkpt><trkpt lat="43.6198754" lon="10.819298"><ele>78.0</ele><time>2026-04-11T14:14:28.999Z</time></trkpt><trkpt lat="43.6199103" lon="10.819186"><ele>78.0</ele><time>2026-04-11T14:14:30.003Z</time></trkpt><trkpt lat="43.6199466" lon="10.8190754"><ele>78.0</ele><time>2026-04-11T14:14:31.002Z</time></trkpt><trkpt lat="43.6199796" lon="10.8189664"><ele>77.71428571428572</ele><time>2026-04-11T14:14:32.008Z</time></trkpt><trkpt lat="43.6200137" lon="10.818865"><ele>77.42857142857142</ele><time>2026-04-11T14:14:33.014Z</time></trkpt><trkpt lat="43.6200447" lon="10.8187718"><ele>77.14285714285714</ele><time>2026-04-11T14:14:34.044Z</time></trkpt><trkpt lat="43.6200748" lon="10.8186866"><ele>76.85714285714286</ele><time>2026-04-11T14:14:35Z</time></trkpt><trkpt lat="43.6201014" lon="10.8186065"><ele>76.57142857142858</ele><time>2026-04-11T14:14:36.004Z</time></trkpt><trkpt lat="43.6201272" lon="10.8185234"><ele>76.28571428571428</ele><time>2026-04-11T14:14:37.002Z</time></trkpt><trkpt lat="43.6201449" lon="10.818431"><ele>76.0</ele><time>2026-04-11T14:14:38.001Z</time></trkpt><trkpt lat="43.6201568" lon="10.8183367"><ele>75.83333333333333</ele><time>2026-04-11T14:14:39.003Z</time></trkpt><trkpt lat="43.6201591" lon="10.8182314"><ele>75.66666666666666</ele><time>2026-04-11T14:14:39.989Z</time></trkpt><trkpt lat="43.6201537" lon="10.8181298"><ele>75.5</ele><time>2026-04-11T14:14:40.989Z</time></trkpt><trkpt lat="43.6201383" lon="10.8180197"><ele>75.33333333333333</ele><time>2026-04-11T14:14:41.987Z</time></trkpt><trkpt lat="43.6201186" lon="10.8179091"><ele>75.16666666666667</ele><time>2026-04-11T14:14:43Z</time></trkpt><trkpt lat="43.6200952" lon="10.8177971"><ele>75.0</ele><time>2026-04-11T14:14:44.008Z</time></trkpt><trkpt lat="43.620071" lon="10.8176857"><ele>75.0</ele><time>2026-04-11T14:14:45.011Z</time></trkpt><trkpt lat="43.6200476" lon="10.8175787"><ele>75.0</ele><time>2026-04-11T14:14:46.007Z</time></trkpt><trkpt lat="43.6200242" lon="10.8174741"><ele>75.0</ele><time>2026-04-11T14:14:47.009Z</time></trkpt><trkpt lat="43.6199994" lon="10.8173702"><ele>75.0</ele><time>2026-04-11T14:14:48.01Z</time></trkpt><trkpt lat="43.6199749" lon="10.8172651"><ele>75.0</ele><time>2026-04-11T14:14:49.008Z</time></trkpt><trkpt lat="43.6199499" lon="10.8171585"><ele>75.0</ele><time>2026-04-11T14:14:50.004Z</time></trkpt><trkpt lat="43.6199227" lon="10.8170532"><ele>75.0</ele><time>2026-04-11T14:14:51.01Z</time></trkpt><trkpt lat="43.6198943" lon="10.816944"><ele>75.0</ele><time>2026-04-11T14:14:52.007Z</time></trkpt><trkpt lat="43.6198604" lon="10.8168275"><ele>75.0</ele><time>2026-04-11T14:14:53.01Z</time></trkpt><trkpt lat="43.6198266" lon="10.8167192"><ele>75.0</ele><time>2026-04-11T14:14:54.005Z</time></trkpt><trkpt lat="43.6197932" lon="10.8166199"><ele>75.0</ele><time>2026-04-11T14:14:55.007Z</time></trkpt><trkpt lat="43.6197616" lon="10.816525"><ele>75.0</ele><time>2026-04-11T14:14:56.007Z</time></trkpt><trkpt lat="43.6197299" lon="10.8164278"><ele>74.66666666666667</ele><time>2026-04-11T14:14:57.01Z</time></trkpt><trkpt lat="43.6197023" lon="10.816344"><ele>74.33333333333333</ele><time>2026-04-11T14:14:58.014Z</time></trkpt><trkpt lat="43.6196757" lon="10.816262"><ele>74.0</ele><time>2026-04-11T14:14:59.008Z</time></trkpt><trkpt lat="43.6196295" lon="10.8161227"><ele>73.66666666666666</ele><time>2026-04-11T14:15:00.968Z</time></trkpt><trkpt lat="43.6195751" lon="10.8160169"><ele>73.33333333333333</ele><time>2026-04-11T14:15:02.971Z</time></trkpt><trkpt lat="43.6195177" lon="10.8159563"><ele>73.0</ele><time>2026-04-11T14:15:04.971Z</time></trkpt><trkpt lat="43.6194692" lon="10.8158763"><ele>72.16666666666666</ele><time>2026-04-11T14:15:07.883Z</time></trkpt><trkpt lat="43.6194159" lon="10.8157935"><ele>71.33333333333333</ele><time>2026-04-11T14:15:10.884Z</time></trkpt><trkpt lat="43.619428" lon="10.8157037"><ele>70.5</ele><time>2026-04-11T14:15:20.886Z</time></trkpt><trkpt lat="43.6194893" lon="10.8155765"><ele>69.66666666666667</ele><time>2026-04-11T14:15:23.868Z</time></trkpt><trkpt lat="43.6195281" lon="10.8154896"><ele>68.83333333333334</ele><time>2026-04-11T14:15:24.879Z</time></trkpt><trkpt lat="43.6195706" lon="10.8153944"><ele>68.0</ele><time>2026-04-11T14:15:25.879Z</time></trkpt><trkpt lat="43.6196172" lon="10.8153141"><ele>68.0</ele><time>2026-04-11T14:15:26.88Z</time></trkpt><trkpt lat="43.6196601" lon="10.8152317"><ele>68.0</ele><time>2026-04-11T14:15:27.877Z</time></trkpt><trkpt lat="43.6197166" lon="10.8151236"><ele>68.0</ele><time>2026-04-11T14:15:28.877Z</time></trkpt><trkpt lat="43.6197843" lon="10.8150158"><ele>68.0</ele><time>2026-04-11T14:15:29.881Z</time></trkpt><trkpt lat="43.619852" lon="10.8149051"><ele>68.0</ele><time>2026-04-11T14:15:30.881Z</time></trkpt><trkpt lat="43.6199249" lon="10.8147839"><ele>67.75</ele><time>2026-04-11T14:15:31.88Z</time></trkpt><trkpt lat="43.6200048" lon="10.8146409"><ele>67.5</ele><time>2026-04-11T14:15:32.878Z</time></trkpt><trkpt lat="43.6200861" lon="10.8145064"><ele>67.25</ele><time>2026-04-11T14:15:33.877Z</time></trkpt><trkpt lat="43.6201709" lon="10.8143937"><ele>67.0</ele><time>2026-04-11T14:15:34.897Z</time></trkpt><trkpt lat="43.6202367" lon="10.8142828"><ele>67.0</ele><time>2026-04-11T14:15:35.877Z</time></trkpt><trkpt lat="43.6202988" lon="10.8141675"><ele>67.0</ele><time>2026-04-11T14:15:36.876Z</time></trkpt><trkpt lat="43.6203568" lon="10.8140717"><ele>67.0</ele><time>2026-04-11T14:15:37.873Z</time></trkpt><trkpt lat="43.620403" lon="10.8139791"><ele>67.0</ele><time>2026-04-11T14:15:38.871Z</time></trkpt><trkpt lat="43.6204342" lon="10.8138801"><ele>67.0</ele><time>2026-04-11T14:15:39.873Z</time></trkpt><trkpt lat="43.6204473" lon="10.8137777"><ele>67.0</ele><time>2026-04-11T14:15:40.868Z</time></trkpt><trkpt lat="43.6204419" lon="10.8136485"><ele>66.8</ele><time>2026-04-11T14:15:41.867Z</time></trkpt><trkpt lat="43.6204198" lon="10.8134976"><ele>66.6</ele><time>2026-04-11T14:15:42.872Z</time></trkpt><trkpt lat="43.6203974" lon="10.8133295"><ele>66.39999999999999</ele><time>2026-04-11T14:15:43.871Z</time></trkpt><trkpt lat="43.6203765" lon="10.8131786"><ele>66.2</ele><time>2026-04-11T14:15:44.87Z</time></trkpt><trkpt lat="43.6203526" lon="10.813047"><ele>66.0</ele><time>2026-04-11T14:15:45.869Z</time></trkpt><trkpt lat="43.6203507" lon="10.8129361"><ele>66.0</ele><time>2026-04-11T14:15:46.867Z</time></trkpt><trkpt lat="43.6203685" lon="10.8128287"><ele>66.0</ele><time>2026-04-11T14:15:47.867Z</time></trkpt><trkpt lat="43.6204254" lon="10.8127407"><ele>66.0</ele><time>2026-04-11T14:15:48.861Z</time></trkpt><trkpt lat="43.6204932" lon="10.8126539"><ele>66.0</ele><time>2026-04-11T14:15:49.864Z</time></trkpt><trkpt lat="43.6205807" lon="10.8125708"><ele>66.0</ele><time>2026-04-11T14:15:50.864Z</time></trkpt><trkpt lat="43.6206759" lon="10.8124832"><ele>66.0</ele><time>2026-04-11T14:15:51.86Z</time></trkpt><trkpt lat="43.620792" lon="10.8124162"><ele>66.0</ele><time>2026-04-11T14:15:52.861Z</time></trkpt><trkpt lat="43.6209057" lon="10.812366"><ele>66.0</ele><time>2026-04-11T14:15:53.857Z</time></trkpt><trkpt lat="43.621012" lon="10.8123453"><ele>66.0</ele><time>2026-04-11T14:15:54.858Z</time></trkpt><trkpt lat="43.6211191" lon="10.8123403"><ele>65.6</ele><time>2026-04-11T14:15:55.854Z</time></trkpt><trkpt lat="43.6212139" lon="10.8123598"><ele>65.19999999999999</ele><time>2026-04-11T14:15:56.861Z</time></trkpt><trkpt lat="43.6213146" lon="10.8123638"><ele>64.80000000000001</ele><time>2026-04-11T14:15:57.866Z</time></trkpt><trkpt lat="43.6214075" lon="10.8123556"><ele>64.4</ele><time>2026-04-11T14:15:58.868Z</time></trkpt><trkpt lat="43.621486" lon="10.8123246"><ele>64.0</ele><time>2026-04-11T14:15:59.86Z</time></trkpt><trkpt lat="43.6215596" lon="10.8122681"><ele>64.0</ele><time>2026-04-11T14:16:00.863Z</time></trkpt><trkpt lat="43.6216328" lon="10.8121617"><ele>64.0</ele><time>2026-04-11T14:16:01.86Z</time></trkpt><trkpt lat="43.6216879" lon="10.8120301"><ele>64.0</ele><time>2026-04-11T14:16:02.872Z</time></trkpt><trkpt lat="43.6217363" lon="10.8118835"><ele>64.0</ele><time>2026-04-11T14:16:03.866Z</time></trkpt><trkpt lat="43.6218004" lon="10.8117176"><ele>64.0</ele><time>2026-04-11T14:16:04.869Z</time></trkpt><trkpt lat="43.6218851" lon="10.8115613"><ele>64.0</ele><time>2026-04-11T14:16:05.891Z</time></trkpt><trkpt lat="43.6219768" lon="10.8113896"><ele>64.0</ele><time>2026-04-11T14:16:06.874Z</time></trkpt><trkpt lat="43.6220619" lon="10.8112373"><ele>64.0</ele><time>2026-04-11T14:16:07.874Z</time></trkpt><trkpt lat="43.6221437" lon="10.8110951"><ele>64.75</ele><time>2026-04-11T14:16:08.872Z</time></trkpt><trkpt lat="43.6222256" lon="10.8109608"><ele>65.5</ele><time>2026-04-11T14:16:09.877Z</time></trkpt><trkpt lat="43.6223154" lon="10.8108417"><ele>66.25</ele><time>2026-04-11T14:16:10.873Z</time></trkpt><trkpt lat="43.6223842" lon="10.8107313"><ele>67.0</ele><time>2026-04-11T14:16:11.87Z</time></trkpt><trkpt lat="43.622454" lon="10.8106086"><ele>67.0</ele><time>2026-04-11T14:16:12.871Z</time></trkpt><trkpt lat="43.6225123" lon="10.8104688"><ele>67.0</ele><time>2026-04-11T14:16:13.871Z</time></trkpt><trkpt lat="43.6225714" lon="10.8103012"><ele>67.0</ele><time>2026-04-11T14:16:14.862Z</time></trkpt><trkpt lat="43.6226411" lon="10.8101109"><ele>67.0</ele><time>2026-04-11T14:16:15.861Z</time></trkpt><trkpt lat="43.6227036" lon="10.8099309"><ele>66.75</ele><time>2026-04-11T14:16:16.867Z</time></trkpt><trkpt lat="43.6227499" lon="10.8096952"><ele>66.5</ele><time>2026-04-11T14:16:17.87Z</time></trkpt><trkpt lat="43.6228147" lon="10.8095168"><ele>66.25</ele><time>2026-04-11T14:16:18.867Z</time></trkpt><trkpt lat="43.6228549" lon="10.8093556"><ele>66.0</ele><time>2026-04-11T14:16:19.867Z</time></trkpt><trkpt lat="43.6228868" lon="10.8091855"><ele>66.0</ele><time>2026-04-11T14:16:20.871Z</time></trkpt><trkpt lat="43.6229118" lon="10.809025"><ele>66.0</ele><time>2026-04-11T14:16:21.868Z</time></trkpt><trkpt lat="43.6229808" lon="10.8088742"><ele>66.0</ele><time>2026-04-11T14:16:22.871Z</time></trkpt><trkpt lat="43.623062" lon="10.8087279"><ele>66.0</ele><time>2026-04-11T14:16:23.869Z</time></trkpt><trkpt lat="43.6231393" lon="10.8085942"><ele>67.0</ele><time>2026-04-11T14:16:24.872Z</time></trkpt><trkpt lat="43.6232213" lon="10.8084554"><ele>68.0</ele><time>2026-04-11T14:16:25.868Z</time></trkpt><trkpt lat="43.6232983" lon="10.8083306"><ele>69.0</ele><time>2026-04-11T14:16:26.873Z</time></trkpt><trkpt lat="43.6233669" lon="10.8082196"><ele>70.0</ele><time>2026-04-11T14:16:27.878Z</time></trkpt><trkpt lat="43.6234295" lon="10.8080946"><ele>70.0</ele><time>2026-04-11T14:16:28.876Z</time></trkpt><trkpt lat="43.6234745" lon="10.8079599"><ele>70.0</ele><time>2026-04-11T14:16:29.87Z</time></trkpt><trkpt lat="43.6234953" lon="10.807819"><ele>70.0</ele><time>2026-04-11T14:16:30.869Z</time></trkpt><trkpt lat="43.6235147" lon="10.8077018"><ele>70.0</ele><time>2026-04-11T14:16:31.874Z</time></trkpt><trkpt lat="43.623547" lon="10.8076018"><ele>70.0</ele><time>2026-04-11T14:16:32.87Z</time></trkpt><trkpt lat="43.6235927" lon="10.807519"><ele>68.25</ele><time>2026-04-11T14:16:33.871Z</time></trkpt><trkpt lat="43.6236564" lon="10.8074237"><ele>66.5</ele><time>2026-04-11T14:16:34.875Z</time></trkpt><trkpt lat="43.6237383" lon="10.8073113"><ele>64.75</ele><time>2026-04-11T14:16:35.876Z</time></trkpt><trkpt lat="43.6238183" lon="10.8071746"><ele>63.0</ele><time>2026-04-11T14:16:36.893Z</time></trkpt><trkpt lat="43.6238892" lon="10.8070357"><ele>63.0</ele><time>2026-04-11T14:16:37.875Z</time></trkpt><trkpt lat="43.6239564" lon="10.8068901"><ele>63.0</ele><time>2026-04-11T14:16:38.879Z</time></trkpt><trkpt lat="43.6240237" lon="10.8067347"><ele>63.0</ele><time>2026-04-11T14:16:39.88Z</time></trkpt><trkpt lat="43.6240845" lon="10.8065742"><ele>63.0</ele><time>2026-04-11T14:16:40.878Z</time></trkpt><trkpt lat="43.6241262" lon="10.8064055"><ele>64.0</ele><time>2026-04-11T14:16:41.876Z</time></trkpt><trkpt lat="43.6241563" lon="10.8062297"><ele>65.0</ele><time>2026-04-11T14:16:42.87Z</time></trkpt><trkpt lat="43.6241757" lon="10.8060811"><ele>66.0</ele><time>2026-04-11T14:16:43.872Z</time></trkpt><trkpt lat="43.6242046" lon="10.8059627"><ele>67.0</ele><time>2026-04-11T14:16:44.867Z</time></trkpt><trkpt lat="43.6242561" lon="10.8058567"><ele>68.0</ele><time>2026-04-11T14:16:45.867Z</time></trkpt><trkpt lat="43.6243295" lon="10.8057765"><ele>67.0</ele><time>2026-04-11T14:16:46.865Z</time></trkpt><trkpt lat="43.6244226" lon="10.8056862"><ele>66.0</ele><time>2026-04-11T14:16:47.865Z</time></trkpt><trkpt lat="43.6245329" lon="10.8055944"><ele>65.0</ele><time>2026-04-11T14:16:48.864Z</time></trkpt><trkpt lat="43.6246587" lon="10.8054883"><ele>64.0</ele><time>2026-04-11T14:16:49.863Z</time></trkpt><trkpt lat="43.6247726" lon="10.8053619"><ele>64.0</ele><time>2026-04-11T14:16:50.861Z</time></trkpt><trkpt lat="43.6248787" lon="10.8052095"><ele>64.0</ele><time>2026-04-11T14:16:51.866Z</time></trkpt><trkpt lat="43.6249979" lon="10.805071"><ele>64.0</ele><time>2026-04-11T14:16:52.86Z</time></trkpt><trkpt lat="43.6250947" lon="10.8049447"><ele>64.0</ele><time>2026-04-11T14:16:53.867Z</time></trkpt><trkpt lat="43.625166" lon="10.8048619"><ele>63.800000000000004</ele><time>2026-04-11T14:16:54.863Z</time></trkpt><trkpt lat="43.6252397" lon="10.8047601"><ele>63.60000000000001</ele><time>2026-04-11T14:16:55.864Z</time></trkpt><trkpt lat="43.6253012" lon="10.8046558"><ele>63.4</ele><time>2026-04-11T14:16:56.866Z</time></trkpt><trkpt lat="43.6253562" lon="10.8045207"><ele>63.2</ele><time>2026-04-11T14:16:57.87Z</time></trkpt><trkpt lat="43.6254172" lon="10.8043803"><ele>63.0</ele><time>2026-04-11T14:16:58.861Z</time></trkpt><trkpt lat="43.625476" lon="10.8042101"><ele>63.0</ele><time>2026-04-11T14:16:59.859Z</time></trkpt><trkpt lat="43.6255416" lon="10.8040183"><ele>63.0</ele><time>2026-04-11T14:17:00.862Z</time></trkpt><trkpt lat="43.6256246" lon="10.8038355"><ele>63.0</ele><time>2026-04-11T14:17:01.867Z</time></trkpt><trkpt lat="43.625721" lon="10.803675"><ele>63.0</ele><time>2026-04-11T14:17:02.87Z</time></trkpt><trkpt lat="43.6258082" lon="10.8035139"><ele>63.0</ele><time>2026-04-11T14:17:03.868Z</time></trkpt><trkpt lat="43.6258974" lon="10.8033727"><ele>63.0</ele><time>2026-04-11T14:17:04.866Z</time></trkpt><trkpt lat="43.6260032" lon="10.8032296"><ele>63.0</ele><time>2026-04-11T14:17:05.867Z</time></trkpt><trkpt lat="43.6260944" lon="10.8031093"><ele>62.8</ele><time>2026-04-11T14:17:06.887Z</time></trkpt><trkpt lat="43.6261626" lon="10.8029858"><ele>62.599999999999994</ele><time>2026-04-11T14:17:07.895Z</time></trkpt><trkpt lat="43.6262247" lon="10.8028673"><ele>62.400000000000006</ele><time>2026-04-11T14:17:09.958Z</time></trkpt><trkpt lat="43.6262725" lon="10.8027694"><ele>62.2</ele><time>2026-04-11T14:17:10.96Z</time></trkpt><trkpt lat="43.6263063" lon="10.802667"><ele>62.0</ele><time>2026-04-11T14:17:11.941Z</time></trkpt><trkpt lat="43.6263229" lon="10.8025613"><ele>62.0</ele><time>2026-04-11T14:17:12.939Z</time></trkpt><trkpt lat="43.626332" lon="10.8024435"><ele>62.0</ele><time>2026-04-11T14:17:13.944Z</time></trkpt><trkpt lat="43.6263342" lon="10.8023179"><ele>62.0</ele><time>2026-04-11T14:17:14.94Z</time></trkpt><trkpt lat="43.6263333" lon="10.8021835"><ele>62.0</ele><time>2026-04-11T14:17:15.954Z</time></trkpt><trkpt lat="43.6263286" lon="10.8020383"><ele>62.0</ele><time>2026-04-11T14:17:16.954Z</time></trkpt><trkpt lat="43.6263194" lon="10.8018749"><ele>62.8</ele><time>2026-04-11T14:17:17.952Z</time></trkpt><trkpt lat="43.6263172" lon="10.8017234"><ele>63.6</ele><time>2026-04-11T14:17:18.954Z</time></trkpt><trkpt lat="43.6263322" lon="10.8015837"><ele>64.39999999999999</ele><time>2026-04-11T14:17:19.952Z</time></trkpt><trkpt lat="43.6263127" lon="10.8013976"><ele>65.2</ele><time>2026-04-11T14:17:20.94Z</time></trkpt><trkpt lat="43.6263663" lon="10.8012794"><ele>66.0</ele><time>2026-04-11T14:17:21.938Z</time></trkpt><trkpt lat="43.626449" lon="10.8011952"><ele>66.0</ele><time>2026-04-11T14:17:22.944Z</time></trkpt><trkpt lat="43.6265544" lon="10.8011149"><ele>66.0</ele><time>2026-04-11T14:17:23.944Z</time></trkpt><trkpt lat="43.6266673" lon="10.8010314"><ele>66.0</ele><time>2026-04-11T14:17:24.965Z</time></trkpt><trkpt lat="43.6267611" lon="10.8009556"><ele>66.0</ele><time>2026-04-11T14:17:25.96Z</time></trkpt><trkpt lat="43.626856" lon="10.8008808"><ele>67.6</ele><time>2026-04-11T14:17:26.96Z</time></trkpt><trkpt lat="43.6269432" lon="10.8008056"><ele>69.19999999999999</ele><time>2026-04-11T14:17:27.964Z</time></trkpt><trkpt lat="43.6270216" lon="10.8007156"><ele>70.80000000000001</ele><time>2026-04-11T14:17:28.963Z</time></trkpt><trkpt lat="43.6270928" lon="10.8006168"><ele>72.4</ele><time>2026-04-11T14:17:29.944Z</time></trkpt><trkpt lat="43.6271559" lon="10.8004993"><ele>74.0</ele><time>2026-04-11T14:17:30.948Z</time></trkpt><trkpt lat="43.6272119" lon="10.8003643"><ele>71.0</ele><time>2026-04-11T14:17:31.94Z</time></trkpt><trkpt lat="43.6272525" lon="10.8002129"><ele>68.0</ele><time>2026-04-11T14:17:32.943Z</time></trkpt><trkpt lat="43.6272788" lon="10.8000424"><ele>65.0</ele><time>2026-04-11T14:17:33.955Z</time></trkpt><trkpt lat="43.6272924" lon="10.7998599"><ele>62.0</ele><time>2026-04-11T14:17:34.959Z</time></trkpt><trkpt lat="43.6273026" lon="10.7996699"><ele>62.0</ele><time>2026-04-11T14:17:35.958Z</time></trkpt><trkpt lat="43.6273132" lon="10.7994931"><ele>62.0</ele><time>2026-04-11T14:17:36.949Z</time></trkpt><trkpt lat="43.6273268" lon="10.7993399"><ele>62.0</ele><time>2026-04-11T14:17:37.956Z</time></trkpt><trkpt lat="43.6273437" lon="10.7992195"><ele>62.0</ele><time>2026-04-11T14:17:38.971Z</time></trkpt><trkpt lat="43.627368" lon="10.7991348"><ele>62.0</ele><time>2026-04-11T14:17:39.936Z</time></trkpt><trkpt lat="43.6274541" lon="10.7990417"><ele>61.8</ele><time>2026-04-11T14:17:41.931Z</time></trkpt><trkpt lat="43.6275103" lon="10.7989999"><ele>61.6</ele><time>2026-04-11T14:17:42.933Z</time></trkpt><trkpt lat="43.6275798" lon="10.7989225"><ele>61.39999999999999</ele><time>2026-04-11T14:17:44.944Z</time></trkpt><trkpt lat="43.6276654" lon="10.7987694"><ele>61.199999999999996</ele><time>2026-04-11T14:17:46.926Z</time></trkpt><trkpt lat="43.6277243" lon="10.7986518"><ele>61.0</ele><time>2026-04-11T14:17:47.923Z</time></trkpt><trkpt lat="43.6277909" lon="10.7985287"><ele>60.0</ele><time>2026-04-11T14:17:48.929Z</time></trkpt><trkpt lat="43.6278276" lon="10.7984215"><ele>59.0</ele><time>2026-04-11T14:17:49.953Z</time></trkpt><trkpt lat="43.6279783" lon="10.7979972"><ele>58.0</ele><time>2026-04-11T14:17:50.951Z</time></trkpt><trkpt lat="43.6280208" lon="10.7978085"><ele>60.0</ele><time>2026-04-11T14:17:51.956Z</time></trkpt><trkpt lat="43.6280677" lon="10.7976175"><ele>62.0</ele><time>2026-04-11T14:17:52.96Z</time></trkpt><trkpt lat="43.6281033" lon="10.7974229"><ele>64.0</ele><time>2026-04-11T14:17:53.954Z</time></trkpt><trkpt lat="43.6281453" lon="10.7972568"><ele>66.0</ele><time>2026-04-11T14:17:54.955Z</time></trkpt><trkpt lat="43.6281904" lon="10.7971144"><ele>66.0</ele><time>2026-04-11T14:17:55.95Z</time></trkpt><trkpt lat="43.6282468" lon="10.7969875"><ele>66.0</ele><time>2026-04-11T14:17:56.935Z</time></trkpt><trkpt lat="43.6283236" lon="10.7968822"><ele>66.0</ele><time>2026-04-11T14:17:57.944Z</time></trkpt><trkpt lat="43.6284135" lon="10.7968124"><ele>66.0</ele><time>2026-04-11T14:17:58.944Z</time></trkpt><trkpt lat="43.6285013" lon="10.7967493"><ele>66.0</ele><time>2026-04-11T14:17:59.941Z</time></trkpt><trkpt lat="43.6285814" lon="10.796677"><ele>64.39999999999999</ele><time>2026-04-11T14:18:00.951Z</time></trkpt><trkpt lat="43.6286467" lon="10.7965984"><ele>62.8</ele><time>2026-04-11T14:18:01.946Z</time></trkpt><trkpt lat="43.6287359" lon="10.7964972"><ele>61.199999999999996</ele><time>2026-04-11T14:18:02.936Z</time></trkpt><trkpt lat="43.628804" lon="10.7963854"><ele>59.599999999999994</ele><time>2026-04-11T14:18:03.936Z</time></trkpt><trkpt lat="43.62886" lon="10.7962495"><ele>58.0</ele><time>2026-04-11T14:18:04.938Z</time></trkpt><trkpt lat="43.6289069" lon="10.7961046"><ele>58.599999999999994</ele><time>2026-04-11T14:18:05.933Z</time></trkpt><trkpt lat="43.6289507" lon="10.7959656"><ele>59.199999999999996</ele><time>2026-04-11T14:18:06.945Z</time></trkpt><trkpt lat="43.6290029" lon="10.795843"><ele>59.8</ele><time>2026-04-11T14:18:07.946Z</time></trkpt><trkpt lat="43.6290644" lon="10.7957515"><ele>60.4</ele><time>2026-04-11T14:18:08.937Z</time></trkpt><trkpt lat="43.6291289" lon="10.7956806"><ele>61.0</ele><time>2026-04-11T14:18:09.954Z</time></trkpt><trkpt lat="43.6291992" lon="10.7956374"><ele>60.99999999999999</ele><time>2026-04-11T14:18:10.936Z</time></trkpt><trkpt lat="43.6292766" lon="10.7956271"><ele>61.0</ele><time>2026-04-11T14:18:11.93Z</time></trkpt><trkpt lat="43.6293553" lon="10.7956423"><ele>61.0</ele><time>2026-04-11T14:18:12.944Z</time></trkpt><trkpt lat="43.6294322" lon="10.7956509"><ele>61.0</ele><time>2026-04-11T14:18:13.948Z</time></trkpt><trkpt lat="43.6295223" lon="10.7955878"><ele>60.99999999999999</ele><time>2026-04-11T14:18:15.946Z</time></trkpt><trkpt lat="43.6295632" lon="10.7955191"><ele>61.0</ele><time>2026-04-11T14:18:16.936Z</time></trkpt><trkpt lat="43.6296013" lon="10.7953281"><ele>60.25</ele><time>2026-04-11T14:18:18.937Z</time></trkpt><trkpt lat="43.6296196" lon="10.7951974"><ele>59.5</ele><time>2026-04-11T14:18:19.953Z</time></trkpt><trkpt lat="43.6296949" lon="10.7949198"><ele>58.75</ele><time>2026-04-11T14:18:21.949Z</time></trkpt><trkpt lat="43.6297254" lon="10.7947878"><ele>58.0</ele><time>2026-04-11T14:18:22.945Z</time></trkpt><trkpt lat="43.6297659" lon="10.7946744"><ele>58.0</ele><time>2026-04-11T14:18:23.93Z</time></trkpt><trkpt lat="43.629829" lon="10.7945698"><ele>58.0</ele><time>2026-04-11T14:18:24.93Z</time></trkpt><trkpt lat="43.6299104" lon="10.7944753"><ele>58.0</ele><time>2026-04-11T14:18:25.935Z</time></trkpt><trkpt lat="43.6300108" lon="10.7943882"><ele>58.0</ele><time>2026-04-11T14:18:26.94Z</time></trkpt><trkpt lat="43.6301233" lon="10.794327"><ele>58.0</ele><time>2026-04-11T14:18:27.956Z</time></trkpt><trkpt lat="43.6302457" lon="10.7942802"><ele>60.0</ele><time>2026-04-11T14:18:28.948Z</time></trkpt><trkpt lat="43.6303635" lon="10.7942493"><ele>62.0</ele><time>2026-04-11T14:18:29.929Z</time></trkpt><trkpt lat="43.6304853" lon="10.7942344"><ele>64.0</ele><time>2026-04-11T14:18:30.929Z</time></trkpt><trkpt lat="43.6306009" lon="10.7942469"><ele>66.0</ele><time>2026-04-11T14:18:31.93Z</time></trkpt><trkpt lat="43.6307082" lon="10.7942511"><ele>66.0</ele><time>2026-04-11T14:18:32.928Z</time></trkpt><trkpt lat="43.6308089" lon="10.7942168"><ele>66.0</ele><time>2026-04-11T14:18:33.939Z</time></trkpt><trkpt lat="43.6308991" lon="10.7941714"><ele>66.0</ele><time>2026-04-11T14:18:34.942Z</time></trkpt><trkpt lat="43.6309842" lon="10.7941115"><ele>66.0</ele><time>2026-04-11T14:18:35.932Z</time></trkpt><trkpt lat="43.6310725" lon="10.7940298"><ele>66.0</ele><time>2026-04-11T14:18:36.93Z</time></trkpt><trkpt lat="43.6311735" lon="10.793924"><ele>67.0</ele><time>2026-04-11T14:18:37.932Z</time></trkpt><trkpt lat="43.6312777" lon="10.7938008"><ele>68.0</ele><time>2026-04-11T14:18:38.93Z</time></trkpt><trkpt lat="43.6313739" lon="10.7936876"><ele>69.0</ele><time>2026-04-11T14:18:39.942Z</time></trkpt><trkpt lat="43.6315149" lon="10.793554"><ele>70.0</ele><time>2026-04-11T14:18:40.959Z</time></trkpt><trkpt lat="43.6316305" lon="10.7934308"><ele>70.0</ele><time>2026-04-11T14:18:41.939Z</time></trkpt><trkpt lat="43.6317222" lon="10.7933433"><ele>70.0</ele><time>2026-04-11T14:18:42.938Z</time></trkpt><trkpt lat="43.6318003" lon="10.7932752"><ele>70.0</ele><time>2026-04-11T14:18:43.939Z</time></trkpt><trkpt lat="43.6318675" lon="10.7932363"><ele>70.0</ele><time>2026-04-11T14:18:44.942Z</time></trkpt><trkpt lat="43.6319636" lon="10.7932619"><ele>70.0</ele><time>2026-04-11T14:18:46.935Z</time></trkpt><trkpt lat="43.6320211" lon="10.7933057"><ele>70.0</ele><time>2026-04-11T14:18:47.938Z</time></trkpt><trkpt lat="43.6320945" lon="10.7933568"><ele>67.0</ele><time>2026-04-11T14:18:48.937Z</time></trkpt><trkpt lat="43.6321394" lon="10.7935089"><ele>64.0</ele><time>2026-04-11T14:18:49.961Z</time></trkpt><trkpt lat="43.6322198" lon="10.7936167"><ele>61.0</ele><time>2026-04-11T14:18:50.957Z</time></trkpt><trkpt lat="43.6323038" lon="10.7937016"><ele>58.0</ele><time>2026-04-11T14:18:51.949Z</time></trkpt><trkpt lat="43.632381" lon="10.793773"><ele>55.0</ele><time>2026-04-11T14:18:52.951Z</time></trkpt><trkpt lat="43.6324546" lon="10.7938038"><ele>55.0</ele><time>2026-04-11T14:18:53.946Z</time></trkpt><trkpt lat="43.6325188" lon="10.7937983"><ele>55.0</ele><time>2026-04-11T14:18:54.942Z</time></trkpt><trkpt lat="43.6326218" lon="10.7937223"><ele>55.0</ele><time>2026-04-11T14:18:56.942Z</time></trkpt><trkpt lat="43.6326942" lon="10.7936414"><ele>55.0</ele><time>2026-04-11T14:18:57.948Z</time></trkpt><trkpt lat="43.6327913" lon="10.7935312"><ele>55.0</ele><time>2026-04-11T14:18:58.962Z</time></trkpt><trkpt lat="43.6328918" lon="10.7934201"><ele>54.75</ele><time>2026-04-11T14:18:59.966Z</time></trkpt><trkpt lat="43.6329837" lon="10.793311"><ele>54.5</ele><time>2026-04-11T14:19:00.957Z</time></trkpt><trkpt lat="43.633064" lon="10.793204"><ele>54.25</ele><time>2026-04-11T14:19:01.956Z</time></trkpt><trkpt lat="43.6331334" lon="10.7930742"><ele>54.0</ele><time>2026-04-11T14:19:02.966Z</time></trkpt><trkpt lat="43.6333345" lon="10.7926254"><ele>53.75</ele><time>2026-04-11T14:19:04.858Z</time></trkpt><trkpt lat="43.6334125" lon="10.7924895"><ele>53.5</ele><time>2026-04-11T14:19:05.859Z</time></trkpt><trkpt lat="43.6335093" lon="10.7923457"><ele>53.25</ele><time>2026-04-11T14:19:06.858Z</time></trkpt><trkpt lat="43.6335993" lon="10.7921826"><ele>53.0</ele><time>2026-04-11T14:19:07.873Z</time></trkpt><trkpt lat="43.6336724" lon="10.7920116"><ele>53.75</ele><time>2026-04-11T14:19:08.872Z</time></trkpt><trkpt lat="43.6337483" lon="10.7918302"><ele>54.5</ele><time>2026-04-11T14:19:09.872Z</time></trkpt><trkpt lat="43.6338121" lon="10.7916604"><ele>55.25</ele><time>2026-04-11T14:19:10.869Z</time></trkpt><trkpt lat="43.6338606" lon="10.7915094"><ele>56.0</ele><time>2026-04-11T14:19:11.885Z</time></trkpt><trkpt lat="43.6339088" lon="10.7913306"><ele>56.0</ele><time>2026-04-11T14:19:12.864Z</time></trkpt><trkpt lat="43.6339482" lon="10.7911437"><ele>56.0</ele><time>2026-04-11T14:19:13.867Z</time></trkpt><trkpt lat="43.6339947" lon="10.7909625"><ele>56.0</ele><time>2026-04-11T14:19:14.864Z</time></trkpt><trkpt lat="43.6340448" lon="10.7907714"><ele>56.0</ele><time>2026-04-11T14:19:15.862Z</time></trkpt><trkpt lat="43.6340933" lon="10.7905973"><ele>55.5</ele><time>2026-04-11T14:19:16.862Z</time></trkpt><trkpt lat="43.6341646" lon="10.7904381"><ele>55.0</ele><time>2026-04-11T14:19:17.866Z</time></trkpt><trkpt lat="43.6342503" lon="10.7903089"><ele>54.5</ele><time>2026-04-11T14:19:18.867Z</time></trkpt><trkpt lat="43.6343675" lon="10.7901422"><ele>54.0</ele><time>2026-04-11T14:19:19.867Z</time></trkpt><trkpt lat="43.6344912" lon="10.7899746"><ele>53.0</ele><time>2026-04-11T14:19:20.869Z</time></trkpt><trkpt lat="43.6346248" lon="10.7898312"><ele>52.0</ele><time>2026-04-11T14:19:21.871Z</time></trkpt><trkpt lat="43.6347305" lon="10.7897032"><ele>51.0</ele><time>2026-04-11T14:19:22.87Z</time></trkpt><trkpt lat="43.6348494" lon="10.7895789"><ele>51.0</ele><time>2026-04-11T14:19:23.87Z</time></trkpt><trkpt lat="43.6349803" lon="10.7894963"><ele>51.0</ele><time>2026-04-11T14:19:24.869Z</time></trkpt><trkpt lat="43.6351015" lon="10.789465"><ele>51.0</ele><time>2026-04-11T14:19:25.872Z</time></trkpt><trkpt lat="43.6352168" lon="10.7894118"><ele>51.0</ele><time>2026-04-11T14:19:26.876Z</time></trkpt><trkpt lat="43.6353077" lon="10.789355"><ele>51.0</ele><time>2026-04-11T14:19:27.876Z</time></trkpt><trkpt lat="43.6353856" lon="10.7892825"><ele>51.0</ele><time>2026-04-11T14:19:28.872Z</time></trkpt><trkpt lat="43.635452" lon="10.7892067"><ele>51.0</ele><time>2026-04-11T14:19:29.873Z</time></trkpt><trkpt lat="43.6355378" lon="10.789089"><ele>51.0</ele><time>2026-04-11T14:19:30.869Z</time></trkpt><trkpt lat="43.6356202" lon="10.7889369"><ele>51.0</ele><time>2026-04-11T14:19:31.873Z</time></trkpt><trkpt lat="43.6357175" lon="10.7887541"><ele>51.0</ele><time>2026-04-11T14:19:32.871Z</time></trkpt><trkpt lat="43.6358299" lon="10.7885276"><ele>51.0</ele><time>2026-04-11T14:19:33.87Z</time></trkpt><trkpt lat="43.6359513" lon="10.7883116"><ele>51.0</ele><time>2026-04-11T14:19:34.872Z</time></trkpt><trkpt lat="43.6360752" lon="10.7880777"><ele>50.66666666666667</ele><time>2026-04-11T14:19:35.868Z</time></trkpt><trkpt lat="43.636208" lon="10.7878417"><ele>50.333333333333336</ele><time>2026-04-11T14:19:36.873Z</time></trkpt><trkpt lat="43.6363395" lon="10.7875957"><ele>50.0</ele><time>2026-04-11T14:19:37.873Z</time></trkpt><trkpt lat="43.6364617" lon="10.7873787"><ele>49.66666666666667</ele><time>2026-04-11T14:19:38.875Z</time></trkpt><trkpt lat="43.636596" lon="10.7871425"><ele>49.33333333333333</ele><time>2026-04-11T14:19:39.875Z</time></trkpt><trkpt lat="43.636716" lon="10.7869281"><ele>49.0</ele><time>2026-04-11T14:19:40.875Z</time></trkpt><trkpt lat="43.6368474" lon="10.7867303"><ele>49.33333333333333</ele><time>2026-04-11T14:19:41.872Z</time></trkpt><trkpt lat="43.6369747" lon="10.7865285"><ele>49.66666666666667</ele><time>2026-04-11T14:19:42.89Z</time></trkpt><trkpt lat="43.637099" lon="10.7863234"><ele>50.0</ele><time>2026-04-11T14:19:43.877Z</time></trkpt><trkpt lat="43.6372212" lon="10.7861413"><ele>50.333333333333336</ele><time>2026-04-11T14:19:44.87Z</time></trkpt><trkpt lat="43.6373314" lon="10.7859772"><ele>50.66666666666667</ele><time>2026-04-11T14:19:45.87Z</time></trkpt><trkpt lat="43.6374315" lon="10.7858178"><ele>51.0</ele><time>2026-04-11T14:19:46.877Z</time></trkpt><trkpt lat="43.6375335" lon="10.7856578"><ele>51.0</ele><time>2026-04-11T14:19:47.873Z</time></trkpt><trkpt lat="43.637631" lon="10.7854769"><ele>51.0</ele><time>2026-04-11T14:19:48.875Z</time></trkpt><trkpt lat="43.6377227" lon="10.7852601"><ele>51.0</ele><time>2026-04-11T14:19:49.874Z</time></trkpt><trkpt lat="43.6378172" lon="10.7850344"><ele>49.666666666666664</ele><time>2026-04-11T14:19:50.873Z</time></trkpt><trkpt lat="43.6379137" lon="10.7848057"><ele>48.33333333333333</ele><time>2026-04-11T14:19:51.873Z</time></trkpt><trkpt lat="43.638007" lon="10.7846207"><ele>47.0</ele><time>2026-04-11T14:19:52.864Z</time></trkpt><trkpt lat="43.6381017" lon="10.7844469"><ele>48.0</ele><time>2026-04-11T14:19:53.87Z</time></trkpt><trkpt lat="43.6382023" lon="10.7842753"><ele>49.0</ele><time>2026-04-11T14:19:54.872Z</time></trkpt><trkpt lat="43.6383094" lon="10.7841158"><ele>50.0</ele><time>2026-04-11T14:19:55.876Z</time></trkpt><trkpt lat="43.6384063" lon="10.7839517"><ele>50.0</ele><time>2026-04-11T14:19:56.869Z</time></trkpt><trkpt lat="43.6385191" lon="10.7837886"><ele>50.0</ele><time>2026-04-11T14:19:57.88Z</time></trkpt><trkpt lat="43.6386171" lon="10.7835945"><ele>50.0</ele><time>2026-04-11T14:19:58.871Z</time></trkpt><trkpt lat="43.6387236" lon="10.7833812"><ele>49.0</ele><time>2026-04-11T14:19:59.874Z</time></trkpt><trkpt lat="43.6388332" lon="10.7831686"><ele>48.0</ele><time>2026-04-11T14:20:00.876Z</time></trkpt><trkpt lat="43.6389178" lon="10.7829674"><ele>47.0</ele><time>2026-04-11T14:20:01.872Z</time></trkpt><trkpt lat="43.6390011" lon="10.7827808"><ele>47.75</ele><time>2026-04-11T14:20:02.877Z</time></trkpt><trkpt lat="43.6391021" lon="10.7826268"><ele>48.5</ele><time>2026-04-11T14:20:03.875Z</time></trkpt><trkpt lat="43.6391834" lon="10.7824629"><ele>49.25</ele><time>2026-04-11T14:20:04.876Z</time></trkpt><trkpt lat="43.6392828" lon="10.782343"><ele>50.0</ele><time>2026-04-11T14:20:05.877Z</time></trkpt><trkpt lat="43.6393852" lon="10.7822378"><ele>49.6</ele><time>2026-04-11T14:20:06.873Z</time></trkpt><trkpt lat="43.6394933" lon="10.782163"><ele>49.2</ele><time>2026-04-11T14:20:07.872Z</time></trkpt><trkpt lat="43.6395905" lon="10.7821022"><ele>48.8</ele><time>2026-04-11T14:20:08.876Z</time></trkpt><trkpt lat="43.6396731" lon="10.7820619"><ele>48.4</ele><time>2026-04-11T14:20:09.878Z</time></trkpt><trkpt lat="43.63974" lon="10.7820034"><ele>48.0</ele><time>2026-04-11T14:20:10.872Z</time></trkpt><trkpt lat="43.6398039" lon="10.781928"><ele>48.0</ele><time>2026-04-11T14:20:11.874Z</time></trkpt><trkpt lat="43.6398615" lon="10.7818341"><ele>48.0</ele><time>2026-04-11T14:20:12.875Z</time></trkpt><trkpt lat="43.6399296" lon="10.7817194"><ele>48.0</ele><time>2026-04-11T14:20:13.889Z</time></trkpt><trkpt lat="43.6400061" lon="10.7816164"><ele>48.0</ele><time>2026-04-11T14:20:14.872Z</time></trkpt><trkpt lat="43.640108" lon="10.7815331"><ele>48.0</ele><time>2026-04-11T14:20:15.872Z</time></trkpt><trkpt lat="43.6402249" lon="10.7814493"><ele>47.5</ele><time>2026-04-11T14:20:16.882Z</time></trkpt><trkpt lat="43.6403567" lon="10.7813738"><ele>47.0</ele><time>2026-04-11T14:20:17.877Z</time></trkpt><trkpt lat="43.6404614" lon="10.7813065"><ele>46.5</ele><time>2026-04-11T14:20:18.884Z</time></trkpt><trkpt lat="43.6405569" lon="10.7812257"><ele>46.0</ele><time>2026-04-11T14:20:19.884Z</time></trkpt><trkpt lat="43.6406521" lon="10.7811352"><ele>46.0</ele><time>2026-04-11T14:20:20.884Z</time></trkpt><trkpt lat="43.6407421" lon="10.7810289"><ele>46.0</ele><time>2026-04-11T14:20:21.88Z</time></trkpt><trkpt lat="43.6408352" lon="10.7809135"><ele>46.0</ele><time>2026-04-11T14:20:22.881Z</time></trkpt><trkpt lat="43.6409166" lon="10.7808043"><ele>46.0</ele><time>2026-04-11T14:20:23.879Z</time></trkpt><trkpt lat="43.6409861" lon="10.7807124"><ele>45.833333333333336</ele><time>2026-04-11T14:20:24.881Z</time></trkpt><trkpt lat="43.6410327" lon="10.7806271"><ele>45.66666666666667</ele><time>2026-04-11T14:20:25.885Z</time></trkpt><trkpt lat="43.6410683" lon="10.7805326"><ele>45.5</ele><time>2026-04-11T14:20:26.879Z</time></trkpt><trkpt lat="43.64107" lon="10.7804183"><ele>45.333333333333336</ele><time>2026-04-11T14:20:27.885Z</time></trkpt><trkpt lat="43.6410678" lon="10.7802992"><ele>45.166666666666664</ele><time>2026-04-11T14:20:28.88Z</time></trkpt><trkpt lat="43.6410561" lon="10.7801499"><ele>45.0</ele><time>2026-04-11T14:20:29.877Z</time></trkpt><trkpt lat="43.6410424" lon="10.7799752"><ele>45.4</ele><time>2026-04-11T14:20:30.875Z</time></trkpt><trkpt lat="43.6410394" lon="10.7797769"><ele>45.8</ele><time>2026-04-11T14:20:31.882Z</time></trkpt><trkpt lat="43.641037" lon="10.7795952"><ele>46.2</ele><time>2026-04-11T14:20:32.877Z</time></trkpt><trkpt lat="43.6410316" lon="10.7794613"><ele>46.6</ele><time>2026-04-11T14:20:33.882Z</time></trkpt><trkpt lat="43.6410129" lon="10.7793617"><ele>47.0</ele><time>2026-04-11T14:20:34.876Z</time></trkpt><trkpt lat="43.640992" lon="10.7792781"><ele>47.33333333333333</ele><time>2026-04-11T14:20:35.878Z</time></trkpt><trkpt lat="43.6409517" lon="10.7791574"><ele>47.666666666666664</ele><time>2026-04-11T14:20:37.88Z</time></trkpt><trkpt lat="43.6409587" lon="10.7790665"><ele>48.0</ele><time>2026-04-11T14:20:39.885Z</time></trkpt><trkpt lat="43.6410375" lon="10.7790671"><ele>48.33333333333333</ele><time>2026-04-11T14:20:41.887Z</time></trkpt><trkpt lat="43.6411112" lon="10.7791008"><ele>48.666666666666664</ele><time>2026-04-11T14:20:43.894Z</time></trkpt><trkpt lat="43.6411947" lon="10.7791342"><ele>49.0</ele><time>2026-04-11T14:20:55.895Z</time></trkpt><trkpt lat="43.6412595" lon="10.7791523"><ele>48.99999999999999</ele><time>2026-04-11T14:20:56.908Z</time></trkpt><trkpt lat="43.641332" lon="10.7791785"><ele>49.0</ele><time>2026-04-11T14:20:57.904Z</time></trkpt><trkpt lat="43.6414197" lon="10.7792176"><ele>49.0</ele><time>2026-04-11T14:20:58.901Z</time></trkpt><trkpt lat="43.6415082" lon="10.7792416"><ele>49.0</ele><time>2026-04-11T14:20:59.9Z</time></trkpt><trkpt lat="43.6415958" lon="10.7792717"><ele>48.99999999999999</ele><time>2026-04-11T14:21:01.973Z</time></trkpt><trkpt lat="43.6416787" lon="10.7792966"><ele>49.0</ele><time>2026-04-11T14:21:02.97Z</time></trkpt><trkpt lat="43.6417517" lon="10.7793162"><ele>49.0</ele><time>2026-04-11T14:21:03.964Z</time></trkpt><trkpt lat="43.6418161" lon="10.7793307"><ele>49.0</ele><time>2026-04-11T14:21:04.968Z</time></trkpt><trkpt lat="43.6419258" lon="10.7793441"><ele>49.0</ele><time>2026-04-11T14:21:06.967Z</time></trkpt><trkpt lat="43.6420122" lon="10.7793297"><ele>49.0</ele><time>2026-04-11T14:21:08.959Z</time></trkpt><trkpt lat="43.6420854" lon="10.7792338"><ele>49.0</ele><time>2026-04-11T14:21:11.969Z</time></trkpt><trkpt lat="43.6421365" lon="10.7791018"><ele>50.400000000000006</ele><time>2026-04-11T14:21:13.945Z</time></trkpt><trkpt lat="43.6421764" lon="10.779023"><ele>51.8</ele><time>2026-04-11T14:21:14.949Z</time></trkpt><trkpt lat="43.6422146" lon="10.7788889"><ele>53.199999999999996</ele><time>2026-04-11T14:21:15.966Z</time></trkpt><trkpt lat="43.64225" lon="10.7787341"><ele>54.599999999999994</ele><time>2026-04-11T14:21:16.943Z</time></trkpt><trkpt lat="43.6422885" lon="10.7785636"><ele>56.0</ele><time>2026-04-11T14:21:17.96Z</time></trkpt><trkpt lat="43.6423205" lon="10.7783702"><ele>56.0</ele><time>2026-04-11T14:21:18.957Z</time></trkpt><trkpt lat="43.6423465" lon="10.7781636"><ele>56.0</ele><time>2026-04-11T14:21:19.963Z</time></trkpt><trkpt lat="43.6423559" lon="10.7779485"><ele>56.0</ele><time>2026-04-11T14:21:20.951Z</time></trkpt><trkpt lat="43.642364" lon="10.7777283"><ele>57.333333333333336</ele><time>2026-04-11T14:21:21.948Z</time></trkpt><trkpt lat="43.6423681" lon="10.7775016"><ele>58.66666666666667</ele><time>2026-04-11T14:21:22.951Z</time></trkpt><trkpt lat="43.6423719" lon="10.7772725"><ele>60.0</ele><time>2026-04-11T14:21:23.949Z</time></trkpt><trkpt lat="43.6423738" lon="10.7770494"><ele>60.0</ele><time>2026-04-11T14:21:24.965Z</time></trkpt><trkpt lat="43.6423673" lon="10.776828"><ele>60.0</ele><time>2026-04-11T14:21:25.953Z</time></trkpt><trkpt lat="43.642362" lon="10.7766072"><ele>60.0</ele><time>2026-04-11T14:21:26.969Z</time></trkpt><trkpt lat="43.6423578" lon="10.7763875"><ele>58.5</ele><time>2026-04-11T14:21:27.968Z</time></trkpt><trkpt lat="43.6423445" lon="10.775942"><ele>57.0</ele><time>2026-04-11T14:21:28.878Z</time></trkpt><trkpt lat="43.6423842" lon="10.7757236"><ele>57.0</ele><time>2026-04-11T14:21:29.871Z</time></trkpt><trkpt lat="43.6424455" lon="10.775481"><ele>57.0</ele><time>2026-04-11T14:21:30.876Z</time></trkpt><trkpt lat="43.6424999" lon="10.7752317"><ele>57.0</ele><time>2026-04-11T14:21:31.876Z</time></trkpt><trkpt lat="43.6425591" lon="10.774973"><ele>56.0</ele><time>2026-04-11T14:21:32.878Z</time></trkpt><trkpt lat="43.6426525" lon="10.7747507"><ele>55.0</ele><time>2026-04-11T14:21:33.877Z</time></trkpt><trkpt lat="43.6427548" lon="10.7745126"><ele>54.0</ele><time>2026-04-11T14:21:34.881Z</time></trkpt><trkpt lat="43.6428464" lon="10.7742805"><ele>57.0</ele><time>2026-04-11T14:21:35.879Z</time></trkpt><trkpt lat="43.6429547" lon="10.7740488"><ele>60.0</ele><time>2026-04-11T14:21:36.881Z</time></trkpt><trkpt lat="43.6430541" lon="10.7738172"><ele>63.0</ele><time>2026-04-11T14:21:37.882Z</time></trkpt><trkpt lat="43.6431449" lon="10.773579"><ele>58.66666666666667</ele><time>2026-04-11T14:21:38.882Z</time></trkpt><trkpt lat="43.6432436" lon="10.7733531"><ele>54.333333333333336</ele><time>2026-04-11T14:21:39.876Z</time></trkpt><trkpt lat="43.6433158" lon="10.7731126"><ele>50.0</ele><time>2026-04-11T14:21:40.882Z</time></trkpt><trkpt lat="43.6434139" lon="10.7728896"><ele>49.0</ele><time>2026-04-11T14:21:41.876Z</time></trkpt><trkpt lat="43.6435072" lon="10.7726718"><ele>48.0</ele><time>2026-04-11T14:21:42.875Z</time></trkpt><trkpt lat="43.6435933" lon="10.7724611"><ele>47.0</ele><time>2026-04-11T14:21:43.874Z</time></trkpt><trkpt lat="43.6436867" lon="10.7722572"><ele>48.0</ele><time>2026-04-11T14:21:44.875Z</time></trkpt><trkpt lat="43.6437621" lon="10.7720445"><ele>49.0</ele><time>2026-04-11T14:21:45.875Z</time></trkpt><trkpt lat="43.6438596" lon="10.7718357"><ele>50.0</ele><time>2026-04-11T14:21:46.896Z</time></trkpt><trkpt lat="43.6439511" lon="10.7716086"><ele>50.0</ele><time>2026-04-11T14:21:47.876Z</time></trkpt><trkpt lat="43.644031" lon="10.771378"><ele>50.0</ele><time>2026-04-11T14:21:48.876Z</time></trkpt><trkpt lat="43.6441225" lon="10.7711577"><ele>50.0</ele><time>2026-04-11T14:21:49.875Z</time></trkpt><trkpt lat="43.6442103" lon="10.7709424"><ele>50.0</ele><time>2026-04-11T14:21:50.879Z</time></trkpt><trkpt lat="43.6442972" lon="10.7707171"><ele>50.0</ele><time>2026-04-11T14:21:51.881Z</time></trkpt><trkpt lat="43.6443862" lon="10.7704951"><ele>50.0</ele><time>2026-04-11T14:21:52.887Z</time></trkpt><trkpt lat="43.6444742" lon="10.7702839"><ele>50.0</ele><time>2026-04-11T14:21:53.879Z</time></trkpt><trkpt lat="43.6445719" lon="10.770067"><ele>50.0</ele><time>2026-04-11T14:21:54.884Z</time></trkpt><trkpt lat="43.6446764" lon="10.7698658"><ele>50.0</ele><time>2026-04-11T14:21:55.882Z</time></trkpt><trkpt lat="43.644778" lon="10.7696803"><ele>50.0</ele><time>2026-04-11T14:21:56.882Z</time></trkpt><trkpt lat="43.6448753" lon="10.7694865"><ele>50.0</ele><time>2026-04-11T14:21:57.888Z</time></trkpt><trkpt lat="43.644979" lon="10.769293"><ele>50.0</ele><time>2026-04-11T14:21:58.88Z</time></trkpt><trkpt lat="43.645072" lon="10.7690723"><ele>51.0</ele><time>2026-04-11T14:21:59.881Z</time></trkpt><trkpt lat="43.6451739" lon="10.7688658"><ele>52.0</ele><time>2026-04-11T14:22:00.88Z</time></trkpt><trkpt lat="43.6452853" lon="10.7686784"><ele>53.0</ele><time>2026-04-11T14:22:01.876Z</time></trkpt><trkpt lat="43.6454032" lon="10.7684862"><ele>53.0</ele><time>2026-04-11T14:22:02.887Z</time></trkpt><trkpt lat="43.6455184" lon="10.7682915"><ele>53.0</ele><time>2026-04-11T14:22:03.878Z</time></trkpt><trkpt lat="43.645639" lon="10.76809"><ele>53.0</ele><time>2026-04-11T14:22:04.878Z</time></trkpt><trkpt lat="43.6457558" lon="10.7679014"><ele>52.0</ele><time>2026-04-11T14:22:05.876Z</time></trkpt><trkpt lat="43.6458509" lon="10.7676929"><ele>51.0</ele><time>2026-04-11T14:22:06.875Z</time></trkpt><trkpt lat="43.6459433" lon="10.7675024"><ele>50.0</ele><time>2026-04-11T14:22:07.877Z</time></trkpt><trkpt lat="43.6460372" lon="10.7673136"><ele>51.66666666666667</ele><time>2026-04-11T14:22:08.878Z</time></trkpt><trkpt lat="43.6461561" lon="10.7671419"><ele>53.33333333333333</ele><time>2026-04-11T14:22:09.876Z</time></trkpt><trkpt lat="43.6462686" lon="10.7669433"><ele>55.0</ele><time>2026-04-11T14:22:10.867Z</time></trkpt><trkpt lat="43.6463798" lon="10.7667375"><ele>55.0</ele><time>2026-04-11T14:22:11.871Z</time></trkpt><trkpt lat="43.6464811" lon="10.7665097"><ele>55.0</ele><time>2026-04-11T14:22:12.877Z</time></trkpt><trkpt lat="43.6465884" lon="10.7662965"><ele>55.0</ele><time>2026-04-11T14:22:13.878Z</time></trkpt><trkpt lat="43.6467092" lon="10.7661032"><ele>55.0</ele><time>2026-04-11T14:22:14.877Z</time></trkpt><trkpt lat="43.6468268" lon="10.7658877"><ele>55.0</ele><time>2026-04-11T14:22:15.883Z</time></trkpt><trkpt lat="43.6469394" lon="10.7656903"><ele>55.0</ele><time>2026-04-11T14:22:16.885Z</time></trkpt><trkpt lat="43.6470361" lon="10.765484"><ele>55.0</ele><time>2026-04-11T14:22:17.903Z</time></trkpt><trkpt lat="43.6471575" lon="10.7652861"><ele>55.0</ele><time>2026-04-11T14:22:18.884Z</time></trkpt><trkpt lat="43.6472672" lon="10.7650884"><ele>55.0</ele><time>2026-04-11T14:22:19.886Z</time></trkpt><trkpt lat="43.6473683" lon="10.7648902"><ele>53.0</ele><time>2026-04-11T14:22:20.883Z</time></trkpt><trkpt lat="43.6474617" lon="10.7647053"><ele>51.0</ele><time>2026-04-11T14:22:21.877Z</time></trkpt><trkpt lat="43.6475522" lon="10.7645342"><ele>49.0</ele><time>2026-04-11T14:22:22.875Z</time></trkpt><trkpt lat="43.6476344" lon="10.7643779"><ele>49.75</ele><time>2026-04-11T14:22:23.875Z</time></trkpt><trkpt lat="43.6477257" lon="10.7642391"><ele>50.5</ele><time>2026-04-11T14:22:24.879Z</time></trkpt><trkpt lat="43.6478093" lon="10.7641112"><ele>51.25</ele><time>2026-04-11T14:22:25.875Z</time></trkpt><trkpt lat="43.6478723" lon="10.763959"><ele>52.0</ele><time>2026-04-11T14:22:26.87Z</time></trkpt><trkpt lat="43.6479011" lon="10.7638015"><ele>52.0</ele><time>2026-04-11T14:22:27.872Z</time></trkpt><trkpt lat="43.6479255" lon="10.76363"><ele>52.0</ele><time>2026-04-11T14:22:28.873Z</time></trkpt><trkpt lat="43.6478782" lon="10.7634455"><ele>52.0</ele><time>2026-04-11T14:22:29.869Z</time></trkpt><trkpt lat="43.6478374" lon="10.7632766"><ele>52.0</ele><time>2026-04-11T14:22:30.876Z</time></trkpt><trkpt lat="43.6477662" lon="10.7631313"><ele>48.33333333333333</ele><time>2026-04-11T14:22:31.879Z</time></trkpt><trkpt lat="43.647663" lon="10.7630024"><ele>44.666666666666664</ele><time>2026-04-11T14:22:32.871Z</time></trkpt><trkpt lat="43.6475142" lon="10.7628828"><ele>41.0</ele><time>2026-04-11T14:22:33.871Z</time></trkpt><trkpt lat="43.647364" lon="10.762743"><ele>41.0</ele><time>2026-04-11T14:22:34.876Z</time></trkpt><trkpt lat="43.6472183" lon="10.7625955"><ele>41.0</ele><time>2026-04-11T14:22:35.879Z</time></trkpt><trkpt lat="43.6470663" lon="10.762442"><ele>41.0</ele><time>2026-04-11T14:22:36.879Z</time></trkpt><trkpt lat="43.6469109" lon="10.7623007"><ele>40.666666666666664</ele><time>2026-04-11T14:22:37.879Z</time></trkpt><trkpt lat="43.6467555" lon="10.7621605"><ele>40.333333333333336</ele><time>2026-04-11T14:22:38.878Z</time></trkpt><trkpt lat="43.6465964" lon="10.7620201"><ele>40.0</ele><time>2026-04-11T14:22:39.879Z</time></trkpt><trkpt lat="43.6464566" lon="10.7618886"><ele>39.333333333333336</ele><time>2026-04-11T14:22:40.879Z</time></trkpt><trkpt lat="43.6463204" lon="10.7617573"><ele>38.666666666666664</ele><time>2026-04-11T14:22:41.88Z</time></trkpt><trkpt lat="43.6461858" lon="10.7616373"><ele>38.0</ele><time>2026-04-11T14:22:42.879Z</time></trkpt><trkpt lat="43.6460609" lon="10.7615248"><ele>39.0</ele><time>2026-04-11T14:22:43.874Z</time></trkpt><trkpt lat="43.6459511" lon="10.7614096"><ele>40.0</ele><time>2026-04-11T14:22:44.875Z</time></trkpt><trkpt lat="43.6458436" lon="10.7613134"><ele>41.0</ele><time>2026-04-11T14:22:45.881Z</time></trkpt><trkpt lat="43.6457449" lon="10.7612251"><ele>42.0</ele><time>2026-04-11T14:22:46.883Z</time></trkpt><trkpt lat="43.6456469" lon="10.7611265"><ele>42.0</ele><time>2026-04-11T14:22:47.876Z</time></trkpt><trkpt lat="43.6455652" lon="10.7610347"><ele>42.0</ele><time>2026-04-11T14:22:48.896Z</time></trkpt><trkpt lat="43.6454921" lon="10.7609444"><ele>42.0</ele><time>2026-04-11T14:22:49.879Z</time></trkpt><trkpt lat="43.6454372" lon="10.7608671"><ele>42.0</ele><time>2026-04-11T14:22:50.873Z</time></trkpt><trkpt lat="43.645382" lon="10.7608123"><ele>42.0</ele><time>2026-04-11T14:22:51.877Z</time></trkpt><trkpt lat="43.6452908" lon="10.760795"><ele>42.0</ele><time>2026-04-11T14:22:53.872Z</time></trkpt><trkpt lat="43.645148" lon="10.7608227"><ele>42.5</ele><time>2026-04-11T14:22:55.873Z</time></trkpt><trkpt lat="43.6450402" lon="10.7608392"><ele>43.0</ele><time>2026-04-11T14:22:56.877Z</time></trkpt><trkpt lat="43.6449236" lon="10.7608425"><ele>43.5</ele><time>2026-04-11T14:22:57.885Z</time></trkpt><trkpt lat="43.644796" lon="10.7608434"><ele>44.0</ele><time>2026-04-11T14:22:58.875Z</time></trkpt><trkpt lat="43.6446527" lon="10.7608388"><ele>44.0</ele><time>2026-04-11T14:22:59.876Z</time></trkpt><trkpt lat="43.6444758" lon="10.7608399"><ele>44.0</ele><time>2026-04-11T14:23:00.873Z</time></trkpt><trkpt lat="43.6443038" lon="10.7608313"><ele>44.0</ele><time>2026-04-11T14:23:01.883Z</time></trkpt><trkpt lat="43.6441313" lon="10.7608077"><ele>44.0</ele><time>2026-04-11T14:23:02.876Z</time></trkpt><trkpt lat="43.6439514" lon="10.7608004"><ele>44.0</ele><time>2026-04-11T14:23:03.877Z</time></trkpt><trkpt lat="43.643779" lon="10.7608019"><ele>44.0</ele><time>2026-04-11T14:23:04.878Z</time></trkpt><trkpt lat="43.6435931" lon="10.7608194"><ele>44.666666666666664</ele><time>2026-04-11T14:23:05.875Z</time></trkpt><trkpt lat="43.6434275" lon="10.7608991"><ele>45.333333333333336</ele><time>2026-04-11T14:23:06.865Z</time></trkpt><trkpt lat="43.6432444" lon="10.7609877"><ele>46.0</ele><time>2026-04-11T14:23:07.868Z</time></trkpt><trkpt lat="43.6430731" lon="10.7611224"><ele>47.66666666666667</ele><time>2026-04-11T14:23:08.864Z</time></trkpt><trkpt lat="43.6429115" lon="10.7612682"><ele>49.333333333333336</ele><time>2026-04-11T14:23:09.859Z</time></trkpt><trkpt lat="43.6427555" lon="10.7614354"><ele>51.0</ele><time>2026-04-11T14:23:10.865Z</time></trkpt><trkpt lat="43.6426142" lon="10.761603"><ele>51.0</ele><time>2026-04-11T14:23:11.868Z</time></trkpt><trkpt lat="43.6424618" lon="10.7617576"><ele>51.0</ele><time>2026-04-11T14:23:12.889Z</time></trkpt><trkpt lat="43.6422944" lon="10.761906"><ele>51.0</ele><time>2026-04-11T14:23:13.885Z</time></trkpt><trkpt lat="43.6421258" lon="10.7620499"><ele>52.33333333333333</ele><time>2026-04-11T14:23:15.955Z</time></trkpt><trkpt lat="43.6419515" lon="10.7621836"><ele>53.666666666666664</ele><time>2026-04-11T14:23:16.955Z</time></trkpt><trkpt lat="43.6417706" lon="10.7623069"><ele>55.0</ele><time>2026-04-11T14:23:17.956Z</time></trkpt><trkpt lat="43.6415853" lon="10.7624215"><ele>55.0</ele><time>2026-04-11T14:23:18.96Z</time></trkpt><trkpt lat="43.6413979" lon="10.7625349"><ele>55.0</ele><time>2026-04-11T14:23:19.976Z</time></trkpt><trkpt lat="43.6412161" lon="10.7626479"><ele>55.0</ele><time>2026-04-11T14:23:20.962Z</time></trkpt><trkpt lat="43.6410322" lon="10.7627591"><ele>58.0</ele><time>2026-04-11T14:23:21.969Z</time></trkpt><trkpt lat="43.6408509" lon="10.7628676"><ele>61.0</ele><time>2026-04-11T14:23:22.963Z</time></trkpt><trkpt lat="43.6406737" lon="10.7629747"><ele>64.0</ele><time>2026-04-11T14:23:23.963Z</time></trkpt><trkpt lat="43.6404974" lon="10.7630801"><ele>64.0</ele><time>2026-04-11T14:23:24.965Z</time></trkpt><trkpt lat="43.6403234" lon="10.7631813"><ele>64.0</ele><time>2026-04-11T14:23:25.963Z</time></trkpt><trkpt lat="43.6401514" lon="10.7632678"><ele>64.0</ele><time>2026-04-11T14:23:26.963Z</time></trkpt><trkpt lat="43.6399836" lon="10.7633778"><ele>59.666666666666664</ele><time>2026-04-11T14:23:27.975Z</time></trkpt><trkpt lat="43.639814" lon="10.7634866"><ele>55.33333333333333</ele><time>2026-04-11T14:23:28.969Z</time></trkpt><trkpt lat="43.6396426" lon="10.7635936"><ele>51.0</ele><time>2026-04-11T14:23:29.967Z</time></trkpt><trkpt lat="43.6394761" lon="10.763697"><ele>51.33333333333333</ele><time>2026-04-11T14:23:30.968Z</time></trkpt><trkpt lat="43.6393098" lon="10.7638012"><ele>51.666666666666664</ele><time>2026-04-11T14:23:31.969Z</time></trkpt><trkpt lat="43.6391438" lon="10.7639073"><ele>52.0</ele><time>2026-04-11T14:23:32.969Z</time></trkpt><trkpt lat="43.6389776" lon="10.7640138"><ele>52.0</ele><time>2026-04-11T14:23:33.968Z</time></trkpt><trkpt lat="43.6388121" lon="10.7641192"><ele>52.0</ele><time>2026-04-11T14:23:34.962Z</time></trkpt><trkpt lat="43.6386545" lon="10.7642356"><ele>52.0</ele><time>2026-04-11T14:23:35.961Z</time></trkpt><trkpt lat="43.638509" lon="10.7643738"><ele>54.666666666666664</ele><time>2026-04-11T14:23:36.964Z</time></trkpt><trkpt lat="43.6383702" lon="10.7645268"><ele>57.33333333333333</ele><time>2026-04-11T14:23:37.947Z</time></trkpt><trkpt lat="43.6382315" lon="10.7646845"><ele>60.0</ele><time>2026-04-11T14:23:38.946Z</time></trkpt><trkpt lat="43.6380952" lon="10.7648475"><ele>60.0</ele><time>2026-04-11T14:23:39.948Z</time></trkpt><trkpt lat="43.6379572" lon="10.7650057"><ele>60.0</ele><time>2026-04-11T14:23:40.946Z</time></trkpt><trkpt lat="43.6378198" lon="10.7651591"><ele>60.0</ele><time>2026-04-11T14:23:41.958Z</time></trkpt><trkpt lat="43.637685" lon="10.7653183"><ele>58.66666666666667</ele><time>2026-04-11T14:23:42.956Z</time></trkpt><trkpt lat="43.6375525" lon="10.7654795"><ele>57.333333333333336</ele><time>2026-04-11T14:23:43.959Z</time></trkpt><trkpt lat="43.6374162" lon="10.765638"><ele>56.0</ele><time>2026-04-11T14:23:44.964Z</time></trkpt><trkpt lat="43.6372769" lon="10.7657971"><ele>56.0</ele><time>2026-04-11T14:23:45.962Z</time></trkpt><trkpt lat="43.637141" lon="10.76596"><ele>56.0</ele><time>2026-04-11T14:23:46.964Z</time></trkpt><trkpt lat="43.6370096" lon="10.766128"><ele>56.0</ele><time>2026-04-11T14:23:47.96Z</time></trkpt><trkpt lat="43.6368859" lon="10.7663095"><ele>55.66666666666667</ele><time>2026-04-11T14:23:48.959Z</time></trkpt><trkpt lat="43.6367693" lon="10.7665086"><ele>55.33333333333333</ele><time>2026-04-11T14:23:49.946Z</time></trkpt><trkpt lat="43.6366532" lon="10.7667162"><ele>55.0</ele><time>2026-04-11T14:23:50.985Z</time></trkpt><trkpt lat="43.6365369" lon="10.7669329"><ele>55.0</ele><time>2026-04-11T14:23:51.948Z</time></trkpt><trkpt lat="43.6364193" lon="10.7671532"><ele>55.0</ele><time>2026-04-11T14:23:52.947Z</time></trkpt><trkpt lat="43.6362991" lon="10.7673714"><ele>55.0</ele><time>2026-04-11T14:23:53.965Z</time></trkpt><trkpt lat="43.6361742" lon="10.7675851"><ele>55.666666666666664</ele><time>2026-04-11T14:23:54.964Z</time></trkpt><trkpt lat="43.6360407" lon="10.7677879"><ele>56.33333333333333</ele><time>2026-04-11T14:23:55.966Z</time></trkpt><trkpt lat="43.6359058" lon="10.7679813"><ele>57.0</ele><time>2026-04-11T14:23:56.966Z</time></trkpt><trkpt lat="43.6357738" lon="10.768171"><ele>57.0</ele><time>2026-04-11T14:23:57.969Z</time></trkpt><trkpt lat="43.6356533" lon="10.7683542"><ele>57.0</ele><time>2026-04-11T14:23:58.964Z</time></trkpt><trkpt lat="43.6355397" lon="10.7685278"><ele>57.0</ele><time>2026-04-11T14:23:59.959Z</time></trkpt><trkpt lat="43.6354364" lon="10.7686918"><ele>55.5</ele><time>2026-04-11T14:24:00.959Z</time></trkpt><trkpt lat="43.6353511" lon="10.7688575"><ele>54.0</ele><time>2026-04-11T14:24:01.957Z</time></trkpt><trkpt lat="43.635273" lon="10.7690234"><ele>52.5</ele><time>2026-04-11T14:24:02.948Z</time></trkpt><trkpt lat="43.6352029" lon="10.7691823"><ele>51.0</ele><time>2026-04-11T14:24:03.951Z</time></trkpt><trkpt lat="43.6351374" lon="10.769338"><ele>51.75</ele><time>2026-04-11T14:24:04.951Z</time></trkpt><trkpt lat="43.6350727" lon="10.7694961"><ele>52.5</ele><time>2026-04-11T14:24:05.949Z</time></trkpt><trkpt lat="43.6350089" lon="10.769657"><ele>53.25</ele><time>2026-04-11T14:24:06.964Z</time></trkpt><trkpt lat="43.634946" lon="10.769824"><ele>54.0</ele><time>2026-04-11T14:24:07.965Z</time></trkpt><trkpt lat="43.6348848" lon="10.77"><ele>54.0</ele><time>2026-04-11T14:24:08.963Z</time></trkpt><trkpt lat="43.6348118" lon="10.7701809"><ele>54.0</ele><time>2026-04-11T14:24:09.965Z</time></trkpt><trkpt lat="43.6347291" lon="10.7703647"><ele>54.0</ele><time>2026-04-11T14:24:10.961Z</time></trkpt><trkpt lat="43.6346259" lon="10.7705408"><ele>54.0</ele><time>2026-04-11T14:24:11.961Z</time></trkpt><trkpt lat="43.6345132" lon="10.770704"><ele>54.0</ele><time>2026-04-11T14:24:12.947Z</time></trkpt><trkpt lat="43.6343944" lon="10.7708595"><ele>54.0</ele><time>2026-04-11T14:24:13.952Z</time></trkpt><trkpt lat="43.6342733" lon="10.7710133"><ele>55.66666666666667</ele><time>2026-04-11T14:24:14.952Z</time></trkpt><trkpt lat="43.6341487" lon="10.7711662"><ele>57.333333333333336</ele><time>2026-04-11T14:24:15.948Z</time></trkpt><trkpt lat="43.6340259" lon="10.771321"><ele>59.0</ele><time>2026-04-11T14:24:16.962Z</time></trkpt><trkpt lat="43.6339025" lon="10.7714706"><ele>59.0</ele><time>2026-04-11T14:24:17.959Z</time></trkpt><trkpt lat="43.6337737" lon="10.7716165"><ele>59.0</ele><time>2026-04-11T14:24:18.965Z</time></trkpt><trkpt lat="43.6336413" lon="10.7717592"><ele>59.0</ele><time>2026-04-11T14:24:19.963Z</time></trkpt><trkpt lat="43.6335101" lon="10.7719011"><ele>58.333333333333336</ele><time>2026-04-11T14:24:20.982Z</time></trkpt><trkpt lat="43.6333805" lon="10.7720449"><ele>57.66666666666667</ele><time>2026-04-11T14:24:21.967Z</time></trkpt><trkpt lat="43.6332561" lon="10.7721847"><ele>57.0</ele><time>2026-04-11T14:24:22.962Z</time></trkpt><trkpt lat="43.6331368" lon="10.7723214"><ele>57.0</ele><time>2026-04-11T14:24:23.965Z</time></trkpt><trkpt lat="43.6330222" lon="10.7724549"><ele>57.0</ele><time>2026-04-11T14:24:24.967Z</time></trkpt><trkpt lat="43.632906" lon="10.7725883"><ele>57.0</ele><time>2026-04-11T14:24:25.968Z</time></trkpt><trkpt lat="43.6327897" lon="10.7727212"><ele>56.75</ele><time>2026-04-11T14:24:26.964Z</time></trkpt><trkpt lat="43.632673" lon="10.7728523"><ele>56.5</ele><time>2026-04-11T14:24:27.958Z</time></trkpt><trkpt lat="43.6325527" lon="10.7729754"><ele>56.25</ele><time>2026-04-11T14:24:28.961Z</time></trkpt><trkpt lat="43.6324279" lon="10.773087"><ele>56.0</ele><time>2026-04-11T14:24:29.96Z</time></trkpt><trkpt lat="43.6322995" lon="10.7731829"><ele>56.0</ele><time>2026-04-11T14:24:30.961Z</time></trkpt><trkpt lat="43.6321699" lon="10.7732614"><ele>56.0</ele><time>2026-04-11T14:24:31.941Z</time></trkpt><trkpt lat="43.6320307" lon="10.7733194"><ele>56.0</ele><time>2026-04-11T14:24:32.952Z</time></trkpt><trkpt lat="43.6318861" lon="10.7733693"><ele>56.0</ele><time>2026-04-11T14:24:33.952Z</time></trkpt><trkpt lat="43.6317382" lon="10.7734156"><ele>57.333333333333336</ele><time>2026-04-11T14:24:34.949Z</time></trkpt><trkpt lat="43.6315852" lon="10.7734645"><ele>58.66666666666667</ele><time>2026-04-11T14:24:35.966Z</time></trkpt><trkpt lat="43.6314352" lon="10.7735164"><ele>60.0</ele><time>2026-04-11T14:24:36.958Z</time></trkpt><trkpt lat="43.6312878" lon="10.7735674"><ele>63.66666666666667</ele><time>2026-04-11T14:24:37.96Z</time></trkpt><trkpt lat="43.6311382" lon="10.773614"><ele>67.33333333333334</ele><time>2026-04-11T14:24:38.958Z</time></trkpt><trkpt lat="43.6309879" lon="10.7736574"><ele>71.0</ele><time>2026-04-11T14:24:39.956Z</time></trkpt><trkpt lat="43.630836" lon="10.7737022"><ele>71.0</ele><time>2026-04-11T14:24:40.957Z</time></trkpt><trkpt lat="43.6306805" lon="10.7737489"><ele>71.0</ele><time>2026-04-11T14:24:41.949Z</time></trkpt><trkpt lat="43.6305196" lon="10.7737968"><ele>71.0</ele><time>2026-04-11T14:24:42.957Z</time></trkpt><trkpt lat="43.6303549" lon="10.7738512"><ele>71.66666666666667</ele><time>2026-04-11T14:24:43.953Z</time></trkpt><trkpt lat="43.6301857" lon="10.7739111"><ele>72.33333333333333</ele><time>2026-04-11T14:24:44.957Z</time></trkpt><trkpt lat="43.6300127" lon="10.7739694"><ele>73.0</ele><time>2026-04-11T14:24:45.956Z</time></trkpt><trkpt lat="43.6298346" lon="10.7740252"><ele>73.0</ele><time>2026-04-11T14:24:46.963Z</time></trkpt><trkpt lat="43.6296515" lon="10.7740784"><ele>73.0</ele><time>2026-04-11T14:24:47.957Z</time></trkpt><trkpt lat="43.6294675" lon="10.7741378"><ele>73.0</ele><time>2026-04-11T14:24:48.955Z</time></trkpt><trkpt lat="43.6292831" lon="10.7742001"><ele>76.66666666666666</ele><time>2026-04-11T14:24:49.956Z</time></trkpt><trkpt lat="43.6290976" lon="10.7742621"><ele>80.33333333333333</ele><time>2026-04-11T14:24:50.953Z</time></trkpt><trkpt lat="43.6289105" lon="10.7743264"><ele>84.0</ele><time>2026-04-11T14:24:51.968Z</time></trkpt><trkpt lat="43.6287239" lon="10.7743885"><ele>81.0</ele><time>2026-04-11T14:24:52.968Z</time></trkpt><trkpt lat="43.628541" lon="10.7744507"><ele>78.0</ele><time>2026-04-11T14:24:53.963Z</time></trkpt><trkpt lat="43.6283566" lon="10.7745123"><ele>75.0</ele><time>2026-04-11T14:24:54.963Z</time></trkpt><trkpt lat="43.6281736" lon="10.7745729"><ele>75.0</ele><time>2026-04-11T14:24:55.959Z</time></trkpt><trkpt lat="43.6279916" lon="10.7746385"><ele>75.0</ele><time>2026-04-11T14:24:56.96Z</time></trkpt><trkpt lat="43.6278135" lon="10.774702"><ele>75.0</ele><time>2026-04-11T14:24:57.965Z</time></trkpt><trkpt lat="43.6276339" lon="10.7747641"><ele>72.33333333333333</ele><time>2026-04-11T14:24:58.962Z</time></trkpt><trkpt lat="43.6274523" lon="10.7748241"><ele>69.66666666666666</ele><time>2026-04-11T14:24:59.962Z</time></trkpt><trkpt lat="43.6272703" lon="10.774889"><ele>67.0</ele><time>2026-04-11T14:25:00.96Z</time></trkpt><trkpt lat="43.6270896" lon="10.7749547"><ele>64.33333333333333</ele><time>2026-04-11T14:25:01.958Z</time></trkpt><trkpt lat="43.6269142" lon="10.7750308"><ele>61.66666666666667</ele><time>2026-04-11T14:25:02.958Z</time></trkpt><trkpt lat="43.6267449" lon="10.7751213"><ele>59.0</ele><time>2026-04-11T14:25:03.964Z</time></trkpt><trkpt lat="43.6265783" lon="10.7752133"><ele>64.66666666666667</ele><time>2026-04-11T14:25:04.963Z</time></trkpt><trkpt lat="43.6264143" lon="10.7752975"><ele>70.33333333333333</ele><time>2026-04-11T14:25:05.96Z</time></trkpt><trkpt lat="43.6262495" lon="10.7753779"><ele>76.0</ele><time>2026-04-11T14:25:06.963Z</time></trkpt><trkpt lat="43.6260879" lon="10.7754558"><ele>78.0</ele><time>2026-04-11T14:25:07.964Z</time></trkpt><trkpt lat="43.6256032" lon="10.7756015"><ele>78.0</ele><time>2026-04-11T14:25:09.871Z</time></trkpt><trkpt lat="43.6254342" lon="10.7755591"><ele>78.0</ele><time>2026-04-11T14:25:10.858Z</time></trkpt><trkpt lat="43.625285" lon="10.7755061"><ele>78.0</ele><time>2026-04-11T14:25:11.869Z</time></trkpt><trkpt lat="43.6251301" lon="10.7754268"><ele>80.33333333333333</ele><time>2026-04-11T14:25:12.873Z</time></trkpt><trkpt lat="43.6249639" lon="10.7753512"><ele>82.66666666666666</ele><time>2026-04-11T14:25:13.875Z</time></trkpt><trkpt lat="43.6248063" lon="10.7752776"><ele>85.0</ele><time>2026-04-11T14:25:14.874Z</time></trkpt><trkpt lat="43.6246543" lon="10.7752371"><ele>85.0</ele><time>2026-04-11T14:25:15.87Z</time></trkpt><trkpt lat="43.6244974" lon="10.7752419"><ele>85.0</ele><time>2026-04-11T14:25:16.865Z</time></trkpt><trkpt lat="43.6243435" lon="10.7752808"><ele>85.0</ele><time>2026-04-11T14:25:17.854Z</time></trkpt><trkpt lat="43.6241891" lon="10.7753245"><ele>82.0</ele><time>2026-04-11T14:25:18.857Z</time></trkpt><trkpt lat="43.624018" lon="10.7754407"><ele>79.0</ele><time>2026-04-11T14:25:19.855Z</time></trkpt><trkpt lat="43.6238376" lon="10.775523"><ele>76.0</ele><time>2026-04-11T14:25:20.854Z</time></trkpt><trkpt lat="43.6236935" lon="10.7756043"><ele>71.66666666666666</ele><time>2026-04-11T14:25:21.855Z</time></trkpt><trkpt lat="43.6235348" lon="10.7756464"><ele>67.33333333333333</ele><time>2026-04-11T14:25:22.865Z</time></trkpt><trkpt lat="43.6233667" lon="10.7757056"><ele>63.0</ele><time>2026-04-11T14:25:23.85Z</time></trkpt><trkpt lat="43.6231968" lon="10.7757712"><ele>63.0</ele><time>2026-04-11T14:25:24.86Z</time></trkpt><trkpt lat="43.6230145" lon="10.7758568"><ele>63.0</ele><time>2026-04-11T14:25:25.863Z</time></trkpt><trkpt lat="43.6228313" lon="10.7759282"><ele>63.0</ele><time>2026-04-11T14:25:26.861Z</time></trkpt><trkpt lat="43.6226538" lon="10.7760142"><ele>64.33333333333333</ele><time>2026-04-11T14:25:27.865Z</time></trkpt><trkpt lat="43.6224714" lon="10.7760898"><ele>65.66666666666666</ele><time>2026-04-11T14:25:28.857Z</time></trkpt><trkpt lat="43.6222973" lon="10.7761624"><ele>67.0</ele><time>2026-04-11T14:25:29.864Z</time></trkpt><trkpt lat="43.6221308" lon="10.7762251"><ele>67.0</ele><time>2026-04-11T14:25:30.866Z</time></trkpt><trkpt lat="43.6219661" lon="10.7762895"><ele>67.0</ele><time>2026-04-11T14:25:31.867Z</time></trkpt><trkpt lat="43.6218175" lon="10.7763518"><ele>67.0</ele><time>2026-04-11T14:25:32.87Z</time></trkpt><trkpt lat="43.6216722" lon="10.7764045"><ele>67.0</ele><time>2026-04-11T14:25:33.872Z</time></trkpt><trkpt lat="43.6215324" lon="10.7764626"><ele>67.0</ele><time>2026-04-11T14:25:34.87Z</time></trkpt><trkpt lat="43.6213986" lon="10.7765442"><ele>67.0</ele><time>2026-04-11T14:25:35.869Z</time></trkpt><trkpt lat="43.6212731" lon="10.7766468"><ele>67.0</ele><time>2026-04-11T14:25:36.869Z</time></trkpt><trkpt lat="43.6211477" lon="10.7767704"><ele>68.33333333333333</ele><time>2026-04-11T14:25:37.872Z</time></trkpt><trkpt lat="43.6210277" lon="10.7769164"><ele>69.66666666666667</ele><time>2026-04-11T14:25:38.876Z</time></trkpt><trkpt lat="43.620899" lon="10.7770562"><ele>71.0</ele><time>2026-04-11T14:25:39.876Z</time></trkpt><trkpt lat="43.6207613" lon="10.7771836"><ele>71.0</ele><time>2026-04-11T14:25:40.876Z</time></trkpt><trkpt lat="43.6206355" lon="10.7773214"><ele>71.0</ele><time>2026-04-11T14:25:41.877Z</time></trkpt><trkpt lat="43.6205224" lon="10.7774697"><ele>71.0</ele><time>2026-04-11T14:25:42.872Z</time></trkpt><trkpt lat="43.6204042" lon="10.7776428"><ele>71.66666666666667</ele><time>2026-04-11T14:25:43.879Z</time></trkpt><trkpt lat="43.620306" lon="10.7778244"><ele>72.33333333333333</ele><time>2026-04-11T14:25:44.869Z</time></trkpt><trkpt lat="43.6202168" lon="10.7780272"><ele>73.0</ele><time>2026-04-11T14:25:45.876Z</time></trkpt><trkpt lat="43.6201226" lon="10.7782392"><ele>73.0</ele><time>2026-04-11T14:25:46.874Z</time></trkpt><trkpt lat="43.6200163" lon="10.7784628"><ele>73.0</ele><time>2026-04-11T14:25:47.87Z</time></trkpt><trkpt lat="43.6198996" lon="10.7786691"><ele>73.0</ele><time>2026-04-11T14:25:48.869Z</time></trkpt><trkpt lat="43.6198006" lon="10.7788848"><ele>75.66666666666666</ele><time>2026-04-11T14:25:49.871Z</time></trkpt><trkpt lat="43.6197002" lon="10.7790998"><ele>78.33333333333333</ele><time>2026-04-11T14:25:50.875Z</time></trkpt><trkpt lat="43.6195952" lon="10.7793157"><ele>81.0</ele><time>2026-04-11T14:25:51.876Z</time></trkpt><trkpt lat="43.6194992" lon="10.7795131"><ele>77.0</ele><time>2026-04-11T14:25:52.871Z</time></trkpt><trkpt lat="43.6194067" lon="10.7796979"><ele>73.0</ele><time>2026-04-11T14:25:53.89Z</time></trkpt><trkpt lat="43.6193204" lon="10.7798901"><ele>69.0</ele><time>2026-04-11T14:25:54.873Z</time></trkpt><trkpt lat="43.6192327" lon="10.780057"><ele>72.5</ele><time>2026-04-11T14:25:55.872Z</time></trkpt><trkpt lat="43.6191594" lon="10.7802201"><ele>76.0</ele><time>2026-04-11T14:25:56.87Z</time></trkpt><trkpt lat="43.6190941" lon="10.7803715"><ele>79.5</ele><time>2026-04-11T14:25:57.875Z</time></trkpt><trkpt lat="43.6190158" lon="10.7805073"><ele>83.0</ele><time>2026-04-11T14:25:58.872Z</time></trkpt><trkpt lat="43.618936" lon="10.7806405"><ele>83.0</ele><time>2026-04-11T14:25:59.874Z</time></trkpt><trkpt lat="43.6188834" lon="10.7807764"><ele>83.0</ele><time>2026-04-11T14:26:00.872Z</time></trkpt><trkpt lat="43.6188687" lon="10.7809088"><ele>83.0</ele><time>2026-04-11T14:26:01.865Z</time></trkpt><trkpt lat="43.6188503" lon="10.781038"><ele>83.0</ele><time>2026-04-11T14:26:02.876Z</time></trkpt><trkpt lat="43.618832" lon="10.7811623"><ele>83.0</ele><time>2026-04-11T14:26:03.877Z</time></trkpt><trkpt lat="43.6187957" lon="10.7812821"><ele>84.16666666666667</ele><time>2026-04-11T14:26:04.872Z</time></trkpt><trkpt lat="43.6187673" lon="10.7813912"><ele>85.33333333333334</ele><time>2026-04-11T14:26:05.875Z</time></trkpt><trkpt lat="43.6187301" lon="10.7814966"><ele>86.5</ele><time>2026-04-11T14:26:06.877Z</time></trkpt><trkpt lat="43.6186921" lon="10.7815927"><ele>87.66666666666667</ele><time>2026-04-11T14:26:07.876Z</time></trkpt><trkpt lat="43.6186568" lon="10.7816821"><ele>88.83333333333333</ele><time>2026-04-11T14:26:08.875Z</time></trkpt><trkpt lat="43.618623" lon="10.7817715"><ele>90.0</ele><time>2026-04-11T14:26:09.879Z</time></trkpt><trkpt lat="43.6186016" lon="10.7818603"><ele>87.16666666666667</ele><time>2026-04-11T14:26:10.876Z</time></trkpt><trkpt lat="43.6185822" lon="10.782008"><ele>84.33333333333333</ele><time>2026-04-11T14:26:12.877Z</time></trkpt><trkpt lat="43.618592" lon="10.7821608"><ele>81.5</ele><time>2026-04-11T14:26:14.878Z</time></trkpt><trkpt lat="43.6185999" lon="10.7822567"><ele>78.66666666666666</ele><time>2026-04-11T14:26:15.875Z</time></trkpt><trkpt lat="43.618596" lon="10.7823588"><ele>75.83333333333333</ele><time>2026-04-11T14:26:16.876Z</time></trkpt><trkpt lat="43.6185673" lon="10.7824558"><ele>73.0</ele><time>2026-04-11T14:26:17.869Z</time></trkpt><trkpt lat="43.6185291" lon="10.7825485"><ele>73.0</ele><time>2026-04-11T14:26:18.872Z</time></trkpt><trkpt lat="43.618473" lon="10.7826483"><ele>73.0</ele><time>2026-04-11T14:26:19.873Z</time></trkpt><trkpt lat="43.6184102" lon="10.7827773"><ele>73.0</ele><time>2026-04-11T14:26:20.868Z</time></trkpt><trkpt lat="43.6183263" lon="10.7828887"><ele>73.0</ele><time>2026-04-11T14:26:21.872Z</time></trkpt><trkpt lat="43.6182421" lon="10.7829931"><ele>73.0</ele><time>2026-04-11T14:26:22.866Z</time></trkpt><trkpt lat="43.6181837" lon="10.7830836"><ele>73.6</ele><time>2026-04-11T14:26:23.861Z</time></trkpt><trkpt lat="43.6181479" lon="10.7831755"><ele>74.19999999999999</ele><time>2026-04-11T14:26:24.883Z</time></trkpt><trkpt lat="43.618151" lon="10.7833015"><ele>74.8</ele><time>2026-04-11T14:26:26.87Z</time></trkpt><trkpt lat="43.6182146" lon="10.7834173"><ele>75.39999999999999</ele><time>2026-04-11T14:26:28.866Z</time></trkpt><trkpt lat="43.6182771" lon="10.7834947"><ele>76.0</ele><time>2026-04-11T14:26:29.868Z</time></trkpt><trkpt lat="43.6183506" lon="10.783585"><ele>77.0</ele><time>2026-04-11T14:26:30.85Z</time></trkpt><trkpt lat="43.6184251" lon="10.7837075"><ele>78.0</ele><time>2026-04-11T14:26:31.862Z</time></trkpt><trkpt lat="43.6184958" lon="10.7838394"><ele>79.0</ele><time>2026-04-11T14:26:32.856Z</time></trkpt><trkpt lat="43.6185636" lon="10.7839717"><ele>80.0</ele><time>2026-04-11T14:26:33.855Z</time></trkpt><trkpt lat="43.6186589" lon="10.7841088"><ele>81.4</ele><time>2026-04-11T14:26:34.857Z</time></trkpt><trkpt lat="43.6187676" lon="10.7842387"><ele>82.8</ele><time>2026-04-11T14:26:35.86Z</time></trkpt><trkpt lat="43.6188357" lon="10.7843459"><ele>84.19999999999999</ele><time>2026-04-11T14:26:36.856Z</time></trkpt><trkpt lat="43.6188872" lon="10.7844251"><ele>85.6</ele><time>2026-04-11T14:26:37.86Z</time></trkpt><trkpt lat="43.6189355" lon="10.7845227"><ele>87.0</ele><time>2026-04-11T14:26:38.862Z</time></trkpt><trkpt lat="43.6189288" lon="10.7846443"><ele>87.0</ele><time>2026-04-11T14:26:39.864Z</time></trkpt><trkpt lat="43.6189539" lon="10.7847927"><ele>87.0</ele><time>2026-04-11T14:26:40.862Z</time></trkpt><trkpt lat="43.618944" lon="10.7849709"><ele>87.0</ele><time>2026-04-11T14:26:41.858Z</time></trkpt><trkpt lat="43.6189342" lon="10.785186"><ele>87.0</ele><time>2026-04-11T14:26:42.864Z</time></trkpt><trkpt lat="43.6189213" lon="10.78539"><ele>89.5</ele><time>2026-04-11T14:26:43.861Z</time></trkpt><trkpt lat="43.6189147" lon="10.7855706"><ele>92.0</ele><time>2026-04-11T14:26:44.857Z</time></trkpt><trkpt lat="43.618908" lon="10.7857183"><ele>94.5</ele><time>2026-04-11T14:26:45.877Z</time></trkpt><trkpt lat="43.6189093" lon="10.7858751"><ele>97.0</ele><time>2026-04-11T14:26:46.866Z</time></trkpt><trkpt lat="43.6188866" lon="10.7860179"><ele>97.25</ele><time>2026-04-11T14:26:47.869Z</time></trkpt><trkpt lat="43.6188199" lon="10.7861521"><ele>97.5</ele><time>2026-04-11T14:26:48.865Z</time></trkpt><trkpt lat="43.6187342" lon="10.7862929"><ele>97.75</ele><time>2026-04-11T14:26:49.871Z</time></trkpt><trkpt lat="43.6186536" lon="10.7864524"><ele>98.0</ele><time>2026-04-11T14:26:50.857Z</time></trkpt><trkpt lat="43.6185915" lon="10.7866083"><ele>98.0</ele><time>2026-04-11T14:26:51.858Z</time></trkpt><trkpt lat="43.6185641" lon="10.7867592"><ele>98.0</ele><time>2026-04-11T14:26:52.864Z</time></trkpt><trkpt lat="43.6185659" lon="10.7868926"><ele>98.0</ele><time>2026-04-11T14:26:53.863Z</time></trkpt><trkpt lat="43.6185997" lon="10.7870449"><ele>98.0</ele><time>2026-04-11T14:26:54.862Z</time></trkpt><trkpt lat="43.6186609" lon="10.7872166"><ele>97.4</ele><time>2026-04-11T14:26:55.88Z</time></trkpt><trkpt lat="43.6187105" lon="10.7873964"><ele>96.80000000000001</ele><time>2026-04-11T14:26:56.859Z</time></trkpt><trkpt lat="43.6187487" lon="10.7875359"><ele>96.2</ele><time>2026-04-11T14:26:57.863Z</time></trkpt><trkpt lat="43.6188071" lon="10.7876399"><ele>95.6</ele><time>2026-04-11T14:26:58.862Z</time></trkpt><trkpt lat="43.6188867" lon="10.7877077"><ele>95.0</ele><time>2026-04-11T14:26:59.859Z</time></trkpt><trkpt lat="43.618986" lon="10.7877472"><ele>98.25</ele><time>2026-04-11T14:27:00.855Z</time></trkpt><trkpt lat="43.6190962" lon="10.787749"><ele>101.5</ele><time>2026-04-11T14:27:01.86Z</time></trkpt><trkpt lat="43.6192045" lon="10.787783"><ele>104.75</ele><time>2026-04-11T14:27:02.858Z</time></trkpt><trkpt lat="43.6193134" lon="10.7878521"><ele>108.0</ele><time>2026-04-11T14:27:03.851Z</time></trkpt><trkpt lat="43.6194222" lon="10.7879531"><ele>109.5</ele><time>2026-04-11T14:27:04.85Z</time></trkpt><trkpt lat="43.6195308" lon="10.7880802"><ele>111.0</ele><time>2026-04-11T14:27:05.852Z</time></trkpt><trkpt lat="43.6196264" lon="10.7882168"><ele>112.5</ele><time>2026-04-11T14:27:06.849Z</time></trkpt><trkpt lat="43.6197055" lon="10.7884074"><ele>114.0</ele><time>2026-04-11T14:27:07.858Z</time></trkpt><trkpt lat="43.6197799" lon="10.7885762"><ele>116.5</ele><time>2026-04-11T14:27:08.859Z</time></trkpt><trkpt lat="43.619866" lon="10.7887234"><ele>119.0</ele><time>2026-04-11T14:27:09.857Z</time></trkpt><trkpt lat="43.6199088" lon="10.7888471"><ele>121.5</ele><time>2026-04-11T14:27:10.856Z</time></trkpt><trkpt lat="43.6199878" lon="10.7890007"><ele>124.0</ele><time>2026-04-11T14:27:11.856Z</time></trkpt><trkpt lat="43.6200595" lon="10.7891269"><ele>124.0</ele><time>2026-04-11T14:27:12.855Z</time></trkpt><trkpt lat="43.6201373" lon="10.7892356"><ele>124.0</ele><time>2026-04-11T14:27:13.852Z</time></trkpt><trkpt lat="43.6202135" lon="10.789313"><ele>124.0</ele><time>2026-04-11T14:27:14.85Z</time></trkpt><trkpt lat="43.620291" lon="10.789359"><ele>124.0</ele><time>2026-04-11T14:27:15.849Z</time></trkpt><trkpt lat="43.620358" lon="10.7893813"><ele>124.0</ele><time>2026-04-11T14:27:16.85Z</time></trkpt><trkpt lat="43.6204927" lon="10.7893217"><ele>125.66666666666667</ele><time>2026-04-11T14:27:18.863Z</time></trkpt><trkpt lat="43.6205582" lon="10.7892821"><ele>127.33333333333334</ele><time>2026-04-11T14:27:19.862Z</time></trkpt><trkpt lat="43.6206315" lon="10.7892849"><ele>129.0</ele><time>2026-04-11T14:27:21.862Z</time></trkpt><trkpt lat="43.6205864" lon="10.7893879"><ele>130.66666666666666</ele><time>2026-04-11T14:27:23.853Z</time></trkpt><trkpt lat="43.6205356" lon="10.7894762"><ele>132.33333333333331</ele><time>2026-04-11T14:27:25.869Z</time></trkpt><trkpt lat="43.6205821" lon="10.7895599"><ele>134.0</ele><time>2026-04-11T14:27:27.87Z</time></trkpt><trkpt lat="43.6206973" lon="10.7894775"><ele>134.0</ele><time>2026-04-11T14:27:29.861Z</time></trkpt><trkpt lat="43.6207551" lon="10.7893897"><ele>134.0</ele><time>2026-04-11T14:27:30.857Z</time></trkpt><trkpt lat="43.6207894" lon="10.7893164"><ele>134.0</ele><time>2026-04-11T14:27:31.863Z</time></trkpt><trkpt lat="43.62082" lon="10.7893986"><ele>134.0</ele><time>2026-04-11T14:27:35.849Z</time></trkpt><trkpt lat="43.6208152" lon="10.7894866"><ele>134.0</ele><time>2026-04-11T14:27:36.856Z</time></trkpt><trkpt lat="43.6208275" lon="10.7896032"><ele>134.0</ele><time>2026-04-11T14:27:38.858Z</time></trkpt><trkpt lat="43.620899" lon="10.7895352"><ele>136.6</ele><time>2026-04-11T14:27:40.859Z</time></trkpt><trkpt lat="43.6209508" lon="10.7894764"><ele>139.2</ele><time>2026-04-11T14:27:41.861Z</time></trkpt><trkpt lat="43.6210404" lon="10.7894282"><ele>141.79999999999998</ele><time>2026-04-11T14:27:43.861Z</time></trkpt><trkpt lat="43.6210087" lon="10.7895612"><ele>144.4</ele><time>2026-04-11T14:27:46.866Z</time></trkpt><trkpt lat="43.6209288" lon="10.7897223"><ele>147.0</ele><time>2026-04-11T14:27:48.866Z</time></trkpt><trkpt lat="43.6209071" lon="10.7898254"><ele>147.0</ele><time>2026-04-11T14:27:49.856Z</time></trkpt><trkpt lat="43.6209211" lon="10.7899771"><ele>147.0</ele><time>2026-04-11T14:27:50.861Z</time></trkpt><trkpt lat="43.6209236" lon="10.7900999"><ele>147.0</ele><time>2026-04-11T14:27:51.864Z</time></trkpt><trkpt lat="43.6208994" lon="10.7902243"><ele>147.0</ele><time>2026-04-11T14:27:52.864Z</time></trkpt><trkpt lat="43.6208625" lon="10.7903086"><ele>147.0</ele><time>2026-04-11T14:27:53.864Z</time></trkpt><trkpt lat="43.6208036" lon="10.7903958"><ele>151.0</ele><time>2026-04-11T14:27:54.865Z</time></trkpt><trkpt lat="43.6207245" lon="10.7904476"><ele>155.0</ele><time>2026-04-11T14:27:55.859Z</time></trkpt><trkpt lat="43.6206047" lon="10.7904802"><ele>159.0</ele><time>2026-04-11T14:27:56.861Z</time></trkpt><trkpt lat="43.6204783" lon="10.7905244"><ele>163.0</ele><time>2026-04-11T14:27:57.879Z</time></trkpt><trkpt lat="43.6203611" lon="10.7905534"><ele>163.33333333333334</ele><time>2026-04-11T14:27:58.857Z</time></trkpt><trkpt lat="43.6202399" lon="10.7905503"><ele>163.66666666666669</ele><time>2026-04-11T14:27:59.86Z</time></trkpt><trkpt lat="43.6201473" lon="10.7905572"><ele>164.0</ele><time>2026-04-11T14:28:00.857Z</time></trkpt><trkpt lat="43.6200925" lon="10.7904856"><ele>164.33333333333334</ele><time>2026-04-11T14:28:01.865Z</time></trkpt><trkpt lat="43.6200497" lon="10.790396"><ele>164.66666666666666</ele><time>2026-04-11T14:28:02.873Z</time></trkpt><trkpt lat="43.6200235" lon="10.790314"><ele>165.0</ele><time>2026-04-11T14:28:03.865Z</time></trkpt><trkpt lat="43.6199839" lon="10.7902331"><ele>165.0</ele><time>2026-04-11T14:28:04.87Z</time></trkpt><trkpt lat="43.6199222" lon="10.7901447"><ele>165.0</ele><time>2026-04-11T14:28:05.876Z</time></trkpt><trkpt lat="43.6198585" lon="10.7901691"><ele>165.0</ele><time>2026-04-11T14:28:06.862Z</time></trkpt><trkpt lat="43.6197923" lon="10.7902112"><ele>165.0</ele><time>2026-04-11T14:28:07.86Z</time></trkpt><trkpt lat="43.6197469" lon="10.7903119"><ele>165.0</ele><time>2026-04-11T14:28:08.862Z</time></trkpt><trkpt lat="43.6197303" lon="10.7904332"><ele>165.0</ele><time>2026-04-11T14:28:09.864Z</time></trkpt><trkpt lat="43.6197335" lon="10.7905247"><ele>165.0</ele><time>2026-04-11T14:28:10.865Z</time></trkpt><trkpt lat="43.6198147" lon="10.7906862"><ele>165.0</ele><time>2026-04-11T14:28:12.884Z</time></trkpt><trkpt lat="43.6199289" lon="10.7907688"><ele>165.0</ele><time>2026-04-11T14:28:13.879Z</time></trkpt><trkpt lat="43.6200599" lon="10.7908598"><ele>165.0</ele><time>2026-04-11T14:28:14.875Z</time></trkpt><trkpt lat="43.620182" lon="10.7909404"><ele>165.5</ele><time>2026-04-11T14:28:15.883Z</time></trkpt><trkpt lat="43.6202984" lon="10.7910215"><ele>166.0</ele><time>2026-04-11T14:28:16.881Z</time></trkpt><trkpt lat="43.6204092" lon="10.7911115"><ele>166.5</ele><time>2026-04-11T14:28:17.883Z</time></trkpt><trkpt lat="43.6205013" lon="10.7911985"><ele>167.0</ele><time>2026-04-11T14:28:18.887Z</time></trkpt><trkpt lat="43.620593" lon="10.791285"><ele>167.0</ele><time>2026-04-11T14:28:19.89Z</time></trkpt><trkpt lat="43.620671" lon="10.7913562"><ele>167.0</ele><time>2026-04-11T14:28:20.885Z</time></trkpt><trkpt lat="43.6207587" lon="10.7913991"><ele>167.0</ele><time>2026-04-11T14:28:21.889Z</time></trkpt><trkpt lat="43.6208149" lon="10.791445"><ele>167.0</ele><time>2026-04-11T14:28:22.886Z</time></trkpt><trkpt lat="43.6208731" lon="10.7915268"><ele>167.0</ele><time>2026-04-11T14:28:24.893Z</time></trkpt><trkpt lat="43.6208616" lon="10.7916398"><ele>167.0</ele><time>2026-04-11T14:28:34.894Z</time></trkpt><trkpt lat="43.620797" lon="10.7917344"><ele>167.0</ele><time>2026-04-11T14:28:36.889Z</time></trkpt><trkpt lat="43.6207321" lon="10.7917844"><ele>167.0</ele><time>2026-04-11T14:28:37.885Z</time></trkpt><trkpt lat="43.620665" lon="10.7918232"><ele>167.0</ele><time>2026-04-11T14:28:38.881Z</time></trkpt><trkpt lat="43.620596" lon="10.7918601"><ele>167.0</ele><time>2026-04-11T14:28:39.879Z</time></trkpt><trkpt lat="43.6205216" lon="10.7918905"><ele>167.0</ele><time>2026-04-11T14:28:40.889Z</time></trkpt><trkpt lat="43.6204215" lon="10.7919277"><ele>167.0</ele><time>2026-04-11T14:28:41.885Z</time></trkpt><trkpt lat="43.6203162" lon="10.7919673"><ele>169.16666666666666</ele><time>2026-04-11T14:28:42.879Z</time></trkpt><trkpt lat="43.6202102" lon="10.7920017"><ele>171.33333333333331</ele><time>2026-04-11T14:28:43.886Z</time></trkpt><trkpt lat="43.6201317" lon="10.7920172"><ele>173.5</ele><time>2026-04-11T14:28:44.865Z</time></trkpt><trkpt lat="43.620073" lon="10.792065"><ele>175.66666666666666</ele><time>2026-04-11T14:28:45.872Z</time></trkpt><trkpt lat="43.6200179" lon="10.792129"><ele>177.83333333333334</ele><time>2026-04-11T14:28:46.87Z</time></trkpt><trkpt lat="43.6199685" lon="10.7922239"><ele>180.0</ele><time>2026-04-11T14:28:47.879Z</time></trkpt><trkpt lat="43.6199198" lon="10.7923309"><ele>180.0</ele><time>2026-04-11T14:28:48.885Z</time></trkpt><trkpt lat="43.6198678" lon="10.7924578"><ele>180.0</ele><time>2026-04-11T14:28:49.887Z</time></trkpt><trkpt lat="43.6198126" lon="10.7925879"><ele>180.0</ele><time>2026-04-11T14:28:50.891Z</time></trkpt><trkpt lat="43.6197597" lon="10.7927193"><ele>180.0</ele><time>2026-04-11T14:28:51.885Z</time></trkpt><trkpt lat="43.6197148" lon="10.7928481"><ele>180.0</ele><time>2026-04-11T14:28:52.884Z</time></trkpt><trkpt lat="43.6196641" lon="10.7929612"><ele>180.6</ele><time>2026-04-11T14:28:53.883Z</time></trkpt><trkpt lat="43.6196176" lon="10.7930741"><ele>181.2</ele><time>2026-04-11T14:28:54.884Z</time></trkpt><trkpt lat="43.6195788" lon="10.7931631"><ele>181.8</ele><time>2026-04-11T14:28:55.876Z</time></trkpt><trkpt lat="43.6194858" lon="10.793274"><ele>182.4</ele><time>2026-04-11T14:28:57.87Z</time></trkpt><trkpt lat="43.619389" lon="10.7932844"><ele>183.0</ele><time>2026-04-11T14:28:59.888Z</time></trkpt><trkpt lat="43.619325" lon="10.7932658"><ele>184.4</ele><time>2026-04-11T14:29:00.864Z</time></trkpt><trkpt lat="43.6192473" lon="10.7932836"><ele>185.8</ele><time>2026-04-11T14:29:01.854Z</time></trkpt><trkpt lat="43.6191784" lon="10.7933191"><ele>187.2</ele><time>2026-04-11T14:29:02.862Z</time></trkpt><trkpt lat="43.6190715" lon="10.7933489"><ele>188.6</ele><time>2026-04-11T14:29:03.861Z</time></trkpt><trkpt lat="43.618969" lon="10.7933861"><ele>190.0</ele><time>2026-04-11T14:29:04.853Z</time></trkpt><trkpt lat="43.6188745" lon="10.7934344"><ele>190.0</ele><time>2026-04-11T14:29:05.852Z</time></trkpt><trkpt lat="43.6187789" lon="10.7934922"><ele>190.0</ele><time>2026-04-11T14:29:06.854Z</time></trkpt><trkpt lat="43.6186886" lon="10.7935597"><ele>190.0</ele><time>2026-04-11T14:29:07.858Z</time></trkpt><trkpt lat="43.6185961" lon="10.7936355"><ele>190.0</ele><time>2026-04-11T14:29:08.86Z</time></trkpt><trkpt lat="43.6185012" lon="10.7937261"><ele>190.0</ele><time>2026-04-11T14:29:09.858Z</time></trkpt><trkpt lat="43.6184191" lon="10.7938328"><ele>189.6</ele><time>2026-04-11T14:29:10.855Z</time></trkpt><trkpt lat="43.6183474" lon="10.793932"><ele>189.2</ele><time>2026-04-11T14:29:11.854Z</time></trkpt><trkpt lat="43.6182681" lon="10.7940321"><ele>188.8</ele><time>2026-04-11T14:29:12.855Z</time></trkpt><trkpt lat="43.6181848" lon="10.7941388"><ele>188.4</ele><time>2026-04-11T14:29:13.858Z</time></trkpt><trkpt lat="43.6181122" lon="10.7942768"><ele>188.0</ele><time>2026-04-11T14:29:14.857Z</time></trkpt><trkpt lat="43.6180317" lon="10.7943816"><ele>186.60000000000002</ele><time>2026-04-11T14:29:15.856Z</time></trkpt><trkpt lat="43.6179551" lon="10.7944567"><ele>185.20000000000002</ele><time>2026-04-11T14:29:16.856Z</time></trkpt><trkpt lat="43.6178769" lon="10.7945448"><ele>183.8</ele><time>2026-04-11T14:29:17.859Z</time></trkpt><trkpt lat="43.617803" lon="10.7946149"><ele>182.4</ele><time>2026-04-11T14:29:18.861Z</time></trkpt><trkpt lat="43.6177252" lon="10.7947057"><ele>181.0</ele><time>2026-04-11T14:29:19.863Z</time></trkpt><trkpt lat="43.6176494" lon="10.7947847"><ele>181.0</ele><time>2026-04-11T14:29:20.859Z</time></trkpt><trkpt lat="43.6175805" lon="10.7948894"><ele>181.0</ele><time>2026-04-11T14:29:21.859Z</time></trkpt><trkpt lat="43.6175233" lon="10.7950094"><ele>181.0</ele><time>2026-04-11T14:29:22.856Z</time></trkpt><trkpt lat="43.6174892" lon="10.7951372"><ele>181.0</ele><time>2026-04-11T14:29:23.856Z</time></trkpt><trkpt lat="43.6174576" lon="10.7952548"><ele>181.0</ele><time>2026-04-11T14:29:24.861Z</time></trkpt><trkpt lat="43.6174184" lon="10.7953672"><ele>181.60000000000002</ele><time>2026-04-11T14:29:25.859Z</time></trkpt><trkpt lat="43.6173879" lon="10.7954814"><ele>182.2</ele><time>2026-04-11T14:29:26.856Z</time></trkpt><trkpt lat="43.6173527" lon="10.7955908"><ele>182.8</ele><time>2026-04-11T14:29:27.863Z</time></trkpt><trkpt lat="43.6173302" lon="10.7957218"><ele>183.39999999999998</ele><time>2026-04-11T14:29:28.862Z</time></trkpt><trkpt lat="43.6173194" lon="10.7958574"><ele>184.0</ele><time>2026-04-11T14:29:29.857Z</time></trkpt><trkpt lat="43.6173159" lon="10.7959933"><ele>184.0</ele><time>2026-04-11T14:29:30.874Z</time></trkpt><trkpt lat="43.6173194" lon="10.7961297"><ele>184.0</ele><time>2026-04-11T14:29:31.856Z</time></trkpt><trkpt lat="43.6173305" lon="10.7962583"><ele>184.0</ele><time>2026-04-11T14:29:32.861Z</time></trkpt><trkpt lat="43.6173218" lon="10.7963862"><ele>184.0</ele><time>2026-04-11T14:29:33.858Z</time></trkpt><trkpt lat="43.6173165" lon="10.7964911"><ele>184.0</ele><time>2026-04-11T14:29:34.878Z</time></trkpt><trkpt lat="43.6172977" lon="10.7966119"><ele>184.0</ele><time>2026-04-11T14:29:35.873Z</time></trkpt><trkpt lat="43.6172895" lon="10.7967488"><ele>184.0</ele><time>2026-04-11T14:29:36.874Z</time></trkpt><trkpt lat="43.6172863" lon="10.7968904"><ele>184.0</ele><time>2026-04-11T14:29:37.866Z</time></trkpt><trkpt lat="43.6173016" lon="10.7970175"><ele>184.0</ele><time>2026-04-11T14:29:38.872Z</time></trkpt><trkpt lat="43.6173173" lon="10.7971533"><ele>184.0</ele><time>2026-04-11T14:29:39.876Z</time></trkpt><trkpt lat="43.6173379" lon="10.7972564"><ele>184.5</ele><time>2026-04-11T14:29:40.875Z</time></trkpt><trkpt lat="43.6173842" lon="10.7973355"><ele>185.0</ele><time>2026-04-11T14:29:41.877Z</time></trkpt><trkpt lat="43.6174372" lon="10.7973958"><ele>185.5</ele><time>2026-04-11T14:29:42.881Z</time></trkpt><trkpt lat="43.6174871" lon="10.79746"><ele>186.0</ele><time>2026-04-11T14:29:43.891Z</time></trkpt><trkpt lat="43.6174843" lon="10.7975813"><ele>186.5</ele><time>2026-04-11T14:29:45.881Z</time></trkpt><trkpt lat="43.6174102" lon="10.7976912"><ele>187.0</ele><time>2026-04-11T14:29:47.876Z</time></trkpt><trkpt lat="43.6173634" lon="10.7977832"><ele>188.75</ele><time>2026-04-11T14:29:48.874Z</time></trkpt><trkpt lat="43.6173186" lon="10.7979132"><ele>190.5</ele><time>2026-04-11T14:29:49.877Z</time></trkpt><trkpt lat="43.6172683" lon="10.7980689"><ele>192.25</ele><time>2026-04-11T14:29:50.874Z</time></trkpt><trkpt lat="43.6172333" lon="10.7982336"><ele>194.0</ele><time>2026-04-11T14:29:51.87Z</time></trkpt><trkpt lat="43.6172202" lon="10.7983743"><ele>192.00000000000003</ele><time>2026-04-11T14:29:52.873Z</time></trkpt><trkpt lat="43.6172156" lon="10.7985096"><ele>190.0</ele><time>2026-04-11T14:29:53.871Z</time></trkpt><trkpt lat="43.6172223" lon="10.7986385"><ele>188.0</ele><time>2026-04-11T14:29:54.875Z</time></trkpt><trkpt lat="43.6172086" lon="10.7987357"><ele>186.0</ele><time>2026-04-11T14:29:55.874Z</time></trkpt><trkpt lat="43.6171836" lon="10.798831"><ele>184.0</ele><time>2026-04-11T14:29:56.877Z</time></trkpt><trkpt lat="43.6171459" lon="10.7989275"><ele>182.0</ele><time>2026-04-11T14:29:57.87Z</time></trkpt><trkpt lat="43.6170761" lon="10.7990441"><ele>182.5</ele><time>2026-04-11T14:29:58.865Z</time></trkpt><trkpt lat="43.6169696" lon="10.799188"><ele>183.0</ele><time>2026-04-11T14:29:59.862Z</time></trkpt><trkpt lat="43.6168689" lon="10.7993248"><ele>183.5</ele><time>2026-04-11T14:30:00.86Z</time></trkpt><trkpt lat="43.6167744" lon="10.7994504"><ele>184.0</ele><time>2026-04-11T14:30:01.878Z</time></trkpt><trkpt lat="43.616685" lon="10.7995568"><ele>184.0</ele><time>2026-04-11T14:30:02.863Z</time></trkpt><trkpt lat="43.6166029" lon="10.7996559"><ele>184.0</ele><time>2026-04-11T14:30:03.875Z</time></trkpt><trkpt lat="43.6165346" lon="10.7997716"><ele>184.0</ele><time>2026-04-11T14:30:04.869Z</time></trkpt><trkpt lat="43.6164787" lon="10.799891"><ele>184.0</ele><time>2026-04-11T14:30:05.864Z</time></trkpt><trkpt lat="43.6164294" lon="10.8000084"><ele>184.0</ele><time>2026-04-11T14:30:06.862Z</time></trkpt><trkpt lat="43.6163688" lon="10.8001238"><ele>183.39999999999998</ele><time>2026-04-11T14:30:07.864Z</time></trkpt><trkpt lat="43.6163047" lon="10.8002489"><ele>182.8</ele><time>2026-04-11T14:30:08.865Z</time></trkpt><trkpt lat="43.6162426" lon="10.80037"><ele>182.2</ele><time>2026-04-11T14:30:09.865Z</time></trkpt><trkpt lat="43.6161903" lon="10.8004974"><ele>181.60000000000002</ele><time>2026-04-11T14:30:10.866Z</time></trkpt><trkpt lat="43.6161275" lon="10.8006081"><ele>181.0</ele><time>2026-04-11T14:30:11.867Z</time></trkpt><trkpt lat="43.616048" lon="10.800727"><ele>181.0</ele><time>2026-04-11T14:30:12.861Z</time></trkpt><trkpt lat="43.6159616" lon="10.8008508"><ele>181.0</ele><time>2026-04-11T14:30:13.864Z</time></trkpt><trkpt lat="43.6158696" lon="10.8009472"><ele>181.0</ele><time>2026-04-11T14:30:14.868Z</time></trkpt><trkpt lat="43.6157711" lon="10.8010238"><ele>181.0</ele><time>2026-04-11T14:30:15.872Z</time></trkpt><trkpt lat="43.6156904" lon="10.8011106"><ele>182.4</ele><time>2026-04-11T14:30:16.872Z</time></trkpt><trkpt lat="43.6156277" lon="10.8012171"><ele>183.8</ele><time>2026-04-11T14:30:17.867Z</time></trkpt><trkpt lat="43.6155724" lon="10.8013043"><ele>185.20000000000002</ele><time>2026-04-11T14:30:18.864Z</time></trkpt><trkpt lat="43.6155017" lon="10.8013743"><ele>186.60000000000002</ele><time>2026-04-11T14:30:19.867Z</time></trkpt><trkpt lat="43.6154152" lon="10.8014187"><ele>188.0</ele><time>2026-04-11T14:30:20.867Z</time></trkpt><trkpt lat="43.615307" lon="10.8014382"><ele>188.0</ele><time>2026-04-11T14:30:21.873Z</time></trkpt><trkpt lat="43.6151856" lon="10.8014555"><ele>188.0</ele><time>2026-04-11T14:30:22.871Z</time></trkpt><trkpt lat="43.6150645" lon="10.801485"><ele>188.0</ele><time>2026-04-11T14:30:23.868Z</time></trkpt><trkpt lat="43.6149447" lon="10.8015145"><ele>188.0</ele><time>2026-04-11T14:30:24.866Z</time></trkpt><trkpt lat="43.614845" lon="10.8015654"><ele>188.0</ele><time>2026-04-11T14:30:25.859Z</time></trkpt><trkpt lat="43.6147469" lon="10.8016183"><ele>188.0</ele><time>2026-04-11T14:30:26.858Z</time></trkpt><trkpt lat="43.6146584" lon="10.8017082"><ele>188.0</ele><time>2026-04-11T14:30:27.862Z</time></trkpt><trkpt lat="43.6145838" lon="10.8017955"><ele>188.0</ele><time>2026-04-11T14:30:28.861Z</time></trkpt><trkpt lat="43.614486" lon="10.8018642"><ele>188.0</ele><time>2026-04-11T14:30:29.854Z</time></trkpt><trkpt lat="43.6143701" lon="10.801934"><ele>189.25</ele><time>2026-04-11T14:30:30.857Z</time></trkpt><trkpt lat="43.614244" lon="10.8020108"><ele>190.5</ele><time>2026-04-11T14:30:31.852Z</time></trkpt><trkpt lat="43.6141231" lon="10.8020753"><ele>191.75</ele><time>2026-04-11T14:30:32.869Z</time></trkpt><trkpt lat="43.6140096" lon="10.8021159"><ele>193.0</ele><time>2026-04-11T14:30:33.85Z</time></trkpt><trkpt lat="43.6139095" lon="10.8021426"><ele>192.99999999999997</ele><time>2026-04-11T14:30:34.85Z</time></trkpt><trkpt lat="43.6138363" lon="10.8021556"><ele>193.0</ele><time>2026-04-11T14:30:35.846Z</time></trkpt><trkpt lat="43.6137711" lon="10.8021903"><ele>193.0</ele><time>2026-04-11T14:30:36.852Z</time></trkpt><trkpt lat="43.6136976" lon="10.8022609"><ele>193.0</ele><time>2026-04-11T14:30:37.845Z</time></trkpt><trkpt lat="43.6136312" lon="10.8023564"><ele>192.99999999999997</ele><time>2026-04-11T14:30:38.847Z</time></trkpt><trkpt lat="43.6135622" lon="10.8024672"><ele>193.0</ele><time>2026-04-11T14:30:39.845Z</time></trkpt><trkpt lat="43.6135124" lon="10.8025953"><ele>195.16666666666666</ele><time>2026-04-11T14:30:40.844Z</time></trkpt><trkpt lat="43.6134842" lon="10.8027383"><ele>197.33333333333331</ele><time>2026-04-11T14:30:41.858Z</time></trkpt><trkpt lat="43.6134546" lon="10.8028658"><ele>199.5</ele><time>2026-04-11T14:30:42.854Z</time></trkpt><trkpt lat="43.6134404" lon="10.8029726"><ele>201.66666666666669</ele><time>2026-04-11T14:30:43.856Z</time></trkpt><trkpt lat="43.6134325" lon="10.8030825"><ele>203.83333333333334</ele><time>2026-04-11T14:30:44.852Z</time></trkpt><trkpt lat="43.6134467" lon="10.8031764"><ele>206.0</ele><time>2026-04-11T14:30:45.859Z</time></trkpt><trkpt lat="43.6134632" lon="10.803266"><ele>206.0</ele><time>2026-04-11T14:30:46.869Z</time></trkpt><trkpt lat="43.6134687" lon="10.8033571"><ele>206.0</ele><time>2026-04-11T14:30:47.859Z</time></trkpt><trkpt lat="43.6133946" lon="10.8034088"><ele>206.0</ele><time>2026-04-11T14:31:07.874Z</time></trkpt><trkpt lat="43.6133046" lon="10.8033713"><ele>206.0</ele><time>2026-04-11T14:31:09.865Z</time></trkpt><trkpt lat="43.613151" lon="10.8032536"><ele>206.0</ele><time>2026-04-11T14:31:11.875Z</time></trkpt><trkpt lat="43.6130645" lon="10.8031873"><ele>206.00000000000003</ele><time>2026-04-11T14:31:12.866Z</time></trkpt><trkpt lat="43.6129843" lon="10.803118"><ele>206.0</ele><time>2026-04-11T14:31:13.859Z</time></trkpt><trkpt lat="43.6129195" lon="10.8030548"><ele>206.0</ele><time>2026-04-11T14:31:14.852Z</time></trkpt><trkpt lat="43.6128581" lon="10.8029932"><ele>206.0</ele><time>2026-04-11T14:31:15.86Z</time></trkpt><trkpt lat="43.6127908" lon="10.802953"><ele>206.00000000000003</ele><time>2026-04-11T14:31:16.853Z</time></trkpt><trkpt lat="43.6127033" lon="10.8029425"><ele>206.0</ele><time>2026-04-11T14:31:17.859Z</time></trkpt><trkpt lat="43.6125835" lon="10.8029588"><ele>204.25</ele><time>2026-04-11T14:31:18.855Z</time></trkpt><trkpt lat="43.6124426" lon="10.8030196"><ele>202.5</ele><time>2026-04-11T14:31:19.854Z</time></trkpt><trkpt lat="43.6123112" lon="10.803042"><ele>200.75</ele><time>2026-04-11T14:31:20.851Z</time></trkpt><trkpt lat="43.6122014" lon="10.8030711"><ele>199.0</ele><time>2026-04-11T14:31:21.856Z</time></trkpt><trkpt lat="43.6121138" lon="10.8031021"><ele>198.99999999999997</ele><time>2026-04-11T14:31:22.857Z</time></trkpt><trkpt lat="43.6120364" lon="10.8031378"><ele>199.0</ele><time>2026-04-11T14:31:23.87Z</time></trkpt><trkpt lat="43.6119503" lon="10.8031345"><ele>199.0</ele><time>2026-04-11T14:31:24.874Z</time></trkpt><trkpt lat="43.6118664" lon="10.8031273"><ele>199.0</ele><time>2026-04-11T14:31:25.87Z</time></trkpt><trkpt lat="43.6117832" lon="10.8031331"><ele>198.99999999999997</ele><time>2026-04-11T14:31:26.866Z</time></trkpt><trkpt lat="43.6116901" lon="10.8031469"><ele>199.0</ele><time>2026-04-11T14:31:27.87Z</time></trkpt><trkpt lat="43.6115825" lon="10.8031929"><ele>198.6</ele><time>2026-04-11T14:31:28.872Z</time></trkpt><trkpt lat="43.6114764" lon="10.8032322"><ele>198.2</ele><time>2026-04-11T14:31:29.872Z</time></trkpt><trkpt lat="43.6113829" lon="10.8032521"><ele>197.79999999999998</ele><time>2026-04-11T14:31:30.874Z</time></trkpt><trkpt lat="43.6112866" lon="10.8032697"><ele>197.39999999999998</ele><time>2026-04-11T14:31:31.873Z</time></trkpt><trkpt lat="43.6111938" lon="10.8032897"><ele>197.0</ele><time>2026-04-11T14:31:32.869Z</time></trkpt><trkpt lat="43.6111058" lon="10.8033058"><ele>197.8</ele><time>2026-04-11T14:31:33.861Z</time></trkpt><trkpt lat="43.6110161" lon="10.8033521"><ele>198.6</ele><time>2026-04-11T14:31:34.884Z</time></trkpt><trkpt lat="43.6109311" lon="10.8034106"><ele>199.4</ele><time>2026-04-11T14:31:35.862Z</time></trkpt><trkpt lat="43.6108336" lon="10.8034854"><ele>200.20000000000002</ele><time>2026-04-11T14:31:36.859Z</time></trkpt><trkpt lat="43.6107321" lon="10.8035957"><ele>201.0</ele><time>2026-04-11T14:31:37.856Z</time></trkpt><trkpt lat="43.6106364" lon="10.8037085"><ele>201.20000000000002</ele><time>2026-04-11T14:31:38.86Z</time></trkpt><trkpt lat="43.6105603" lon="10.8038091"><ele>201.4</ele><time>2026-04-11T14:31:39.86Z</time></trkpt><trkpt lat="43.6105062" lon="10.8038874"><ele>201.6</ele><time>2026-04-11T14:31:40.856Z</time></trkpt><trkpt lat="43.6103968" lon="10.8039932"><ele>201.8</ele><time>2026-04-11T14:31:42.859Z</time></trkpt><trkpt lat="43.6103258" lon="10.8039748"><ele>202.0</ele><time>2026-04-11T14:31:43.862Z</time></trkpt><trkpt lat="43.6102607" lon="10.8039343"><ele>203.99999999999997</ele><time>2026-04-11T14:31:44.859Z</time></trkpt><trkpt lat="43.6101966" lon="10.8039338"><ele>206.0</ele><time>2026-04-11T14:31:45.857Z</time></trkpt><trkpt lat="43.6100789" lon="10.8039903"><ele>208.0</ele><time>2026-04-11T14:31:47.864Z</time></trkpt><trkpt lat="43.6100107" lon="10.8040329"><ele>210.0</ele><time>2026-04-11T14:31:48.862Z</time></trkpt><trkpt lat="43.6099367" lon="10.8040914"><ele>211.99999999999997</ele><time>2026-04-11T14:31:49.868Z</time></trkpt><trkpt lat="43.6098615" lon="10.8041564"><ele>214.0</ele><time>2026-04-11T14:31:50.874Z</time></trkpt><trkpt lat="43.6097847" lon="10.8042166"><ele>213.99999999999997</ele><time>2026-04-11T14:31:51.872Z</time></trkpt><trkpt lat="43.6097014" lon="10.8042429"><ele>214.0</ele><time>2026-04-11T14:31:52.865Z</time></trkpt><trkpt lat="43.6096298" lon="10.8042459"><ele>214.0</ele><time>2026-04-11T14:31:53.874Z</time></trkpt><trkpt lat="43.6095654" lon="10.8042483"><ele>214.0</ele><time>2026-04-11T14:31:54.871Z</time></trkpt><trkpt lat="43.6094757" lon="10.8042149"><ele>213.99999999999997</ele><time>2026-04-11T14:31:55.874Z</time></trkpt><trkpt lat="43.6093759" lon="10.8041348"><ele>214.0</ele><time>2026-04-11T14:31:56.868Z</time></trkpt><trkpt lat="43.6092662" lon="10.8040486"><ele>215.2</ele><time>2026-04-11T14:31:57.874Z</time></trkpt><trkpt lat="43.6091762" lon="10.8039888"><ele>216.39999999999998</ele><time>2026-04-11T14:31:58.874Z</time></trkpt><trkpt lat="43.6090825" lon="10.8039336"><ele>217.6</ele><time>2026-04-11T14:31:59.873Z</time></trkpt><trkpt lat="43.6089687" lon="10.8038778"><ele>218.8</ele><time>2026-04-11T14:32:00.874Z</time></trkpt><trkpt lat="43.6088626" lon="10.8038527"><ele>220.0</ele><time>2026-04-11T14:32:01.878Z</time></trkpt><trkpt lat="43.6087577" lon="10.8038135"><ele>220.0</ele><time>2026-04-11T14:32:02.877Z</time></trkpt><trkpt lat="43.6086654" lon="10.8037713"><ele>220.0</ele><time>2026-04-11T14:32:03.867Z</time></trkpt><trkpt lat="43.6085936" lon="10.8037241"><ele>220.0</ele><time>2026-04-11T14:32:04.874Z</time></trkpt><trkpt lat="43.608537" lon="10.8036556"><ele>220.0</ele><time>2026-04-11T14:32:05.88Z</time></trkpt><trkpt lat="43.6084927" lon="10.803552"><ele>220.0</ele><time>2026-04-11T14:32:06.861Z</time></trkpt><trkpt lat="43.6084547" lon="10.8033979"><ele>220.66666666666666</ele><time>2026-04-11T14:32:07.876Z</time></trkpt><trkpt lat="43.6084132" lon="10.8032499"><ele>221.33333333333331</ele><time>2026-04-11T14:32:08.876Z</time></trkpt><trkpt lat="43.6083747" lon="10.803139"><ele>222.0</ele><time>2026-04-11T14:32:09.881Z</time></trkpt><trkpt lat="43.6083361" lon="10.8030572"><ele>222.66666666666669</ele><time>2026-04-11T14:32:10.869Z</time></trkpt><trkpt lat="43.6082791" lon="10.8029954"><ele>223.33333333333334</ele><time>2026-04-11T14:32:11.869Z</time></trkpt><trkpt lat="43.6082231" lon="10.8029493"><ele>224.0</ele><time>2026-04-11T14:32:12.869Z</time></trkpt><trkpt lat="43.6081591" lon="10.8029235"><ele>224.0</ele><time>2026-04-11T14:32:13.876Z</time></trkpt><trkpt lat="43.608098" lon="10.8029022"><ele>223.99999999999997</ele><time>2026-04-11T14:32:14.877Z</time></trkpt><trkpt lat="43.6079733" lon="10.802866"><ele>223.99999999999997</ele><time>2026-04-11T14:32:16.878Z</time></trkpt><trkpt lat="43.6078738" lon="10.8028126"><ele>224.0</ele><time>2026-04-11T14:32:17.88Z</time></trkpt><trkpt lat="43.6077654" lon="10.8027611"><ele>224.0</ele><time>2026-04-11T14:32:18.887Z</time></trkpt><trkpt lat="43.6076815" lon="10.8027048"><ele>224.50000000000003</ele><time>2026-04-11T14:32:19.885Z</time></trkpt><trkpt lat="43.6075988" lon="10.8026474"><ele>225.0</ele><time>2026-04-11T14:32:20.885Z</time></trkpt><trkpt lat="43.6075298" lon="10.8025944"><ele>225.5</ele><time>2026-04-11T14:32:21.876Z</time></trkpt><trkpt lat="43.607472" lon="10.802526"><ele>226.0</ele><time>2026-04-11T14:32:22.872Z</time></trkpt><trkpt lat="43.6074079" lon="10.8024514"><ele>226.50000000000003</ele><time>2026-04-11T14:32:23.876Z</time></trkpt><trkpt lat="43.6073293" lon="10.802365"><ele>227.0</ele><time>2026-04-11T14:32:24.873Z</time></trkpt><trkpt lat="43.6072511" lon="10.8022569"><ele>227.0</ele><time>2026-04-11T14:32:25.869Z</time></trkpt><trkpt lat="43.6071647" lon="10.8021291"><ele>227.0</ele><time>2026-04-11T14:32:26.869Z</time></trkpt><trkpt lat="43.6070953" lon="10.8019868"><ele>227.0</ele><time>2026-04-11T14:32:27.878Z</time></trkpt><trkpt lat="43.6070227" lon="10.8018631"><ele>227.0</ele><time>2026-04-11T14:32:28.876Z</time></trkpt><trkpt lat="43.6069415" lon="10.8017538"><ele>226.0</ele><time>2026-04-11T14:32:29.873Z</time></trkpt><trkpt lat="43.6068868" lon="10.8016322"><ele>225.0</ele><time>2026-04-11T14:32:30.874Z</time></trkpt><trkpt lat="43.6068351" lon="10.8015075"><ele>224.0</ele><time>2026-04-11T14:32:31.875Z</time></trkpt><trkpt lat="43.6067986" lon="10.8013812"><ele>223.0</ele><time>2026-04-11T14:32:32.87Z</time></trkpt><trkpt lat="43.6067743" lon="10.8012537"><ele>222.0</ele><time>2026-04-11T14:32:33.868Z</time></trkpt><trkpt lat="43.606751" lon="10.8011342"><ele>222.0</ele><time>2026-04-11T14:32:34.864Z</time></trkpt><trkpt lat="43.606704" lon="10.8010186"><ele>222.0</ele><time>2026-04-11T14:32:35.859Z</time></trkpt><trkpt lat="43.6066578" lon="10.8009129"><ele>222.0</ele><time>2026-04-11T14:32:36.869Z</time></trkpt><trkpt lat="43.6066065" lon="10.8008182"><ele>222.0</ele><time>2026-04-11T14:32:37.855Z</time></trkpt><trkpt lat="43.6065456" lon="10.8007527"><ele>222.0</ele><time>2026-04-11T14:32:38.86Z</time></trkpt><trkpt lat="43.6064793" lon="10.8007031"><ele>222.0</ele><time>2026-04-11T14:32:39.862Z</time></trkpt><trkpt lat="43.606378" lon="10.8006263"><ele>220.75</ele><time>2026-04-11T14:32:40.862Z</time></trkpt><trkpt lat="43.6062747" lon="10.8005366"><ele>219.5</ele><time>2026-04-11T14:32:41.861Z</time></trkpt><trkpt lat="43.6061581" lon="10.8004644"><ele>218.25</ele><time>2026-04-11T14:32:42.859Z</time></trkpt><trkpt lat="43.6060374" lon="10.8004133"><ele>217.0</ele><time>2026-04-11T14:32:43.861Z</time></trkpt><trkpt lat="43.6059267" lon="10.8003798"><ele>217.0</ele><time>2026-04-11T14:32:44.858Z</time></trkpt><trkpt lat="43.6058347" lon="10.8003392"><ele>217.0</ele><time>2026-04-11T14:32:45.846Z</time></trkpt><trkpt lat="43.6057506" lon="10.8002916"><ele>217.0</ele><time>2026-04-11T14:32:46.837Z</time></trkpt><trkpt lat="43.6056781" lon="10.8002193"><ele>217.0</ele><time>2026-04-11T14:32:47.845Z</time></trkpt><trkpt lat="43.6055915" lon="10.8001393"><ele>217.0</ele><time>2026-04-11T14:32:48.856Z</time></trkpt><trkpt lat="43.6055042" lon="10.8000492"><ele>215.5</ele><time>2026-04-11T14:32:49.855Z</time></trkpt><trkpt lat="43.6054133" lon="10.7999488"><ele>214.0</ele><time>2026-04-11T14:32:50.845Z</time></trkpt><trkpt lat="43.6053457" lon="10.7998063"><ele>212.5</ele><time>2026-04-11T14:32:51.855Z</time></trkpt><trkpt lat="43.605295" lon="10.7996635"><ele>211.0</ele><time>2026-04-11T14:32:52.847Z</time></trkpt><trkpt lat="43.60525" lon="10.7995285"><ele>211.0</ele><time>2026-04-11T14:32:53.847Z</time></trkpt><trkpt lat="43.6052061" lon="10.7993953"><ele>211.0</ele><time>2026-04-11T14:32:54.847Z</time></trkpt><trkpt lat="43.6051808" lon="10.7992536"><ele>211.0</ele><time>2026-04-11T14:32:55.844Z</time></trkpt><trkpt lat="43.6051298" lon="10.7991663"><ele>211.0</ele><time>2026-04-11T14:32:56.846Z</time></trkpt><trkpt lat="43.6050544" lon="10.7991092"><ele>211.0</ele><time>2026-04-11T14:32:57.852Z</time></trkpt><trkpt lat="43.6050017" lon="10.7990298"><ele>210.99999999999997</ele><time>2026-04-11T14:32:58.846Z</time></trkpt><trkpt lat="43.6049234" lon="10.7990129"><ele>211.0</ele><time>2026-04-11T14:33:01.853Z</time></trkpt><trkpt lat="43.6049089" lon="10.7991141"><ele>211.0</ele><time>2026-04-11T14:33:03.858Z</time></trkpt><trkpt lat="43.6049482" lon="10.7992343"><ele>211.0</ele><time>2026-04-11T14:33:05.867Z</time></trkpt><trkpt lat="43.6049846" lon="10.7993071"><ele>210.99999999999997</ele><time>2026-04-11T14:33:06.86Z</time></trkpt><trkpt lat="43.6050254" lon="10.799397"><ele>211.0</ele><time>2026-04-11T14:33:07.898Z</time></trkpt><trkpt lat="43.6050713" lon="10.7995009"><ele>211.0</ele><time>2026-04-11T14:33:08.861Z</time></trkpt><trkpt lat="43.6051211" lon="10.7996103"><ele>211.0</ele><time>2026-04-11T14:33:09.86Z</time></trkpt><trkpt lat="43.6051693" lon="10.7997264"><ele>211.0</ele><time>2026-04-11T14:33:10.85Z</time></trkpt><trkpt lat="43.6052179" lon="10.7998532"><ele>211.0</ele><time>2026-04-11T14:33:11.854Z</time></trkpt><trkpt lat="43.6052648" lon="10.7999727"><ele>211.0</ele><time>2026-04-11T14:33:12.858Z</time></trkpt><trkpt lat="43.6053132" lon="10.8000862"><ele>212.20000000000002</ele><time>2026-04-11T14:33:13.859Z</time></trkpt><trkpt lat="43.6053654" lon="10.8002114"><ele>213.4</ele><time>2026-04-11T14:33:14.859Z</time></trkpt><trkpt lat="43.6054196" lon="10.8003298"><ele>214.6</ele><time>2026-04-11T14:33:15.856Z</time></trkpt><trkpt lat="43.6054631" lon="10.8004251"><ele>215.8</ele><time>2026-04-11T14:33:16.863Z</time></trkpt><trkpt lat="43.6054912" lon="10.8005075"><ele>217.0</ele><time>2026-04-11T14:33:17.866Z</time></trkpt><trkpt lat="43.6055176" lon="10.8006363"><ele>217.0</ele><time>2026-04-11T14:33:19.859Z</time></trkpt><trkpt lat="43.6054414" lon="10.8007305"><ele>217.0</ele><time>2026-04-11T14:33:21.861Z</time></trkpt><trkpt lat="43.6053597" lon="10.8007732"><ele>217.0</ele><time>2026-04-11T14:33:22.864Z</time></trkpt><trkpt lat="43.6052588" lon="10.8008376"><ele>217.0</ele><time>2026-04-11T14:33:23.863Z</time></trkpt><trkpt lat="43.6051614" lon="10.8009127"><ele>217.0</ele><time>2026-04-11T14:33:24.866Z</time></trkpt><trkpt lat="43.6050517" lon="10.8009874"><ele>212.5</ele><time>2026-04-11T14:33:25.867Z</time></trkpt><trkpt lat="43.6049524" lon="10.8010531"><ele>208.0</ele><time>2026-04-11T14:33:26.867Z</time></trkpt><trkpt lat="43.6048542" lon="10.8011345"><ele>203.5</ele><time>2026-04-11T14:33:27.873Z</time></trkpt><trkpt lat="43.6047504" lon="10.8012144"><ele>199.0</ele><time>2026-04-11T14:33:28.867Z</time></trkpt><trkpt lat="43.6046562" lon="10.8012829"><ele>199.0</ele><time>2026-04-11T14:33:29.875Z</time></trkpt><trkpt lat="43.6045694" lon="10.8013583"><ele>199.0</ele><time>2026-04-11T14:33:30.869Z</time></trkpt><trkpt lat="43.6044861" lon="10.8014344"><ele>199.0</ele><time>2026-04-11T14:33:31.869Z</time></trkpt><trkpt lat="43.6043962" lon="10.8015084"><ele>199.0</ele><time>2026-04-11T14:33:32.871Z</time></trkpt><trkpt lat="43.6043061" lon="10.8015922"><ele>199.0</ele><time>2026-04-11T14:33:33.87Z</time></trkpt><trkpt lat="43.6042163" lon="10.8016781"><ele>197.79999999999998</ele><time>2026-04-11T14:33:34.87Z</time></trkpt><trkpt lat="43.6041251" lon="10.801758"><ele>196.6</ele><time>2026-04-11T14:33:35.866Z</time></trkpt><trkpt lat="43.6040424" lon="10.8018264"><ele>195.4</ele><time>2026-04-11T14:33:36.861Z</time></trkpt><trkpt lat="43.6039549" lon="10.8018896"><ele>194.2</ele><time>2026-04-11T14:33:37.881Z</time></trkpt><trkpt lat="43.603876" lon="10.8019564"><ele>193.0</ele><time>2026-04-11T14:33:38.863Z</time></trkpt><trkpt lat="43.6037975" lon="10.8020295"><ele>192.8</ele><time>2026-04-11T14:33:39.868Z</time></trkpt><trkpt lat="43.6037183" lon="10.8020988"><ele>192.60000000000002</ele><time>2026-04-11T14:33:40.865Z</time></trkpt><trkpt lat="43.6036404" lon="10.8021653"><ele>192.39999999999998</ele><time>2026-04-11T14:33:41.867Z</time></trkpt><trkpt lat="43.603561" lon="10.8022281"><ele>192.2</ele><time>2026-04-11T14:33:42.868Z</time></trkpt><trkpt lat="43.6034706" lon="10.8022846"><ele>192.0</ele><time>2026-04-11T14:33:43.87Z</time></trkpt><trkpt lat="43.6033882" lon="10.8023344"><ele>192.0</ele><time>2026-04-11T14:33:44.869Z</time></trkpt><trkpt lat="43.6033155" lon="10.8023974"><ele>192.0</ele><time>2026-04-11T14:33:45.87Z</time></trkpt><trkpt lat="43.603254" lon="10.8024728"><ele>192.0</ele><time>2026-04-11T14:33:46.861Z</time></trkpt><trkpt lat="43.6032035" lon="10.8025505"><ele>192.0</ele><time>2026-04-11T14:33:47.871Z</time></trkpt><trkpt lat="43.6031639" lon="10.8026504"><ele>192.0</ele><time>2026-04-11T14:33:48.871Z</time></trkpt><trkpt lat="43.6031435" lon="10.8027545"><ele>192.0</ele><time>2026-04-11T14:33:49.875Z</time></trkpt><trkpt lat="43.6031081" lon="10.8028882"><ele>192.0</ele><time>2026-04-11T14:33:50.876Z</time></trkpt><trkpt lat="43.6030686" lon="10.803001"><ele>192.0</ele><time>2026-04-11T14:33:51.877Z</time></trkpt><trkpt lat="43.603024" lon="10.8030858"><ele>192.0</ele><time>2026-04-11T14:33:52.876Z</time></trkpt><trkpt lat="43.602969" lon="10.8031535"><ele>192.0</ele><time>2026-04-11T14:33:53.877Z</time></trkpt><trkpt lat="43.6029152" lon="10.8032156"><ele>192.0</ele><time>2026-04-11T14:33:54.88Z</time></trkpt><trkpt lat="43.6028541" lon="10.8032726"><ele>192.0</ele><time>2026-04-11T14:33:55.876Z</time></trkpt><trkpt lat="43.6027648" lon="10.8033063"><ele>191.66666666666666</ele><time>2026-04-11T14:33:56.873Z</time></trkpt><trkpt lat="43.602678" lon="10.803339"><ele>191.33333333333334</ele><time>2026-04-11T14:33:57.875Z</time></trkpt><trkpt lat="43.6025865" lon="10.8033471"><ele>191.0</ele><time>2026-04-11T14:33:58.87Z</time></trkpt><trkpt lat="43.6024915" lon="10.8033235"><ele>190.66666666666669</ele><time>2026-04-11T14:33:59.879Z</time></trkpt><trkpt lat="43.6024073" lon="10.8032999"><ele>190.33333333333334</ele><time>2026-04-11T14:34:00.873Z</time></trkpt><trkpt lat="43.6023366" lon="10.8032798"><ele>190.0</ele><time>2026-04-11T14:34:01.875Z</time></trkpt><trkpt lat="43.6022625" lon="10.8032836"><ele>190.0</ele><time>2026-04-11T14:34:02.872Z</time></trkpt><trkpt lat="43.6021879" lon="10.8033088"><ele>190.0</ele><time>2026-04-11T14:34:03.874Z</time></trkpt><trkpt lat="43.6021099" lon="10.8033559"><ele>190.0</ele><time>2026-04-11T14:34:04.873Z</time></trkpt><trkpt lat="43.602025" lon="10.8034395"><ele>190.0</ele><time>2026-04-11T14:34:05.87Z</time></trkpt><trkpt lat="43.6019429" lon="10.8035171"><ele>190.0</ele><time>2026-04-11T14:34:06.865Z</time></trkpt><trkpt lat="43.601866" lon="10.8035565"><ele>190.0</ele><time>2026-04-11T14:34:07.864Z</time></trkpt><trkpt lat="43.6017957" lon="10.8035799"><ele>189.8</ele><time>2026-04-11T14:34:08.88Z</time></trkpt><trkpt lat="43.6017202" lon="10.8035772"><ele>189.6</ele><time>2026-04-11T14:34:09.862Z</time></trkpt><trkpt lat="43.6016249" lon="10.8035418"><ele>189.39999999999998</ele><time>2026-04-11T14:34:10.859Z</time></trkpt><trkpt lat="43.601517" lon="10.8034873"><ele>189.2</ele><time>2026-04-11T14:34:11.867Z</time></trkpt><trkpt lat="43.6014087" lon="10.8034234"><ele>189.0</ele><time>2026-04-11T14:34:12.867Z</time></trkpt><trkpt lat="43.6013132" lon="10.8033583"><ele>189.0</ele><time>2026-04-11T14:34:13.866Z</time></trkpt><trkpt lat="43.6012318" lon="10.8033298"><ele>189.0</ele><time>2026-04-11T14:34:14.874Z</time></trkpt><trkpt lat="43.601163" lon="10.8033003"><ele>189.0</ele><time>2026-04-11T14:34:15.872Z</time></trkpt><trkpt lat="43.6010757" lon="10.8032295"><ele>189.0</ele><time>2026-04-11T14:34:17.867Z</time></trkpt><trkpt lat="43.6011024" lon="10.8031177"><ele>189.0</ele><time>2026-04-11T14:34:29.855Z</time></trkpt><trkpt lat="43.6010739" lon="10.8032064"><ele>189.0</ele><time>2026-04-11T14:34:36.865Z</time></trkpt><trkpt lat="43.6010493" lon="10.8033091"><ele>189.0</ele><time>2026-04-11T14:35:55.856Z</time></trkpt><trkpt lat="43.6010213" lon="10.8033962"><ele>189.0</ele><time>2026-04-11T14:36:28.869Z</time></trkpt><trkpt lat="43.601022" lon="10.8034858"><ele>189.0</ele><time>2026-04-11T14:36:29.856Z</time></trkpt><trkpt lat="43.6010495" lon="10.8037244"><ele>189.0</ele><time>2026-04-11T14:36:31.863Z</time></trkpt><trkpt lat="43.6011045" lon="10.803857"><ele>189.0</ele><time>2026-04-11T14:36:32.864Z</time></trkpt><trkpt lat="43.6011759" lon="10.8039675"><ele>189.33333333333334</ele><time>2026-04-11T14:36:33.874Z</time></trkpt><trkpt lat="43.6012218" lon="10.8040663"><ele>189.66666666666666</ele><time>2026-04-11T14:36:34.87Z</time></trkpt><trkpt lat="43.6012556" lon="10.8041784"><ele>190.0</ele><time>2026-04-11T14:36:35.871Z</time></trkpt><trkpt lat="43.6012618" lon="10.8042952"><ele>190.33333333333331</ele><time>2026-04-11T14:36:36.87Z</time></trkpt><trkpt lat="43.6012452" lon="10.8044151"><ele>190.66666666666666</ele><time>2026-04-11T14:36:37.869Z</time></trkpt><trkpt lat="43.6012058" lon="10.8045411"><ele>191.0</ele><time>2026-04-11T14:36:38.874Z</time></trkpt><trkpt lat="43.6011539" lon="10.8046748"><ele>191.0</ele><time>2026-04-11T14:36:39.872Z</time></trkpt><trkpt lat="43.6011243" lon="10.804823"><ele>191.0</ele><time>2026-04-11T14:36:40.871Z</time></trkpt><trkpt lat="43.6011243" lon="10.8049602"><ele>191.0</ele><time>2026-04-11T14:36:41.867Z</time></trkpt><trkpt lat="43.6011476" lon="10.8050782"><ele>191.0</ele><time>2026-04-11T14:36:42.872Z</time></trkpt><trkpt lat="43.6012045" lon="10.8051653"><ele>191.0</ele><time>2026-04-11T14:36:43.886Z</time></trkpt><trkpt lat="43.601282" lon="10.8052227"><ele>192.5</ele><time>2026-04-11T14:36:44.876Z</time></trkpt><trkpt lat="43.6013632" lon="10.805238"><ele>194.0</ele><time>2026-04-11T14:36:45.875Z</time></trkpt><trkpt lat="43.6014517" lon="10.8052609"><ele>195.5</ele><time>2026-04-11T14:36:46.874Z</time></trkpt><trkpt lat="43.6015335" lon="10.8052995"><ele>197.0</ele><time>2026-04-11T14:36:47.872Z</time></trkpt><trkpt lat="43.601594" lon="10.8053739"><ele>198.50000000000003</ele><time>2026-04-11T14:36:48.867Z</time></trkpt><trkpt lat="43.6016382" lon="10.8054475"><ele>200.0</ele><time>2026-04-11T14:36:49.86Z</time></trkpt><trkpt lat="43.6016612" lon="10.8055532"><ele>200.00000000000003</ele><time>2026-04-11T14:36:50.867Z</time></trkpt><trkpt lat="43.6016921" lon="10.8056612"><ele>200.0</ele><time>2026-04-11T14:36:51.869Z</time></trkpt><trkpt lat="43.6017359" lon="10.8057625"><ele>200.0</ele><time>2026-04-11T14:36:52.869Z</time></trkpt><trkpt lat="43.6017834" lon="10.8058666"><ele>200.0</ele><time>2026-04-11T14:36:53.866Z</time></trkpt><trkpt lat="43.601824" lon="10.8059782"><ele>200.00000000000003</ele><time>2026-04-11T14:36:54.862Z</time></trkpt><trkpt lat="43.6018317" lon="10.8060817"><ele>200.0</ele><time>2026-04-11T14:36:55.871Z</time></trkpt><trkpt lat="43.6018147" lon="10.8061892"><ele>200.6</ele><time>2026-04-11T14:36:56.872Z</time></trkpt><trkpt lat="43.6017681" lon="10.8063054"><ele>201.2</ele><time>2026-04-11T14:36:57.872Z</time></trkpt><trkpt lat="43.6017141" lon="10.8064535"><ele>201.8</ele><time>2026-04-11T14:36:58.886Z</time></trkpt><trkpt lat="43.6016388" lon="10.8065951"><ele>202.4</ele><time>2026-04-11T14:37:00.939Z</time></trkpt><trkpt lat="43.6015877" lon="10.8067177"><ele>203.0</ele><time>2026-04-11T14:37:01.938Z</time></trkpt><trkpt lat="43.6015745" lon="10.8068397"><ele>203.0</ele><time>2026-04-11T14:37:02.934Z</time></trkpt><trkpt lat="43.6015937" lon="10.8069453"><ele>203.0</ele><time>2026-04-11T14:37:03.931Z</time></trkpt><trkpt lat="43.6016334" lon="10.8070727"><ele>203.0</ele><time>2026-04-11T14:37:04.937Z</time></trkpt><trkpt lat="43.6016653" lon="10.8073114"><ele>203.0</ele><time>2026-04-11T14:37:05.845Z</time></trkpt><trkpt lat="43.6017255" lon="10.8074407"><ele>203.0</ele><time>2026-04-11T14:37:06.859Z</time></trkpt><trkpt lat="43.6017694" lon="10.8075674"><ele>203.0</ele><time>2026-04-11T14:37:07.859Z</time></trkpt><trkpt lat="43.6017824" lon="10.8077115"><ele>203.0</ele><time>2026-04-11T14:37:08.853Z</time></trkpt><trkpt lat="43.6017797" lon="10.8078618"><ele>203.0</ele><time>2026-04-11T14:37:09.854Z</time></trkpt><trkpt lat="43.6017647" lon="10.8080034"><ele>203.0</ele><time>2026-04-11T14:37:10.86Z</time></trkpt><trkpt lat="43.6017438" lon="10.8081321"><ele>201.4</ele><time>2026-04-11T14:37:11.857Z</time></trkpt><trkpt lat="43.6016866" lon="10.808224"><ele>199.8</ele><time>2026-04-11T14:37:12.849Z</time></trkpt><trkpt lat="43.6016054" lon="10.8082935"><ele>198.2</ele><time>2026-04-11T14:37:13.864Z</time></trkpt><trkpt lat="43.6015057" lon="10.8083369"><ele>196.6</ele><time>2026-04-11T14:37:14.872Z</time></trkpt><trkpt lat="43.6013985" lon="10.808373"><ele>195.0</ele><time>2026-04-11T14:37:15.859Z</time></trkpt><trkpt lat="43.6012666" lon="10.8084172"><ele>193.0</ele><time>2026-04-11T14:37:16.865Z</time></trkpt><trkpt lat="43.6011143" lon="10.8084589"><ele>191.0</ele><time>2026-04-11T14:37:17.861Z</time></trkpt><trkpt lat="43.6009353" lon="10.8084958"><ele>189.0</ele><time>2026-04-11T14:37:18.861Z</time></trkpt><trkpt lat="43.6007617" lon="10.8085303"><ele>187.25</ele><time>2026-04-11T14:37:19.864Z</time></trkpt><trkpt lat="43.6006169" lon="10.8085692"><ele>185.5</ele><time>2026-04-11T14:37:20.866Z</time></trkpt><trkpt lat="43.6004759" lon="10.808626"><ele>183.75</ele><time>2026-04-11T14:37:21.863Z</time></trkpt><trkpt lat="43.6003565" lon="10.8087075"><ele>182.0</ele><time>2026-04-11T14:37:22.858Z</time></trkpt><trkpt lat="43.6002737" lon="10.8087809"><ele>181.39999999999998</ele><time>2026-04-11T14:37:23.865Z</time></trkpt><trkpt lat="43.6002547" lon="10.808885"><ele>180.79999999999998</ele><time>2026-04-11T14:37:24.873Z</time></trkpt><trkpt lat="43.6002259" lon="10.8090024"><ele>180.2</ele><time>2026-04-11T14:37:25.87Z</time></trkpt><trkpt lat="43.6002167" lon="10.8091292"><ele>179.6</ele><time>2026-04-11T14:37:26.862Z</time></trkpt><trkpt lat="43.6002215" lon="10.8093019"><ele>179.0</ele><time>2026-04-11T14:37:27.858Z</time></trkpt><trkpt lat="43.6002472" lon="10.8094954"><ele>180.5</ele><time>2026-04-11T14:37:28.859Z</time></trkpt><trkpt lat="43.6002601" lon="10.8096833"><ele>182.0</ele><time>2026-04-11T14:37:29.862Z</time></trkpt><trkpt lat="43.600253" lon="10.8098844"><ele>183.5</ele><time>2026-04-11T14:37:30.864Z</time></trkpt><trkpt lat="43.600232" lon="10.810076"><ele>185.0</ele><time>2026-04-11T14:37:31.86Z</time></trkpt><trkpt lat="43.6002152" lon="10.8102474"><ele>187.25</ele><time>2026-04-11T14:37:32.868Z</time></trkpt><trkpt lat="43.6001701" lon="10.8104"><ele>189.5</ele><time>2026-04-11T14:37:33.87Z</time></trkpt><trkpt lat="43.6001031" lon="10.810573"><ele>191.75</ele><time>2026-04-11T14:37:34.873Z</time></trkpt><trkpt lat="43.6000436" lon="10.8107367"><ele>194.0</ele><time>2026-04-11T14:37:35.876Z</time></trkpt><trkpt lat="43.5999689" lon="10.810901"><ele>195.0</ele><time>2026-04-11T14:37:36.875Z</time></trkpt><trkpt lat="43.5998842" lon="10.8110157"><ele>196.0</ele><time>2026-04-11T14:37:37.868Z</time></trkpt><trkpt lat="43.5997897" lon="10.8111024"><ele>197.0</ele><time>2026-04-11T14:37:38.866Z</time></trkpt><trkpt lat="43.5996775" lon="10.8111994"><ele>198.0</ele><time>2026-04-11T14:37:39.877Z</time></trkpt><trkpt lat="43.5995651" lon="10.8113031"><ele>200.0</ele><time>2026-04-11T14:37:40.872Z</time></trkpt><trkpt lat="43.5994625" lon="10.8113907"><ele>202.0</ele><time>2026-04-11T14:37:41.87Z</time></trkpt><trkpt lat="43.5993648" lon="10.8114501"><ele>204.0</ele><time>2026-04-11T14:37:42.868Z</time></trkpt><trkpt lat="43.5992814" lon="10.8114718"><ele>206.0</ele><time>2026-04-11T14:37:43.868Z</time></trkpt><trkpt lat="43.5992074" lon="10.8114717"><ele>208.0</ele><time>2026-04-11T14:37:44.866Z</time></trkpt><trkpt lat="43.5991247" lon="10.8114518"><ele>208.0</ele><time>2026-04-11T14:37:45.876Z</time></trkpt><trkpt lat="43.5990298" lon="10.8114094"><ele>208.0</ele><time>2026-04-11T14:37:46.862Z</time></trkpt><trkpt lat="43.5989129" lon="10.8113764"><ele>208.0</ele><time>2026-04-11T14:37:47.869Z</time></trkpt><trkpt lat="43.5987861" lon="10.8113508"><ele>208.0</ele><time>2026-04-11T14:37:48.861Z</time></trkpt><trkpt lat="43.5986651" lon="10.8113465"><ele>207.4</ele><time>2026-04-11T14:37:49.87Z</time></trkpt><trkpt lat="43.598567" lon="10.8113555"><ele>206.8</ele><time>2026-04-11T14:37:50.866Z</time></trkpt><trkpt lat="43.5984953" lon="10.8113819"><ele>206.2</ele><time>2026-04-11T14:37:51.862Z</time></trkpt><trkpt lat="43.5984462" lon="10.8114543"><ele>205.6</ele><time>2026-04-11T14:37:52.863Z</time></trkpt><trkpt lat="43.5984037" lon="10.8115717"><ele>205.0</ele><time>2026-04-11T14:37:53.86Z</time></trkpt><trkpt lat="43.5983543" lon="10.8117352"><ele>203.75</ele><time>2026-04-11T14:37:54.857Z</time></trkpt><trkpt lat="43.5982843" lon="10.8119055"><ele>202.5</ele><time>2026-04-11T14:37:55.86Z</time></trkpt><trkpt lat="43.5981918" lon="10.812058"><ele>201.25</ele><time>2026-04-11T14:37:56.865Z</time></trkpt><trkpt lat="43.5980932" lon="10.8121803"><ele>200.0</ele><time>2026-04-11T14:37:57.874Z</time></trkpt><trkpt lat="43.5979856" lon="10.8123019"><ele>200.0</ele><time>2026-04-11T14:37:58.863Z</time></trkpt><trkpt lat="43.5978751" lon="10.8123914"><ele>200.0</ele><time>2026-04-11T14:37:59.865Z</time></trkpt><trkpt lat="43.5977667" lon="10.8124988"><ele>200.0</ele><time>2026-04-11T14:38:00.871Z</time></trkpt><trkpt lat="43.5976827" lon="10.8126137"><ele>200.0</ele><time>2026-04-11T14:38:01.868Z</time></trkpt><trkpt lat="43.5976095" lon="10.8127178"><ele>198.5</ele><time>2026-04-11T14:38:02.868Z</time></trkpt><trkpt lat="43.5975469" lon="10.8128521"><ele>197.0</ele><time>2026-04-11T14:38:03.869Z</time></trkpt><trkpt lat="43.5974872" lon="10.8129741"><ele>195.5</ele><time>2026-04-11T14:38:04.871Z</time></trkpt><trkpt lat="43.5974549" lon="10.8131173"><ele>194.0</ele><time>2026-04-11T14:38:05.865Z</time></trkpt><trkpt lat="43.5973917" lon="10.8132609"><ele>194.0</ele><time>2026-04-11T14:38:06.87Z</time></trkpt><trkpt lat="43.5973472" lon="10.8134531"><ele>194.0</ele><time>2026-04-11T14:38:07.853Z</time></trkpt><trkpt lat="43.5973145" lon="10.8136602"><ele>194.0</ele><time>2026-04-11T14:38:08.867Z</time></trkpt><trkpt lat="43.5973035" lon="10.8138813"><ele>196.66666666666669</ele><time>2026-04-11T14:38:09.857Z</time></trkpt><trkpt lat="43.5972976" lon="10.814126"><ele>199.33333333333331</ele><time>2026-04-11T14:38:10.861Z</time></trkpt><trkpt lat="43.597294" lon="10.8143513"><ele>202.0</ele><time>2026-04-11T14:38:11.857Z</time></trkpt><trkpt lat="43.5972925" lon="10.814529"><ele>202.25</ele><time>2026-04-11T14:38:12.869Z</time></trkpt><trkpt lat="43.5972821" lon="10.8146904"><ele>202.5</ele><time>2026-04-11T14:38:13.875Z</time></trkpt><trkpt lat="43.5972548" lon="10.8148267"><ele>202.75</ele><time>2026-04-11T14:38:14.873Z</time></trkpt><trkpt lat="43.5972145" lon="10.815004"><ele>203.0</ele><time>2026-04-11T14:38:15.875Z</time></trkpt><trkpt lat="43.5971629" lon="10.8151607"><ele>203.75</ele><time>2026-04-11T14:38:16.891Z</time></trkpt><trkpt lat="43.5971117" lon="10.8153215"><ele>204.5</ele><time>2026-04-11T14:38:17.874Z</time></trkpt><trkpt lat="43.5970543" lon="10.8154917"><ele>205.25</ele><time>2026-04-11T14:38:18.875Z</time></trkpt><trkpt lat="43.5970035" lon="10.8156753"><ele>206.0</ele><time>2026-04-11T14:38:19.869Z</time></trkpt><trkpt lat="43.5969466" lon="10.8158692"><ele>209.0</ele><time>2026-04-11T14:38:20.874Z</time></trkpt><trkpt lat="43.5968902" lon="10.8160676"><ele>212.0</ele><time>2026-04-11T14:38:21.869Z</time></trkpt><trkpt lat="43.5968205" lon="10.8162408"><ele>215.0</ele><time>2026-04-11T14:38:22.866Z</time></trkpt><trkpt lat="43.5967671" lon="10.816432"><ele>218.0</ele><time>2026-04-11T14:38:23.868Z</time></trkpt><trkpt lat="43.5967283" lon="10.8166254"><ele>218.66666666666669</ele><time>2026-04-11T14:38:24.871Z</time></trkpt><trkpt lat="43.5966953" lon="10.8168304"><ele>219.33333333333331</ele><time>2026-04-11T14:38:25.874Z</time></trkpt><trkpt lat="43.5966745" lon="10.8170488"><ele>220.0</ele><time>2026-04-11T14:38:26.868Z</time></trkpt><trkpt lat="43.5966577" lon="10.8172517"><ele>220.0</ele><time>2026-04-11T14:38:27.876Z</time></trkpt><trkpt lat="43.5966472" lon="10.8174654"><ele>220.0</ele><time>2026-04-11T14:38:28.874Z</time></trkpt><trkpt lat="43.5966381" lon="10.8177071"><ele>220.0</ele><time>2026-04-11T14:38:29.871Z</time></trkpt><trkpt lat="43.596649" lon="10.8179023"><ele>220.0</ele><time>2026-04-11T14:38:30.868Z</time></trkpt><trkpt lat="43.5966736" lon="10.8180892"><ele>220.0</ele><time>2026-04-11T14:38:31.859Z</time></trkpt><trkpt lat="43.5967195" lon="10.8182708"><ele>220.0</ele><time>2026-04-11T14:38:32.869Z</time></trkpt><trkpt lat="43.5967406" lon="10.8184463"><ele>220.0</ele><time>2026-04-11T14:38:33.875Z</time></trkpt><trkpt lat="43.5967693" lon="10.8186035"><ele>221.25</ele><time>2026-04-11T14:38:34.871Z</time></trkpt><trkpt lat="43.5968607" lon="10.8187806"><ele>222.5</ele><time>2026-04-11T14:38:35.869Z</time></trkpt><trkpt lat="43.5969426" lon="10.8189436"><ele>223.75</ele><time>2026-04-11T14:38:36.867Z</time></trkpt><trkpt lat="43.5970139" lon="10.819097"><ele>225.0</ele><time>2026-04-11T14:38:37.869Z</time></trkpt><trkpt lat="43.5971288" lon="10.8192446"><ele>221.75</ele><time>2026-04-11T14:38:38.864Z</time></trkpt><trkpt lat="43.5972449" lon="10.8193864"><ele>218.5</ele><time>2026-04-11T14:38:39.866Z</time></trkpt><trkpt lat="43.5973419" lon="10.8194928"><ele>215.25</ele><time>2026-04-11T14:38:40.866Z</time></trkpt><trkpt lat="43.5973598" lon="10.8196134"><ele>212.0</ele><time>2026-04-11T14:38:41.862Z</time></trkpt><trkpt lat="43.59734" lon="10.8197427"><ele>212.0</ele><time>2026-04-11T14:38:42.868Z</time></trkpt><trkpt lat="43.5973129" lon="10.8198737"><ele>212.0</ele><time>2026-04-11T14:38:43.871Z</time></trkpt><trkpt lat="43.5972934" lon="10.8200204"><ele>212.0</ele><time>2026-04-11T14:38:44.861Z</time></trkpt><trkpt lat="43.5973087" lon="10.8202228"><ele>212.0</ele><time>2026-04-11T14:38:45.864Z</time></trkpt><trkpt lat="43.5973227" lon="10.8204157"><ele>212.0</ele><time>2026-04-11T14:38:46.872Z</time></trkpt><trkpt lat="43.5973503" lon="10.8205936"><ele>212.0</ele><time>2026-04-11T14:38:47.88Z</time></trkpt><trkpt lat="43.5973922" lon="10.820749"><ele>212.0</ele><time>2026-04-11T14:38:48.867Z</time></trkpt><trkpt lat="43.5974403" lon="10.8208859"><ele>212.0</ele><time>2026-04-11T14:38:49.864Z</time></trkpt><trkpt lat="43.5974993" lon="10.8210004"><ele>212.0</ele><time>2026-04-11T14:38:50.875Z</time></trkpt><trkpt lat="43.5975872" lon="10.8211109"><ele>212.0</ele><time>2026-04-11T14:38:51.864Z</time></trkpt><trkpt lat="43.5977114" lon="10.8212092"><ele>212.0</ele><time>2026-04-11T14:38:52.866Z</time></trkpt><trkpt lat="43.5978025" lon="10.8212944"><ele>212.0</ele><time>2026-04-11T14:38:53.86Z</time></trkpt><trkpt lat="43.5979495" lon="10.8213473"><ele>212.00000000000003</ele><time>2026-04-11T14:38:54.873Z</time></trkpt><trkpt lat="43.5980453" lon="10.8213923"><ele>212.0</ele><time>2026-04-11T14:38:55.87Z</time></trkpt><trkpt lat="43.5981027" lon="10.8214368"><ele>212.0</ele><time>2026-04-11T14:38:56.869Z</time></trkpt><trkpt lat="43.5980829" lon="10.8215665"><ele>212.0</ele><time>2026-04-11T14:38:58.87Z</time></trkpt><trkpt lat="43.5980311" lon="10.821638"><ele>212.00000000000003</ele><time>2026-04-11T14:38:59.872Z</time></trkpt><trkpt lat="43.5979428" lon="10.8216982"><ele>212.0</ele><time>2026-04-11T14:39:00.876Z</time></trkpt><trkpt lat="43.5978326" lon="10.8217345"><ele>212.0</ele><time>2026-04-11T14:39:01.862Z</time></trkpt><trkpt lat="43.5977317" lon="10.8217409"><ele>212.0</ele><time>2026-04-11T14:39:02.868Z</time></trkpt><trkpt lat="43.5976231" lon="10.8216954"><ele>212.0</ele><time>2026-04-11T14:39:03.854Z</time></trkpt><trkpt lat="43.5975094" lon="10.8216375"><ele>212.0</ele><time>2026-04-11T14:39:04.859Z</time></trkpt><trkpt lat="43.5973825" lon="10.8215605"><ele>212.0</ele><time>2026-04-11T14:39:05.868Z</time></trkpt><trkpt lat="43.5972459" lon="10.8214922"><ele>212.0</ele><time>2026-04-11T14:39:06.862Z</time></trkpt><trkpt lat="43.597123" lon="10.8214471"><ele>212.0</ele><time>2026-04-11T14:39:07.863Z</time></trkpt><trkpt lat="43.5970051" lon="10.821387"><ele>212.0</ele><time>2026-04-11T14:39:08.867Z</time></trkpt><trkpt lat="43.5968866" lon="10.8213346"><ele>211.75</ele><time>2026-04-11T14:39:09.872Z</time></trkpt><trkpt lat="43.5967723" lon="10.8212972"><ele>211.5</ele><time>2026-04-11T14:39:10.871Z</time></trkpt><trkpt lat="43.5966473" lon="10.8212936"><ele>211.25</ele><time>2026-04-11T14:39:11.865Z</time></trkpt><trkpt lat="43.5965194" lon="10.8213046"><ele>211.0</ele><time>2026-04-11T14:39:12.873Z</time></trkpt><trkpt lat="43.5963903" lon="10.8213495"><ele>211.0</ele><time>2026-04-11T14:39:13.868Z</time></trkpt><trkpt lat="43.5962564" lon="10.8214189"><ele>211.0</ele><time>2026-04-11T14:39:14.874Z</time></trkpt><trkpt lat="43.5961181" lon="10.8214852"><ele>211.0</ele><time>2026-04-11T14:39:15.875Z</time></trkpt><trkpt lat="43.5959569" lon="10.8215178"><ele>212.33333333333331</ele><time>2026-04-11T14:39:16.866Z</time></trkpt><trkpt lat="43.595816" lon="10.8215683"><ele>213.66666666666669</ele><time>2026-04-11T14:39:17.875Z</time></trkpt><trkpt lat="43.5956686" lon="10.8216262"><ele>215.0</ele><time>2026-04-11T14:39:18.905Z</time></trkpt><trkpt lat="43.5955212" lon="10.8216991"><ele>215.0</ele><time>2026-04-11T14:39:19.878Z</time></trkpt><trkpt lat="43.5953721" lon="10.8217551"><ele>215.0</ele><time>2026-04-11T14:39:20.886Z</time></trkpt><trkpt lat="43.5952375" lon="10.8218149"><ele>215.0</ele><time>2026-04-11T14:39:21.879Z</time></trkpt><trkpt lat="43.5951299" lon="10.8218757"><ele>215.0</ele><time>2026-04-11T14:39:22.879Z</time></trkpt><trkpt lat="43.5950076" lon="10.8219688"><ele>216.25</ele><time>2026-04-11T14:39:23.898Z</time></trkpt><trkpt lat="43.5948881" lon="10.8220614"><ele>217.5</ele><time>2026-04-11T14:39:24.891Z</time></trkpt><trkpt lat="43.5947914" lon="10.8221913"><ele>218.75</ele><time>2026-04-11T14:39:25.887Z</time></trkpt><trkpt lat="43.5947227" lon="10.8223046"><ele>220.0</ele><time>2026-04-11T14:39:26.884Z</time></trkpt><trkpt lat="43.5946534" lon="10.8223532"><ele>220.0</ele><time>2026-04-11T14:39:27.885Z</time></trkpt><trkpt lat="43.5945483" lon="10.8223422"><ele>220.0</ele><time>2026-04-11T14:39:28.872Z</time></trkpt><trkpt lat="43.594463" lon="10.8223884"><ele>220.0</ele><time>2026-04-11T14:39:29.876Z</time></trkpt><trkpt lat="43.5943097" lon="10.8223278"><ele>220.0</ele><time>2026-04-11T14:39:31.866Z</time></trkpt><trkpt lat="43.5942163" lon="10.82228"><ele>222.4</ele><time>2026-04-11T14:39:32.865Z</time></trkpt><trkpt lat="43.5941251" lon="10.8222321"><ele>224.8</ele><time>2026-04-11T14:39:33.85Z</time></trkpt><trkpt lat="43.5940394" lon="10.8221946"><ele>227.2</ele><time>2026-04-11T14:39:34.859Z</time></trkpt><trkpt lat="43.593954" lon="10.8221829"><ele>229.6</ele><time>2026-04-11T14:39:35.856Z</time></trkpt><trkpt lat="43.5938593" lon="10.8222712"><ele>232.0</ele><time>2026-04-11T14:39:36.866Z</time></trkpt><trkpt lat="43.5937926" lon="10.8223807"><ele>232.0</ele><time>2026-04-11T14:39:37.859Z</time></trkpt><trkpt lat="43.5937516" lon="10.8224994"><ele>232.0</ele><time>2026-04-11T14:39:38.854Z</time></trkpt><trkpt lat="43.5937239" lon="10.8226382"><ele>232.0</ele><time>2026-04-11T14:39:39.862Z</time></trkpt><trkpt lat="43.5937288" lon="10.8227943"><ele>232.0</ele><time>2026-04-11T14:39:40.873Z</time></trkpt><trkpt lat="43.5937615" lon="10.8229571"><ele>232.0</ele><time>2026-04-11T14:39:41.867Z</time></trkpt><trkpt lat="43.5937925" lon="10.8231191"><ele>231.83333333333331</ele><time>2026-04-11T14:39:42.873Z</time></trkpt><trkpt lat="43.5938161" lon="10.8232532"><ele>231.66666666666666</ele><time>2026-04-11T14:39:43.871Z</time></trkpt><trkpt lat="43.5938422" lon="10.8233734"><ele>231.5</ele><time>2026-04-11T14:39:44.871Z</time></trkpt><trkpt lat="43.5938462" lon="10.8234699"><ele>231.33333333333331</ele><time>2026-04-11T14:39:45.866Z</time></trkpt><trkpt lat="43.5937908" lon="10.8233908"><ele>231.16666666666666</ele><time>2026-04-11T14:39:49.893Z</time></trkpt><trkpt lat="43.5937911" lon="10.823279"><ele>231.0</ele><time>2026-04-11T14:39:50.871Z</time></trkpt><trkpt lat="43.5937742" lon="10.8231189"><ele>231.0</ele><time>2026-04-11T14:39:51.876Z</time></trkpt><trkpt lat="43.5937341" lon="10.8229159"><ele>231.0</ele><time>2026-04-11T14:39:52.876Z</time></trkpt><trkpt lat="43.5936996" lon="10.8227066"><ele>231.0</ele><time>2026-04-11T14:39:53.877Z</time></trkpt><trkpt lat="43.593703" lon="10.8224996"><ele>231.25</ele><time>2026-04-11T14:39:54.871Z</time></trkpt><trkpt lat="43.5937214" lon="10.8223174"><ele>231.5</ele><time>2026-04-11T14:39:55.866Z</time></trkpt><trkpt lat="43.5937305" lon="10.8221401"><ele>231.75</ele><time>2026-04-11T14:39:56.87Z</time></trkpt><trkpt lat="43.5937252" lon="10.8220125"><ele>232.0</ele><time>2026-04-11T14:39:57.876Z</time></trkpt><trkpt lat="43.5937039" lon="10.8218828"><ele>234.16666666666666</ele><time>2026-04-11T14:39:58.876Z</time></trkpt><trkpt lat="43.5936528" lon="10.8218025"><ele>236.33333333333331</ele><time>2026-04-11T14:39:59.882Z</time></trkpt><trkpt lat="43.5935922" lon="10.8217262"><ele>238.5</ele><time>2026-04-11T14:40:00.871Z</time></trkpt><trkpt lat="43.5935336" lon="10.8216765"><ele>240.66666666666669</ele><time>2026-04-11T14:40:01.874Z</time></trkpt><trkpt lat="43.593469" lon="10.8216095"><ele>242.83333333333334</ele><time>2026-04-11T14:40:02.874Z</time></trkpt><trkpt lat="43.593403" lon="10.8215075"><ele>245.0</ele><time>2026-04-11T14:40:03.865Z</time></trkpt><trkpt lat="43.5933348" lon="10.8213579"><ele>245.0</ele><time>2026-04-11T14:40:04.872Z</time></trkpt><trkpt lat="43.5932657" lon="10.821212"><ele>245.0</ele><time>2026-04-11T14:40:05.871Z</time></trkpt><trkpt lat="43.5931962" lon="10.8211052"><ele>245.0</ele><time>2026-04-11T14:40:06.863Z</time></trkpt><trkpt lat="43.5931233" lon="10.8210276"><ele>245.0</ele><time>2026-04-11T14:40:07.876Z</time></trkpt><trkpt lat="43.5930323" lon="10.8209708"><ele>245.0</ele><time>2026-04-11T14:40:08.882Z</time></trkpt><trkpt lat="43.5929279" lon="10.8209167"><ele>245.75</ele><time>2026-04-11T14:40:10.96Z</time></trkpt><trkpt lat="43.5928104" lon="10.8208538"><ele>246.5</ele><time>2026-04-11T14:40:11.959Z</time></trkpt><trkpt lat="43.592695" lon="10.8207888"><ele>247.25</ele><time>2026-04-11T14:40:12.959Z</time></trkpt><trkpt lat="43.5925582" lon="10.8207466"><ele>248.0</ele><time>2026-04-11T14:40:13.966Z</time></trkpt><trkpt lat="43.5924369" lon="10.8206845"><ele>248.0</ele><time>2026-04-11T14:40:14.968Z</time></trkpt><trkpt lat="43.5923101" lon="10.8206199"><ele>248.0</ele><time>2026-04-11T14:40:15.963Z</time></trkpt><trkpt lat="43.5921784" lon="10.8205589"><ele>248.0</ele><time>2026-04-11T14:40:16.96Z</time></trkpt><trkpt lat="43.5920489" lon="10.8204985"><ele>248.0</ele><time>2026-04-11T14:40:17.96Z</time></trkpt><trkpt lat="43.5919251" lon="10.8204387"><ele>248.5</ele><time>2026-04-11T14:40:18.96Z</time></trkpt><trkpt lat="43.5918008" lon="10.8203797"><ele>249.0</ele><time>2026-04-11T14:40:19.959Z</time></trkpt><trkpt lat="43.5916784" lon="10.820323"><ele>249.5</ele><time>2026-04-11T14:40:20.976Z</time></trkpt><trkpt lat="43.5915681" lon="10.8202789"><ele>250.0</ele><time>2026-04-11T14:40:21.961Z</time></trkpt><trkpt lat="43.5914675" lon="10.8202336"><ele>250.0</ele><time>2026-04-11T14:40:22.952Z</time></trkpt><trkpt lat="43.5913651" lon="10.820182"><ele>250.0</ele><time>2026-04-11T14:40:23.952Z</time></trkpt><trkpt lat="43.5912707" lon="10.8201204"><ele>250.0</ele><time>2026-04-11T14:40:24.952Z</time></trkpt><trkpt lat="43.5911932" lon="10.8200434"><ele>250.0</ele><time>2026-04-11T14:40:25.933Z</time></trkpt><trkpt lat="43.5911318" lon="10.819943"><ele>250.0</ele><time>2026-04-11T14:40:26.932Z</time></trkpt><trkpt lat="43.5910983" lon="10.8198233"><ele>249.6</ele><time>2026-04-11T14:40:27.94Z</time></trkpt><trkpt lat="43.5910729" lon="10.8196754"><ele>249.2</ele><time>2026-04-11T14:40:28.933Z</time></trkpt><trkpt lat="43.5910491" lon="10.8195294"><ele>248.8</ele><time>2026-04-11T14:40:29.943Z</time></trkpt><trkpt lat="43.5910146" lon="10.8194008"><ele>248.4</ele><time>2026-04-11T14:40:30.949Z</time></trkpt><trkpt lat="43.5909651" lon="10.8192906"><ele>248.0</ele><time>2026-04-11T14:40:31.939Z</time></trkpt><trkpt lat="43.5909015" lon="10.8191949"><ele>248.0</ele><time>2026-04-11T14:40:32.941Z</time></trkpt><trkpt lat="43.590817" lon="10.8191101"><ele>248.0</ele><time>2026-04-11T14:40:33.94Z</time></trkpt><trkpt lat="43.5907231" lon="10.8190256"><ele>248.0</ele><time>2026-04-11T14:40:34.936Z</time></trkpt><trkpt lat="43.5906281" lon="10.818974"><ele>248.0</ele><time>2026-04-11T14:40:35.962Z</time></trkpt><trkpt lat="43.5905351" lon="10.818968"><ele>248.0</ele><time>2026-04-11T14:40:36.958Z</time></trkpt><trkpt lat="43.5904563" lon="10.8189994"><ele>248.0</ele><time>2026-04-11T14:40:37.935Z</time></trkpt><trkpt lat="43.5903776" lon="10.8190528"><ele>248.0</ele><time>2026-04-11T14:40:38.938Z</time></trkpt><trkpt lat="43.5903307" lon="10.8191503"><ele>248.0</ele><time>2026-04-11T14:40:39.938Z</time></trkpt><trkpt lat="43.5903274" lon="10.8192624"><ele>248.0</ele><time>2026-04-11T14:40:40.939Z</time></trkpt><trkpt lat="43.5903951" lon="10.8195087"><ele>248.0</ele><time>2026-04-11T14:40:41.874Z</time></trkpt><trkpt lat="43.5904127" lon="10.8196343"><ele>250.0</ele><time>2026-04-11T14:40:42.865Z</time></trkpt><trkpt lat="43.590394" lon="10.8197463"><ele>252.0</ele><time>2026-04-11T14:40:43.875Z</time></trkpt><trkpt lat="43.5903462" lon="10.819846"><ele>254.0</ele><time>2026-04-11T14:40:44.864Z</time></trkpt><trkpt lat="43.5902787" lon="10.8199298"><ele>256.0</ele><time>2026-04-11T14:40:45.866Z</time></trkpt><trkpt lat="43.5901879" lon="10.8199886"><ele>258.0</ele><time>2026-04-11T14:40:46.865Z</time></trkpt><trkpt lat="43.5900902" lon="10.8200358"><ele>258.2</ele><time>2026-04-11T14:40:47.862Z</time></trkpt><trkpt lat="43.589995" lon="10.8200535"><ele>258.4</ele><time>2026-04-11T14:40:48.867Z</time></trkpt><trkpt lat="43.5898986" lon="10.8200361"><ele>258.59999999999997</ele><time>2026-04-11T14:40:49.862Z</time></trkpt><trkpt lat="43.5897957" lon="10.8199954"><ele>258.8</ele><time>2026-04-11T14:40:50.864Z</time></trkpt><trkpt lat="43.5896819" lon="10.8199288"><ele>259.0</ele><time>2026-04-11T14:40:51.878Z</time></trkpt><trkpt lat="43.5895593" lon="10.81986"><ele>257.75</ele><time>2026-04-11T14:40:52.861Z</time></trkpt><trkpt lat="43.5894242" lon="10.8197993"><ele>256.5</ele><time>2026-04-11T14:40:53.862Z</time></trkpt><trkpt lat="43.5893005" lon="10.819765"><ele>255.25</ele><time>2026-04-11T14:40:54.852Z</time></trkpt><trkpt lat="43.5891793" lon="10.8197509"><ele>254.0</ele><time>2026-04-11T14:40:55.846Z</time></trkpt><trkpt lat="43.5890561" lon="10.8197774"><ele>254.0</ele><time>2026-04-11T14:40:56.849Z</time></trkpt><trkpt lat="43.5889369" lon="10.8198344"><ele>254.0</ele><time>2026-04-11T14:40:57.852Z</time></trkpt><trkpt lat="43.5888054" lon="10.8198553"><ele>254.0</ele><time>2026-04-11T14:40:58.849Z</time></trkpt><trkpt lat="43.5886847" lon="10.8199105"><ele>254.0</ele><time>2026-04-11T14:40:59.849Z</time></trkpt><trkpt lat="43.5885668" lon="10.8199606"><ele>251.0</ele><time>2026-04-11T14:41:00.856Z</time></trkpt><trkpt lat="43.5884573" lon="10.8199573"><ele>247.99999999999997</ele><time>2026-04-11T14:41:01.855Z</time></trkpt><trkpt lat="43.5883545" lon="10.8199325"><ele>244.99999999999997</ele><time>2026-04-11T14:41:02.852Z</time></trkpt><trkpt lat="43.5882591" lon="10.8198944"><ele>242.0</ele><time>2026-04-11T14:41:03.855Z</time></trkpt><trkpt lat="43.5881649" lon="10.8198412"><ele>239.0</ele><time>2026-04-11T14:41:04.856Z</time></trkpt><trkpt lat="43.5880903" lon="10.8197818"><ele>239.00000000000003</ele><time>2026-04-11T14:41:05.854Z</time></trkpt><trkpt lat="43.5880321" lon="10.8197239"><ele>239.0</ele><time>2026-04-11T14:41:06.855Z</time></trkpt><trkpt lat="43.5879722" lon="10.8196195"><ele>239.0</ele><time>2026-04-11T14:41:08.86Z</time></trkpt><trkpt lat="43.5880337" lon="10.8197358"><ele>239.0</ele><time>2026-04-11T14:41:27.846Z</time></trkpt><trkpt lat="43.58806" lon="10.8198373"><ele>239.00000000000003</ele><time>2026-04-11T14:41:28.845Z</time></trkpt><trkpt lat="43.5880879" lon="10.8199231"><ele>239.0</ele><time>2026-04-11T14:41:30.844Z</time></trkpt><trkpt lat="43.5880327" lon="10.8198632"><ele>239.0</ele><time>2026-04-11T14:49:35.848Z</time></trkpt><trkpt lat="43.587996" lon="10.8197087"><ele>238.99999999999997</ele><time>2026-04-11T14:49:40.834Z</time></trkpt><trkpt lat="43.5879581" lon="10.8195935"><ele>238.99999999999997</ele><time>2026-04-11T14:49:42.846Z</time></trkpt><trkpt lat="43.5879284" lon="10.8194573"><ele>239.0</ele><time>2026-04-11T14:49:44.845Z</time></trkpt><trkpt lat="43.5878803" lon="10.8193042"><ele>239.0</ele><time>2026-04-11T14:49:46.844Z</time></trkpt><trkpt lat="43.5878515" lon="10.819178"><ele>239.79999999999998</ele><time>2026-04-11T14:49:47.857Z</time></trkpt><trkpt lat="43.5878342" lon="10.8190676"><ele>240.59999999999997</ele><time>2026-04-11T14:49:48.845Z</time></trkpt><trkpt lat="43.5878238" lon="10.8189327"><ele>241.4</ele><time>2026-04-11T14:49:49.854Z</time></trkpt><trkpt lat="43.5878008" lon="10.8187972"><ele>242.2</ele><time>2026-04-11T14:49:50.852Z</time></trkpt><trkpt lat="43.5877745" lon="10.8186583"><ele>243.0</ele><time>2026-04-11T14:49:51.853Z</time></trkpt><trkpt lat="43.5877533" lon="10.8185072"><ele>246.0</ele><time>2026-04-11T14:49:52.849Z</time></trkpt><trkpt lat="43.5877184" lon="10.8183413"><ele>249.0</ele><time>2026-04-11T14:49:53.851Z</time></trkpt><trkpt lat="43.587676" lon="10.8181858"><ele>252.0</ele><time>2026-04-11T14:49:54.849Z</time></trkpt><trkpt lat="43.5876298" lon="10.8180403"><ele>255.0</ele><time>2026-04-11T14:49:55.85Z</time></trkpt><trkpt lat="43.5875822" lon="10.8179147"><ele>255.0</ele><time>2026-04-11T14:49:56.852Z</time></trkpt><trkpt lat="43.5875335" lon="10.8177966"><ele>255.0</ele><time>2026-04-11T14:49:57.859Z</time></trkpt><trkpt lat="43.5874928" lon="10.8176785"><ele>255.0</ele><time>2026-04-11T14:49:58.858Z</time></trkpt><trkpt lat="43.5874597" lon="10.817553"><ele>255.0</ele><time>2026-04-11T14:49:59.856Z</time></trkpt><trkpt lat="43.5874318" lon="10.8174019"><ele>255.0</ele><time>2026-04-11T14:50:00.854Z</time></trkpt><trkpt lat="43.5874162" lon="10.8172247"><ele>255.4</ele><time>2026-04-11T14:50:01.858Z</time></trkpt><trkpt lat="43.5874059" lon="10.8170602"><ele>255.8</ele><time>2026-04-11T14:50:02.859Z</time></trkpt><trkpt lat="43.5874004" lon="10.8169149"><ele>256.2</ele><time>2026-04-11T14:50:03.857Z</time></trkpt><trkpt lat="43.5873841" lon="10.8167708"><ele>256.6</ele><time>2026-04-11T14:50:04.859Z</time></trkpt><trkpt lat="43.5873548" lon="10.8166277"><ele>257.0</ele><time>2026-04-11T14:50:05.857Z</time></trkpt><trkpt lat="43.5873255" lon="10.8164891"><ele>256.33333333333337</ele><time>2026-04-11T14:50:06.858Z</time></trkpt><trkpt lat="43.587291" lon="10.8163495"><ele>255.66666666666669</ele><time>2026-04-11T14:50:07.879Z</time></trkpt><trkpt lat="43.5872618" lon="10.8162283"><ele>255.0</ele><time>2026-04-11T14:50:08.855Z</time></trkpt><trkpt lat="43.5872439" lon="10.8161315"><ele>254.33333333333331</ele><time>2026-04-11T14:50:09.858Z</time></trkpt><trkpt lat="43.5872294" lon="10.816022"><ele>253.66666666666666</ele><time>2026-04-11T14:50:10.871Z</time></trkpt><trkpt lat="43.5872219" lon="10.8159054"><ele>253.0</ele><time>2026-04-11T14:50:11.87Z</time></trkpt><trkpt lat="43.5872255" lon="10.815786"><ele>252.16666666666666</ele><time>2026-04-11T14:50:12.87Z</time></trkpt><trkpt lat="43.5872322" lon="10.8156848"><ele>251.33333333333331</ele><time>2026-04-11T14:50:13.872Z</time></trkpt><trkpt lat="43.5872176" lon="10.8155816"><ele>250.5</ele><time>2026-04-11T14:50:14.866Z</time></trkpt><trkpt lat="43.5871957" lon="10.8154935"><ele>249.66666666666669</ele><time>2026-04-11T14:50:15.865Z</time></trkpt><trkpt lat="43.5871506" lon="10.8154082"><ele>248.83333333333334</ele><time>2026-04-11T14:50:16.856Z</time></trkpt><trkpt lat="43.5870858" lon="10.8152974"><ele>248.0</ele><time>2026-04-11T14:50:17.862Z</time></trkpt><trkpt lat="43.5870194" lon="10.8151772"><ele>246.0</ele><time>2026-04-11T14:50:18.854Z</time></trkpt><trkpt lat="43.5869533" lon="10.8150285"><ele>244.0</ele><time>2026-04-11T14:50:19.861Z</time></trkpt><trkpt lat="43.5868975" lon="10.8148663"><ele>242.0</ele><time>2026-04-11T14:50:20.861Z</time></trkpt><trkpt lat="43.5868424" lon="10.8147085"><ele>240.0</ele><time>2026-04-11T14:50:21.862Z</time></trkpt><trkpt lat="43.5867943" lon="10.8145489"><ele>240.0</ele><time>2026-04-11T14:50:22.861Z</time></trkpt><trkpt lat="43.5867624" lon="10.814383"><ele>240.0</ele><time>2026-04-11T14:50:23.855Z</time></trkpt><trkpt lat="43.5867403" lon="10.8141966"><ele>240.0</ele><time>2026-04-11T14:50:24.856Z</time></trkpt><trkpt lat="43.5867371" lon="10.8139988"><ele>240.0</ele><time>2026-04-11T14:50:25.859Z</time></trkpt><trkpt lat="43.5867521" lon="10.8137992"><ele>239.5</ele><time>2026-04-11T14:50:26.857Z</time></trkpt><trkpt lat="43.5867756" lon="10.8136159"><ele>239.0</ele><time>2026-04-11T14:50:27.861Z</time></trkpt><trkpt lat="43.5868129" lon="10.8134247"><ele>238.5</ele><time>2026-04-11T14:50:28.86Z</time></trkpt><trkpt lat="43.5868159" lon="10.8131966"><ele>238.0</ele><time>2026-04-11T14:50:29.861Z</time></trkpt><trkpt lat="43.5868258" lon="10.8130037"><ele>238.2</ele><time>2026-04-11T14:50:30.855Z</time></trkpt><trkpt lat="43.5868351" lon="10.8128504"><ele>238.4</ele><time>2026-04-11T14:50:31.857Z</time></trkpt><trkpt lat="43.5868481" lon="10.8127082"><ele>238.59999999999997</ele><time>2026-04-11T14:50:32.854Z</time></trkpt><trkpt lat="43.5868385" lon="10.8125787"><ele>238.79999999999998</ele><time>2026-04-11T14:50:33.855Z</time></trkpt><trkpt lat="43.5868466" lon="10.8124806"><ele>239.0</ele><time>2026-04-11T14:50:34.849Z</time></trkpt><trkpt lat="43.5868291" lon="10.8123778"><ele>239.0</ele><time>2026-04-11T14:50:35.847Z</time></trkpt><trkpt lat="43.5867946" lon="10.8122883"><ele>238.99999999999997</ele><time>2026-04-11T14:50:36.848Z</time></trkpt><trkpt lat="43.5867515" lon="10.8121844"><ele>238.99999999999997</ele><time>2026-04-11T14:50:37.852Z</time></trkpt><trkpt lat="43.5866874" lon="10.8120743"><ele>239.0</ele><time>2026-04-11T14:50:38.868Z</time></trkpt><trkpt lat="43.586608" lon="10.8119564"><ele>239.0</ele><time>2026-04-11T14:50:39.854Z</time></trkpt><trkpt lat="43.5865207" lon="10.8118414"><ele>240.5</ele><time>2026-04-11T14:50:40.856Z</time></trkpt><trkpt lat="43.5864372" lon="10.8117243"><ele>242.0</ele><time>2026-04-11T14:50:41.865Z</time></trkpt><trkpt lat="43.5863627" lon="10.8116043"><ele>243.5</ele><time>2026-04-11T14:50:42.852Z</time></trkpt><trkpt lat="43.5862872" lon="10.8114836"><ele>245.0</ele><time>2026-04-11T14:50:43.864Z</time></trkpt><trkpt lat="43.5862098" lon="10.8113558"><ele>238.5</ele><time>2026-04-11T14:50:44.853Z</time></trkpt><trkpt lat="43.5861356" lon="10.8112374"><ele>232.0</ele><time>2026-04-11T14:50:45.85Z</time></trkpt><trkpt lat="43.5860666" lon="10.8111332"><ele>225.5</ele><time>2026-04-11T14:50:46.854Z</time></trkpt><trkpt lat="43.5859951" lon="10.8110019"><ele>219.0</ele><time>2026-04-11T14:50:47.856Z</time></trkpt><trkpt lat="43.585925" lon="10.8108675"><ele>219.0</ele><time>2026-04-11T14:50:48.855Z</time></trkpt><trkpt lat="43.5858571" lon="10.8107512"><ele>218.99999999999997</ele><time>2026-04-11T14:50:49.858Z</time></trkpt><trkpt lat="43.5857936" lon="10.8106256"><ele>218.99999999999997</ele><time>2026-04-11T14:50:50.858Z</time></trkpt><trkpt lat="43.5857297" lon="10.8105144"><ele>219.0</ele><time>2026-04-11T14:50:51.875Z</time></trkpt><trkpt lat="43.5856676" lon="10.8103923"><ele>219.0</ele><time>2026-04-11T14:50:52.855Z</time></trkpt><trkpt lat="43.5856005" lon="10.8102858"><ele>219.0</ele><time>2026-04-11T14:50:53.862Z</time></trkpt><trkpt lat="43.5855286" lon="10.8101976"><ele>218.99999999999997</ele><time>2026-04-11T14:50:54.859Z</time></trkpt><trkpt lat="43.5854497" lon="10.8101172"><ele>218.99999999999997</ele><time>2026-04-11T14:50:55.858Z</time></trkpt><trkpt lat="43.5853758" lon="10.8100307"><ele>219.0</ele><time>2026-04-11T14:50:56.857Z</time></trkpt><trkpt lat="43.5853035" lon="10.8099363"><ele>219.0</ele><time>2026-04-11T14:50:57.862Z</time></trkpt><trkpt lat="43.5852341" lon="10.8098551"><ele>214.39999999999998</ele><time>2026-04-11T14:50:58.857Z</time></trkpt><trkpt lat="43.5851638" lon="10.8097758"><ele>209.79999999999998</ele><time>2026-04-11T14:50:59.858Z</time></trkpt><trkpt lat="43.5850934" lon="10.8097058"><ele>205.2</ele><time>2026-04-11T14:51:00.858Z</time></trkpt><trkpt lat="43.5850411" lon="10.8096459"><ele>200.60000000000002</ele><time>2026-04-11T14:51:01.868Z</time></trkpt><trkpt lat="43.5849418" lon="10.8095694"><ele>196.0</ele><time>2026-04-11T14:51:03.857Z</time></trkpt><trkpt lat="43.5848175" lon="10.8095152"><ele>195.99999999999997</ele><time>2026-04-11T14:51:05.857Z</time></trkpt><trkpt lat="43.5847459" lon="10.8095075"><ele>196.0</ele><time>2026-04-11T14:51:06.859Z</time></trkpt><trkpt lat="43.5846774" lon="10.8095228"><ele>196.0</ele><time>2026-04-11T14:51:07.854Z</time></trkpt><trkpt lat="43.5845999" lon="10.8095658"><ele>196.0</ele><time>2026-04-11T14:51:08.857Z</time></trkpt><trkpt lat="43.5845231" lon="10.8096225"><ele>195.99999999999997</ele><time>2026-04-11T14:51:09.876Z</time></trkpt><trkpt lat="43.5844415" lon="10.8097083"><ele>196.0</ele><time>2026-04-11T14:51:10.856Z</time></trkpt><trkpt lat="43.5843799" lon="10.8098091"><ele>192.20000000000002</ele><time>2026-04-11T14:51:11.869Z</time></trkpt><trkpt lat="43.5843437" lon="10.8099137"><ele>188.4</ele><time>2026-04-11T14:51:12.859Z</time></trkpt><trkpt lat="43.5843129" lon="10.8100344"><ele>184.6</ele><time>2026-04-11T14:51:13.863Z</time></trkpt><trkpt lat="43.5842811" lon="10.8101655"><ele>180.8</ele><time>2026-04-11T14:51:14.865Z</time></trkpt><trkpt lat="43.5842473" lon="10.8102968"><ele>177.0</ele><time>2026-04-11T14:51:15.865Z</time></trkpt><trkpt lat="43.5842161" lon="10.8104284"><ele>177.0</ele><time>2026-04-11T14:51:16.868Z</time></trkpt><trkpt lat="43.5841883" lon="10.8105512"><ele>177.0</ele><time>2026-04-11T14:51:17.865Z</time></trkpt><trkpt lat="43.584145" lon="10.8106716"><ele>177.0</ele><time>2026-04-11T14:51:18.862Z</time></trkpt><trkpt lat="43.5840969" lon="10.8107718"><ele>177.0</ele><time>2026-04-11T14:51:19.859Z</time></trkpt><trkpt lat="43.5840291" lon="10.8108437"><ele>177.0</ele><time>2026-04-11T14:51:20.857Z</time></trkpt><trkpt lat="43.5839526" lon="10.8109014"><ele>177.0</ele><time>2026-04-11T14:51:21.878Z</time></trkpt><trkpt lat="43.5838656" lon="10.8109607"><ele>177.0</ele><time>2026-04-11T14:51:22.866Z</time></trkpt><trkpt lat="43.583778" lon="10.8110068"><ele>177.0</ele><time>2026-04-11T14:51:23.861Z</time></trkpt><trkpt lat="43.5836965" lon="10.8110493"><ele>177.0</ele><time>2026-04-11T14:51:24.863Z</time></trkpt><trkpt lat="43.5836262" lon="10.8110867"><ele>177.0</ele><time>2026-04-11T14:51:25.865Z</time></trkpt><trkpt lat="43.5835646" lon="10.8111202"><ele>177.0</ele><time>2026-04-11T14:51:26.864Z</time></trkpt><trkpt lat="43.5834671" lon="10.8112312"><ele>173.4</ele><time>2026-04-11T14:51:28.862Z</time></trkpt><trkpt lat="43.5834394" lon="10.8114118"><ele>169.79999999999998</ele><time>2026-04-11T14:51:30.863Z</time></trkpt><trkpt lat="43.5834329" lon="10.8115123"><ele>166.2</ele><time>2026-04-11T14:51:31.875Z</time></trkpt><trkpt lat="43.5834188" lon="10.8116082"><ele>162.6</ele><time>2026-04-11T14:51:32.861Z</time></trkpt><trkpt lat="43.5833634" lon="10.8116946"><ele>159.0</ele><time>2026-04-11T14:51:34.848Z</time></trkpt><trkpt lat="43.5832581" lon="10.8116524"><ele>159.0</ele><time>2026-04-11T14:51:36.854Z</time></trkpt><trkpt lat="43.5832013" lon="10.8115679"><ele>159.0</ele><time>2026-04-11T14:51:37.85Z</time></trkpt><trkpt lat="43.5831406" lon="10.8114529"><ele>159.0</ele><time>2026-04-11T14:51:38.869Z</time></trkpt><trkpt lat="43.5830697" lon="10.8113114"><ele>159.0</ele><time>2026-04-11T14:51:39.883Z</time></trkpt><trkpt lat="43.5829871" lon="10.8111831"><ele>159.0</ele><time>2026-04-11T14:51:41.967Z</time></trkpt><trkpt lat="43.58291" lon="10.8110613"><ele>155.6</ele><time>2026-04-11T14:51:42.953Z</time></trkpt><trkpt lat="43.5828384" lon="10.8109492"><ele>152.2</ele><time>2026-04-11T14:51:43.955Z</time></trkpt><trkpt lat="43.5827691" lon="10.8108386"><ele>148.79999999999998</ele><time>2026-04-11T14:51:44.951Z</time></trkpt><trkpt lat="43.5827046" lon="10.8107391"><ele>145.4</ele><time>2026-04-11T14:51:45.95Z</time></trkpt><trkpt lat="43.5826437" lon="10.8106493"><ele>142.0</ele><time>2026-04-11T14:51:46.951Z</time></trkpt><trkpt lat="43.5825858" lon="10.8105783"><ele>142.0</ele><time>2026-04-11T14:51:47.949Z</time></trkpt><trkpt lat="43.5825232" lon="10.8105242"><ele>142.0</ele><time>2026-04-11T14:51:48.946Z</time></trkpt><trkpt lat="43.5824532" lon="10.8104864"><ele>142.0</ele><time>2026-04-11T14:51:49.936Z</time></trkpt><trkpt lat="43.5823723" lon="10.8104563"><ele>142.0</ele><time>2026-04-11T14:51:50.934Z</time></trkpt><trkpt lat="43.5822861" lon="10.8104322"><ele>142.0</ele><time>2026-04-11T14:51:51.951Z</time></trkpt><trkpt lat="43.5821851" lon="10.81042"><ele>142.0</ele><time>2026-04-11T14:51:52.941Z</time></trkpt><trkpt lat="43.5820987" lon="10.8104013"><ele>142.0</ele><time>2026-04-11T14:51:53.958Z</time></trkpt><trkpt lat="43.5820187" lon="10.810382"><ele>142.0</ele><time>2026-04-11T14:51:54.951Z</time></trkpt><trkpt lat="43.5819464" lon="10.8103684"><ele>142.0</ele><time>2026-04-11T14:51:55.953Z</time></trkpt><trkpt lat="43.5818731" lon="10.8103611"><ele>142.0</ele><time>2026-04-11T14:51:56.953Z</time></trkpt><trkpt lat="43.5818042" lon="10.8103593"><ele>142.0</ele><time>2026-04-11T14:51:57.965Z</time></trkpt><trkpt lat="43.5817356" lon="10.8103618"><ele>142.0</ele><time>2026-04-11T14:51:58.946Z</time></trkpt><trkpt lat="43.581668" lon="10.8103672"><ele>142.0</ele><time>2026-04-11T14:51:59.943Z</time></trkpt><trkpt lat="43.5815939" lon="10.8103777"><ele>139.66666666666669</ele><time>2026-04-11T14:52:00.94Z</time></trkpt><trkpt lat="43.5815124" lon="10.8103944"><ele>137.33333333333334</ele><time>2026-04-11T14:52:01.949Z</time></trkpt><trkpt lat="43.581429" lon="10.8104201"><ele>135.0</ele><time>2026-04-11T14:52:02.956Z</time></trkpt><trkpt lat="43.5813477" lon="10.8104515"><ele>132.66666666666666</ele><time>2026-04-11T14:52:03.955Z</time></trkpt><trkpt lat="43.5812705" lon="10.8104782"><ele>130.33333333333331</ele><time>2026-04-11T14:52:04.952Z</time></trkpt><trkpt lat="43.5811967" lon="10.8105005"><ele>128.0</ele><time>2026-04-11T14:52:05.954Z</time></trkpt><trkpt lat="43.5811267" lon="10.81052"><ele>124.2</ele><time>2026-04-11T14:52:06.95Z</time></trkpt><trkpt lat="43.5810013" lon="10.8105388"><ele>120.4</ele><time>2026-04-11T14:52:08.95Z</time></trkpt><trkpt lat="43.580938" lon="10.8105328"><ele>116.60000000000001</ele><time>2026-04-11T14:52:09.939Z</time></trkpt><trkpt lat="43.5808757" lon="10.8105149"><ele>112.80000000000001</ele><time>2026-04-11T14:52:10.938Z</time></trkpt><trkpt lat="43.5807641" lon="10.8104526"><ele>109.0</ele><time>2026-04-11T14:52:12.937Z</time></trkpt><trkpt lat="43.5806896" lon="10.8103239"><ele>109.0</ele><time>2026-04-11T14:52:14.95Z</time></trkpt><trkpt lat="43.5806687" lon="10.8102379"><ele>109.0</ele><time>2026-04-11T14:52:15.936Z</time></trkpt><trkpt lat="43.5806661" lon="10.8101503"><ele>109.0</ele><time>2026-04-11T14:52:16.938Z</time></trkpt><trkpt lat="43.5806837" lon="10.8100654"><ele>109.0</ele><time>2026-04-11T14:52:17.944Z</time></trkpt><trkpt lat="43.5807143" lon="10.8099696"><ele>109.0</ele><time>2026-04-11T14:52:18.943Z</time></trkpt><trkpt lat="43.5807508" lon="10.8098751"><ele>109.0</ele><time>2026-04-11T14:52:19.962Z</time></trkpt><trkpt lat="43.5807855" lon="10.8097939"><ele>109.0</ele><time>2026-04-11T14:52:20.958Z</time></trkpt><trkpt lat="43.5808339" lon="10.8096776"><ele>108.66666666666667</ele><time>2026-04-11T14:52:22.956Z</time></trkpt><trkpt lat="43.5808551" lon="10.8095747"><ele>108.33333333333334</ele><time>2026-04-11T14:52:24.952Z</time></trkpt><trkpt lat="43.5808222" lon="10.8094785"><ele>108.0</ele><time>2026-04-11T14:52:26.949Z</time></trkpt><trkpt lat="43.5807582" lon="10.8094057"><ele>107.66666666666666</ele><time>2026-04-11T14:52:28.948Z</time></trkpt><trkpt lat="43.5806483" lon="10.8094106"><ele>107.33333333333333</ele><time>2026-04-11T14:52:30.934Z</time></trkpt><trkpt lat="43.580581" lon="10.8094459"><ele>107.0</ele><time>2026-04-11T14:52:31.948Z</time></trkpt><trkpt lat="43.5805076" lon="10.8095029"><ele>106.99999999999999</ele><time>2026-04-11T14:52:32.938Z</time></trkpt><trkpt lat="43.5804317" lon="10.8095695"><ele>107.0</ele><time>2026-04-11T14:52:33.957Z</time></trkpt><trkpt lat="43.5803533" lon="10.8096373"><ele>107.0</ele><time>2026-04-11T14:52:34.957Z</time></trkpt><trkpt lat="43.5802736" lon="10.8097074"><ele>107.0</ele><time>2026-04-11T14:52:35.952Z</time></trkpt><trkpt lat="43.5802017" lon="10.8097736"><ele>106.99999999999999</ele><time>2026-04-11T14:52:36.952Z</time></trkpt><trkpt lat="43.5801393" lon="10.8098374"><ele>107.0</ele><time>2026-04-11T14:52:37.952Z</time></trkpt><trkpt lat="43.580084" lon="10.8099008"><ele>104.33333333333333</ele><time>2026-04-11T14:52:38.935Z</time></trkpt><trkpt lat="43.5800291" lon="10.8099768"><ele>101.66666666666666</ele><time>2026-04-11T14:52:39.934Z</time></trkpt><trkpt lat="43.5799796" lon="10.8100587"><ele>99.0</ele><time>2026-04-11T14:52:40.939Z</time></trkpt><trkpt lat="43.5799316" lon="10.8101456"><ele>96.33333333333333</ele><time>2026-04-11T14:52:41.947Z</time></trkpt><trkpt lat="43.5798844" lon="10.8102234"><ele>93.66666666666666</ele><time>2026-04-11T14:52:42.966Z</time></trkpt><trkpt lat="43.5798279" lon="10.8102869"><ele>91.0</ele><time>2026-04-11T14:52:43.944Z</time></trkpt><trkpt lat="43.5797598" lon="10.8103365"><ele>91.0</ele><time>2026-04-11T14:52:44.94Z</time></trkpt><trkpt lat="43.5796841" lon="10.810363"><ele>91.0</ele><time>2026-04-11T14:52:45.93Z</time></trkpt><trkpt lat="43.5795943" lon="10.8103657"><ele>91.0</ele><time>2026-04-11T14:52:46.932Z</time></trkpt><trkpt lat="43.5794805" lon="10.810342"><ele>91.0</ele><time>2026-04-11T14:52:47.93Z</time></trkpt><trkpt lat="43.5793588" lon="10.810294"><ele>91.0</ele><time>2026-04-11T14:52:48.931Z</time></trkpt><trkpt lat="43.5792497" lon="10.8102256"><ele>89.5</ele><time>2026-04-11T14:52:49.941Z</time></trkpt><trkpt lat="43.5791456" lon="10.8101317"><ele>88.0</ele><time>2026-04-11T14:52:50.946Z</time></trkpt><trkpt lat="43.579034" lon="10.8100105"><ele>86.5</ele><time>2026-04-11T14:52:51.942Z</time></trkpt><trkpt lat="43.5789418" lon="10.8098969"><ele>85.0</ele><time>2026-04-11T14:52:52.947Z</time></trkpt><trkpt lat="43.5788612" lon="10.8098002"><ele>85.0</ele><time>2026-04-11T14:52:53.938Z</time></trkpt><trkpt lat="43.5787798" lon="10.809716"><ele>85.0</ele><time>2026-04-11T14:52:54.935Z</time></trkpt><trkpt lat="43.5787029" lon="10.8096605"><ele>85.0</ele><time>2026-04-11T14:52:55.954Z</time></trkpt><trkpt lat="43.5786236" lon="10.8095975"><ele>85.0</ele><time>2026-04-11T14:52:56.95Z</time></trkpt><trkpt lat="43.578534" lon="10.8095312"><ele>85.0</ele><time>2026-04-11T14:52:57.957Z</time></trkpt><trkpt lat="43.5784479" lon="10.8094886"><ele>85.0</ele><time>2026-04-11T14:52:58.956Z</time></trkpt><trkpt lat="43.5783573" lon="10.8094556"><ele>85.0</ele><time>2026-04-11T14:52:59.955Z</time></trkpt><trkpt lat="43.5782622" lon="10.8094252"><ele>85.0</ele><time>2026-04-11T14:53:00.957Z</time></trkpt><trkpt lat="43.5781626" lon="10.8093971"><ele>85.0</ele><time>2026-04-11T14:53:01.941Z</time></trkpt><trkpt lat="43.5780605" lon="10.8093685"><ele>85.0</ele><time>2026-04-11T14:53:02.948Z</time></trkpt><trkpt lat="43.5779584" lon="10.8093415"><ele>83.2</ele><time>2026-04-11T14:53:03.943Z</time></trkpt><trkpt lat="43.5778488" lon="10.809317"><ele>81.4</ele><time>2026-04-11T14:53:04.942Z</time></trkpt><trkpt lat="43.5777412" lon="10.8092963"><ele>79.6</ele><time>2026-04-11T14:53:05.957Z</time></trkpt><trkpt lat="43.5776424" lon="10.8092809"><ele>77.8</ele><time>2026-04-11T14:53:06.955Z</time></trkpt><trkpt lat="43.5775503" lon="10.8092664"><ele>76.0</ele><time>2026-04-11T14:53:07.957Z</time></trkpt><trkpt lat="43.5774684" lon="10.8092499"><ele>76.0</ele><time>2026-04-11T14:53:08.955Z</time></trkpt><trkpt lat="43.5773961" lon="10.809236"><ele>76.0</ele><time>2026-04-11T14:53:09.951Z</time></trkpt><trkpt lat="43.577286" lon="10.8092185"><ele>76.0</ele><time>2026-04-11T14:53:11.951Z</time></trkpt><trkpt lat="43.5772141" lon="10.809215"><ele>76.0</ele><time>2026-04-11T14:53:13.983Z</time></trkpt><trkpt lat="43.5771381" lon="10.8092719"><ele>76.0</ele><time>2026-04-11T14:53:29.958Z</time></trkpt><trkpt lat="43.5770412" lon="10.8095664"><ele>76.66666666666666</ele><time>2026-04-11T14:53:31.854Z</time></trkpt><trkpt lat="43.5770022" lon="10.8097288"><ele>77.33333333333333</ele><time>2026-04-11T14:53:32.854Z</time></trkpt><trkpt lat="43.5769402" lon="10.8099238"><ele>78.0</ele><time>2026-04-11T14:53:33.852Z</time></trkpt><trkpt lat="43.5768582" lon="10.810152"><ele>77.66666666666667</ele><time>2026-04-11T14:53:34.863Z</time></trkpt><trkpt lat="43.5767546" lon="10.8103837"><ele>77.33333333333334</ele><time>2026-04-11T14:53:35.858Z</time></trkpt><trkpt lat="43.5766228" lon="10.8106328"><ele>77.0</ele><time>2026-04-11T14:53:36.868Z</time></trkpt><trkpt lat="43.5764729" lon="10.8108807"><ele>77.0</ele><time>2026-04-11T14:53:37.863Z</time></trkpt><trkpt lat="43.5763192" lon="10.8111624"><ele>77.0</ele><time>2026-04-11T14:53:38.867Z</time></trkpt><trkpt lat="43.5761695" lon="10.811432"><ele>78.5</ele><time>2026-04-11T14:53:39.866Z</time></trkpt><trkpt lat="43.5760086" lon="10.8117011"><ele>80.0</ele><time>2026-04-11T14:53:40.862Z</time></trkpt><trkpt lat="43.5758461" lon="10.8119856"><ele>80.0</ele><time>2026-04-11T14:53:41.862Z</time></trkpt><trkpt lat="43.5756984" lon="10.8122483"><ele>80.0</ele><time>2026-04-11T14:53:42.865Z</time></trkpt><trkpt lat="43.5755593" lon="10.8125065"><ele>79.5</ele><time>2026-04-11T14:53:43.862Z</time></trkpt><trkpt lat="43.575403" lon="10.8127784"><ele>79.0</ele><time>2026-04-11T14:53:44.877Z</time></trkpt><trkpt lat="43.575236" lon="10.8130652"><ele>80.0</ele><time>2026-04-11T14:53:45.864Z</time></trkpt><trkpt lat="43.5750772" lon="10.8133328"><ele>81.0</ele><time>2026-04-11T14:53:46.868Z</time></trkpt><trkpt lat="43.5749309" lon="10.8136257"><ele>81.0</ele><time>2026-04-11T14:53:47.867Z</time></trkpt><trkpt lat="43.5747802" lon="10.8139033"><ele>81.0</ele><time>2026-04-11T14:53:48.87Z</time></trkpt><trkpt lat="43.5746175" lon="10.8141938"><ele>85.0</ele><time>2026-04-11T14:53:49.871Z</time></trkpt><trkpt lat="43.5744569" lon="10.8144873"><ele>89.0</ele><time>2026-04-11T14:53:50.868Z</time></trkpt><trkpt lat="43.5742968" lon="10.8147638"><ele>89.0</ele><time>2026-04-11T14:53:51.872Z</time></trkpt><trkpt lat="43.5741455" lon="10.8150426"><ele>89.0</ele><time>2026-04-11T14:53:52.864Z</time></trkpt><trkpt lat="43.5740102" lon="10.8152856"><ele>89.66666666666667</ele><time>2026-04-11T14:53:53.867Z</time></trkpt><trkpt lat="43.5738805" lon="10.8155228"><ele>90.33333333333333</ele><time>2026-04-11T14:53:54.867Z</time></trkpt><trkpt lat="43.573758" lon="10.8157531"><ele>91.0</ele><time>2026-04-11T14:53:55.87Z</time></trkpt><trkpt lat="43.573639" lon="10.8159865"><ele>93.0</ele><time>2026-04-11T14:53:56.869Z</time></trkpt><trkpt lat="43.5735527" lon="10.8162436"><ele>95.0</ele><time>2026-04-11T14:53:57.864Z</time></trkpt><trkpt lat="43.5734748" lon="10.8165309"><ele>97.0</ele><time>2026-04-11T14:53:58.869Z</time></trkpt><trkpt lat="43.5734136" lon="10.8168332"><ele>98.5</ele><time>2026-04-11T14:53:59.86Z</time></trkpt><trkpt lat="43.5733634" lon="10.8171537"><ele>100.0</ele><time>2026-04-11T14:54:00.866Z</time></trkpt><trkpt lat="43.5733134" lon="10.8174777"><ele>102.5</ele><time>2026-04-11T14:54:01.868Z</time></trkpt><trkpt lat="43.5732507" lon="10.8177915"><ele>105.0</ele><time>2026-04-11T14:54:02.877Z</time></trkpt><trkpt lat="43.5731867" lon="10.8180946"><ele>105.0</ele><time>2026-04-11T14:54:03.873Z</time></trkpt><trkpt lat="43.5731282" lon="10.8183877"><ele>105.0</ele><time>2026-04-11T14:54:04.874Z</time></trkpt><trkpt lat="43.5730659" lon="10.8186669"><ele>105.0</ele><time>2026-04-11T14:54:05.872Z</time></trkpt><trkpt lat="43.5730122" lon="10.8189536"><ele>106.33333333333334</ele><time>2026-04-11T14:54:06.869Z</time></trkpt><trkpt lat="43.5729533" lon="10.8192176"><ele>107.66666666666667</ele><time>2026-04-11T14:54:07.865Z</time></trkpt><trkpt lat="43.5728999" lon="10.8194625"><ele>109.0</ele><time>2026-04-11T14:54:08.865Z</time></trkpt><trkpt lat="43.5728302" lon="10.8196945"><ele>112.0</ele><time>2026-04-11T14:54:09.863Z</time></trkpt><trkpt lat="43.5727426" lon="10.8198823"><ele>115.0</ele><time>2026-04-11T14:54:10.862Z</time></trkpt><trkpt lat="43.5726312" lon="10.8200473"><ele>118.0</ele><time>2026-04-11T14:54:11.869Z</time></trkpt><trkpt lat="43.5725052" lon="10.8201442"><ele>116.0</ele><time>2026-04-11T14:54:12.862Z</time></trkpt><trkpt lat="43.5723472" lon="10.8201927"><ele>114.0</ele><time>2026-04-11T14:54:13.874Z</time></trkpt><trkpt lat="43.5721721" lon="10.8202175"><ele>112.0</ele><time>2026-04-11T14:54:14.87Z</time></trkpt><trkpt lat="43.5719906" lon="10.8202128"><ele>112.0</ele><time>2026-04-11T14:54:15.888Z</time></trkpt><trkpt lat="43.5717981" lon="10.8202285"><ele>112.0</ele><time>2026-04-11T14:54:16.872Z</time></trkpt><trkpt lat="43.5715798" lon="10.8202642"><ele>112.0</ele><time>2026-04-11T14:54:17.866Z</time></trkpt><trkpt lat="43.5713556" lon="10.8202981"><ele>116.0</ele><time>2026-04-11T14:54:18.868Z</time></trkpt><trkpt lat="43.5711492" lon="10.8203263"><ele>120.0</ele><time>2026-04-11T14:54:19.861Z</time></trkpt><trkpt lat="43.5709758" lon="10.8203625"><ele>124.0</ele><time>2026-04-11T14:54:20.852Z</time></trkpt><trkpt lat="43.5708124" lon="10.8203953"><ele>124.0</ele><time>2026-04-11T14:54:21.85Z</time></trkpt><trkpt lat="43.5706769" lon="10.8204693"><ele>124.0</ele><time>2026-04-11T14:54:22.858Z</time></trkpt><trkpt lat="43.5705336" lon="10.8206061"><ele>124.0</ele><time>2026-04-11T14:54:23.854Z</time></trkpt><trkpt lat="43.5704144" lon="10.8207497"><ele>128.33333333333334</ele><time>2026-04-11T14:54:24.859Z</time></trkpt><trkpt lat="43.57031" lon="10.8209302"><ele>132.66666666666666</ele><time>2026-04-11T14:54:25.86Z</time></trkpt><trkpt lat="43.5702256" lon="10.821159"><ele>137.0</ele><time>2026-04-11T14:54:26.859Z</time></trkpt><trkpt lat="43.570162" lon="10.8213817"><ele>137.0</ele><time>2026-04-11T14:54:27.861Z</time></trkpt><trkpt lat="43.5700996" lon="10.8216134"><ele>137.0</ele><time>2026-04-11T14:54:28.855Z</time></trkpt><trkpt lat="43.5700483" lon="10.8218574"><ele>137.0</ele><time>2026-04-11T14:54:29.857Z</time></trkpt><trkpt lat="43.5699938" lon="10.8221046"><ele>136.66666666666666</ele><time>2026-04-11T14:54:30.862Z</time></trkpt><trkpt lat="43.5699529" lon="10.8223378"><ele>136.33333333333334</ele><time>2026-04-11T14:54:31.857Z</time></trkpt><trkpt lat="43.5699235" lon="10.82254"><ele>136.0</ele><time>2026-04-11T14:54:32.863Z</time></trkpt><trkpt lat="43.5698822" lon="10.8227517"><ele>135.66666666666669</ele><time>2026-04-11T14:54:33.859Z</time></trkpt><trkpt lat="43.5698271" lon="10.8229609"><ele>135.33333333333334</ele><time>2026-04-11T14:54:34.862Z</time></trkpt><trkpt lat="43.5697737" lon="10.8231654"><ele>135.0</ele><time>2026-04-11T14:54:35.861Z</time></trkpt><trkpt lat="43.5697081" lon="10.8233572"><ele>136.5</ele><time>2026-04-11T14:54:36.861Z</time></trkpt><trkpt lat="43.5696442" lon="10.8235352"><ele>138.0</ele><time>2026-04-11T14:54:37.869Z</time></trkpt><trkpt lat="43.5695677" lon="10.8236971"><ele>139.5</ele><time>2026-04-11T14:54:38.872Z</time></trkpt><trkpt lat="43.5695003" lon="10.8238555"><ele>141.0</ele><time>2026-04-11T14:54:39.864Z</time></trkpt><trkpt lat="43.5694194" lon="10.8240015"><ele>141.0</ele><time>2026-04-11T14:54:40.867Z</time></trkpt><trkpt lat="43.5693353" lon="10.8241435"><ele>141.0</ele><time>2026-04-11T14:54:41.873Z</time></trkpt><trkpt lat="43.5692335" lon="10.8242683"><ele>141.0</ele><time>2026-04-11T14:54:42.865Z</time></trkpt><trkpt lat="43.5691463" lon="10.8244253"><ele>141.0</ele><time>2026-04-11T14:54:43.867Z</time></trkpt><trkpt lat="43.5690704" lon="10.8245583"><ele>140.2</ele><time>2026-04-11T14:54:44.871Z</time></trkpt><trkpt lat="43.568989" lon="10.824658"><ele>139.39999999999998</ele><time>2026-04-11T14:54:45.874Z</time></trkpt><trkpt lat="43.568903" lon="10.8247831"><ele>138.6</ele><time>2026-04-11T14:54:46.896Z</time></trkpt><trkpt lat="43.568839" lon="10.8248765"><ele>137.79999999999998</ele><time>2026-04-11T14:54:47.877Z</time></trkpt><trkpt lat="43.5687784" lon="10.8249703"><ele>137.0</ele><time>2026-04-11T14:54:48.879Z</time></trkpt><trkpt lat="43.568729" lon="10.82504"><ele>136.83333333333331</ele><time>2026-04-11T14:54:49.871Z</time></trkpt><trkpt lat="43.5686424" lon="10.8250969"><ele>136.66666666666666</ele><time>2026-04-11T14:54:51.883Z</time></trkpt><trkpt lat="43.568573" lon="10.8249891"><ele>136.5</ele><time>2026-04-11T14:54:53.873Z</time></trkpt><trkpt lat="43.5685576" lon="10.8248908"><ele>136.33333333333334</ele><time>2026-04-11T14:54:54.882Z</time></trkpt><trkpt lat="43.5685606" lon="10.8247765"><ele>136.16666666666669</ele><time>2026-04-11T14:54:55.871Z</time></trkpt><trkpt lat="43.5685535" lon="10.8246535"><ele>136.0</ele><time>2026-04-11T14:54:56.868Z</time></trkpt><trkpt lat="43.5685379" lon="10.8245155"><ele>136.0</ele><time>2026-04-11T14:54:57.882Z</time></trkpt><trkpt lat="43.5685196" lon="10.8243484"><ele>136.0</ele><time>2026-04-11T14:54:58.881Z</time></trkpt><trkpt lat="43.5684881" lon="10.8241588"><ele>136.0</ele><time>2026-04-11T14:54:59.882Z</time></trkpt><trkpt lat="43.568463" lon="10.8239716"><ele>136.0</ele><time>2026-04-11T14:55:00.881Z</time></trkpt><trkpt lat="43.5684447" lon="10.8237975"><ele>134.75</ele><time>2026-04-11T14:55:01.888Z</time></trkpt><trkpt lat="43.5684303" lon="10.8236269"><ele>133.5</ele><time>2026-04-11T14:55:02.883Z</time></trkpt><trkpt lat="43.5684271" lon="10.823456"><ele>132.25</ele><time>2026-04-11T14:55:03.887Z</time></trkpt><trkpt lat="43.5684133" lon="10.823274"><ele>131.0</ele><time>2026-04-11T14:55:04.885Z</time></trkpt><trkpt lat="43.5684075" lon="10.8230974"><ele>130.75</ele><time>2026-04-11T14:55:05.882Z</time></trkpt><trkpt lat="43.568393" lon="10.8229176"><ele>130.5</ele><time>2026-04-11T14:55:06.876Z</time></trkpt><trkpt lat="43.5683757" lon="10.8227354"><ele>130.25</ele><time>2026-04-11T14:55:07.887Z</time></trkpt><trkpt lat="43.5683588" lon="10.8225585"><ele>130.0</ele><time>2026-04-11T14:55:08.88Z</time></trkpt><trkpt lat="43.568346" lon="10.8224013"><ele>130.0</ele><time>2026-04-11T14:55:09.875Z</time></trkpt><trkpt lat="43.5683191" lon="10.8222512"><ele>130.0</ele><time>2026-04-11T14:55:10.868Z</time></trkpt><trkpt lat="43.5682874" lon="10.8221077"><ele>130.0</ele><time>2026-04-11T14:55:11.871Z</time></trkpt><trkpt lat="43.56823" lon="10.8219818"><ele>130.0</ele><time>2026-04-11T14:55:12.867Z</time></trkpt><trkpt lat="43.5681619" lon="10.8218968"><ele>130.0</ele><time>2026-04-11T14:55:13.86Z</time></trkpt><trkpt lat="43.5680777" lon="10.8218312"><ele>129.0</ele><time>2026-04-11T14:55:14.871Z</time></trkpt><trkpt lat="43.5679805" lon="10.8218059"><ele>128.0</ele><time>2026-04-11T14:55:15.877Z</time></trkpt><trkpt lat="43.5678595" lon="10.8217829"><ele>127.0</ele><time>2026-04-11T14:55:16.87Z</time></trkpt><trkpt lat="43.5677346" lon="10.8217705"><ele>126.0</ele><time>2026-04-11T14:55:17.893Z</time></trkpt><trkpt lat="43.5675996" lon="10.8217543"><ele>126.0</ele><time>2026-04-11T14:55:18.898Z</time></trkpt><trkpt lat="43.567452" lon="10.8217227"><ele>126.0</ele><time>2026-04-11T14:55:20.965Z</time></trkpt><trkpt lat="43.5673077" lon="10.821689"><ele>126.0</ele><time>2026-04-11T14:55:21.967Z</time></trkpt><trkpt lat="43.5671662" lon="10.821651"><ele>126.0</ele><time>2026-04-11T14:55:22.966Z</time></trkpt><trkpt lat="43.5670245" lon="10.8216099"><ele>122.0</ele><time>2026-04-11T14:55:23.964Z</time></trkpt><trkpt lat="43.5668848" lon="10.8215668"><ele>118.0</ele><time>2026-04-11T14:55:24.963Z</time></trkpt><trkpt lat="43.5667462" lon="10.8215305"><ele>114.0</ele><time>2026-04-11T14:55:25.97Z</time></trkpt><trkpt lat="43.5666153" lon="10.8214931"><ele>110.0</ele><time>2026-04-11T14:55:26.969Z</time></trkpt><trkpt lat="43.5664705" lon="10.8214511"><ele>110.0</ele><time>2026-04-11T14:55:27.972Z</time></trkpt><trkpt lat="43.5663495" lon="10.8214086"><ele>110.0</ele><time>2026-04-11T14:55:28.961Z</time></trkpt><trkpt lat="43.5662252" lon="10.821367"><ele>110.0</ele><time>2026-04-11T14:55:29.975Z</time></trkpt><trkpt lat="43.5661059" lon="10.8213445"><ele>110.0</ele><time>2026-04-11T14:55:30.976Z</time></trkpt><trkpt lat="43.5659831" lon="10.8213229"><ele>107.25</ele><time>2026-04-11T14:55:31.972Z</time></trkpt><trkpt lat="43.5658496" lon="10.8212912"><ele>104.5</ele><time>2026-04-11T14:55:32.966Z</time></trkpt><trkpt lat="43.5657198" lon="10.8212489"><ele>101.75</ele><time>2026-04-11T14:55:33.963Z</time></trkpt><trkpt lat="43.5655943" lon="10.8211917"><ele>99.0</ele><time>2026-04-11T14:55:34.962Z</time></trkpt><trkpt lat="43.565476" lon="10.821114"><ele>99.0</ele><time>2026-04-11T14:55:35.946Z</time></trkpt><trkpt lat="43.5653582" lon="10.8210071"><ele>99.0</ele><time>2026-04-11T14:55:36.942Z</time></trkpt><trkpt lat="43.56523" lon="10.8208809"><ele>99.0</ele><time>2026-04-11T14:55:37.949Z</time></trkpt><trkpt lat="43.5650967" lon="10.8207405"><ele>99.0</ele><time>2026-04-11T14:55:38.952Z</time></trkpt><trkpt lat="43.5649687" lon="10.8205951"><ele>99.0</ele><time>2026-04-11T14:55:39.964Z</time></trkpt><trkpt lat="43.5648495" lon="10.8204483"><ele>99.0</ele><time>2026-04-11T14:55:40.968Z</time></trkpt><trkpt lat="43.564732" lon="10.8203111"><ele>99.0</ele><time>2026-04-11T14:55:41.967Z</time></trkpt><trkpt lat="43.5646186" lon="10.8201803"><ele>99.0</ele><time>2026-04-11T14:55:42.965Z</time></trkpt><trkpt lat="43.5645138" lon="10.8200468"><ele>99.0</ele><time>2026-04-11T14:55:43.982Z</time></trkpt><trkpt lat="43.5644171" lon="10.8198957"><ele>99.0</ele><time>2026-04-11T14:55:44.972Z</time></trkpt><trkpt lat="43.5643221" lon="10.8197277"><ele>96.0</ele><time>2026-04-11T14:55:45.954Z</time></trkpt><trkpt lat="43.564242" lon="10.8195547"><ele>93.0</ele><time>2026-04-11T14:55:46.954Z</time></trkpt><trkpt lat="43.5641626" lon="10.8193753"><ele>90.0</ele><time>2026-04-11T14:55:47.961Z</time></trkpt><trkpt lat="43.5640902" lon="10.8192073"><ele>87.0</ele><time>2026-04-11T14:55:48.977Z</time></trkpt><trkpt lat="43.564023" lon="10.8190505"><ele>87.0</ele><time>2026-04-11T14:55:49.969Z</time></trkpt><trkpt lat="43.5639653" lon="10.8189104"><ele>87.0</ele><time>2026-04-11T14:55:50.963Z</time></trkpt><trkpt lat="43.5639155" lon="10.8187902"><ele>87.0</ele><time>2026-04-11T14:55:51.966Z</time></trkpt><trkpt lat="43.563864" lon="10.8187074"><ele>87.0</ele><time>2026-04-11T14:55:52.964Z</time></trkpt><trkpt lat="43.563801" lon="10.8186441"><ele>87.0</ele><time>2026-04-11T14:55:53.959Z</time></trkpt><trkpt lat="43.5637403" lon="10.8186004"><ele>87.0</ele><time>2026-04-11T14:55:54.957Z</time></trkpt><trkpt lat="43.5636693" lon="10.8185778"><ele>85.39999999999999</ele><time>2026-04-11T14:55:55.954Z</time></trkpt><trkpt lat="43.5635897" lon="10.8185756"><ele>83.8</ele><time>2026-04-11T14:55:56.957Z</time></trkpt><trkpt lat="43.5635005" lon="10.8185949"><ele>82.2</ele><time>2026-04-11T14:55:57.963Z</time></trkpt><trkpt lat="43.5634053" lon="10.8186412"><ele>80.6</ele><time>2026-04-11T14:55:58.969Z</time></trkpt><trkpt lat="43.5633224" lon="10.8186972"><ele>79.0</ele><time>2026-04-11T14:55:59.951Z</time></trkpt><trkpt lat="43.5632023" lon="10.8187708"><ele>79.0</ele><time>2026-04-11T14:56:00.954Z</time></trkpt><trkpt lat="43.5630718" lon="10.8188551"><ele>79.0</ele><time>2026-04-11T14:56:01.951Z</time></trkpt><trkpt lat="43.5629232" lon="10.8189558"><ele>79.0</ele><time>2026-04-11T14:56:02.952Z</time></trkpt><trkpt lat="43.5627748" lon="10.8190551"><ele>80.25</ele><time>2026-04-11T14:56:03.963Z</time></trkpt><trkpt lat="43.5626385" lon="10.8191437"><ele>81.5</ele><time>2026-04-11T14:56:04.953Z</time></trkpt><trkpt lat="43.5625143" lon="10.819214"><ele>82.75</ele><time>2026-04-11T14:56:05.966Z</time></trkpt><trkpt lat="43.5623993" lon="10.8192508"><ele>84.0</ele><time>2026-04-11T14:56:06.963Z</time></trkpt><trkpt lat="43.562274" lon="10.819266"><ele>84.0</ele><time>2026-04-11T14:56:07.953Z</time></trkpt><trkpt lat="43.5621914" lon="10.8192292"><ele>84.0</ele><time>2026-04-11T14:56:08.949Z</time></trkpt><trkpt lat="43.5621045" lon="10.8191682"><ele>84.0</ele><time>2026-04-11T14:56:09.962Z</time></trkpt><trkpt lat="43.5620176" lon="10.8190619"><ele>84.0</ele><time>2026-04-11T14:56:10.956Z</time></trkpt><trkpt lat="43.5619268" lon="10.8189352"><ele>84.0</ele><time>2026-04-11T14:56:11.971Z</time></trkpt><trkpt lat="43.5618371" lon="10.8187715"><ele>83.33333333333333</ele><time>2026-04-11T14:56:12.973Z</time></trkpt><trkpt lat="43.5617276" lon="10.8185811"><ele>82.66666666666666</ele><time>2026-04-11T14:56:13.961Z</time></trkpt><trkpt lat="43.5616016" lon="10.8183655"><ele>82.0</ele><time>2026-04-11T14:56:14.959Z</time></trkpt><trkpt lat="43.561463" lon="10.8181261"><ele>82.0</ele><time>2026-04-11T14:56:15.96Z</time></trkpt><trkpt lat="43.5613355" lon="10.8179007"><ele>82.0</ele><time>2026-04-11T14:56:16.95Z</time></trkpt><trkpt lat="43.5612195" lon="10.817696"><ele>82.0</ele><time>2026-04-11T14:56:17.971Z</time></trkpt><trkpt lat="43.5611219" lon="10.8175159"><ele>82.75</ele><time>2026-04-11T14:56:18.961Z</time></trkpt><trkpt lat="43.5610338" lon="10.8173529"><ele>83.5</ele><time>2026-04-11T14:56:20.006Z</time></trkpt><trkpt lat="43.5609605" lon="10.8172113"><ele>84.25</ele><time>2026-04-11T14:56:20.964Z</time></trkpt><trkpt lat="43.5608757" lon="10.8170747"><ele>85.0</ele><time>2026-04-11T14:56:21.973Z</time></trkpt><trkpt lat="43.5607736" lon="10.816934"><ele>86.0</ele><time>2026-04-11T14:56:22.966Z</time></trkpt><trkpt lat="43.5606555" lon="10.8167915"><ele>87.0</ele><time>2026-04-11T14:56:23.957Z</time></trkpt><trkpt lat="43.560512" lon="10.8166504"><ele>88.0</ele><time>2026-04-11T14:56:24.962Z</time></trkpt><trkpt lat="43.5603614" lon="10.8165045"><ele>88.0</ele><time>2026-04-11T14:56:25.96Z</time></trkpt><trkpt lat="43.5602187" lon="10.816366"><ele>88.0</ele><time>2026-04-11T14:56:26.958Z</time></trkpt><trkpt lat="43.5600847" lon="10.8162334"><ele>88.0</ele><time>2026-04-11T14:56:27.978Z</time></trkpt><trkpt lat="43.5599648" lon="10.81612"><ele>88.0</ele><time>2026-04-11T14:56:28.971Z</time></trkpt><trkpt lat="43.5598571" lon="10.8160238"><ele>88.0</ele><time>2026-04-11T14:56:29.971Z</time></trkpt><trkpt lat="43.559761" lon="10.8159327"><ele>88.0</ele><time>2026-04-11T14:56:30.971Z</time></trkpt><trkpt lat="43.559673" lon="10.8158536"><ele>88.0</ele><time>2026-04-11T14:56:31.974Z</time></trkpt><trkpt lat="43.5595819" lon="10.8157878"><ele>86.25</ele><time>2026-04-11T14:56:32.967Z</time></trkpt><trkpt lat="43.559471" lon="10.8157298"><ele>84.5</ele><time>2026-04-11T14:56:33.957Z</time></trkpt><trkpt lat="43.5593473" lon="10.8156885"><ele>82.75</ele><time>2026-04-11T14:56:34.951Z</time></trkpt><trkpt lat="43.5592031" lon="10.8156519"><ele>81.0</ele><time>2026-04-11T14:56:35.947Z</time></trkpt><trkpt lat="43.5590316" lon="10.8156115"><ele>81.0</ele><time>2026-04-11T14:56:36.946Z</time></trkpt><trkpt lat="43.5588213" lon="10.8155605"><ele>81.0</ele><time>2026-04-11T14:56:37.953Z</time></trkpt><trkpt lat="43.5585718" lon="10.815496"><ele>80.5</ele><time>2026-04-11T14:56:38.973Z</time></trkpt><trkpt lat="43.5583387" lon="10.8154539"><ele>80.0</ele><time>2026-04-11T14:56:39.977Z</time></trkpt><trkpt lat="43.5581153" lon="10.8154095"><ele>80.0</ele><time>2026-04-11T14:56:40.964Z</time></trkpt><trkpt lat="43.557904" lon="10.8153607"><ele>80.0</ele><time>2026-04-11T14:56:41.965Z</time></trkpt><trkpt lat="43.5577051" lon="10.8153164"><ele>80.0</ele><time>2026-04-11T14:56:42.974Z</time></trkpt><trkpt lat="43.5575456" lon="10.8152699"><ele>80.25</ele><time>2026-04-11T14:56:43.975Z</time></trkpt><trkpt lat="43.5573973" lon="10.815229"><ele>80.5</ele><time>2026-04-11T14:56:44.976Z</time></trkpt><trkpt lat="43.5572589" lon="10.8151941"><ele>80.75</ele><time>2026-04-11T14:56:45.97Z</time></trkpt><trkpt lat="43.5571266" lon="10.815167"><ele>81.0</ele><time>2026-04-11T14:56:46.977Z</time></trkpt><trkpt lat="43.5569863" lon="10.8151794"><ele>81.0</ele><time>2026-04-11T14:56:47.972Z</time></trkpt><trkpt lat="43.5568459" lon="10.815197"><ele>81.0</ele><time>2026-04-11T14:56:48.96Z</time></trkpt><trkpt lat="43.5566969" lon="10.8152297"><ele>81.0</ele><time>2026-04-11T14:56:49.967Z</time></trkpt><trkpt lat="43.5565354" lon="10.8152826"><ele>81.0</ele><time>2026-04-11T14:56:50.956Z</time></trkpt><trkpt lat="43.5563585" lon="10.8153504"><ele>81.0</ele><time>2026-04-11T14:56:51.951Z</time></trkpt><trkpt lat="43.5561766" lon="10.815415"><ele>81.0</ele><time>2026-04-11T14:56:52.965Z</time></trkpt><trkpt lat="43.5560166" lon="10.8154724"><ele>83.0</ele><time>2026-04-11T14:56:53.958Z</time></trkpt><trkpt lat="43.5558776" lon="10.8155203"><ele>85.0</ele><time>2026-04-11T14:56:54.958Z</time></trkpt><trkpt lat="43.5557474" lon="10.8155695"><ele>87.0</ele><time>2026-04-11T14:56:55.953Z</time></trkpt><trkpt lat="43.5556501" lon="10.8156186"><ele>89.0</ele><time>2026-04-11T14:56:56.96Z</time></trkpt><trkpt lat="43.5555597" lon="10.8156773"><ele>89.0</ele><time>2026-04-11T14:56:57.971Z</time></trkpt><trkpt lat="43.5554702" lon="10.8157584"><ele>89.0</ele><time>2026-04-11T14:56:58.951Z</time></trkpt><trkpt lat="43.5553882" lon="10.8158601"><ele>89.0</ele><time>2026-04-11T14:56:59.944Z</time></trkpt><trkpt lat="43.5552952" lon="10.8159886"><ele>89.0</ele><time>2026-04-11T14:57:00.947Z</time></trkpt><trkpt lat="43.5552001" lon="10.8161457"><ele>93.0</ele><time>2026-04-11T14:57:01.944Z</time></trkpt><trkpt lat="43.5550089" lon="10.8165602"><ele>97.0</ele><time>2026-04-11T14:57:02.877Z</time></trkpt><trkpt lat="43.5548883" lon="10.816793"><ele>98.33333333333334</ele><time>2026-04-11T14:57:03.885Z</time></trkpt><trkpt lat="43.5547457" lon="10.8170241"><ele>99.66666666666666</ele><time>2026-04-11T14:57:04.876Z</time></trkpt><trkpt lat="43.5546133" lon="10.817274"><ele>101.0</ele><time>2026-04-11T14:57:05.884Z</time></trkpt><trkpt lat="43.5544802" lon="10.8175023"><ele>103.66666666666666</ele><time>2026-04-11T14:57:06.891Z</time></trkpt><trkpt lat="43.5543525" lon="10.8177192"><ele>106.33333333333334</ele><time>2026-04-11T14:57:07.892Z</time></trkpt><trkpt lat="43.5542274" lon="10.8179546"><ele>109.0</ele><time>2026-04-11T14:57:08.889Z</time></trkpt><trkpt lat="43.5541068" lon="10.8181714"><ele>109.0</ele><time>2026-04-11T14:57:09.89Z</time></trkpt><trkpt lat="43.5539752" lon="10.8184053"><ele>109.0</ele><time>2026-04-11T14:57:10.896Z</time></trkpt><trkpt lat="43.5538526" lon="10.8186327"><ele>109.0</ele><time>2026-04-11T14:57:11.896Z</time></trkpt><trkpt lat="43.5537323" lon="10.8188548"><ele>111.33333333333334</ele><time>2026-04-11T14:57:12.901Z</time></trkpt><trkpt lat="43.5536176" lon="10.819054"><ele>113.66666666666666</ele><time>2026-04-11T14:57:13.896Z</time></trkpt><trkpt lat="43.5535061" lon="10.8192505"><ele>116.0</ele><time>2026-04-11T14:57:14.907Z</time></trkpt><trkpt lat="43.5534005" lon="10.819453"><ele>118.0</ele><time>2026-04-11T14:57:15.933Z</time></trkpt><trkpt lat="43.5532764" lon="10.8196704"><ele>120.0</ele><time>2026-04-11T14:57:16.907Z</time></trkpt><trkpt lat="43.5531605" lon="10.8198794"><ele>122.0</ele><time>2026-04-11T14:57:17.912Z</time></trkpt><trkpt lat="43.5530457" lon="10.82009"><ele>123.33333333333333</ele><time>2026-04-11T14:57:18.908Z</time></trkpt><trkpt lat="43.5529262" lon="10.8202991"><ele>124.66666666666666</ele><time>2026-04-11T14:57:19.911Z</time></trkpt><trkpt lat="43.5528077" lon="10.8205192"><ele>126.0</ele><time>2026-04-11T14:57:20.918Z</time></trkpt><trkpt lat="43.5526866" lon="10.8207501"><ele>126.0</ele><time>2026-04-11T14:57:21.903Z</time></trkpt><trkpt lat="43.5525586" lon="10.8209784"><ele>126.0</ele><time>2026-04-11T14:57:22.905Z</time></trkpt><trkpt lat="43.5524429" lon="10.8211963"><ele>126.0</ele><time>2026-04-11T14:57:23.903Z</time></trkpt><trkpt lat="43.552334" lon="10.8213899"><ele>127.66666666666666</ele><time>2026-04-11T14:57:24.902Z</time></trkpt><trkpt lat="43.5522419" lon="10.8215853"><ele>129.33333333333331</ele><time>2026-04-11T14:57:25.896Z</time></trkpt><trkpt lat="43.5521544" lon="10.8217673"><ele>131.0</ele><time>2026-04-11T14:57:26.902Z</time></trkpt><trkpt lat="43.5520699" lon="10.8219072"><ele>132.5</ele><time>2026-04-11T14:57:27.91Z</time></trkpt><trkpt lat="43.5519794" lon="10.822044"><ele>134.0</ele><time>2026-04-11T14:57:28.904Z</time></trkpt><trkpt lat="43.5518844" lon="10.8221963"><ele>135.5</ele><time>2026-04-11T14:57:29.908Z</time></trkpt><trkpt lat="43.5517988" lon="10.8223554"><ele>137.0</ele><time>2026-04-11T14:57:30.909Z</time></trkpt><trkpt lat="43.5517076" lon="10.822536"><ele>139.0</ele><time>2026-04-11T14:57:31.908Z</time></trkpt><trkpt lat="43.5516271" lon="10.8226735"><ele>141.0</ele><time>2026-04-11T14:57:32.909Z</time></trkpt><trkpt lat="43.5515504" lon="10.8227921"><ele>143.0</ele><time>2026-04-11T14:57:33.898Z</time></trkpt><trkpt lat="43.5514685" lon="10.8228874"><ele>145.0</ele><time>2026-04-11T14:57:34.893Z</time></trkpt><trkpt lat="43.5513907" lon="10.8229376"><ele>147.0</ele><time>2026-04-11T14:57:35.896Z</time></trkpt><trkpt lat="43.5513103" lon="10.8229488"><ele>147.0</ele><time>2026-04-11T14:57:36.891Z</time></trkpt><trkpt lat="43.5512075" lon="10.8229602"><ele>147.0</ele><time>2026-04-11T14:57:37.891Z</time></trkpt><trkpt lat="43.5510942" lon="10.8229691"><ele>147.0</ele><time>2026-04-11T14:57:38.892Z</time></trkpt><trkpt lat="43.550962" lon="10.8229624"><ele>147.0</ele><time>2026-04-11T14:57:39.902Z</time></trkpt><trkpt lat="43.5508207" lon="10.822945"><ele>147.0</ele><time>2026-04-11T14:57:40.901Z</time></trkpt><trkpt lat="43.5506661" lon="10.8229071"><ele>147.0</ele><time>2026-04-11T14:57:41.901Z</time></trkpt><trkpt lat="43.5504872" lon="10.8228543"><ele>147.0</ele><time>2026-04-11T14:57:42.9Z</time></trkpt><trkpt lat="43.5502985" lon="10.8227854"><ele>148.0</ele><time>2026-04-11T14:57:43.901Z</time></trkpt><trkpt lat="43.5500717" lon="10.8227533"><ele>149.0</ele><time>2026-04-11T14:57:44.9Z</time></trkpt><trkpt lat="43.5498646" lon="10.8227078"><ele>150.0</ele><time>2026-04-11T14:57:45.902Z</time></trkpt><trkpt lat="43.5496844" lon="10.8226488"><ele>148.33333333333334</ele><time>2026-04-11T14:57:46.905Z</time></trkpt><trkpt lat="43.5495129" lon="10.8226011"><ele>146.66666666666669</ele><time>2026-04-11T14:57:47.899Z</time></trkpt><trkpt lat="43.5493595" lon="10.822562"><ele>145.0</ele><time>2026-04-11T14:57:48.912Z</time></trkpt><trkpt lat="43.5492087" lon="10.822532"><ele>145.0</ele><time>2026-04-11T14:57:49.905Z</time></trkpt><trkpt lat="43.5490743" lon="10.8224976"><ele>145.0</ele><time>2026-04-11T14:57:50.91Z</time></trkpt><trkpt lat="43.5489415" lon="10.8224627"><ele>145.0</ele><time>2026-04-11T14:57:51.943Z</time></trkpt><trkpt lat="43.5488111" lon="10.822409"><ele>145.0</ele><time>2026-04-11T14:57:52.907Z</time></trkpt><trkpt lat="43.5486828" lon="10.8223663"><ele>147.25</ele><time>2026-04-11T14:57:53.903Z</time></trkpt><trkpt lat="43.5485688" lon="10.8223062"><ele>149.5</ele><time>2026-04-11T14:57:54.901Z</time></trkpt><trkpt lat="43.548466" lon="10.8222268"><ele>151.75</ele><time>2026-04-11T14:57:55.896Z</time></trkpt><trkpt lat="43.5483651" lon="10.8221198"><ele>154.0</ele><time>2026-04-11T14:57:56.896Z</time></trkpt><trkpt lat="43.5482726" lon="10.8220016"><ele>154.0</ele><time>2026-04-11T14:57:57.915Z</time></trkpt><trkpt lat="43.5481778" lon="10.8218729"><ele>154.0</ele><time>2026-04-11T14:57:58.907Z</time></trkpt><trkpt lat="43.5480882" lon="10.8217371"><ele>154.0</ele><time>2026-04-11T14:57:59.9Z</time></trkpt><trkpt lat="43.5479997" lon="10.8216131"><ele>154.0</ele><time>2026-04-11T14:58:00.897Z</time></trkpt><trkpt lat="43.5479215" lon="10.8214826"><ele>152.0</ele><time>2026-04-11T14:58:01.908Z</time></trkpt><trkpt lat="43.5478503" lon="10.8213651"><ele>150.0</ele><time>2026-04-11T14:58:02.908Z</time></trkpt><trkpt lat="43.5477765" lon="10.8212605"><ele>148.0</ele><time>2026-04-11T14:58:03.911Z</time></trkpt><trkpt lat="43.5477041" lon="10.8211566"><ele>146.0</ele><time>2026-04-11T14:58:04.904Z</time></trkpt><trkpt lat="43.5476223" lon="10.8210599"><ele>144.0</ele><time>2026-04-11T14:58:05.91Z</time></trkpt><trkpt lat="43.5475413" lon="10.8209555"><ele>144.0</ele><time>2026-04-11T14:58:06.906Z</time></trkpt><trkpt lat="43.5474628" lon="10.8208449"><ele>144.0</ele><time>2026-04-11T14:58:07.906Z</time></trkpt><trkpt lat="43.5473868" lon="10.8207314"><ele>144.0</ele><time>2026-04-11T14:58:08.901Z</time></trkpt><trkpt lat="43.5473099" lon="10.8206226"><ele>144.0</ele><time>2026-04-11T14:58:09.912Z</time></trkpt><trkpt lat="43.547248" lon="10.8205289"><ele>144.0</ele><time>2026-04-11T14:58:10.892Z</time></trkpt><trkpt lat="43.5471903" lon="10.8204513"><ele>144.0</ele><time>2026-04-11T14:58:11.896Z</time></trkpt><trkpt lat="43.5471315" lon="10.8203915"><ele>144.0</ele><time>2026-04-11T14:58:12.892Z</time></trkpt><trkpt lat="43.5470327" lon="10.8203421"><ele>144.0</ele><time>2026-04-11T14:58:14.883Z</time></trkpt><trkpt lat="43.5469699" lon="10.820366"><ele>144.0</ele><time>2026-04-11T14:58:15.891Z</time></trkpt><trkpt lat="43.5469032" lon="10.8204264"><ele>144.0</ele><time>2026-04-11T14:58:16.894Z</time></trkpt><trkpt lat="43.5468534" lon="10.8205033"><ele>144.0</ele><time>2026-04-11T14:58:17.895Z</time></trkpt><trkpt lat="43.5468123" lon="10.8205955"><ele>141.0</ele><time>2026-04-11T14:58:18.896Z</time></trkpt><trkpt lat="43.5467813" lon="10.820704"><ele>138.0</ele><time>2026-04-11T14:58:19.899Z</time></trkpt><trkpt lat="43.5467619" lon="10.8208306"><ele>135.0</ele><time>2026-04-11T14:58:20.895Z</time></trkpt><trkpt lat="43.5467396" lon="10.8209616"><ele>132.0</ele><time>2026-04-11T14:58:21.895Z</time></trkpt><trkpt lat="43.5467062" lon="10.8211225"><ele>129.0</ele><time>2026-04-11T14:58:22.916Z</time></trkpt><trkpt lat="43.5466797" lon="10.8212831"><ele>128.5</ele><time>2026-04-11T14:58:23.9Z</time></trkpt><trkpt lat="43.5466484" lon="10.821445"><ele>128.0</ele><time>2026-04-11T14:58:24.893Z</time></trkpt><trkpt lat="43.5466162" lon="10.8215942"><ele>127.5</ele><time>2026-04-11T14:58:25.894Z</time></trkpt><trkpt lat="43.546586" lon="10.8217447"><ele>127.0</ele><time>2026-04-11T14:58:26.901Z</time></trkpt><trkpt lat="43.5465525" lon="10.8218928"><ele>126.39999999999999</ele><time>2026-04-11T14:58:27.917Z</time></trkpt><trkpt lat="43.5465221" lon="10.8220354"><ele>125.79999999999998</ele><time>2026-04-11T14:58:28.913Z</time></trkpt><trkpt lat="43.5464891" lon="10.8221735"><ele>125.2</ele><time>2026-04-11T14:58:29.91Z</time></trkpt><trkpt lat="43.5464541" lon="10.822311"><ele>124.6</ele><time>2026-04-11T14:58:30.896Z</time></trkpt><trkpt lat="43.5464238" lon="10.8224345"><ele>124.0</ele><time>2026-04-11T14:58:31.918Z</time></trkpt><trkpt lat="43.5464012" lon="10.8225499"><ele>123.6</ele><time>2026-04-11T14:58:32.903Z</time></trkpt><trkpt lat="43.5463774" lon="10.822666"><ele>123.2</ele><time>2026-04-11T14:58:33.914Z</time></trkpt><trkpt lat="43.5463598" lon="10.8227737"><ele>122.79999999999998</ele><time>2026-04-11T14:58:34.903Z</time></trkpt><trkpt lat="43.5462959" lon="10.8228999"><ele>122.39999999999999</ele><time>2026-04-11T14:58:36.897Z</time></trkpt><trkpt lat="43.5461795" lon="10.8229409"><ele>122.0</ele><time>2026-04-11T14:58:38.904Z</time></trkpt><trkpt lat="43.5461099" lon="10.8229212"><ele>119.6</ele><time>2026-04-11T14:58:39.909Z</time></trkpt><trkpt lat="43.546044" lon="10.8228696"><ele>117.19999999999999</ele><time>2026-04-11T14:58:40.921Z</time></trkpt><trkpt lat="43.5459786" lon="10.822774"><ele>114.8</ele><time>2026-04-11T14:58:41.9Z</time></trkpt><trkpt lat="43.5459089" lon="10.8226413"><ele>112.4</ele><time>2026-04-11T14:58:42.916Z</time></trkpt><trkpt lat="43.5458314" lon="10.8224694"><ele>110.0</ele><time>2026-04-11T14:58:43.914Z</time></trkpt><trkpt lat="43.54577" lon="10.8222898"><ele>110.0</ele><time>2026-04-11T14:58:44.911Z</time></trkpt><trkpt lat="43.5457184" lon="10.8221263"><ele>110.0</ele><time>2026-04-11T14:58:45.919Z</time></trkpt><trkpt lat="43.5456628" lon="10.8219519"><ele>110.0</ele><time>2026-04-11T14:58:46.916Z</time></trkpt><trkpt lat="43.54562" lon="10.8217733"><ele>110.0</ele><time>2026-04-11T14:58:47.903Z</time></trkpt><trkpt lat="43.5455898" lon="10.8215728"><ele>110.0</ele><time>2026-04-11T14:58:48.915Z</time></trkpt><trkpt lat="43.5455636" lon="10.8213836"><ele>110.0</ele><time>2026-04-11T14:58:49.912Z</time></trkpt><trkpt lat="43.5455231" lon="10.8211904"><ele>110.0</ele><time>2026-04-11T14:58:50.911Z</time></trkpt><trkpt lat="43.5454927" lon="10.8210403"><ele>110.0</ele><time>2026-04-11T14:58:51.917Z</time></trkpt><trkpt lat="43.5454619" lon="10.8208908"><ele>109.8</ele><time>2026-04-11T14:58:52.919Z</time></trkpt><trkpt lat="43.5454313" lon="10.8207493"><ele>109.6</ele><time>2026-04-11T14:58:53.934Z</time></trkpt><trkpt lat="43.5453988" lon="10.820618"><ele>109.4</ele><time>2026-04-11T14:58:54.912Z</time></trkpt><trkpt lat="43.5453569" lon="10.8204922"><ele>109.2</ele><time>2026-04-11T14:58:55.917Z</time></trkpt><trkpt lat="43.5453087" lon="10.8203863"><ele>109.0</ele><time>2026-04-11T14:58:56.909Z</time></trkpt><trkpt lat="43.5452532" lon="10.8202889"><ele>106.6</ele><time>2026-04-11T14:58:57.914Z</time></trkpt><trkpt lat="43.5451867" lon="10.8202001"><ele>104.2</ele><time>2026-04-11T14:58:58.909Z</time></trkpt><trkpt lat="43.5451135" lon="10.8201169"><ele>101.8</ele><time>2026-04-11T14:58:59.913Z</time></trkpt><trkpt lat="43.5450331" lon="10.8200356"><ele>99.39999999999999</ele><time>2026-04-11T14:59:00.91Z</time></trkpt><trkpt lat="43.5449516" lon="10.8199451"><ele>97.0</ele><time>2026-04-11T14:59:01.91Z</time></trkpt><trkpt lat="43.5448658" lon="10.8198346"><ele>97.0</ele><time>2026-04-11T14:59:02.912Z</time></trkpt><trkpt lat="43.5447984" lon="10.8197072"><ele>97.0</ele><time>2026-04-11T14:59:03.9Z</time></trkpt><trkpt lat="43.5447453" lon="10.8195741"><ele>97.0</ele><time>2026-04-11T14:59:04.899Z</time></trkpt><trkpt lat="43.5447073" lon="10.8194334"><ele>97.0</ele><time>2026-04-11T14:59:05.892Z</time></trkpt><trkpt lat="43.5446763" lon="10.8192788"><ele>98.0</ele><time>2026-04-11T14:59:06.902Z</time></trkpt><trkpt lat="43.5446486" lon="10.8190909"><ele>99.0</ele><time>2026-04-11T14:59:07.886Z</time></trkpt><trkpt lat="43.5446227" lon="10.8188624"><ele>100.0</ele><time>2026-04-11T14:59:08.899Z</time></trkpt><trkpt lat="43.5445865" lon="10.8185845"><ele>98.66666666666667</ele><time>2026-04-11T14:59:09.903Z</time></trkpt><trkpt lat="43.5445523" lon="10.8183445"><ele>97.33333333333334</ele><time>2026-04-11T14:59:11.988Z</time></trkpt><trkpt lat="43.5445232" lon="10.8181186"><ele>96.0</ele><time>2026-04-11T14:59:12.985Z</time></trkpt><trkpt lat="43.5444959" lon="10.8179046"><ele>92.75</ele><time>2026-04-11T14:59:13.98Z</time></trkpt><trkpt lat="43.5444752" lon="10.8177167"><ele>89.5</ele><time>2026-04-11T14:59:14.975Z</time></trkpt><trkpt lat="43.5444563" lon="10.8175574"><ele>86.25</ele><time>2026-04-11T14:59:15.98Z</time></trkpt><trkpt lat="43.5444393" lon="10.8174091"><ele>83.0</ele><time>2026-04-11T14:59:16.974Z</time></trkpt><trkpt lat="43.5444213" lon="10.8172747"><ele>83.0</ele><time>2026-04-11T14:59:17.966Z</time></trkpt><trkpt lat="43.5444007" lon="10.817155"><ele>83.0</ele><time>2026-04-11T14:59:18.974Z</time></trkpt><trkpt lat="43.5443705" lon="10.8170464"><ele>83.0</ele><time>2026-04-11T14:59:19.966Z</time></trkpt><trkpt lat="43.5443289" lon="10.8169547"><ele>83.0</ele><time>2026-04-11T14:59:20.956Z</time></trkpt><trkpt lat="43.5442765" lon="10.8168795"><ele>83.0</ele><time>2026-04-11T14:59:21.976Z</time></trkpt><trkpt lat="43.5442112" lon="10.8168237"><ele>83.0</ele><time>2026-04-11T14:59:22.973Z</time></trkpt><trkpt lat="43.5441316" lon="10.816778"><ele>83.0</ele><time>2026-04-11T14:59:23.969Z</time></trkpt><trkpt lat="43.5440568" lon="10.8167711"><ele>83.0</ele><time>2026-04-11T14:59:24.992Z</time></trkpt><trkpt lat="43.5439022" lon="10.8167939"><ele>83.0</ele><time>2026-04-11T14:59:26.958Z</time></trkpt><trkpt lat="43.5437837" lon="10.8168459"><ele>83.0</ele><time>2026-04-11T14:59:27.957Z</time></trkpt><trkpt lat="43.5436435" lon="10.8169138"><ele>82.0</ele><time>2026-04-11T14:59:28.965Z</time></trkpt><trkpt lat="43.5434953" lon="10.8169884"><ele>81.0</ele><time>2026-04-11T14:59:29.964Z</time></trkpt><trkpt lat="43.5433404" lon="10.8170626"><ele>80.0</ele><time>2026-04-11T14:59:30.971Z</time></trkpt><trkpt lat="43.5432011" lon="10.8171269"><ele>80.0</ele><time>2026-04-11T14:59:31.97Z</time></trkpt><trkpt lat="43.5430787" lon="10.8171841"><ele>80.0</ele><time>2026-04-11T14:59:32.969Z</time></trkpt><trkpt lat="43.5429816" lon="10.8172369"><ele>80.0</ele><time>2026-04-11T14:59:33.977Z</time></trkpt><trkpt lat="43.5428948" lon="10.8173098"><ele>80.0</ele><time>2026-04-11T14:59:34.981Z</time></trkpt><trkpt lat="43.5428164" lon="10.8174042"><ele>80.0</ele><time>2026-04-11T14:59:35.961Z</time></trkpt><trkpt lat="43.5427499" lon="10.8175225"><ele>84.0</ele><time>2026-04-11T14:59:36.97Z</time></trkpt><trkpt lat="43.5426629" lon="10.8178276"><ele>88.0</ele><time>2026-04-11T14:59:37.885Z</time></trkpt><trkpt lat="43.5426601" lon="10.8180052"><ele>92.0</ele><time>2026-04-11T14:59:38.897Z</time></trkpt><trkpt lat="43.5426471" lon="10.8182026"><ele>92.0</ele><time>2026-04-11T14:59:39.916Z</time></trkpt><trkpt lat="43.542635" lon="10.8184143"><ele>92.0</ele><time>2026-04-11T14:59:40.909Z</time></trkpt><trkpt lat="43.5426211" lon="10.8186473"><ele>92.0</ele><time>2026-04-11T14:59:41.92Z</time></trkpt><trkpt lat="43.5426084" lon="10.8188967"><ele>93.66666666666667</ele><time>2026-04-11T14:59:42.909Z</time></trkpt><trkpt lat="43.5425913" lon="10.8191329"><ele>95.33333333333334</ele><time>2026-04-11T14:59:43.911Z</time></trkpt><trkpt lat="43.5425707" lon="10.8193801"><ele>97.0</ele><time>2026-04-11T14:59:44.916Z</time></trkpt><trkpt lat="43.5425492" lon="10.8195907"><ele>98.33333333333334</ele><time>2026-04-11T14:59:45.916Z</time></trkpt><trkpt lat="43.5425249" lon="10.8198217"><ele>99.66666666666666</ele><time>2026-04-11T14:59:46.919Z</time></trkpt><trkpt lat="43.5424873" lon="10.820054"><ele>101.0</ele><time>2026-04-11T14:59:47.912Z</time></trkpt><trkpt lat="43.5424258" lon="10.8203196"><ele>102.0</ele><time>2026-04-11T14:59:48.912Z</time></trkpt><trkpt lat="43.5423662" lon="10.820561"><ele>103.0</ele><time>2026-04-11T14:59:49.905Z</time></trkpt><trkpt lat="43.5423173" lon="10.8207759"><ele>104.0</ele><time>2026-04-11T14:59:50.897Z</time></trkpt><trkpt lat="43.5422626" lon="10.820958"><ele>104.0</ele><time>2026-04-11T14:59:51.908Z</time></trkpt><trkpt lat="43.5421997" lon="10.8211239"><ele>104.0</ele><time>2026-04-11T14:59:52.905Z</time></trkpt><trkpt lat="43.5421153" lon="10.821298"><ele>104.0</ele><time>2026-04-11T14:59:53.896Z</time></trkpt><trkpt lat="43.5420171" lon="10.821463"><ele>104.0</ele><time>2026-04-11T14:59:54.908Z</time></trkpt><trkpt lat="43.5419249" lon="10.821617"><ele>107.2</ele><time>2026-04-11T14:59:55.87Z</time></trkpt><trkpt lat="43.5418782" lon="10.8217458"><ele>110.4</ele><time>2026-04-11T14:59:56.873Z</time></trkpt><trkpt lat="43.5418257" lon="10.8218806"><ele>113.6</ele><time>2026-04-11T14:59:57.893Z</time></trkpt><trkpt lat="43.5418159" lon="10.8220231"><ele>116.8</ele><time>2026-04-11T14:59:58.872Z</time></trkpt><trkpt lat="43.5417978" lon="10.8221768"><ele>120.0</ele><time>2026-04-11T14:59:59.876Z</time></trkpt><trkpt lat="43.5417949" lon="10.822342"><ele>120.4</ele><time>2026-04-11T15:00:00.886Z</time></trkpt><trkpt lat="43.5417821" lon="10.8224984"><ele>120.8</ele><time>2026-04-11T15:00:01.885Z</time></trkpt><trkpt lat="43.5417733" lon="10.8226551"><ele>121.19999999999999</ele><time>2026-04-11T15:00:02.878Z</time></trkpt><trkpt lat="43.5417597" lon="10.822792"><ele>121.6</ele><time>2026-04-11T15:00:03.889Z</time></trkpt><trkpt lat="43.5417364" lon="10.8229382"><ele>122.0</ele><time>2026-04-11T15:00:04.877Z</time></trkpt><trkpt lat="43.5417056" lon="10.8231011"><ele>123.0</ele><time>2026-04-11T15:00:05.88Z</time></trkpt><trkpt lat="43.5416547" lon="10.8232926"><ele>124.0</ele><time>2026-04-11T15:00:06.88Z</time></trkpt><trkpt lat="43.5415885" lon="10.8235006"><ele>125.0</ele><time>2026-04-11T15:00:07.882Z</time></trkpt><trkpt lat="43.54152" lon="10.8237414"><ele>125.0</ele><time>2026-04-11T15:00:08.893Z</time></trkpt><trkpt lat="43.5414531" lon="10.8239515"><ele>125.0</ele><time>2026-04-11T15:00:09.882Z</time></trkpt><trkpt lat="43.5413852" lon="10.8241544"><ele>125.0</ele><time>2026-04-11T15:00:10.887Z</time></trkpt><trkpt lat="43.541319" lon="10.8243619"><ele>124.0</ele><time>2026-04-11T15:00:11.883Z</time></trkpt><trkpt lat="43.5412459" lon="10.8245745"><ele>123.0</ele><time>2026-04-11T15:00:12.884Z</time></trkpt><trkpt lat="43.54117" lon="10.824799"><ele>122.0</ele><time>2026-04-11T15:00:13.889Z</time></trkpt><trkpt lat="43.5411128" lon="10.8250136"><ele>128.33333333333331</ele><time>2026-04-11T15:00:14.888Z</time></trkpt><trkpt lat="43.5410433" lon="10.8252111"><ele>134.66666666666666</ele><time>2026-04-11T15:00:15.888Z</time></trkpt><trkpt lat="43.5409925" lon="10.8254152"><ele>141.0</ele><time>2026-04-11T15:00:16.884Z</time></trkpt><trkpt lat="43.5409363" lon="10.8256508"><ele>141.0</ele><time>2026-04-11T15:00:17.887Z</time></trkpt><trkpt lat="43.5408717" lon="10.8258841"><ele>141.0</ele><time>2026-04-11T15:00:18.889Z</time></trkpt><trkpt lat="43.5408149" lon="10.8260939"><ele>141.0</ele><time>2026-04-11T15:00:19.883Z</time></trkpt><trkpt lat="43.5407721" lon="10.8262759"><ele>141.0</ele><time>2026-04-11T15:00:20.876Z</time></trkpt><trkpt lat="43.5407287" lon="10.8264569"><ele>141.0</ele><time>2026-04-11T15:00:21.875Z</time></trkpt><trkpt lat="43.5406855" lon="10.8266082"><ele>141.0</ele><time>2026-04-11T15:00:22.898Z</time></trkpt><trkpt lat="43.5406339" lon="10.826777"><ele>141.0</ele><time>2026-04-11T15:00:23.886Z</time></trkpt><trkpt lat="43.5405798" lon="10.8269588"><ele>141.0</ele><time>2026-04-11T15:00:24.89Z</time></trkpt><trkpt lat="43.5405358" lon="10.8271395"><ele>141.0</ele><time>2026-04-11T15:00:25.885Z</time></trkpt><trkpt lat="43.5404898" lon="10.8272808"><ele>141.0</ele><time>2026-04-11T15:00:26.893Z</time></trkpt><trkpt lat="43.5404381" lon="10.8274116"><ele>141.0</ele><time>2026-04-11T15:00:27.891Z</time></trkpt><trkpt lat="43.540379" lon="10.8275327"><ele>143.0</ele><time>2026-04-11T15:00:28.895Z</time></trkpt><trkpt lat="43.5403132" lon="10.8276532"><ele>145.0</ele><time>2026-04-11T15:00:29.884Z</time></trkpt><trkpt lat="43.5402564" lon="10.8277467"><ele>147.0</ele><time>2026-04-11T15:00:30.889Z</time></trkpt><trkpt lat="43.5402" lon="10.8278414"><ele>149.0</ele><time>2026-04-11T15:00:31.894Z</time></trkpt><trkpt lat="43.5401521" lon="10.8279313"><ele>151.0</ele><time>2026-04-11T15:00:32.881Z</time></trkpt><trkpt lat="43.5400898" lon="10.8280498"><ele>151.0</ele><time>2026-04-11T15:00:34.882Z</time></trkpt><trkpt lat="43.540033" lon="10.8281003"><ele>151.0</ele><time>2026-04-11T15:00:36.9Z</time></trkpt><trkpt lat="43.5399684" lon="10.8280247"><ele>151.0</ele><time>2026-04-11T15:01:00.873Z</time></trkpt><trkpt lat="43.5399421" lon="10.8278799"><ele>151.0</ele><time>2026-04-11T15:01:02.875Z</time></trkpt><trkpt lat="43.5399333" lon="10.8277513"><ele>151.0</ele><time>2026-04-11T15:01:03.864Z</time></trkpt><trkpt lat="43.5399122" lon="10.8275811"><ele>151.0</ele><time>2026-04-11T15:01:04.862Z</time></trkpt><trkpt lat="43.5398998" lon="10.82741"><ele>151.0</ele><time>2026-04-11T15:01:05.867Z</time></trkpt><trkpt lat="43.5398718" lon="10.8272224"><ele>151.0</ele><time>2026-04-11T15:01:06.871Z</time></trkpt><trkpt lat="43.5398396" lon="10.8270354"><ele>151.0</ele><time>2026-04-11T15:01:07.876Z</time></trkpt><trkpt lat="43.5398097" lon="10.8268455"><ele>152.25</ele><time>2026-04-11T15:01:08.88Z</time></trkpt><trkpt lat="43.5397801" lon="10.826654"><ele>153.5</ele><time>2026-04-11T15:01:09.876Z</time></trkpt><trkpt lat="43.5397515" lon="10.8264688"><ele>154.75</ele><time>2026-04-11T15:01:10.879Z</time></trkpt><trkpt lat="43.5397217" lon="10.8262679"><ele>156.0</ele><time>2026-04-11T15:01:11.88Z</time></trkpt><trkpt lat="43.53971" lon="10.8261013"><ele>156.75</ele><time>2026-04-11T15:01:12.88Z</time></trkpt><trkpt lat="43.5396734" lon="10.8259043"><ele>157.5</ele><time>2026-04-11T15:01:13.883Z</time></trkpt><trkpt lat="43.5396406" lon="10.8257314"><ele>158.25</ele><time>2026-04-11T15:01:14.874Z</time></trkpt><trkpt lat="43.5396135" lon="10.8255644"><ele>159.0</ele><time>2026-04-11T15:01:15.879Z</time></trkpt><trkpt lat="43.5395925" lon="10.8254124"><ele>159.0</ele><time>2026-04-11T15:01:16.881Z</time></trkpt><trkpt lat="43.5395714" lon="10.8252609"><ele>159.0</ele><time>2026-04-11T15:01:17.885Z</time></trkpt><trkpt lat="43.5395523" lon="10.8251138"><ele>159.0</ele><time>2026-04-11T15:01:18.882Z</time></trkpt><trkpt lat="43.5395344" lon="10.8249536"><ele>159.0</ele><time>2026-04-11T15:01:19.879Z</time></trkpt><trkpt lat="43.5395138" lon="10.8248049"><ele>159.0</ele><time>2026-04-11T15:01:20.881Z</time></trkpt><trkpt lat="43.5394938" lon="10.824632"><ele>158.0</ele><time>2026-04-11T15:01:21.874Z</time></trkpt><trkpt lat="43.5394733" lon="10.8244579"><ele>157.0</ele><time>2026-04-11T15:01:22.885Z</time></trkpt><trkpt lat="43.5394487" lon="10.8242895"><ele>156.0</ele><time>2026-04-11T15:01:23.879Z</time></trkpt><trkpt lat="43.539424" lon="10.8241095"><ele>155.0</ele><time>2026-04-11T15:01:24.89Z</time></trkpt><trkpt lat="43.5394004" lon="10.8239316"><ele>157.25</ele><time>2026-04-11T15:01:25.887Z</time></trkpt><trkpt lat="43.5393775" lon="10.8237441"><ele>159.5</ele><time>2026-04-11T15:01:26.879Z</time></trkpt><trkpt lat="43.5393533" lon="10.8235403"><ele>161.75</ele><time>2026-04-11T15:01:27.882Z</time></trkpt><trkpt lat="43.5393224" lon="10.8233421"><ele>164.0</ele><time>2026-04-11T15:01:28.895Z</time></trkpt><trkpt lat="43.5392924" lon="10.8231428"><ele>165.66666666666666</ele><time>2026-04-11T15:01:29.884Z</time></trkpt><trkpt lat="43.5392587" lon="10.8229224"><ele>167.33333333333334</ele><time>2026-04-11T15:01:30.888Z</time></trkpt><trkpt lat="43.5392241" lon="10.8226796"><ele>169.0</ele><time>2026-04-11T15:01:31.883Z</time></trkpt><trkpt lat="43.5391778" lon="10.8224225"><ele>169.0</ele><time>2026-04-11T15:01:32.88Z</time></trkpt><trkpt lat="43.5391337" lon="10.8221693"><ele>169.0</ele><time>2026-04-11T15:01:33.882Z</time></trkpt><trkpt lat="43.5390884" lon="10.8219028"><ele>169.0</ele><time>2026-04-11T15:01:34.908Z</time></trkpt><trkpt lat="43.5390607" lon="10.821651"><ele>168.33333333333334</ele><time>2026-04-11T15:01:36.959Z</time></trkpt><trkpt lat="43.5390436" lon="10.821418"><ele>167.66666666666666</ele><time>2026-04-11T15:01:37.961Z</time></trkpt><trkpt lat="43.5390352" lon="10.821197"><ele>167.0</ele><time>2026-04-11T15:01:38.961Z</time></trkpt><trkpt lat="43.5390323" lon="10.8209913"><ele>166.75</ele><time>2026-04-11T15:01:39.96Z</time></trkpt><trkpt lat="43.5390292" lon="10.8207963"><ele>166.5</ele><time>2026-04-11T15:01:40.968Z</time></trkpt><trkpt lat="43.5390269" lon="10.8206025"><ele>166.25</ele><time>2026-04-11T15:01:41.96Z</time></trkpt><trkpt lat="43.5390297" lon="10.8204051"><ele>166.0</ele><time>2026-04-11T15:01:42.957Z</time></trkpt><trkpt lat="43.539003" lon="10.820204"><ele>165.33333333333334</ele><time>2026-04-11T15:01:43.956Z</time></trkpt><trkpt lat="43.5389541" lon="10.8200002"><ele>164.66666666666666</ele><time>2026-04-11T15:01:44.945Z</time></trkpt><trkpt lat="43.5388943" lon="10.8197899"><ele>164.0</ele><time>2026-04-11T15:01:45.951Z</time></trkpt><trkpt lat="43.5388357" lon="10.8195727"><ele>164.0</ele><time>2026-04-11T15:01:46.957Z</time></trkpt><trkpt lat="43.5387674" lon="10.819321"><ele>164.0</ele><time>2026-04-11T15:01:47.952Z</time></trkpt><trkpt lat="43.5387098" lon="10.819091"><ele>164.0</ele><time>2026-04-11T15:01:48.964Z</time></trkpt><trkpt lat="43.538663" lon="10.8188541"><ele>165.75</ele><time>2026-04-11T15:01:49.963Z</time></trkpt><trkpt lat="43.5386339" lon="10.8186492"><ele>167.5</ele><time>2026-04-11T15:01:50.95Z</time></trkpt><trkpt lat="43.5385956" lon="10.818454"><ele>169.25</ele><time>2026-04-11T15:01:51.946Z</time></trkpt><trkpt lat="43.5385409" lon="10.8182724"><ele>171.0</ele><time>2026-04-11T15:01:52.956Z</time></trkpt><trkpt lat="43.5384677" lon="10.8180962"><ele>171.0</ele><time>2026-04-11T15:01:53.938Z</time></trkpt><trkpt lat="43.5383855" lon="10.8179083"><ele>171.0</ele><time>2026-04-11T15:01:54.947Z</time></trkpt><trkpt lat="43.5382942" lon="10.8177136"><ele>171.0</ele><time>2026-04-11T15:01:55.943Z</time></trkpt><trkpt lat="43.5381975" lon="10.8174947"><ele>167.33333333333334</ele><time>2026-04-11T15:01:56.949Z</time></trkpt><trkpt lat="43.5380996" lon="10.8172795"><ele>163.66666666666669</ele><time>2026-04-11T15:01:57.966Z</time></trkpt><trkpt lat="43.5380046" lon="10.8170866"><ele>160.0</ele><time>2026-04-11T15:01:58.957Z</time></trkpt><trkpt lat="43.5379226" lon="10.8169123"><ele>162.5</ele><time>2026-04-11T15:01:59.97Z</time></trkpt><trkpt lat="43.5378565" lon="10.8167568"><ele>165.0</ele><time>2026-04-11T15:02:00.964Z</time></trkpt><trkpt lat="43.5377937" lon="10.8166087"><ele>167.5</ele><time>2026-04-11T15:02:01.963Z</time></trkpt><trkpt lat="43.5377335" lon="10.8164641"><ele>170.0</ele><time>2026-04-11T15:02:02.958Z</time></trkpt><trkpt lat="43.5376711" lon="10.8163167"><ele>170.0</ele><time>2026-04-11T15:02:03.953Z</time></trkpt><trkpt lat="43.5376095" lon="10.8161641"><ele>170.0</ele><time>2026-04-11T15:02:04.956Z</time></trkpt><trkpt lat="43.5375534" lon="10.8159966"><ele>170.0</ele><time>2026-04-11T15:02:05.958Z</time></trkpt><trkpt lat="43.5375015" lon="10.815814"><ele>170.0</ele><time>2026-04-11T15:02:06.947Z</time></trkpt><trkpt lat="43.5374444" lon="10.8156255"><ele>167.33333333333331</ele><time>2026-04-11T15:02:07.95Z</time></trkpt><trkpt lat="43.5373859" lon="10.8154236"><ele>164.66666666666666</ele><time>2026-04-11T15:02:08.953Z</time></trkpt><trkpt lat="43.537325" lon="10.8152125"><ele>162.0</ele><time>2026-04-11T15:02:09.951Z</time></trkpt><trkpt lat="43.5372633" lon="10.8149982"><ele>161.33333333333334</ele><time>2026-04-11T15:02:10.96Z</time></trkpt><trkpt lat="43.5372077" lon="10.8147889"><ele>160.66666666666669</ele><time>2026-04-11T15:02:11.954Z</time></trkpt><trkpt lat="43.5371686" lon="10.8145857"><ele>160.0</ele><time>2026-04-11T15:02:12.955Z</time></trkpt><trkpt lat="43.5371516" lon="10.8143987"><ele>161.75</ele><time>2026-04-11T15:02:13.957Z</time></trkpt><trkpt lat="43.537162" lon="10.8142267"><ele>163.5</ele><time>2026-04-11T15:02:14.936Z</time></trkpt><trkpt lat="43.5372112" lon="10.8140667"><ele>165.25</ele><time>2026-04-11T15:02:15.937Z</time></trkpt><trkpt lat="43.5372882" lon="10.8138975"><ele>167.0</ele><time>2026-04-11T15:02:16.932Z</time></trkpt><trkpt lat="43.5373767" lon="10.8137363"><ele>167.0</ele><time>2026-04-11T15:02:17.928Z</time></trkpt><trkpt lat="43.5374677" lon="10.8135412"><ele>167.0</ele><time>2026-04-11T15:02:18.941Z</time></trkpt><trkpt lat="43.5375048" lon="10.8134129"><ele>167.0</ele><time>2026-04-11T15:02:19.934Z</time></trkpt><trkpt lat="43.5375469" lon="10.8132066"><ele>167.0</ele><time>2026-04-11T15:02:20.931Z</time></trkpt><trkpt lat="43.5375193" lon="10.8130746"><ele>169.33333333333331</ele><time>2026-04-11T15:02:21.931Z</time></trkpt><trkpt lat="43.5374595" lon="10.8129337"><ele>171.66666666666666</ele><time>2026-04-11T15:02:22.931Z</time></trkpt><trkpt lat="43.5373598" lon="10.8128141"><ele>174.0</ele><time>2026-04-11T15:02:23.931Z</time></trkpt><trkpt lat="43.5371443" lon="10.8125827"><ele>174.33333333333334</ele><time>2026-04-11T15:02:24.865Z</time></trkpt><trkpt lat="43.5370327" lon="10.8124514"><ele>174.66666666666669</ele><time>2026-04-11T15:02:25.856Z</time></trkpt><trkpt lat="43.5368923" lon="10.8122906"><ele>175.0</ele><time>2026-04-11T15:02:26.87Z</time></trkpt><trkpt lat="43.5368001" lon="10.8121214"><ele>175.0</ele><time>2026-04-11T15:02:27.871Z</time></trkpt><trkpt lat="43.536713" lon="10.8119684"><ele>175.0</ele><time>2026-04-11T15:02:28.873Z</time></trkpt><trkpt lat="43.5366199" lon="10.8118138"><ele>175.0</ele><time>2026-04-11T15:02:29.876Z</time></trkpt><trkpt lat="43.5365301" lon="10.8116596"><ele>175.0</ele><time>2026-04-11T15:02:30.879Z</time></trkpt><trkpt lat="43.5364643" lon="10.8114864"><ele>173.5</ele><time>2026-04-11T15:02:31.876Z</time></trkpt><trkpt lat="43.536428" lon="10.8113005"><ele>172.0</ele><time>2026-04-11T15:02:32.869Z</time></trkpt><trkpt lat="43.5363993" lon="10.8111134"><ele>170.5</ele><time>2026-04-11T15:02:33.871Z</time></trkpt><trkpt lat="43.5363977" lon="10.8108863"><ele>169.0</ele><time>2026-04-11T15:02:34.86Z</time></trkpt><trkpt lat="43.5364147" lon="10.810672"><ele>168.5</ele><time>2026-04-11T15:02:35.867Z</time></trkpt><trkpt lat="43.5364114" lon="10.8104651"><ele>168.0</ele><time>2026-04-11T15:02:36.862Z</time></trkpt><trkpt lat="43.5364057" lon="10.8102833"><ele>167.5</ele><time>2026-04-11T15:02:37.869Z</time></trkpt><trkpt lat="43.536373" lon="10.8101298"><ele>167.0</ele><time>2026-04-11T15:02:38.867Z</time></trkpt><trkpt lat="43.5363056" lon="10.8099705"><ele>167.75</ele><time>2026-04-11T15:02:39.877Z</time></trkpt><trkpt lat="43.5362176" lon="10.8098563"><ele>168.5</ele><time>2026-04-11T15:02:40.871Z</time></trkpt><trkpt lat="43.5361184" lon="10.8097019"><ele>169.25</ele><time>2026-04-11T15:02:41.863Z</time></trkpt><trkpt lat="43.5360422" lon="10.8095079"><ele>170.0</ele><time>2026-04-11T15:02:42.858Z</time></trkpt><trkpt lat="43.5359961" lon="10.8092876"><ele>168.0</ele><time>2026-04-11T15:02:43.87Z</time></trkpt><trkpt lat="43.5359696" lon="10.8090663"><ele>166.0</ele><time>2026-04-11T15:02:44.871Z</time></trkpt><trkpt lat="43.5359736" lon="10.8088691"><ele>164.0</ele><time>2026-04-11T15:02:45.866Z</time></trkpt><trkpt lat="43.5359934" lon="10.8086496"><ele>163.0</ele><time>2026-04-11T15:02:46.874Z</time></trkpt><trkpt lat="43.5360346" lon="10.8084387"><ele>162.0</ele><time>2026-04-11T15:02:47.868Z</time></trkpt><trkpt lat="43.5360628" lon="10.8082295"><ele>161.0</ele><time>2026-04-11T15:02:48.872Z</time></trkpt><trkpt lat="43.5360986" lon="10.8080345"><ele>161.0</ele><time>2026-04-11T15:02:49.874Z</time></trkpt><trkpt lat="43.53612" lon="10.8078168"><ele>161.0</ele><time>2026-04-11T15:02:50.871Z</time></trkpt><trkpt lat="43.5361283" lon="10.8076059"><ele>161.0</ele><time>2026-04-11T15:02:51.868Z</time></trkpt><trkpt lat="43.5361108" lon="10.8073818"><ele>161.66666666666666</ele><time>2026-04-11T15:02:52.886Z</time></trkpt><trkpt lat="43.5360892" lon="10.8071598"><ele>162.33333333333334</ele><time>2026-04-11T15:02:53.871Z</time></trkpt><trkpt lat="43.5360658" lon="10.8069125"><ele>163.0</ele><time>2026-04-11T15:02:54.884Z</time></trkpt><trkpt lat="43.5360313" lon="10.8066865"><ele>163.25</ele><time>2026-04-11T15:02:55.878Z</time></trkpt><trkpt lat="43.5360012" lon="10.8065006"><ele>163.5</ele><time>2026-04-11T15:02:56.881Z</time></trkpt><trkpt lat="43.5359766" lon="10.8063074"><ele>163.75</ele><time>2026-04-11T15:02:57.889Z</time></trkpt><trkpt lat="43.5359807" lon="10.8060947"><ele>164.0</ele><time>2026-04-11T15:02:58.877Z</time></trkpt><trkpt lat="43.5360322" lon="10.8059053"><ele>164.0</ele><time>2026-04-11T15:02:59.873Z</time></trkpt><trkpt lat="43.5360475" lon="10.8057354"><ele>164.0</ele><time>2026-04-11T15:03:00.872Z</time></trkpt><trkpt lat="43.5360753" lon="10.8055405"><ele>164.0</ele><time>2026-04-11T15:03:01.878Z</time></trkpt><trkpt lat="43.5361454" lon="10.8053548"><ele>164.0</ele><time>2026-04-11T15:03:02.877Z</time></trkpt><trkpt lat="43.5362294" lon="10.8051696"><ele>164.0</ele><time>2026-04-11T15:03:03.864Z</time></trkpt><trkpt lat="43.5363114" lon="10.8049781"><ele>164.0</ele><time>2026-04-11T15:03:04.877Z</time></trkpt><trkpt lat="43.5363824" lon="10.8047778"><ele>164.0</ele><time>2026-04-11T15:03:05.877Z</time></trkpt><trkpt lat="43.5364606" lon="10.8045615"><ele>164.0</ele><time>2026-04-11T15:03:06.88Z</time></trkpt><trkpt lat="43.5365215" lon="10.8043444"><ele>164.0</ele><time>2026-04-11T15:03:07.875Z</time></trkpt><trkpt lat="43.5365756" lon="10.8041243"><ele>164.0</ele><time>2026-04-11T15:03:08.878Z</time></trkpt><trkpt lat="43.5366164" lon="10.8039161"><ele>162.0</ele><time>2026-04-11T15:03:09.877Z</time></trkpt><trkpt lat="43.5366499" lon="10.803701"><ele>160.0</ele><time>2026-04-11T15:03:10.882Z</time></trkpt><trkpt lat="43.5366777" lon="10.8034568"><ele>158.0</ele><time>2026-04-11T15:03:11.883Z</time></trkpt><trkpt lat="43.5366741" lon="10.8032046"><ele>157.33333333333331</ele><time>2026-04-11T15:03:12.89Z</time></trkpt><trkpt lat="43.5366901" lon="10.8029585"><ele>156.66666666666666</ele><time>2026-04-11T15:03:13.885Z</time></trkpt><trkpt lat="43.5367012" lon="10.8027113"><ele>156.0</ele><time>2026-04-11T15:03:14.892Z</time></trkpt><trkpt lat="43.5366996" lon="10.8024791"><ele>157.33333333333334</ele><time>2026-04-11T15:03:15.887Z</time></trkpt><trkpt lat="43.5367006" lon="10.8022583"><ele>158.66666666666669</ele><time>2026-04-11T15:03:16.881Z</time></trkpt><trkpt lat="43.5367435" lon="10.8020569"><ele>160.0</ele><time>2026-04-11T15:03:17.879Z</time></trkpt><trkpt lat="43.536795" lon="10.8018659"><ele>161.33333333333334</ele><time>2026-04-11T15:03:18.874Z</time></trkpt><trkpt lat="43.5368803" lon="10.8016671"><ele>162.66666666666666</ele><time>2026-04-11T15:03:19.876Z</time></trkpt><trkpt lat="43.5369624" lon="10.8014798"><ele>164.0</ele><time>2026-04-11T15:03:20.879Z</time></trkpt><trkpt lat="43.5370565" lon="10.8013252"><ele>164.0</ele><time>2026-04-11T15:03:21.874Z</time></trkpt><trkpt lat="43.5371849" lon="10.8012262"><ele>164.0</ele><time>2026-04-11T15:03:22.873Z</time></trkpt><trkpt lat="43.5373299" lon="10.8011107"><ele>164.0</ele><time>2026-04-11T15:03:23.883Z</time></trkpt><trkpt lat="43.5374493" lon="10.8010205"><ele>166.0</ele><time>2026-04-11T15:03:24.874Z</time></trkpt><trkpt lat="43.537567" lon="10.800891"><ele>168.0</ele><time>2026-04-11T15:03:25.875Z</time></trkpt><trkpt lat="43.5376732" lon="10.8007663"><ele>170.0</ele><time>2026-04-11T15:03:26.885Z</time></trkpt><trkpt lat="43.5377753" lon="10.8006181"><ele>172.0</ele><time>2026-04-11T15:03:27.878Z</time></trkpt><trkpt lat="43.537869" lon="10.8005041"><ele>170.5</ele><time>2026-04-11T15:03:28.884Z</time></trkpt><trkpt lat="43.5379589" lon="10.8003667"><ele>169.0</ele><time>2026-04-11T15:03:29.882Z</time></trkpt><trkpt lat="43.5380449" lon="10.8002184"><ele>167.5</ele><time>2026-04-11T15:03:30.883Z</time></trkpt><trkpt lat="43.5381137" lon="10.8000283"><ele>166.0</ele><time>2026-04-11T15:03:31.883Z</time></trkpt><trkpt lat="43.5381811" lon="10.7998526"><ele>166.0</ele><time>2026-04-11T15:03:32.893Z</time></trkpt><trkpt lat="43.5382499" lon="10.799654"><ele>166.0</ele><time>2026-04-11T15:03:33.886Z</time></trkpt><trkpt lat="43.538323" lon="10.7994925"><ele>166.0</ele><time>2026-04-11T15:03:34.883Z</time></trkpt><trkpt lat="43.5383975" lon="10.7993224"><ele>166.0</ele><time>2026-04-11T15:03:35.884Z</time></trkpt><trkpt lat="43.5384635" lon="10.7991528"><ele>165.0</ele><time>2026-04-11T15:03:36.882Z</time></trkpt><trkpt lat="43.5385145" lon="10.7989841"><ele>164.0</ele><time>2026-04-11T15:03:37.876Z</time></trkpt><trkpt lat="43.5385343" lon="10.7988043"><ele>163.0</ele><time>2026-04-11T15:03:38.881Z</time></trkpt><trkpt lat="43.538536" lon="10.798605"><ele>162.0</ele><time>2026-04-11T15:03:39.869Z</time></trkpt><trkpt lat="43.5385144" lon="10.79838"><ele>161.33333333333334</ele><time>2026-04-11T15:03:40.869Z</time></trkpt><trkpt lat="43.5384683" lon="10.7981441"><ele>160.66666666666669</ele><time>2026-04-11T15:03:41.877Z</time></trkpt><trkpt lat="43.5384281" lon="10.7978848"><ele>160.0</ele><time>2026-04-11T15:03:42.883Z</time></trkpt><trkpt lat="43.5383864" lon="10.797605"><ele>160.0</ele><time>2026-04-11T15:03:43.888Z</time></trkpt><trkpt lat="43.5383428" lon="10.7973403"><ele>160.0</ele><time>2026-04-11T15:03:44.883Z</time></trkpt><trkpt lat="43.5383043" lon="10.7970936"><ele>160.0</ele><time>2026-04-11T15:03:45.879Z</time></trkpt><trkpt lat="43.5382341" lon="10.7968477"><ele>162.0</ele><time>2026-04-11T15:03:46.877Z</time></trkpt><trkpt lat="43.5381544" lon="10.7966298"><ele>164.0</ele><time>2026-04-11T15:03:47.869Z</time></trkpt><trkpt lat="43.538091" lon="10.7964612"><ele>166.0</ele><time>2026-04-11T15:03:48.857Z</time></trkpt><trkpt lat="43.5380647" lon="10.7962975"><ele>168.0</ele><time>2026-04-11T15:03:49.861Z</time></trkpt><trkpt lat="43.5380723" lon="10.7961538"><ele>168.0</ele><time>2026-04-11T15:03:50.85Z</time></trkpt><trkpt lat="43.5380976" lon="10.796015"><ele>168.0</ele><time>2026-04-11T15:03:51.857Z</time></trkpt><trkpt lat="43.5381631" lon="10.7958648"><ele>168.0</ele><time>2026-04-11T15:03:52.859Z</time></trkpt><trkpt lat="43.5382278" lon="10.7957174"><ele>168.0</ele><time>2026-04-11T15:03:53.854Z</time></trkpt><trkpt lat="43.5382823" lon="10.7955789"><ele>169.4</ele><time>2026-04-11T15:03:54.854Z</time></trkpt><trkpt lat="43.5383441" lon="10.7954661"><ele>170.8</ele><time>2026-04-11T15:03:55.851Z</time></trkpt><trkpt lat="43.5384145" lon="10.7953926"><ele>172.2</ele><time>2026-04-11T15:03:56.846Z</time></trkpt><trkpt lat="43.5384959" lon="10.795334"><ele>173.6</ele><time>2026-04-11T15:03:57.856Z</time></trkpt><trkpt lat="43.5385876" lon="10.795291"><ele>175.0</ele><time>2026-04-11T15:03:58.848Z</time></trkpt><trkpt lat="43.5386822" lon="10.7952266"><ele>175.66666666666669</ele><time>2026-04-11T15:03:59.844Z</time></trkpt><trkpt lat="43.5387705" lon="10.7951462"><ele>176.33333333333334</ele><time>2026-04-11T15:04:00.853Z</time></trkpt><trkpt lat="43.5388379" lon="10.7950558"><ele>177.0</ele><time>2026-04-11T15:04:01.846Z</time></trkpt><trkpt lat="43.53889" lon="10.7949686"><ele>177.66666666666666</ele><time>2026-04-11T15:04:02.848Z</time></trkpt><trkpt lat="43.5389231" lon="10.7948904"><ele>178.33333333333331</ele><time>2026-04-11T15:04:03.868Z</time></trkpt><trkpt lat="43.53894" lon="10.794801"><ele>179.0</ele><time>2026-04-11T15:04:04.858Z</time></trkpt><trkpt lat="43.5389443" lon="10.7947109"><ele>179.00000000000003</ele><time>2026-04-11T15:04:05.867Z</time></trkpt><trkpt lat="43.538951" lon="10.7946099"><ele>179.0</ele><time>2026-04-11T15:04:06.874Z</time></trkpt><trkpt lat="43.5389656" lon="10.7945193"><ele>179.0</ele><time>2026-04-11T15:04:07.875Z</time></trkpt><trkpt lat="43.5389788" lon="10.7944274"><ele>179.0</ele><time>2026-04-11T15:04:08.875Z</time></trkpt><trkpt lat="43.539004" lon="10.7943187"><ele>179.0</ele><time>2026-04-11T15:04:09.879Z</time></trkpt><trkpt lat="43.5390319" lon="10.7942117"><ele>179.00000000000003</ele><time>2026-04-11T15:04:10.877Z</time></trkpt><trkpt lat="43.5390656" lon="10.7941226"><ele>179.0</ele><time>2026-04-11T15:04:11.872Z</time></trkpt><trkpt lat="43.5391191" lon="10.7940464"><ele>179.16666666666666</ele><time>2026-04-11T15:04:12.87Z</time></trkpt><trkpt lat="43.5391735" lon="10.7939691"><ele>179.33333333333331</ele><time>2026-04-11T15:04:13.867Z</time></trkpt><trkpt lat="43.5392403" lon="10.7939153"><ele>179.5</ele><time>2026-04-11T15:04:14.873Z</time></trkpt><trkpt lat="43.5393024" lon="10.7938527"><ele>179.66666666666666</ele><time>2026-04-11T15:04:15.876Z</time></trkpt><trkpt lat="43.5393602" lon="10.7937825"><ele>179.83333333333334</ele><time>2026-04-11T15:04:16.88Z</time></trkpt><trkpt lat="43.5394168" lon="10.7937157"><ele>180.0</ele><time>2026-04-11T15:04:17.879Z</time></trkpt><trkpt lat="43.5394738" lon="10.7936464"><ele>180.0</ele><time>2026-04-11T15:04:18.881Z</time></trkpt><trkpt lat="43.5395192" lon="10.7935843"><ele>180.0</ele><time>2026-04-11T15:04:19.88Z</time></trkpt><trkpt lat="43.5395781" lon="10.7934511"><ele>180.0</ele><time>2026-04-11T15:04:21.873Z</time></trkpt><trkpt lat="43.5395813" lon="10.7933316"><ele>180.0</ele><time>2026-04-11T15:04:23.861Z</time></trkpt><trkpt lat="43.5395654" lon="10.7932084"><ele>180.0</ele><time>2026-04-11T15:04:26.865Z</time></trkpt><trkpt lat="43.5395534" lon="10.7931101"><ele>180.0</ele><time>2026-04-11T15:04:29.865Z</time></trkpt><trkpt lat="43.5395704" lon="10.792991"><ele>180.16666666666666</ele><time>2026-04-11T15:04:32.863Z</time></trkpt><trkpt lat="43.5396401" lon="10.793053"><ele>180.33333333333334</ele><time>2026-04-11T15:18:41.866Z</time></trkpt><trkpt lat="43.5395359" lon="10.7930509"><ele>180.5</ele><time>2026-04-11T15:19:16.857Z</time></trkpt><trkpt lat="43.5395974" lon="10.793101"><ele>180.66666666666669</ele><time>2026-04-11T15:19:24.872Z</time></trkpt><trkpt lat="43.5395803" lon="10.7932034"><ele>180.83333333333334</ele><time>2026-04-11T15:19:54.847Z</time></trkpt><trkpt lat="43.5395184" lon="10.7932938"><ele>181.0</ele><time>2026-04-11T15:19:56.855Z</time></trkpt><trkpt lat="43.5395117" lon="10.7930967"><ele>181.0</ele><time>2026-04-11T15:20:02.847Z</time></trkpt><trkpt lat="43.5395422" lon="10.7930162"><ele>181.0</ele><time>2026-04-11T15:20:04.847Z</time></trkpt><trkpt lat="43.5396052" lon="10.7929976"><ele>181.0</ele><time>2026-04-11T15:20:37.872Z</time></trkpt><trkpt lat="43.5395618" lon="10.7928404"><ele>181.0</ele><time>2026-04-11T15:20:41.858Z</time></trkpt><trkpt lat="43.5395113" lon="10.7927523"><ele>181.0</ele><time>2026-04-11T15:20:42.855Z</time></trkpt><trkpt lat="43.5394362" lon="10.7926448"><ele>181.0</ele><time>2026-04-11T15:20:43.857Z</time></trkpt><trkpt lat="43.5393875" lon="10.7925318"><ele>181.0</ele><time>2026-04-11T15:20:44.852Z</time></trkpt><trkpt lat="43.5393235" lon="10.792411"><ele>181.0</ele><time>2026-04-11T15:20:45.857Z</time></trkpt><trkpt lat="43.539255" lon="10.7922814"><ele>181.0</ele><time>2026-04-11T15:20:46.859Z</time></trkpt><trkpt lat="43.5391901" lon="10.7921393"><ele>181.0</ele><time>2026-04-11T15:20:47.859Z</time></trkpt><trkpt lat="43.5391414" lon="10.7920069"><ele>181.0</ele><time>2026-04-11T15:20:48.861Z</time></trkpt><trkpt lat="43.5391047" lon="10.7918795"><ele>181.0</ele><time>2026-04-11T15:20:49.855Z</time></trkpt><trkpt lat="43.5390713" lon="10.7917677"><ele>181.0</ele><time>2026-04-11T15:20:50.854Z</time></trkpt><trkpt lat="43.5390362" lon="10.7916708"><ele>181.0</ele><time>2026-04-11T15:20:51.862Z</time></trkpt><trkpt lat="43.5389801" lon="10.7915812"><ele>181.0</ele><time>2026-04-11T15:20:52.865Z</time></trkpt><trkpt lat="43.5389206" lon="10.791483"><ele>181.0</ele><time>2026-04-11T15:20:53.861Z</time></trkpt><trkpt lat="43.5388374" lon="10.7913854"><ele>180.60000000000002</ele><time>2026-04-11T15:20:54.866Z</time></trkpt><trkpt lat="43.538751" lon="10.7912776"><ele>180.2</ele><time>2026-04-11T15:20:55.857Z</time></trkpt><trkpt lat="43.5386693" lon="10.7911692"><ele>179.8</ele><time>2026-04-11T15:20:56.859Z</time></trkpt><trkpt lat="43.5385975" lon="10.791065"><ele>179.39999999999998</ele><time>2026-04-11T15:20:57.862Z</time></trkpt><trkpt lat="43.5385409" lon="10.790984"><ele>179.0</ele><time>2026-04-11T15:20:58.854Z</time></trkpt><trkpt lat="43.5384944" lon="10.7908949"><ele>179.0</ele><time>2026-04-11T15:21:00.848Z</time></trkpt><trkpt lat="43.538441" lon="10.7908293"><ele>179.0</ele><time>2026-04-11T15:21:03.871Z</time></trkpt><trkpt lat="43.5383469" lon="10.7908055"><ele>179.0</ele><time>2026-04-11T15:21:05.869Z</time></trkpt><trkpt lat="43.5382825" lon="10.790776"><ele>179.0</ele><time>2026-04-11T15:21:06.861Z</time></trkpt><trkpt lat="43.5382099" lon="10.7907226"><ele>179.0</ele><time>2026-04-11T15:21:07.865Z</time></trkpt><trkpt lat="43.5381007" lon="10.7906701"><ele>179.0</ele><time>2026-04-11T15:21:08.863Z</time></trkpt><trkpt lat="43.53798" lon="10.7906189"><ele>178.5</ele><time>2026-04-11T15:21:09.865Z</time></trkpt><trkpt lat="43.5378365" lon="10.7905976"><ele>178.0</ele><time>2026-04-11T15:21:10.868Z</time></trkpt><trkpt lat="43.5376999" lon="10.7906"><ele>177.5</ele><time>2026-04-11T15:21:12.94Z</time></trkpt><trkpt lat="43.5375594" lon="10.7906292"><ele>177.0</ele><time>2026-04-11T15:21:13.934Z</time></trkpt><trkpt lat="43.5374205" lon="10.7906717"><ele>177.0</ele><time>2026-04-11T15:21:14.925Z</time></trkpt><trkpt lat="43.5372746" lon="10.7907217"><ele>177.0</ele><time>2026-04-11T15:21:15.937Z</time></trkpt><trkpt lat="43.5371437" lon="10.7907602"><ele>177.0</ele><time>2026-04-11T15:21:16.931Z</time></trkpt><trkpt lat="43.5370181" lon="10.7907827"><ele>177.0</ele><time>2026-04-11T15:21:17.934Z</time></trkpt><trkpt lat="43.536891" lon="10.79077"><ele>177.5</ele><time>2026-04-11T15:21:18.943Z</time></trkpt><trkpt lat="43.5367508" lon="10.7907574"><ele>178.0</ele><time>2026-04-11T15:21:19.948Z</time></trkpt><trkpt lat="43.5366174" lon="10.7907634"><ele>178.5</ele><time>2026-04-11T15:21:20.947Z</time></trkpt><trkpt lat="43.5364704" lon="10.7908102"><ele>179.0</ele><time>2026-04-11T15:21:21.951Z</time></trkpt><trkpt lat="43.5363508" lon="10.7908233"><ele>179.0</ele><time>2026-04-11T15:21:22.932Z</time></trkpt><trkpt lat="43.5362408" lon="10.790842"><ele>179.0</ele><time>2026-04-11T15:21:23.931Z</time></trkpt><trkpt lat="43.5361445" lon="10.7908646"><ele>179.0</ele><time>2026-04-11T15:21:24.938Z</time></trkpt><trkpt lat="43.5360514" lon="10.7908621"><ele>179.0</ele><time>2026-04-11T15:21:25.931Z</time></trkpt><trkpt lat="43.5359643" lon="10.7908345"><ele>179.0</ele><time>2026-04-11T15:21:26.945Z</time></trkpt><trkpt lat="43.5358812" lon="10.790788"><ele>178.75</ele><time>2026-04-11T15:21:27.939Z</time></trkpt><trkpt lat="43.535789" lon="10.7907251"><ele>178.5</ele><time>2026-04-11T15:21:28.922Z</time></trkpt><trkpt lat="43.535688" lon="10.7906486"><ele>178.25</ele><time>2026-04-11T15:21:29.922Z</time></trkpt><trkpt lat="43.5355728" lon="10.790561"><ele>178.0</ele><time>2026-04-11T15:21:30.923Z</time></trkpt><trkpt lat="43.5354462" lon="10.7904565"><ele>176.25</ele><time>2026-04-11T15:21:31.921Z</time></trkpt><trkpt lat="43.5353135" lon="10.7903554"><ele>174.5</ele><time>2026-04-11T15:21:32.945Z</time></trkpt><trkpt lat="43.5351925" lon="10.7902544"><ele>172.75</ele><time>2026-04-11T15:21:33.955Z</time></trkpt><trkpt lat="43.5350743" lon="10.7901609"><ele>171.0</ele><time>2026-04-11T15:21:34.957Z</time></trkpt><trkpt lat="43.5349647" lon="10.7900736"><ele>171.0</ele><time>2026-04-11T15:21:35.949Z</time></trkpt><trkpt lat="43.5348696" lon="10.7899977"><ele>171.0</ele><time>2026-04-11T15:21:36.951Z</time></trkpt><trkpt lat="43.5347866" lon="10.789938"><ele>171.0</ele><time>2026-04-11T15:21:37.949Z</time></trkpt><trkpt lat="43.534704" lon="10.7898792"><ele>171.0</ele><time>2026-04-11T15:21:38.952Z</time></trkpt><trkpt lat="43.5346261" lon="10.7898194"><ele>171.0</ele><time>2026-04-11T15:21:39.947Z</time></trkpt><trkpt lat="43.5345514" lon="10.7897641"><ele>169.8</ele><time>2026-04-11T15:21:40.945Z</time></trkpt><trkpt lat="43.5344724" lon="10.7897127"><ele>168.60000000000002</ele><time>2026-04-11T15:21:41.95Z</time></trkpt><trkpt lat="43.5343918" lon="10.7896665"><ele>167.4</ele><time>2026-04-11T15:21:42.955Z</time></trkpt><trkpt lat="43.534308" lon="10.7896176"><ele>166.2</ele><time>2026-04-11T15:21:43.953Z</time></trkpt><trkpt lat="43.5342197" lon="10.7895642"><ele>165.0</ele><time>2026-04-11T15:21:44.953Z</time></trkpt><trkpt lat="43.5341212" lon="10.7895042"><ele>165.0</ele><time>2026-04-11T15:21:45.956Z</time></trkpt><trkpt lat="43.5340243" lon="10.7894397"><ele>165.0</ele><time>2026-04-11T15:21:46.955Z</time></trkpt><trkpt lat="43.5339271" lon="10.7893769"><ele>165.0</ele><time>2026-04-11T15:21:47.962Z</time></trkpt><trkpt lat="43.5338325" lon="10.7893158"><ele>165.0</ele><time>2026-04-11T15:21:48.956Z</time></trkpt><trkpt lat="43.5337372" lon="10.789256"><ele>165.0</ele><time>2026-04-11T15:21:49.95Z</time></trkpt><trkpt lat="43.5336388" lon="10.7891989"><ele>164.25</ele><time>2026-04-11T15:21:50.951Z</time></trkpt><trkpt lat="43.5335383" lon="10.7891449"><ele>163.5</ele><time>2026-04-11T15:21:51.951Z</time></trkpt><trkpt lat="43.5334372" lon="10.7890869"><ele>162.75</ele><time>2026-04-11T15:21:52.954Z</time></trkpt><trkpt lat="43.5333301" lon="10.7890263"><ele>162.0</ele><time>2026-04-11T15:21:53.958Z</time></trkpt><trkpt lat="43.5332159" lon="10.7889591"><ele>162.0</ele><time>2026-04-11T15:21:54.958Z</time></trkpt><trkpt lat="43.533108" lon="10.7888943"><ele>162.0</ele><time>2026-04-11T15:21:55.956Z</time></trkpt><trkpt lat="43.5329983" lon="10.7888285"><ele>162.0</ele><time>2026-04-11T15:21:56.955Z</time></trkpt><trkpt lat="43.5328848" lon="10.7887627"><ele>162.0</ele><time>2026-04-11T15:21:57.959Z</time></trkpt><trkpt lat="43.5327724" lon="10.7886972"><ele>160.75</ele><time>2026-04-11T15:21:58.957Z</time></trkpt><trkpt lat="43.5326588" lon="10.7886313"><ele>159.5</ele><time>2026-04-11T15:21:59.957Z</time></trkpt><trkpt lat="43.5325453" lon="10.7885647"><ele>158.25</ele><time>2026-04-11T15:22:00.952Z</time></trkpt><trkpt lat="43.5324292" lon="10.7884975"><ele>157.0</ele><time>2026-04-11T15:22:01.957Z</time></trkpt><trkpt lat="43.532312" lon="10.7884312"><ele>157.0</ele><time>2026-04-11T15:22:02.952Z</time></trkpt><trkpt lat="43.5321975" lon="10.7883634"><ele>157.0</ele><time>2026-04-11T15:22:03.957Z</time></trkpt><trkpt lat="43.5320866" lon="10.7882979"><ele>157.0</ele><time>2026-04-11T15:22:04.95Z</time></trkpt><trkpt lat="43.5319847" lon="10.7882311"><ele>157.0</ele><time>2026-04-11T15:22:05.954Z</time></trkpt><trkpt lat="43.5318942" lon="10.788157"><ele>156.2</ele><time>2026-04-11T15:22:06.948Z</time></trkpt><trkpt lat="43.5318116" lon="10.7880725"><ele>155.39999999999998</ele><time>2026-04-11T15:22:07.949Z</time></trkpt><trkpt lat="43.531742" lon="10.7879742"><ele>154.60000000000002</ele><time>2026-04-11T15:22:08.937Z</time></trkpt><trkpt lat="43.5316784" lon="10.7878705"><ele>153.8</ele><time>2026-04-11T15:22:09.936Z</time></trkpt><trkpt lat="43.5316169" lon="10.7877644"><ele>153.0</ele><time>2026-04-11T15:22:10.939Z</time></trkpt><trkpt lat="43.5315569" lon="10.7876631"><ele>153.0</ele><time>2026-04-11T15:22:11.935Z</time></trkpt><trkpt lat="43.5314953" lon="10.7875568"><ele>153.0</ele><time>2026-04-11T15:22:12.956Z</time></trkpt><trkpt lat="43.5314329" lon="10.7874508"><ele>153.0</ele><time>2026-04-11T15:22:13.953Z</time></trkpt><trkpt lat="43.5313704" lon="10.7873414"><ele>153.0</ele><time>2026-04-11T15:22:14.947Z</time></trkpt><trkpt lat="43.5313063" lon="10.7872317"><ele>153.0</ele><time>2026-04-11T15:22:15.954Z</time></trkpt><trkpt lat="43.5312421" lon="10.7871178"><ele>150.6</ele><time>2026-04-11T15:22:16.958Z</time></trkpt><trkpt lat="43.5311754" lon="10.7870014"><ele>148.20000000000002</ele><time>2026-04-11T15:22:17.949Z</time></trkpt><trkpt lat="43.5311036" lon="10.7868846"><ele>145.8</ele><time>2026-04-11T15:22:18.949Z</time></trkpt><trkpt lat="43.5310289" lon="10.7867745"><ele>143.4</ele><time>2026-04-11T15:22:19.957Z</time></trkpt><trkpt lat="43.5309512" lon="10.7866657"><ele>141.0</ele><time>2026-04-11T15:22:20.951Z</time></trkpt><trkpt lat="43.5308721" lon="10.7865582"><ele>141.0</ele><time>2026-04-11T15:22:21.957Z</time></trkpt><trkpt lat="43.5307951" lon="10.7864515"><ele>141.0</ele><time>2026-04-11T15:22:22.953Z</time></trkpt><trkpt lat="43.5307289" lon="10.7863527"><ele>141.0</ele><time>2026-04-11T15:22:23.954Z</time></trkpt><trkpt lat="43.5306739" lon="10.7862592"><ele>141.0</ele><time>2026-04-11T15:22:24.955Z</time></trkpt><trkpt lat="43.5306318" lon="10.7861697"><ele>141.0</ele><time>2026-04-11T15:22:25.945Z</time></trkpt><trkpt lat="43.5306112" lon="10.7860857"><ele>141.0</ele><time>2026-04-11T15:22:26.929Z</time></trkpt><trkpt lat="43.5306171" lon="10.7859972"><ele>141.5</ele><time>2026-04-11T15:22:27.932Z</time></trkpt><trkpt lat="43.5306443" lon="10.7858962"><ele>142.0</ele><time>2026-04-11T15:22:28.929Z</time></trkpt><trkpt lat="43.5306801" lon="10.7857919"><ele>142.5</ele><time>2026-04-11T15:22:29.929Z</time></trkpt><trkpt lat="43.5307213" lon="10.7856854"><ele>143.0</ele><time>2026-04-11T15:22:30.948Z</time></trkpt><trkpt lat="43.5307645" lon="10.7855788"><ele>143.5</ele><time>2026-04-11T15:22:31.945Z</time></trkpt><trkpt lat="43.5308086" lon="10.7854734"><ele>144.0</ele><time>2026-04-11T15:22:32.942Z</time></trkpt><trkpt lat="43.5308414" lon="10.7853723"><ele>144.0</ele><time>2026-04-11T15:22:33.941Z</time></trkpt><trkpt lat="43.5308611" lon="10.7852665"><ele>144.0</ele><time>2026-04-11T15:22:34.924Z</time></trkpt><trkpt lat="43.5308571" lon="10.7851663"><ele>144.0</ele><time>2026-04-11T15:22:35.929Z</time></trkpt><trkpt lat="43.5308346" lon="10.7850631"><ele>144.0</ele><time>2026-04-11T15:22:36.932Z</time></trkpt><trkpt lat="43.530804" lon="10.7849422"><ele>144.0</ele><time>2026-04-11T15:22:37.929Z</time></trkpt><trkpt lat="43.5307765" lon="10.7848246"><ele>144.0</ele><time>2026-04-11T15:22:38.944Z</time></trkpt><trkpt lat="43.5307431" lon="10.7847126"><ele>143.16666666666666</ele><time>2026-04-11T15:22:39.943Z</time></trkpt><trkpt lat="43.5307112" lon="10.7845969"><ele>142.33333333333334</ele><time>2026-04-11T15:22:40.949Z</time></trkpt><trkpt lat="43.5306727" lon="10.7844838"><ele>141.5</ele><time>2026-04-11T15:22:41.938Z</time></trkpt><trkpt lat="43.5306448" lon="10.7843728"><ele>140.66666666666669</ele><time>2026-04-11T15:22:42.945Z</time></trkpt><trkpt lat="43.5306135" lon="10.7842867"><ele>139.83333333333334</ele><time>2026-04-11T15:22:43.937Z</time></trkpt><trkpt lat="43.5305547" lon="10.7841851"><ele>139.0</ele><time>2026-04-11T15:22:45.942Z</time></trkpt><trkpt lat="43.5304765" lon="10.7841888"><ele>138.2</ele><time>2026-04-11T15:22:47.951Z</time></trkpt><trkpt lat="43.530379" lon="10.7842079"><ele>137.4</ele><time>2026-04-11T15:22:49.934Z</time></trkpt><trkpt lat="43.5302864" lon="10.7843173"><ele>136.6</ele><time>2026-04-11T15:22:51.932Z</time></trkpt><trkpt lat="43.5302271" lon="10.7843996"><ele>135.8</ele><time>2026-04-11T15:22:52.932Z</time></trkpt><trkpt lat="43.5301478" lon="10.7845083"><ele>135.0</ele><time>2026-04-11T15:22:53.931Z</time></trkpt><trkpt lat="43.5300655" lon="10.7846046"><ele>135.0</ele><time>2026-04-11T15:22:54.931Z</time></trkpt><trkpt lat="43.5299943" lon="10.7846731"><ele>135.0</ele><time>2026-04-11T15:22:55.924Z</time></trkpt><trkpt lat="43.5299217" lon="10.7847157"><ele>135.0</ele><time>2026-04-11T15:22:56.915Z</time></trkpt><trkpt lat="43.5298358" lon="10.7847632"><ele>135.0</ele><time>2026-04-11T15:22:57.915Z</time></trkpt><trkpt lat="43.5297427" lon="10.7847914"><ele>135.0</ele><time>2026-04-11T15:22:58.92Z</time></trkpt><trkpt lat="43.5296432" lon="10.7848097"><ele>130.6</ele><time>2026-04-11T15:22:59.925Z</time></trkpt><trkpt lat="43.5295461" lon="10.7848173"><ele>126.2</ele><time>2026-04-11T15:23:00.941Z</time></trkpt><trkpt lat="43.5294465" lon="10.7848162"><ele>121.80000000000001</ele><time>2026-04-11T15:23:01.939Z</time></trkpt><trkpt lat="43.5293466" lon="10.7848053"><ele>117.4</ele><time>2026-04-11T15:23:02.952Z</time></trkpt><trkpt lat="43.5292464" lon="10.784785"><ele>113.0</ele><time>2026-04-11T15:23:03.95Z</time></trkpt><trkpt lat="43.5291481" lon="10.7847625"><ele>113.0</ele><time>2026-04-11T15:23:04.972Z</time></trkpt><trkpt lat="43.5290479" lon="10.7847341"><ele>113.00000000000001</ele><time>2026-04-11T15:23:05.953Z</time></trkpt><trkpt lat="43.5289493" lon="10.7847091"><ele>113.00000000000001</ele><time>2026-04-11T15:23:06.954Z</time></trkpt><trkpt lat="43.528855" lon="10.7846888"><ele>113.0</ele><time>2026-04-11T15:23:07.962Z</time></trkpt><trkpt lat="43.5287602" lon="10.7846677"><ele>113.0</ele><time>2026-04-11T15:23:08.949Z</time></trkpt><trkpt lat="43.5286636" lon="10.7846466"><ele>110.99999999999999</ele><time>2026-04-11T15:23:09.951Z</time></trkpt><trkpt lat="43.5285778" lon="10.7846477"><ele>109.0</ele><time>2026-04-11T15:23:10.949Z</time></trkpt><trkpt lat="43.5284945" lon="10.7846611"><ele>107.0</ele><time>2026-04-11T15:23:11.936Z</time></trkpt><trkpt lat="43.5284068" lon="10.7846804"><ele>105.0</ele><time>2026-04-11T15:23:12.941Z</time></trkpt><trkpt lat="43.5283152" lon="10.7846993"><ele>102.99999999999999</ele><time>2026-04-11T15:23:13.933Z</time></trkpt><trkpt lat="43.5282242" lon="10.7847134"><ele>101.0</ele><time>2026-04-11T15:23:14.936Z</time></trkpt><trkpt lat="43.5281312" lon="10.784717"><ele>101.0</ele><time>2026-04-11T15:23:15.951Z</time></trkpt><trkpt lat="43.5280379" lon="10.7847162"><ele>101.0</ele><time>2026-04-11T15:23:16.961Z</time></trkpt><trkpt lat="43.5279449" lon="10.7847127"><ele>101.0</ele><time>2026-04-11T15:23:17.949Z</time></trkpt><trkpt lat="43.5278513" lon="10.7847041"><ele>101.0</ele><time>2026-04-11T15:23:18.952Z</time></trkpt><trkpt lat="43.5277599" lon="10.7846882"><ele>101.0</ele><time>2026-04-11T15:23:19.955Z</time></trkpt><trkpt lat="43.5276751" lon="10.7846673"><ele>99.66666666666666</ele><time>2026-04-11T15:23:20.957Z</time></trkpt><trkpt lat="43.5275964" lon="10.7846432"><ele>98.33333333333333</ele><time>2026-04-11T15:23:21.954Z</time></trkpt><trkpt lat="43.5275164" lon="10.7846086"><ele>97.0</ele><time>2026-04-11T15:23:22.961Z</time></trkpt><trkpt lat="43.5274346" lon="10.7845617"><ele>95.66666666666666</ele><time>2026-04-11T15:23:23.937Z</time></trkpt><trkpt lat="43.5273624" lon="10.7844984"><ele>94.33333333333333</ele><time>2026-04-11T15:23:24.944Z</time></trkpt><trkpt lat="43.5272974" lon="10.7844208"><ele>93.0</ele><time>2026-04-11T15:23:25.935Z</time></trkpt><trkpt lat="43.5272356" lon="10.7843317"><ele>93.0</ele><time>2026-04-11T15:23:26.937Z</time></trkpt><trkpt lat="43.5271838" lon="10.7842346"><ele>93.0</ele><time>2026-04-11T15:23:27.957Z</time></trkpt><trkpt lat="43.5271365" lon="10.7841312"><ele>93.0</ele><time>2026-04-11T15:23:28.953Z</time></trkpt><trkpt lat="43.5270839" lon="10.7840272"><ele>93.0</ele><time>2026-04-11T15:23:29.954Z</time></trkpt><trkpt lat="43.5270281" lon="10.7839242"><ele>93.0</ele><time>2026-04-11T15:23:30.954Z</time></trkpt><trkpt lat="43.5269672" lon="10.7838203"><ele>92.60000000000001</ele><time>2026-04-11T15:23:31.949Z</time></trkpt><trkpt lat="43.5269069" lon="10.783716"><ele>92.2</ele><time>2026-04-11T15:23:32.953Z</time></trkpt><trkpt lat="43.5268437" lon="10.7836105"><ele>91.8</ele><time>2026-04-11T15:23:33.951Z</time></trkpt><trkpt lat="43.5267808" lon="10.7835073"><ele>91.4</ele><time>2026-04-11T15:23:34.947Z</time></trkpt><trkpt lat="43.5267194" lon="10.7834031"><ele>91.0</ele><time>2026-04-11T15:23:35.947Z</time></trkpt><trkpt lat="43.5266655" lon="10.7833001"><ele>90.0</ele><time>2026-04-11T15:23:36.946Z</time></trkpt><trkpt lat="43.5266169" lon="10.7831959"><ele>89.0</ele><time>2026-04-11T15:23:37.953Z</time></trkpt><trkpt lat="43.5265727" lon="10.7830908"><ele>88.0</ele><time>2026-04-11T15:23:38.956Z</time></trkpt><trkpt lat="43.5265331" lon="10.7829858"><ele>87.0</ele><time>2026-04-11T15:23:39.951Z</time></trkpt><trkpt lat="43.526452" lon="10.7827484"><ele>84.6</ele><time>2026-04-11T15:23:40.866Z</time></trkpt><trkpt lat="43.526413" lon="10.7826203"><ele>82.19999999999999</ele><time>2026-04-11T15:23:41.861Z</time></trkpt><trkpt lat="43.5263724" lon="10.7824767"><ele>79.8</ele><time>2026-04-11T15:23:42.865Z</time></trkpt><trkpt lat="43.5263276" lon="10.7823258"><ele>77.4</ele><time>2026-04-11T15:23:43.861Z</time></trkpt><trkpt lat="43.5262832" lon="10.7821763"><ele>75.0</ele><time>2026-04-11T15:23:44.865Z</time></trkpt><trkpt lat="43.5262454" lon="10.7820348"><ele>75.6</ele><time>2026-04-11T15:23:45.865Z</time></trkpt><trkpt lat="43.5262081" lon="10.7818956"><ele>76.2</ele><time>2026-04-11T15:23:46.869Z</time></trkpt><trkpt lat="43.5261678" lon="10.7817699"><ele>76.8</ele><time>2026-04-11T15:23:47.858Z</time></trkpt><trkpt lat="43.52613" lon="10.7816376"><ele>77.4</ele><time>2026-04-11T15:23:48.867Z</time></trkpt><trkpt lat="43.5260865" lon="10.7815143"><ele>78.0</ele><time>2026-04-11T15:23:49.867Z</time></trkpt><trkpt lat="43.5260559" lon="10.781403"><ele>76.2</ele><time>2026-04-11T15:23:50.865Z</time></trkpt><trkpt lat="43.5260226" lon="10.781303"><ele>74.4</ele><time>2026-04-11T15:23:51.864Z</time></trkpt><trkpt lat="43.5259756" lon="10.7811967"><ele>72.60000000000001</ele><time>2026-04-11T15:23:53.858Z</time></trkpt><trkpt lat="43.5258956" lon="10.7812174"><ele>70.8</ele><time>2026-04-11T15:23:57.871Z</time></trkpt><trkpt lat="43.5257821" lon="10.7813545"><ele>69.0</ele><time>2026-04-11T15:23:59.858Z</time></trkpt><trkpt lat="43.5256997" lon="10.7814422"><ele>69.0</ele><time>2026-04-11T15:24:00.863Z</time></trkpt><trkpt lat="43.5256078" lon="10.7815401"><ele>69.0</ele><time>2026-04-11T15:24:01.86Z</time></trkpt><trkpt lat="43.5255068" lon="10.781643"><ele>69.0</ele><time>2026-04-11T15:24:02.864Z</time></trkpt><trkpt lat="43.5253913" lon="10.7817544"><ele>69.0</ele><time>2026-04-11T15:24:03.859Z</time></trkpt><trkpt lat="43.5252651" lon="10.7818686"><ele>69.66666666666667</ele><time>2026-04-11T15:24:04.862Z</time></trkpt><trkpt lat="43.5251316" lon="10.7820046"><ele>70.33333333333334</ele><time>2026-04-11T15:24:05.858Z</time></trkpt><trkpt lat="43.5249899" lon="10.7821336"><ele>71.0</ele><time>2026-04-11T15:24:06.865Z</time></trkpt><trkpt lat="43.5248711" lon="10.7822707"><ele>71.0</ele><time>2026-04-11T15:24:07.861Z</time></trkpt><trkpt lat="43.5247564" lon="10.7824258"><ele>71.0</ele><time>2026-04-11T15:24:08.861Z</time></trkpt><trkpt lat="43.5246694" lon="10.7825891"><ele>71.0</ele><time>2026-04-11T15:24:09.874Z</time></trkpt><trkpt lat="43.5245834" lon="10.7827719"><ele>69.0</ele><time>2026-04-11T15:24:10.862Z</time></trkpt><trkpt lat="43.5244923" lon="10.7829454"><ele>67.0</ele><time>2026-04-11T15:24:11.866Z</time></trkpt><trkpt lat="43.5244146" lon="10.7831532"><ele>65.0</ele><time>2026-04-11T15:24:12.866Z</time></trkpt><trkpt lat="43.5243192" lon="10.783336"><ele>65.0</ele><time>2026-04-11T15:24:13.871Z</time></trkpt><trkpt lat="43.5242323" lon="10.7835331"><ele>65.0</ele><time>2026-04-11T15:24:14.869Z</time></trkpt><trkpt lat="43.5241389" lon="10.7837125"><ele>65.0</ele><time>2026-04-11T15:24:15.869Z</time></trkpt><trkpt lat="43.524056" lon="10.7838868"><ele>65.0</ele><time>2026-04-11T15:24:16.869Z</time></trkpt><trkpt lat="43.5239789" lon="10.7840517"><ele>65.0</ele><time>2026-04-11T15:24:17.866Z</time></trkpt><trkpt lat="43.5239021" lon="10.7842102"><ele>65.0</ele><time>2026-04-11T15:24:18.871Z</time></trkpt><trkpt lat="43.5237984" lon="10.7843353"><ele>65.0</ele><time>2026-04-11T15:24:19.859Z</time></trkpt><trkpt lat="43.5236947" lon="10.7844346"><ele>66.0</ele><time>2026-04-11T15:24:20.859Z</time></trkpt><trkpt lat="43.5235641" lon="10.7845347"><ele>67.0</ele><time>2026-04-11T15:24:21.87Z</time></trkpt><trkpt lat="43.5234293" lon="10.7846196"><ele>68.0</ele><time>2026-04-11T15:24:22.868Z</time></trkpt><trkpt lat="43.5232999" lon="10.7846898"><ele>69.0</ele><time>2026-04-11T15:24:23.867Z</time></trkpt><trkpt lat="43.5231694" lon="10.7847784"><ele>69.0</ele><time>2026-04-11T15:24:24.874Z</time></trkpt><trkpt lat="43.5230368" lon="10.7848461"><ele>69.0</ele><time>2026-04-11T15:24:25.866Z</time></trkpt><trkpt lat="43.5228994" lon="10.7849309"><ele>69.0</ele><time>2026-04-11T15:24:26.869Z</time></trkpt><trkpt lat="43.522765" lon="10.7850102"><ele>69.0</ele><time>2026-04-11T15:24:27.868Z</time></trkpt><trkpt lat="43.5226214" lon="10.785107"><ele>69.0</ele><time>2026-04-11T15:24:28.867Z</time></trkpt><trkpt lat="43.5224756" lon="10.7851775"><ele>69.0</ele><time>2026-04-11T15:24:29.869Z</time></trkpt><trkpt lat="43.5223368" lon="10.785273"><ele>69.0</ele><time>2026-04-11T15:24:30.87Z</time></trkpt><trkpt lat="43.5222077" lon="10.7853491"><ele>69.0</ele><time>2026-04-11T15:24:31.866Z</time></trkpt><trkpt lat="43.5220882" lon="10.7854249"><ele>69.0</ele><time>2026-04-11T15:24:32.871Z</time></trkpt><trkpt lat="43.521961" lon="10.7854971"><ele>69.0</ele><time>2026-04-11T15:24:33.864Z</time></trkpt><trkpt lat="43.5218245" lon="10.7855845"><ele>69.0</ele><time>2026-04-11T15:24:34.872Z</time></trkpt><trkpt lat="43.521682" lon="10.7856762"><ele>69.0</ele><time>2026-04-11T15:24:35.867Z</time></trkpt><trkpt lat="43.5215595" lon="10.7857485"><ele>69.0</ele><time>2026-04-11T15:24:36.867Z</time></trkpt><trkpt lat="43.5214286" lon="10.785825"><ele>69.0</ele><time>2026-04-11T15:24:37.87Z</time></trkpt><trkpt lat="43.5212928" lon="10.7859207"><ele>69.0</ele><time>2026-04-11T15:24:38.867Z</time></trkpt><trkpt lat="43.5211822" lon="10.7860428"><ele>69.0</ele><time>2026-04-11T15:24:39.87Z</time></trkpt><trkpt lat="43.5210691" lon="10.7861694"><ele>69.0</ele><time>2026-04-11T15:24:40.86Z</time></trkpt><trkpt lat="43.5209748" lon="10.7863232"><ele>69.0</ele><time>2026-04-11T15:24:41.859Z</time></trkpt><trkpt lat="43.520886" lon="10.7864943"><ele>69.0</ele><time>2026-04-11T15:24:42.87Z</time></trkpt><trkpt lat="43.5207968" lon="10.7866533"><ele>69.0</ele><time>2026-04-11T15:24:43.87Z</time></trkpt><trkpt lat="43.5207073" lon="10.7868353"><ele>69.0</ele><time>2026-04-11T15:24:44.866Z</time></trkpt><trkpt lat="43.5206162" lon="10.7870048"><ele>69.0</ele><time>2026-04-11T15:24:45.867Z</time></trkpt><trkpt lat="43.5205234" lon="10.7871963"><ele>68.66666666666667</ele><time>2026-04-11T15:24:46.871Z</time></trkpt><trkpt lat="43.5204303" lon="10.7873846"><ele>68.33333333333334</ele><time>2026-04-11T15:24:47.864Z</time></trkpt><trkpt lat="43.5203244" lon="10.787569"><ele>68.0</ele><time>2026-04-11T15:24:48.873Z</time></trkpt><trkpt lat="43.520213" lon="10.7877715"><ele>69.0</ele><time>2026-04-11T15:24:49.867Z</time></trkpt><trkpt lat="43.5201062" lon="10.7879828"><ele>70.0</ele><time>2026-04-11T15:24:50.87Z</time></trkpt><trkpt lat="43.5199953" lon="10.7881784"><ele>71.0</ele><time>2026-04-11T15:24:51.868Z</time></trkpt><trkpt lat="43.5198927" lon="10.7883731"><ele>70.66666666666667</ele><time>2026-04-11T15:24:52.871Z</time></trkpt><trkpt lat="43.5197869" lon="10.7885596"><ele>70.33333333333333</ele><time>2026-04-11T15:24:53.866Z</time></trkpt><trkpt lat="43.5196866" lon="10.7887507"><ele>70.0</ele><time>2026-04-11T15:24:54.869Z</time></trkpt><trkpt lat="43.5195828" lon="10.7889424"><ele>70.66666666666666</ele><time>2026-04-11T15:24:55.87Z</time></trkpt><trkpt lat="43.5194666" lon="10.7891078"><ele>71.33333333333333</ele><time>2026-04-11T15:24:56.865Z</time></trkpt><trkpt lat="43.5193426" lon="10.7892658"><ele>72.0</ele><time>2026-04-11T15:24:57.87Z</time></trkpt><trkpt lat="43.519201" lon="10.7894193"><ele>72.0</ele><time>2026-04-11T15:24:58.866Z</time></trkpt><trkpt lat="43.5190505" lon="10.7895627"><ele>72.0</ele><time>2026-04-11T15:24:59.865Z</time></trkpt><trkpt lat="43.5189015" lon="10.7897133"><ele>72.0</ele><time>2026-04-11T15:25:00.866Z</time></trkpt><trkpt lat="43.5187574" lon="10.7898724"><ele>71.66666666666667</ele><time>2026-04-11T15:25:01.864Z</time></trkpt><trkpt lat="43.5186152" lon="10.7900107"><ele>71.33333333333334</ele><time>2026-04-11T15:25:02.861Z</time></trkpt><trkpt lat="43.5184697" lon="10.7901499"><ele>71.0</ele><time>2026-04-11T15:25:03.859Z</time></trkpt><trkpt lat="43.5183318" lon="10.7902856"><ele>71.0</ele><time>2026-04-11T15:25:04.859Z</time></trkpt><trkpt lat="43.5181897" lon="10.7903865"><ele>71.0</ele><time>2026-04-11T15:25:05.86Z</time></trkpt><trkpt lat="43.5180377" lon="10.7904606"><ele>71.0</ele><time>2026-04-11T15:25:06.854Z</time></trkpt><trkpt lat="43.5179068" lon="10.7904775"><ele>71.0</ele><time>2026-04-11T15:25:07.858Z</time></trkpt><trkpt lat="43.5177586" lon="10.7904753"><ele>71.0</ele><time>2026-04-11T15:25:08.853Z</time></trkpt><trkpt lat="43.5175933" lon="10.7904617"><ele>71.0</ele><time>2026-04-11T15:25:09.857Z</time></trkpt><trkpt lat="43.5174286" lon="10.7904489"><ele>71.0</ele><time>2026-04-11T15:25:10.869Z</time></trkpt><trkpt lat="43.5172813" lon="10.7904305"><ele>71.0</ele><time>2026-04-11T15:25:11.869Z</time></trkpt><trkpt lat="43.5171413" lon="10.790404"><ele>71.0</ele><time>2026-04-11T15:25:12.868Z</time></trkpt><trkpt lat="43.516984" lon="10.7903827"><ele>71.0</ele><time>2026-04-11T15:25:13.865Z</time></trkpt><trkpt lat="43.5168327" lon="10.7903471"><ele>71.66666666666667</ele><time>2026-04-11T15:25:14.865Z</time></trkpt><trkpt lat="43.5166644" lon="10.7903212"><ele>72.33333333333333</ele><time>2026-04-11T15:25:15.871Z</time></trkpt><trkpt lat="43.5164883" lon="10.7902997"><ele>73.0</ele><time>2026-04-11T15:25:16.871Z</time></trkpt><trkpt lat="43.5163139" lon="10.7902797"><ele>72.33333333333333</ele><time>2026-04-11T15:25:17.871Z</time></trkpt><trkpt lat="43.5161333" lon="10.7902533"><ele>71.66666666666667</ele><time>2026-04-11T15:25:18.867Z</time></trkpt><trkpt lat="43.5159657" lon="10.7902246"><ele>71.0</ele><time>2026-04-11T15:25:19.873Z</time></trkpt><trkpt lat="43.5157943" lon="10.7901968"><ele>71.0</ele><time>2026-04-11T15:25:20.868Z</time></trkpt><trkpt lat="43.5156297" lon="10.7901678"><ele>71.0</ele><time>2026-04-11T15:25:21.871Z</time></trkpt><trkpt lat="43.5154731" lon="10.7901595"><ele>71.0</ele><time>2026-04-11T15:25:22.871Z</time></trkpt><trkpt lat="43.5153334" lon="10.7901292"><ele>71.0</ele><time>2026-04-11T15:25:23.869Z</time></trkpt><trkpt lat="43.5152026" lon="10.7901012"><ele>71.0</ele><time>2026-04-11T15:25:24.873Z</time></trkpt><trkpt lat="43.5150698" lon="10.7900856"><ele>71.0</ele><time>2026-04-11T15:25:25.867Z</time></trkpt><trkpt lat="43.5149534" lon="10.7900648"><ele>71.0</ele><time>2026-04-11T15:25:26.866Z</time></trkpt><trkpt lat="43.5148326" lon="10.7900547"><ele>71.0</ele><time>2026-04-11T15:25:27.87Z</time></trkpt><trkpt lat="43.5147343" lon="10.7900354"><ele>71.0</ele><time>2026-04-11T15:25:28.865Z</time></trkpt><trkpt lat="43.5146555" lon="10.7900164"><ele>71.0</ele><time>2026-04-11T15:25:29.861Z</time></trkpt><trkpt lat="43.5145902" lon="10.7900317"><ele>71.0</ele><time>2026-04-11T15:25:30.858Z</time></trkpt><trkpt lat="43.5145192" lon="10.7901026"><ele>71.0</ele><time>2026-04-11T15:25:32.855Z</time></trkpt><trkpt lat="43.5145145" lon="10.7902257"><ele>71.0</ele><time>2026-04-11T15:25:34.862Z</time></trkpt><trkpt lat="43.5145401" lon="10.7903212"><ele>71.25</ele><time>2026-04-11T15:25:35.868Z</time></trkpt><trkpt lat="43.514576" lon="10.7904445"><ele>71.5</ele><time>2026-04-11T15:25:36.866Z</time></trkpt><trkpt lat="43.5146111" lon="10.790591"><ele>71.75</ele><time>2026-04-11T15:25:37.857Z</time></trkpt><trkpt lat="43.5146414" lon="10.7907718"><ele>72.0</ele><time>2026-04-11T15:25:38.864Z</time></trkpt><trkpt lat="43.5146572" lon="10.7909852"><ele>72.0</ele><time>2026-04-11T15:25:39.868Z</time></trkpt><trkpt lat="43.5146916" lon="10.7912048"><ele>72.0</ele><time>2026-04-11T15:25:40.883Z</time></trkpt><trkpt lat="43.5147441" lon="10.7914091"><ele>72.0</ele><time>2026-04-11T15:25:41.878Z</time></trkpt><trkpt lat="43.514759" lon="10.7915687"><ele>72.0</ele><time>2026-04-11T15:25:42.869Z</time></trkpt><trkpt lat="43.5147884" lon="10.7917331"><ele>72.2</ele><time>2026-04-11T15:25:44.932Z</time></trkpt><trkpt lat="43.5148305" lon="10.7918677"><ele>72.4</ele><time>2026-04-11T15:25:45.935Z</time></trkpt><trkpt lat="43.5148866" lon="10.7919847"><ele>72.6</ele><time>2026-04-11T15:25:46.926Z</time></trkpt><trkpt lat="43.5149464" lon="10.792093"><ele>72.8</ele><time>2026-04-11T15:25:47.923Z</time></trkpt><trkpt lat="43.5150207" lon="10.7922264"><ele>73.0</ele><time>2026-04-11T15:25:48.923Z</time></trkpt><trkpt lat="43.5150851" lon="10.7923747"><ele>73.0</ele><time>2026-04-11T15:25:49.924Z</time></trkpt><trkpt lat="43.5151084" lon="10.7924948"><ele>73.0</ele><time>2026-04-11T15:25:50.936Z</time></trkpt><trkpt lat="43.5151113" lon="10.7926162"><ele>73.0</ele><time>2026-04-11T15:25:51.938Z</time></trkpt><trkpt lat="43.5151" lon="10.7927253"><ele>73.0</ele><time>2026-04-11T15:25:52.929Z</time></trkpt><trkpt lat="43.5150702" lon="10.7928504"><ele>73.0</ele><time>2026-04-11T15:25:53.928Z</time></trkpt><trkpt lat="43.5150225" lon="10.7929451"><ele>73.0</ele><time>2026-04-11T15:25:54.935Z</time></trkpt><trkpt lat="43.5150863" lon="10.7930936"><ele>73.8</ele><time>2026-04-11T15:25:55.925Z</time></trkpt><trkpt lat="43.5150108" lon="10.79317"><ele>74.6</ele><time>2026-04-11T15:25:56.946Z</time></trkpt><trkpt lat="43.514924" lon="10.7932267"><ele>75.4</ele><time>2026-04-11T15:25:57.945Z</time></trkpt><trkpt lat="43.5148481" lon="10.7932973"><ele>76.2</ele><time>2026-04-11T15:25:58.94Z</time></trkpt><trkpt lat="43.5147982" lon="10.7933932"><ele>77.0</ele><time>2026-04-11T15:25:59.937Z</time></trkpt><trkpt lat="43.5146785" lon="10.7935741"><ele>79.0</ele><time>2026-04-11T15:26:00.841Z</time></trkpt><trkpt lat="43.5147194" lon="10.7936694"><ele>81.0</ele><time>2026-04-11T15:26:01.836Z</time></trkpt><trkpt lat="43.5147934" lon="10.7937324"><ele>83.0</ele><time>2026-04-11T15:26:02.838Z</time></trkpt><trkpt lat="43.5148943" lon="10.7937575"><ele>85.0</ele><time>2026-04-11T15:26:03.828Z</time></trkpt><trkpt lat="43.5150586" lon="10.7937994"><ele>87.0</ele><time>2026-04-11T15:26:04.835Z</time></trkpt><trkpt lat="43.5152165" lon="10.793855"><ele>87.0</ele><time>2026-04-11T15:26:05.84Z</time></trkpt><trkpt lat="43.5153643" lon="10.7939136"><ele>87.0</ele><time>2026-04-11T15:26:06.847Z</time></trkpt><trkpt lat="43.5155105" lon="10.793948"><ele>87.0</ele><time>2026-04-11T15:26:07.846Z</time></trkpt><trkpt lat="43.5155649" lon="10.7940264"><ele>87.0</ele><time>2026-04-11T15:26:08.853Z</time></trkpt><trkpt lat="43.5155685" lon="10.7942115"><ele>85.8</ele><time>2026-04-11T15:26:10.848Z</time></trkpt><trkpt lat="43.5154647" lon="10.7943182"><ele>84.6</ele><time>2026-04-11T15:26:12.859Z</time></trkpt><trkpt lat="43.5153798" lon="10.794374"><ele>83.39999999999999</ele><time>2026-04-11T15:26:13.86Z</time></trkpt><trkpt lat="43.5152901" lon="10.7944311"><ele>82.19999999999999</ele><time>2026-04-11T15:26:14.864Z</time></trkpt><trkpt lat="43.5151922" lon="10.7945019"><ele>81.0</ele><time>2026-04-11T15:26:15.857Z</time></trkpt><trkpt lat="43.5150899" lon="10.7945732"><ele>85.0</ele><time>2026-04-11T15:26:16.855Z</time></trkpt><trkpt lat="43.5149687" lon="10.7946569"><ele>89.0</ele><time>2026-04-11T15:26:17.857Z</time></trkpt><trkpt lat="43.5148629" lon="10.7947435"><ele>93.0</ele><time>2026-04-11T15:26:18.856Z</time></trkpt><trkpt lat="43.5147725" lon="10.7948488"><ele>97.0</ele><time>2026-04-11T15:26:19.848Z</time></trkpt><trkpt lat="43.5147248" lon="10.7949747"><ele>97.0</ele><time>2026-04-11T15:26:20.854Z</time></trkpt><trkpt lat="43.5146961" lon="10.7951067"><ele>97.0</ele><time>2026-04-11T15:26:21.858Z</time></trkpt><trkpt lat="43.5146966" lon="10.7952706"><ele>97.0</ele><time>2026-04-11T15:26:22.864Z</time></trkpt><trkpt lat="43.5147221" lon="10.7954464"><ele>97.0</ele><time>2026-04-11T15:26:23.853Z</time></trkpt><trkpt lat="43.5147619" lon="10.7956405"><ele>98.66666666666667</ele><time>2026-04-11T15:26:24.858Z</time></trkpt><trkpt lat="43.5148361" lon="10.7958695"><ele>100.33333333333334</ele><time>2026-04-11T15:26:25.859Z</time></trkpt><trkpt lat="43.5148797" lon="10.7961033"><ele>102.0</ele><time>2026-04-11T15:26:26.863Z</time></trkpt><trkpt lat="43.5149089" lon="10.7963205"><ele>103.75</ele><time>2026-04-11T15:26:27.869Z</time></trkpt><trkpt lat="43.514948" lon="10.7965209"><ele>105.5</ele><time>2026-04-11T15:26:28.863Z</time></trkpt><trkpt lat="43.5149488" lon="10.7967279"><ele>107.25</ele><time>2026-04-11T15:26:29.86Z</time></trkpt><trkpt lat="43.5149316" lon="10.7968839"><ele>109.0</ele><time>2026-04-11T15:26:30.85Z</time></trkpt><trkpt lat="43.5149179" lon="10.7970823"><ele>111.5</ele><time>2026-04-11T15:26:31.857Z</time></trkpt><trkpt lat="43.5149005" lon="10.7972223"><ele>114.0</ele><time>2026-04-11T15:26:32.864Z</time></trkpt><trkpt lat="43.5148257" lon="10.7973705"><ele>116.5</ele><time>2026-04-11T15:26:33.862Z</time></trkpt><trkpt lat="43.5147457" lon="10.797499"><ele>119.0</ele><time>2026-04-11T15:26:34.859Z</time></trkpt><trkpt lat="43.5146399" lon="10.7976136"><ele>120.0</ele><time>2026-04-11T15:26:35.86Z</time></trkpt><trkpt lat="43.5145157" lon="10.7977159"><ele>121.0</ele><time>2026-04-11T15:26:36.852Z</time></trkpt><trkpt lat="43.5143544" lon="10.7977973"><ele>122.0</ele><time>2026-04-11T15:26:37.858Z</time></trkpt><trkpt lat="43.5142183" lon="10.7979069"><ele>122.0</ele><time>2026-04-11T15:26:38.861Z</time></trkpt><trkpt lat="43.5140897" lon="10.7980592"><ele>122.0</ele><time>2026-04-11T15:26:39.862Z</time></trkpt><trkpt lat="43.5139495" lon="10.7981811"><ele>122.0</ele><time>2026-04-11T15:26:40.85Z</time></trkpt><trkpt lat="43.5138442" lon="10.7982861"><ele>122.0</ele><time>2026-04-11T15:26:41.847Z</time></trkpt><trkpt lat="43.5137471" lon="10.7984007"><ele>122.0</ele><time>2026-04-11T15:26:42.843Z</time></trkpt><trkpt lat="43.5136517" lon="10.7985197"><ele>122.0</ele><time>2026-04-11T15:26:43.857Z</time></trkpt><trkpt lat="43.5135667" lon="10.7986398"><ele>122.0</ele><time>2026-04-11T15:26:44.847Z</time></trkpt><trkpt lat="43.5134972" lon="10.7987638"><ele>125.0</ele><time>2026-04-11T15:26:45.856Z</time></trkpt><trkpt lat="43.5134716" lon="10.7988927"><ele>128.0</ele><time>2026-04-11T15:26:46.844Z</time></trkpt><trkpt lat="43.5134333" lon="10.799028"><ele>131.0</ele><time>2026-04-11T15:26:47.844Z</time></trkpt><trkpt lat="43.513385" lon="10.7992098"><ele>134.0</ele><time>2026-04-11T15:26:48.853Z</time></trkpt><trkpt lat="43.5133308" lon="10.7993897"><ele>134.0</ele><time>2026-04-11T15:26:49.856Z</time></trkpt><trkpt lat="43.5132734" lon="10.7995841"><ele>134.0</ele><time>2026-04-11T15:26:50.853Z</time></trkpt><trkpt lat="43.5132132" lon="10.7997632"><ele>134.0</ele><time>2026-04-11T15:26:51.854Z</time></trkpt><trkpt lat="43.5131809" lon="10.7999377"><ele>134.0</ele><time>2026-04-11T15:26:52.852Z</time></trkpt><trkpt lat="43.5131886" lon="10.8000963"><ele>133.5</ele><time>2026-04-11T15:26:53.856Z</time></trkpt><trkpt lat="43.5131797" lon="10.8002456"><ele>133.0</ele><time>2026-04-11T15:26:54.857Z</time></trkpt><trkpt lat="43.5132073" lon="10.8003877"><ele>132.5</ele><time>2026-04-11T15:26:55.869Z</time></trkpt><trkpt lat="43.5132176" lon="10.8005522"><ele>132.0</ele><time>2026-04-11T15:26:56.874Z</time></trkpt><trkpt lat="43.5131969" lon="10.8007588"><ele>132.0</ele><time>2026-04-11T15:26:57.877Z</time></trkpt><trkpt lat="43.513187" lon="10.8009169"><ele>132.0</ele><time>2026-04-11T15:26:58.874Z</time></trkpt><trkpt lat="43.513165" lon="10.8010679"><ele>132.0</ele><time>2026-04-11T15:26:59.869Z</time></trkpt><trkpt lat="43.5131376" lon="10.8012252"><ele>132.0</ele><time>2026-04-11T15:27:00.872Z</time></trkpt><trkpt lat="43.5130831" lon="10.8013882"><ele>132.0</ele><time>2026-04-11T15:27:01.872Z</time></trkpt><trkpt lat="43.5130261" lon="10.8015645"><ele>132.0</ele><time>2026-04-11T15:27:02.864Z</time></trkpt><trkpt lat="43.5129481" lon="10.801769"><ele>132.0</ele><time>2026-04-11T15:27:03.87Z</time></trkpt><trkpt lat="43.5128618" lon="10.8019793"><ele>133.75</ele><time>2026-04-11T15:27:04.868Z</time></trkpt><trkpt lat="43.5128063" lon="10.8021557"><ele>135.5</ele><time>2026-04-11T15:27:05.873Z</time></trkpt><trkpt lat="43.5127434" lon="10.802309"><ele>137.25</ele><time>2026-04-11T15:27:06.865Z</time></trkpt><trkpt lat="43.5127162" lon="10.802481"><ele>139.0</ele><time>2026-04-11T15:27:07.87Z</time></trkpt><trkpt lat="43.5127204" lon="10.8026694"><ele>139.0</ele><time>2026-04-11T15:27:08.864Z</time></trkpt><trkpt lat="43.5127235" lon="10.8028297"><ele>139.0</ele><time>2026-04-11T15:27:09.869Z</time></trkpt><trkpt lat="43.5127272" lon="10.8029783"><ele>139.0</ele><time>2026-04-11T15:27:10.866Z</time></trkpt><trkpt lat="43.5127573" lon="10.8031247"><ele>139.0</ele><time>2026-04-11T15:27:11.867Z</time></trkpt><trkpt lat="43.5128405" lon="10.8033015"><ele>138.5</ele><time>2026-04-11T15:27:12.862Z</time></trkpt><trkpt lat="43.5129222" lon="10.8034501"><ele>138.0</ele><time>2026-04-11T15:27:13.87Z</time></trkpt><trkpt lat="43.5130114" lon="10.8035842"><ele>137.5</ele><time>2026-04-11T15:27:14.869Z</time></trkpt><trkpt lat="43.5131033" lon="10.8037091"><ele>137.0</ele><time>2026-04-11T15:27:15.863Z</time></trkpt><trkpt lat="43.5132062" lon="10.8038092"><ele>138.0</ele><time>2026-04-11T15:27:16.867Z</time></trkpt><trkpt lat="43.5133019" lon="10.8039322"><ele>139.0</ele><time>2026-04-11T15:27:17.865Z</time></trkpt><trkpt lat="43.5133648" lon="10.8040616"><ele>140.0</ele><time>2026-04-11T15:27:18.864Z</time></trkpt><trkpt lat="43.5134433" lon="10.8041854"><ele>141.0</ele><time>2026-04-11T15:27:19.865Z</time></trkpt><trkpt lat="43.5135313" lon="10.8043122"><ele>141.25</ele><time>2026-04-11T15:27:20.865Z</time></trkpt><trkpt lat="43.5136257" lon="10.8044468"><ele>141.5</ele><time>2026-04-11T15:27:21.862Z</time></trkpt><trkpt lat="43.5136947" lon="10.8045911"><ele>141.75</ele><time>2026-04-11T15:27:22.876Z</time></trkpt><trkpt lat="43.5137733" lon="10.8047234"><ele>142.0</ele><time>2026-04-11T15:27:23.871Z</time></trkpt><trkpt lat="43.5138428" lon="10.8048444"><ele>142.0</ele><time>2026-04-11T15:27:24.871Z</time></trkpt><trkpt lat="43.5139112" lon="10.8049512"><ele>142.0</ele><time>2026-04-11T15:27:25.859Z</time></trkpt><trkpt lat="43.5139621" lon="10.8050845"><ele>142.0</ele><time>2026-04-11T15:27:26.864Z</time></trkpt><trkpt lat="43.5139911" lon="10.8052298"><ele>142.0</ele><time>2026-04-11T15:27:27.866Z</time></trkpt><trkpt lat="43.5139983" lon="10.8053833"><ele>142.0</ele><time>2026-04-11T15:27:28.855Z</time></trkpt><trkpt lat="43.5140084" lon="10.8055663"><ele>141.0</ele><time>2026-04-11T15:27:29.856Z</time></trkpt><trkpt lat="43.5139988" lon="10.8057711"><ele>140.0</ele><time>2026-04-11T15:27:30.861Z</time></trkpt><trkpt lat="43.5140094" lon="10.8059626"><ele>139.0</ele><time>2026-04-11T15:27:31.861Z</time></trkpt><trkpt lat="43.5139972" lon="10.8061719"><ele>138.0</ele><time>2026-04-11T15:27:32.858Z</time></trkpt><trkpt lat="43.5139807" lon="10.8063681"><ele>137.5</ele><time>2026-04-11T15:27:33.863Z</time></trkpt><trkpt lat="43.5139539" lon="10.8065409"><ele>137.0</ele><time>2026-04-11T15:27:34.867Z</time></trkpt><trkpt lat="43.5139143" lon="10.8066933"><ele>136.5</ele><time>2026-04-11T15:27:35.855Z</time></trkpt><trkpt lat="43.5138165" lon="10.8068397"><ele>136.0</ele><time>2026-04-11T15:27:36.858Z</time></trkpt><trkpt lat="43.5137468" lon="10.8069869"><ele>137.5</ele><time>2026-04-11T15:27:37.861Z</time></trkpt><trkpt lat="43.5136549" lon="10.807151"><ele>139.0</ele><time>2026-04-11T15:27:38.865Z</time></trkpt><trkpt lat="43.5135669" lon="10.8073026"><ele>140.5</ele><time>2026-04-11T15:27:39.863Z</time></trkpt><trkpt lat="43.5134811" lon="10.8074479"><ele>142.0</ele><time>2026-04-11T15:27:40.864Z</time></trkpt><trkpt lat="43.5134167" lon="10.807597"><ele>142.25</ele><time>2026-04-11T15:27:41.861Z</time></trkpt><trkpt lat="43.513373" lon="10.8077515"><ele>142.5</ele><time>2026-04-11T15:27:42.858Z</time></trkpt><trkpt lat="43.5133447" lon="10.8079291"><ele>142.75</ele><time>2026-04-11T15:27:43.854Z</time></trkpt><trkpt lat="43.5133423" lon="10.808127"><ele>143.0</ele><time>2026-04-11T15:27:44.862Z</time></trkpt><trkpt lat="43.5133374" lon="10.8083367"><ele>144.66666666666666</ele><time>2026-04-11T15:27:45.869Z</time></trkpt><trkpt lat="43.513315" lon="10.8085665"><ele>146.33333333333334</ele><time>2026-04-11T15:27:46.868Z</time></trkpt><trkpt lat="43.513279" lon="10.808788"><ele>148.0</ele><time>2026-04-11T15:27:47.866Z</time></trkpt><trkpt lat="43.5132489" lon="10.8089516"><ele>148.0</ele><time>2026-04-11T15:27:48.855Z</time></trkpt><trkpt lat="43.5132375" lon="10.8091299"><ele>148.0</ele><time>2026-04-11T15:27:49.864Z</time></trkpt><trkpt lat="43.5132547" lon="10.8093477"><ele>148.0</ele><time>2026-04-11T15:27:50.863Z</time></trkpt><trkpt lat="43.5132712" lon="10.8095696"><ele>148.33333333333334</ele><time>2026-04-11T15:27:51.863Z</time></trkpt><trkpt lat="43.5133187" lon="10.8098072"><ele>148.66666666666666</ele><time>2026-04-11T15:27:52.86Z</time></trkpt><trkpt lat="43.5133526" lon="10.8100431"><ele>149.0</ele><time>2026-04-11T15:27:53.865Z</time></trkpt><trkpt lat="43.5133873" lon="10.8102834"><ele>150.75</ele><time>2026-04-11T15:27:54.863Z</time></trkpt><trkpt lat="43.5134078" lon="10.810511"><ele>152.5</ele><time>2026-04-11T15:27:55.87Z</time></trkpt><trkpt lat="43.5134129" lon="10.8107"><ele>154.25</ele><time>2026-04-11T15:27:56.861Z</time></trkpt><trkpt lat="43.5134279" lon="10.8108651"><ele>156.0</ele><time>2026-04-11T15:27:57.861Z</time></trkpt><trkpt lat="43.513429" lon="10.8110287"><ele>157.0</ele><time>2026-04-11T15:27:59.939Z</time></trkpt><trkpt lat="43.5134332" lon="10.8111938"><ele>158.0</ele><time>2026-04-11T15:28:00.939Z</time></trkpt><trkpt lat="43.5134197" lon="10.8113544"><ele>159.0</ele><time>2026-04-11T15:28:01.921Z</time></trkpt><trkpt lat="43.5133933" lon="10.8115192"><ele>160.0</ele><time>2026-04-11T15:28:02.924Z</time></trkpt><trkpt lat="43.5133546" lon="10.8116949"><ele>159.25</ele><time>2026-04-11T15:28:03.932Z</time></trkpt><trkpt lat="43.5133159" lon="10.8118779"><ele>158.5</ele><time>2026-04-11T15:28:04.936Z</time></trkpt><trkpt lat="43.513297" lon="10.8120775"><ele>157.75</ele><time>2026-04-11T15:28:05.947Z</time></trkpt><trkpt lat="43.5132703" lon="10.8122836"><ele>157.0</ele><time>2026-04-11T15:28:06.95Z</time></trkpt><trkpt lat="43.5132602" lon="10.8124854"><ele>157.5</ele><time>2026-04-11T15:28:07.928Z</time></trkpt><trkpt lat="43.5132429" lon="10.8126875"><ele>158.0</ele><time>2026-04-11T15:28:08.922Z</time></trkpt><trkpt lat="43.5132109" lon="10.8128894"><ele>158.5</ele><time>2026-04-11T15:28:09.926Z</time></trkpt><trkpt lat="43.513158" lon="10.8130577"><ele>159.0</ele><time>2026-04-11T15:28:10.927Z</time></trkpt><trkpt lat="43.5130877" lon="10.8132162"><ele>159.0</ele><time>2026-04-11T15:28:11.944Z</time></trkpt><trkpt lat="43.5130677" lon="10.813334"><ele>159.0</ele><time>2026-04-11T15:28:12.942Z</time></trkpt><trkpt lat="43.5130146" lon="10.8134812"><ele>159.0</ele><time>2026-04-11T15:28:13.948Z</time></trkpt><trkpt lat="43.512943" lon="10.8136394"><ele>159.0</ele><time>2026-04-11T15:28:14.947Z</time></trkpt><trkpt lat="43.5128618" lon="10.8137958"><ele>157.0</ele><time>2026-04-11T15:28:15.954Z</time></trkpt><trkpt lat="43.5127716" lon="10.8139578"><ele>155.0</ele><time>2026-04-11T15:28:16.958Z</time></trkpt><trkpt lat="43.5126732" lon="10.8141213"><ele>153.0</ele><time>2026-04-11T15:28:17.961Z</time></trkpt><trkpt lat="43.5125751" lon="10.8142921"><ele>152.33333333333334</ele><time>2026-04-11T15:28:18.955Z</time></trkpt><trkpt lat="43.5124762" lon="10.8144571"><ele>151.66666666666669</ele><time>2026-04-11T15:28:19.958Z</time></trkpt><trkpt lat="43.5123798" lon="10.8146183"><ele>151.0</ele><time>2026-04-11T15:28:20.956Z</time></trkpt><trkpt lat="43.5122879" lon="10.8147741"><ele>151.0</ele><time>2026-04-11T15:28:21.962Z</time></trkpt><trkpt lat="43.5122003" lon="10.8149221"><ele>151.0</ele><time>2026-04-11T15:28:22.958Z</time></trkpt><trkpt lat="43.5121181" lon="10.8150453"><ele>151.0</ele><time>2026-04-11T15:28:23.946Z</time></trkpt><trkpt lat="43.5120279" lon="10.8151432"><ele>151.0</ele><time>2026-04-11T15:28:24.953Z</time></trkpt><trkpt lat="43.5119325" lon="10.8152296"><ele>150.5</ele><time>2026-04-11T15:28:25.937Z</time></trkpt><trkpt lat="43.5118239" lon="10.8153162"><ele>150.0</ele><time>2026-04-11T15:28:26.938Z</time></trkpt><trkpt lat="43.5117081" lon="10.815396"><ele>149.5</ele><time>2026-04-11T15:28:27.948Z</time></trkpt><trkpt lat="43.5115867" lon="10.8154784"><ele>149.0</ele><time>2026-04-11T15:28:28.942Z</time></trkpt><trkpt lat="43.5114569" lon="10.81557"><ele>149.0</ele><time>2026-04-11T15:28:29.961Z</time></trkpt><trkpt lat="43.5113288" lon="10.8156708"><ele>149.0</ele><time>2026-04-11T15:28:30.957Z</time></trkpt><trkpt lat="43.5111996" lon="10.8157706"><ele>149.0</ele><time>2026-04-11T15:28:31.955Z</time></trkpt><trkpt lat="43.5110692" lon="10.8158526"><ele>149.0</ele><time>2026-04-11T15:28:32.953Z</time></trkpt><trkpt lat="43.5109295" lon="10.8159176"><ele>149.33333333333331</ele><time>2026-04-11T15:28:33.965Z</time></trkpt><trkpt lat="43.5107804" lon="10.8159717"><ele>149.66666666666666</ele><time>2026-04-11T15:28:34.949Z</time></trkpt><trkpt lat="43.5106312" lon="10.8160204"><ele>150.0</ele><time>2026-04-11T15:28:35.948Z</time></trkpt><trkpt lat="43.5104857" lon="10.8160726"><ele>152.66666666666666</ele><time>2026-04-11T15:28:36.943Z</time></trkpt><trkpt lat="43.5103471" lon="10.8161446"><ele>155.33333333333331</ele><time>2026-04-11T15:28:37.941Z</time></trkpt><trkpt lat="43.5102045" lon="10.8162386"><ele>158.0</ele><time>2026-04-11T15:28:38.958Z</time></trkpt><trkpt lat="43.5100703" lon="10.8163399"><ele>158.0</ele><time>2026-04-11T15:28:39.956Z</time></trkpt><trkpt lat="43.5099361" lon="10.8164432"><ele>158.0</ele><time>2026-04-11T15:28:40.957Z</time></trkpt><trkpt lat="43.509803" lon="10.816545"><ele>158.0</ele><time>2026-04-11T15:28:41.964Z</time></trkpt><trkpt lat="43.509673" lon="10.8166484"><ele>161.75</ele><time>2026-04-11T15:28:42.953Z</time></trkpt><trkpt lat="43.5095444" lon="10.8167328"><ele>165.5</ele><time>2026-04-11T15:28:43.947Z</time></trkpt><trkpt lat="43.5094262" lon="10.8167786"><ele>169.25</ele><time>2026-04-11T15:28:44.952Z</time></trkpt><trkpt lat="43.5092974" lon="10.8168026"><ele>173.0</ele><time>2026-04-11T15:28:45.935Z</time></trkpt><trkpt lat="43.5091733" lon="10.8168195"><ele>174.60000000000002</ele><time>2026-04-11T15:28:46.929Z</time></trkpt><trkpt lat="43.5090769" lon="10.8168668"><ele>176.20000000000002</ele><time>2026-04-11T15:28:47.939Z</time></trkpt><trkpt lat="43.5089883" lon="10.8169344"><ele>177.8</ele><time>2026-04-11T15:28:48.929Z</time></trkpt><trkpt lat="43.5089144" lon="10.8170174"><ele>179.4</ele><time>2026-04-11T15:28:49.938Z</time></trkpt><trkpt lat="43.5088641" lon="10.817121"><ele>181.0</ele><time>2026-04-11T15:28:50.936Z</time></trkpt><trkpt lat="43.5088251" lon="10.8172276"><ele>181.0</ele><time>2026-04-11T15:28:51.927Z</time></trkpt><trkpt lat="43.5087505" lon="10.8174329"><ele>181.0</ele><time>2026-04-11T15:28:52.84Z</time></trkpt><trkpt lat="43.5087407" lon="10.8175666"><ele>181.0</ele><time>2026-04-11T15:28:53.836Z</time></trkpt><trkpt lat="43.508663" lon="10.8176743"><ele>181.0</ele><time>2026-04-11T15:28:55.841Z</time></trkpt><trkpt lat="43.508603" lon="10.817718"><ele>181.0</ele><time>2026-04-11T15:28:56.854Z</time></trkpt><trkpt lat="43.5085273" lon="10.8177557"><ele>181.5</ele><time>2026-04-11T15:28:57.858Z</time></trkpt><trkpt lat="43.5084527" lon="10.817805"><ele>182.0</ele><time>2026-04-11T15:28:58.854Z</time></trkpt><trkpt lat="43.5083998" lon="10.8178522"><ele>182.5</ele><time>2026-04-11T15:28:59.86Z</time></trkpt><trkpt lat="43.5083526" lon="10.817996"><ele>183.0</ele><time>2026-04-11T15:29:01.865Z</time></trkpt><trkpt lat="43.5083341" lon="10.8180816"><ele>183.5</ele><time>2026-04-11T15:29:02.859Z</time></trkpt><trkpt lat="43.5083037" lon="10.8181666"><ele>184.0</ele><time>2026-04-11T15:29:03.863Z</time></trkpt><trkpt lat="43.5082834" lon="10.8182652"><ele>184.0</ele><time>2026-04-11T15:29:04.866Z</time></trkpt><trkpt lat="43.5082589" lon="10.8183567"><ele>184.0</ele><time>2026-04-11T15:29:05.864Z</time></trkpt><trkpt lat="43.5082378" lon="10.8184504"><ele>184.0</ele><time>2026-04-11T15:29:06.867Z</time></trkpt><trkpt lat="43.508204" lon="10.8185647"><ele>184.0</ele><time>2026-04-11T15:29:07.86Z</time></trkpt><trkpt lat="43.508158" lon="10.8186719"><ele>184.0</ele><time>2026-04-11T15:29:08.86Z</time></trkpt><trkpt lat="43.5081247" lon="10.8187914"><ele>184.0</ele><time>2026-04-11T15:29:09.866Z</time></trkpt><trkpt lat="43.5080837" lon="10.8188949"><ele>184.5</ele><time>2026-04-11T15:29:10.862Z</time></trkpt><trkpt lat="43.5080556" lon="10.8189762"><ele>185.0</ele><time>2026-04-11T15:29:11.857Z</time></trkpt><trkpt lat="43.5080257" lon="10.819069"><ele>185.5</ele><time>2026-04-11T15:29:12.862Z</time></trkpt><trkpt lat="43.5079984" lon="10.8191675"><ele>186.0</ele><time>2026-04-11T15:29:13.859Z</time></trkpt><trkpt lat="43.5079874" lon="10.8192857"><ele>186.5</ele><time>2026-04-11T15:29:14.856Z</time></trkpt><trkpt lat="43.5079845" lon="10.8194002"><ele>187.0</ele><time>2026-04-11T15:29:15.858Z</time></trkpt><trkpt lat="43.5079874" lon="10.8195331"><ele>187.2</ele><time>2026-04-11T15:29:16.869Z</time></trkpt><trkpt lat="43.5079963" lon="10.8196658"><ele>187.39999999999998</ele><time>2026-04-11T15:29:17.859Z</time></trkpt><trkpt lat="43.508013" lon="10.8198156"><ele>187.60000000000002</ele><time>2026-04-11T15:29:18.875Z</time></trkpt><trkpt lat="43.5080298" lon="10.8199753"><ele>187.8</ele><time>2026-04-11T15:29:19.857Z</time></trkpt><trkpt lat="43.5080462" lon="10.8201335"><ele>188.0</ele><time>2026-04-11T15:29:20.873Z</time></trkpt><trkpt lat="43.5080482" lon="10.8202906"><ele>187.60000000000002</ele><time>2026-04-11T15:29:21.865Z</time></trkpt><trkpt lat="43.5080476" lon="10.8204423"><ele>187.20000000000002</ele><time>2026-04-11T15:29:22.875Z</time></trkpt><trkpt lat="43.5080462" lon="10.82058"><ele>186.8</ele><time>2026-04-11T15:29:23.87Z</time></trkpt><trkpt lat="43.5080329" lon="10.8207168"><ele>186.4</ele><time>2026-04-11T15:29:24.867Z</time></trkpt><trkpt lat="43.508013" lon="10.8208521"><ele>186.0</ele><time>2026-04-11T15:29:25.866Z</time></trkpt><trkpt lat="43.5079795" lon="10.8209946"><ele>185.60000000000002</ele><time>2026-04-11T15:29:26.875Z</time></trkpt><trkpt lat="43.5079543" lon="10.8211384"><ele>185.2</ele><time>2026-04-11T15:29:27.885Z</time></trkpt><trkpt lat="43.5079272" lon="10.8212791"><ele>184.8</ele><time>2026-04-11T15:29:28.879Z</time></trkpt><trkpt lat="43.5078969" lon="10.8214281"><ele>184.39999999999998</ele><time>2026-04-11T15:29:29.881Z</time></trkpt><trkpt lat="43.5078605" lon="10.8215799"><ele>184.0</ele><time>2026-04-11T15:29:30.882Z</time></trkpt><trkpt lat="43.5078128" lon="10.821717"><ele>184.0</ele><time>2026-04-11T15:29:31.884Z</time></trkpt><trkpt lat="43.5077668" lon="10.8218515"><ele>184.0</ele><time>2026-04-11T15:29:32.882Z</time></trkpt><trkpt lat="43.5077169" lon="10.8219686"><ele>184.0</ele><time>2026-04-11T15:29:33.883Z</time></trkpt><trkpt lat="43.5076673" lon="10.8220868"><ele>184.0</ele><time>2026-04-11T15:29:34.88Z</time></trkpt><trkpt lat="43.5076152" lon="10.8222145"><ele>184.0</ele><time>2026-04-11T15:29:35.872Z</time></trkpt><trkpt lat="43.5075486" lon="10.8223325"><ele>184.0</ele><time>2026-04-11T15:29:36.88Z</time></trkpt><trkpt lat="43.5074726" lon="10.8224555"><ele>184.0</ele><time>2026-04-11T15:29:37.878Z</time></trkpt><trkpt lat="43.5073876" lon="10.8225815"><ele>184.0</ele><time>2026-04-11T15:29:38.88Z</time></trkpt><trkpt lat="43.5073035" lon="10.8226965"><ele>184.0</ele><time>2026-04-11T15:29:39.888Z</time></trkpt><trkpt lat="43.5072105" lon="10.8228107"><ele>184.0</ele><time>2026-04-11T15:29:40.883Z</time></trkpt><trkpt lat="43.5071178" lon="10.8229108"><ele>184.0</ele><time>2026-04-11T15:29:41.86Z</time></trkpt><trkpt lat="43.5070224" lon="10.822988"><ele>184.0</ele><time>2026-04-11T15:29:42.854Z</time></trkpt><trkpt lat="43.5069346" lon="10.8230663"><ele>184.0</ele><time>2026-04-11T15:29:43.858Z</time></trkpt><trkpt lat="43.5068428" lon="10.8231252"><ele>184.0</ele><time>2026-04-11T15:29:44.857Z</time></trkpt><trkpt lat="43.5067572" lon="10.8231919"><ele>183.83333333333334</ele><time>2026-04-11T15:29:45.852Z</time></trkpt><trkpt lat="43.5066921" lon="10.8232718"><ele>183.66666666666669</ele><time>2026-04-11T15:29:46.848Z</time></trkpt><trkpt lat="43.5066344" lon="10.8233539"><ele>183.5</ele><time>2026-04-11T15:29:47.851Z</time></trkpt><trkpt lat="43.5065833" lon="10.8234473"><ele>183.33333333333334</ele><time>2026-04-11T15:29:48.847Z</time></trkpt><trkpt lat="43.5065516" lon="10.823554"><ele>183.16666666666666</ele><time>2026-04-11T15:29:49.847Z</time></trkpt><trkpt lat="43.506522" lon="10.8236691"><ele>183.0</ele><time>2026-04-11T15:29:50.853Z</time></trkpt><trkpt lat="43.5065112" lon="10.8237927"><ele>183.0</ele><time>2026-04-11T15:29:51.861Z</time></trkpt><trkpt lat="43.5064984" lon="10.823918"><ele>183.0</ele><time>2026-04-11T15:29:52.865Z</time></trkpt><trkpt lat="43.5064906" lon="10.8240693"><ele>183.0</ele><time>2026-04-11T15:29:53.861Z</time></trkpt><trkpt lat="43.5064768" lon="10.8242175"><ele>183.0</ele><time>2026-04-11T15:29:54.868Z</time></trkpt><trkpt lat="43.5064576" lon="10.8243833"><ele>183.0</ele><time>2026-04-11T15:29:55.865Z</time></trkpt><trkpt lat="43.506429" lon="10.8245435"><ele>183.25</ele><time>2026-04-11T15:29:56.858Z</time></trkpt><trkpt lat="43.5064041" lon="10.824702"><ele>183.5</ele><time>2026-04-11T15:29:57.86Z</time></trkpt><trkpt lat="43.5063756" lon="10.824858"><ele>183.75</ele><time>2026-04-11T15:29:58.863Z</time></trkpt><trkpt lat="43.5063443" lon="10.8250035"><ele>184.0</ele><time>2026-04-11T15:29:59.862Z</time></trkpt><trkpt lat="43.506295" lon="10.8251403"><ele>184.5</ele><time>2026-04-11T15:30:00.858Z</time></trkpt><trkpt lat="43.506235" lon="10.8252884"><ele>185.0</ele><time>2026-04-11T15:30:01.863Z</time></trkpt><trkpt lat="43.5061727" lon="10.8254154"><ele>185.5</ele><time>2026-04-11T15:30:02.863Z</time></trkpt><trkpt lat="43.5061136" lon="10.8255417"><ele>186.0</ele><time>2026-04-11T15:30:03.857Z</time></trkpt><trkpt lat="43.5060505" lon="10.8256837"><ele>186.0</ele><time>2026-04-11T15:30:04.86Z</time></trkpt><trkpt lat="43.5059888" lon="10.825822"><ele>186.0</ele><time>2026-04-11T15:30:05.858Z</time></trkpt><trkpt lat="43.5059291" lon="10.8259459"><ele>186.0</ele><time>2026-04-11T15:30:06.857Z</time></trkpt><trkpt lat="43.5058798" lon="10.8260736"><ele>186.0</ele><time>2026-04-11T15:30:07.857Z</time></trkpt><trkpt lat="43.50584" lon="10.8261999"><ele>186.0</ele><time>2026-04-11T15:30:08.87Z</time></trkpt><trkpt lat="43.5058007" lon="10.826329"><ele>186.5</ele><time>2026-04-11T15:30:09.857Z</time></trkpt><trkpt lat="43.5057784" lon="10.8264591"><ele>187.0</ele><time>2026-04-11T15:30:10.862Z</time></trkpt><trkpt lat="43.5057557" lon="10.8265783"><ele>187.5</ele><time>2026-04-11T15:30:11.86Z</time></trkpt><trkpt lat="43.5057462" lon="10.8266966"><ele>188.0</ele><time>2026-04-11T15:30:12.859Z</time></trkpt><trkpt lat="43.505749" lon="10.8268231"><ele>188.5</ele><time>2026-04-11T15:30:13.866Z</time></trkpt><trkpt lat="43.5057487" lon="10.8269371"><ele>189.0</ele><time>2026-04-11T15:30:14.871Z</time></trkpt><trkpt lat="43.5057512" lon="10.8270679"><ele>189.0</ele><time>2026-04-11T15:30:15.863Z</time></trkpt><trkpt lat="43.5057511" lon="10.8272089"><ele>189.0</ele><time>2026-04-11T15:30:16.856Z</time></trkpt><trkpt lat="43.5057479" lon="10.8273624"><ele>189.0</ele><time>2026-04-11T15:30:17.864Z</time></trkpt><trkpt lat="43.5057365" lon="10.8275004"><ele>189.0</ele><time>2026-04-11T15:30:18.862Z</time></trkpt><trkpt lat="43.5057218" lon="10.827635"><ele>189.0</ele><time>2026-04-11T15:30:19.851Z</time></trkpt><trkpt lat="43.5057026" lon="10.8277646"><ele>188.79999999999998</ele><time>2026-04-11T15:30:20.86Z</time></trkpt><trkpt lat="43.5056889" lon="10.8278929"><ele>188.6</ele><time>2026-04-11T15:30:21.864Z</time></trkpt><trkpt lat="43.5056922" lon="10.8280391"><ele>188.4</ele><time>2026-04-11T15:30:22.858Z</time></trkpt><trkpt lat="43.5057155" lon="10.8281817"><ele>188.2</ele><time>2026-04-11T15:30:23.854Z</time></trkpt><trkpt lat="43.5057454" lon="10.8283168"><ele>188.0</ele><time>2026-04-11T15:30:24.849Z</time></trkpt><trkpt lat="43.5057842" lon="10.828473"><ele>187.75</ele><time>2026-04-11T15:30:25.848Z</time></trkpt><trkpt lat="43.5058109" lon="10.8286422"><ele>187.5</ele><time>2026-04-11T15:30:26.851Z</time></trkpt><trkpt lat="43.5058263" lon="10.8288169"><ele>187.25</ele><time>2026-04-11T15:30:27.851Z</time></trkpt><trkpt lat="43.5058313" lon="10.8289767"><ele>187.0</ele><time>2026-04-11T15:30:28.851Z</time></trkpt><trkpt lat="43.5058361" lon="10.8291325"><ele>187.0</ele><time>2026-04-11T15:30:29.854Z</time></trkpt><trkpt lat="43.5058379" lon="10.8292849"><ele>187.0</ele><time>2026-04-11T15:30:30.861Z</time></trkpt><trkpt lat="43.505846" lon="10.829441"><ele>187.0</ele><time>2026-04-11T15:30:31.867Z</time></trkpt><trkpt lat="43.5058521" lon="10.8295925"><ele>187.0</ele><time>2026-04-11T15:30:32.862Z</time></trkpt><trkpt lat="43.5058584" lon="10.8297313"><ele>187.0</ele><time>2026-04-11T15:30:33.866Z</time></trkpt><trkpt lat="43.5058607" lon="10.8298709"><ele>187.39999999999998</ele><time>2026-04-11T15:30:34.866Z</time></trkpt><trkpt lat="43.5058624" lon="10.8300128"><ele>187.79999999999998</ele><time>2026-04-11T15:30:35.863Z</time></trkpt><trkpt lat="43.5058505" lon="10.8301505"><ele>188.2</ele><time>2026-04-11T15:30:36.865Z</time></trkpt><trkpt lat="43.5058233" lon="10.8302816"><ele>188.6</ele><time>2026-04-11T15:30:37.862Z</time></trkpt><trkpt lat="43.505802" lon="10.8303945"><ele>189.0</ele><time>2026-04-11T15:30:38.864Z</time></trkpt><trkpt lat="43.5057945" lon="10.8304886"><ele>189.83333333333334</ele><time>2026-04-11T15:30:39.858Z</time></trkpt><trkpt lat="43.5057911" lon="10.8305792"><ele>190.66666666666669</ele><time>2026-04-11T15:30:40.865Z</time></trkpt><trkpt lat="43.505812" lon="10.830686"><ele>191.5</ele><time>2026-04-11T15:30:41.867Z</time></trkpt><trkpt lat="43.5058295" lon="10.8307912"><ele>192.33333333333334</ele><time>2026-04-11T15:30:42.863Z</time></trkpt><trkpt lat="43.5058509" lon="10.8308981"><ele>193.16666666666669</ele><time>2026-04-11T15:30:43.864Z</time></trkpt><trkpt lat="43.5058714" lon="10.8310027"><ele>194.0</ele><time>2026-04-11T15:30:44.857Z</time></trkpt><trkpt lat="43.5058896" lon="10.8311025"><ele>195.16666666666669</ele><time>2026-04-11T15:30:45.866Z</time></trkpt><trkpt lat="43.5059073" lon="10.8312055"><ele>196.33333333333334</ele><time>2026-04-11T15:30:46.864Z</time></trkpt><trkpt lat="43.505927" lon="10.8313094"><ele>197.5</ele><time>2026-04-11T15:30:47.861Z</time></trkpt><trkpt lat="43.5059579" lon="10.8314186"><ele>198.66666666666669</ele><time>2026-04-11T15:30:48.867Z</time></trkpt><trkpt lat="43.5060059" lon="10.8315336"><ele>199.83333333333334</ele><time>2026-04-11T15:30:49.859Z</time></trkpt><trkpt lat="43.5060707" lon="10.8316414"><ele>201.0</ele><time>2026-04-11T15:30:50.871Z</time></trkpt><trkpt lat="43.5061406" lon="10.8317457"><ele>201.16666666666666</ele><time>2026-04-11T15:30:51.868Z</time></trkpt><trkpt lat="43.5062125" lon="10.831854"><ele>201.33333333333331</ele><time>2026-04-11T15:30:52.888Z</time></trkpt><trkpt lat="43.5062727" lon="10.83195"><ele>201.5</ele><time>2026-04-11T15:30:54.951Z</time></trkpt><trkpt lat="43.5063273" lon="10.8320435"><ele>201.66666666666666</ele><time>2026-04-11T15:30:55.949Z</time></trkpt><trkpt lat="43.5063713" lon="10.8321376"><ele>201.83333333333331</ele><time>2026-04-11T15:30:56.94Z</time></trkpt><trkpt lat="43.5064012" lon="10.8322399"><ele>202.0</ele><time>2026-04-11T15:30:57.942Z</time></trkpt><trkpt lat="43.5064155" lon="10.8323514"><ele>201.99999999999997</ele><time>2026-04-11T15:30:58.935Z</time></trkpt><trkpt lat="43.5064235" lon="10.8324916"><ele>202.0</ele><time>2026-04-11T15:30:59.937Z</time></trkpt><trkpt lat="43.5064153" lon="10.8326055"><ele>202.0</ele><time>2026-04-11T15:31:00.941Z</time></trkpt><trkpt lat="43.506409" lon="10.8327196"><ele>202.0</ele><time>2026-04-11T15:31:01.938Z</time></trkpt><trkpt lat="43.5064075" lon="10.8328269"><ele>201.99999999999997</ele><time>2026-04-11T15:31:02.948Z</time></trkpt><trkpt lat="43.5064128" lon="10.8329343"><ele>202.0</ele><time>2026-04-11T15:31:03.953Z</time></trkpt><trkpt lat="43.5064286" lon="10.8330379"><ele>202.33333333333331</ele><time>2026-04-11T15:31:04.951Z</time></trkpt><trkpt lat="43.5064501" lon="10.8331373"><ele>202.66666666666666</ele><time>2026-04-11T15:31:05.941Z</time></trkpt><trkpt lat="43.5064922" lon="10.8332346"><ele>203.0</ele><time>2026-04-11T15:31:06.932Z</time></trkpt><trkpt lat="43.5065408" lon="10.8333275"><ele>203.33333333333331</ele><time>2026-04-11T15:31:07.939Z</time></trkpt><trkpt lat="43.5065979" lon="10.8334331"><ele>203.66666666666666</ele><time>2026-04-11T15:31:08.936Z</time></trkpt><trkpt lat="43.5066323" lon="10.8335414"><ele>204.0</ele><time>2026-04-11T15:31:09.95Z</time></trkpt><trkpt lat="43.5066539" lon="10.8336479"><ele>203.33333333333334</ele><time>2026-04-11T15:31:10.958Z</time></trkpt><trkpt lat="43.5066838" lon="10.83375"><ele>202.66666666666669</ele><time>2026-04-11T15:31:11.963Z</time></trkpt><trkpt lat="43.5067156" lon="10.8338562"><ele>202.0</ele><time>2026-04-11T15:31:12.964Z</time></trkpt><trkpt lat="43.5067607" lon="10.8339602"><ele>201.33333333333334</ele><time>2026-04-11T15:31:13.963Z</time></trkpt><trkpt lat="43.5068085" lon="10.8340606"><ele>200.66666666666669</ele><time>2026-04-11T15:31:14.951Z</time></trkpt><trkpt lat="43.5068617" lon="10.8341599"><ele>200.0</ele><time>2026-04-11T15:31:15.947Z</time></trkpt><trkpt lat="43.5069147" lon="10.834257"><ele>200.0</ele><time>2026-04-11T15:31:16.949Z</time></trkpt><trkpt lat="43.5069793" lon="10.8343515"><ele>200.0</ele><time>2026-04-11T15:31:17.945Z</time></trkpt><trkpt lat="43.5070508" lon="10.8344394"><ele>200.0</ele><time>2026-04-11T15:31:18.96Z</time></trkpt><trkpt lat="43.5071284" lon="10.8345148"><ele>200.0</ele><time>2026-04-11T15:31:19.963Z</time></trkpt><trkpt lat="43.5072123" lon="10.8345823"><ele>200.0</ele><time>2026-04-11T15:31:20.963Z</time></trkpt><trkpt lat="43.5072988" lon="10.8346494"><ele>200.0</ele><time>2026-04-11T15:31:21.96Z</time></trkpt><trkpt lat="43.5073877" lon="10.8347109"><ele>200.0</ele><time>2026-04-11T15:31:22.953Z</time></trkpt><trkpt lat="43.5074825" lon="10.8347657"><ele>200.0</ele><time>2026-04-11T15:31:23.949Z</time></trkpt><trkpt lat="43.5075802" lon="10.8348093"><ele>200.0</ele><time>2026-04-11T15:31:24.958Z</time></trkpt><trkpt lat="43.5076754" lon="10.8348499"><ele>200.0</ele><time>2026-04-11T15:31:25.952Z</time></trkpt><trkpt lat="43.5077629" lon="10.8348861"><ele>200.00000000000003</ele><time>2026-04-11T15:31:26.942Z</time></trkpt><trkpt lat="43.5078412" lon="10.8349275"><ele>200.0</ele><time>2026-04-11T15:31:27.949Z</time></trkpt><trkpt lat="43.5079105" lon="10.8349798"><ele>200.0</ele><time>2026-04-11T15:31:28.943Z</time></trkpt><trkpt lat="43.5079534" lon="10.8350482"><ele>200.0</ele><time>2026-04-11T15:31:29.936Z</time></trkpt><trkpt lat="43.5079747" lon="10.8352231"><ele>200.00000000000003</ele><time>2026-04-11T15:31:31.935Z</time></trkpt><trkpt lat="43.5079725" lon="10.8353129"><ele>200.0</ele><time>2026-04-11T15:31:32.933Z</time></trkpt><trkpt lat="43.5079711" lon="10.835462"><ele>199.4</ele><time>2026-04-11T15:31:34.942Z</time></trkpt><trkpt lat="43.5080255" lon="10.8355826"><ele>198.8</ele><time>2026-04-11T15:31:36.931Z</time></trkpt><trkpt lat="43.5080859" lon="10.8356344"><ele>198.2</ele><time>2026-04-11T15:31:37.926Z</time></trkpt><trkpt lat="43.5081613" lon="10.8356713"><ele>197.6</ele><time>2026-04-11T15:31:38.934Z</time></trkpt><trkpt lat="43.5082559" lon="10.835686"><ele>197.0</ele><time>2026-04-11T15:31:39.94Z</time></trkpt><trkpt lat="43.50836" lon="10.8356873"><ele>197.0</ele><time>2026-04-11T15:31:40.947Z</time></trkpt><trkpt lat="43.5084717" lon="10.8356803"><ele>197.0</ele><time>2026-04-11T15:31:41.928Z</time></trkpt><trkpt lat="43.5085766" lon="10.8356617"><ele>197.0</ele><time>2026-04-11T15:31:42.94Z</time></trkpt><trkpt lat="43.508673" lon="10.8356326"><ele>197.0</ele><time>2026-04-11T15:31:43.932Z</time></trkpt><trkpt lat="43.5088429" lon="10.835591"><ele>197.39999999999998</ele><time>2026-04-11T15:31:44.843Z</time></trkpt><trkpt lat="43.5089177" lon="10.8356247"><ele>197.79999999999998</ele><time>2026-04-11T15:31:45.855Z</time></trkpt><trkpt lat="43.5089871" lon="10.8356882"><ele>198.2</ele><time>2026-04-11T15:31:46.854Z</time></trkpt><trkpt lat="43.5090586" lon="10.8357839"><ele>198.6</ele><time>2026-04-11T15:31:47.851Z</time></trkpt><trkpt lat="43.5091292" lon="10.8358973"><ele>199.0</ele><time>2026-04-11T15:31:48.856Z</time></trkpt><trkpt lat="43.5092046" lon="10.835977"><ele>197.0</ele><time>2026-04-11T15:31:49.859Z</time></trkpt><trkpt lat="43.5092877" lon="10.8360612"><ele>195.0</ele><time>2026-04-11T15:31:50.853Z</time></trkpt><trkpt lat="43.5093654" lon="10.8361415"><ele>193.0</ele><time>2026-04-11T15:31:51.86Z</time></trkpt><trkpt lat="43.5094498" lon="10.8362197"><ele>191.0</ele><time>2026-04-11T15:31:52.856Z</time></trkpt><trkpt lat="43.5095346" lon="10.8362868"><ele>189.0</ele><time>2026-04-11T15:31:53.858Z</time></trkpt><trkpt lat="43.5096233" lon="10.8363376"><ele>189.0</ele><time>2026-04-11T15:31:54.865Z</time></trkpt><trkpt lat="43.509713" lon="10.836382"><ele>189.0</ele><time>2026-04-11T15:31:55.861Z</time></trkpt><trkpt lat="43.5097954" lon="10.8364291"><ele>189.0</ele><time>2026-04-11T15:31:56.853Z</time></trkpt><trkpt lat="43.5098655" lon="10.8364824"><ele>189.0</ele><time>2026-04-11T15:31:57.86Z</time></trkpt><trkpt lat="43.5099301" lon="10.8365368"><ele>189.0</ele><time>2026-04-11T15:31:58.859Z</time></trkpt><trkpt lat="43.5099955" lon="10.8366027"><ele>189.0</ele><time>2026-04-11T15:31:59.859Z</time></trkpt><trkpt lat="43.5100413" lon="10.8366952"><ele>187.66666666666666</ele><time>2026-04-11T15:32:00.854Z</time></trkpt><trkpt lat="43.5100791" lon="10.8368038"><ele>186.33333333333334</ele><time>2026-04-11T15:32:01.861Z</time></trkpt><trkpt lat="43.5101056" lon="10.8369167"><ele>185.0</ele><time>2026-04-11T15:32:02.859Z</time></trkpt><trkpt lat="43.5101197" lon="10.8370236"><ele>183.66666666666669</ele><time>2026-04-11T15:32:03.862Z</time></trkpt><trkpt lat="43.5101143" lon="10.8371361"><ele>182.33333333333334</ele><time>2026-04-11T15:32:04.862Z</time></trkpt><trkpt lat="43.5101166" lon="10.8372574"><ele>181.0</ele><time>2026-04-11T15:32:05.866Z</time></trkpt><trkpt lat="43.5101344" lon="10.8373786"><ele>181.0</ele><time>2026-04-11T15:32:06.869Z</time></trkpt><trkpt lat="43.5101548" lon="10.8375056"><ele>181.0</ele><time>2026-04-11T15:32:07.864Z</time></trkpt><trkpt lat="43.5101809" lon="10.8376348"><ele>181.0</ele><time>2026-04-11T15:32:08.868Z</time></trkpt><trkpt lat="43.5102296" lon="10.837764"><ele>181.0</ele><time>2026-04-11T15:32:09.864Z</time></trkpt><trkpt lat="43.5102735" lon="10.8378965"><ele>181.0</ele><time>2026-04-11T15:32:10.859Z</time></trkpt><trkpt lat="43.5103195" lon="10.8380355"><ele>179.8</ele><time>2026-04-11T15:32:11.865Z</time></trkpt><trkpt lat="43.5103505" lon="10.8381716"><ele>178.60000000000002</ele><time>2026-04-11T15:32:12.857Z</time></trkpt><trkpt lat="43.510372" lon="10.8382991"><ele>177.4</ele><time>2026-04-11T15:32:13.86Z</time></trkpt><trkpt lat="43.5103939" lon="10.8384072"><ele>176.2</ele><time>2026-04-11T15:32:14.864Z</time></trkpt><trkpt lat="43.5104278" lon="10.8385228"><ele>175.0</ele><time>2026-04-11T15:32:15.861Z</time></trkpt><trkpt lat="43.5104787" lon="10.8386408"><ele>176.5</ele><time>2026-04-11T15:32:16.862Z</time></trkpt><trkpt lat="43.510525" lon="10.8387545"><ele>178.0</ele><time>2026-04-11T15:32:17.864Z</time></trkpt><trkpt lat="43.5105586" lon="10.8388618"><ele>179.5</ele><time>2026-04-11T15:32:18.865Z</time></trkpt><trkpt lat="43.5105698" lon="10.8389697"><ele>181.0</ele><time>2026-04-11T15:32:19.863Z</time></trkpt><trkpt lat="43.5105619" lon="10.839083"><ele>182.5</ele><time>2026-04-11T15:32:20.857Z</time></trkpt><trkpt lat="43.5105337" lon="10.839191"><ele>184.0</ele><time>2026-04-11T15:32:21.866Z</time></trkpt><trkpt lat="43.5105061" lon="10.8393176"><ele>184.0</ele><time>2026-04-11T15:32:22.866Z</time></trkpt><trkpt lat="43.5104963" lon="10.8394351"><ele>184.0</ele><time>2026-04-11T15:32:23.86Z</time></trkpt><trkpt lat="43.5105038" lon="10.8395509"><ele>184.0</ele><time>2026-04-11T15:32:24.859Z</time></trkpt><trkpt lat="43.5105373" lon="10.8396549"><ele>184.0</ele><time>2026-04-11T15:32:25.862Z</time></trkpt><trkpt lat="43.5105751" lon="10.8397489"><ele>184.0</ele><time>2026-04-11T15:32:26.86Z</time></trkpt><trkpt lat="43.5106148" lon="10.8398325"><ele>184.0</ele><time>2026-04-11T15:32:27.864Z</time></trkpt><trkpt lat="43.5106616" lon="10.8399948"><ele>184.0</ele><time>2026-04-11T15:32:29.861Z</time></trkpt><trkpt lat="43.5106653" lon="10.8400887"><ele>184.0</ele><time>2026-04-11T15:32:30.873Z</time></trkpt><trkpt lat="43.5106741" lon="10.8401975"><ele>184.0</ele><time>2026-04-11T15:32:31.865Z</time></trkpt><trkpt lat="43.5106912" lon="10.8403334"><ele>184.0</ele><time>2026-04-11T15:32:32.868Z</time></trkpt><trkpt lat="43.5107148" lon="10.8404958"><ele>184.0</ele><time>2026-04-11T15:32:33.867Z</time></trkpt><trkpt lat="43.510743" lon="10.8406708"><ele>183.75</ele><time>2026-04-11T15:32:34.871Z</time></trkpt><trkpt lat="43.5107735" lon="10.8408387"><ele>183.5</ele><time>2026-04-11T15:32:35.87Z</time></trkpt><trkpt lat="43.5107873" lon="10.8410133"><ele>183.25</ele><time>2026-04-11T15:32:36.866Z</time></trkpt><trkpt lat="43.5107926" lon="10.8411802"><ele>183.0</ele><time>2026-04-11T15:32:37.872Z</time></trkpt><trkpt lat="43.5108094" lon="10.8413256"><ele>183.0</ele><time>2026-04-11T15:32:38.874Z</time></trkpt><trkpt lat="43.5108225" lon="10.841462"><ele>183.0</ele><time>2026-04-11T15:32:39.873Z</time></trkpt><trkpt lat="43.5108399" lon="10.8416052"><ele>183.0</ele><time>2026-04-11T15:32:40.867Z</time></trkpt><trkpt lat="43.5108653" lon="10.8417366"><ele>183.0</ele><time>2026-04-11T15:32:41.866Z</time></trkpt><trkpt lat="43.5108752" lon="10.8418511"><ele>183.0</ele><time>2026-04-11T15:32:42.868Z</time></trkpt><trkpt lat="43.5109027" lon="10.8419653"><ele>183.0</ele><time>2026-04-11T15:32:43.863Z</time></trkpt><trkpt lat="43.5109438" lon="10.8420675"><ele>183.0</ele><time>2026-04-11T15:32:44.864Z</time></trkpt><trkpt lat="43.5109843" lon="10.8421751"><ele>183.0</ele><time>2026-04-11T15:32:45.868Z</time></trkpt><trkpt lat="43.5110272" lon="10.8422784"><ele>183.0</ele><time>2026-04-11T15:32:46.865Z</time></trkpt><trkpt lat="43.5110675" lon="10.8423855"><ele>183.0</ele><time>2026-04-11T15:32:47.865Z</time></trkpt><trkpt lat="43.5110931" lon="10.8425052"><ele>183.0</ele><time>2026-04-11T15:32:48.869Z</time></trkpt><trkpt lat="43.5111036" lon="10.8426349"><ele>183.0</ele><time>2026-04-11T15:32:49.868Z</time></trkpt><trkpt lat="43.5111019" lon="10.8427675"><ele>183.0</ele><time>2026-04-11T15:32:50.866Z</time></trkpt><trkpt lat="43.5111067" lon="10.8428996"><ele>183.0</ele><time>2026-04-11T15:32:51.871Z</time></trkpt><trkpt lat="43.5111009" lon="10.8430435"><ele>183.0</ele><time>2026-04-11T15:32:52.877Z</time></trkpt><trkpt lat="43.5110942" lon="10.8431983"><ele>183.0</ele><time>2026-04-11T15:32:53.873Z</time></trkpt><trkpt lat="43.5110741" lon="10.8433517"><ele>182.2</ele><time>2026-04-11T15:32:54.872Z</time></trkpt><trkpt lat="43.5110432" lon="10.8434917"><ele>181.4</ele><time>2026-04-11T15:32:55.87Z</time></trkpt><trkpt lat="43.5110187" lon="10.8436248"><ele>180.6</ele><time>2026-04-11T15:32:56.874Z</time></trkpt><trkpt lat="43.5109986" lon="10.8437562"><ele>179.79999999999998</ele><time>2026-04-11T15:32:57.87Z</time></trkpt><trkpt lat="43.5109827" lon="10.8438744"><ele>179.0</ele><time>2026-04-11T15:32:58.874Z</time></trkpt><trkpt lat="43.510973" lon="10.8439922"><ele>179.0</ele><time>2026-04-11T15:32:59.87Z</time></trkpt><trkpt lat="43.510978" lon="10.8440979"><ele>179.0</ele><time>2026-04-11T15:33:00.866Z</time></trkpt><trkpt lat="43.5109951" lon="10.8442076"><ele>179.0</ele><time>2026-04-11T15:33:01.866Z</time></trkpt><trkpt lat="43.5110189" lon="10.8443221"><ele>179.0</ele><time>2026-04-11T15:33:02.87Z</time></trkpt><trkpt lat="43.5110316" lon="10.844436"><ele>179.0</ele><time>2026-04-11T15:33:03.868Z</time></trkpt><trkpt lat="43.5110495" lon="10.8445384"><ele>179.0</ele><time>2026-04-11T15:33:04.87Z</time></trkpt><trkpt lat="43.5110659" lon="10.844633"><ele>178.6</ele><time>2026-04-11T15:33:05.866Z</time></trkpt><trkpt lat="43.5111115" lon="10.8447623"><ele>178.2</ele><time>2026-04-11T15:33:07.871Z</time></trkpt><trkpt lat="43.5111539" lon="10.8448507"><ele>177.79999999999998</ele><time>2026-04-11T15:33:09.887Z</time></trkpt><trkpt lat="43.5112064" lon="10.8449652"><ele>177.39999999999998</ele><time>2026-04-11T15:33:11.878Z</time></trkpt><trkpt lat="43.5112706" lon="10.845079"><ele>177.0</ele><time>2026-04-11T15:33:13.88Z</time></trkpt><trkpt lat="43.5113371" lon="10.8452282"><ele>177.0</ele><time>2026-04-11T15:33:15.87Z</time></trkpt><trkpt lat="43.5113763" lon="10.8453085"><ele>177.0</ele><time>2026-04-11T15:33:16.878Z</time></trkpt><trkpt lat="43.5114197" lon="10.8453937"><ele>177.0</ele><time>2026-04-11T15:33:17.884Z</time></trkpt><trkpt lat="43.5114656" lon="10.8454805"><ele>177.0</ele><time>2026-04-11T15:33:18.883Z</time></trkpt><trkpt lat="43.5115211" lon="10.8455662"><ele>177.0</ele><time>2026-04-11T15:33:19.876Z</time></trkpt><trkpt lat="43.5115681" lon="10.845641"><ele>177.0</ele><time>2026-04-11T15:33:20.88Z</time></trkpt><trkpt lat="43.5116113" lon="10.8457065"><ele>177.0</ele><time>2026-04-11T15:33:21.878Z</time></trkpt><trkpt lat="43.511649" lon="10.845785"><ele>177.0</ele><time>2026-04-11T15:33:22.881Z</time></trkpt><trkpt lat="43.5116838" lon="10.8458636"><ele>177.0</ele><time>2026-04-11T15:33:23.881Z</time></trkpt><trkpt lat="43.5117107" lon="10.8459559"><ele>177.0</ele><time>2026-04-11T15:33:24.875Z</time></trkpt><trkpt lat="43.5117332" lon="10.8460462"><ele>177.0</ele><time>2026-04-11T15:33:25.883Z</time></trkpt><trkpt lat="43.5117533" lon="10.8461411"><ele>177.0</ele><time>2026-04-11T15:33:26.879Z</time></trkpt><trkpt lat="43.5117561" lon="10.8462488"><ele>177.0</ele><time>2026-04-11T15:33:27.88Z</time></trkpt><trkpt lat="43.5117516" lon="10.8463511"><ele>177.0</ele><time>2026-04-11T15:33:28.883Z</time></trkpt><trkpt lat="43.5117374" lon="10.8464468"><ele>177.33333333333334</ele><time>2026-04-11T15:33:29.877Z</time></trkpt><trkpt lat="43.5117261" lon="10.8465404"><ele>177.66666666666666</ele><time>2026-04-11T15:33:30.878Z</time></trkpt><trkpt lat="43.511705" lon="10.8466679"><ele>178.0</ele><time>2026-04-11T15:33:32.877Z</time></trkpt><trkpt lat="43.5116767" lon="10.8467728"><ele>178.33333333333331</ele><time>2026-04-11T15:33:34.884Z</time></trkpt><trkpt lat="43.5116592" lon="10.8468702"><ele>178.66666666666666</ele><time>2026-04-11T15:33:36.884Z</time></trkpt><trkpt lat="43.5116347" lon="10.8469672"><ele>179.0</ele><time>2026-04-11T15:33:38.883Z</time></trkpt><trkpt lat="43.5116159" lon="10.8470884"><ele>179.0</ele><time>2026-04-11T15:33:40.879Z</time></trkpt><trkpt lat="43.5116108" lon="10.8472076"><ele>179.0</ele><time>2026-04-11T15:33:42.883Z</time></trkpt><trkpt lat="43.5116107" lon="10.8473219"><ele>179.0</ele><time>2026-04-11T15:33:44.882Z</time></trkpt><trkpt lat="43.5116412" lon="10.8474189"><ele>179.0</ele><time>2026-04-11T15:33:47.873Z</time></trkpt><trkpt lat="43.5116604" lon="10.8475113"><ele>179.0</ele><time>2026-04-11T15:33:49.883Z</time></trkpt><trkpt lat="43.5116829" lon="10.8476288"><ele>179.0</ele><time>2026-04-11T15:33:51.898Z</time></trkpt><trkpt lat="43.511705" lon="10.8477697"><ele>179.0</ele><time>2026-04-11T15:33:53.885Z</time></trkpt><trkpt lat="43.5117121" lon="10.8478843"><ele>179.0</ele><time>2026-04-11T15:33:55.887Z</time></trkpt><trkpt lat="43.5117224" lon="10.8479779"><ele>179.0</ele><time>2026-04-11T15:33:58.896Z</time></trkpt><trkpt lat="43.5117343" lon="10.8480807"><ele>179.0</ele><time>2026-04-11T15:34:10.894Z</time></trkpt><trkpt lat="43.511746" lon="10.848189"><ele>179.0</ele><time>2026-04-11T15:34:12.901Z</time></trkpt><trkpt lat="43.511773" lon="10.8483487"><ele>179.0</ele><time>2026-04-11T15:34:14.894Z</time></trkpt><trkpt lat="43.5118243" lon="10.848521"><ele>177.6</ele><time>2026-04-11T15:34:16.89Z</time></trkpt><trkpt lat="43.5118615" lon="10.8486162"><ele>176.2</ele><time>2026-04-11T15:34:17.889Z</time></trkpt><trkpt lat="43.5118871" lon="10.8487186"><ele>174.79999999999998</ele><time>2026-04-11T15:34:18.891Z</time></trkpt><trkpt lat="43.5119254" lon="10.8488727"><ele>173.39999999999998</ele><time>2026-04-11T15:34:20.888Z</time></trkpt><trkpt lat="43.5119831" lon="10.8490069"><ele>172.0</ele><time>2026-04-11T15:34:22.896Z</time></trkpt><trkpt lat="43.5120472" lon="10.8491425"><ele>172.2</ele><time>2026-04-11T15:34:24.888Z</time></trkpt><trkpt lat="43.512094" lon="10.849215"><ele>172.39999999999998</ele><time>2026-04-11T15:34:26.886Z</time></trkpt><trkpt lat="43.5121473" lon="10.8493188"><ele>172.60000000000002</ele><time>2026-04-11T15:34:51.904Z</time></trkpt><trkpt lat="43.5122313" lon="10.8494544"><ele>172.8</ele><time>2026-04-11T15:34:53.898Z</time></trkpt><trkpt lat="43.5122937" lon="10.8495265"><ele>173.0</ele><time>2026-04-11T15:34:54.9Z</time></trkpt><trkpt lat="43.5123504" lon="10.8496073"><ele>173.0</ele><time>2026-04-11T15:34:55.897Z</time></trkpt><trkpt lat="43.5124057" lon="10.8496908"><ele>173.0</ele><time>2026-04-11T15:34:56.894Z</time></trkpt><trkpt lat="43.5124543" lon="10.8497586"><ele>173.0</ele><time>2026-04-11T15:34:57.9Z</time></trkpt><trkpt lat="43.5125048" lon="10.8498281"><ele>173.0</ele><time>2026-04-11T15:34:58.891Z</time></trkpt><trkpt lat="43.5125613" lon="10.8499034"><ele>173.0</ele><time>2026-04-11T15:34:59.893Z</time></trkpt><trkpt lat="43.5126102" lon="10.8499732"><ele>173.0</ele><time>2026-04-11T15:35:00.892Z</time></trkpt><trkpt lat="43.5126666" lon="10.8500392"><ele>173.0</ele><time>2026-04-11T15:35:01.888Z</time></trkpt><trkpt lat="43.5127237" lon="10.8500999"><ele>172.5</ele><time>2026-04-11T15:35:02.892Z</time></trkpt><trkpt lat="43.512781" lon="10.8501609"><ele>172.0</ele><time>2026-04-11T15:35:03.89Z</time></trkpt><trkpt lat="43.512831" lon="10.8502162"><ele>171.5</ele><time>2026-04-11T15:35:04.889Z</time></trkpt><trkpt lat="43.5128832" lon="10.8502714"><ele>171.0</ele><time>2026-04-11T15:35:05.893Z</time></trkpt><trkpt lat="43.5129389" lon="10.8503337"><ele>170.5</ele><time>2026-04-11T15:35:06.889Z</time></trkpt><trkpt lat="43.5130333" lon="10.8504635"><ele>170.0</ele><time>2026-04-11T15:35:08.891Z</time></trkpt><trkpt lat="43.5130788" lon="10.8505316"><ele>170.0</ele><time>2026-04-11T15:35:09.897Z</time></trkpt><trkpt lat="43.5131664" lon="10.8506469"><ele>170.0</ele><time>2026-04-11T15:35:11.893Z</time></trkpt><trkpt lat="43.5132368" lon="10.8507789"><ele>170.0</ele><time>2026-04-11T15:35:13.897Z</time></trkpt><trkpt lat="43.5132492" lon="10.8509325"><ele>170.0</ele><time>2026-04-11T15:35:15.885Z</time></trkpt><trkpt lat="43.5132265" lon="10.8510149"><ele>170.0</ele><time>2026-04-11T15:35:16.887Z</time></trkpt><trkpt lat="43.5131549" lon="10.8511496"><ele>170.66666666666666</ele><time>2026-04-11T15:35:18.896Z</time></trkpt><trkpt lat="43.513112" lon="10.8512275"><ele>171.33333333333331</ele><time>2026-04-11T15:35:19.89Z</time></trkpt><trkpt lat="43.5130656" lon="10.8513026"><ele>172.0</ele><time>2026-04-11T15:35:20.884Z</time></trkpt><trkpt lat="43.5130225" lon="10.8513981"><ele>172.66666666666666</ele><time>2026-04-11T15:35:21.894Z</time></trkpt><trkpt lat="43.5129977" lon="10.8514991"><ele>173.33333333333334</ele><time>2026-04-11T15:35:22.894Z</time></trkpt><trkpt lat="43.5129832" lon="10.8516202"><ele>174.0</ele><time>2026-04-11T15:35:23.892Z</time></trkpt><trkpt lat="43.5129784" lon="10.8517302"><ele>174.0</ele><time>2026-04-11T15:35:24.895Z</time></trkpt><trkpt lat="43.5129717" lon="10.8519108"><ele>174.0</ele><time>2026-04-11T15:35:26.893Z</time></trkpt><trkpt lat="43.5129555" lon="10.852009"><ele>174.0</ele><time>2026-04-11T15:35:27.896Z</time></trkpt><trkpt lat="43.5129271" lon="10.8521043"><ele>174.0</ele><time>2026-04-11T15:35:28.89Z</time></trkpt><trkpt lat="43.5128958" lon="10.8522209"><ele>174.0</ele><time>2026-04-11T15:35:29.89Z</time></trkpt><trkpt lat="43.5128613" lon="10.8523144"><ele>174.0</ele><time>2026-04-11T15:35:30.896Z</time></trkpt><trkpt lat="43.5128264" lon="10.8524089"><ele>174.0</ele><time>2026-04-11T15:35:31.895Z</time></trkpt><trkpt lat="43.5127831" lon="10.8525012"><ele>174.0</ele><time>2026-04-11T15:35:32.884Z</time></trkpt><trkpt lat="43.5127345" lon="10.8525977"><ele>174.0</ele><time>2026-04-11T15:35:33.893Z</time></trkpt><trkpt lat="43.5126798" lon="10.8526737"><ele>174.0</ele><time>2026-04-11T15:35:34.892Z</time></trkpt><trkpt lat="43.5126199" lon="10.8527412"><ele>174.0</ele><time>2026-04-11T15:35:35.884Z</time></trkpt><trkpt lat="43.5125515" lon="10.8527936"><ele>174.0</ele><time>2026-04-11T15:35:36.893Z</time></trkpt><trkpt lat="43.5124777" lon="10.8528409"><ele>174.16666666666666</ele><time>2026-04-11T15:35:37.892Z</time></trkpt><trkpt lat="43.512415" lon="10.8529044"><ele>174.33333333333334</ele><time>2026-04-11T15:35:38.895Z</time></trkpt><trkpt lat="43.5123679" lon="10.8529754"><ele>174.5</ele><time>2026-04-11T15:35:39.889Z</time></trkpt><trkpt lat="43.5123214" lon="10.8531386"><ele>174.66666666666669</ele><time>2026-04-11T15:35:41.894Z</time></trkpt><trkpt lat="43.5123085" lon="10.85324"><ele>174.83333333333334</ele><time>2026-04-11T15:35:42.897Z</time></trkpt><trkpt lat="43.5123065" lon="10.8533527"><ele>175.0</ele><time>2026-04-11T15:35:43.893Z</time></trkpt><trkpt lat="43.5123135" lon="10.8534653"><ele>175.0</ele><time>2026-04-11T15:35:44.897Z</time></trkpt><trkpt lat="43.5123222" lon="10.8535806"><ele>175.0</ele><time>2026-04-11T15:35:45.891Z</time></trkpt><trkpt lat="43.5123211" lon="10.8536822"><ele>175.0</ele><time>2026-04-11T15:35:46.893Z</time></trkpt><trkpt lat="43.5123144" lon="10.8537689"><ele>175.0</ele><time>2026-04-11T15:35:47.891Z</time></trkpt><trkpt lat="43.5123006" lon="10.8538574"><ele>175.0</ele><time>2026-04-11T15:35:48.896Z</time></trkpt><trkpt lat="43.5092046" lon="10.835977"><ele>176.8</ele><time>2026-04-11T15:31:49.859Z</time></trkpt><trkpt lat="43.5092877" lon="10.8360612"><ele>178.6</ele><time>2026-04-11T15:31:50.853Z</time></trkpt><trkpt lat="43.5093654" lon="10.8361415"><ele>180.39999999999998</ele><time>2026-04-11T15:31:51.86Z</time></trkpt><trkpt lat="43.5094498" lon="10.8362197"><ele>182.2</ele><time>2026-04-11T15:31:52.856Z</time></trkpt><trkpt lat="43.5095346" lon="10.8362868"><ele>184.0</ele><time>2026-04-11T15:31:53.858Z</time></trkpt><trkpt lat="43.5096233" lon="10.8363376"><ele>184.83333333333334</ele><time>2026-04-11T15:31:54.865Z</time></trkpt><trkpt lat="43.509713" lon="10.836382"><ele>185.66666666666669</ele><time>2026-04-11T15:31:55.861Z</time></trkpt><trkpt lat="43.5097954" lon="10.8364291"><ele>186.5</ele><time>2026-04-11T15:31:56.853Z</time></trkpt><trkpt lat="43.5098655" lon="10.8364824"><ele>187.33333333333334</ele><time>2026-04-11T15:31:57.86Z</time></trkpt><trkpt lat="43.5099301" lon="10.8365368"><ele>188.16666666666666</ele><time>2026-04-11T15:31:58.859Z</time></trkpt><trkpt lat="43.5099955" lon="10.8366027"><ele>189.0</ele><time>2026-04-11T15:31:59.859Z</time></trkpt><trkpt lat="43.5100413" lon="10.8366952"><ele>187.66666666666666</ele><time>2026-04-11T15:32:00.854Z</time></trkpt><trkpt lat="43.5100791" lon="10.8368038"><ele>186.33333333333334</ele><time>2026-04-11T15:32:01.861Z</time></trkpt><trkpt lat="43.5101056" lon="10.8369167"><ele>185.0</ele><time>2026-04-11T15:32:02.859Z</time></trkpt><trkpt lat="43.5101197" lon="10.8370236"><ele>183.66666666666669</ele><time>2026-04-11T15:32:03.862Z</time></trkpt><trkpt lat="43.5101143" lon="10.8371361"><ele>182.33333333333334</ele><time>2026-04-11T15:32:04.862Z</time></trkpt><trkpt lat="43.5101166" lon="10.8372574"><ele>181.0</ele><time>2026-04-11T15:32:05.866Z</time></trkpt><trkpt lat="43.5101344" lon="10.8373786"><ele>181.0</ele><time>2026-04-11T15:32:06.869Z</time></trkpt><trkpt lat="43.5101548" lon="10.8375056"><ele>181.0</ele><time>2026-04-11T15:32:07.864Z</time></trkpt><trkpt lat="43.5101809" lon="10.8376348"><ele>181.0</ele><time>2026-04-11T15:32:08.868Z</time></trkpt><trkpt lat="43.5102296" lon="10.837764"><ele>181.0</ele><time>2026-04-11T15:32:09.864Z</time></trkpt><trkpt lat="43.5102735" lon="10.8378965"><ele>181.0</ele><time>2026-04-11T15:32:10.859Z</time></trkpt><trkpt lat="43.5103195" lon="10.8380355"><ele>179.8</ele><time>2026-04-11T15:32:11.865Z</time></trkpt><trkpt lat="43.5103505" lon="10.8381716"><ele>178.60000000000002</ele><time>2026-04-11T15:32:12.857Z</time></trkpt><trkpt lat="43.510372" lon="10.8382991"><ele>177.4</ele><time>2026-04-11T15:32:13.86Z</time></trkpt><trkpt lat="43.5103939" lon="10.8384072"><ele>176.2</ele><time>2026-04-11T15:32:14.864Z</time></trkpt><trkpt lat="43.5104278" lon="10.8385228"><ele>175.0</ele><time>2026-04-11T15:32:15.861Z</time></trkpt><trkpt lat="43.5104787" lon="10.8386408"><ele>176.5</ele><time>2026-04-11T15:32:16.862Z</time></trkpt><trkpt lat="43.510525" lon="10.8387545"><ele>178.0</ele><time>2026-04-11T15:32:17.864Z</time></trkpt><trkpt lat="43.5105586" lon="10.8388618"><ele>179.5</ele><time>2026-04-11T15:32:18.865Z</time></trkpt><trkpt lat="43.5105698" lon="10.8389697"><ele>181.0</ele><time>2026-04-11T15:32:19.863Z</time></trkpt><trkpt lat="43.5105619" lon="10.839083"><ele>182.5</ele><time>2026-04-11T15:32:20.857Z</time></trkpt><trkpt lat="43.5105337" lon="10.839191"><ele>184.0</ele><time>2026-04-11T15:32:21.866Z</time></trkpt><trkpt lat="43.5105061" lon="10.8393176"><ele>184.0</ele><time>2026-04-11T15:32:22.866Z</time></trkpt><trkpt lat="43.5104963" lon="10.8394351"><ele>184.0</ele><time>2026-04-11T15:32:23.86Z</time></trkpt><trkpt lat="43.5105038" lon="10.8395509"><ele>184.0</ele><time>2026-04-11T15:32:24.859Z</time></trkpt><trkpt lat="43.5105373" lon="10.8396549"><ele>184.0</ele><time>2026-04-11T15:32:25.862Z</time></trkpt><trkpt lat="43.5105751" lon="10.8397489"><ele>184.0</ele><time>2026-04-11T15:32:26.86Z</time></trkpt><trkpt lat="43.5106148" lon="10.8398325"><ele>184.0</ele><time>2026-04-11T15:32:27.864Z</time></trkpt><trkpt lat="43.5106616" lon="10.8399948"><ele>184.0</ele><time>2026-04-11T15:32:29.861Z</time></trkpt><trkpt lat="43.5106653" lon="10.8400887"><ele>184.0</ele><time>2026-04-11T15:32:30.873Z</time></trkpt><trkpt lat="43.5106741" lon="10.8401975"><ele>184.0</ele><time>2026-04-11T15:32:31.865Z</time></trkpt><trkpt lat="43.5106912" lon="10.8403334"><ele>184.0</ele><time>2026-04-11T15:32:32.868Z</time></trkpt><trkpt lat="43.5107148" lon="10.8404958"><ele>184.0</ele><time>2026-04-11T15:32:33.867Z</time></trkpt><trkpt lat="43.510743" lon="10.8406708"><ele>183.75</ele><time>2026-04-11T15:32:34.871Z</time></trkpt><trkpt lat="43.5107735" lon="10.8408387"><ele>183.5</ele><time>2026-04-11T15:32:35.87Z</time></trkpt><trkpt lat="43.5107873" lon="10.8410133"><ele>183.25</ele><time>2026-04-11T15:32:36.866Z</time></trkpt><trkpt lat="43.5107926" lon="10.8411802"><ele>183.0</ele><time>2026-04-11T15:32:37.872Z</time></trkpt><trkpt lat="43.5108094" lon="10.8413256"><ele>183.0</ele><time>2026-04-11T15:32:38.874Z</time></trkpt><trkpt lat="43.5108225" lon="10.841462"><ele>183.0</ele><time>2026-04-11T15:32:39.873Z</time></trkpt><trkpt lat="43.5108399" lon="10.8416052"><ele>183.0</ele><time>2026-04-11T15:32:40.867Z</time></trkpt><trkpt lat="43.5108653" lon="10.8417366"><ele>183.0</ele><time>2026-04-11T15:32:41.866Z</time></trkpt><trkpt lat="43.5108752" lon="10.8418511"><ele>183.0</ele><time>2026-04-11T15:32:42.868Z</time></trkpt><trkpt lat="43.5109027" lon="10.8419653"><ele>183.0</ele><time>2026-04-11T15:32:43.863Z</time></trkpt><trkpt lat="43.5109438" lon="10.8420675"><ele>183.0</ele><time>2026-04-11T15:32:44.864Z</time></trkpt><trkpt lat="43.5109843" lon="10.8421751"><ele>183.0</ele><time>2026-04-11T15:32:45.868Z</time></trkpt><trkpt lat="43.5110272" lon="10.8422784"><ele>183.0</ele><time>2026-04-11T15:32:46.865Z</time></trkpt><trkpt lat="43.5110675" lon="10.8423855"><ele>183.0</ele><time>2026-04-11T15:32:47.865Z</time></trkpt><trkpt lat="43.5110931" lon="10.8425052"><ele>183.0</ele><time>2026-04-11T15:32:48.869Z</time></trkpt><trkpt lat="43.5111036" lon="10.8426349"><ele>183.0</ele><time>2026-04-11T15:32:49.868Z</time></trkpt><trkpt lat="43.5111019" lon="10.8427675"><ele>183.0</ele><time>2026-04-11T15:32:50.866Z</time></trkpt><trkpt lat="43.5111067" lon="10.8428996"><ele>183.0</ele><time>2026-04-11T15:32:51.871Z</time></trkpt><trkpt lat="43.5111009" lon="10.8430435"><ele>183.0</ele><time>2026-04-11T15:32:52.877Z</time></trkpt><trkpt lat="43.5110942" lon="10.8431983"><ele>183.0</ele><time>2026-04-11T15:32:53.873Z</time></trkpt><trkpt lat="43.5110741" lon="10.8433517"><ele>182.2</ele><time>2026-04-11T15:32:54.872Z</time></trkpt><trkpt lat="43.5110432" lon="10.8434917"><ele>181.4</ele><time>2026-04-11T15:32:55.87Z</time></trkpt><trkpt lat="43.5110187" lon="10.8436248"><ele>180.6</ele><time>2026-04-11T15:32:56.874Z</time></trkpt><trkpt lat="43.5109986" lon="10.8437562"><ele>179.79999999999998</ele><time>2026-04-11T15:32:57.87Z</time></trkpt><trkpt lat="43.5109827" lon="10.8438744"><ele>179.0</ele><time>2026-04-11T15:32:58.874Z</time></trkpt><trkpt lat="43.510973" lon="10.8439922"><ele>179.0</ele><time>2026-04-11T15:32:59.87Z</time></trkpt><trkpt lat="43.510978" lon="10.8440979"><ele>179.0</ele><time>2026-04-11T15:33:00.866Z</time></trkpt><trkpt lat="43.5109951" lon="10.8442076"><ele>179.0</ele><time>2026-04-11T15:33:01.866Z</time></trkpt><trkpt lat="43.5110189" lon="10.8443221"><ele>179.0</ele><time>2026-04-11T15:33:02.87Z</time></trkpt><trkpt lat="43.5110316" lon="10.844436"><ele>179.0</ele><time>2026-04-11T15:33:03.868Z</time></trkpt><trkpt lat="43.5110495" lon="10.8445384"><ele>179.0</ele><time>2026-04-11T15:33:04.87Z</time></trkpt><trkpt lat="43.5110659" lon="10.844633"><ele>178.6</ele><time>2026-04-11T15:33:05.866Z</time></trkpt><trkpt lat="43.5111115" lon="10.8447623"><ele>178.2</ele><time>2026-04-11T15:33:07.871Z</time></trkpt><trkpt lat="43.5111539" lon="10.8448507"><ele>177.79999999999998</ele><time>2026-04-11T15:33:09.887Z</time></trkpt><trkpt lat="43.5112064" lon="10.8449652"><ele>177.39999999999998</ele><time>2026-04-11T15:33:11.878Z</time></trkpt><trkpt lat="43.5112706" lon="10.845079"><ele>177.0</ele><time>2026-04-11T15:33:13.88Z</time></trkpt><trkpt lat="43.5113371" lon="10.8452282"><ele>177.0</ele><time>2026-04-11T15:33:15.87Z</time></trkpt><trkpt lat="43.5113763" lon="10.8453085"><ele>177.0</ele><time>2026-04-11T15:33:16.878Z</time></trkpt><trkpt lat="43.5114197" lon="10.8453937"><ele>177.0</ele><time>2026-04-11T15:33:17.884Z</time></trkpt><trkpt lat="43.5114656" lon="10.8454805"><ele>177.0</ele><time>2026-04-11T15:33:18.883Z</time></trkpt><trkpt lat="43.5115211" lon="10.8455662"><ele>177.0</ele><time>2026-04-11T15:33:19.876Z</time></trkpt><trkpt lat="43.5115681" lon="10.845641"><ele>177.0</ele><time>2026-04-11T15:33:20.88Z</time></trkpt><trkpt lat="43.5116113" lon="10.8457065"><ele>177.0</ele><time>2026-04-11T15:33:21.878Z</time></trkpt><trkpt lat="43.511649" lon="10.845785"><ele>177.0</ele><time>2026-04-11T15:33:22.881Z</time></trkpt><trkpt lat="43.5116838" lon="10.8458636"><ele>177.0</ele><time>2026-04-11T15:33:23.881Z</time></trkpt><trkpt lat="43.5117107" lon="10.8459559"><ele>177.0</ele><time>2026-04-11T15:33:24.875Z</time></trkpt><trkpt lat="43.5117332" lon="10.8460462"><ele>177.0</ele><time>2026-04-11T15:33:25.883Z</time></trkpt><trkpt lat="43.5117533" lon="10.8461411"><ele>177.0</ele><time>2026-04-11T15:33:26.879Z</time></trkpt><trkpt lat="43.5117561" lon="10.8462488"><ele>177.0</ele><time>2026-04-11T15:33:27.88Z</time></trkpt><trkpt lat="43.5117516" lon="10.8463511"><ele>177.0</ele><time>2026-04-11T15:33:28.883Z</time></trkpt><trkpt lat="43.5117374" lon="10.8464468"><ele>177.33333333333334</ele><time>2026-04-11T15:33:29.877Z</time></trkpt><trkpt lat="43.5117261" lon="10.8465404"><ele>177.66666666666666</ele><time>2026-04-11T15:33:30.878Z</time></trkpt><trkpt lat="43.511705" lon="10.8466679"><ele>178.0</ele><time>2026-04-11T15:33:32.877Z</time></trkpt><trkpt lat="43.5116767" lon="10.8467728"><ele>178.33333333333331</ele><time>2026-04-11T15:33:34.884Z</time></trkpt><trkpt lat="43.5116592" lon="10.8468702"><ele>178.66666666666666</ele><time>2026-04-11T15:33:36.884Z</time></trkpt><trkpt lat="43.5116347" lon="10.8469672"><ele>179.0</ele><time>2026-04-11T15:33:38.883Z</time></trkpt><trkpt lat="43.5116159" lon="10.8470884"><ele>179.0</ele><time>2026-04-11T15:33:40.879Z</time></trkpt><trkpt lat="43.5116108" lon="10.8472076"><ele>179.0</ele><time>2026-04-11T15:33:42.883Z</time></trkpt><trkpt lat="43.5116107" lon="10.8473219"><ele>179.0</ele><time>2026-04-11T15:33:44.882Z</time></trkpt><trkpt lat="43.5116412" lon="10.8474189"><ele>179.0</ele><time>2026-04-11T15:33:47.873Z</time></trkpt><trkpt lat="43.5116604" lon="10.8475113"><ele>179.0</ele><time>2026-04-11T15:33:49.883Z</time></trkpt><trkpt lat="43.5116829" lon="10.8476288"><ele>179.0</ele><time>2026-04-11T15:33:51.898Z</time></trkpt><trkpt lat="43.511705" lon="10.8477697"><ele>179.0</ele><time>2026-04-11T15:33:53.885Z</time></trkpt><trkpt lat="43.5117121" lon="10.8478843"><ele>179.0</ele><time>2026-04-11T15:33:55.887Z</time></trkpt><trkpt lat="43.5117224" lon="10.8479779"><ele>179.0</ele><time>2026-04-11T15:33:58.896Z</time></trkpt><trkpt lat="43.5117343" lon="10.8480807"><ele>179.0</ele><time>2026-04-11T15:34:10.894Z</time></trkpt><trkpt lat="43.511746" lon="10.848189"><ele>179.0</ele><time>2026-04-11T15:34:12.901Z</time></trkpt><trkpt lat="43.511773" lon="10.8483487"><ele>179.0</ele><time>2026-04-11T15:34:14.894Z</time></trkpt><trkpt lat="43.5118243" lon="10.848521"><ele>177.6</ele><time>2026-04-11T15:34:16.89Z</time></trkpt><trkpt lat="43.5118615" lon="10.8486162"><ele>176.2</ele><time>2026-04-11T15:34:17.889Z</time></trkpt><trkpt lat="43.5118871" lon="10.8487186"><ele>174.79999999999998</ele><time>2026-04-11T15:34:18.891Z</time></trkpt><trkpt lat="43.5119254" lon="10.8488727"><ele>173.39999999999998</ele><time>2026-04-11T15:34:20.888Z</time></trkpt><trkpt lat="43.5119831" lon="10.8490069"><ele>172.0</ele><time>2026-04-11T15:34:22.896Z</time></trkpt><trkpt lat="43.5120472" lon="10.8491425"><ele>172.2</ele><time>2026-04-11T15:34:24.888Z</time></trkpt><trkpt lat="43.512094" lon="10.849215"><ele>172.39999999999998</ele><time>2026-04-11T15:34:26.886Z</time></trkpt><trkpt lat="43.5121473" lon="10.8493188"><ele>172.60000000000002</ele><time>2026-04-11T15:34:51.904Z</time></trkpt><trkpt lat="43.5122313" lon="10.8494544"><ele>172.8</ele><time>2026-04-11T15:34:53.898Z</time></trkpt><trkpt lat="43.5122937" lon="10.8495265"><ele>173.0</ele><time>2026-04-11T15:34:54.9Z</time></trkpt><trkpt lat="43.5123504" lon="10.8496073"><ele>173.0</ele><time>2026-04-11T15:34:55.897Z</time></trkpt><trkpt lat="43.5124057" lon="10.8496908"><ele>173.0</ele><time>2026-04-11T15:34:56.894Z</time></trkpt><trkpt lat="43.5124543" lon="10.8497586"><ele>173.0</ele><time>2026-04-11T15:34:57.9Z</time></trkpt><trkpt lat="43.5125048" lon="10.8498281"><ele>173.0</ele><time>2026-04-11T15:34:58.891Z</time></trkpt><trkpt lat="43.5125613" lon="10.8499034"><ele>173.0</ele><time>2026-04-11T15:34:59.893Z</time></trkpt><trkpt lat="43.5126102" lon="10.8499732"><ele>173.0</ele><time>2026-04-11T15:35:00.892Z</time></trkpt><trkpt lat="43.5126666" lon="10.8500392"><ele>173.0</ele><time>2026-04-11T15:35:01.888Z</time></trkpt><trkpt lat="43.5127237" lon="10.8500999"><ele>172.5</ele><time>2026-04-11T15:35:02.892Z</time></trkpt><trkpt lat="43.512781" lon="10.8501609"><ele>172.0</ele><time>2026-04-11T15:35:03.89Z</time></trkpt><trkpt lat="43.512831" lon="10.8502162"><ele>171.5</ele><time>2026-04-11T15:35:04.889Z</time></trkpt><trkpt lat="43.5128832" lon="10.8502714"><ele>171.0</ele><time>2026-04-11T15:35:05.893Z</time></trkpt><trkpt lat="43.5129389" lon="10.8503337"><ele>170.5</ele><time>2026-04-11T15:35:06.889Z</time></trkpt><trkpt lat="43.5130333" lon="10.8504635"><ele>170.0</ele><time>2026-04-11T15:35:08.891Z</time></trkpt><trkpt lat="43.5130788" lon="10.8505316"><ele>170.0</ele><time>2026-04-11T15:35:09.897Z</time></trkpt><trkpt lat="43.5131664" lon="10.8506469"><ele>170.0</ele><time>2026-04-11T15:35:11.893Z</time></trkpt><trkpt lat="43.5132368" lon="10.8507789"><ele>170.0</ele><time>2026-04-11T15:35:13.897Z</time></trkpt><trkpt lat="43.5132492" lon="10.8509325"><ele>170.0</ele><time>2026-04-11T15:35:15.885Z</time></trkpt><trkpt lat="43.5132265" lon="10.8510149"><ele>170.0</ele><time>2026-04-11T15:35:16.887Z</time></trkpt><trkpt lat="43.5131549" lon="10.8511496"><ele>170.66666666666666</ele><time>2026-04-11T15:35:18.896Z</time></trkpt><trkpt lat="43.513112" lon="10.8512275"><ele>171.33333333333331</ele><time>2026-04-11T15:35:19.89Z</time></trkpt><trkpt lat="43.5130656" lon="10.8513026"><ele>172.0</ele><time>2026-04-11T15:35:20.884Z</time></trkpt><trkpt lat="43.5130225" lon="10.8513981"><ele>172.66666666666666</ele><time>2026-04-11T15:35:21.894Z</time></trkpt><trkpt lat="43.5129977" lon="10.8514991"><ele>173.33333333333334</ele><time>2026-04-11T15:35:22.894Z</time></trkpt><trkpt lat="43.5129832" lon="10.8516202"><ele>174.0</ele><time>2026-04-11T15:35:23.892Z</time></trkpt><trkpt lat="43.5129784" lon="10.8517302"><ele>174.0</ele><time>2026-04-11T15:35:24.895Z</time></trkpt><trkpt lat="43.5129717" lon="10.8519108"><ele>174.0</ele><time>2026-04-11T15:35:26.893Z</time></trkpt><trkpt lat="43.5129555" lon="10.852009"><ele>174.0</ele><time>2026-04-11T15:35:27.896Z</time></trkpt><trkpt lat="43.5129271" lon="10.8521043"><ele>174.0</ele><time>2026-04-11T15:35:28.89Z</time></trkpt><trkpt lat="43.5128958" lon="10.8522209"><ele>174.0</ele><time>2026-04-11T15:35:29.89Z</time></trkpt><trkpt lat="43.5128613" lon="10.8523144"><ele>174.0</ele><time>2026-04-11T15:35:30.896Z</time></trkpt><trkpt lat="43.5128264" lon="10.8524089"><ele>174.0</ele><time>2026-04-11T15:35:31.895Z</time></trkpt><trkpt lat="43.5127831" lon="10.8525012"><ele>174.0</ele><time>2026-04-11T15:35:32.884Z</time></trkpt><trkpt lat="43.5127345" lon="10.8525977"><ele>174.0</ele><time>2026-04-11T15:35:33.893Z</time></trkpt><trkpt lat="43.5126798" lon="10.8526737"><ele>174.0</ele><time>2026-04-11T15:35:34.892Z</time></trkpt><trkpt lat="43.5126199" lon="10.8527412"><ele>174.0</ele><time>2026-04-11T15:35:35.884Z</time></trkpt><trkpt lat="43.5125515" lon="10.8527936"><ele>174.0</ele><time>2026-04-11T15:35:36.893Z</time></trkpt><trkpt lat="43.5124777" lon="10.8528409"><ele>174.16666666666666</ele><time>2026-04-11T15:35:37.892Z</time></trkpt><trkpt lat="43.512415" lon="10.8529044"><ele>174.33333333333334</ele><time>2026-04-11T15:35:38.895Z</time></trkpt><trkpt lat="43.5123679" lon="10.8529754"><ele>174.5</ele><time>2026-04-11T15:35:39.889Z</time></trkpt><trkpt lat="43.5123214" lon="10.8531386"><ele>174.66666666666669</ele><time>2026-04-11T15:35:41.894Z</time></trkpt><trkpt lat="43.5123085" lon="10.85324"><ele>174.83333333333334</ele><time>2026-04-11T15:35:42.897Z</time></trkpt><trkpt lat="43.5123065" lon="10.8533527"><ele>175.0</ele><time>2026-04-11T15:35:43.893Z</time></trkpt><trkpt lat="43.5123135" lon="10.8534653"><ele>175.0</ele><time>2026-04-11T15:35:44.897Z</time></trkpt><trkpt lat="43.5123222" lon="10.8535806"><ele>175.0</ele><time>2026-04-11T15:35:45.891Z</time></trkpt><trkpt lat="43.5123211" lon="10.8536822"><ele>175.0</ele><time>2026-04-11T15:35:46.893Z</time></trkpt><trkpt lat="43.5123144" lon="10.8537689"><ele>175.0</ele><time>2026-04-11T15:35:47.891Z</time></trkpt><trkpt lat="43.5123006" lon="10.8538574"><ele>175.0</ele><time>2026-04-11T15:35:48.896Z</time></trkpt><trkpt lat="43.5122922" lon="10.8539998"><ele>175.0</ele><time>2026-04-11T15:35:50.9Z</time></trkpt><trkpt lat="43.512282" lon="10.85414"><ele>175.2</ele><time>2026-04-11T15:35:52.898Z</time></trkpt><trkpt lat="43.5122742" lon="10.8543083"><ele>175.4</ele><time>2026-04-11T15:35:54.895Z</time></trkpt><trkpt lat="43.5122711" lon="10.8544035"><ele>175.60000000000002</ele><time>2026-04-11T15:35:55.897Z</time></trkpt><trkpt lat="43.5122665" lon="10.854526"><ele>175.8</ele><time>2026-04-11T15:35:56.895Z</time></trkpt><trkpt lat="43.5122576" lon="10.8546566"><ele>176.0</ele><time>2026-04-11T15:35:57.899Z</time></trkpt><trkpt lat="43.5122521" lon="10.8547677"><ele>176.0</ele><time>2026-04-11T15:35:58.894Z</time></trkpt><trkpt lat="43.5122434" lon="10.8548765"><ele>176.0</ele><time>2026-04-11T15:35:59.892Z</time></trkpt><trkpt lat="43.512247" lon="10.8549837"><ele>176.0</ele><time>2026-04-11T15:36:00.894Z</time></trkpt><trkpt lat="43.5122438" lon="10.8550789"><ele>176.0</ele><time>2026-04-11T15:36:01.893Z</time></trkpt><trkpt lat="43.5122279" lon="10.8551718"><ele>176.0</ele><time>2026-04-11T15:36:02.895Z</time></trkpt><trkpt lat="43.5122196" lon="10.8552819"><ele>176.0</ele><time>2026-04-11T15:36:03.892Z</time></trkpt><trkpt lat="43.5122079" lon="10.8554087"><ele>176.20000000000002</ele><time>2026-04-11T15:36:04.89Z</time></trkpt><trkpt lat="43.5121949" lon="10.8555444"><ele>176.4</ele><time>2026-04-11T15:36:06.973Z</time></trkpt><trkpt lat="43.5121825" lon="10.8556829"><ele>176.6</ele><time>2026-04-11T15:36:07.968Z</time></trkpt><trkpt lat="43.5121737" lon="10.855822"><ele>176.8</ele><time>2026-04-11T15:36:08.976Z</time></trkpt><trkpt lat="43.5121661" lon="10.8559511"><ele>177.0</ele><time>2026-04-11T15:36:09.971Z</time></trkpt><trkpt lat="43.5121417" lon="10.8561941"><ele>177.33333333333334</ele><time>2026-04-11T15:36:10.885Z</time></trkpt><trkpt lat="43.5121228" lon="10.8563143"><ele>177.66666666666666</ele><time>2026-04-11T15:36:11.884Z</time></trkpt><trkpt lat="43.5121033" lon="10.8564322"><ele>178.0</ele><time>2026-04-11T15:36:12.885Z</time></trkpt><trkpt lat="43.5120802" lon="10.8565373"><ele>178.33333333333331</ele><time>2026-04-11T15:36:13.887Z</time></trkpt><trkpt lat="43.5120614" lon="10.8566503"><ele>178.66666666666666</ele><time>2026-04-11T15:36:14.885Z</time></trkpt><trkpt lat="43.5120505" lon="10.856774"><ele>179.0</ele><time>2026-04-11T15:36:15.883Z</time></trkpt><trkpt lat="43.5120419" lon="10.8569096"><ele>179.33333333333331</ele><time>2026-04-11T15:36:16.886Z</time></trkpt><trkpt lat="43.5120325" lon="10.8570549"><ele>179.66666666666666</ele><time>2026-04-11T15:36:17.88Z</time></trkpt><trkpt lat="43.512028" lon="10.8571642"><ele>180.0</ele><time>2026-04-11T15:36:18.886Z</time></trkpt><trkpt lat="43.512034" lon="10.8572709"><ele>180.33333333333334</ele><time>2026-04-11T15:36:19.884Z</time></trkpt><trkpt lat="43.5120474" lon="10.8573634"><ele>180.66666666666669</ele><time>2026-04-11T15:36:20.883Z</time></trkpt><trkpt lat="43.5120743" lon="10.8575031"><ele>181.0</ele><time>2026-04-11T15:36:22.885Z</time></trkpt><trkpt lat="43.512118" lon="10.8576656"><ele>181.4</ele><time>2026-04-11T15:36:24.876Z</time></trkpt><trkpt lat="43.5121478" lon="10.8577518"><ele>181.8</ele><time>2026-04-11T15:36:25.878Z</time></trkpt><trkpt lat="43.5121732" lon="10.8578422"><ele>182.20000000000002</ele><time>2026-04-11T15:36:26.883Z</time></trkpt><trkpt lat="43.5122348" lon="10.8579973"><ele>182.60000000000002</ele><time>2026-04-11T15:36:28.885Z</time></trkpt><trkpt lat="43.5122596" lon="10.8580778"><ele>183.0</ele><time>2026-04-11T15:36:29.88Z</time></trkpt><trkpt lat="43.5123019" lon="10.8582383"><ele>183.0</ele><time>2026-04-11T15:36:31.884Z</time></trkpt><trkpt lat="43.5123427" lon="10.8583854"><ele>183.0</ele><time>2026-04-11T15:36:33.88Z</time></trkpt><trkpt lat="43.5124072" lon="10.8585286"><ele>183.0</ele><time>2026-04-11T15:36:35.885Z</time></trkpt><trkpt lat="43.5124392" lon="10.8586237"><ele>183.0</ele><time>2026-04-11T15:36:36.884Z</time></trkpt><trkpt lat="43.5124734" lon="10.8587061"><ele>183.0</ele><time>2026-04-11T15:36:37.881Z</time></trkpt><trkpt lat="43.5125047" lon="10.8587942"><ele>182.5</ele><time>2026-04-11T15:36:38.885Z</time></trkpt><trkpt lat="43.5125517" lon="10.8588684"><ele>182.0</ele><time>2026-04-11T15:36:39.882Z</time></trkpt><trkpt lat="43.5126078" lon="10.8589446"><ele>181.5</ele><time>2026-04-11T15:36:40.883Z</time></trkpt><trkpt lat="43.5126724" lon="10.8590257"><ele>181.0</ele><time>2026-04-11T15:36:41.877Z</time></trkpt><trkpt lat="43.5127213" lon="10.8591212"><ele>180.5</ele><time>2026-04-11T15:36:42.874Z</time></trkpt><trkpt lat="43.5127702" lon="10.8592156"><ele>180.0</ele><time>2026-04-11T15:36:43.875Z</time></trkpt><trkpt lat="43.5128513" lon="10.8593191"><ele>180.83333333333334</ele><time>2026-04-11T15:36:44.881Z</time></trkpt><trkpt lat="43.5129395" lon="10.8594114"><ele>181.66666666666666</ele><time>2026-04-11T15:36:45.875Z</time></trkpt><trkpt lat="43.5130115" lon="10.859499"><ele>182.5</ele><time>2026-04-11T15:36:46.887Z</time></trkpt><trkpt lat="43.5130747" lon="10.8595719"><ele>183.33333333333331</ele><time>2026-04-11T15:36:47.881Z</time></trkpt><trkpt lat="43.5131312" lon="10.8596508"><ele>184.16666666666666</ele><time>2026-04-11T15:36:48.88Z</time></trkpt><trkpt lat="43.5131909" lon="10.8597237"><ele>185.0</ele><time>2026-04-11T15:36:49.882Z</time></trkpt><trkpt lat="43.5132587" lon="10.8597968"><ele>185.0</ele><time>2026-04-11T15:36:50.879Z</time></trkpt><trkpt lat="43.513314" lon="10.8598723"><ele>185.0</ele><time>2026-04-11T15:36:51.876Z</time></trkpt><trkpt lat="43.5133784" lon="10.8599599"><ele>185.0</ele><time>2026-04-11T15:36:52.878Z</time></trkpt><trkpt lat="43.5134377" lon="10.8600583"><ele>185.0</ele><time>2026-04-11T15:36:53.871Z</time></trkpt><trkpt lat="43.5134973" lon="10.8601492"><ele>185.0</ele><time>2026-04-11T15:36:54.876Z</time></trkpt><trkpt lat="43.5135438" lon="10.8602322"><ele>185.0</ele><time>2026-04-11T15:36:55.877Z</time></trkpt><trkpt lat="43.5136204" lon="10.8603141"><ele>184.6</ele><time>2026-04-11T15:36:56.884Z</time></trkpt><trkpt lat="43.5136936" lon="10.8603972"><ele>184.2</ele><time>2026-04-11T15:36:57.869Z</time></trkpt><trkpt lat="43.5137886" lon="10.8604868"><ele>183.8</ele><time>2026-04-11T15:36:58.874Z</time></trkpt><trkpt lat="43.5138752" lon="10.8605458"><ele>183.4</ele><time>2026-04-11T15:36:59.881Z</time></trkpt><trkpt lat="43.51395" lon="10.8605802"><ele>183.0</ele><time>2026-04-11T15:37:00.881Z</time></trkpt><trkpt lat="43.5140175" lon="10.8605976"><ele>185.2</ele><time>2026-04-11T15:37:01.875Z</time></trkpt><trkpt lat="43.5140818" lon="10.8606175"><ele>187.4</ele><time>2026-04-11T15:37:02.888Z</time></trkpt><trkpt lat="43.5141759" lon="10.8606869"><ele>189.6</ele><time>2026-04-11T15:37:04.884Z</time></trkpt><trkpt lat="43.5142435" lon="10.8607897"><ele>191.79999999999998</ele><time>2026-04-11T15:37:06.877Z</time></trkpt><trkpt lat="43.5142935" lon="10.8609404"><ele>194.0</ele><time>2026-04-11T15:37:08.888Z</time></trkpt><trkpt lat="43.5143283" lon="10.8610141"><ele>195.6</ele><time>2026-04-11T15:37:09.886Z</time></trkpt><trkpt lat="43.5143732" lon="10.8611591"><ele>197.2</ele><time>2026-04-11T15:37:11.881Z</time></trkpt><trkpt lat="43.5143854" lon="10.8612897"><ele>198.79999999999998</ele><time>2026-04-11T15:37:13.874Z</time></trkpt><trkpt lat="43.5143959" lon="10.8613852"><ele>200.39999999999998</ele><time>2026-04-11T15:39:37.852Z</time></trkpt><trkpt lat="43.5144152" lon="10.8615359"><ele>202.0</ele><time>2026-04-11T15:39:39.868Z</time></trkpt><trkpt lat="43.5143991" lon="10.8616254"><ele>202.0</ele><time>2026-04-11T15:39:40.867Z</time></trkpt><trkpt lat="43.5143577" lon="10.8617611"><ele>202.0</ele><time>2026-04-11T15:39:42.862Z</time></trkpt><trkpt lat="43.5142675" lon="10.861833"><ele>202.0</ele><time>2026-04-11T15:39:44.864Z</time></trkpt><trkpt lat="43.5141544" lon="10.8619227"><ele>202.0</ele><time>2026-04-11T15:39:46.861Z</time></trkpt><trkpt lat="43.5140855" lon="10.8619795"><ele>202.0</ele><time>2026-04-11T15:39:47.862Z</time></trkpt><trkpt lat="43.5140402" lon="10.8620445"><ele>202.42857142857142</ele><time>2026-04-11T15:39:48.864Z</time></trkpt><trkpt lat="43.5139859" lon="10.8621072"><ele>202.85714285714283</ele><time>2026-04-11T15:39:49.866Z</time></trkpt><trkpt lat="43.5139502" lon="10.862194"><ele>203.28571428571428</ele><time>2026-04-11T15:39:50.864Z</time></trkpt><trkpt lat="43.5139273" lon="10.8622804"><ele>203.71428571428572</ele><time>2026-04-11T15:39:51.868Z</time></trkpt><trkpt lat="43.5139104" lon="10.8623772"><ele>204.14285714285714</ele><time>2026-04-11T15:39:52.872Z</time></trkpt><trkpt lat="43.5138879" lon="10.8624621"><ele>204.57142857142858</ele><time>2026-04-11T15:39:53.867Z</time></trkpt><trkpt lat="43.5138767" lon="10.8625589"><ele>205.0</ele><time>2026-04-11T15:39:54.866Z</time></trkpt><trkpt lat="43.5138712" lon="10.8626681"><ele>206.0</ele><time>2026-04-11T15:39:55.863Z</time></trkpt><trkpt lat="43.5138783" lon="10.8627855"><ele>207.0</ele><time>2026-04-11T15:39:56.863Z</time></trkpt><trkpt lat="43.5138911" lon="10.8628841"><ele>208.0</ele><time>2026-04-11T15:39:57.861Z</time></trkpt><trkpt lat="43.5139321" lon="10.8630395"><ele>209.0</ele><time>2026-04-11T15:39:59.863Z</time></trkpt><trkpt lat="43.5139945" lon="10.8631933"><ele>210.0</ele><time>2026-04-11T15:40:01.867Z</time></trkpt><trkpt lat="43.5140332" lon="10.8632782"><ele>210.0</ele><time>2026-04-11T15:40:02.869Z</time></trkpt><trkpt lat="43.5140946" lon="10.8633621"><ele>210.0</ele><time>2026-04-11T15:40:03.865Z</time></trkpt><trkpt lat="43.5141481" lon="10.8634545"><ele>210.0</ele><time>2026-04-11T15:40:04.868Z</time></trkpt><trkpt lat="43.5142035" lon="10.8635602"><ele>210.0</ele><time>2026-04-11T15:40:05.867Z</time></trkpt><trkpt lat="43.5142422" lon="10.8636694"><ele>210.0</ele><time>2026-04-11T15:40:06.863Z</time></trkpt><trkpt lat="43.5142678" lon="10.8637866"><ele>210.0</ele><time>2026-04-11T15:40:07.86Z</time></trkpt><trkpt lat="43.5142697" lon="10.863917"><ele>211.5</ele><time>2026-04-11T15:40:08.864Z</time></trkpt><trkpt lat="43.5142805" lon="10.8640712"><ele>213.0</ele><time>2026-04-11T15:40:09.863Z</time></trkpt><trkpt lat="43.5142998" lon="10.8642258"><ele>214.5</ele><time>2026-04-11T15:40:10.866Z</time></trkpt><trkpt lat="43.5143113" lon="10.8643927"><ele>216.0</ele><time>2026-04-11T15:40:11.86Z</time></trkpt><trkpt lat="43.5143228" lon="10.8645632"><ele>218.25</ele><time>2026-04-11T15:40:12.871Z</time></trkpt><trkpt lat="43.5143331" lon="10.8647374"><ele>220.5</ele><time>2026-04-11T15:40:13.873Z</time></trkpt><trkpt lat="43.5143352" lon="10.8649052"><ele>222.75</ele><time>2026-04-11T15:40:14.874Z</time></trkpt><trkpt lat="43.5143465" lon="10.8650595"><ele>225.0</ele><time>2026-04-11T15:40:15.869Z</time></trkpt><trkpt lat="43.5143603" lon="10.8652043"><ele>227.0</ele><time>2026-04-11T15:40:16.875Z</time></trkpt><trkpt lat="43.5143767" lon="10.8653677"><ele>229.0</ele><time>2026-04-11T15:40:17.871Z</time></trkpt><trkpt lat="43.514399" lon="10.8655284"><ele>231.0</ele><time>2026-04-11T15:40:18.858Z</time></trkpt><trkpt lat="43.5144093" lon="10.8656625"><ele>233.0</ele><time>2026-04-11T15:40:19.864Z</time></trkpt><trkpt lat="43.5144088" lon="10.8657845"><ele>235.0</ele><time>2026-04-11T15:40:20.871Z</time></trkpt><trkpt lat="43.5144101" lon="10.8659089"><ele>236.5</ele><time>2026-04-11T15:40:21.865Z</time></trkpt><trkpt lat="43.5144373" lon="10.8660447"><ele>238.0</ele><time>2026-04-11T15:40:22.874Z</time></trkpt><trkpt lat="43.5144692" lon="10.8662004"><ele>239.5</ele><time>2026-04-11T15:40:23.86Z</time></trkpt><trkpt lat="43.5145152" lon="10.866374"><ele>241.0</ele><time>2026-04-11T15:40:24.862Z</time></trkpt><trkpt lat="43.5145567" lon="10.8665655"><ele>239.25</ele><time>2026-04-11T15:40:25.865Z</time></trkpt><trkpt lat="43.5145938" lon="10.866741"><ele>237.5</ele><time>2026-04-11T15:40:26.859Z</time></trkpt><trkpt lat="43.514614" lon="10.8668962"><ele>235.75</ele><time>2026-04-11T15:40:27.865Z</time></trkpt><trkpt lat="43.5146224" lon="10.8670441"><ele>234.0</ele><time>2026-04-11T15:40:28.866Z</time></trkpt><trkpt lat="43.5146215" lon="10.8671834"><ele>234.0</ele><time>2026-04-11T15:40:29.859Z</time></trkpt><trkpt lat="43.5146343" lon="10.8673226"><ele>234.0</ele><time>2026-04-11T15:40:30.859Z</time></trkpt><trkpt lat="43.5146777" lon="10.8674463"><ele>234.0</ele><time>2026-04-11T15:40:31.852Z</time></trkpt><trkpt lat="43.514727" lon="10.8676016"><ele>234.0</ele><time>2026-04-11T15:40:32.856Z</time></trkpt><trkpt lat="43.5147846" lon="10.8677711"><ele>235.75</ele><time>2026-04-11T15:40:33.854Z</time></trkpt><trkpt lat="43.5148626" lon="10.8679448"><ele>237.5</ele><time>2026-04-11T15:40:34.855Z</time></trkpt><trkpt lat="43.5149194" lon="10.8680774"><ele>239.25</ele><time>2026-04-11T15:40:35.844Z</time></trkpt><trkpt lat="43.5150087" lon="10.8681755"><ele>241.0</ele><time>2026-04-11T15:40:36.853Z</time></trkpt><trkpt lat="43.5150517" lon="10.8682817"><ele>241.0</ele><time>2026-04-11T15:40:37.853Z</time></trkpt><trkpt lat="43.5151363" lon="10.8684329"><ele>241.0</ele><time>2026-04-11T15:40:38.852Z</time></trkpt><trkpt lat="43.5152321" lon="10.868588"><ele>241.0</ele><time>2026-04-11T15:40:39.849Z</time></trkpt><trkpt lat="43.5153343" lon="10.8687527"><ele>241.0</ele><time>2026-04-11T15:40:40.865Z</time></trkpt><trkpt lat="43.5154276" lon="10.8689174"><ele>243.0</ele><time>2026-04-11T15:40:41.862Z</time></trkpt><trkpt lat="43.5155399" lon="10.8690768"><ele>245.0</ele><time>2026-04-11T15:40:42.866Z</time></trkpt><trkpt lat="43.5156524" lon="10.8692112"><ele>247.0</ele><time>2026-04-11T15:40:43.863Z</time></trkpt><trkpt lat="43.5157711" lon="10.8693698"><ele>248.75</ele><time>2026-04-11T15:40:44.86Z</time></trkpt><trkpt lat="43.515877" lon="10.8695258"><ele>250.5</ele><time>2026-04-11T15:40:45.862Z</time></trkpt><trkpt lat="43.5159739" lon="10.8696756"><ele>252.25</ele><time>2026-04-11T15:40:46.861Z</time></trkpt><trkpt lat="43.5160721" lon="10.869802"><ele>254.0</ele><time>2026-04-11T15:40:47.859Z</time></trkpt><trkpt lat="43.5161734" lon="10.8699236"><ele>256.83333333333337</ele><time>2026-04-11T15:40:48.865Z</time></trkpt><trkpt lat="43.516239" lon="10.870044"><ele>259.6666666666667</ele><time>2026-04-11T15:40:49.862Z</time></trkpt><trkpt lat="43.5162933" lon="10.8701497"><ele>262.5</ele><time>2026-04-11T15:40:50.858Z</time></trkpt><trkpt lat="43.5163156" lon="10.8702353"><ele>265.3333333333333</ele><time>2026-04-11T15:40:51.858Z</time></trkpt><trkpt lat="43.5163292" lon="10.870338"><ele>268.16666666666663</ele><time>2026-04-11T15:40:52.855Z</time></trkpt><trkpt lat="43.5163169" lon="10.8704727"><ele>271.0</ele><time>2026-04-11T15:40:53.852Z</time></trkpt><trkpt lat="43.5162884" lon="10.87062"><ele>272.66666666666663</ele><time>2026-04-11T15:40:54.852Z</time></trkpt><trkpt lat="43.516283" lon="10.8707775"><ele>274.3333333333333</ele><time>2026-04-11T15:40:55.853Z</time></trkpt><trkpt lat="43.5162676" lon="10.8708946"><ele>276.0</ele><time>2026-04-11T15:40:56.857Z</time></trkpt><trkpt lat="43.516232" lon="10.8709777"><ele>277.6666666666667</ele><time>2026-04-11T15:40:57.861Z</time></trkpt><trkpt lat="43.5161772" lon="10.8710219"><ele>279.33333333333337</ele><time>2026-04-11T15:40:58.856Z</time></trkpt><trkpt lat="43.5161087" lon="10.8710361"><ele>281.0</ele><time>2026-04-11T15:40:59.851Z</time></trkpt><trkpt lat="43.5160417" lon="10.8710179"><ele>281.83333333333337</ele><time>2026-04-11T15:41:00.855Z</time></trkpt><trkpt lat="43.5159723" lon="10.8709919"><ele>282.6666666666667</ele><time>2026-04-11T15:41:01.854Z</time></trkpt><trkpt lat="43.515892" lon="10.8709877"><ele>283.5</ele><time>2026-04-11T15:41:02.852Z</time></trkpt><trkpt lat="43.5158074" lon="10.8710162"><ele>284.3333333333333</ele><time>2026-04-11T15:41:03.849Z</time></trkpt><trkpt lat="43.5157329" lon="10.871079"><ele>285.16666666666663</ele><time>2026-04-11T15:41:04.846Z</time></trkpt><trkpt lat="43.5156702" lon="10.8711755"><ele>286.0</ele><time>2026-04-11T15:41:05.857Z</time></trkpt><trkpt lat="43.5156232" lon="10.8713156"><ele>286.0</ele><time>2026-04-11T15:41:06.858Z</time></trkpt><trkpt lat="43.5155877" lon="10.8714751"><ele>286.0</ele><time>2026-04-11T15:41:07.848Z</time></trkpt><trkpt lat="43.5155705" lon="10.8716423"><ele>286.0</ele><time>2026-04-11T15:41:08.856Z</time></trkpt><trkpt lat="43.5155498" lon="10.8717935"><ele>286.0</ele><time>2026-04-11T15:41:09.853Z</time></trkpt><trkpt lat="43.5155246" lon="10.871917"><ele>286.0</ele><time>2026-04-11T15:41:10.855Z</time></trkpt><trkpt lat="43.5155169" lon="10.8720089"><ele>288.0</ele><time>2026-04-11T15:41:11.858Z</time></trkpt><trkpt lat="43.515552" lon="10.8721244"><ele>290.0</ele><time>2026-04-11T15:41:13.848Z</time></trkpt><trkpt lat="43.515667" lon="10.8721239"><ele>292.0</ele><time>2026-04-11T15:41:15.848Z</time></trkpt><trkpt lat="43.5157743" lon="10.8721219"><ele>294.0</ele><time>2026-04-11T15:41:16.844Z</time></trkpt><trkpt lat="43.5158879" lon="10.872123"><ele>296.0</ele><time>2026-04-11T15:41:17.844Z</time></trkpt><trkpt lat="43.5160139" lon="10.8721419"><ele>296.0</ele><time>2026-04-11T15:41:18.837Z</time></trkpt><trkpt lat="43.5161046" lon="10.8721876"><ele>296.0</ele><time>2026-04-11T15:41:19.837Z</time></trkpt><trkpt lat="43.5161614" lon="10.8722588"><ele>296.0</ele><time>2026-04-11T15:41:20.845Z</time></trkpt><trkpt lat="43.5161937" lon="10.872347"><ele>296.0</ele><time>2026-04-11T15:41:21.847Z</time></trkpt><trkpt lat="43.5161953" lon="10.8724691"><ele>296.0</ele><time>2026-04-11T15:41:22.856Z</time></trkpt><trkpt lat="43.5161914" lon="10.8725914"><ele>296.0</ele><time>2026-04-11T15:41:23.863Z</time></trkpt><trkpt lat="43.5162092" lon="10.8727247"><ele>299.33333333333337</ele><time>2026-04-11T15:41:24.86Z</time></trkpt><trkpt lat="43.5162592" lon="10.8728355"><ele>302.6666666666667</ele><time>2026-04-11T15:41:25.86Z</time></trkpt><trkpt lat="43.5163055" lon="10.8729169"><ele>306.0</ele><time>2026-04-11T15:41:26.861Z</time></trkpt><trkpt lat="43.516367" lon="10.8729804"><ele>309.3333333333333</ele><time>2026-04-11T15:41:27.859Z</time></trkpt><trkpt lat="43.5164099" lon="10.8730531"><ele>312.66666666666663</ele><time>2026-04-11T15:41:28.85Z</time></trkpt><trkpt lat="43.5164187" lon="10.8731889"><ele>316.0</ele><time>2026-04-11T15:41:30.852Z</time></trkpt><trkpt lat="43.5163908" lon="10.8732887"><ele>316.0</ele><time>2026-04-11T15:41:31.852Z</time></trkpt><trkpt lat="43.5163607" lon="10.8734017"><ele>316.0</ele><time>2026-04-11T15:41:32.848Z</time></trkpt><trkpt lat="43.5163433" lon="10.8735544"><ele>316.0</ele><time>2026-04-11T15:41:33.849Z</time></trkpt><trkpt lat="43.5163245" lon="10.8737118"><ele>316.0</ele><time>2026-04-11T15:41:34.851Z</time></trkpt><trkpt lat="43.5163018" lon="10.8738855"><ele>316.0</ele><time>2026-04-11T15:41:35.869Z</time></trkpt><trkpt lat="43.5162863" lon="10.874031"><ele>315.75</ele><time>2026-04-11T15:41:36.872Z</time></trkpt><trkpt lat="43.5162434" lon="10.8741678"><ele>315.5</ele><time>2026-04-11T15:41:37.856Z</time></trkpt><trkpt lat="43.5161828" lon="10.8743113"><ele>315.25</ele><time>2026-04-11T15:41:38.858Z</time></trkpt><trkpt lat="43.5160961" lon="10.8744712"><ele>315.0</ele><time>2026-04-11T15:41:39.866Z</time></trkpt><trkpt lat="43.5160211" lon="10.8745831"><ele>315.0</ele><time>2026-04-11T15:41:40.858Z</time></trkpt><trkpt lat="43.5159653" lon="10.874655"><ele>315.0</ele><time>2026-04-11T15:41:41.858Z</time></trkpt><trkpt lat="43.5158446" lon="10.8746927"><ele>315.0</ele><time>2026-04-11T15:41:43.854Z</time></trkpt><trkpt lat="43.5157731" lon="10.874683"><ele>315.0</ele><time>2026-04-11T15:41:44.855Z</time></trkpt><trkpt lat="43.5157088" lon="10.874705"><ele>315.0</ele><time>2026-04-11T15:41:45.857Z</time></trkpt><trkpt lat="43.5156501" lon="10.8747522"><ele>315.0</ele><time>2026-04-11T15:41:46.865Z</time></trkpt><trkpt lat="43.515564" lon="10.8748268"><ele>315.0</ele><time>2026-04-11T15:41:47.855Z</time></trkpt><trkpt lat="43.5154655" lon="10.8749012"><ele>315.0</ele><time>2026-04-11T15:41:48.852Z</time></trkpt><trkpt lat="43.5153643" lon="10.8749908"><ele>315.0</ele><time>2026-04-11T15:41:49.851Z</time></trkpt><trkpt lat="43.5152754" lon="10.8750837"><ele>315.0</ele><time>2026-04-11T15:41:50.857Z</time></trkpt><trkpt lat="43.5152173" lon="10.8751565"><ele>315.0</ele><time>2026-04-11T15:41:51.851Z</time></trkpt><trkpt lat="43.5151681" lon="10.8752943"><ele>315.0</ele><time>2026-04-11T15:41:53.858Z</time></trkpt><trkpt lat="43.5151661" lon="10.8753998"><ele>315.0</ele><time>2026-04-11T15:41:54.865Z</time></trkpt><trkpt lat="43.5151686" lon="10.8755115"><ele>315.0</ele><time>2026-04-11T15:41:55.871Z</time></trkpt><trkpt lat="43.5151667" lon="10.8756304"><ele>315.0</ele><time>2026-04-11T15:41:56.883Z</time></trkpt><trkpt lat="43.5151531" lon="10.8757284"><ele>315.0</ele><time>2026-04-11T15:41:57.871Z</time></trkpt><trkpt lat="43.5151243" lon="10.8758134"><ele>315.0</ele><time>2026-04-11T15:41:58.873Z</time></trkpt><trkpt lat="43.5151038" lon="10.875953"><ele>317.0</ele><time>2026-04-11T15:42:00.871Z</time></trkpt><trkpt lat="43.5151474" lon="10.876037"><ele>319.0</ele><time>2026-04-11T15:42:22.872Z</time></trkpt><trkpt lat="43.515227" lon="10.876041"><ele>321.0</ele><time>2026-04-11T15:42:24.869Z</time></trkpt><trkpt lat="43.5153238" lon="10.8760511"><ele>323.0</ele><time>2026-04-11T15:42:25.864Z</time></trkpt><trkpt lat="43.5154359" lon="10.8760922"><ele>325.0</ele><time>2026-04-11T15:42:26.873Z</time></trkpt><trkpt lat="43.5155508" lon="10.8761563"><ele>326.75</ele><time>2026-04-11T15:42:27.866Z</time></trkpt><trkpt lat="43.515658" lon="10.8762482"><ele>328.5</ele><time>2026-04-11T15:42:28.863Z</time></trkpt><trkpt lat="43.5157614" lon="10.8763321"><ele>330.25</ele><time>2026-04-11T15:42:29.866Z</time></trkpt><trkpt lat="43.5158733" lon="10.876386"><ele>332.0</ele><time>2026-04-11T15:42:30.864Z</time></trkpt><trkpt lat="43.5160033" lon="10.8763768"><ele>332.0</ele><time>2026-04-11T15:42:31.86Z</time></trkpt><trkpt lat="43.5161474" lon="10.8763165"><ele>332.0</ele><time>2026-04-11T15:42:32.862Z</time></trkpt><trkpt lat="43.5162956" lon="10.8762073"><ele>332.0</ele><time>2026-04-11T15:42:33.865Z</time></trkpt><trkpt lat="43.5164507" lon="10.8760855"><ele>333.0</ele><time>2026-04-11T15:42:34.867Z</time></trkpt><trkpt lat="43.5166156" lon="10.875989"><ele>334.0</ele><time>2026-04-11T15:42:36.948Z</time></trkpt><trkpt lat="43.5167527" lon="10.875912"><ele>335.0</ele><time>2026-04-11T15:42:37.939Z</time></trkpt><trkpt lat="43.5169337" lon="10.875659"><ele>335.0</ele><time>2026-04-11T15:42:38.853Z</time></trkpt><trkpt lat="43.5169648" lon="10.8754775"><ele>335.0</ele><time>2026-04-11T15:42:39.843Z</time></trkpt><trkpt lat="43.5170153" lon="10.8753026"><ele>335.0</ele><time>2026-04-11T15:42:40.847Z</time></trkpt><trkpt lat="43.5170516" lon="10.8751346"><ele>335.0</ele><time>2026-04-11T15:42:41.847Z</time></trkpt><trkpt lat="43.5171198" lon="10.8749942"><ele>337.25</ele><time>2026-04-11T15:42:42.847Z</time></trkpt><trkpt lat="43.5172071" lon="10.8748717"><ele>339.5</ele><time>2026-04-11T15:42:43.845Z</time></trkpt><trkpt lat="43.5173106" lon="10.874775"><ele>341.75</ele><time>2026-04-11T15:42:44.853Z</time></trkpt><trkpt lat="43.5174485" lon="10.874708"><ele>344.0</ele><time>2026-04-11T15:42:45.851Z</time></trkpt><trkpt lat="43.5176253" lon="10.8747153"><ele>344.0</ele><time>2026-04-11T15:42:46.846Z</time></trkpt><trkpt lat="43.5177899" lon="10.8746969"><ele>344.0</ele><time>2026-04-11T15:42:47.841Z</time></trkpt><trkpt lat="43.5179688" lon="10.8747289"><ele>344.0</ele><time>2026-04-11T15:42:48.844Z</time></trkpt><trkpt lat="43.5181404" lon="10.8747569"><ele>346.6666666666667</ele><time>2026-04-11T15:42:49.841Z</time></trkpt><trkpt lat="43.5183254" lon="10.8747689"><ele>349.3333333333333</ele><time>2026-04-11T15:42:50.842Z</time></trkpt><trkpt lat="43.5185052" lon="10.8748116"><ele>352.0</ele><time>2026-04-11T15:42:51.846Z</time></trkpt><trkpt lat="43.5186673" lon="10.8748621"><ele>350.6</ele><time>2026-04-11T15:42:52.851Z</time></trkpt><trkpt lat="43.5187918" lon="10.8748818"><ele>349.20000000000005</ele><time>2026-04-11T15:42:53.844Z</time></trkpt><trkpt lat="43.5189165" lon="10.8748985"><ele>347.8</ele><time>2026-04-11T15:42:54.847Z</time></trkpt><trkpt lat="43.5189953" lon="10.8749447"><ele>346.4</ele><time>2026-04-11T15:42:55.855Z</time></trkpt><trkpt lat="43.5191034" lon="10.8749772"><ele>345.0</ele><time>2026-04-11T15:42:56.85Z</time></trkpt><trkpt lat="43.5191907" lon="10.8750681"><ele>347.0</ele><time>2026-04-11T15:42:57.853Z</time></trkpt><trkpt lat="43.5192426" lon="10.8752277"><ele>349.0</ele><time>2026-04-11T15:42:58.847Z</time></trkpt><trkpt lat="43.5192947" lon="10.8754227"><ele>351.0</ele><time>2026-04-11T15:42:59.849Z</time></trkpt><trkpt lat="43.5193551" lon="10.8756085"><ele>353.0</ele><time>2026-04-11T15:43:00.845Z</time></trkpt><trkpt lat="43.5193959" lon="10.8757793"><ele>353.0</ele><time>2026-04-11T15:43:01.845Z</time></trkpt><trkpt lat="43.5194812" lon="10.8759271"><ele>353.0</ele><time>2026-04-11T15:43:02.84Z</time></trkpt><trkpt lat="43.5195918" lon="10.8760504"><ele>353.0</ele><time>2026-04-11T15:43:03.84Z</time></trkpt><trkpt lat="43.5197169" lon="10.8761482"><ele>353.0</ele><time>2026-04-11T15:43:04.847Z</time></trkpt><trkpt lat="43.5197883" lon="10.8762607"><ele>350.25</ele><time>2026-04-11T15:43:05.847Z</time></trkpt><trkpt lat="43.5198438" lon="10.8764047"><ele>347.5</ele><time>2026-04-11T15:43:06.85Z</time></trkpt><trkpt lat="43.5198617" lon="10.8766021"><ele>344.75</ele><time>2026-04-11T15:43:07.845Z</time></trkpt><trkpt lat="43.5198913" lon="10.8768108"><ele>342.0</ele><time>2026-04-11T15:43:08.841Z</time></trkpt><trkpt lat="43.5199196" lon="10.8770417"><ele>342.0</ele><time>2026-04-11T15:43:09.846Z</time></trkpt><trkpt lat="43.5199621" lon="10.8772917"><ele>342.0</ele><time>2026-04-11T15:43:10.853Z</time></trkpt><trkpt lat="43.5199781" lon="10.8775481"><ele>342.0</ele><time>2026-04-11T15:43:11.856Z</time></trkpt><trkpt lat="43.5200547" lon="10.8778044"><ele>343.6666666666667</ele><time>2026-04-11T15:43:12.856Z</time></trkpt><trkpt lat="43.5201287" lon="10.8780553"><ele>345.33333333333337</ele><time>2026-04-11T15:43:13.847Z</time></trkpt><trkpt lat="43.5201797" lon="10.8782602"><ele>347.0</ele><time>2026-04-11T15:43:14.845Z</time></trkpt><trkpt lat="43.5202221" lon="10.8784172"><ele>344.25</ele><time>2026-04-11T15:43:15.845Z</time></trkpt><trkpt lat="43.5202267" lon="10.8785751"><ele>341.5</ele><time>2026-04-11T15:43:16.846Z</time></trkpt><trkpt lat="43.5202351" lon="10.8787279"><ele>338.75</ele><time>2026-04-11T15:43:17.846Z</time></trkpt><trkpt lat="43.5202058" lon="10.8788983"><ele>336.0</ele><time>2026-04-11T15:43:18.849Z</time></trkpt><trkpt lat="43.5201311" lon="10.879026"><ele>336.0</ele><time>2026-04-11T15:43:19.847Z</time></trkpt><trkpt lat="43.5200538" lon="10.8791376"><ele>336.0</ele><time>2026-04-11T15:43:20.849Z</time></trkpt><trkpt lat="43.5199573" lon="10.879217"><ele>336.0</ele><time>2026-04-11T15:43:21.851Z</time></trkpt><trkpt lat="43.5198558" lon="10.8792743"><ele>336.0</ele><time>2026-04-11T15:43:22.851Z</time></trkpt><trkpt lat="43.5197425" lon="10.8792921"><ele>336.0</ele><time>2026-04-11T15:43:23.85Z</time></trkpt><trkpt lat="43.5196154" lon="10.8792631"><ele>337.75</ele><time>2026-04-11T15:43:24.844Z</time></trkpt><trkpt lat="43.5194903" lon="10.8792051"><ele>339.5</ele><time>2026-04-11T15:43:25.843Z</time></trkpt><trkpt lat="43.5193721" lon="10.8791619"><ele>341.25</ele><time>2026-04-11T15:43:26.84Z</time></trkpt><trkpt lat="43.5192502" lon="10.8791417"><ele>343.0</ele><time>2026-04-11T15:43:27.84Z</time></trkpt><trkpt lat="43.5191496" lon="10.8791536"><ele>343.0</ele><time>2026-04-11T15:43:28.84Z</time></trkpt><trkpt lat="43.5190544" lon="10.8792086"><ele>343.0</ele><time>2026-04-11T15:43:29.836Z</time></trkpt><trkpt lat="43.5189778" lon="10.8792999"><ele>343.0</ele><time>2026-04-11T15:43:30.836Z</time></trkpt><trkpt lat="43.5189281" lon="10.8794174"><ele>343.0</ele><time>2026-04-11T15:43:31.836Z</time></trkpt><trkpt lat="43.518909" lon="10.8795526"><ele>343.0</ele><time>2026-04-11T15:43:32.836Z</time></trkpt><trkpt lat="43.5189309" lon="10.8796764"><ele>342.5</ele><time>2026-04-11T15:43:33.833Z</time></trkpt><trkpt lat="43.5190297" lon="10.8797812"><ele>342.0</ele><time>2026-04-11T15:43:35.833Z</time></trkpt><trkpt lat="43.5191398" lon="10.8797882"><ele>341.5</ele><time>2026-04-11T15:43:36.837Z</time></trkpt><trkpt lat="43.5192768" lon="10.8797852"><ele>341.0</ele><time>2026-04-11T15:43:37.829Z</time></trkpt><trkpt lat="43.5194162" lon="10.879831"><ele>341.0</ele><time>2026-04-11T15:43:38.827Z</time></trkpt><trkpt lat="43.5195438" lon="10.8799155"><ele>341.0</ele><time>2026-04-11T15:43:39.841Z</time></trkpt><trkpt lat="43.5196276" lon="10.8800377"><ele>341.0</ele><time>2026-04-11T15:43:40.838Z</time></trkpt><trkpt lat="43.5196818" lon="10.8801705"><ele>341.0</ele><time>2026-04-11T15:43:41.839Z</time></trkpt><trkpt lat="43.5197002" lon="10.8803125"><ele>340.75</ele><time>2026-04-11T15:43:42.847Z</time></trkpt><trkpt lat="43.5196791" lon="10.8804707"><ele>340.5</ele><time>2026-04-11T15:43:43.845Z</time></trkpt><trkpt lat="43.5196477" lon="10.8806693"><ele>340.25</ele><time>2026-04-11T15:43:44.842Z</time></trkpt><trkpt lat="43.5196149" lon="10.8808864"><ele>340.0</ele><time>2026-04-11T15:43:45.848Z</time></trkpt><trkpt lat="43.5195811" lon="10.8811665"><ele>347.0</ele><time>2026-04-11T15:43:46.857Z</time></trkpt><trkpt lat="43.519562" lon="10.8814286"><ele>354.0</ele><time>2026-04-11T15:43:47.848Z</time></trkpt><trkpt lat="43.5195216" lon="10.8816486"><ele>361.0</ele><time>2026-04-11T15:43:48.849Z</time></trkpt><trkpt lat="43.519467" lon="10.8818742"><ele>362.3333333333333</ele><time>2026-04-11T15:43:49.844Z</time></trkpt><trkpt lat="43.5194979" lon="10.8820784"><ele>363.6666666666667</ele><time>2026-04-11T15:43:50.846Z</time></trkpt><trkpt lat="43.5195255" lon="10.8822612"><ele>365.0</ele><time>2026-04-11T15:43:51.846Z</time></trkpt><trkpt lat="43.519624" lon="10.8824503"><ele>363.6666666666667</ele><time>2026-04-11T15:43:52.855Z</time></trkpt><trkpt lat="43.519715" lon="10.8826328"><ele>362.3333333333333</ele><time>2026-04-11T15:43:53.848Z</time></trkpt><trkpt lat="43.5198012" lon="10.8827795"><ele>361.0</ele><time>2026-04-11T15:43:54.846Z</time></trkpt><trkpt lat="43.5199437" lon="10.8828989"><ele>361.0</ele><time>2026-04-11T15:43:55.841Z</time></trkpt><trkpt lat="43.5200811" lon="10.8829876"><ele>361.0</ele><time>2026-04-11T15:43:56.84Z</time></trkpt><trkpt lat="43.5202169" lon="10.8830813"><ele>361.0</ele><time>2026-04-11T15:43:57.844Z</time></trkpt><trkpt lat="43.5203238" lon="10.8831477"><ele>361.0</ele><time>2026-04-11T15:43:58.844Z</time></trkpt><trkpt lat="43.5204124" lon="10.8831868"><ele>359.75</ele><time>2026-04-11T15:43:59.84Z</time></trkpt><trkpt lat="43.5205627" lon="10.8831587"><ele>358.5</ele><time>2026-04-11T15:44:00.841Z</time></trkpt><trkpt lat="43.5206807" lon="10.8831029"><ele>357.25</ele><time>2026-04-11T15:44:01.838Z</time></trkpt><trkpt lat="43.5207955" lon="10.8830622"><ele>356.0</ele><time>2026-04-11T15:44:02.833Z</time></trkpt><trkpt lat="43.520918" lon="10.8830669"><ele>356.0</ele><time>2026-04-11T15:44:03.831Z</time></trkpt><trkpt lat="43.5210421" lon="10.8831091"><ele>356.0</ele><time>2026-04-11T15:44:04.832Z</time></trkpt><trkpt lat="43.5211706" lon="10.8831988"><ele>356.0</ele><time>2026-04-11T15:44:05.838Z</time></trkpt><trkpt lat="43.5212817" lon="10.8833082"><ele>356.0</ele><time>2026-04-11T15:44:06.842Z</time></trkpt><trkpt lat="43.5213136" lon="10.8835045"><ele>352.5</ele><time>2026-04-11T15:44:07.849Z</time></trkpt><trkpt lat="43.5213267" lon="10.8837048"><ele>349.0</ele><time>2026-04-11T15:44:08.844Z</time></trkpt><trkpt lat="43.5213486" lon="10.8838549"><ele>345.5</ele><time>2026-04-11T15:44:09.838Z</time></trkpt><trkpt lat="43.5213017" lon="10.8840091"><ele>342.0</ele><time>2026-04-11T15:44:10.844Z</time></trkpt><trkpt lat="43.5212461" lon="10.8841532"><ele>348.25</ele><time>2026-04-11T15:44:11.844Z</time></trkpt><trkpt lat="43.5211626" lon="10.8842793"><ele>354.5</ele><time>2026-04-11T15:44:12.849Z</time></trkpt><trkpt lat="43.5210768" lon="10.8844177"><ele>360.75</ele><time>2026-04-11T15:44:13.848Z</time></trkpt><trkpt lat="43.52107" lon="10.8846074"><ele>367.0</ele><time>2026-04-11T15:44:14.844Z</time></trkpt><trkpt lat="43.5210626" lon="10.8847953"><ele>367.0</ele><time>2026-04-11T15:44:15.855Z</time></trkpt><trkpt lat="43.5211096" lon="10.8850062"><ele>367.0</ele><time>2026-04-11T15:44:16.855Z</time></trkpt><trkpt lat="43.5212607" lon="10.8852669"><ele>367.0</ele><time>2026-04-11T15:44:17.851Z</time></trkpt><trkpt lat="43.5214175" lon="10.8855459"><ele>368.0</ele><time>2026-04-11T15:44:18.849Z</time></trkpt><trkpt lat="43.5215604" lon="10.8857948"><ele>369.0</ele><time>2026-04-11T15:44:19.852Z</time></trkpt><trkpt lat="43.5217106" lon="10.8859948"><ele>370.0</ele><time>2026-04-11T15:44:20.852Z</time></trkpt><trkpt lat="43.5218199" lon="10.8862331"><ele>370.0</ele><time>2026-04-11T15:44:21.853Z</time></trkpt><trkpt lat="43.5219199" lon="10.8864777"><ele>370.0</ele><time>2026-04-11T15:44:22.855Z</time></trkpt><trkpt lat="43.5220296" lon="10.8867349"><ele>370.0</ele><time>2026-04-11T15:44:23.848Z</time></trkpt><trkpt lat="43.5221184" lon="10.8870073"><ele>370.66666666666663</ele><time>2026-04-11T15:44:24.854Z</time></trkpt><trkpt lat="43.5222035" lon="10.8872219"><ele>371.3333333333333</ele><time>2026-04-11T15:44:25.848Z</time></trkpt><trkpt lat="43.5222696" lon="10.8874631"><ele>372.0</ele><time>2026-04-11T15:44:26.851Z</time></trkpt><trkpt lat="43.5223206" lon="10.8876828"><ele>372.0</ele><time>2026-04-11T15:44:27.854Z</time></trkpt><trkpt lat="43.5223594" lon="10.8878899"><ele>372.0</ele><time>2026-04-11T15:44:28.857Z</time></trkpt><trkpt lat="43.5223703" lon="10.8881253"><ele>372.0</ele><time>2026-04-11T15:44:29.85Z</time></trkpt><trkpt lat="43.5223741" lon="10.8883603"><ele>374.6666666666667</ele><time>2026-04-11T15:44:30.857Z</time></trkpt><trkpt lat="43.5223644" lon="10.8885962"><ele>377.33333333333337</ele><time>2026-04-11T15:44:31.863Z</time></trkpt><trkpt lat="43.5223164" lon="10.8888373"><ele>380.0</ele><time>2026-04-11T15:44:32.864Z</time></trkpt><trkpt lat="43.5222953" lon="10.8891109"><ele>382.6666666666667</ele><time>2026-04-11T15:44:33.861Z</time></trkpt><trkpt lat="43.5222812" lon="10.8893365"><ele>385.33333333333337</ele><time>2026-04-11T15:44:34.858Z</time></trkpt><trkpt lat="43.5222346" lon="10.8895394"><ele>388.0</ele><time>2026-04-11T15:44:35.863Z</time></trkpt><trkpt lat="43.5222347" lon="10.8897328"><ele>388.0</ele><time>2026-04-11T15:44:36.852Z</time></trkpt><trkpt lat="43.5222105" lon="10.8899504"><ele>388.0</ele><time>2026-04-11T15:44:37.856Z</time></trkpt><trkpt lat="43.5222137" lon="10.890135"><ele>388.0</ele><time>2026-04-11T15:44:38.853Z</time></trkpt><trkpt lat="43.5222142" lon="10.8903121"><ele>388.0</ele><time>2026-04-11T15:44:39.852Z</time></trkpt><trkpt lat="43.52223" lon="10.8904944"><ele>389.33333333333337</ele><time>2026-04-11T15:44:40.851Z</time></trkpt><trkpt lat="43.5222675" lon="10.8906912"><ele>390.66666666666663</ele><time>2026-04-11T15:44:41.852Z</time></trkpt><trkpt lat="43.5223186" lon="10.8909128"><ele>392.0</ele><time>2026-04-11T15:44:42.849Z</time></trkpt><trkpt lat="43.5223957" lon="10.8911478"><ele>393.3333333333333</ele><time>2026-04-11T15:44:43.873Z</time></trkpt><trkpt lat="43.5224704" lon="10.8913968"><ele>394.66666666666663</ele><time>2026-04-11T15:44:44.865Z</time></trkpt><trkpt lat="43.522542" lon="10.8916407"><ele>396.0</ele><time>2026-04-11T15:44:45.865Z</time></trkpt><trkpt lat="43.5226289" lon="10.8918827"><ele>398.0</ele><time>2026-04-11T15:44:46.86Z</time></trkpt><trkpt lat="43.5227021" lon="10.8921142"><ele>400.0</ele><time>2026-04-11T15:44:47.866Z</time></trkpt><trkpt lat="43.5227902" lon="10.8923638"><ele>402.0</ele><time>2026-04-11T15:44:49.938Z</time></trkpt><trkpt lat="43.5228659" lon="10.8926048"><ele>401.33333333333337</ele><time>2026-04-11T15:44:50.942Z</time></trkpt><trkpt lat="43.5229445" lon="10.8928418"><ele>400.6666666666667</ele><time>2026-04-11T15:44:51.94Z</time></trkpt><trkpt lat="43.5230204" lon="10.8930747"><ele>400.0</ele><time>2026-04-11T15:44:52.951Z</time></trkpt><trkpt lat="43.5230974" lon="10.8932959"><ele>402.6666666666667</ele><time>2026-04-11T15:44:53.938Z</time></trkpt><trkpt lat="43.5231665" lon="10.8935028"><ele>405.33333333333337</ele><time>2026-04-11T15:44:54.944Z</time></trkpt><trkpt lat="43.5232294" lon="10.8936952"><ele>408.0</ele><time>2026-04-11T15:44:55.946Z</time></trkpt><trkpt lat="43.523289" lon="10.8938762"><ele>408.0</ele><time>2026-04-11T15:44:56.944Z</time></trkpt><trkpt lat="43.5233469" lon="10.8940495"><ele>408.0</ele><time>2026-04-11T15:44:57.945Z</time></trkpt><trkpt lat="43.5234101" lon="10.8942163"><ele>408.0</ele><time>2026-04-11T15:44:58.95Z</time></trkpt><trkpt lat="43.5234696" lon="10.8943813"><ele>408.0</ele><time>2026-04-11T15:44:59.952Z</time></trkpt><trkpt lat="43.5235503" lon="10.8945337"><ele>407.75</ele><time>2026-04-11T15:45:00.949Z</time></trkpt><trkpt lat="43.5236154" lon="10.8947104"><ele>407.5</ele><time>2026-04-11T15:45:01.949Z</time></trkpt><trkpt lat="43.5236777" lon="10.8948782"><ele>407.25</ele><time>2026-04-11T15:45:02.943Z</time></trkpt><trkpt lat="43.523736" lon="10.8950451"><ele>407.0</ele><time>2026-04-11T15:45:03.931Z</time></trkpt><trkpt lat="43.5237922" lon="10.8952233"><ele>407.0</ele><time>2026-04-11T15:45:04.933Z</time></trkpt><trkpt lat="43.5238448" lon="10.8954057"><ele>407.0</ele><time>2026-04-11T15:45:05.919Z</time></trkpt><trkpt lat="43.5238923" lon="10.8955996"><ele>407.0</ele><time>2026-04-11T15:45:06.918Z</time></trkpt><trkpt lat="43.5239393" lon="10.8957955"><ele>407.0</ele><time>2026-04-11T15:45:07.918Z</time></trkpt><trkpt lat="43.5239834" lon="10.8959869"><ele>408.25</ele><time>2026-04-11T15:45:08.918Z</time></trkpt><trkpt lat="43.5240235" lon="10.8961746"><ele>409.5</ele><time>2026-04-11T15:45:09.936Z</time></trkpt><trkpt lat="43.5240604" lon="10.8963632"><ele>410.75</ele><time>2026-04-11T15:45:10.933Z</time></trkpt><trkpt lat="43.5240956" lon="10.8965389"><ele>412.0</ele><time>2026-04-11T15:45:11.935Z</time></trkpt><trkpt lat="43.5241267" lon="10.896698"><ele>412.25</ele><time>2026-04-11T15:45:12.937Z</time></trkpt><trkpt lat="43.5241632" lon="10.896856"><ele>412.5</ele><time>2026-04-11T15:45:13.929Z</time></trkpt><trkpt lat="43.524195" lon="10.8970152"><ele>412.75</ele><time>2026-04-11T15:45:14.936Z</time></trkpt><trkpt lat="43.5242294" lon="10.8971756"><ele>413.0</ele><time>2026-04-11T15:45:15.925Z</time></trkpt><trkpt lat="43.5242651" lon="10.8973414"><ele>413.0</ele><time>2026-04-11T15:45:16.927Z</time></trkpt><trkpt lat="43.5243011" lon="10.8975098"><ele>413.0</ele><time>2026-04-11T15:45:17.922Z</time></trkpt><trkpt lat="43.524339" lon="10.8976978"><ele>413.0</ele><time>2026-04-11T15:45:18.92Z</time></trkpt><trkpt lat="43.524375" lon="10.8978961"><ele>413.0</ele><time>2026-04-11T15:45:19.926Z</time></trkpt><trkpt lat="43.5244163" lon="10.8981476"><ele>414.25</ele><time>2026-04-11T15:45:20.927Z</time></trkpt><trkpt lat="43.5244339" lon="10.898232"><ele>415.5</ele><time>2026-04-11T15:45:21.923Z</time></trkpt><trkpt lat="43.5244684" lon="10.8984754"><ele>416.75</ele><time>2026-04-11T15:45:22.933Z</time></trkpt><trkpt lat="43.5245181" lon="10.8986956"><ele>418.0</ele><time>2026-04-11T15:45:23.913Z</time></trkpt><trkpt lat="43.5245548" lon="10.898953"><ele>416.0</ele><time>2026-04-11T15:45:24.915Z</time></trkpt><trkpt lat="43.5245997" lon="10.899241"><ele>414.0</ele><time>2026-04-11T15:45:25.914Z</time></trkpt><trkpt lat="43.5246434" lon="10.8995297"><ele>412.0</ele><time>2026-04-11T15:45:26.917Z</time></trkpt><trkpt lat="43.5246864" lon="10.8998301"><ele>418.0</ele><time>2026-04-11T15:45:27.924Z</time></trkpt><trkpt lat="43.524412" lon="10.898097"><ele>418.0</ele><time>2026-04-11T15:45:28.871Z</time></trkpt><trkpt lat="43.5245019" lon="10.8980485"><ele>418.0</ele><time>2026-04-11T15:45:31.857Z</time></trkpt><trkpt lat="43.5245646" lon="10.8979314"><ele>418.0</ele><time>2026-04-11T15:45:32.842Z</time></trkpt><trkpt lat="43.5246416" lon="10.897784"><ele>418.0</ele><time>2026-04-11T15:45:33.836Z</time></trkpt><trkpt lat="43.524726" lon="10.8975992"><ele>416.6666666666667</ele><time>2026-04-11T15:45:34.84Z</time></trkpt><trkpt lat="43.5248279" lon="10.8973761"><ele>415.33333333333337</ele><time>2026-04-11T15:45:35.835Z</time></trkpt><trkpt lat="43.5249507" lon="10.8971151"><ele>414.0</ele><time>2026-04-11T15:45:36.846Z</time></trkpt><trkpt lat="43.525069" lon="10.8969274"><ele>414.0</ele><time>2026-04-11T15:45:37.84Z</time></trkpt><trkpt lat="43.5251951" lon="10.8967149"><ele>414.0</ele><time>2026-04-11T15:45:38.838Z</time></trkpt><trkpt lat="43.5253214" lon="10.8965837"><ele>414.0</ele><time>2026-04-11T15:45:39.84Z</time></trkpt><trkpt lat="43.5254781" lon="10.8964646"><ele>410.66666666666663</ele><time>2026-04-11T15:45:40.841Z</time></trkpt><trkpt lat="43.5256202" lon="10.896396"><ele>407.3333333333333</ele><time>2026-04-11T15:45:41.843Z</time></trkpt><trkpt lat="43.5257582" lon="10.8963837"><ele>404.0</ele><time>2026-04-11T15:45:42.833Z</time></trkpt><trkpt lat="43.5259228" lon="10.8964258"><ele>404.0</ele><time>2026-04-11T15:45:43.848Z</time></trkpt><trkpt lat="43.5260823" lon="10.8964724"><ele>404.0</ele><time>2026-04-11T15:45:44.841Z</time></trkpt><trkpt lat="43.5262232" lon="10.8965302"><ele>404.0</ele><time>2026-04-11T15:45:45.839Z</time></trkpt><trkpt lat="43.5263819" lon="10.8965986"><ele>400.3333333333333</ele><time>2026-04-11T15:45:46.846Z</time></trkpt><trkpt lat="43.5265825" lon="10.8966721"><ele>396.66666666666663</ele><time>2026-04-11T15:45:47.846Z</time></trkpt><trkpt lat="43.5267529" lon="10.8967719"><ele>393.0</ele><time>2026-04-11T15:45:48.844Z</time></trkpt><trkpt lat="43.5269475" lon="10.8968601"><ele>393.5</ele><time>2026-04-11T15:45:49.842Z</time></trkpt><trkpt lat="43.527195" lon="10.8969663"><ele>394.0</ele><time>2026-04-11T15:45:50.851Z</time></trkpt><trkpt lat="43.5273954" lon="10.8970297"><ele>394.0</ele><time>2026-04-11T15:45:51.851Z</time></trkpt><trkpt lat="43.5275979" lon="10.8971028"><ele>394.0</ele><time>2026-04-11T15:45:52.846Z</time></trkpt><trkpt lat="43.5278012" lon="10.8972014"><ele>394.0</ele><time>2026-04-11T15:45:53.844Z</time></trkpt><trkpt lat="43.527987" lon="10.8972531"><ele>395.0</ele><time>2026-04-11T15:45:54.845Z</time></trkpt><trkpt lat="43.5281599" lon="10.8972929"><ele>396.0</ele><time>2026-04-11T15:45:55.846Z</time></trkpt><trkpt lat="43.5283198" lon="10.8973144"><ele>397.0</ele><time>2026-04-11T15:45:56.839Z</time></trkpt><trkpt lat="43.5285049" lon="10.8973506"><ele>397.0</ele><time>2026-04-11T15:45:57.849Z</time></trkpt><trkpt lat="43.5286681" lon="10.8974329"><ele>397.0</ele><time>2026-04-11T15:45:58.848Z</time></trkpt><trkpt lat="43.5288435" lon="10.8975484"><ele>397.0</ele><time>2026-04-11T15:45:59.844Z</time></trkpt><trkpt lat="43.5290014" lon="10.897698"><ele>394.6666666666667</ele><time>2026-04-11T15:46:00.841Z</time></trkpt><trkpt lat="43.5291658" lon="10.8978356"><ele>392.33333333333337</ele><time>2026-04-11T15:46:01.848Z</time></trkpt><trkpt lat="43.5293426" lon="10.8979732"><ele>390.0</ele><time>2026-04-11T15:46:02.844Z</time></trkpt><trkpt lat="43.5295204" lon="10.898076"><ele>390.0</ele><time>2026-04-11T15:46:03.85Z</time></trkpt><trkpt lat="43.5296787" lon="10.8981993"><ele>390.0</ele><time>2026-04-11T15:46:04.843Z</time></trkpt><trkpt lat="43.5298191" lon="10.8983316"><ele>390.0</ele><time>2026-04-11T15:46:05.842Z</time></trkpt><trkpt lat="43.5299605" lon="10.8984664"><ele>390.0</ele><time>2026-04-11T15:46:06.842Z</time></trkpt><trkpt lat="43.5301428" lon="10.8985673"><ele>390.0</ele><time>2026-04-11T15:46:07.84Z</time></trkpt><trkpt lat="43.5303421" lon="10.8986962"><ele>390.0</ele><time>2026-04-11T15:46:08.839Z</time></trkpt><trkpt lat="43.5305363" lon="10.89884"><ele>387.3333333333333</ele><time>2026-04-11T15:46:09.845Z</time></trkpt><trkpt lat="43.5307107" lon="10.8990069"><ele>384.66666666666663</ele><time>2026-04-11T15:46:10.844Z</time></trkpt><trkpt lat="43.5309129" lon="10.8991402"><ele>382.0</ele><time>2026-04-11T15:46:11.846Z</time></trkpt><trkpt lat="43.5311097" lon="10.8992721"><ele>378.66666666666663</ele><time>2026-04-11T15:46:12.861Z</time></trkpt><trkpt lat="43.5312933" lon="10.8993876"><ele>375.3333333333333</ele><time>2026-04-11T15:46:13.862Z</time></trkpt><trkpt lat="43.5314884" lon="10.8994845"><ele>372.0</ele><time>2026-04-11T15:46:14.873Z</time></trkpt><trkpt lat="43.5316496" lon="10.8995632"><ele>372.0</ele><time>2026-04-11T15:46:15.861Z</time></trkpt><trkpt lat="43.5318175" lon="10.899607"><ele>372.0</ele><time>2026-04-11T15:46:16.862Z</time></trkpt><trkpt lat="43.5320275" lon="10.8996107"><ele>372.0</ele><time>2026-04-11T15:46:17.852Z</time></trkpt><trkpt lat="43.5322159" lon="10.899608"><ele>372.6666666666667</ele><time>2026-04-11T15:46:18.861Z</time></trkpt><trkpt lat="43.5324288" lon="10.8995969"><ele>373.33333333333337</ele><time>2026-04-11T15:46:19.859Z</time></trkpt><trkpt lat="43.5326317" lon="10.8995785"><ele>374.0</ele><time>2026-04-11T15:46:20.864Z</time></trkpt><trkpt lat="43.5328242" lon="10.8995992"><ele>372.25</ele><time>2026-04-11T15:46:21.861Z</time></trkpt><trkpt lat="43.5329926" lon="10.8995893"><ele>370.5</ele><time>2026-04-11T15:46:22.854Z</time></trkpt><trkpt lat="43.5331217" lon="10.8995933"><ele>368.75</ele><time>2026-04-11T15:46:23.85Z</time></trkpt><trkpt lat="43.5332314" lon="10.8995648"><ele>367.0</ele><time>2026-04-11T15:46:24.851Z</time></trkpt><trkpt lat="43.5333048" lon="10.8995153"><ele>367.0</ele><time>2026-04-11T15:46:25.846Z</time></trkpt><trkpt lat="43.5334076" lon="10.8993827"><ele>367.0</ele><time>2026-04-11T15:46:26.845Z</time></trkpt><trkpt lat="43.5334774" lon="10.8992276"><ele>367.0</ele><time>2026-04-11T15:46:27.851Z</time></trkpt><trkpt lat="43.5334681" lon="10.8990862"><ele>367.0</ele><time>2026-04-11T15:46:28.857Z</time></trkpt><trkpt lat="43.5334169" lon="10.8989295"><ele>366.0</ele><time>2026-04-11T15:46:29.845Z</time></trkpt><trkpt lat="43.5333319" lon="10.8987627"><ele>365.0</ele><time>2026-04-11T15:46:30.849Z</time></trkpt><trkpt lat="43.5332343" lon="10.8985896"><ele>364.0</ele><time>2026-04-11T15:46:31.844Z</time></trkpt><trkpt lat="43.5331119" lon="10.8984218"><ele>362.25</ele><time>2026-04-11T15:46:32.856Z</time></trkpt><trkpt lat="43.5330256" lon="10.8982455"><ele>360.5</ele><time>2026-04-11T15:46:33.853Z</time></trkpt><trkpt lat="43.5329805" lon="10.8980648"><ele>358.75</ele><time>2026-04-11T15:46:34.849Z</time></trkpt><trkpt lat="43.5329679" lon="10.8978835"><ele>357.0</ele><time>2026-04-11T15:46:35.844Z</time></trkpt><trkpt lat="43.5329748" lon="10.897703"><ele>357.0</ele><time>2026-04-11T15:46:36.85Z</time></trkpt><trkpt lat="43.5330421" lon="10.8975352"><ele>357.0</ele><time>2026-04-11T15:46:37.853Z</time></trkpt><trkpt lat="43.5331408" lon="10.897369"><ele>357.0</ele><time>2026-04-11T15:46:38.842Z</time></trkpt><trkpt lat="43.5332422" lon="10.8972189"><ele>357.0</ele><time>2026-04-11T15:46:39.853Z</time></trkpt><trkpt lat="43.5333563" lon="10.8971095"><ele>357.0</ele><time>2026-04-11T15:46:40.844Z</time></trkpt><trkpt lat="43.5334841" lon="10.8970195"><ele>357.0</ele><time>2026-04-11T15:46:41.846Z</time></trkpt><trkpt lat="43.533633" lon="10.8969803"><ele>357.0</ele><time>2026-04-11T15:46:42.846Z</time></trkpt><trkpt lat="43.5338031" lon="10.896978"><ele>355.3333333333333</ele><time>2026-04-11T15:46:43.835Z</time></trkpt><trkpt lat="43.5339831" lon="10.8969899"><ele>353.66666666666663</ele><time>2026-04-11T15:46:44.841Z</time></trkpt><trkpt lat="43.5341992" lon="10.8970328"><ele>352.0</ele><time>2026-04-11T15:46:45.839Z</time></trkpt><trkpt lat="43.5344231" lon="10.897067"><ele>350.3333333333333</ele><time>2026-04-11T15:46:46.838Z</time></trkpt><trkpt lat="43.5346342" lon="10.8970721"><ele>348.6666666666667</ele><time>2026-04-11T15:46:47.836Z</time></trkpt><trkpt lat="43.534806" lon="10.8971354"><ele>347.0</ele><time>2026-04-11T15:46:48.834Z</time></trkpt><trkpt lat="43.5349918" lon="10.8972329"><ele>347.0</ele><time>2026-04-11T15:46:49.835Z</time></trkpt><trkpt lat="43.5351738" lon="10.8973634"><ele>347.0</ele><time>2026-04-11T15:46:50.837Z</time></trkpt><trkpt lat="43.5353494" lon="10.8975134"><ele>347.0</ele><time>2026-04-11T15:46:51.835Z</time></trkpt><trkpt lat="43.5355223" lon="10.8976805"><ele>344.6666666666667</ele><time>2026-04-11T15:46:52.841Z</time></trkpt><trkpt lat="43.5356717" lon="10.8978935"><ele>342.3333333333333</ele><time>2026-04-11T15:46:53.832Z</time></trkpt><trkpt lat="43.5358375" lon="10.8981098"><ele>340.0</ele><time>2026-04-11T15:46:54.832Z</time></trkpt><trkpt lat="43.5360424" lon="10.8983211"><ele>337.5</ele><time>2026-04-11T15:46:55.835Z</time></trkpt><trkpt lat="43.5362509" lon="10.898518"><ele>335.0</ele><time>2026-04-11T15:46:56.833Z</time></trkpt><trkpt lat="43.5364082" lon="10.8987021"><ele>335.0</ele><time>2026-04-11T15:46:57.833Z</time></trkpt><trkpt lat="43.5365658" lon="10.8988872"><ele>335.0</ele><time>2026-04-11T15:46:58.835Z</time></trkpt><trkpt lat="43.5367062" lon="10.8990732"><ele>335.0</ele><time>2026-04-11T15:46:59.837Z</time></trkpt><trkpt lat="43.5368218" lon="10.8992763"><ele>335.0</ele><time>2026-04-11T15:47:00.839Z</time></trkpt><trkpt lat="43.5369284" lon="10.8995118"><ele>335.0</ele><time>2026-04-11T15:47:01.842Z</time></trkpt><trkpt lat="43.537014" lon="10.8997887"><ele>335.0</ele><time>2026-04-11T15:47:02.844Z</time></trkpt><trkpt lat="43.5371009" lon="10.9000883"><ele>333.0</ele><time>2026-04-11T15:47:03.84Z</time></trkpt><trkpt lat="43.5371366" lon="10.9004403"><ele>331.0</ele><time>2026-04-11T15:47:04.842Z</time></trkpt><trkpt lat="43.5371949" lon="10.9007479"><ele>327.3333333333333</ele><time>2026-04-11T15:47:05.839Z</time></trkpt><trkpt lat="43.5372169" lon="10.9010377"><ele>323.6666666666667</ele><time>2026-04-11T15:47:06.831Z</time></trkpt><trkpt lat="43.5372474" lon="10.9012707"><ele>320.0</ele><time>2026-04-11T15:47:07.83Z</time></trkpt><trkpt lat="43.5372936" lon="10.9015007"><ele>320.0</ele><time>2026-04-11T15:47:08.836Z</time></trkpt><trkpt lat="43.537352" lon="10.9016924"><ele>320.0</ele><time>2026-04-11T15:47:09.833Z</time></trkpt><trkpt lat="43.5374711" lon="10.9018388"><ele>320.0</ele><time>2026-04-11T15:47:10.826Z</time></trkpt><trkpt lat="43.5376183" lon="10.9019649"><ele>319.33333333333337</ele><time>2026-04-11T15:47:11.827Z</time></trkpt><trkpt lat="43.5377867" lon="10.902095"><ele>318.6666666666667</ele><time>2026-04-11T15:47:12.831Z</time></trkpt><trkpt lat="43.5379375" lon="10.9022072"><ele>318.0</ele><time>2026-04-11T15:47:13.835Z</time></trkpt><trkpt lat="43.5380555" lon="10.9023404"><ele>318.0</ele><time>2026-04-11T15:47:14.832Z</time></trkpt><trkpt lat="43.5381229" lon="10.902535"><ele>318.0</ele><time>2026-04-11T15:47:15.83Z</time></trkpt><trkpt lat="43.5382234" lon="10.9027566"><ele>318.0</ele><time>2026-04-11T15:47:16.833Z</time></trkpt><trkpt lat="43.5382413" lon="10.9030552"><ele>315.6666666666667</ele><time>2026-04-11T15:47:17.829Z</time></trkpt><trkpt lat="43.5382975" lon="10.9033438"><ele>313.33333333333337</ele><time>2026-04-11T15:47:18.832Z</time></trkpt><trkpt lat="43.5383297" lon="10.9036463"><ele>311.0</ele><time>2026-04-11T15:47:19.85Z</time></trkpt><trkpt lat="43.5383748" lon="10.9039346"><ele>309.6666666666667</ele><time>2026-04-11T15:47:20.849Z</time></trkpt><trkpt lat="43.5384061" lon="10.9041978"><ele>308.3333333333333</ele><time>2026-04-11T15:47:21.853Z</time></trkpt><trkpt lat="43.5384429" lon="10.9044279"><ele>307.0</ele><time>2026-04-11T15:47:22.852Z</time></trkpt><trkpt lat="43.5384595" lon="10.9046192"><ele>304.0</ele><time>2026-04-11T15:47:23.851Z</time></trkpt><trkpt lat="43.5384377" lon="10.9048023"><ele>301.0</ele><time>2026-04-11T15:47:24.838Z</time></trkpt><trkpt lat="43.5383316" lon="10.904934"><ele>298.0</ele><time>2026-04-11T15:47:25.844Z</time></trkpt><trkpt lat="43.5381776" lon="10.9050048"><ele>295.0</ele><time>2026-04-11T15:47:26.841Z</time></trkpt><trkpt lat="43.5380414" lon="10.9050724"><ele>292.0</ele><time>2026-04-11T15:47:27.844Z</time></trkpt><trkpt lat="43.5378737" lon="10.9051347"><ele>289.0</ele><time>2026-04-11T15:47:28.846Z</time></trkpt><trkpt lat="43.5376795" lon="10.9051858"><ele>286.0</ele><time>2026-04-11T15:47:29.849Z</time></trkpt><trkpt lat="43.537507" lon="10.905282"><ele>286.0</ele><time>2026-04-11T15:47:30.845Z</time></trkpt><trkpt lat="43.5373579" lon="10.9054436"><ele>286.0</ele><time>2026-04-11T15:47:31.853Z</time></trkpt><trkpt lat="43.5371947" lon="10.9056413"><ele>286.0</ele><time>2026-04-11T15:47:32.852Z</time></trkpt><trkpt lat="43.5370432" lon="10.9058306"><ele>283.5</ele><time>2026-04-11T15:47:33.843Z</time></trkpt><trkpt lat="43.5368408" lon="10.9060116"><ele>281.0</ele><time>2026-04-11T15:47:34.846Z</time></trkpt><trkpt lat="43.5366477" lon="10.9061502"><ele>281.0</ele><time>2026-04-11T15:47:35.851Z</time></trkpt><trkpt lat="43.5364554" lon="10.9062955"><ele>281.0</ele><time>2026-04-11T15:47:36.847Z</time></trkpt><trkpt lat="43.536292" lon="10.9064409"><ele>281.0</ele><time>2026-04-11T15:47:37.848Z</time></trkpt><trkpt lat="43.5361378" lon="10.9066301"><ele>280.6666666666667</ele><time>2026-04-11T15:47:38.844Z</time></trkpt><trkpt lat="43.5359946" lon="10.9068548"><ele>280.3333333333333</ele><time>2026-04-11T15:47:39.843Z</time></trkpt><trkpt lat="43.5358678" lon="10.9071036"><ele>280.0</ele><time>2026-04-11T15:47:40.845Z</time></trkpt><trkpt lat="43.5357147" lon="10.907326"><ele>280.0</ele><time>2026-04-11T15:47:41.845Z</time></trkpt><trkpt lat="43.5355635" lon="10.9075256"><ele>280.0</ele><time>2026-04-11T15:47:42.844Z</time></trkpt><trkpt lat="43.5354217" lon="10.9076837"><ele>280.0</ele><time>2026-04-11T15:47:43.841Z</time></trkpt><trkpt lat="43.535302" lon="10.9078051"><ele>279.8</ele><time>2026-04-11T15:47:44.841Z</time></trkpt><trkpt lat="43.5352318" lon="10.9079107"><ele>279.6</ele><time>2026-04-11T15:47:45.845Z</time></trkpt><trkpt lat="43.5351645" lon="10.9080057"><ele>279.4</ele><time>2026-04-11T15:47:46.842Z</time></trkpt><trkpt lat="43.5351119" lon="10.9081612"><ele>279.2</ele><time>2026-04-11T15:47:47.833Z</time></trkpt><trkpt lat="43.5350975" lon="10.9083219"><ele>279.0</ele><time>2026-04-11T15:47:48.846Z</time></trkpt><trkpt lat="43.5351519" lon="10.9084954"><ele>279.5</ele><time>2026-04-11T15:47:49.846Z</time></trkpt><trkpt lat="43.5352501" lon="10.9086535"><ele>280.0</ele><time>2026-04-11T15:47:50.844Z</time></trkpt><trkpt lat="43.53533" lon="10.9088129"><ele>280.5</ele><time>2026-04-11T15:47:51.847Z</time></trkpt><trkpt lat="43.5354124" lon="10.9089413"><ele>281.0</ele><time>2026-04-11T15:47:52.857Z</time></trkpt><trkpt lat="43.5355157" lon="10.9089969"><ele>286.0</ele><time>2026-04-11T15:47:53.853Z</time></trkpt><trkpt lat="43.5356831" lon="10.9089674"><ele>291.0</ele><time>2026-04-11T15:47:54.856Z</time></trkpt><trkpt lat="43.5358195" lon="10.9089035"><ele>296.0</ele><time>2026-04-11T15:47:55.85Z</time></trkpt><trkpt lat="43.5360013" lon="10.9088051"><ele>296.0</ele><time>2026-04-11T15:47:56.84Z</time></trkpt><trkpt lat="43.5361752" lon="10.9086759"><ele>296.0</ele><time>2026-04-11T15:47:57.844Z</time></trkpt><trkpt lat="43.5363088" lon="10.908545"><ele>296.0</ele><time>2026-04-11T15:47:58.84Z</time></trkpt><trkpt lat="43.5364409" lon="10.9083625"><ele>294.33333333333337</ele><time>2026-04-11T15:47:59.841Z</time></trkpt><trkpt lat="43.5365344" lon="10.9081615"><ele>292.6666666666667</ele><time>2026-04-11T15:48:00.84Z</time></trkpt><trkpt lat="43.5365795" lon="10.907977"><ele>291.0</ele><time>2026-04-11T15:48:01.843Z</time></trkpt><trkpt lat="43.536701" lon="10.9078375"><ele>291.0</ele><time>2026-04-11T15:48:02.836Z</time></trkpt><trkpt lat="43.5368036" lon="10.9077599"><ele>291.0</ele><time>2026-04-11T15:48:03.835Z</time></trkpt><trkpt lat="43.5369406" lon="10.9077436"><ele>291.0</ele><time>2026-04-11T15:48:04.848Z</time></trkpt><trkpt lat="43.5370989" lon="10.9077954"><ele>291.0</ele><time>2026-04-11T15:48:05.84Z</time></trkpt><trkpt lat="43.5372951" lon="10.9078612"><ele>293.0</ele><time>2026-04-11T15:48:06.843Z</time></trkpt><trkpt lat="43.5374799" lon="10.9079271"><ele>295.0</ele><time>2026-04-11T15:48:07.837Z</time></trkpt><trkpt lat="43.5376806" lon="10.9079474"><ele>297.0</ele><time>2026-04-11T15:48:08.839Z</time></trkpt><trkpt lat="43.5378437" lon="10.9079721"><ele>295.75</ele><time>2026-04-11T15:48:09.837Z</time></trkpt><trkpt lat="43.5379434" lon="10.9079898"><ele>294.5</ele><time>2026-04-11T15:48:10.838Z</time></trkpt><trkpt lat="43.5380531" lon="10.9079959"><ele>293.25</ele><time>2026-04-11T15:48:11.841Z</time></trkpt><trkpt lat="43.5381249" lon="10.9078918"><ele>292.0</ele><time>2026-04-11T15:48:12.843Z</time></trkpt><trkpt lat="43.5381873" lon="10.9076977"><ele>289.3333333333333</ele><time>2026-04-11T15:48:13.849Z</time></trkpt><trkpt lat="43.5382842" lon="10.907478"><ele>286.6666666666667</ele><time>2026-04-11T15:48:14.84Z</time></trkpt><trkpt lat="43.5383591" lon="10.9072437"><ele>284.0</ele><time>2026-04-11T15:48:15.838Z</time></trkpt><trkpt lat="43.5384336" lon="10.9070187"><ele>284.0</ele><time>2026-04-11T15:48:16.834Z</time></trkpt><trkpt lat="43.5384981" lon="10.9068395"><ele>284.0</ele><time>2026-04-11T15:48:17.837Z</time></trkpt><trkpt lat="43.5385671" lon="10.9066616"><ele>284.0</ele><time>2026-04-11T15:48:18.834Z</time></trkpt><trkpt lat="43.538674" lon="10.9065059"><ele>284.0</ele><time>2026-04-11T15:48:19.838Z</time></trkpt><trkpt lat="43.5387706" lon="10.9063732"><ele>288.0</ele><time>2026-04-11T15:48:20.834Z</time></trkpt><trkpt lat="43.5388999" lon="10.9062474"><ele>292.0</ele><time>2026-04-11T15:48:21.834Z</time></trkpt><trkpt lat="43.5390555" lon="10.9061286"><ele>296.0</ele><time>2026-04-11T15:48:22.85Z</time></trkpt><trkpt lat="43.5391635" lon="10.9060222"><ele>296.0</ele><time>2026-04-11T15:48:23.846Z</time></trkpt><trkpt lat="43.5392899" lon="10.9059358"><ele>296.0</ele><time>2026-04-11T15:48:24.844Z</time></trkpt><trkpt lat="43.5393794" lon="10.9058908"><ele>296.0</ele><time>2026-04-11T15:48:25.849Z</time></trkpt><trkpt lat="43.539493" lon="10.9058648"><ele>296.0</ele><time>2026-04-11T15:48:26.843Z</time></trkpt><trkpt lat="43.5396177" lon="10.905895"><ele>297.2</ele><time>2026-04-11T15:48:27.855Z</time></trkpt><trkpt lat="43.5397302" lon="10.9059381"><ele>298.40000000000003</ele><time>2026-04-11T15:48:28.856Z</time></trkpt><trkpt lat="43.5398322" lon="10.9060321"><ele>299.6</ele><time>2026-04-11T15:48:29.86Z</time></trkpt><trkpt lat="43.5398906" lon="10.9061148"><ele>300.8</ele><time>2026-04-11T15:48:30.856Z</time></trkpt><trkpt lat="43.539943" lon="10.9061666"><ele>302.0</ele><time>2026-04-11T15:48:31.847Z</time></trkpt><trkpt lat="43.5400375" lon="10.9062115"><ele>302.0</ele><time>2026-04-11T15:48:33.851Z</time></trkpt><trkpt lat="43.5401081" lon="10.9062445"><ele>302.0</ele><time>2026-04-11T15:48:34.853Z</time></trkpt><trkpt lat="43.5402041" lon="10.9062789"><ele>302.0</ele><time>2026-04-11T15:48:35.852Z</time></trkpt><trkpt lat="43.5403192" lon="10.9062977"><ele>302.0</ele><time>2026-04-11T15:48:36.844Z</time></trkpt><trkpt lat="43.5404704" lon="10.9062672"><ele>302.0</ele><time>2026-04-11T15:48:37.858Z</time></trkpt><trkpt lat="43.5406423" lon="10.9061805"><ele>303.6666666666667</ele><time>2026-04-11T15:48:38.847Z</time></trkpt><trkpt lat="43.5408415" lon="10.9061158"><ele>305.3333333333333</ele><time>2026-04-11T15:48:39.847Z</time></trkpt><trkpt lat="43.5410152" lon="10.9061146"><ele>307.0</ele><time>2026-04-11T15:48:40.847Z</time></trkpt><trkpt lat="43.5411823" lon="10.9061594"><ele>306.3333333333333</ele><time>2026-04-11T15:48:41.849Z</time></trkpt><trkpt lat="43.5413087" lon="10.9062556"><ele>305.6666666666667</ele><time>2026-04-11T15:48:42.848Z</time></trkpt><trkpt lat="43.5414633" lon="10.9063888"><ele>305.0</ele><time>2026-04-11T15:48:43.852Z</time></trkpt><trkpt lat="43.5415974" lon="10.9065705"><ele>305.0</ele><time>2026-04-11T15:48:44.855Z</time></trkpt><trkpt lat="43.5417087" lon="10.9066902"><ele>305.0</ele><time>2026-04-11T15:48:45.849Z</time></trkpt><trkpt lat="43.5418277" lon="10.9067268"><ele>305.0</ele><time>2026-04-11T15:48:46.852Z</time></trkpt><trkpt lat="43.5419861" lon="10.9067224"><ele>305.0</ele><time>2026-04-11T15:48:47.851Z</time></trkpt><trkpt lat="43.5421472" lon="10.9066212"><ele>308.0</ele><time>2026-04-11T15:48:48.846Z</time></trkpt><trkpt lat="43.5423266" lon="10.9065166"><ele>311.0</ele><time>2026-04-11T15:48:49.837Z</time></trkpt><trkpt lat="43.5425242" lon="10.9063974"><ele>314.0</ele><time>2026-04-11T15:48:50.84Z</time></trkpt><trkpt lat="43.5426956" lon="10.9063032"><ele>314.0</ele><time>2026-04-11T15:48:51.837Z</time></trkpt><trkpt lat="43.5428624" lon="10.9062048"><ele>314.0</ele><time>2026-04-11T15:48:52.838Z</time></trkpt><trkpt lat="43.5429997" lon="10.9060704"><ele>314.0</ele><time>2026-04-11T15:48:53.839Z</time></trkpt><trkpt lat="43.5431565" lon="10.9058903"><ele>312.6666666666667</ele><time>2026-04-11T15:48:54.839Z</time></trkpt><trkpt lat="43.5432339" lon="10.905671"><ele>311.3333333333333</ele><time>2026-04-11T15:48:55.835Z</time></trkpt><trkpt lat="43.5433251" lon="10.9054713"><ele>310.0</ele><time>2026-04-11T15:48:56.841Z</time></trkpt><trkpt lat="43.5433873" lon="10.9053081"><ele>310.0</ele><time>2026-04-11T15:48:57.846Z</time></trkpt><trkpt lat="43.5434657" lon="10.9051615"><ele>310.0</ele><time>2026-04-11T15:48:58.848Z</time></trkpt><trkpt lat="43.5435474" lon="10.9050879"><ele>310.0</ele><time>2026-04-11T15:48:59.848Z</time></trkpt><trkpt lat="43.5436861" lon="10.9051301"><ele>310.0</ele><time>2026-04-11T15:49:00.85Z</time></trkpt><trkpt lat="43.5437914" lon="10.9051553"><ele>311.66666666666663</ele><time>2026-04-11T15:49:01.844Z</time></trkpt><trkpt lat="43.5439498" lon="10.9052443"><ele>313.3333333333333</ele><time>2026-04-11T15:49:02.845Z</time></trkpt><trkpt lat="43.5440725" lon="10.9053334"><ele>315.0</ele><time>2026-04-11T15:49:03.848Z</time></trkpt><trkpt lat="43.5442405" lon="10.9054176"><ele>315.0</ele><time>2026-04-11T15:49:04.841Z</time></trkpt><trkpt lat="43.5443609" lon="10.9055162"><ele>315.0</ele><time>2026-04-11T15:49:05.849Z</time></trkpt><trkpt lat="43.5444787" lon="10.9055948"><ele>315.0</ele><time>2026-04-11T15:49:06.856Z</time></trkpt><trkpt lat="43.5445886" lon="10.9056459"><ele>315.0</ele><time>2026-04-11T15:49:07.851Z</time></trkpt><trkpt lat="43.544696" lon="10.9056864"><ele>314.75</ele><time>2026-04-11T15:49:08.855Z</time></trkpt><trkpt lat="43.5448029" lon="10.9057083"><ele>314.5</ele><time>2026-04-11T15:49:09.842Z</time></trkpt><trkpt lat="43.5449003" lon="10.9056982"><ele>314.25</ele><time>2026-04-11T15:49:10.845Z</time></trkpt><trkpt lat="43.5450157" lon="10.9056489"><ele>314.0</ele><time>2026-04-11T15:49:11.849Z</time></trkpt><trkpt lat="43.5451228" lon="10.9055342"><ele>314.0</ele><time>2026-04-11T15:49:12.842Z</time></trkpt><trkpt lat="43.5452373" lon="10.9053922"><ele>314.0</ele><time>2026-04-11T15:49:13.853Z</time></trkpt><trkpt lat="43.5453427" lon="10.9052262"><ele>314.0</ele><time>2026-04-11T15:49:14.847Z</time></trkpt><trkpt lat="43.5454624" lon="10.9051266"><ele>312.0</ele><time>2026-04-11T15:49:15.842Z</time></trkpt><trkpt lat="43.54559" lon="10.9050444"><ele>310.0</ele><time>2026-04-11T15:49:16.85Z</time></trkpt><trkpt lat="43.5457181" lon="10.9050393"><ele>308.0</ele><time>2026-04-11T15:49:17.842Z</time></trkpt><trkpt lat="43.5458449" lon="10.9050634"><ele>306.0</ele><time>2026-04-11T15:49:18.846Z</time></trkpt><trkpt lat="43.5459759" lon="10.9051713"><ele>306.0</ele><time>2026-04-11T15:49:19.851Z</time></trkpt><trkpt lat="43.5460593" lon="10.9053411"><ele>306.0</ele><time>2026-04-11T15:49:20.848Z</time></trkpt><trkpt lat="43.5461334" lon="10.9055558"><ele>306.0</ele><time>2026-04-11T15:49:21.856Z</time></trkpt><trkpt lat="43.54617" lon="10.9057783"><ele>305.6666666666667</ele><time>2026-04-11T15:49:22.852Z</time></trkpt><trkpt lat="43.546161" lon="10.9060037"><ele>305.33333333333337</ele><time>2026-04-11T15:49:23.851Z</time></trkpt><trkpt lat="43.5461195" lon="10.9062259"><ele>305.0</ele><time>2026-04-11T15:49:24.849Z</time></trkpt><trkpt lat="43.546034" lon="10.906479"><ele>302.6666666666667</ele><time>2026-04-11T15:49:25.847Z</time></trkpt><trkpt lat="43.5459531" lon="10.9067661"><ele>300.3333333333333</ele><time>2026-04-11T15:49:26.848Z</time></trkpt><trkpt lat="43.5458714" lon="10.9070524"><ele>298.0</ele><time>2026-04-11T15:49:27.852Z</time></trkpt><trkpt lat="43.5458497" lon="10.9073715"><ele>297.3333333333333</ele><time>2026-04-11T15:49:28.853Z</time></trkpt><trkpt lat="43.5458345" lon="10.9076821"><ele>296.6666666666667</ele><time>2026-04-11T15:49:29.859Z</time></trkpt><trkpt lat="43.5458142" lon="10.9079853"><ele>296.0</ele><time>2026-04-11T15:49:30.859Z</time></trkpt><trkpt lat="43.5457151" lon="10.9082852"><ele>294.0</ele><time>2026-04-11T15:49:31.855Z</time></trkpt><trkpt lat="43.5456451" lon="10.908561"><ele>292.0</ele><time>2026-04-11T15:49:32.848Z</time></trkpt><trkpt lat="43.5455398" lon="10.9087934"><ele>290.0</ele><time>2026-04-11T15:49:33.857Z</time></trkpt><trkpt lat="43.5454714" lon="10.9090812"><ele>289.0</ele><time>2026-04-11T15:49:34.856Z</time></trkpt><trkpt lat="43.5454226" lon="10.9093528"><ele>288.0</ele><time>2026-04-11T15:49:35.851Z</time></trkpt><trkpt lat="43.545411" lon="10.9096397"><ele>287.0</ele><time>2026-04-11T15:49:36.852Z</time></trkpt><trkpt lat="43.5453977" lon="10.9099716"><ele>295.5</ele><time>2026-04-11T15:49:37.855Z</time></trkpt><trkpt lat="43.5453757" lon="10.9103097"><ele>304.0</ele><time>2026-04-11T15:49:38.863Z</time></trkpt><trkpt lat="43.5453679" lon="10.9106226"><ele>304.0</ele><time>2026-04-11T15:49:40.928Z</time></trkpt><trkpt lat="43.5453503" lon="10.9108893"><ele>304.0</ele><time>2026-04-11T15:49:41.931Z</time></trkpt><trkpt lat="43.5453176" lon="10.9111223"><ele>304.0</ele><time>2026-04-11T15:49:42.939Z</time></trkpt><trkpt lat="43.5452686" lon="10.9113141"><ele>303.0</ele><time>2026-04-11T15:49:43.936Z</time></trkpt><trkpt lat="43.5451866" lon="10.9114783"><ele>302.0</ele><time>2026-04-11T15:49:44.915Z</time></trkpt><trkpt lat="43.5450702" lon="10.911601"><ele>301.0</ele><time>2026-04-11T15:49:45.914Z</time></trkpt><trkpt lat="43.5449533" lon="10.9117122"><ele>300.0</ele><time>2026-04-11T15:49:46.915Z</time></trkpt><trkpt lat="43.544865" lon="10.911842"><ele>299.0</ele><time>2026-04-11T15:49:47.92Z</time></trkpt><trkpt lat="43.5447897" lon="10.9120202"><ele>298.0</ele><time>2026-04-11T15:49:48.927Z</time></trkpt><trkpt lat="43.5447524" lon="10.9122322"><ele>297.0</ele><time>2026-04-11T15:49:49.927Z</time></trkpt><trkpt lat="43.5446913" lon="10.9127734"><ele>296.0</ele><time>2026-04-11T15:49:50.835Z</time></trkpt><trkpt lat="43.5447284" lon="10.9130999"><ele>295.0</ele><time>2026-04-11T15:49:51.831Z</time></trkpt><trkpt lat="43.5447164" lon="10.9134052"><ele>294.3333333333333</ele><time>2026-04-11T15:49:52.828Z</time></trkpt><trkpt lat="43.5446917" lon="10.9137067"><ele>293.6666666666667</ele><time>2026-04-11T15:49:53.827Z</time></trkpt><trkpt lat="43.5446536" lon="10.9139923"><ele>293.0</ele><time>2026-04-11T15:49:54.834Z</time></trkpt><trkpt lat="43.5445864" lon="10.9142863"><ele>297.0</ele><time>2026-04-11T15:49:55.836Z</time></trkpt><trkpt lat="43.5445113" lon="10.9145419"><ele>301.0</ele><time>2026-04-11T15:49:56.839Z</time></trkpt><trkpt lat="43.5444633" lon="10.9147847"><ele>305.0</ele><time>2026-04-11T15:49:57.846Z</time></trkpt><trkpt lat="43.5444689" lon="10.9150009"><ele>305.0</ele><time>2026-04-11T15:49:58.841Z</time></trkpt><trkpt lat="43.544486" lon="10.915276"><ele>305.0</ele><time>2026-04-11T15:49:59.841Z</time></trkpt><trkpt lat="43.544563" lon="10.9155857"><ele>305.0</ele><time>2026-04-11T15:50:00.838Z</time></trkpt><trkpt lat="43.5446109" lon="10.91588"><ele>298.6666666666667</ele><time>2026-04-11T15:50:01.843Z</time></trkpt><trkpt lat="43.5446327" lon="10.9161373"><ele>292.3333333333333</ele><time>2026-04-11T15:50:02.841Z</time></trkpt><trkpt lat="43.5446363" lon="10.9163861"><ele>286.0</ele><time>2026-04-11T15:50:03.837Z</time></trkpt><trkpt lat="43.544613" lon="10.9166668"><ele>285.66666666666663</ele><time>2026-04-11T15:50:04.835Z</time></trkpt><trkpt lat="43.5445556" lon="10.9169253"><ele>285.3333333333333</ele><time>2026-04-11T15:50:05.839Z</time></trkpt><trkpt lat="43.5444864" lon="10.9172144"><ele>285.0</ele><time>2026-04-11T15:50:06.837Z</time></trkpt><trkpt lat="43.5443754" lon="10.917488"><ele>291.0</ele><time>2026-04-11T15:50:07.838Z</time></trkpt><trkpt lat="43.5442715" lon="10.917807"><ele>297.0</ele><time>2026-04-11T15:50:08.835Z</time></trkpt><trkpt lat="43.5441697" lon="10.9181305"><ele>295.0</ele><time>2026-04-11T15:50:09.832Z</time></trkpt><trkpt lat="43.544083" lon="10.9184126"><ele>293.0</ele><time>2026-04-11T15:50:10.835Z</time></trkpt><trkpt lat="43.5439928" lon="10.9186744"><ele>291.0</ele><time>2026-04-11T15:50:11.831Z</time></trkpt><trkpt lat="43.5439109" lon="10.9189426"><ele>291.0</ele><time>2026-04-11T15:50:12.837Z</time></trkpt><trkpt lat="43.5438558" lon="10.919222"><ele>291.0</ele><time>2026-04-11T15:50:13.832Z</time></trkpt><trkpt lat="43.5437974" lon="10.9195559"><ele>290.6666666666667</ele><time>2026-04-11T15:50:14.831Z</time></trkpt><trkpt lat="43.5437837" lon="10.9198899"><ele>290.33333333333337</ele><time>2026-04-11T15:50:15.831Z</time></trkpt><trkpt lat="43.5437688" lon="10.9201539"><ele>290.0</ele><time>2026-04-11T15:50:16.839Z</time></trkpt><trkpt lat="43.5437539" lon="10.9203834"><ele>290.6</ele><time>2026-04-11T15:50:17.84Z</time></trkpt><trkpt lat="43.5437348" lon="10.9205413"><ele>291.2</ele><time>2026-04-11T15:50:18.835Z</time></trkpt><trkpt lat="43.5437354" lon="10.9206675"><ele>291.8</ele><time>2026-04-11T15:50:19.838Z</time></trkpt><trkpt lat="43.543765" lon="10.9207931"><ele>292.4</ele><time>2026-04-11T15:50:20.832Z</time></trkpt><trkpt lat="43.5438407" lon="10.9208957"><ele>293.0</ele><time>2026-04-11T15:50:21.831Z</time></trkpt><trkpt lat="43.5439962" lon="10.9209515"><ele>293.0</ele><time>2026-04-11T15:50:22.831Z</time></trkpt><trkpt lat="43.5441461" lon="10.9209885"><ele>293.0</ele><time>2026-04-11T15:50:23.83Z</time></trkpt><trkpt lat="43.5442857" lon="10.9209948"><ele>293.0</ele><time>2026-04-11T15:50:24.83Z</time></trkpt><trkpt lat="43.5444096" lon="10.9208975"><ele>293.0</ele><time>2026-04-11T15:50:25.834Z</time></trkpt><trkpt lat="43.5444574" lon="10.9207937"><ele>293.0</ele><time>2026-04-11T15:50:26.828Z</time></trkpt><trkpt lat="43.5445112" lon="10.9206567"><ele>293.0</ele><time>2026-04-11T15:50:27.83Z</time></trkpt><trkpt lat="43.5444878" lon="10.9205164"><ele>293.0</ele><time>2026-04-11T15:50:28.836Z</time></trkpt><trkpt lat="43.544483" lon="10.9203435"><ele>293.0</ele><time>2026-04-11T15:50:29.828Z</time></trkpt><trkpt lat="43.5445258" lon="10.9201499"><ele>296.6666666666667</ele><time>2026-04-11T15:50:30.829Z</time></trkpt><trkpt lat="43.5445993" lon="10.9198962"><ele>300.3333333333333</ele><time>2026-04-11T15:50:31.826Z</time></trkpt><trkpt lat="43.5446686" lon="10.919655"><ele>304.0</ele><time>2026-04-11T15:50:32.823Z</time></trkpt><trkpt lat="43.5447616" lon="10.9194148"><ele>300.0</ele><time>2026-04-11T15:50:33.82Z</time></trkpt><trkpt lat="43.5448758" lon="10.919145"><ele>296.0</ele><time>2026-04-11T15:50:34.824Z</time></trkpt><trkpt lat="43.5450246" lon="10.9188629"><ele>296.0</ele><time>2026-04-11T15:50:35.827Z</time></trkpt><trkpt lat="43.5451608" lon="10.9185676"><ele>296.0</ele><time>2026-04-11T15:50:36.832Z</time></trkpt><trkpt lat="43.5453117" lon="10.9182744"><ele>307.0</ele><time>2026-04-11T15:50:37.835Z</time></trkpt><trkpt lat="43.5454642" lon="10.918007"><ele>318.0</ele><time>2026-04-11T15:50:38.832Z</time></trkpt><trkpt lat="43.5456305" lon="10.9177427"><ele>309.0</ele><time>2026-04-11T15:50:39.834Z</time></trkpt><trkpt lat="43.5457767" lon="10.917468"><ele>300.0</ele><time>2026-04-11T15:50:40.84Z</time></trkpt><trkpt lat="43.5459429" lon="10.9172103"><ele>300.0</ele><time>2026-04-11T15:50:41.837Z</time></trkpt><trkpt lat="43.5460923" lon="10.9169358"><ele>300.0</ele><time>2026-04-11T15:50:42.839Z</time></trkpt><trkpt lat="43.5462325" lon="10.9167208"><ele>303.6666666666667</ele><time>2026-04-11T15:50:43.836Z</time></trkpt><trkpt lat="43.5463425" lon="10.9165083"><ele>307.33333333333337</ele><time>2026-04-11T15:50:44.833Z</time></trkpt><trkpt lat="43.5464648" lon="10.9163506"><ele>311.0</ele><time>2026-04-11T15:50:45.835Z</time></trkpt><trkpt lat="43.5465964" lon="10.9162319"><ele>311.0</ele><time>2026-04-11T15:50:46.833Z</time></trkpt><trkpt lat="43.5467312" lon="10.9161364"><ele>311.0</ele><time>2026-04-11T15:50:47.835Z</time></trkpt><trkpt lat="43.5468852" lon="10.9161107"><ele>311.0</ele><time>2026-04-11T15:50:48.831Z</time></trkpt><trkpt lat="43.5470278" lon="10.9161572"><ele>311.5</ele><time>2026-04-11T15:50:49.829Z</time></trkpt><trkpt lat="43.547152" lon="10.9162371"><ele>312.0</ele><time>2026-04-11T15:50:50.83Z</time></trkpt><trkpt lat="43.5472748" lon="10.9163566"><ele>312.5</ele><time>2026-04-11T15:50:51.83Z</time></trkpt><trkpt lat="43.5473775" lon="10.9164815"><ele>313.0</ele><time>2026-04-11T15:50:52.842Z</time></trkpt><trkpt lat="43.5474725" lon="10.9166287"><ele>313.25</ele><time>2026-04-11T15:50:53.831Z</time></trkpt><trkpt lat="43.5475749" lon="10.9167667"><ele>313.5</ele><time>2026-04-11T15:50:54.843Z</time></trkpt><trkpt lat="43.5476656" lon="10.9169223"><ele>313.75</ele><time>2026-04-11T15:50:55.842Z</time></trkpt><trkpt lat="43.5477856" lon="10.9170644"><ele>314.0</ele><time>2026-04-11T15:50:56.85Z</time></trkpt><trkpt lat="43.5478769" lon="10.9172047"><ele>314.0</ele><time>2026-04-11T15:50:57.846Z</time></trkpt><trkpt lat="43.5479621" lon="10.9173278"><ele>314.0</ele><time>2026-04-11T15:50:58.851Z</time></trkpt><trkpt lat="43.5480248" lon="10.9174341"><ele>314.0</ele><time>2026-04-11T15:50:59.84Z</time></trkpt><trkpt lat="43.5480652" lon="10.9175243"><ele>314.0</ele><time>2026-04-11T15:51:00.843Z</time></trkpt><trkpt lat="43.5481733" lon="10.9175082"><ele>314.0</ele><time>2026-04-11T15:51:02.844Z</time></trkpt><trkpt lat="43.5482189" lon="10.9174466"><ele>314.0</ele><time>2026-04-11T15:51:03.837Z</time></trkpt><trkpt lat="43.5482473" lon="10.9173393"><ele>314.0</ele><time>2026-04-11T15:51:04.843Z</time></trkpt><trkpt lat="43.5482832" lon="10.9172224"><ele>314.0</ele><time>2026-04-11T15:51:05.839Z</time></trkpt><trkpt lat="43.548339" lon="10.9170843"><ele>314.0</ele><time>2026-04-11T15:51:06.837Z</time></trkpt><trkpt lat="43.5484132" lon="10.9169433"><ele>314.0</ele><time>2026-04-11T15:51:07.83Z</time></trkpt><trkpt lat="43.5484973" lon="10.91676"><ele>314.0</ele><time>2026-04-11T15:51:08.84Z</time></trkpt><trkpt lat="43.5485816" lon="10.9165495"><ele>314.0</ele><time>2026-04-11T15:51:09.839Z</time></trkpt><trkpt lat="43.5486795" lon="10.9163546"><ele>314.0</ele><time>2026-04-11T15:51:10.846Z</time></trkpt><trkpt lat="43.5487658" lon="10.9161686"><ele>313.0</ele><time>2026-04-11T15:51:11.841Z</time></trkpt><trkpt lat="43.548859" lon="10.9159694"><ele>312.0</ele><time>2026-04-11T15:51:12.843Z</time></trkpt><trkpt lat="43.5489404" lon="10.9157878"><ele>311.0</ele><time>2026-04-11T15:51:13.844Z</time></trkpt><trkpt lat="43.5490351" lon="10.9156031"><ele>311.0</ele><time>2026-04-11T15:51:14.846Z</time></trkpt><trkpt lat="43.5491043" lon="10.9154199"><ele>311.0</ele><time>2026-04-11T15:51:15.839Z</time></trkpt><trkpt lat="43.5491978" lon="10.9152249"><ele>311.0</ele><time>2026-04-11T15:51:16.849Z</time></trkpt><trkpt lat="43.5492955" lon="10.9150627"><ele>311.6666666666667</ele><time>2026-04-11T15:51:17.848Z</time></trkpt><trkpt lat="43.5493997" lon="10.9149119"><ele>312.3333333333333</ele><time>2026-04-11T15:51:18.84Z</time></trkpt><trkpt lat="43.5495099" lon="10.914796"><ele>313.0</ele><time>2026-04-11T15:51:19.841Z</time></trkpt><trkpt lat="43.5496465" lon="10.9146743"><ele>313.0</ele><time>2026-04-11T15:51:20.849Z</time></trkpt><trkpt lat="43.5497927" lon="10.914592"><ele>313.0</ele><time>2026-04-11T15:51:21.844Z</time></trkpt><trkpt lat="43.5499298" lon="10.9145294"><ele>313.0</ele><time>2026-04-11T15:51:22.845Z</time></trkpt><trkpt lat="43.5500905" lon="10.9145258"><ele>313.0</ele><time>2026-04-11T15:51:23.84Z</time></trkpt><trkpt lat="43.550254" lon="10.9145392"><ele>313.0</ele><time>2026-04-11T15:51:24.835Z</time></trkpt><trkpt lat="43.5504245" lon="10.9145229"><ele>313.0</ele><time>2026-04-11T15:51:25.834Z</time></trkpt><trkpt lat="43.5506128" lon="10.9145155"><ele>313.3333333333333</ele><time>2026-04-11T15:51:26.832Z</time></trkpt><trkpt lat="43.5507833" lon="10.9145216"><ele>313.6666666666667</ele><time>2026-04-11T15:51:27.834Z</time></trkpt><trkpt lat="43.5509639" lon="10.9145428"><ele>314.0</ele><time>2026-04-11T15:51:28.834Z</time></trkpt><trkpt lat="43.5511261" lon="10.914582"><ele>316.0</ele><time>2026-04-11T15:51:29.829Z</time></trkpt><trkpt lat="43.5512748" lon="10.9146346"><ele>318.0</ele><time>2026-04-11T15:51:30.833Z</time></trkpt><trkpt lat="43.5514119" lon="10.9146833"><ele>320.0</ele><time>2026-04-11T15:51:31.829Z</time></trkpt><trkpt lat="43.5515222" lon="10.9147017"><ele>322.0</ele><time>2026-04-11T15:51:32.832Z</time></trkpt><trkpt lat="43.5516238" lon="10.9147109"><ele>322.0</ele><time>2026-04-11T15:51:33.833Z</time></trkpt><trkpt lat="43.5517239" lon="10.9147232"><ele>322.0</ele><time>2026-04-11T15:51:34.828Z</time></trkpt><trkpt lat="43.5518263" lon="10.9147306"><ele>322.0</ele><time>2026-04-11T15:51:35.828Z</time></trkpt><trkpt lat="43.551918" lon="10.9147242"><ele>322.0</ele><time>2026-04-11T15:51:36.828Z</time></trkpt><trkpt lat="43.5520122" lon="10.9147088"><ele>322.0</ele><time>2026-04-11T15:51:37.849Z</time></trkpt><trkpt lat="43.5520893" lon="10.9146995"><ele>323.40000000000003</ele><time>2026-04-11T15:51:38.848Z</time></trkpt><trkpt lat="43.5521565" lon="10.9146918"><ele>324.8</ele><time>2026-04-11T15:51:39.846Z</time></trkpt><trkpt lat="43.5522754" lon="10.9146741"><ele>326.2</ele><time>2026-04-11T15:51:41.853Z</time></trkpt><trkpt lat="43.5523736" lon="10.9146742"><ele>327.6</ele><time>2026-04-11T15:51:43.855Z</time></trkpt><trkpt lat="43.552483" lon="10.9146698"><ele>329.0</ele><time>2026-04-11T15:51:45.855Z</time></trkpt><trkpt lat="43.5525887" lon="10.9146651"><ele>329.0</ele><time>2026-04-11T15:51:47.855Z</time></trkpt><trkpt lat="43.5527042" lon="10.9146833"><ele>329.0</ele><time>2026-04-11T15:51:49.849Z</time></trkpt><trkpt lat="43.5527596" lon="10.9147317"><ele>329.0</ele><time>2026-04-11T15:51:50.858Z</time></trkpt><trkpt lat="43.5528167" lon="10.9148037"><ele>329.0</ele><time>2026-04-11T15:51:51.851Z</time></trkpt><trkpt lat="43.5528713" lon="10.9149332"><ele>329.0</ele><time>2026-04-11T15:51:52.855Z</time></trkpt><trkpt lat="43.5529286" lon="10.9150725"><ele>326.0</ele><time>2026-04-11T15:51:53.862Z</time></trkpt><trkpt lat="43.5529967" lon="10.9152013"><ele>323.0</ele><time>2026-04-11T15:51:54.857Z</time></trkpt><trkpt lat="43.5530723" lon="10.9152974"><ele>320.0</ele><time>2026-04-11T15:51:55.858Z</time></trkpt><trkpt lat="43.5531685" lon="10.9153488"><ele>317.0</ele><time>2026-04-11T15:51:56.847Z</time></trkpt><trkpt lat="43.5532838" lon="10.9153782"><ele>314.0</ele><time>2026-04-11T15:51:57.855Z</time></trkpt><trkpt lat="43.5534074" lon="10.9154234"><ele>314.0</ele><time>2026-04-11T15:51:58.848Z</time></trkpt><trkpt lat="43.5535218" lon="10.9154677"><ele>314.0</ele><time>2026-04-11T15:51:59.85Z</time></trkpt><trkpt lat="43.5536198" lon="10.915492"><ele>314.0</ele><time>2026-04-11T15:52:00.859Z</time></trkpt><trkpt lat="43.5537042" lon="10.9154674"><ele>314.0</ele><time>2026-04-11T15:52:01.865Z</time></trkpt><trkpt lat="43.553784" lon="10.9153781"><ele>314.0</ele><time>2026-04-11T15:52:02.862Z</time></trkpt><trkpt lat="43.5538511" lon="10.915234"><ele>310.6666666666667</ele><time>2026-04-11T15:52:03.861Z</time></trkpt><trkpt lat="43.5539145" lon="10.9150332"><ele>307.3333333333333</ele><time>2026-04-11T15:52:04.851Z</time></trkpt><trkpt lat="43.5539881" lon="10.9148014"><ele>304.0</ele><time>2026-04-11T15:52:05.855Z</time></trkpt><trkpt lat="43.5540464" lon="10.914616"><ele>304.0</ele><time>2026-04-11T15:52:06.861Z</time></trkpt><trkpt lat="43.5540944" lon="10.9144673"><ele>304.0</ele><time>2026-04-11T15:52:07.853Z</time></trkpt><trkpt lat="43.5541092" lon="10.9143178"><ele>304.0</ele><time>2026-04-11T15:52:08.854Z</time></trkpt><trkpt lat="43.5541292" lon="10.9141965"><ele>304.0</ele><time>2026-04-11T15:52:09.861Z</time></trkpt><trkpt lat="43.5541321" lon="10.9141064"><ele>304.0</ele><time>2026-04-11T15:52:10.877Z</time></trkpt><trkpt lat="43.5541966" lon="10.9140356"><ele>304.0</ele><time>2026-04-11T15:52:11.872Z</time></trkpt><trkpt lat="43.5542525" lon="10.9139909"><ele>304.0</ele><time>2026-04-11T15:52:12.869Z</time></trkpt><trkpt lat="43.5543291" lon="10.9139858"><ele>304.0</ele><time>2026-04-11T15:52:13.879Z</time></trkpt><trkpt lat="43.5544135" lon="10.9140882"><ele>304.0</ele><time>2026-04-11T15:52:14.872Z</time></trkpt><trkpt lat="43.5544628" lon="10.9142078"><ele>304.0</ele><time>2026-04-11T15:52:15.877Z</time></trkpt><trkpt lat="43.5544683" lon="10.9143352"><ele>304.0</ele><time>2026-04-11T15:52:16.877Z</time></trkpt><trkpt lat="43.5544528" lon="10.9144617"><ele>304.0</ele><time>2026-04-11T15:52:17.873Z</time></trkpt><trkpt lat="43.5544422" lon="10.9145784"><ele>304.0</ele><time>2026-04-11T15:52:18.867Z</time></trkpt><trkpt lat="43.5544617" lon="10.9146841"><ele>304.0</ele><time>2026-04-11T15:52:19.87Z</time></trkpt><trkpt lat="43.5545102" lon="10.9147664"><ele>304.0</ele><time>2026-04-11T15:52:20.863Z</time></trkpt><trkpt lat="43.5546092" lon="10.9148343"><ele>304.0</ele><time>2026-04-11T15:52:21.874Z</time></trkpt><trkpt lat="43.5547713" lon="10.9148936"><ele>298.0</ele><time>2026-04-11T15:52:22.867Z</time></trkpt><trkpt lat="43.554949" lon="10.9149707"><ele>292.0</ele><time>2026-04-11T15:52:23.865Z</time></trkpt><trkpt lat="43.5551382" lon="10.9150633"><ele>286.0</ele><time>2026-04-11T15:52:24.869Z</time></trkpt><trkpt lat="43.5553717" lon="10.9151627"><ele>279.0</ele><time>2026-04-11T15:52:25.87Z</time></trkpt><trkpt lat="43.5557037" lon="10.9153134"><ele>272.0</ele><time>2026-04-11T15:52:27.959Z</time></trkpt><trkpt lat="43.5558789" lon="10.9153946"><ele>272.0</ele><time>2026-04-11T15:52:28.965Z</time></trkpt><trkpt lat="43.5560684" lon="10.9154875"><ele>272.0</ele><time>2026-04-11T15:52:29.962Z</time></trkpt><trkpt lat="43.5562624" lon="10.9155846"><ele>272.0</ele><time>2026-04-11T15:52:30.959Z</time></trkpt><trkpt lat="43.5564565" lon="10.9156857"><ele>270.6666666666667</ele><time>2026-04-11T15:52:31.953Z</time></trkpt><trkpt lat="43.5566435" lon="10.9157847"><ele>269.3333333333333</ele><time>2026-04-11T15:52:32.959Z</time></trkpt><trkpt lat="43.5568258" lon="10.9158793"><ele>268.0</ele><time>2026-04-11T15:52:33.96Z</time></trkpt><trkpt lat="43.5570025" lon="10.9159699"><ele>265.3333333333333</ele><time>2026-04-11T15:52:34.959Z</time></trkpt><trkpt lat="43.5571667" lon="10.9160546"><ele>262.6666666666667</ele><time>2026-04-11T15:52:35.959Z</time></trkpt><trkpt lat="43.557319" lon="10.9161312"><ele>260.0</ele><time>2026-04-11T15:52:36.96Z</time></trkpt><trkpt lat="43.5574673" lon="10.9162045"><ele>260.0</ele><time>2026-04-11T15:52:37.953Z</time></trkpt><trkpt lat="43.5576001" lon="10.9162293"><ele>260.0</ele><time>2026-04-11T15:52:38.949Z</time></trkpt><trkpt lat="43.5577258" lon="10.9163604"><ele>260.0</ele><time>2026-04-11T15:52:39.934Z</time></trkpt><trkpt lat="43.5578563" lon="10.9165236"><ele>258.6666666666667</ele><time>2026-04-11T15:52:40.938Z</time></trkpt><trkpt lat="43.5579848" lon="10.9167034"><ele>257.3333333333333</ele><time>2026-04-11T15:52:41.942Z</time></trkpt><trkpt lat="43.5581163" lon="10.9168912"><ele>256.0</ele><time>2026-04-11T15:52:42.938Z</time></trkpt><trkpt lat="43.558237" lon="10.9170838"><ele>254.66666666666666</ele><time>2026-04-11T15:52:43.958Z</time></trkpt><trkpt lat="43.5583478" lon="10.9172582"><ele>253.33333333333331</ele><time>2026-04-11T15:52:44.952Z</time></trkpt><trkpt lat="43.5584548" lon="10.9174127"><ele>252.0</ele><time>2026-04-11T15:52:45.949Z</time></trkpt><trkpt lat="43.5585596" lon="10.9175424"><ele>250.75</ele><time>2026-04-11T15:52:46.956Z</time></trkpt><trkpt lat="43.5586735" lon="10.9176364"><ele>249.5</ele><time>2026-04-11T15:52:47.952Z</time></trkpt><trkpt lat="43.5588043" lon="10.917675"><ele>248.25</ele><time>2026-04-11T15:52:48.938Z</time></trkpt><trkpt lat="43.5589624" lon="10.9176643"><ele>247.0</ele><time>2026-04-11T15:52:49.938Z</time></trkpt><trkpt lat="43.559315" lon="10.9175418"><ele>247.0</ele><time>2026-04-11T15:52:50.853Z</time></trkpt><trkpt lat="43.5595206" lon="10.917491"><ele>247.0</ele><time>2026-04-11T15:52:51.856Z</time></trkpt><trkpt lat="43.5597286" lon="10.9174519"><ele>247.0</ele><time>2026-04-11T15:52:52.871Z</time></trkpt><trkpt lat="43.5599243" lon="10.9173896"><ele>246.33333333333331</ele><time>2026-04-11T15:52:53.871Z</time></trkpt><trkpt lat="43.5601148" lon="10.9172997"><ele>245.66666666666669</ele><time>2026-04-11T15:52:54.865Z</time></trkpt><trkpt lat="43.5602972" lon="10.9171821"><ele>245.0</ele><time>2026-04-11T15:52:55.866Z</time></trkpt><trkpt lat="43.5604686" lon="10.9170189"><ele>245.33333333333334</ele><time>2026-04-11T15:52:56.881Z</time></trkpt><trkpt lat="43.5606329" lon="10.9168234"><ele>245.66666666666669</ele><time>2026-04-11T15:52:57.873Z</time></trkpt><trkpt lat="43.5607826" lon="10.9166186"><ele>246.0</ele><time>2026-04-11T15:52:58.875Z</time></trkpt><trkpt lat="43.5609383" lon="10.9164252"><ele>246.0</ele><time>2026-04-11T15:52:59.869Z</time></trkpt><trkpt lat="43.561069" lon="10.9162775"><ele>246.0</ele><time>2026-04-11T15:53:00.855Z</time></trkpt><trkpt lat="43.5611973" lon="10.9161806"><ele>246.0</ele><time>2026-04-11T15:53:01.867Z</time></trkpt><trkpt lat="43.5613098" lon="10.9161544"><ele>246.0</ele><time>2026-04-11T15:53:02.862Z</time></trkpt><trkpt lat="43.5614454" lon="10.9161593"><ele>243.75</ele><time>2026-04-11T15:53:03.872Z</time></trkpt><trkpt lat="43.5615773" lon="10.9161732"><ele>241.5</ele><time>2026-04-11T15:53:04.865Z</time></trkpt><trkpt lat="43.5617079" lon="10.9161871"><ele>239.25</ele><time>2026-04-11T15:53:05.862Z</time></trkpt><trkpt lat="43.5618622" lon="10.9161783"><ele>237.0</ele><time>2026-04-11T15:53:06.872Z</time></trkpt><trkpt lat="43.5620225" lon="10.9161866"><ele>237.0</ele><time>2026-04-11T15:53:07.869Z</time></trkpt><trkpt lat="43.5621757" lon="10.9162224"><ele>237.0</ele><time>2026-04-11T15:53:08.863Z</time></trkpt><trkpt lat="43.5623351" lon="10.9162965"><ele>237.0</ele><time>2026-04-11T15:53:09.869Z</time></trkpt><trkpt lat="43.5624943" lon="10.9164254"><ele>237.0</ele><time>2026-04-11T15:53:10.868Z</time></trkpt><trkpt lat="43.5626212" lon="10.9166083"><ele>237.0</ele><time>2026-04-11T15:53:11.861Z</time></trkpt><trkpt lat="43.5627453" lon="10.9168129"><ele>237.0</ele><time>2026-04-11T15:53:12.866Z</time></trkpt><trkpt lat="43.5628623" lon="10.9169872"><ele>235.25</ele><time>2026-04-11T15:53:13.862Z</time></trkpt><trkpt lat="43.562949" lon="10.9171469"><ele>233.5</ele><time>2026-04-11T15:53:14.854Z</time></trkpt><trkpt lat="43.5630135" lon="10.9172675"><ele>231.75</ele><time>2026-04-11T15:53:15.86Z</time></trkpt><trkpt lat="43.5631378" lon="10.9173055"><ele>230.0</ele><time>2026-04-11T15:53:16.852Z</time></trkpt><trkpt lat="43.5632449" lon="10.917316"><ele>230.0</ele><time>2026-04-11T15:53:17.861Z</time></trkpt><trkpt lat="43.5633951" lon="10.9172984"><ele>230.0</ele><time>2026-04-11T15:53:18.859Z</time></trkpt><trkpt lat="43.5635795" lon="10.917282"><ele>230.0</ele><time>2026-04-11T15:53:19.856Z</time></trkpt><trkpt lat="43.5637785" lon="10.9172703"><ele>228.33333333333334</ele><time>2026-04-11T15:53:20.856Z</time></trkpt><trkpt lat="43.563971" lon="10.9172414"><ele>226.66666666666669</ele><time>2026-04-11T15:53:21.857Z</time></trkpt><trkpt lat="43.5641301" lon="10.9172103"><ele>225.0</ele><time>2026-04-11T15:53:22.868Z</time></trkpt><trkpt lat="43.5642847" lon="10.9171442"><ele>225.0</ele><time>2026-04-11T15:53:23.859Z</time></trkpt><trkpt lat="43.5644108" lon="10.9170444"><ele>225.0</ele><time>2026-04-11T15:53:24.852Z</time></trkpt><trkpt lat="43.5645768" lon="10.9169074"><ele>225.0</ele><time>2026-04-11T15:53:25.872Z</time></trkpt><trkpt lat="43.5647342" lon="10.9167625"><ele>224.0</ele><time>2026-04-11T15:53:26.882Z</time></trkpt><trkpt lat="43.5649148" lon="10.9166093"><ele>223.0</ele><time>2026-04-11T15:53:27.864Z</time></trkpt><trkpt lat="43.5651079" lon="10.9164532"><ele>222.0</ele><time>2026-04-11T15:53:28.864Z</time></trkpt><trkpt lat="43.5652939" lon="10.9162965"><ele>220.33333333333331</ele><time>2026-04-11T15:53:29.862Z</time></trkpt><trkpt lat="43.5654949" lon="10.9161615"><ele>218.66666666666666</ele><time>2026-04-11T15:53:30.857Z</time></trkpt><trkpt lat="43.5656721" lon="10.9160423"><ele>217.0</ele><time>2026-04-11T15:53:31.852Z</time></trkpt><trkpt lat="43.5658676" lon="10.9159467"><ele>218.33333333333331</ele><time>2026-04-11T15:53:32.866Z</time></trkpt><trkpt lat="43.566046" lon="10.915846"><ele>219.66666666666669</ele><time>2026-04-11T15:53:33.861Z</time></trkpt><trkpt lat="43.566199" lon="10.9157429"><ele>221.0</ele><time>2026-04-11T15:53:34.864Z</time></trkpt><trkpt lat="43.566324" lon="10.9156191"><ele>221.0</ele><time>2026-04-11T15:53:35.864Z</time></trkpt><trkpt lat="43.5664484" lon="10.9155118"><ele>221.0</ele><time>2026-04-11T15:53:36.863Z</time></trkpt><trkpt lat="43.5665344" lon="10.9153821"><ele>221.0</ele><time>2026-04-11T15:53:37.858Z</time></trkpt><trkpt lat="43.5665976" lon="10.9152038"><ele>221.0</ele><time>2026-04-11T15:53:38.856Z</time></trkpt><trkpt lat="43.5666353" lon="10.9149898"><ele>221.0</ele><time>2026-04-11T15:53:39.861Z</time></trkpt><trkpt lat="43.5666717" lon="10.9147716"><ele>221.0</ele><time>2026-04-11T15:53:40.861Z</time></trkpt><trkpt lat="43.5667099" lon="10.9145491"><ele>221.0</ele><time>2026-04-11T15:53:41.861Z</time></trkpt><trkpt lat="43.5667652" lon="10.9143081"><ele>221.5</ele><time>2026-04-11T15:53:42.868Z</time></trkpt><trkpt lat="43.5668152" lon="10.9140916"><ele>222.0</ele><time>2026-04-11T15:53:43.862Z</time></trkpt><trkpt lat="43.566843" lon="10.9139012"><ele>222.5</ele><time>2026-04-11T15:53:44.861Z</time></trkpt><trkpt lat="43.5668778" lon="10.9137349"><ele>223.0</ele><time>2026-04-11T15:53:45.867Z</time></trkpt><trkpt lat="43.5669254" lon="10.9135846"><ele>223.0</ele><time>2026-04-11T15:53:46.86Z</time></trkpt><trkpt lat="43.567008" lon="10.9135007"><ele>223.0</ele><time>2026-04-11T15:53:47.845Z</time></trkpt><trkpt lat="43.5670851" lon="10.913437"><ele>223.0</ele><time>2026-04-11T15:53:48.866Z</time></trkpt><trkpt lat="43.567209" lon="10.9134489"><ele>223.0</ele><time>2026-04-11T15:53:49.862Z</time></trkpt><trkpt lat="43.5673225" lon="10.9135005"><ele>223.0</ele><time>2026-04-11T15:53:50.868Z</time></trkpt><trkpt lat="43.5674195" lon="10.9136024"><ele>221.0</ele><time>2026-04-11T15:53:51.859Z</time></trkpt><trkpt lat="43.5675025" lon="10.9137338"><ele>219.0</ele><time>2026-04-11T15:53:52.867Z</time></trkpt><trkpt lat="43.5675787" lon="10.9139009"><ele>217.0</ele><time>2026-04-11T15:53:53.852Z</time></trkpt><trkpt lat="43.56767" lon="10.9140431"><ele>215.0</ele><time>2026-04-11T15:53:54.86Z</time></trkpt><trkpt lat="43.5677701" lon="10.9141395"><ele>211.33333333333334</ele><time>2026-04-11T15:53:55.863Z</time></trkpt><trkpt lat="43.5679051" lon="10.9141875"><ele>207.66666666666669</ele><time>2026-04-11T15:53:56.861Z</time></trkpt><trkpt lat="43.5680678" lon="10.9142152"><ele>204.0</ele><time>2026-04-11T15:53:57.859Z</time></trkpt><trkpt lat="43.5682709" lon="10.9142338"><ele>203.33333333333331</ele><time>2026-04-11T15:53:58.861Z</time></trkpt><trkpt lat="43.5684856" lon="10.9142847"><ele>202.66666666666666</ele><time>2026-04-11T15:53:59.862Z</time></trkpt><trkpt lat="43.5686931" lon="10.9144091"><ele>202.0</ele><time>2026-04-11T15:54:00.857Z</time></trkpt><trkpt lat="43.5688722" lon="10.914535"><ele>202.0</ele><time>2026-04-11T15:54:01.854Z</time></trkpt><trkpt lat="43.5690491" lon="10.9146416"><ele>202.0</ele><time>2026-04-11T15:54:02.858Z</time></trkpt><trkpt lat="43.5691937" lon="10.9148222"><ele>202.0</ele><time>2026-04-11T15:54:03.87Z</time></trkpt><trkpt lat="43.5693465" lon="10.9150329"><ele>201.0</ele><time>2026-04-11T15:54:04.859Z</time></trkpt><trkpt lat="43.5695168" lon="10.9152125"><ele>200.0</ele><time>2026-04-11T15:54:05.862Z</time></trkpt><trkpt lat="43.5696889" lon="10.9153655"><ele>199.0</ele><time>2026-04-11T15:54:06.868Z</time></trkpt><trkpt lat="43.5698554" lon="10.9155155"><ele>199.0</ele><time>2026-04-11T15:54:07.874Z</time></trkpt><trkpt lat="43.5700319" lon="10.915657"><ele>199.0</ele><time>2026-04-11T15:54:08.867Z</time></trkpt><trkpt lat="43.5701963" lon="10.9157963"><ele>199.0</ele><time>2026-04-11T15:54:09.868Z</time></trkpt><trkpt lat="43.5703599" lon="10.9159093"><ele>196.66666666666666</ele><time>2026-04-11T15:54:10.869Z</time></trkpt><trkpt lat="43.5705177" lon="10.9160221"><ele>194.33333333333331</ele><time>2026-04-11T15:54:11.872Z</time></trkpt><trkpt lat="43.5706564" lon="10.9161268"><ele>192.0</ele><time>2026-04-11T15:54:12.873Z</time></trkpt><trkpt lat="43.5707983" lon="10.9162037"><ele>192.0</ele><time>2026-04-11T15:54:13.873Z</time></trkpt><trkpt lat="43.5709316" lon="10.9162908"><ele>192.0</ele><time>2026-04-11T15:54:14.87Z</time></trkpt><trkpt lat="43.5710564" lon="10.9163308"><ele>192.0</ele><time>2026-04-11T15:54:15.868Z</time></trkpt><trkpt lat="43.5711891" lon="10.9163708"><ele>192.0</ele><time>2026-04-11T15:54:16.867Z</time></trkpt><trkpt lat="43.5713078" lon="10.9163958"><ele>192.0</ele><time>2026-04-11T15:54:17.867Z</time></trkpt><trkpt lat="43.5714149" lon="10.9163796"><ele>192.0</ele><time>2026-04-11T15:54:18.864Z</time></trkpt><trkpt lat="43.57155" lon="10.9163257"><ele>192.0</ele><time>2026-04-11T15:54:19.852Z</time></trkpt><trkpt lat="43.571716" lon="10.9162149"><ele>192.0</ele><time>2026-04-11T15:54:20.856Z</time></trkpt><trkpt lat="43.5718642" lon="10.9161116"><ele>189.0</ele><time>2026-04-11T15:54:21.855Z</time></trkpt><trkpt lat="43.5720362" lon="10.9159852"><ele>186.0</ele><time>2026-04-11T15:54:22.88Z</time></trkpt><trkpt lat="43.5722213" lon="10.9158677"><ele>183.0</ele><time>2026-04-11T15:54:23.86Z</time></trkpt><trkpt lat="43.5724022" lon="10.915742"><ele>183.0</ele><time>2026-04-11T15:54:24.872Z</time></trkpt><trkpt lat="43.5725592" lon="10.9156184"><ele>183.0</ele><time>2026-04-11T15:54:26.937Z</time></trkpt><trkpt lat="43.5726839" lon="10.9155077"><ele>183.0</ele><time>2026-04-11T15:54:27.947Z</time></trkpt><trkpt lat="43.5727882" lon="10.9153897"><ele>181.33333333333334</ele><time>2026-04-11T15:54:28.945Z</time></trkpt><trkpt lat="43.5728632" lon="10.9152563"><ele>179.66666666666669</ele><time>2026-04-11T15:54:29.934Z</time></trkpt><trkpt lat="43.572912" lon="10.915099"><ele>178.0</ele><time>2026-04-11T15:54:30.926Z</time></trkpt><trkpt lat="43.5728685" lon="10.9147602"><ele>178.0</ele><time>2026-04-11T15:54:31.841Z</time></trkpt><trkpt lat="43.5727894" lon="10.9145747"><ele>178.0</ele><time>2026-04-11T15:54:32.835Z</time></trkpt><trkpt lat="43.5727366" lon="10.9143749"><ele>178.0</ele><time>2026-04-11T15:54:33.852Z</time></trkpt><trkpt lat="43.5726967" lon="10.9141593"><ele>178.0</ele><time>2026-04-11T15:54:34.849Z</time></trkpt><trkpt lat="43.5726801" lon="10.9139737"><ele>178.0</ele><time>2026-04-11T15:54:35.848Z</time></trkpt><trkpt lat="43.572659" lon="10.9138209"><ele>178.0</ele><time>2026-04-11T15:54:36.848Z</time></trkpt><trkpt lat="43.5726809" lon="10.9137107"><ele>178.0</ele><time>2026-04-11T15:54:37.842Z</time></trkpt><trkpt lat="43.5727216" lon="10.9136025"><ele>178.0</ele><time>2026-04-11T15:54:38.84Z</time></trkpt><trkpt lat="43.5727758" lon="10.9135556"><ele>178.25</ele><time>2026-04-11T15:54:39.852Z</time></trkpt><trkpt lat="43.5728877" lon="10.9135612"><ele>178.5</ele><time>2026-04-11T15:54:40.856Z</time></trkpt><trkpt lat="43.5730223" lon="10.9136119"><ele>178.75</ele><time>2026-04-11T15:54:41.842Z</time></trkpt><trkpt lat="43.5731659" lon="10.913667"><ele>179.0</ele><time>2026-04-11T15:54:42.86Z</time></trkpt><trkpt lat="43.5733279" lon="10.9137747"><ele>179.0</ele><time>2026-04-11T15:54:43.852Z</time></trkpt><trkpt lat="43.5735048" lon="10.9139069"><ele>179.0</ele><time>2026-04-11T15:54:44.846Z</time></trkpt><trkpt lat="43.5736313" lon="10.9139926"><ele>179.0</ele><time>2026-04-11T15:54:45.862Z</time></trkpt><trkpt lat="43.573736" lon="10.9139901"><ele>179.0</ele><time>2026-04-11T15:54:46.854Z</time></trkpt><trkpt lat="43.5738527" lon="10.9139365"><ele>178.25</ele><time>2026-04-11T15:54:47.852Z</time></trkpt><trkpt lat="43.5739482" lon="10.9138064"><ele>177.5</ele><time>2026-04-11T15:54:48.86Z</time></trkpt><trkpt lat="43.5740223" lon="10.9136261"><ele>176.75</ele><time>2026-04-11T15:54:49.846Z</time></trkpt><trkpt lat="43.5740666" lon="10.9134147"><ele>176.0</ele><time>2026-04-11T15:54:50.847Z</time></trkpt><trkpt lat="43.574095" lon="10.9131886"><ele>177.5</ele><time>2026-04-11T15:54:51.864Z</time></trkpt><trkpt lat="43.5741202" lon="10.9129712"><ele>179.0</ele><time>2026-04-11T15:54:52.849Z</time></trkpt><trkpt lat="43.5741706" lon="10.9128153"><ele>180.5</ele><time>2026-04-11T15:54:53.854Z</time></trkpt><trkpt lat="43.5742482" lon="10.9126966"><ele>182.0</ele><time>2026-04-11T15:54:54.862Z</time></trkpt><trkpt lat="43.5743399" lon="10.9126307"><ele>182.0</ele><time>2026-04-11T15:54:55.861Z</time></trkpt><trkpt lat="43.5744616" lon="10.9126069"><ele>182.0</ele><time>2026-04-11T15:54:56.855Z</time></trkpt><trkpt lat="43.5745919" lon="10.9125791"><ele>182.0</ele><time>2026-04-11T15:54:57.857Z</time></trkpt><trkpt lat="43.5747339" lon="10.9124971"><ele>182.0</ele><time>2026-04-11T15:54:58.854Z</time></trkpt><trkpt lat="43.5748873" lon="10.9123894"><ele>180.75</ele><time>2026-04-11T15:54:59.852Z</time></trkpt><trkpt lat="43.5750234" lon="10.9123347"><ele>179.5</ele><time>2026-04-11T15:55:00.874Z</time></trkpt><trkpt lat="43.5751506" lon="10.9123078"><ele>178.25</ele><time>2026-04-11T15:55:01.866Z</time></trkpt><trkpt lat="43.5752713" lon="10.9123467"><ele>177.0</ele><time>2026-04-11T15:55:02.865Z</time></trkpt><trkpt lat="43.5753682" lon="10.9124524"><ele>178.33333333333334</ele><time>2026-04-11T15:55:03.859Z</time></trkpt><trkpt lat="43.5754211" lon="10.912605"><ele>179.66666666666669</ele><time>2026-04-11T15:55:04.861Z</time></trkpt><trkpt lat="43.5754996" lon="10.9128071"><ele>181.0</ele><time>2026-04-11T15:55:05.857Z</time></trkpt><trkpt lat="43.5755618" lon="10.9130294"><ele>181.0</ele><time>2026-04-11T15:55:06.859Z</time></trkpt><trkpt lat="43.5756163" lon="10.9132717"><ele>181.0</ele><time>2026-04-11T15:55:07.869Z</time></trkpt><trkpt lat="43.5756597" lon="10.9134545"><ele>181.0</ele><time>2026-04-11T15:55:08.865Z</time></trkpt><trkpt lat="43.5757053" lon="10.9136094"><ele>181.0</ele><time>2026-04-11T15:55:09.869Z</time></trkpt><trkpt lat="43.5757787" lon="10.9137445"><ele>182.66666666666669</ele><time>2026-04-11T15:55:10.862Z</time></trkpt><trkpt lat="43.5759054" lon="10.91383"><ele>184.33333333333334</ele><time>2026-04-11T15:55:11.855Z</time></trkpt><trkpt lat="43.5760502" lon="10.9139564"><ele>186.0</ele><time>2026-04-11T15:55:12.856Z</time></trkpt><trkpt lat="43.5761677" lon="10.914126"><ele>179.66666666666666</ele><time>2026-04-11T15:55:13.864Z</time></trkpt><trkpt lat="43.5763139" lon="10.9143376"><ele>173.33333333333331</ele><time>2026-04-11T15:55:14.864Z</time></trkpt><trkpt lat="43.5764711" lon="10.914564"><ele>167.0</ele><time>2026-04-11T15:55:15.867Z</time></trkpt><trkpt lat="43.5766129" lon="10.9147947"><ele>167.0</ele><time>2026-04-11T15:55:16.87Z</time></trkpt><trkpt lat="43.5767557" lon="10.9149995"><ele>167.0</ele><time>2026-04-11T15:55:17.864Z</time></trkpt><trkpt lat="43.5768575" lon="10.9152046"><ele>167.0</ele><time>2026-04-11T15:55:18.865Z</time></trkpt><trkpt lat="43.5769147" lon="10.9153547"><ele>168.5</ele><time>2026-04-11T15:55:19.871Z</time></trkpt><trkpt lat="43.5769916" lon="10.9154553"><ele>170.0</ele><time>2026-04-11T15:55:20.865Z</time></trkpt><trkpt lat="43.5770947" lon="10.9154975"><ele>171.5</ele><time>2026-04-11T15:55:21.867Z</time></trkpt><trkpt lat="43.5772415" lon="10.9154644"><ele>173.0</ele><time>2026-04-11T15:55:22.865Z</time></trkpt><trkpt lat="43.5774125" lon="10.9154221"><ele>173.0</ele><time>2026-04-11T15:55:23.856Z</time></trkpt><trkpt lat="43.5775934" lon="10.9154128"><ele>173.0</ele><time>2026-04-11T15:55:24.853Z</time></trkpt><trkpt lat="43.5777618" lon="10.9154586"><ele>173.0</ele><time>2026-04-11T15:55:25.86Z</time></trkpt><trkpt lat="43.5779297" lon="10.9155465"><ele>174.33333333333331</ele><time>2026-04-11T15:55:26.864Z</time></trkpt><trkpt lat="43.5781155" lon="10.9156711"><ele>175.66666666666666</ele><time>2026-04-11T15:55:27.878Z</time></trkpt><trkpt lat="43.5782979" lon="10.9157731"><ele>177.0</ele><time>2026-04-11T15:55:28.872Z</time></trkpt><trkpt lat="43.5784515" lon="10.9158919"><ele>174.0</ele><time>2026-04-11T15:55:29.865Z</time></trkpt><trkpt lat="43.5786068" lon="10.9160034"><ele>171.0</ele><time>2026-04-11T15:55:30.875Z</time></trkpt><trkpt lat="43.5787169" lon="10.9161272"><ele>168.0</ele><time>2026-04-11T15:55:31.866Z</time></trkpt><trkpt lat="43.5788276" lon="10.916205"><ele>165.0</ele><time>2026-04-11T15:55:32.873Z</time></trkpt><trkpt lat="43.5790055" lon="10.9162086"><ele>165.0</ele><time>2026-04-11T15:55:33.876Z</time></trkpt><trkpt lat="43.5791855" lon="10.9161983"><ele>165.0</ele><time>2026-04-11T15:55:34.86Z</time></trkpt><trkpt lat="43.579399" lon="10.9162112"><ele>165.0</ele><time>2026-04-11T15:55:35.869Z</time></trkpt><trkpt lat="43.5795936" lon="10.916241"><ele>166.0</ele><time>2026-04-11T15:55:36.87Z</time></trkpt><trkpt lat="43.5797807" lon="10.9163297"><ele>167.0</ele><time>2026-04-11T15:55:37.868Z</time></trkpt><trkpt lat="43.5799436" lon="10.9164562"><ele>168.0</ele><time>2026-04-11T15:55:38.876Z</time></trkpt><trkpt lat="43.5801097" lon="10.9166344"><ele>168.33333333333334</ele><time>2026-04-11T15:55:39.87Z</time></trkpt><trkpt lat="43.5802533" lon="10.9168198"><ele>168.66666666666669</ele><time>2026-04-11T15:55:40.869Z</time></trkpt><trkpt lat="43.580395" lon="10.9170556"><ele>169.0</ele><time>2026-04-11T15:55:41.878Z</time></trkpt><trkpt lat="43.5805228" lon="10.9173012"><ele>169.0</ele><time>2026-04-11T15:55:42.871Z</time></trkpt><trkpt lat="43.5806493" lon="10.9175394"><ele>169.0</ele><time>2026-04-11T15:55:43.868Z</time></trkpt><trkpt lat="43.5807802" lon="10.9177282"><ele>169.0</ele><time>2026-04-11T15:55:44.869Z</time></trkpt><trkpt lat="43.5809035" lon="10.9178993"><ele>170.66666666666669</ele><time>2026-04-11T15:55:45.867Z</time></trkpt><trkpt lat="43.5810512" lon="10.918046"><ele>172.33333333333334</ele><time>2026-04-11T15:55:46.875Z</time></trkpt><trkpt lat="43.5812116" lon="10.9181413"><ele>174.0</ele><time>2026-04-11T15:55:47.87Z</time></trkpt><trkpt lat="43.5813884" lon="10.9182328"><ele>174.75</ele><time>2026-04-11T15:55:48.875Z</time></trkpt><trkpt lat="43.5815369" lon="10.9183099"><ele>175.5</ele><time>2026-04-11T15:55:49.874Z</time></trkpt><trkpt lat="43.5816941" lon="10.9183382"><ele>176.25</ele><time>2026-04-11T15:55:50.873Z</time></trkpt><trkpt lat="43.5818088" lon="10.9182996"><ele>177.0</ele><time>2026-04-11T15:55:51.871Z</time></trkpt><trkpt lat="43.5819375" lon="10.9181697"><ele>178.33333333333334</ele><time>2026-04-11T15:55:52.859Z</time></trkpt><trkpt lat="43.5820443" lon="10.9180424"><ele>179.66666666666669</ele><time>2026-04-11T15:55:53.868Z</time></trkpt><trkpt lat="43.5821367" lon="10.9178526"><ele>181.0</ele><time>2026-04-11T15:55:54.863Z</time></trkpt><trkpt lat="43.5822512" lon="10.917698"><ele>181.0</ele><time>2026-04-11T15:55:55.857Z</time></trkpt><trkpt lat="43.5823594" lon="10.9175837"><ele>181.0</ele><time>2026-04-11T15:55:56.856Z</time></trkpt><trkpt lat="43.5824965" lon="10.9175187"><ele>181.0</ele><time>2026-04-11T15:55:57.874Z</time></trkpt><trkpt lat="43.5826378" lon="10.9174714"><ele>181.0</ele><time>2026-04-11T15:55:58.869Z</time></trkpt><trkpt lat="43.5827563" lon="10.9174334"><ele>175.33333333333334</ele><time>2026-04-11T15:55:59.873Z</time></trkpt><trkpt lat="43.5828908" lon="10.9173445"><ele>169.66666666666666</ele><time>2026-04-11T15:56:00.861Z</time></trkpt><trkpt lat="43.5830096" lon="10.917231"><ele>164.0</ele><time>2026-04-11T15:56:01.868Z</time></trkpt><trkpt lat="43.5831298" lon="10.9170471"><ele>164.0</ele><time>2026-04-11T15:56:02.873Z</time></trkpt><trkpt lat="43.5832736" lon="10.9168615"><ele>164.0</ele><time>2026-04-11T15:56:03.864Z</time></trkpt><trkpt lat="43.5834413" lon="10.9166897"><ele>164.0</ele><time>2026-04-11T15:56:04.867Z</time></trkpt><trkpt lat="43.5835993" lon="10.9165328"><ele>160.0</ele><time>2026-04-11T15:56:05.872Z</time></trkpt><trkpt lat="43.5837551" lon="10.9163368"><ele>156.0</ele><time>2026-04-11T15:56:06.861Z</time></trkpt><trkpt lat="43.5839088" lon="10.9161133"><ele>152.0</ele><time>2026-04-11T15:56:07.864Z</time></trkpt><trkpt lat="43.5840322" lon="10.9158646"><ele>152.0</ele><time>2026-04-11T15:56:08.863Z</time></trkpt><trkpt lat="43.5841302" lon="10.9156207"><ele>152.0</ele><time>2026-04-11T15:56:09.872Z</time></trkpt><trkpt lat="43.5842359" lon="10.915388"><ele>152.0</ele><time>2026-04-11T15:56:10.876Z</time></trkpt><trkpt lat="43.5843529" lon="10.9151771"><ele>150.33333333333331</ele><time>2026-04-11T15:56:11.872Z</time></trkpt><trkpt lat="43.5844724" lon="10.9149882"><ele>148.66666666666666</ele><time>2026-04-11T15:56:12.872Z</time></trkpt><trkpt lat="43.5846056" lon="10.9148236"><ele>147.0</ele><time>2026-04-11T15:56:13.869Z</time></trkpt><trkpt lat="43.5847689" lon="10.9146739"><ele>146.66666666666666</ele><time>2026-04-11T15:56:14.868Z</time></trkpt><trkpt lat="43.5849456" lon="10.9145586"><ele>146.33333333333331</ele><time>2026-04-11T15:56:15.87Z</time></trkpt><trkpt lat="43.5851363" lon="10.9144791"><ele>146.0</ele><time>2026-04-11T15:56:16.868Z</time></trkpt><trkpt lat="43.5853274" lon="10.9144464"><ele>143.0</ele><time>2026-04-11T15:56:17.867Z</time></trkpt><trkpt lat="43.5855337" lon="10.9144076"><ele>140.0</ele><time>2026-04-11T15:56:18.868Z</time></trkpt><trkpt lat="43.5857487" lon="10.9143491"><ele>137.0</ele><time>2026-04-11T15:56:19.877Z</time></trkpt><trkpt lat="43.5859594" lon="10.9142855"><ele>139.0</ele><time>2026-04-11T15:56:20.883Z</time></trkpt><trkpt lat="43.5861601" lon="10.9142189"><ele>141.0</ele><time>2026-04-11T15:56:21.876Z</time></trkpt><trkpt lat="43.5863277" lon="10.9141691"><ele>143.0</ele><time>2026-04-11T15:56:22.877Z</time></trkpt><trkpt lat="43.5864704" lon="10.9141076"><ele>143.0</ele><time>2026-04-11T15:56:23.882Z</time></trkpt><trkpt lat="43.5866258" lon="10.9140537"><ele>143.0</ele><time>2026-04-11T15:56:24.882Z</time></trkpt><trkpt lat="43.5867707" lon="10.9139972"><ele>143.0</ele><time>2026-04-11T15:56:25.878Z</time></trkpt><trkpt lat="43.5869112" lon="10.9139368"><ele>142.0</ele><time>2026-04-11T15:56:26.877Z</time></trkpt><trkpt lat="43.5870724" lon="10.9138856"><ele>141.0</ele><time>2026-04-11T15:56:27.879Z</time></trkpt><trkpt lat="43.5872174" lon="10.9138295"><ele>140.0</ele><time>2026-04-11T15:56:28.882Z</time></trkpt><trkpt lat="43.5873667" lon="10.9137625"><ele>140.0</ele><time>2026-04-11T15:56:29.871Z</time></trkpt><trkpt lat="43.5875084" lon="10.9136698"><ele>140.0</ele><time>2026-04-11T15:56:30.871Z</time></trkpt><trkpt lat="43.587649" lon="10.9135591"><ele>140.0</ele><time>2026-04-11T15:56:31.879Z</time></trkpt><trkpt lat="43.5877748" lon="10.9133885"><ele>144.66666666666666</ele><time>2026-04-11T15:56:32.874Z</time></trkpt><trkpt lat="43.5878938" lon="10.913235"><ele>149.33333333333334</ele><time>2026-04-11T15:56:33.86Z</time></trkpt><trkpt lat="43.5879983" lon="10.9130564"><ele>154.0</ele><time>2026-04-11T15:56:34.861Z</time></trkpt><trkpt lat="43.5880599" lon="10.9128561"><ele>154.0</ele><time>2026-04-11T15:56:35.865Z</time></trkpt><trkpt lat="43.5881096" lon="10.9126479"><ele>154.0</ele><time>2026-04-11T15:56:36.871Z</time></trkpt><trkpt lat="43.5881541" lon="10.9124879"><ele>154.0</ele><time>2026-04-11T15:56:37.861Z</time></trkpt><trkpt lat="43.5882278" lon="10.9123463"><ele>154.0</ele><time>2026-04-11T15:56:38.862Z</time></trkpt><trkpt lat="43.5883243" lon="10.9122419"><ele>152.8</ele><time>2026-04-11T15:56:39.859Z</time></trkpt><trkpt lat="43.5884326" lon="10.9122233"><ele>151.60000000000002</ele><time>2026-04-11T15:56:40.857Z</time></trkpt><trkpt lat="43.5885234" lon="10.9122742"><ele>150.4</ele><time>2026-04-11T15:56:41.865Z</time></trkpt><trkpt lat="43.5886259" lon="10.9123524"><ele>149.20000000000002</ele><time>2026-04-11T15:56:42.851Z</time></trkpt><trkpt lat="43.5886884" lon="10.9124881"><ele>148.0</ele><time>2026-04-11T15:56:43.863Z</time></trkpt><trkpt lat="43.5887439" lon="10.9126683"><ele>146.66666666666669</ele><time>2026-04-11T15:56:44.85Z</time></trkpt><trkpt lat="43.5888063" lon="10.9128562"><ele>145.33333333333334</ele><time>2026-04-11T15:56:45.858Z</time></trkpt><trkpt lat="43.5888778" lon="10.9130822"><ele>144.0</ele><time>2026-04-11T15:56:46.855Z</time></trkpt><trkpt lat="43.5889167" lon="10.913328"><ele>147.0</ele><time>2026-04-11T15:56:47.856Z</time></trkpt><trkpt lat="43.5889569" lon="10.913565"><ele>150.0</ele><time>2026-04-11T15:56:48.857Z</time></trkpt><trkpt lat="43.5890419" lon="10.9137527"><ele>153.0</ele><time>2026-04-11T15:56:49.853Z</time></trkpt><trkpt lat="43.5891486" lon="10.91394"><ele>153.0</ele><time>2026-04-11T15:56:50.857Z</time></trkpt><trkpt lat="43.589296" lon="10.9140942"><ele>153.0</ele><time>2026-04-11T15:56:51.858Z</time></trkpt><trkpt lat="43.5894414" lon="10.9142392"><ele>153.0</ele><time>2026-04-11T15:56:52.877Z</time></trkpt><trkpt lat="43.589599" lon="10.9144014"><ele>153.0</ele><time>2026-04-11T15:56:53.876Z</time></trkpt><trkpt lat="43.5897391" lon="10.9145626"><ele>153.0</ele><time>2026-04-11T15:56:54.869Z</time></trkpt><trkpt lat="43.5898353" lon="10.9147302"><ele>153.0</ele><time>2026-04-11T15:56:55.869Z</time></trkpt><trkpt lat="43.58993" lon="10.914908"><ele>153.0</ele><time>2026-04-11T15:56:56.857Z</time></trkpt><trkpt lat="43.5899912" lon="10.9150373"><ele>153.0</ele><time>2026-04-11T15:56:57.874Z</time></trkpt><trkpt lat="43.5900538" lon="10.9151245"><ele>153.0</ele><time>2026-04-11T15:56:58.868Z</time></trkpt><trkpt lat="43.59012" lon="10.9151782"><ele>153.0</ele><time>2026-04-11T15:56:59.857Z</time></trkpt><trkpt lat="43.59021" lon="10.9152061"><ele>153.0</ele><time>2026-04-11T15:57:00.856Z</time></trkpt><trkpt lat="43.5903709" lon="10.9151588"><ele>146.33333333333334</ele><time>2026-04-11T15:57:01.851Z</time></trkpt><trkpt lat="43.5905773" lon="10.9151103"><ele>139.66666666666669</ele><time>2026-04-11T15:57:02.845Z</time></trkpt><trkpt lat="43.5907805" lon="10.9150738"><ele>133.0</ele><time>2026-04-11T15:57:03.852Z</time></trkpt><trkpt lat="43.590964" lon="10.9150812"><ele>133.0</ele><time>2026-04-11T15:57:04.851Z</time></trkpt><trkpt lat="43.5911358" lon="10.9151182"><ele>133.0</ele><time>2026-04-11T15:57:05.851Z</time></trkpt><trkpt lat="43.5913067" lon="10.9152135"><ele>133.0</ele><time>2026-04-11T15:57:06.86Z</time></trkpt><trkpt lat="43.5914854" lon="10.9153152"><ele>134.0</ele><time>2026-04-11T15:57:07.864Z</time></trkpt><trkpt lat="43.591664" lon="10.9154375"><ele>135.0</ele><time>2026-04-11T15:57:08.868Z</time></trkpt><trkpt lat="43.5918642" lon="10.9155481"><ele>136.0</ele><time>2026-04-11T15:57:09.863Z</time></trkpt><trkpt lat="43.5920368" lon="10.9156811"><ele>137.75</ele><time>2026-04-11T15:57:10.865Z</time></trkpt><trkpt lat="43.5921792" lon="10.9158176"><ele>139.5</ele><time>2026-04-11T15:57:11.862Z</time></trkpt><trkpt lat="43.592291" lon="10.9159325"><ele>141.25</ele><time>2026-04-11T15:57:12.892Z</time></trkpt><trkpt lat="43.5924184" lon="10.9159683"><ele>143.0</ele><time>2026-04-11T15:57:13.879Z</time></trkpt><trkpt lat="43.5925451" lon="10.9159572"><ele>143.0</ele><time>2026-04-11T15:57:14.874Z</time></trkpt><trkpt lat="43.5926928" lon="10.9158829"><ele>143.0</ele><time>2026-04-11T15:57:15.877Z</time></trkpt><trkpt lat="43.5928526" lon="10.9157879"><ele>143.0</ele><time>2026-04-11T15:57:16.875Z</time></trkpt><trkpt lat="43.5930135" lon="10.9156867"><ele>143.33333333333331</ele><time>2026-04-11T15:57:17.858Z</time></trkpt><trkpt lat="43.593152" lon="10.9155677"><ele>143.66666666666666</ele><time>2026-04-11T15:57:18.865Z</time></trkpt><trkpt lat="43.5932977" lon="10.9153936"><ele>144.0</ele><time>2026-04-11T15:57:19.872Z</time></trkpt><trkpt lat="43.5934508" lon="10.915217"><ele>143.66666666666666</ele><time>2026-04-11T15:57:20.876Z</time></trkpt><trkpt lat="43.5936027" lon="10.9150296"><ele>143.33333333333331</ele><time>2026-04-11T15:57:22.951Z</time></trkpt><trkpt lat="43.5937421" lon="10.9148454"><ele>143.0</ele><time>2026-04-11T15:57:23.949Z</time></trkpt><trkpt lat="43.5938689" lon="10.9146617"><ele>140.0</ele><time>2026-04-11T15:57:24.947Z</time></trkpt><trkpt lat="43.5939855" lon="10.9144803"><ele>137.0</ele><time>2026-04-11T15:57:25.937Z</time></trkpt><trkpt lat="43.5940844" lon="10.9143177"><ele>134.0</ele><time>2026-04-11T15:57:26.941Z</time></trkpt><trkpt lat="43.5941665" lon="10.9141478"><ele>134.0</ele><time>2026-04-11T15:57:27.942Z</time></trkpt><trkpt lat="43.5942163" lon="10.9139695"><ele>134.0</ele><time>2026-04-11T15:57:28.932Z</time></trkpt><trkpt lat="43.5942355" lon="10.9137602"><ele>134.0</ele><time>2026-04-11T15:57:29.924Z</time></trkpt><trkpt lat="43.5942131" lon="10.9135355"><ele>130.0</ele><time>2026-04-11T15:57:30.937Z</time></trkpt><trkpt lat="43.5940752" lon="10.9129104"><ele>130.0</ele><time>2026-04-11T15:57:31.851Z</time></trkpt><trkpt lat="43.5940124" lon="10.9126074"><ele>130.0</ele><time>2026-04-11T15:57:32.869Z</time></trkpt><trkpt lat="43.5939501" lon="10.9122979"><ele>130.0</ele><time>2026-04-11T15:57:33.876Z</time></trkpt><trkpt lat="43.5938849" lon="10.912022"><ele>130.0</ele><time>2026-04-11T15:57:34.869Z</time></trkpt><trkpt lat="43.5938323" lon="10.9117715"><ele>130.0</ele><time>2026-04-11T15:57:35.864Z</time></trkpt><trkpt lat="43.5937997" lon="10.9115815"><ele>130.0</ele><time>2026-04-11T15:57:36.862Z</time></trkpt><trkpt lat="43.5937958" lon="10.9113855"><ele>130.0</ele><time>2026-04-11T15:57:37.868Z</time></trkpt><trkpt lat="43.5938333" lon="10.9111852"><ele>130.0</ele><time>2026-04-11T15:57:38.859Z</time></trkpt><trkpt lat="43.5938944" lon="10.9109584"><ele>132.66666666666669</ele><time>2026-04-11T15:57:39.861Z</time></trkpt><trkpt lat="43.5939108" lon="10.9107005"><ele>135.33333333333334</ele><time>2026-04-11T15:57:40.859Z</time></trkpt><trkpt lat="43.5939488" lon="10.9104411"><ele>138.0</ele><time>2026-04-11T15:57:41.863Z</time></trkpt><trkpt lat="43.5939888" lon="10.9102145"><ele>139.0</ele><time>2026-04-11T15:57:42.853Z</time></trkpt><trkpt lat="43.5940139" lon="10.9100528"><ele>140.0</ele><time>2026-04-11T15:57:43.854Z</time></trkpt><trkpt lat="43.5940986" lon="10.9099381"><ele>141.0</ele><time>2026-04-11T15:57:44.862Z</time></trkpt><trkpt lat="43.5941832" lon="10.9098591"><ele>142.0</ele><time>2026-04-11T15:57:45.85Z</time></trkpt><trkpt lat="43.5942795" lon="10.9098121"><ele>143.0</ele><time>2026-04-11T15:57:46.851Z</time></trkpt><trkpt lat="43.5943894" lon="10.9096829"><ele>143.0</ele><time>2026-04-11T15:57:47.849Z</time></trkpt><trkpt lat="43.5944733" lon="10.9095118"><ele>143.0</ele><time>2026-04-11T15:57:48.859Z</time></trkpt><trkpt lat="43.5945422" lon="10.9093167"><ele>143.0</ele><time>2026-04-11T15:57:49.855Z</time></trkpt><trkpt lat="43.5945991" lon="10.9091555"><ele>143.0</ele><time>2026-04-11T15:57:50.867Z</time></trkpt><trkpt lat="43.5946736" lon="10.9090798"><ele>143.0</ele><time>2026-04-11T15:57:51.862Z</time></trkpt><trkpt lat="43.5947733" lon="10.909051"><ele>143.0</ele><time>2026-04-11T15:57:52.865Z</time></trkpt><trkpt lat="43.5948626" lon="10.9091118"><ele>143.0</ele><time>2026-04-11T15:57:53.867Z</time></trkpt><trkpt lat="43.5949677" lon="10.9092471"><ele>143.0</ele><time>2026-04-11T15:57:54.862Z</time></trkpt><trkpt lat="43.5950753" lon="10.909395"><ele>143.0</ele><time>2026-04-11T15:57:55.859Z</time></trkpt><trkpt lat="43.5951665" lon="10.9096132"><ele>143.0</ele><time>2026-04-11T15:57:56.877Z</time></trkpt><trkpt lat="43.5952683" lon="10.9098398"><ele>143.0</ele><time>2026-04-11T15:57:57.88Z</time></trkpt><trkpt lat="43.5953324" lon="10.9100501"><ele>143.0</ele><time>2026-04-11T15:57:58.875Z</time></trkpt><trkpt lat="43.5953838" lon="10.91022"><ele>143.0</ele><time>2026-04-11T15:57:59.864Z</time></trkpt><trkpt lat="43.595446" lon="10.9103429"><ele>143.0</ele><time>2026-04-11T15:58:00.881Z</time></trkpt><trkpt lat="43.59554" lon="10.9103777"><ele>143.0</ele><time>2026-04-11T15:58:01.872Z</time></trkpt><trkpt lat="43.5956354" lon="10.9103581"><ele>143.0</ele><time>2026-04-11T15:58:02.872Z</time></trkpt><trkpt lat="43.5957586" lon="10.9102665"><ele>143.0</ele><time>2026-04-11T15:58:03.875Z</time></trkpt><trkpt lat="43.5958847" lon="10.910147"><ele>143.0</ele><time>2026-04-11T15:58:04.856Z</time></trkpt><trkpt lat="43.5960336" lon="10.9100368"><ele>143.0</ele><time>2026-04-11T15:58:05.853Z</time></trkpt><trkpt lat="43.5961996" lon="10.9099439"><ele>145.66666666666666</ele><time>2026-04-11T15:58:06.853Z</time></trkpt><trkpt lat="43.5963944" lon="10.9098493"><ele>148.33333333333334</ele><time>2026-04-11T15:58:07.862Z</time></trkpt><trkpt lat="43.596594" lon="10.9097532"><ele>151.0</ele><time>2026-04-11T15:58:08.871Z</time></trkpt><trkpt lat="43.5967698" lon="10.9096838"><ele>151.0</ele><time>2026-04-11T15:58:09.887Z</time></trkpt><trkpt lat="43.5969436" lon="10.9096599"><ele>151.0</ele><time>2026-04-11T15:58:10.883Z</time></trkpt><trkpt lat="43.5971065" lon="10.9096607"><ele>151.0</ele><time>2026-04-11T15:58:11.878Z</time></trkpt><trkpt lat="43.5972714" lon="10.9096619"><ele>153.0</ele><time>2026-04-11T15:58:12.877Z</time></trkpt><trkpt lat="43.5974705" lon="10.9096479"><ele>155.0</ele><time>2026-04-11T15:58:13.873Z</time></trkpt><trkpt lat="43.5976345" lon="10.9096372"><ele>157.0</ele><time>2026-04-11T15:58:14.875Z</time></trkpt><trkpt lat="43.597794" lon="10.9096428"><ele>159.39999999999998</ele><time>2026-04-11T15:58:15.869Z</time></trkpt><trkpt lat="43.5979172" lon="10.9096541"><ele>161.79999999999998</ele><time>2026-04-11T15:58:16.866Z</time></trkpt><trkpt lat="43.5980314" lon="10.9096244"><ele>164.2</ele><time>2026-04-11T15:58:17.862Z</time></trkpt><trkpt lat="43.5981462" lon="10.9096302"><ele>166.6</ele><time>2026-04-11T15:58:18.868Z</time></trkpt><trkpt lat="43.5981471" lon="10.9097353"><ele>169.0</ele><time>2026-04-11T15:58:19.869Z</time></trkpt><trkpt lat="43.5981479" lon="10.9098996"><ele>169.0</ele><time>2026-04-11T15:58:21.856Z</time></trkpt><trkpt lat="43.5981116" lon="10.9099945"><ele>169.0</ele><time>2026-04-11T15:58:22.871Z</time></trkpt><trkpt lat="43.5980702" lon="10.9101098"><ele>169.0</ele><time>2026-04-11T15:58:23.866Z</time></trkpt><trkpt lat="43.5980494" lon="10.9102611"><ele>169.0</ele><time>2026-04-11T15:58:24.867Z</time></trkpt><trkpt lat="43.598067" lon="10.9104373"><ele>169.0</ele><time>2026-04-11T15:58:25.878Z</time></trkpt><trkpt lat="43.5981204" lon="10.9106602"><ele>164.0</ele><time>2026-04-11T15:58:26.869Z</time></trkpt><trkpt lat="43.5981996" lon="10.9108918"><ele>159.0</ele><time>2026-04-11T15:58:27.873Z</time></trkpt><trkpt lat="43.5982759" lon="10.9111392"><ele>154.0</ele><time>2026-04-11T15:58:28.873Z</time></trkpt><trkpt lat="43.5984152" lon="10.9114062"><ele>151.0</ele><time>2026-04-11T15:58:29.87Z</time></trkpt><trkpt lat="43.5984814" lon="10.9116804"><ele>148.0</ele><time>2026-04-11T15:58:30.873Z</time></trkpt><trkpt lat="43.5985236" lon="10.9119659"><ele>145.0</ele><time>2026-04-11T15:58:31.864Z</time></trkpt><trkpt lat="43.5985629" lon="10.9122761"><ele>142.0</ele><time>2026-04-11T15:58:32.869Z</time></trkpt><trkpt lat="43.5986017" lon="10.9125974"><ele>139.0</ele><time>2026-04-11T15:58:33.874Z</time></trkpt><trkpt lat="43.5986492" lon="10.9129154"><ele>138.33333333333334</ele><time>2026-04-11T15:58:34.884Z</time></trkpt><trkpt lat="43.5986865" lon="10.9132284"><ele>137.66666666666666</ele><time>2026-04-11T15:58:35.883Z</time></trkpt><trkpt lat="43.5987224" lon="10.9134967"><ele>137.0</ele><time>2026-04-11T15:58:36.875Z</time></trkpt><trkpt lat="43.5987679" lon="10.9137351"><ele>137.0</ele><time>2026-04-11T15:58:37.883Z</time></trkpt><trkpt lat="43.5987819" lon="10.9139682"><ele>137.0</ele><time>2026-04-11T15:58:38.876Z</time></trkpt><trkpt lat="43.5988057" lon="10.914194"><ele>137.0</ele><time>2026-04-11T15:58:39.887Z</time></trkpt><trkpt lat="43.5988617" lon="10.9144182"><ele>136.33333333333331</ele><time>2026-04-11T15:58:40.884Z</time></trkpt><trkpt lat="43.5989371" lon="10.9146377"><ele>135.66666666666666</ele><time>2026-04-11T15:58:41.883Z</time></trkpt><trkpt lat="43.5990265" lon="10.914887"><ele>135.0</ele><time>2026-04-11T15:58:42.878Z</time></trkpt><trkpt lat="43.5990955" lon="10.9151241"><ele>134.2</ele><time>2026-04-11T15:58:43.881Z</time></trkpt><trkpt lat="43.5991597" lon="10.9153124"><ele>133.4</ele><time>2026-04-11T15:58:44.876Z</time></trkpt><trkpt lat="43.5991972" lon="10.9154723"><ele>132.6</ele><time>2026-04-11T15:58:45.887Z</time></trkpt><trkpt lat="43.5992198" lon="10.9156022"><ele>131.8</ele><time>2026-04-11T15:58:46.869Z</time></trkpt><trkpt lat="43.5992136" lon="10.9157092"><ele>131.0</ele><time>2026-04-11T15:58:47.87Z</time></trkpt><trkpt lat="43.599158" lon="10.915842"><ele>131.0</ele><time>2026-04-11T15:58:48.865Z</time></trkpt><trkpt lat="43.5990603" lon="10.9159107"><ele>131.0</ele><time>2026-04-11T15:58:49.857Z</time></trkpt><trkpt lat="43.5989605" lon="10.9159325"><ele>131.0</ele><time>2026-04-11T15:58:50.871Z</time></trkpt><trkpt lat="43.5988458" lon="10.9159181"><ele>131.0</ele><time>2026-04-11T15:58:51.873Z</time></trkpt><trkpt lat="43.5986991" lon="10.9158378"><ele>128.66666666666666</ele><time>2026-04-11T15:58:52.868Z</time></trkpt><trkpt lat="43.5985494" lon="10.9157475"><ele>126.33333333333334</ele><time>2026-04-11T15:58:53.863Z</time></trkpt><trkpt lat="43.5983968" lon="10.9156439"><ele>124.0</ele><time>2026-04-11T15:58:54.862Z</time></trkpt><trkpt lat="43.5982611" lon="10.9156083"><ele>124.0</ele><time>2026-04-11T15:58:55.858Z</time></trkpt><trkpt lat="43.59814" lon="10.915588"><ele>124.0</ele><time>2026-04-11T15:58:56.858Z</time></trkpt><trkpt lat="43.5980099" lon="10.9155961"><ele>124.0</ele><time>2026-04-11T15:58:57.866Z</time></trkpt><trkpt lat="43.5978629" lon="10.9156108"><ele>124.0</ele><time>2026-04-11T15:58:58.867Z</time></trkpt><trkpt lat="43.597747" lon="10.9155704"><ele>122.0</ele><time>2026-04-11T15:58:59.868Z</time></trkpt><trkpt lat="43.5976336" lon="10.9155163"><ele>120.0</ele><time>2026-04-11T15:59:00.87Z</time></trkpt><trkpt lat="43.5975432" lon="10.9154745"><ele>118.0</ele><time>2026-04-11T15:59:01.864Z</time></trkpt><trkpt lat="43.5974398" lon="10.9154788"><ele>116.0</ele><time>2026-04-11T15:59:02.861Z</time></trkpt><trkpt lat="43.597346" lon="10.9155681"><ele>114.0</ele><time>2026-04-11T15:59:03.884Z</time></trkpt><trkpt lat="43.5972787" lon="10.9157118"><ele>114.0</ele><time>2026-04-11T15:59:04.862Z</time></trkpt><trkpt lat="43.5972563" lon="10.915865"><ele>114.0</ele><time>2026-04-11T15:59:05.857Z</time></trkpt><trkpt lat="43.5972443" lon="10.9160444"><ele>114.0</ele><time>2026-04-11T15:59:06.867Z</time></trkpt><trkpt lat="43.5972803" lon="10.9162215"><ele>114.0</ele><time>2026-04-11T15:59:07.86Z</time></trkpt><trkpt lat="43.5973416" lon="10.9164097"><ele>110.0</ele><time>2026-04-11T15:59:08.863Z</time></trkpt><trkpt lat="43.5974036" lon="10.9166182"><ele>106.0</ele><time>2026-04-11T15:59:09.856Z</time></trkpt><trkpt lat="43.5974873" lon="10.9167912"><ele>102.0</ele><time>2026-04-11T15:59:10.861Z</time></trkpt><trkpt lat="43.5976077" lon="10.9169466"><ele>98.66666666666667</ele><time>2026-04-11T15:59:11.85Z</time></trkpt><trkpt lat="43.5977681" lon="10.917068"><ele>95.33333333333334</ele><time>2026-04-11T15:59:12.852Z</time></trkpt><trkpt lat="43.5979373" lon="10.9171589"><ele>92.0</ele><time>2026-04-11T15:59:13.856Z</time></trkpt><trkpt lat="43.5980897" lon="10.9172772"><ele>92.0</ele><time>2026-04-11T15:59:14.854Z</time></trkpt><trkpt lat="43.598219" lon="10.917425"><ele>92.0</ele><time>2026-04-11T15:59:15.853Z</time></trkpt><trkpt lat="43.5983415" lon="10.9175296"><ele>92.0</ele><time>2026-04-11T15:59:16.865Z</time></trkpt><trkpt lat="43.5984349" lon="10.9176418"><ele>92.0</ele><time>2026-04-11T15:59:17.853Z</time></trkpt><trkpt lat="43.5984807" lon="10.9177443"><ele>90.19999999999999</ele><time>2026-04-11T15:59:18.877Z</time></trkpt><trkpt lat="43.5985004" lon="10.9178474"><ele>88.4</ele><time>2026-04-11T15:59:19.872Z</time></trkpt><trkpt lat="43.5984742" lon="10.9179985"><ele>86.6</ele><time>2026-04-11T15:59:20.87Z</time></trkpt><trkpt lat="43.5984345" lon="10.918157"><ele>84.80000000000001</ele><time>2026-04-11T15:59:21.876Z</time></trkpt><trkpt lat="43.5984017" lon="10.9183184"><ele>83.0</ele><time>2026-04-11T15:59:22.872Z</time></trkpt><trkpt lat="43.5983778" lon="10.9184325"><ele>82.2</ele><time>2026-04-11T15:59:23.864Z</time></trkpt><trkpt lat="43.5983566" lon="10.9185755"><ele>81.4</ele><time>2026-04-11T15:59:25.872Z</time></trkpt><trkpt lat="43.5984081" lon="10.9186728"><ele>80.60000000000001</ele><time>2026-04-11T15:59:28.88Z</time></trkpt><trkpt lat="43.5985361" lon="10.9186893"><ele>79.80000000000001</ele><time>2026-04-11T15:59:30.881Z</time></trkpt><trkpt lat="43.5986441" lon="10.9186651"><ele>79.0</ele><time>2026-04-11T15:59:31.877Z</time></trkpt><trkpt lat="43.598772" lon="10.9186376"><ele>78.66666666666666</ele><time>2026-04-11T15:59:33.949Z</time></trkpt><trkpt lat="43.5989294" lon="10.9186047"><ele>78.33333333333333</ele><time>2026-04-11T15:59:34.96Z</time></trkpt><trkpt lat="43.5991106" lon="10.9185541"><ele>78.0</ele><time>2026-04-11T15:59:35.956Z</time></trkpt><trkpt lat="43.5993077" lon="10.9184948"><ele>77.5</ele><time>2026-04-11T15:59:36.957Z</time></trkpt><trkpt lat="43.5995286" lon="10.9184139"><ele>77.0</ele><time>2026-04-11T15:59:37.96Z</time></trkpt><trkpt lat="43.5997652" lon="10.91833"><ele>80.5</ele><time>2026-04-11T15:59:38.969Z</time></trkpt><trkpt lat="43.6000565" lon="10.9182471"><ele>84.0</ele><time>2026-04-11T15:59:39.974Z</time></trkpt><trkpt lat="43.6002924" lon="10.9181632"><ele>80.5</ele><time>2026-04-11T15:59:40.964Z</time></trkpt><trkpt lat="43.6005115" lon="10.9180345"><ele>77.0</ele><time>2026-04-11T15:59:41.957Z</time></trkpt><trkpt lat="43.600724" lon="10.9179162"><ele>77.0</ele><time>2026-04-11T15:59:42.963Z</time></trkpt><trkpt lat="43.6009306" lon="10.9177825"><ele>77.0</ele><time>2026-04-11T15:59:43.953Z</time></trkpt><trkpt lat="43.6011324" lon="10.9176405"><ele>78.0</ele><time>2026-04-11T15:59:44.959Z</time></trkpt><trkpt lat="43.6013263" lon="10.9175085"><ele>79.0</ele><time>2026-04-11T15:59:45.959Z</time></trkpt><trkpt lat="43.6015109" lon="10.9173849"><ele>80.0</ele><time>2026-04-11T15:59:46.954Z</time></trkpt><trkpt lat="43.6016917" lon="10.9172636"><ele>77.5</ele><time>2026-04-11T15:59:47.965Z</time></trkpt><trkpt lat="43.6020268" lon="10.9170995"><ele>75.0</ele><time>2026-04-11T15:59:48.871Z</time></trkpt><trkpt lat="43.6021953" lon="10.9170938"><ele>75.0</ele><time>2026-04-11T15:59:49.879Z</time></trkpt><trkpt lat="43.6023874" lon="10.9171578"><ele>75.0</ele><time>2026-04-11T15:59:50.876Z</time></trkpt><trkpt lat="43.6025782" lon="10.91725"><ele>75.0</ele><time>2026-04-11T15:59:51.877Z</time></trkpt><trkpt lat="43.602784" lon="10.9173399"><ele>75.33333333333333</ele><time>2026-04-11T15:59:52.872Z</time></trkpt><trkpt lat="43.6029806" lon="10.9174604"><ele>75.66666666666666</ele><time>2026-04-11T15:59:53.874Z</time></trkpt><trkpt lat="43.6031721" lon="10.917575"><ele>76.0</ele><time>2026-04-11T15:59:54.874Z</time></trkpt><trkpt lat="43.6033324" lon="10.9176755"><ele>80.33333333333333</ele><time>2026-04-11T15:59:55.871Z</time></trkpt><trkpt lat="43.6035046" lon="10.9177638"><ele>84.66666666666667</ele><time>2026-04-11T15:59:56.856Z</time></trkpt><trkpt lat="43.6036559" lon="10.917788"><ele>89.0</ele><time>2026-04-11T15:59:57.869Z</time></trkpt><trkpt lat="43.6038239" lon="10.9177838"><ele>91.66666666666667</ele><time>2026-04-11T15:59:58.864Z</time></trkpt><trkpt lat="43.6040377" lon="10.9177134"><ele>94.33333333333334</ele><time>2026-04-11T15:59:59.86Z</time></trkpt><trkpt lat="43.6042175" lon="10.9176059"><ele>97.0</ele><time>2026-04-11T16:00:00.858Z</time></trkpt><trkpt lat="43.6044241" lon="10.9174541"><ele>93.0</ele><time>2026-04-11T16:00:01.855Z</time></trkpt><trkpt lat="43.6046321" lon="10.9173127"><ele>89.0</ele><time>2026-04-11T16:00:02.856Z</time></trkpt><trkpt lat="43.6048353" lon="10.9171898"><ele>89.0</ele><time>2026-04-11T16:00:03.851Z</time></trkpt><trkpt lat="43.605017" lon="10.9171029"><ele>89.0</ele><time>2026-04-11T16:00:04.86Z</time></trkpt><trkpt lat="43.6052029" lon="10.9170519"><ele>89.0</ele><time>2026-04-11T16:00:05.857Z</time></trkpt><trkpt lat="43.6054112" lon="10.9170717"><ele>87.0</ele><time>2026-04-11T16:00:06.856Z</time></trkpt><trkpt lat="43.6056347" lon="10.917131"><ele>85.0</ele><time>2026-04-11T16:00:07.857Z</time></trkpt><trkpt lat="43.6058697" lon="10.9172113"><ele>85.0</ele><time>2026-04-11T16:00:08.864Z</time></trkpt><trkpt lat="43.6060911" lon="10.9172096"><ele>85.0</ele><time>2026-04-11T16:00:09.849Z</time></trkpt><trkpt lat="43.606315" lon="10.9171602"><ele>85.0</ele><time>2026-04-11T16:00:10.857Z</time></trkpt><trkpt lat="43.6065353" lon="10.9170566"><ele>85.0</ele><time>2026-04-11T16:00:11.851Z</time></trkpt><trkpt lat="43.6067353" lon="10.9169389"><ele>85.0</ele><time>2026-04-11T16:00:12.854Z</time></trkpt><trkpt lat="43.6069314" lon="10.9168137"><ele>85.0</ele><time>2026-04-11T16:00:13.856Z</time></trkpt><trkpt lat="43.6071004" lon="10.9166943"><ele>86.0</ele><time>2026-04-11T16:00:14.857Z</time></trkpt><trkpt lat="43.6072669" lon="10.9165463"><ele>87.0</ele><time>2026-04-11T16:00:15.85Z</time></trkpt><trkpt lat="43.607435" lon="10.9163531"><ele>88.0</ele><time>2026-04-11T16:00:16.864Z</time></trkpt><trkpt lat="43.6075737" lon="10.9161079"><ele>87.66666666666666</ele><time>2026-04-11T16:00:17.858Z</time></trkpt><trkpt lat="43.6077011" lon="10.9158784"><ele>87.33333333333333</ele><time>2026-04-11T16:00:18.86Z</time></trkpt><trkpt lat="43.6078272" lon="10.9156728"><ele>87.0</ele><time>2026-04-11T16:00:19.859Z</time></trkpt><trkpt lat="43.6079519" lon="10.9154687"><ele>87.0</ele><time>2026-04-11T16:00:20.858Z</time></trkpt><trkpt lat="43.6080988" lon="10.9152915"><ele>87.0</ele><time>2026-04-11T16:00:21.858Z</time></trkpt><trkpt lat="43.608272" lon="10.915143"><ele>87.0</ele><time>2026-04-11T16:00:22.855Z</time></trkpt><trkpt lat="43.6084637" lon="10.9150131"><ele>84.0</ele><time>2026-04-11T16:00:23.855Z</time></trkpt><trkpt lat="43.6086517" lon="10.9148939"><ele>81.0</ele><time>2026-04-11T16:00:24.87Z</time></trkpt><trkpt lat="43.6088539" lon="10.9147632"><ele>78.0</ele><time>2026-04-11T16:00:25.867Z</time></trkpt><trkpt lat="43.6090589" lon="10.9146363"><ele>78.0</ele><time>2026-04-11T16:00:26.865Z</time></trkpt><trkpt lat="43.6092437" lon="10.9144996"><ele>78.0</ele><time>2026-04-11T16:00:27.868Z</time></trkpt><trkpt lat="43.609395" lon="10.9143403"><ele>78.0</ele><time>2026-04-11T16:00:28.863Z</time></trkpt><trkpt lat="43.6095663" lon="10.9141494"><ele>79.33333333333333</ele><time>2026-04-11T16:00:29.86Z</time></trkpt><trkpt lat="43.6097141" lon="10.9139423"><ele>80.66666666666666</ele><time>2026-04-11T16:00:30.864Z</time></trkpt><trkpt lat="43.609854" lon="10.9137111"><ele>82.0</ele><time>2026-04-11T16:00:31.861Z</time></trkpt><trkpt lat="43.6100007" lon="10.9135054"><ele>80.33333333333333</ele><time>2026-04-11T16:00:32.865Z</time></trkpt><trkpt lat="43.6101418" lon="10.9133014"><ele>78.66666666666667</ele><time>2026-04-11T16:00:33.863Z</time></trkpt><trkpt lat="43.6102708" lon="10.9131257"><ele>77.0</ele><time>2026-04-11T16:00:34.864Z</time></trkpt><trkpt lat="43.6104124" lon="10.912943"><ele>76.33333333333334</ele><time>2026-04-11T16:00:35.865Z</time></trkpt><trkpt lat="43.6105506" lon="10.9127585"><ele>75.66666666666667</ele><time>2026-04-11T16:00:36.862Z</time></trkpt><trkpt lat="43.6106761" lon="10.9125768"><ele>75.0</ele><time>2026-04-11T16:00:37.863Z</time></trkpt><trkpt lat="43.6108029" lon="10.9123807"><ele>75.0</ele><time>2026-04-11T16:00:38.868Z</time></trkpt><trkpt lat="43.6109427" lon="10.9121737"><ele>75.0</ele><time>2026-04-11T16:00:39.866Z</time></trkpt><trkpt lat="43.6110615" lon="10.911943"><ele>75.0</ele><time>2026-04-11T16:00:40.857Z</time></trkpt><trkpt lat="43.6111728" lon="10.9116988"><ele>77.0</ele><time>2026-04-11T16:00:41.862Z</time></trkpt><trkpt lat="43.6112762" lon="10.9114242"><ele>79.0</ele><time>2026-04-11T16:00:42.862Z</time></trkpt><trkpt lat="43.6113905" lon="10.9111705"><ele>81.0</ele><time>2026-04-11T16:00:43.867Z</time></trkpt><trkpt lat="43.6115121" lon="10.910911"><ele>79.66666666666667</ele><time>2026-04-11T16:00:44.862Z</time></trkpt><trkpt lat="43.6116208" lon="10.9106505"><ele>78.33333333333334</ele><time>2026-04-11T16:00:45.86Z</time></trkpt><trkpt lat="43.6117377" lon="10.9103823"><ele>77.0</ele><time>2026-04-11T16:00:46.869Z</time></trkpt><trkpt lat="43.6118442" lon="10.9101242"><ele>76.0</ele><time>2026-04-11T16:00:47.864Z</time></trkpt><trkpt lat="43.6119442" lon="10.9098777"><ele>75.0</ele><time>2026-04-11T16:00:48.862Z</time></trkpt><trkpt lat="43.6120426" lon="10.9096195"><ele>74.0</ele><time>2026-04-11T16:00:49.859Z</time></trkpt><trkpt lat="43.6121417" lon="10.9093857"><ele>74.0</ele><time>2026-04-11T16:00:50.868Z</time></trkpt><trkpt lat="43.6122313" lon="10.9091689"><ele>74.0</ele><time>2026-04-11T16:00:51.864Z</time></trkpt><trkpt lat="43.6123192" lon="10.9089646"><ele>74.0</ele><time>2026-04-11T16:00:52.854Z</time></trkpt><trkpt lat="43.6123896" lon="10.9087845"><ele>74.0</ele><time>2026-04-11T16:00:53.856Z</time></trkpt><trkpt lat="43.6124573" lon="10.9086193"><ele>74.0</ele><time>2026-04-11T16:00:54.856Z</time></trkpt><trkpt lat="43.6125286" lon="10.9084596"><ele>74.0</ele><time>2026-04-11T16:00:55.856Z</time></trkpt><trkpt lat="43.6125863" lon="10.9083223"><ele>74.0</ele><time>2026-04-11T16:00:56.859Z</time></trkpt><trkpt lat="43.6126451" lon="10.9082067"><ele>73.60000000000001</ele><time>2026-04-11T16:00:57.862Z</time></trkpt><trkpt lat="43.612728" lon="10.9081512"><ele>73.2</ele><time>2026-04-11T16:00:58.872Z</time></trkpt><trkpt lat="43.6128379" lon="10.9081238"><ele>72.80000000000001</ele><time>2026-04-11T16:00:59.86Z</time></trkpt><trkpt lat="43.612948" lon="10.9081345"><ele>72.4</ele><time>2026-04-11T16:01:00.861Z</time></trkpt><trkpt lat="43.6130828" lon="10.9081497"><ele>72.0</ele><time>2026-04-11T16:01:01.858Z</time></trkpt><trkpt lat="43.6132304" lon="10.9081485"><ele>74.66666666666667</ele><time>2026-04-11T16:01:02.86Z</time></trkpt><trkpt lat="43.6134083" lon="10.9081393"><ele>77.33333333333334</ele><time>2026-04-11T16:01:03.864Z</time></trkpt><trkpt lat="43.6135658" lon="10.9081487"><ele>80.0</ele><time>2026-04-11T16:01:04.858Z</time></trkpt><trkpt lat="43.6137017" lon="10.9082025"><ele>86.5</ele><time>2026-04-11T16:01:05.872Z</time></trkpt><trkpt lat="43.6137997" lon="10.9082955"><ele>93.0</ele><time>2026-04-11T16:01:06.855Z</time></trkpt><trkpt lat="43.6138837" lon="10.9084519"><ele>99.5</ele><time>2026-04-11T16:01:07.859Z</time></trkpt><trkpt lat="43.61394" lon="10.9086285"><ele>106.0</ele><time>2026-04-11T16:01:08.852Z</time></trkpt><trkpt lat="43.6139691" lon="10.9087797"><ele>106.0</ele><time>2026-04-11T16:01:09.851Z</time></trkpt><trkpt lat="43.6139256" lon="10.9089086"><ele>106.0</ele><time>2026-04-11T16:01:10.848Z</time></trkpt><trkpt lat="43.6138432" lon="10.9090153"><ele>106.0</ele><time>2026-04-11T16:01:11.85Z</time></trkpt><trkpt lat="43.6137376" lon="10.9090959"><ele>106.0</ele><time>2026-04-11T16:01:12.839Z</time></trkpt><trkpt lat="43.6135993" lon="10.9091408"><ele>103.16666666666667</ele><time>2026-04-11T16:01:13.846Z</time></trkpt><trkpt lat="43.6135242" lon="10.9091978"><ele>100.33333333333334</ele><time>2026-04-11T16:01:14.845Z</time></trkpt><trkpt lat="43.6134514" lon="10.9092714"><ele>97.5</ele><time>2026-04-11T16:01:15.859Z</time></trkpt><trkpt lat="43.6134249" lon="10.9093669"><ele>94.66666666666667</ele><time>2026-04-11T16:01:16.861Z</time></trkpt><trkpt lat="43.6134865" lon="10.9095055"><ele>91.83333333333334</ele><time>2026-04-11T16:01:18.86Z</time></trkpt><trkpt lat="43.6135564" lon="10.9095082"><ele>89.0</ele><time>2026-04-11T16:01:19.861Z</time></trkpt><trkpt lat="43.6136486" lon="10.9094656"><ele>90.33333333333334</ele><time>2026-04-11T16:01:20.859Z</time></trkpt><trkpt lat="43.6137724" lon="10.9094"><ele>91.66666666666667</ele><time>2026-04-11T16:01:21.859Z</time></trkpt><trkpt lat="43.613932" lon="10.9093551"><ele>93.0</ele><time>2026-04-11T16:01:22.86Z</time></trkpt><trkpt lat="43.6141115" lon="10.909353"><ele>93.0</ele><time>2026-04-11T16:01:23.855Z</time></trkpt><trkpt lat="43.6143219" lon="10.9094031"><ele>93.0</ele><time>2026-04-11T16:01:24.85Z</time></trkpt><trkpt lat="43.6145486" lon="10.9094305"><ele>93.0</ele><time>2026-04-11T16:01:25.843Z</time></trkpt><trkpt lat="43.6147677" lon="10.9094764"><ele>98.66666666666666</ele><time>2026-04-11T16:01:26.843Z</time></trkpt><trkpt lat="43.6149526" lon="10.9095017"><ele>104.33333333333333</ele><time>2026-04-11T16:01:27.852Z</time></trkpt><trkpt lat="43.615118" lon="10.909538"><ele>110.0</ele><time>2026-04-11T16:01:28.848Z</time></trkpt><trkpt lat="43.6152566" lon="10.9095413"><ele>115.25</ele><time>2026-04-11T16:01:29.853Z</time></trkpt><trkpt lat="43.6154094" lon="10.9094414"><ele>120.5</ele><time>2026-04-11T16:01:30.848Z</time></trkpt><trkpt lat="43.615509" lon="10.9093544"><ele>125.75</ele><time>2026-04-11T16:01:31.847Z</time></trkpt><trkpt lat="43.6156025" lon="10.9093354"><ele>131.0</ele><time>2026-04-11T16:01:32.847Z</time></trkpt><trkpt lat="43.6157164" lon="10.9093767"><ele>131.0</ele><time>2026-04-11T16:01:33.85Z</time></trkpt><trkpt lat="43.6157739" lon="10.909474"><ele>131.0</ele><time>2026-04-11T16:01:34.839Z</time></trkpt><trkpt lat="43.6158055" lon="10.9096143"><ele>131.0</ele><time>2026-04-11T16:01:35.842Z</time></trkpt><trkpt lat="43.6158285" lon="10.9097821"><ele>131.0</ele><time>2026-04-11T16:01:36.84Z</time></trkpt><trkpt lat="43.6158206" lon="10.9100104"><ele>129.0</ele><time>2026-04-11T16:01:37.836Z</time></trkpt><trkpt lat="43.6158616" lon="10.910222"><ele>127.0</ele><time>2026-04-11T16:01:38.832Z</time></trkpt><trkpt lat="43.6159545" lon="10.9104171"><ele>125.0</ele><time>2026-04-11T16:01:39.834Z</time></trkpt><trkpt lat="43.6160214" lon="10.9106096"><ele>124.99999999999999</ele><time>2026-04-11T16:01:40.837Z</time></trkpt><trkpt lat="43.6160799" lon="10.9107312"><ele>125.0</ele><time>2026-04-11T16:01:41.838Z</time></trkpt><trkpt lat="43.6161305" lon="10.9107844"><ele>125.0</ele><time>2026-04-11T16:01:42.849Z</time></trkpt><trkpt lat="43.6162024" lon="10.9107704"><ele>125.0</ele><time>2026-04-11T16:01:43.858Z</time></trkpt><trkpt lat="43.6162466" lon="10.9107072"><ele>124.99999999999999</ele><time>2026-04-11T16:01:44.86Z</time></trkpt><trkpt lat="43.6162538" lon="10.9105987"><ele>125.0</ele><time>2026-04-11T16:01:45.862Z</time></trkpt><trkpt lat="43.6162395" lon="10.9104159"><ele>130.75</ele><time>2026-04-11T16:01:46.864Z</time></trkpt><trkpt lat="43.6162175" lon="10.9102471"><ele>136.5</ele><time>2026-04-11T16:01:47.865Z</time></trkpt><trkpt lat="43.6161814" lon="10.910068"><ele>142.25</ele><time>2026-04-11T16:01:48.87Z</time></trkpt><trkpt lat="43.6161569" lon="10.9098979"><ele>148.0</ele><time>2026-04-11T16:01:49.887Z</time></trkpt><trkpt lat="43.6161592" lon="10.9097513"><ele>148.0</ele><time>2026-04-11T16:01:50.866Z</time></trkpt><trkpt lat="43.6161798" lon="10.9096276"><ele>148.0</ele><time>2026-04-11T16:01:51.874Z</time></trkpt><trkpt lat="43.6162096" lon="10.909545"><ele>148.0</ele><time>2026-04-11T16:01:52.871Z</time></trkpt><trkpt lat="43.616317" lon="10.9096756"><ele>148.0</ele><time>2026-04-11T16:01:54.865Z</time></trkpt><trkpt lat="43.6163769" lon="10.9098286"><ele>148.0</ele><time>2026-04-11T16:01:55.867Z</time></trkpt><trkpt lat="43.616468" lon="10.9100308"><ele>148.0</ele><time>2026-04-11T16:01:56.863Z</time></trkpt><trkpt lat="43.6165721" lon="10.9102493"><ele>148.0</ele><time>2026-04-11T16:01:57.863Z</time></trkpt><trkpt lat="43.6167208" lon="10.910605"><ele>148.0</ele><time>2026-04-11T16:01:58.868Z</time></trkpt><trkpt lat="43.616903" lon="10.9108334"><ele>148.0</ele><time>2026-04-11T16:01:59.857Z</time></trkpt><trkpt lat="43.6170701" lon="10.9110001"><ele>153.0</ele><time>2026-04-11T16:02:00.866Z</time></trkpt><trkpt lat="43.6172383" lon="10.9111455"><ele>158.0</ele><time>2026-04-11T16:02:01.871Z</time></trkpt><trkpt lat="43.6174216" lon="10.9112816"><ele>163.0</ele><time>2026-04-11T16:02:02.873Z</time></trkpt><trkpt lat="43.6176042" lon="10.9114251"><ele>163.0</ele><time>2026-04-11T16:02:03.869Z</time></trkpt><trkpt lat="43.6177593" lon="10.9115379"><ele>163.0</ele><time>2026-04-11T16:02:04.876Z</time></trkpt><trkpt lat="43.617936" lon="10.9115651"><ele>163.0</ele><time>2026-04-11T16:02:05.867Z</time></trkpt><trkpt lat="43.6181302" lon="10.9115511"><ele>165.0</ele><time>2026-04-11T16:02:06.853Z</time></trkpt><trkpt lat="43.6183388" lon="10.9114711"><ele>167.0</ele><time>2026-04-11T16:02:07.869Z</time></trkpt><trkpt lat="43.6185236" lon="10.9113735"><ele>169.0</ele><time>2026-04-11T16:02:08.865Z</time></trkpt><trkpt lat="43.6187131" lon="10.9112708"><ele>170.0</ele><time>2026-04-11T16:02:09.865Z</time></trkpt><trkpt lat="43.6188717" lon="10.911212"><ele>171.0</ele><time>2026-04-11T16:02:10.868Z</time></trkpt><trkpt lat="43.6190112" lon="10.9111961"><ele>172.0</ele><time>2026-04-11T16:02:11.868Z</time></trkpt><trkpt lat="43.6191712" lon="10.9111903"><ele>172.0</ele><time>2026-04-11T16:02:12.86Z</time></trkpt><trkpt lat="43.6193149" lon="10.9112368"><ele>172.0</ele><time>2026-04-11T16:02:13.849Z</time></trkpt><trkpt lat="43.619413" lon="10.9113349"><ele>172.0</ele><time>2026-04-11T16:02:14.844Z</time></trkpt><trkpt lat="43.6195384" lon="10.9115139"><ele>172.0</ele><time>2026-04-11T16:02:15.848Z</time></trkpt><trkpt lat="43.6196744" lon="10.9117"><ele>171.0</ele><time>2026-04-11T16:02:16.853Z</time></trkpt><trkpt lat="43.6198075" lon="10.9118772"><ele>170.0</ele><time>2026-04-11T16:02:17.853Z</time></trkpt><trkpt lat="43.6199403" lon="10.9120719"><ele>169.0</ele><time>2026-04-11T16:02:18.854Z</time></trkpt><trkpt lat="43.6200135" lon="10.9123053"><ele>171.66666666666669</ele><time>2026-04-11T16:02:19.856Z</time></trkpt><trkpt lat="43.6200899" lon="10.9125874"><ele>174.33333333333334</ele><time>2026-04-11T16:02:20.843Z</time></trkpt><trkpt lat="43.6201338" lon="10.9128807"><ele>177.0</ele><time>2026-04-11T16:02:21.863Z</time></trkpt><trkpt lat="43.62021" lon="10.9131598"><ele>177.33333333333334</ele><time>2026-04-11T16:02:22.86Z</time></trkpt><trkpt lat="43.6202866" lon="10.9134374"><ele>177.66666666666669</ele><time>2026-04-11T16:02:23.858Z</time></trkpt><trkpt lat="43.6203499" lon="10.9137051"><ele>178.0</ele><time>2026-04-11T16:02:24.858Z</time></trkpt><trkpt lat="43.6204193" lon="10.9139439"><ele>176.33333333333334</ele><time>2026-04-11T16:02:25.859Z</time></trkpt><trkpt lat="43.6204805" lon="10.9141711"><ele>174.66666666666666</ele><time>2026-04-11T16:02:26.862Z</time></trkpt><trkpt lat="43.6205326" lon="10.9143785"><ele>173.0</ele><time>2026-04-11T16:02:27.872Z</time></trkpt><trkpt lat="43.6205929" lon="10.9145851"><ele>173.0</ele><time>2026-04-11T16:02:28.868Z</time></trkpt><trkpt lat="43.6206476" lon="10.9147941"><ele>173.0</ele><time>2026-04-11T16:02:29.866Z</time></trkpt><trkpt lat="43.6207133" lon="10.9149793"><ele>173.0</ele><time>2026-04-11T16:02:30.863Z</time></trkpt><trkpt lat="43.6207704" lon="10.9151244"><ele>173.0</ele><time>2026-04-11T16:02:31.862Z</time></trkpt><trkpt lat="43.6208356" lon="10.9152351"><ele>173.5</ele><time>2026-04-11T16:02:32.872Z</time></trkpt><trkpt lat="43.6209693" lon="10.9152659"><ele>174.0</ele><time>2026-04-11T16:02:33.858Z</time></trkpt><trkpt lat="43.6210942" lon="10.9152897"><ele>174.5</ele><time>2026-04-11T16:02:34.859Z</time></trkpt><trkpt lat="43.6212531" lon="10.9153335"><ele>175.0</ele><time>2026-04-11T16:02:35.854Z</time></trkpt><trkpt lat="43.6213703" lon="10.9154247"><ele>173.66666666666669</ele><time>2026-04-11T16:02:36.855Z</time></trkpt><trkpt lat="43.6214651" lon="10.9155651"><ele>172.33333333333334</ele><time>2026-04-11T16:02:37.854Z</time></trkpt><trkpt lat="43.6215727" lon="10.9157169"><ele>171.0</ele><time>2026-04-11T16:02:38.851Z</time></trkpt><trkpt lat="43.6216449" lon="10.9159322"><ele>171.0</ele><time>2026-04-11T16:02:39.852Z</time></trkpt><trkpt lat="43.6216947" lon="10.9161996"><ele>171.0</ele><time>2026-04-11T16:02:40.848Z</time></trkpt><trkpt lat="43.6217766" lon="10.9164583"><ele>171.0</ele><time>2026-04-11T16:02:41.852Z</time></trkpt><trkpt lat="43.621861" lon="10.916726"><ele>170.66666666666666</ele><time>2026-04-11T16:02:42.852Z</time></trkpt><trkpt lat="43.6219327" lon="10.9169866"><ele>170.33333333333331</ele><time>2026-04-11T16:02:43.852Z</time></trkpt><trkpt lat="43.6220074" lon="10.9172888"><ele>170.0</ele><time>2026-04-11T16:02:44.854Z</time></trkpt><trkpt lat="43.6220839" lon="10.9175831"><ele>170.0</ele><time>2026-04-11T16:02:45.855Z</time></trkpt><trkpt lat="43.622158" lon="10.9178441"><ele>170.0</ele><time>2026-04-11T16:02:46.852Z</time></trkpt><trkpt lat="43.6222434" lon="10.9180939"><ele>170.0</ele><time>2026-04-11T16:02:47.857Z</time></trkpt><trkpt lat="43.6223377" lon="10.9183098"><ele>169.66666666666666</ele><time>2026-04-11T16:02:48.851Z</time></trkpt><trkpt lat="43.6224542" lon="10.9185053"><ele>169.33333333333334</ele><time>2026-04-11T16:02:49.848Z</time></trkpt><trkpt lat="43.6225937" lon="10.9186984"><ele>169.0</ele><time>2026-04-11T16:02:50.859Z</time></trkpt><trkpt lat="43.6227319" lon="10.9188623"><ele>168.66666666666669</ele><time>2026-04-11T16:02:51.863Z</time></trkpt><trkpt lat="43.6228698" lon="10.9190282"><ele>168.33333333333334</ele><time>2026-04-11T16:02:52.858Z</time></trkpt><trkpt lat="43.6229951" lon="10.9191975"><ele>168.0</ele><time>2026-04-11T16:02:53.857Z</time></trkpt><trkpt lat="43.6231426" lon="10.9193452"><ele>165.66666666666666</ele><time>2026-04-11T16:02:54.86Z</time></trkpt><trkpt lat="43.623281" lon="10.9194921"><ele>163.33333333333331</ele><time>2026-04-11T16:02:55.865Z</time></trkpt><trkpt lat="43.6234698" lon="10.9196104"><ele>161.0</ele><time>2026-04-11T16:02:56.862Z</time></trkpt><trkpt lat="43.6236422" lon="10.9197522"><ele>160.66666666666666</ele><time>2026-04-11T16:02:57.876Z</time></trkpt><trkpt lat="43.6237961" lon="10.919899"><ele>160.33333333333334</ele><time>2026-04-11T16:02:58.872Z</time></trkpt><trkpt lat="43.6239739" lon="10.9200262"><ele>160.0</ele><time>2026-04-11T16:02:59.875Z</time></trkpt><trkpt lat="43.6241366" lon="10.9201622"><ele>160.66666666666669</ele><time>2026-04-11T16:03:00.885Z</time></trkpt><trkpt lat="43.6243085" lon="10.92027"><ele>161.33333333333334</ele><time>2026-04-11T16:03:01.875Z</time></trkpt><trkpt lat="43.6245037" lon="10.9203689"><ele>162.0</ele><time>2026-04-11T16:03:02.875Z</time></trkpt><trkpt lat="43.6247111" lon="10.9204577"><ele>162.0</ele><time>2026-04-11T16:03:03.866Z</time></trkpt><trkpt lat="43.6249182" lon="10.9205141"><ele>162.0</ele><time>2026-04-11T16:03:04.862Z</time></trkpt><trkpt lat="43.6251136" lon="10.9205744"><ele>162.0</ele><time>2026-04-11T16:03:05.866Z</time></trkpt><trkpt lat="43.6253288" lon="10.9206386"><ele>161.0</ele><time>2026-04-11T16:03:06.868Z</time></trkpt><trkpt lat="43.6255565" lon="10.9207008"><ele>160.0</ele><time>2026-04-11T16:03:07.861Z</time></trkpt><trkpt lat="43.625771" lon="10.920753"><ele>160.0</ele><time>2026-04-11T16:03:08.865Z</time></trkpt><trkpt lat="43.6259602" lon="10.9208075"><ele>160.0</ele><time>2026-04-11T16:03:09.861Z</time></trkpt><trkpt lat="43.6261402" lon="10.920848"><ele>160.0</ele><time>2026-04-11T16:03:10.855Z</time></trkpt><trkpt lat="43.6262916" lon="10.9208929"><ele>157.5</ele><time>2026-04-11T16:03:11.864Z</time></trkpt><trkpt lat="43.6264133" lon="10.9209738"><ele>155.0</ele><time>2026-04-11T16:03:12.857Z</time></trkpt><trkpt lat="43.6264907" lon="10.9210814"><ele>152.5</ele><time>2026-04-11T16:03:13.866Z</time></trkpt><trkpt lat="43.6265697" lon="10.9212258"><ele>150.0</ele><time>2026-04-11T16:03:14.868Z</time></trkpt><trkpt lat="43.6265955" lon="10.9213997"><ele>150.0</ele><time>2026-04-11T16:03:15.857Z</time></trkpt><trkpt lat="43.6265852" lon="10.9216017"><ele>150.0</ele><time>2026-04-11T16:03:16.859Z</time></trkpt><trkpt lat="43.6265546" lon="10.921822"><ele>150.0</ele><time>2026-04-11T16:03:17.857Z</time></trkpt><trkpt lat="43.626556" lon="10.9220442"><ele>149.66666666666666</ele><time>2026-04-11T16:03:18.859Z</time></trkpt><trkpt lat="43.6265773" lon="10.9222474"><ele>149.33333333333331</ele><time>2026-04-11T16:03:19.868Z</time></trkpt><trkpt lat="43.6266313" lon="10.9224558"><ele>149.0</ele><time>2026-04-11T16:03:20.868Z</time></trkpt><trkpt lat="43.6267041" lon="10.9226457"><ele>147.0</ele><time>2026-04-11T16:03:21.858Z</time></trkpt><trkpt lat="43.6268214" lon="10.9228079"><ele>145.0</ele><time>2026-04-11T16:03:22.857Z</time></trkpt><trkpt lat="43.6269879" lon="10.9229757"><ele>143.0</ele><time>2026-04-11T16:03:23.859Z</time></trkpt><trkpt lat="43.6271404" lon="10.923172"><ele>141.66666666666666</ele><time>2026-04-11T16:03:24.866Z</time></trkpt><trkpt lat="43.6272816" lon="10.9233733"><ele>140.33333333333334</ele><time>2026-04-11T16:03:25.86Z</time></trkpt><trkpt lat="43.6274321" lon="10.923579"><ele>139.0</ele><time>2026-04-11T16:03:26.86Z</time></trkpt><trkpt lat="43.6275675" lon="10.9238103"><ele>137.33333333333334</ele><time>2026-04-11T16:03:27.859Z</time></trkpt><trkpt lat="43.6276684" lon="10.9240816"><ele>135.66666666666666</ele><time>2026-04-11T16:03:28.86Z</time></trkpt><trkpt lat="43.6277375" lon="10.9243647"><ele>134.0</ele><time>2026-04-11T16:03:29.855Z</time></trkpt><trkpt lat="43.6277763" lon="10.9246634"><ele>134.5</ele><time>2026-04-11T16:03:30.865Z</time></trkpt><trkpt lat="43.6278441" lon="10.9249844"><ele>135.0</ele><time>2026-04-11T16:03:31.856Z</time></trkpt><trkpt lat="43.6279427" lon="10.9252604"><ele>134.66666666666666</ele><time>2026-04-11T16:03:32.862Z</time></trkpt><trkpt lat="43.6279989" lon="10.925542"><ele>134.33333333333331</ele><time>2026-04-11T16:03:33.868Z</time></trkpt><trkpt lat="43.6280519" lon="10.9258124"><ele>134.0</ele><time>2026-04-11T16:03:34.86Z</time></trkpt><trkpt lat="43.6280982" lon="10.9260822"><ele>134.0</ele><time>2026-04-11T16:03:35.861Z</time></trkpt><trkpt lat="43.6281588" lon="10.9263484"><ele>134.0</ele><time>2026-04-11T16:03:36.862Z</time></trkpt><trkpt lat="43.6282233" lon="10.9266014"><ele>134.0</ele><time>2026-04-11T16:03:37.861Z</time></trkpt><trkpt lat="43.6283085" lon="10.9268378"><ele>133.33333333333331</ele><time>2026-04-11T16:03:38.859Z</time></trkpt><trkpt lat="43.6283974" lon="10.9270872"><ele>132.66666666666666</ele><time>2026-04-11T16:03:39.847Z</time></trkpt><trkpt lat="43.6284556" lon="10.927335"><ele>132.0</ele><time>2026-04-11T16:03:40.861Z</time></trkpt><trkpt lat="43.6285218" lon="10.9275736"><ele>132.0</ele><time>2026-04-11T16:03:41.863Z</time></trkpt><trkpt lat="43.6285664" lon="10.927813"><ele>132.0</ele><time>2026-04-11T16:03:42.854Z</time></trkpt><trkpt lat="43.6286145" lon="10.9280112"><ele>132.0</ele><time>2026-04-11T16:03:43.859Z</time></trkpt><trkpt lat="43.6286833" lon="10.9281678"><ele>132.33333333333334</ele><time>2026-04-11T16:03:44.863Z</time></trkpt><trkpt lat="43.6288064" lon="10.9282909"><ele>132.66666666666669</ele><time>2026-04-11T16:03:45.864Z</time></trkpt><trkpt lat="43.6289626" lon="10.9283762"><ele>133.0</ele><time>2026-04-11T16:03:46.852Z</time></trkpt><trkpt lat="43.629093" lon="10.9284341"><ele>132.0</ele><time>2026-04-11T16:03:47.856Z</time></trkpt><trkpt lat="43.6292797" lon="10.9284697"><ele>131.0</ele><time>2026-04-11T16:03:48.851Z</time></trkpt><trkpt lat="43.6294678" lon="10.9285178"><ele>130.0</ele><time>2026-04-11T16:03:49.861Z</time></trkpt><trkpt lat="43.6296265" lon="10.9285962"><ele>130.0</ele><time>2026-04-11T16:03:50.862Z</time></trkpt><trkpt lat="43.6297825" lon="10.9286814"><ele>130.0</ele><time>2026-04-11T16:03:51.866Z</time></trkpt><trkpt lat="43.629955" lon="10.9287797"><ele>130.0</ele><time>2026-04-11T16:03:52.862Z</time></trkpt><trkpt lat="43.6300984" lon="10.9288515"><ele>130.0</ele><time>2026-04-11T16:03:53.859Z</time></trkpt><trkpt lat="43.6302299" lon="10.9289477"><ele>130.0</ele><time>2026-04-11T16:03:54.884Z</time></trkpt><trkpt lat="43.6303486" lon="10.9290695"><ele>130.0</ele><time>2026-04-11T16:03:55.879Z</time></trkpt><trkpt lat="43.6304729" lon="10.9292182"><ele>128.66666666666669</ele><time>2026-04-11T16:03:56.879Z</time></trkpt><trkpt lat="43.6305771" lon="10.9293795"><ele>127.33333333333334</ele><time>2026-04-11T16:03:57.883Z</time></trkpt><trkpt lat="43.6306324" lon="10.9295609"><ele>126.0</ele><time>2026-04-11T16:03:58.872Z</time></trkpt><trkpt lat="43.6307008" lon="10.9297624"><ele>126.0</ele><time>2026-04-11T16:03:59.871Z</time></trkpt><trkpt lat="43.6307201" lon="10.9299702"><ele>126.0</ele><time>2026-04-11T16:04:00.892Z</time></trkpt><trkpt lat="43.6307042" lon="10.9301866"><ele>126.0</ele><time>2026-04-11T16:04:01.877Z</time></trkpt><trkpt lat="43.6306829" lon="10.9304227"><ele>124.66666666666666</ele><time>2026-04-11T16:04:02.875Z</time></trkpt><trkpt lat="43.630677" lon="10.9306688"><ele>123.33333333333333</ele><time>2026-04-11T16:04:03.882Z</time></trkpt><trkpt lat="43.6306976" lon="10.9309405"><ele>122.0</ele><time>2026-04-11T16:04:04.868Z</time></trkpt><trkpt lat="43.6307214" lon="10.9312324"><ele>120.33333333333333</ele><time>2026-04-11T16:04:05.881Z</time></trkpt><trkpt lat="43.6307449" lon="10.9315138"><ele>118.66666666666666</ele><time>2026-04-11T16:04:06.88Z</time></trkpt><trkpt lat="43.6307658" lon="10.9317886"><ele>117.0</ele><time>2026-04-11T16:04:07.874Z</time></trkpt><trkpt lat="43.6307906" lon="10.9320385"><ele>114.0</ele><time>2026-04-11T16:04:08.883Z</time></trkpt><trkpt lat="43.6308412" lon="10.9322732"><ele>111.0</ele><time>2026-04-11T16:04:09.885Z</time></trkpt><trkpt lat="43.6309277" lon="10.9325029"><ele>108.0</ele><time>2026-04-11T16:04:10.871Z</time></trkpt><trkpt lat="43.6310576" lon="10.9327424"><ele>109.5</ele><time>2026-04-11T16:04:11.868Z</time></trkpt><trkpt lat="43.631205" lon="10.932976"><ele>111.0</ele><time>2026-04-11T16:04:12.874Z</time></trkpt><trkpt lat="43.6313403" lon="10.9332363"><ele>114.5</ele><time>2026-04-11T16:04:14.955Z</time></trkpt><trkpt lat="43.6314726" lon="10.9334928"><ele>118.0</ele><time>2026-04-11T16:04:15.951Z</time></trkpt><trkpt lat="43.6316055" lon="10.9337418"><ele>118.0</ele><time>2026-04-11T16:04:16.948Z</time></trkpt><trkpt lat="43.631732" lon="10.9339713"><ele>118.0</ele><time>2026-04-11T16:04:17.946Z</time></trkpt><trkpt lat="43.6318603" lon="10.9341738"><ele>118.0</ele><time>2026-04-11T16:04:18.952Z</time></trkpt><trkpt lat="43.6319958" lon="10.9343524"><ele>122.0</ele><time>2026-04-11T16:04:19.952Z</time></trkpt><trkpt lat="43.6323356" lon="10.9348402"><ele>122.0</ele><time>2026-04-11T16:04:21.846Z</time></trkpt><trkpt lat="43.6323854" lon="10.9350308"><ele>122.0</ele><time>2026-04-11T16:04:22.852Z</time></trkpt><trkpt lat="43.6324067" lon="10.9352299"><ele>122.0</ele><time>2026-04-11T16:04:23.849Z</time></trkpt><trkpt lat="43.6324098" lon="10.9354344"><ele>122.0</ele><time>2026-04-11T16:04:24.864Z</time></trkpt><trkpt lat="43.6324417" lon="10.9356519"><ele>121.33333333333333</ele><time>2026-04-11T16:04:25.863Z</time></trkpt><trkpt lat="43.6324762" lon="10.9358863"><ele>120.66666666666666</ele><time>2026-04-11T16:04:26.865Z</time></trkpt><trkpt lat="43.6324961" lon="10.9361375"><ele>120.0</ele><time>2026-04-11T16:04:27.875Z</time></trkpt><trkpt lat="43.6325278" lon="10.936382"><ele>120.0</ele><time>2026-04-11T16:04:28.88Z</time></trkpt><trkpt lat="43.6325636" lon="10.9366269"><ele>120.0</ele><time>2026-04-11T16:04:29.868Z</time></trkpt><trkpt lat="43.6326001" lon="10.9368327"><ele>120.0</ele><time>2026-04-11T16:04:30.869Z</time></trkpt><trkpt lat="43.632636" lon="10.9370253"><ele>119.8</ele><time>2026-04-11T16:04:31.862Z</time></trkpt><trkpt lat="43.6326697" lon="10.9371941"><ele>119.6</ele><time>2026-04-11T16:04:32.872Z</time></trkpt><trkpt lat="43.6327071" lon="10.9373194"><ele>119.4</ele><time>2026-04-11T16:04:33.856Z</time></trkpt><trkpt lat="43.632769" lon="10.9374063"><ele>119.2</ele><time>2026-04-11T16:04:34.859Z</time></trkpt><trkpt lat="43.6328623" lon="10.9374954"><ele>119.0</ele><time>2026-04-11T16:04:35.859Z</time></trkpt><trkpt lat="43.6329762" lon="10.937571"><ele>117.0</ele><time>2026-04-11T16:04:36.854Z</time></trkpt><trkpt lat="43.6330466" lon="10.9376561"><ele>115.0</ele><time>2026-04-11T16:04:37.858Z</time></trkpt><trkpt lat="43.6331517" lon="10.9377423"><ele>113.0</ele><time>2026-04-11T16:04:38.862Z</time></trkpt><trkpt lat="43.633253" lon="10.9378435"><ele>111.0</ele><time>2026-04-11T16:04:39.855Z</time></trkpt><trkpt lat="43.633339" lon="10.9379292"><ele>109.0</ele><time>2026-04-11T16:04:40.859Z</time></trkpt><trkpt lat="43.6334202" lon="10.9380029"><ele>109.0</ele><time>2026-04-11T16:04:41.856Z</time></trkpt><trkpt lat="43.6335017" lon="10.9380558"><ele>109.0</ele><time>2026-04-11T16:04:42.856Z</time></trkpt><trkpt lat="43.6335836" lon="10.9381"><ele>109.0</ele><time>2026-04-11T16:04:43.853Z</time></trkpt><trkpt lat="43.6336664" lon="10.938143"><ele>109.0</ele><time>2026-04-11T16:04:44.855Z</time></trkpt><trkpt lat="43.6337547" lon="10.9381924"><ele>109.0</ele><time>2026-04-11T16:04:45.855Z</time></trkpt><trkpt lat="43.6338407" lon="10.9382525"><ele>109.6</ele><time>2026-04-11T16:04:46.855Z</time></trkpt><trkpt lat="43.6339313" lon="10.938313"><ele>110.2</ele><time>2026-04-11T16:04:47.86Z</time></trkpt><trkpt lat="43.6340239" lon="10.9383744"><ele>110.79999999999998</ele><time>2026-04-11T16:04:48.862Z</time></trkpt><trkpt lat="43.6341222" lon="10.9384346"><ele>111.39999999999999</ele><time>2026-04-11T16:04:49.858Z</time></trkpt><trkpt lat="43.6342277" lon="10.9384997"><ele>112.0</ele><time>2026-04-11T16:04:50.863Z</time></trkpt><trkpt lat="43.6343315" lon="10.9385773"><ele>110.83333333333334</ele><time>2026-04-11T16:04:51.854Z</time></trkpt><trkpt lat="43.6344355" lon="10.938649"><ele>109.66666666666667</ele><time>2026-04-11T16:04:52.848Z</time></trkpt><trkpt lat="43.6345256" lon="10.9387004"><ele>108.5</ele><time>2026-04-11T16:04:53.844Z</time></trkpt><trkpt lat="43.6346019" lon="10.9387289"><ele>107.33333333333334</ele><time>2026-04-11T16:04:54.846Z</time></trkpt><trkpt lat="43.6346852" lon="10.938726"><ele>106.16666666666667</ele><time>2026-04-11T16:04:55.843Z</time></trkpt><trkpt lat="43.6347513" lon="10.9386871"><ele>105.0</ele><time>2026-04-11T16:04:56.845Z</time></trkpt><trkpt lat="43.6348328" lon="10.9386175"><ele>105.0</ele><time>2026-04-11T16:04:57.844Z</time></trkpt><trkpt lat="43.634927" lon="10.9385416"><ele>105.0</ele><time>2026-04-11T16:04:58.845Z</time></trkpt><trkpt lat="43.6350289" lon="10.9384743"><ele>105.0</ele><time>2026-04-11T16:04:59.846Z</time></trkpt><trkpt lat="43.6351375" lon="10.9384227"><ele>105.0</ele><time>2026-04-11T16:05:00.85Z</time></trkpt><trkpt lat="43.6352563" lon="10.9383675"><ele>106.75</ele><time>2026-04-11T16:05:01.851Z</time></trkpt><trkpt lat="43.6353847" lon="10.9383128"><ele>108.5</ele><time>2026-04-11T16:05:02.847Z</time></trkpt><trkpt lat="43.6354984" lon="10.9382985"><ele>110.25</ele><time>2026-04-11T16:05:03.847Z</time></trkpt><trkpt lat="43.6356076" lon="10.9383115"><ele>112.0</ele><time>2026-04-11T16:05:04.849Z</time></trkpt><trkpt lat="43.635722" lon="10.9383624"><ele>110.0</ele><time>2026-04-11T16:05:05.847Z</time></trkpt><trkpt lat="43.635855" lon="10.9383982"><ele>108.0</ele><time>2026-04-11T16:05:06.851Z</time></trkpt><trkpt lat="43.6359869" lon="10.9384049"><ele>106.0</ele><time>2026-04-11T16:05:07.851Z</time></trkpt><trkpt lat="43.6361533" lon="10.9383823"><ele>104.0</ele><time>2026-04-11T16:05:08.847Z</time></trkpt><trkpt lat="43.6363651" lon="10.9383312"><ele>104.0</ele><time>2026-04-11T16:05:09.848Z</time></trkpt><trkpt lat="43.6365384" lon="10.9382959"><ele>104.0</ele><time>2026-04-11T16:05:10.847Z</time></trkpt><trkpt lat="43.6367103" lon="10.9382494"><ele>104.0</ele><time>2026-04-11T16:05:11.843Z</time></trkpt><trkpt lat="43.6369103" lon="10.9381935"><ele>102.33333333333333</ele><time>2026-04-11T16:05:12.85Z</time></trkpt><trkpt lat="43.6370861" lon="10.9381456"><ele>100.66666666666666</ele><time>2026-04-11T16:05:13.847Z</time></trkpt><trkpt lat="43.6372792" lon="10.9380879"><ele>99.0</ele><time>2026-04-11T16:05:14.85Z</time></trkpt><trkpt lat="43.6374177" lon="10.9380831"><ele>99.0</ele><time>2026-04-11T16:05:15.839Z</time></trkpt><trkpt lat="43.6375638" lon="10.9380787"><ele>99.0</ele><time>2026-04-11T16:05:16.836Z</time></trkpt><trkpt lat="43.6376515" lon="10.9381073"><ele>99.0</ele><time>2026-04-11T16:05:17.841Z</time></trkpt><trkpt lat="43.637764" lon="10.9381484"><ele>99.0</ele><time>2026-04-11T16:05:18.849Z</time></trkpt><trkpt lat="43.6378641" lon="10.9381741"><ele>98.0</ele><time>2026-04-11T16:05:19.842Z</time></trkpt><trkpt lat="43.6379749" lon="10.9381968"><ele>97.0</ele><time>2026-04-11T16:05:20.848Z</time></trkpt><trkpt lat="43.6381241" lon="10.938212"><ele>96.0</ele><time>2026-04-11T16:05:21.85Z</time></trkpt><trkpt lat="43.6382661" lon="10.9382518"><ele>95.0</ele><time>2026-04-11T16:05:22.847Z</time></trkpt><trkpt lat="43.6384062" lon="10.9382751"><ele>95.0</ele><time>2026-04-11T16:05:23.844Z</time></trkpt><trkpt lat="43.6385207" lon="10.9382989"><ele>95.0</ele><time>2026-04-11T16:05:24.845Z</time></trkpt><trkpt lat="43.6386162" lon="10.9383082"><ele>95.0</ele><time>2026-04-11T16:05:25.84Z</time></trkpt><trkpt lat="43.638682" lon="10.9382971"><ele>95.0</ele><time>2026-04-11T16:05:26.833Z</time></trkpt><trkpt lat="43.638738" lon="10.9382115"><ele>95.0</ele><time>2026-04-11T16:05:28.839Z</time></trkpt><trkpt lat="43.6386909" lon="10.9380112"><ele>95.0</ele><time>2026-04-11T16:05:30.841Z</time></trkpt><trkpt lat="43.6386161" lon="10.937901"><ele>95.0</ele><time>2026-04-11T16:05:31.839Z</time></trkpt><trkpt lat="43.6385597" lon="10.9377808"><ele>95.0</ele><time>2026-04-11T16:05:32.842Z</time></trkpt><trkpt lat="43.6385008" lon="10.9376801"><ele>95.0</ele><time>2026-04-11T16:05:33.842Z</time></trkpt><trkpt lat="43.6384509" lon="10.9375676"><ele>95.0</ele><time>2026-04-11T16:05:34.848Z</time></trkpt><trkpt lat="43.6385015" lon="10.9374461"><ele>95.0</ele><time>2026-04-11T16:05:36.857Z</time></trkpt><trkpt lat="43.6386303" lon="10.9375745"><ele>95.0</ele><time>2026-04-11T16:05:38.848Z</time></trkpt><trkpt lat="43.638747" lon="10.9376832"><ele>95.0</ele><time>2026-04-11T16:05:39.837Z</time></trkpt><trkpt lat="43.6388817" lon="10.9377872"><ele>89.0</ele><time>2026-04-11T16:05:40.846Z</time></trkpt><trkpt lat="43.6390573" lon="10.9378561"><ele>83.0</ele><time>2026-04-11T16:05:41.837Z</time></trkpt><trkpt lat="43.6393069" lon="10.9379027"><ele>77.0</ele><time>2026-04-11T16:05:42.845Z</time></trkpt><trkpt lat="43.6395007" lon="10.9379364"><ele>74.0</ele><time>2026-04-11T16:05:43.846Z</time></trkpt><trkpt lat="43.6396703" lon="10.9379446"><ele>71.0</ele><time>2026-04-11T16:05:44.851Z</time></trkpt><trkpt lat="43.6398199" lon="10.9379164"><ele>68.0</ele><time>2026-04-11T16:05:45.846Z</time></trkpt><trkpt lat="43.6399832" lon="10.9378297"><ele>68.0</ele><time>2026-04-11T16:05:46.855Z</time></trkpt><trkpt lat="43.6401215" lon="10.9377075"><ele>68.0</ele><time>2026-04-11T16:05:47.843Z</time></trkpt><trkpt lat="43.640239" lon="10.9375259"><ele>68.0</ele><time>2026-04-11T16:05:48.852Z</time></trkpt><trkpt lat="43.6403427" lon="10.9373066"><ele>65.66666666666667</ele><time>2026-04-11T16:05:49.842Z</time></trkpt><trkpt lat="43.6404491" lon="10.9370673"><ele>63.33333333333333</ele><time>2026-04-11T16:05:50.85Z</time></trkpt><trkpt lat="43.6405724" lon="10.9368793"><ele>61.0</ele><time>2026-04-11T16:05:51.85Z</time></trkpt><trkpt lat="43.6406765" lon="10.9367287"><ele>59.4</ele><time>2026-04-11T16:05:52.854Z</time></trkpt><trkpt lat="43.6407712" lon="10.9365993"><ele>57.8</ele><time>2026-04-11T16:05:53.85Z</time></trkpt><trkpt lat="43.6408658" lon="10.9365319"><ele>56.199999999999996</ele><time>2026-04-11T16:05:54.839Z</time></trkpt><trkpt lat="43.6409627" lon="10.9365013"><ele>54.599999999999994</ele><time>2026-04-11T16:05:55.841Z</time></trkpt><trkpt lat="43.6410663" lon="10.9365136"><ele>53.0</ele><time>2026-04-11T16:05:56.854Z</time></trkpt><trkpt lat="43.6411662" lon="10.9366043"><ele>50.5</ele><time>2026-04-11T16:05:57.855Z</time></trkpt><trkpt lat="43.6412919" lon="10.9366887"><ele>48.0</ele><time>2026-04-11T16:05:58.855Z</time></trkpt><trkpt lat="43.6414213" lon="10.9367837"><ele>45.5</ele><time>2026-04-11T16:05:59.851Z</time></trkpt><trkpt lat="43.6415273" lon="10.9369098"><ele>43.0</ele><time>2026-04-11T16:06:00.857Z</time></trkpt><trkpt lat="43.6416267" lon="10.9370461"><ele>43.0</ele><time>2026-04-11T16:06:01.85Z</time></trkpt><trkpt lat="43.6417202" lon="10.9372392"><ele>43.0</ele><time>2026-04-11T16:06:02.854Z</time></trkpt><trkpt lat="43.6417988" lon="10.9374258"><ele>43.0</ele><time>2026-04-11T16:06:03.858Z</time></trkpt><trkpt lat="43.6419024" lon="10.937589"><ele>42.66666666666667</ele><time>2026-04-11T16:06:04.854Z</time></trkpt><trkpt lat="43.6420147" lon="10.9377305"><ele>42.333333333333336</ele><time>2026-04-11T16:06:05.852Z</time></trkpt><trkpt lat="43.6421221" lon="10.9378793"><ele>42.0</ele><time>2026-04-11T16:06:06.855Z</time></trkpt><trkpt lat="43.6422251" lon="10.9380292"><ele>42.0</ele><time>2026-04-11T16:06:07.859Z</time></trkpt><trkpt lat="43.6423257" lon="10.9381636"><ele>42.0</ele><time>2026-04-11T16:06:08.862Z</time></trkpt><trkpt lat="43.642399" lon="10.9382631"><ele>42.0</ele><time>2026-04-11T16:06:09.848Z</time></trkpt><trkpt lat="43.6424725" lon="10.9383177"><ele>42.0</ele><time>2026-04-11T16:06:10.853Z</time></trkpt><trkpt lat="43.6425328" lon="10.9383739"><ele>42.0</ele><time>2026-04-11T16:06:11.855Z</time></trkpt><trkpt lat="43.64263" lon="10.9384461"><ele>42.0</ele><time>2026-04-11T16:06:13.866Z</time></trkpt><trkpt lat="43.6426917" lon="10.938427"><ele>42.0</ele><time>2026-04-11T16:06:14.864Z</time></trkpt><trkpt lat="43.6428055" lon="10.9383172"><ele>42.0</ele><time>2026-04-11T16:06:16.865Z</time></trkpt><trkpt lat="43.6428829" lon="10.9382315"><ele>42.0</ele><time>2026-04-11T16:06:17.866Z</time></trkpt><trkpt lat="43.6429632" lon="10.9381506"><ele>42.0</ele><time>2026-04-11T16:06:18.871Z</time></trkpt><trkpt lat="43.643056" lon="10.9380662"><ele>42.25</ele><time>2026-04-11T16:06:20.939Z</time></trkpt><trkpt lat="43.6431554" lon="10.9380063"><ele>42.5</ele><time>2026-04-11T16:06:21.938Z</time></trkpt><trkpt lat="43.6433338" lon="10.9379654"><ele>42.75</ele><time>2026-04-11T16:06:22.835Z</time></trkpt><trkpt lat="43.643383" lon="10.9380929"><ele>43.0</ele><time>2026-04-11T16:06:23.838Z</time></trkpt><trkpt lat="43.6434129" lon="10.9382549"><ele>42.5</ele><time>2026-04-11T16:06:24.84Z</time></trkpt><trkpt lat="43.6434273" lon="10.9384089"><ele>42.0</ele><time>2026-04-11T16:06:25.836Z</time></trkpt><trkpt lat="43.6434122" lon="10.9385648"><ele>41.5</ele><time>2026-04-11T16:06:26.848Z</time></trkpt><trkpt lat="43.6433887" lon="10.9387349"><ele>41.0</ele><time>2026-04-11T16:06:27.85Z</time></trkpt><trkpt lat="43.6433901" lon="10.9388897"><ele>41.0</ele><time>2026-04-11T16:06:28.85Z</time></trkpt><trkpt lat="43.643429" lon="10.9390266"><ele>41.0</ele><time>2026-04-11T16:06:29.846Z</time></trkpt><trkpt lat="43.6434853" lon="10.9391284"><ele>41.0</ele><time>2026-04-11T16:06:30.854Z</time></trkpt><trkpt lat="43.6435464" lon="10.9391932"><ele>41.0</ele><time>2026-04-11T16:06:31.846Z</time></trkpt><trkpt lat="43.643637" lon="10.9391918"><ele>41.0</ele><time>2026-04-11T16:06:32.847Z</time></trkpt><trkpt lat="43.6437284" lon="10.9391414"><ele>40.5</ele><time>2026-04-11T16:06:33.854Z</time></trkpt><trkpt lat="43.6438222" lon="10.9390283"><ele>40.0</ele><time>2026-04-11T16:06:34.849Z</time></trkpt><trkpt lat="43.6438986" lon="10.9388529"><ele>39.5</ele><time>2026-04-11T16:06:35.851Z</time></trkpt><trkpt lat="43.6439531" lon="10.9386543"><ele>39.0</ele><time>2026-04-11T16:06:36.842Z</time></trkpt><trkpt lat="43.6440171" lon="10.9384262"><ele>39.333333333333336</ele><time>2026-04-11T16:06:37.843Z</time></trkpt><trkpt lat="43.6441341" lon="10.9382402"><ele>39.66666666666667</ele><time>2026-04-11T16:06:38.861Z</time></trkpt><trkpt lat="43.6442836" lon="10.9380455"><ele>40.0</ele><time>2026-04-11T16:06:39.85Z</time></trkpt><trkpt lat="43.6444397" lon="10.9378521"><ele>39.66666666666667</ele><time>2026-04-11T16:06:40.853Z</time></trkpt><trkpt lat="43.6445942" lon="10.9376519"><ele>39.333333333333336</ele><time>2026-04-11T16:06:41.85Z</time></trkpt><trkpt lat="43.6447673" lon="10.9374479"><ele>39.0</ele><time>2026-04-11T16:06:42.857Z</time></trkpt><trkpt lat="43.6449313" lon="10.9372378"><ele>39.0</ele><time>2026-04-11T16:06:43.856Z</time></trkpt><trkpt lat="43.6451024" lon="10.9370125"><ele>39.0</ele><time>2026-04-11T16:06:44.86Z</time></trkpt><trkpt lat="43.6452778" lon="10.9367777"><ele>39.0</ele><time>2026-04-11T16:06:45.855Z</time></trkpt><trkpt lat="43.6454639" lon="10.9365773"><ele>39.0</ele><time>2026-04-11T16:06:46.865Z</time></trkpt><trkpt lat="43.6456559" lon="10.9363769"><ele>39.0</ele><time>2026-04-11T16:06:47.866Z</time></trkpt><trkpt lat="43.6458424" lon="10.9361628"><ele>39.0</ele><time>2026-04-11T16:06:48.867Z</time></trkpt><trkpt lat="43.6460382" lon="10.9359577"><ele>38.666666666666664</ele><time>2026-04-11T16:06:49.864Z</time></trkpt><trkpt lat="43.6462217" lon="10.9357818"><ele>38.33333333333333</ele><time>2026-04-11T16:06:50.863Z</time></trkpt><trkpt lat="43.6464056" lon="10.9356044"><ele>38.0</ele><time>2026-04-11T16:06:51.865Z</time></trkpt><trkpt lat="43.6465987" lon="10.9354345"><ele>38.0</ele><time>2026-04-11T16:06:52.865Z</time></trkpt><trkpt lat="43.6467931" lon="10.935284"><ele>38.0</ele><time>2026-04-11T16:06:53.863Z</time></trkpt><trkpt lat="43.6469703" lon="10.9351412"><ele>38.0</ele><time>2026-04-11T16:06:54.869Z</time></trkpt><trkpt lat="43.6471583" lon="10.9349936"><ele>38.33333333333333</ele><time>2026-04-11T16:06:55.864Z</time></trkpt><trkpt lat="43.6473385" lon="10.9348413"><ele>38.666666666666664</ele><time>2026-04-11T16:06:56.864Z</time></trkpt><trkpt lat="43.6475265" lon="10.9346881"><ele>39.0</ele><time>2026-04-11T16:06:57.867Z</time></trkpt><trkpt lat="43.6477114" lon="10.9345439"><ele>38.666666666666664</ele><time>2026-04-11T16:06:58.873Z</time></trkpt><trkpt lat="43.6478964" lon="10.9343882"><ele>38.33333333333333</ele><time>2026-04-11T16:06:59.87Z</time></trkpt><trkpt lat="43.6480884" lon="10.9342467"><ele>38.0</ele><time>2026-04-11T16:07:00.873Z</time></trkpt><trkpt lat="43.6482763" lon="10.9341043"><ele>38.0</ele><time>2026-04-11T16:07:01.864Z</time></trkpt><trkpt lat="43.6484558" lon="10.9339479"><ele>38.0</ele><time>2026-04-11T16:07:02.863Z</time></trkpt><trkpt lat="43.6486447" lon="10.9337945"><ele>38.0</ele><time>2026-04-11T16:07:03.869Z</time></trkpt><trkpt lat="43.6488232" lon="10.9336431"><ele>37.666666666666664</ele><time>2026-04-11T16:07:04.871Z</time></trkpt><trkpt lat="43.6490123" lon="10.9334876"><ele>37.333333333333336</ele><time>2026-04-11T16:07:05.868Z</time></trkpt><trkpt lat="43.649198" lon="10.9333141"><ele>37.0</ele><time>2026-04-11T16:07:06.868Z</time></trkpt><trkpt lat="43.6493834" lon="10.9331463"><ele>37.0</ele><time>2026-04-11T16:07:07.87Z</time></trkpt><trkpt lat="43.6495406" lon="10.9329624"><ele>37.0</ele><time>2026-04-11T16:07:08.87Z</time></trkpt><trkpt lat="43.6497143" lon="10.9327657"><ele>37.0</ele><time>2026-04-11T16:07:09.873Z</time></trkpt><trkpt lat="43.6498674" lon="10.9325495"><ele>38.0</ele><time>2026-04-11T16:07:10.871Z</time></trkpt><trkpt lat="43.6500194" lon="10.9323342"><ele>39.0</ele><time>2026-04-11T16:07:11.871Z</time></trkpt><trkpt lat="43.6501864" lon="10.9320983"><ele>38.0</ele><time>2026-04-11T16:07:12.871Z</time></trkpt><trkpt lat="43.6503251" lon="10.9318599"><ele>37.0</ele><time>2026-04-11T16:07:13.87Z</time></trkpt><trkpt lat="43.6504726" lon="10.931607"><ele>37.0</ele><time>2026-04-11T16:07:14.865Z</time></trkpt><trkpt lat="43.6506231" lon="10.9313388"><ele>37.0</ele><time>2026-04-11T16:07:15.864Z</time></trkpt><trkpt lat="43.6507609" lon="10.9310363"><ele>38.0</ele><time>2026-04-11T16:07:16.861Z</time></trkpt><trkpt lat="43.6508635" lon="10.9307454"><ele>39.0</ele><time>2026-04-11T16:07:17.869Z</time></trkpt><trkpt lat="43.6509829" lon="10.9304592"><ele>39.0</ele><time>2026-04-11T16:07:18.875Z</time></trkpt><trkpt lat="43.6511033" lon="10.930175"><ele>39.0</ele><time>2026-04-11T16:07:19.872Z</time></trkpt><trkpt lat="43.6512224" lon="10.9299055"><ele>38.666666666666664</ele><time>2026-04-11T16:07:20.874Z</time></trkpt><trkpt lat="43.6513414" lon="10.9296617"><ele>38.33333333333333</ele><time>2026-04-11T16:07:21.872Z</time></trkpt><trkpt lat="43.6514646" lon="10.9294234"><ele>38.0</ele><time>2026-04-11T16:07:22.874Z</time></trkpt><trkpt lat="43.6515804" lon="10.9291831"><ele>38.0</ele><time>2026-04-11T16:07:23.87Z</time></trkpt><trkpt lat="43.6516818" lon="10.9289413"><ele>38.0</ele><time>2026-04-11T16:07:24.87Z</time></trkpt><trkpt lat="43.6517891" lon="10.9287124"><ele>38.0</ele><time>2026-04-11T16:07:25.87Z</time></trkpt><trkpt lat="43.6518958" lon="10.928482"><ele>37.666666666666664</ele><time>2026-04-11T16:07:26.866Z</time></trkpt><trkpt lat="43.6520116" lon="10.9282389"><ele>37.333333333333336</ele><time>2026-04-11T16:07:27.87Z</time></trkpt><trkpt lat="43.6521263" lon="10.9280025"><ele>37.0</ele><time>2026-04-11T16:07:28.871Z</time></trkpt><trkpt lat="43.6522627" lon="10.9277839"><ele>37.0</ele><time>2026-04-11T16:07:29.87Z</time></trkpt><trkpt lat="43.6523775" lon="10.9275646"><ele>37.0</ele><time>2026-04-11T16:07:30.873Z</time></trkpt><trkpt lat="43.6524917" lon="10.92735"><ele>37.0</ele><time>2026-04-11T16:07:31.869Z</time></trkpt><trkpt lat="43.6526257" lon="10.9271341"><ele>37.0</ele><time>2026-04-11T16:07:32.864Z</time></trkpt><trkpt lat="43.6527582" lon="10.926934"><ele>37.0</ele><time>2026-04-11T16:07:33.869Z</time></trkpt><trkpt lat="43.652902" lon="10.9267392"><ele>37.0</ele><time>2026-04-11T16:07:34.87Z</time></trkpt><trkpt lat="43.6530592" lon="10.9265462"><ele>37.0</ele><time>2026-04-11T16:07:35.871Z</time></trkpt><trkpt lat="43.653214" lon="10.9263715"><ele>37.0</ele><time>2026-04-11T16:07:36.867Z</time></trkpt><trkpt lat="43.6533743" lon="10.9262148"><ele>37.0</ele><time>2026-04-11T16:07:37.871Z</time></trkpt><trkpt lat="43.6535448" lon="10.9260581"><ele>36.66666666666667</ele><time>2026-04-11T16:07:38.871Z</time></trkpt><trkpt lat="43.6537273" lon="10.9259028"><ele>36.333333333333336</ele><time>2026-04-11T16:07:39.864Z</time></trkpt><trkpt lat="43.6539045" lon="10.9257634"><ele>36.0</ele><time>2026-04-11T16:07:40.873Z</time></trkpt><trkpt lat="43.6541049" lon="10.9256316"><ele>36.0</ele><time>2026-04-11T16:07:41.865Z</time></trkpt><trkpt lat="43.6543233" lon="10.9254959"><ele>36.0</ele><time>2026-04-11T16:07:42.865Z</time></trkpt><trkpt lat="43.6545422" lon="10.9253868"><ele>36.0</ele><time>2026-04-11T16:07:43.867Z</time></trkpt><trkpt lat="43.6547765" lon="10.9252867"><ele>36.0</ele><time>2026-04-11T16:07:44.868Z</time></trkpt><trkpt lat="43.6549992" lon="10.9252069"><ele>36.0</ele><time>2026-04-11T16:07:45.869Z</time></trkpt><trkpt lat="43.6552233" lon="10.9251267"><ele>36.0</ele><time>2026-04-11T16:07:46.869Z</time></trkpt><trkpt lat="43.6554446" lon="10.9250838"><ele>36.0</ele><time>2026-04-11T16:07:47.873Z</time></trkpt><trkpt lat="43.6556744" lon="10.925054"><ele>36.0</ele><time>2026-04-11T16:07:48.873Z</time></trkpt><trkpt lat="43.6558949" lon="10.9250514"><ele>36.0</ele><time>2026-04-11T16:07:49.87Z</time></trkpt><trkpt lat="43.6561108" lon="10.9250375"><ele>36.0</ele><time>2026-04-11T16:07:50.864Z</time></trkpt><trkpt lat="43.6563319" lon="10.9250474"><ele>36.0</ele><time>2026-04-11T16:07:51.868Z</time></trkpt><trkpt lat="43.6565639" lon="10.9250555"><ele>36.0</ele><time>2026-04-11T16:07:52.875Z</time></trkpt><trkpt lat="43.6567659" lon="10.9250997"><ele>36.0</ele><time>2026-04-11T16:07:53.865Z</time></trkpt><trkpt lat="43.6569741" lon="10.9251373"><ele>36.0</ele><time>2026-04-11T16:07:54.873Z</time></trkpt><trkpt lat="43.6571726" lon="10.9252019"><ele>35.666666666666664</ele><time>2026-04-11T16:07:55.87Z</time></trkpt><trkpt lat="43.657359" lon="10.9252768"><ele>35.33333333333333</ele><time>2026-04-11T16:07:56.873Z</time></trkpt><trkpt lat="43.6575557" lon="10.925356"><ele>35.0</ele><time>2026-04-11T16:07:57.866Z</time></trkpt><trkpt lat="43.6577544" lon="10.9254246"><ele>35.666666666666664</ele><time>2026-04-11T16:07:58.868Z</time></trkpt><trkpt lat="43.6579557" lon="10.9255008"><ele>36.333333333333336</ele><time>2026-04-11T16:07:59.872Z</time></trkpt><trkpt lat="43.6581487" lon="10.9255933"><ele>37.0</ele><time>2026-04-11T16:08:00.876Z</time></trkpt><trkpt lat="43.6583375" lon="10.9256839"><ele>37.0</ele><time>2026-04-11T16:08:01.871Z</time></trkpt><trkpt lat="43.6585182" lon="10.9257757"><ele>37.0</ele><time>2026-04-11T16:08:02.881Z</time></trkpt><trkpt lat="43.6587241" lon="10.9258681"><ele>37.0</ele><time>2026-04-11T16:08:03.876Z</time></trkpt><trkpt lat="43.6589011" lon="10.9259599"><ele>36.66666666666667</ele><time>2026-04-11T16:08:04.881Z</time></trkpt><trkpt lat="43.6591036" lon="10.9260569"><ele>36.333333333333336</ele><time>2026-04-11T16:08:05.881Z</time></trkpt><trkpt lat="43.6592903" lon="10.9261465"><ele>36.0</ele><time>2026-04-11T16:08:06.876Z</time></trkpt><trkpt lat="43.6594894" lon="10.9262375"><ele>35.666666666666664</ele><time>2026-04-11T16:08:07.88Z</time></trkpt><trkpt lat="43.6596979" lon="10.9263335"><ele>35.33333333333333</ele><time>2026-04-11T16:08:08.873Z</time></trkpt><trkpt lat="43.6599079" lon="10.9264383"><ele>35.0</ele><time>2026-04-11T16:08:09.88Z</time></trkpt><trkpt lat="43.6601226" lon="10.9265175"><ele>36.0</ele><time>2026-04-11T16:08:10.88Z</time></trkpt><trkpt lat="43.6603475" lon="10.9266027"><ele>37.0</ele><time>2026-04-11T16:08:11.878Z</time></trkpt><trkpt lat="43.6605755" lon="10.9266562"><ele>37.0</ele><time>2026-04-11T16:08:12.873Z</time></trkpt><trkpt lat="43.6607953" lon="10.9267334"><ele>37.0</ele><time>2026-04-11T16:08:13.901Z</time></trkpt><trkpt lat="43.6610346" lon="10.9267892"><ele>36.66666666666667</ele><time>2026-04-11T16:08:14.887Z</time></trkpt><trkpt lat="43.6612588" lon="10.9268382"><ele>36.333333333333336</ele><time>2026-04-11T16:08:16.959Z</time></trkpt><trkpt lat="43.6614761" lon="10.9268711"><ele>36.0</ele><time>2026-04-11T16:08:17.966Z</time></trkpt><trkpt lat="43.661686" lon="10.9268935"><ele>36.0</ele><time>2026-04-11T16:08:18.965Z</time></trkpt><trkpt lat="43.661895" lon="10.9269052"><ele>36.0</ele><time>2026-04-11T16:08:19.962Z</time></trkpt><trkpt lat="43.6621036" lon="10.9269124"><ele>36.0</ele><time>2026-04-11T16:08:20.965Z</time></trkpt><trkpt lat="43.6623135" lon="10.9269151"><ele>36.0</ele><time>2026-04-11T16:08:21.959Z</time></trkpt><trkpt lat="43.662524" lon="10.9269065"><ele>36.0</ele><time>2026-04-11T16:08:22.968Z</time></trkpt><trkpt lat="43.6627358" lon="10.9268839"><ele>36.0</ele><time>2026-04-11T16:08:23.963Z</time></trkpt><trkpt lat="43.6629463" lon="10.9268514"><ele>36.0</ele><time>2026-04-11T16:08:24.963Z</time></trkpt><trkpt lat="43.6631558" lon="10.9268099"><ele>36.0</ele><time>2026-04-11T16:08:25.964Z</time></trkpt><trkpt lat="43.6633615" lon="10.92676"><ele>36.0</ele><time>2026-04-11T16:08:26.963Z</time></trkpt><trkpt lat="43.6635439" lon="10.9266444"><ele>36.0</ele><time>2026-04-11T16:08:27.964Z</time></trkpt><trkpt lat="43.6637411" lon="10.9265801"><ele>36.0</ele><time>2026-04-11T16:08:28.961Z</time></trkpt><trkpt lat="43.6639339" lon="10.9265007"><ele>36.0</ele><time>2026-04-11T16:08:29.968Z</time></trkpt><trkpt lat="43.6641245" lon="10.9264095"><ele>36.0</ele><time>2026-04-11T16:08:30.976Z</time></trkpt><trkpt lat="43.6643204" lon="10.926315"><ele>36.0</ele><time>2026-04-11T16:08:31.966Z</time></trkpt><trkpt lat="43.6645152" lon="10.9262162"><ele>36.0</ele><time>2026-04-11T16:08:32.966Z</time></trkpt><trkpt lat="43.6647066" lon="10.92611"><ele>35.666666666666664</ele><time>2026-04-11T16:08:33.962Z</time></trkpt><trkpt lat="43.664896" lon="10.9259884"><ele>35.33333333333333</ele><time>2026-04-11T16:08:34.963Z</time></trkpt><trkpt lat="43.6650804" lon="10.9258615"><ele>35.0</ele><time>2026-04-11T16:08:35.967Z</time></trkpt><trkpt lat="43.6652622" lon="10.9257249"><ele>34.666666666666664</ele><time>2026-04-11T16:08:36.97Z</time></trkpt><trkpt lat="43.6654413" lon="10.9255819"><ele>34.333333333333336</ele><time>2026-04-11T16:08:37.967Z</time></trkpt><trkpt lat="43.6656182" lon="10.9254314"><ele>34.0</ele><time>2026-04-11T16:08:38.975Z</time></trkpt><trkpt lat="43.6657902" lon="10.9252768"><ele>34.0</ele><time>2026-04-11T16:08:39.97Z</time></trkpt><trkpt lat="43.6659629" lon="10.9251148"><ele>34.0</ele><time>2026-04-11T16:08:40.975Z</time></trkpt><trkpt lat="43.666134" lon="10.9249501"><ele>34.0</ele><time>2026-04-11T16:08:41.973Z</time></trkpt><trkpt lat="43.6663049" lon="10.9247816"><ele>34.333333333333336</ele><time>2026-04-11T16:08:42.97Z</time></trkpt><trkpt lat="43.6664804" lon="10.9246118"><ele>34.666666666666664</ele><time>2026-04-11T16:08:43.967Z</time></trkpt><trkpt lat="43.6666544" lon="10.9244398"><ele>35.0</ele><time>2026-04-11T16:08:44.969Z</time></trkpt><trkpt lat="43.6668303" lon="10.9242636"><ele>35.666666666666664</ele><time>2026-04-11T16:08:45.969Z</time></trkpt><trkpt lat="43.6670075" lon="10.9240868"><ele>36.333333333333336</ele><time>2026-04-11T16:08:46.967Z</time></trkpt><trkpt lat="43.6671834" lon="10.9239067"><ele>37.0</ele><time>2026-04-11T16:08:47.969Z</time></trkpt><trkpt lat="43.6673603" lon="10.9237273"><ele>37.0</ele><time>2026-04-11T16:08:48.965Z</time></trkpt><trkpt lat="43.6675382" lon="10.9235474"><ele>37.0</ele><time>2026-04-11T16:08:49.973Z</time></trkpt><trkpt lat="43.6677165" lon="10.923367"><ele>37.0</ele><time>2026-04-11T16:08:50.969Z</time></trkpt><trkpt lat="43.667892" lon="10.9231866"><ele>37.0</ele><time>2026-04-11T16:08:51.971Z</time></trkpt><trkpt lat="43.6680668" lon="10.92301"><ele>37.0</ele><time>2026-04-11T16:08:52.964Z</time></trkpt><trkpt lat="43.6682423" lon="10.922835"><ele>37.0</ele><time>2026-04-11T16:08:53.966Z</time></trkpt><trkpt lat="43.6684168" lon="10.9226591"><ele>36.333333333333336</ele><time>2026-04-11T16:08:54.966Z</time></trkpt><trkpt lat="43.6685908" lon="10.9224815"><ele>35.666666666666664</ele><time>2026-04-11T16:08:55.971Z</time></trkpt><trkpt lat="43.6687657" lon="10.9223034"><ele>35.0</ele><time>2026-04-11T16:08:56.974Z</time></trkpt><trkpt lat="43.6689426" lon="10.9221249"><ele>35.0</ele><time>2026-04-11T16:08:57.972Z</time></trkpt><trkpt lat="43.66912" lon="10.9219497"><ele>35.0</ele><time>2026-04-11T16:08:58.968Z</time></trkpt><trkpt lat="43.6692962" lon="10.9217742"><ele>35.0</ele><time>2026-04-11T16:08:59.974Z</time></trkpt><trkpt lat="43.6694734" lon="10.9215951"><ele>34.666666666666664</ele><time>2026-04-11T16:09:00.975Z</time></trkpt><trkpt lat="43.6696502" lon="10.9214175"><ele>34.333333333333336</ele><time>2026-04-11T16:09:01.967Z</time></trkpt><trkpt lat="43.669827" lon="10.9212383"><ele>34.0</ele><time>2026-04-11T16:09:02.966Z</time></trkpt><trkpt lat="43.6700024" lon="10.9210602"><ele>34.0</ele><time>2026-04-11T16:09:03.97Z</time></trkpt><trkpt lat="43.6701783" lon="10.9208801"><ele>34.0</ele><time>2026-04-11T16:09:04.966Z</time></trkpt><trkpt lat="43.6703596" lon="10.9206954"><ele>34.0</ele><time>2026-04-11T16:09:05.969Z</time></trkpt><trkpt lat="43.670545" lon="10.9205081"><ele>34.0</ele><time>2026-04-11T16:09:06.969Z</time></trkpt><trkpt lat="43.6707277" lon="10.920319"><ele>34.0</ele><time>2026-04-11T16:09:07.976Z</time></trkpt><trkpt lat="43.6709107" lon="10.9201332"><ele>34.0</ele><time>2026-04-11T16:09:08.971Z</time></trkpt><trkpt lat="43.6710958" lon="10.9199482"><ele>34.0</ele><time>2026-04-11T16:09:09.974Z</time></trkpt><trkpt lat="43.6712835" lon="10.9197637"><ele>34.5</ele><time>2026-04-11T16:09:10.968Z</time></trkpt><trkpt lat="43.6714717" lon="10.9195841"><ele>35.0</ele><time>2026-04-11T16:09:11.97Z</time></trkpt><trkpt lat="43.6716596" lon="10.9194089"><ele>35.0</ele><time>2026-04-11T16:09:12.966Z</time></trkpt><trkpt lat="43.6718518" lon="10.919239"><ele>35.0</ele><time>2026-04-11T16:09:13.975Z</time></trkpt><trkpt lat="43.6720458" lon="10.9190766"><ele>35.0</ele><time>2026-04-11T16:09:14.966Z</time></trkpt><trkpt lat="43.6722426" lon="10.9189256"><ele>35.0</ele><time>2026-04-11T16:09:15.963Z</time></trkpt><trkpt lat="43.672446" lon="10.9187855"><ele>35.0</ele><time>2026-04-11T16:09:16.973Z</time></trkpt><trkpt lat="43.6726538" lon="10.9186542"><ele>35.0</ele><time>2026-04-11T16:09:17.972Z</time></trkpt><trkpt lat="43.6728612" lon="10.9185322"><ele>35.0</ele><time>2026-04-11T16:09:18.971Z</time></trkpt><trkpt lat="43.673063" lon="10.9184211"><ele>35.0</ele><time>2026-04-11T16:09:19.969Z</time></trkpt><trkpt lat="43.6732594" lon="10.9183189"><ele>35.0</ele><time>2026-04-11T16:09:20.971Z</time></trkpt><trkpt lat="43.6734552" lon="10.918226"><ele>34.666666666666664</ele><time>2026-04-11T16:09:21.967Z</time></trkpt><trkpt lat="43.6736473" lon="10.9181422"><ele>34.333333333333336</ele><time>2026-04-11T16:09:22.97Z</time></trkpt><trkpt lat="43.673841" lon="10.9180684"><ele>34.0</ele><time>2026-04-11T16:09:23.968Z</time></trkpt><trkpt lat="43.6740409" lon="10.9179953"><ele>34.0</ele><time>2026-04-11T16:09:24.968Z</time></trkpt><trkpt lat="43.6742495" lon="10.9179198"><ele>34.0</ele><time>2026-04-11T16:09:25.961Z</time></trkpt><trkpt lat="43.6744777" lon="10.9178437"><ele>33.5</ele><time>2026-04-11T16:09:26.961Z</time></trkpt><trkpt lat="43.6747161" lon="10.9177771"><ele>33.0</ele><time>2026-04-11T16:09:27.974Z</time></trkpt><trkpt lat="43.6749622" lon="10.9177167"><ele>33.0</ele><time>2026-04-11T16:09:28.975Z</time></trkpt><trkpt lat="43.6752116" lon="10.9176583"><ele>33.0</ele><time>2026-04-11T16:09:29.968Z</time></trkpt><trkpt lat="43.6754631" lon="10.9176027"><ele>33.0</ele><time>2026-04-11T16:09:30.976Z</time></trkpt><trkpt lat="43.6757259" lon="10.917557"><ele>33.0</ele><time>2026-04-11T16:09:31.96Z</time></trkpt><trkpt lat="43.6759764" lon="10.9175088"><ele>33.0</ele><time>2026-04-11T16:09:32.964Z</time></trkpt><trkpt lat="43.6762129" lon="10.9174583"><ele>33.0</ele><time>2026-04-11T16:09:33.965Z</time></trkpt><trkpt lat="43.6764371" lon="10.9174033"><ele>33.0</ele><time>2026-04-11T16:09:34.964Z</time></trkpt><trkpt lat="43.6766514" lon="10.9173435"><ele>33.0</ele><time>2026-04-11T16:09:35.97Z</time></trkpt><trkpt lat="43.676863" lon="10.9172786"><ele>33.0</ele><time>2026-04-11T16:09:36.962Z</time></trkpt><trkpt lat="43.6770737" lon="10.9171986"><ele>33.333333333333336</ele><time>2026-04-11T16:09:37.963Z</time></trkpt><trkpt lat="43.6772756" lon="10.9171072"><ele>33.66666666666667</ele><time>2026-04-11T16:09:38.967Z</time></trkpt><trkpt lat="43.6774716" lon="10.9170112"><ele>34.0</ele><time>2026-04-11T16:09:39.958Z</time></trkpt><trkpt lat="43.6776451" lon="10.9169241"><ele>34.25</ele><time>2026-04-11T16:09:40.961Z</time></trkpt><trkpt lat="43.6777998" lon="10.9168449"><ele>34.5</ele><time>2026-04-11T16:09:41.958Z</time></trkpt><trkpt lat="43.6779385" lon="10.916777"><ele>34.75</ele><time>2026-04-11T16:09:42.953Z</time></trkpt><trkpt lat="43.6780605" lon="10.9167283"><ele>35.0</ele><time>2026-04-11T16:09:43.96Z</time></trkpt><trkpt lat="43.6781659" lon="10.9167101"><ele>35.0</ele><time>2026-04-11T16:09:44.959Z</time></trkpt><trkpt lat="43.6782695" lon="10.9167208"><ele>35.0</ele><time>2026-04-11T16:09:45.939Z</time></trkpt><trkpt lat="43.6783557" lon="10.9167539"><ele>35.0</ele><time>2026-04-11T16:09:46.941Z</time></trkpt><trkpt lat="43.6784256" lon="10.916787"><ele>35.0</ele><time>2026-04-11T16:09:47.936Z</time></trkpt><trkpt lat="43.6785084" lon="10.9168082"><ele>35.0</ele><time>2026-04-11T16:09:49.96Z</time></trkpt><trkpt lat="43.6785697" lon="10.916749"><ele>35.0</ele><time>2026-04-11T16:10:19.967Z</time></trkpt><trkpt lat="43.6785112" lon="10.9167952"><ele>35.0</ele><time>2026-04-11T16:10:20.971Z</time></trkpt><trkpt lat="43.6785975" lon="10.9167069"><ele>35.0</ele><time>2026-04-11T16:10:22.934Z</time></trkpt><trkpt lat="43.6786477" lon="10.9166191"><ele>35.0</ele><time>2026-04-11T16:10:23.938Z</time></trkpt><trkpt lat="43.6787593" lon="10.9162608"><ele>34.666666666666664</ele><time>2026-04-11T16:10:24.855Z</time></trkpt><trkpt lat="43.6788151" lon="10.9160763"><ele>34.333333333333336</ele><time>2026-04-11T16:10:25.856Z</time></trkpt><trkpt lat="43.6789209" lon="10.9159218"><ele>34.0</ele><time>2026-04-11T16:10:26.868Z</time></trkpt><trkpt lat="43.6790606" lon="10.915785"><ele>34.0</ele><time>2026-04-11T16:10:27.869Z</time></trkpt><trkpt lat="43.6792039" lon="10.915631"><ele>34.0</ele><time>2026-04-11T16:10:28.87Z</time></trkpt><trkpt lat="43.6793579" lon="10.915437"><ele>34.0</ele><time>2026-04-11T16:10:29.864Z</time></trkpt><trkpt lat="43.6795434" lon="10.9152416"><ele>34.0</ele><time>2026-04-11T16:10:30.867Z</time></trkpt><trkpt lat="43.6797188" lon="10.9150723"><ele>34.0</ele><time>2026-04-11T16:10:31.865Z</time></trkpt><trkpt lat="43.6799097" lon="10.9148742"><ele>34.0</ele><time>2026-04-11T16:10:32.875Z</time></trkpt><trkpt lat="43.6800941" lon="10.9146838"><ele>34.0</ele><time>2026-04-11T16:10:33.869Z</time></trkpt><trkpt lat="43.6802863" lon="10.9144823"><ele>34.0</ele><time>2026-04-11T16:10:34.875Z</time></trkpt><trkpt lat="43.6804921" lon="10.9142892"><ele>34.0</ele><time>2026-04-11T16:10:35.88Z</time></trkpt><trkpt lat="43.6806942" lon="10.9141242"><ele>34.0</ele><time>2026-04-11T16:10:36.876Z</time></trkpt><trkpt lat="43.6808948" lon="10.9139682"><ele>34.0</ele><time>2026-04-11T16:10:37.876Z</time></trkpt><trkpt lat="43.6811122" lon="10.9138231"><ele>34.0</ele><time>2026-04-11T16:10:38.881Z</time></trkpt><trkpt lat="43.6813383" lon="10.9136949"><ele>34.0</ele><time>2026-04-11T16:10:39.877Z</time></trkpt><trkpt lat="43.6815486" lon="10.91357"><ele>34.0</ele><time>2026-04-11T16:10:40.889Z</time></trkpt><trkpt lat="43.6817698" lon="10.9134673"><ele>34.0</ele><time>2026-04-11T16:10:41.878Z</time></trkpt><trkpt lat="43.6819789" lon="10.9133801"><ele>33.0</ele><time>2026-04-11T16:10:42.883Z</time></trkpt><trkpt lat="43.6821955" lon="10.9132931"><ele>32.0</ele><time>2026-04-11T16:10:43.879Z</time></trkpt><trkpt lat="43.6824299" lon="10.9132315"><ele>32.0</ele><time>2026-04-11T16:10:44.88Z</time></trkpt><trkpt lat="43.6826509" lon="10.9131654"><ele>32.0</ele><time>2026-04-11T16:10:45.879Z</time></trkpt><trkpt lat="43.6828859" lon="10.9131111"><ele>32.0</ele><time>2026-04-11T16:10:46.879Z</time></trkpt><trkpt lat="43.6831123" lon="10.9130771"><ele>32.0</ele><time>2026-04-11T16:10:47.875Z</time></trkpt><trkpt lat="43.6833401" lon="10.9130194"><ele>32.0</ele><time>2026-04-11T16:10:48.885Z</time></trkpt><trkpt lat="43.6835692" lon="10.9129787"><ele>32.0</ele><time>2026-04-11T16:10:49.877Z</time></trkpt><trkpt lat="43.6838071" lon="10.912935"><ele>32.0</ele><time>2026-04-11T16:10:50.883Z</time></trkpt><trkpt lat="43.6847133" lon="10.9127276"><ele>34.0</ele><time>2026-04-11T16:10:54.878Z</time></trkpt><trkpt lat="43.6887563" lon="10.9112638"><ele>37.0</ele><time>2026-04-11T16:11:12.881Z</time></trkpt><trkpt lat="43.692803" lon="10.9117432"><ele>39.0</ele><time>2026-04-11T16:11:25.813Z</time></trkpt><trkpt lat="43.6976528" lon="10.9115057"><ele>29.0</ele><time>2026-04-11T16:12:00.88Z</time></trkpt><trkpt lat="43.7023917" lon="10.9119601"><ele>22.0</ele><time>2026-04-11T16:12:28.859Z</time></trkpt><trkpt lat="43.7057067" lon="10.9131332"><ele>25.0</ele><time>2026-04-11T16:12:45.897Z</time></trkpt><trkpt lat="43.7083226" lon="10.9175627"><ele>22.0</ele><time>2026-04-11T16:13:25.943Z</time></trkpt><trkpt lat="43.7092311" lon="10.9210695"><ele>24.0</ele><time>2026-04-11T16:13:44.871Z</time></trkpt><trkpt lat="43.7090601" lon="10.9268438"><ele>25.0</ele><time>2026-04-11T16:14:01.892Z</time></trkpt><trkpt lat="43.7093624" lon="10.9325076"><ele>25.0</ele><time>2026-04-11T16:14:21.879Z</time></trkpt><trkpt lat="43.7092356" lon="10.9373353"><ele>24.0</ele><time>2026-04-11T16:14:40.869Z</time></trkpt><trkpt lat="43.7114318" lon="10.9409469"><ele>24.0</ele><time>2026-04-11T16:15:30.868Z</time></trkpt><trkpt lat="43.7114817" lon="10.943764"><ele>27.0</ele><time>2026-04-11T16:15:48.872Z</time></trkpt><trkpt lat="43.7135171" lon="10.9439924"><ele>26.0</ele><time>2026-04-11T16:16:24.945Z</time></trkpt><trkpt lat="43.7136002" lon="10.9459259"><ele>26.0</ele><time>2026-04-11T16:16:48.956Z</time></trkpt></trkseg></trk></gpx>